<?xml version="1.0" encoding="UTF-8" standalone="no" ?>
<gpx xmlns="http://www.topografix.com/GPX/1/1" xmlns:xsi="http://www.w3.org/2001/XMLSchema-instance" xsi:schemaLocation="http://www.topografix.com/GPX/1/1 http://www.topografix.com/GPX/1/1/gpx.xsd" version="1.1" creator="VisuGPX - https://www.visugpx.com">
  <metadata>
    <name>Rumigny</name>
  </metadata>
  <trk>
    <name><![CDATA[Rumigny_1]]></name>
    <trkseg>
      <trkpt lat="49.81215" lon="2.2746">
        <ele>117.7</ele>
        <time>2023-09-13T07:04:12Z</time>
      </trkpt>
      <trkpt lat="49.81216" lon="2.2746">
        <ele>117.7</ele>
        <time>2023-09-13T07:04:13Z</time>
      </trkpt>
      <trkpt lat="49.81217" lon="2.2746">
        <ele>117.7</ele>
        <time>2023-09-13T07:04:15Z</time>
      </trkpt>
      <trkpt lat="49.81218" lon="2.2746">
        <ele>117.7</ele>
        <time>2023-09-13T07:04:16Z</time>
      </trkpt>
      <trkpt lat="49.81219" lon="2.2746">
        <ele>117.7</ele>
        <time>2023-09-13T07:04:17Z</time>
      </trkpt>
      <trkpt lat="49.8122" lon="2.27459">
        <ele>117.7</ele>
        <time>2023-09-13T07:04:18Z</time>
      </trkpt>
      <trkpt lat="49.81221" lon="2.27458">
        <ele>117.7</ele>
        <time>2023-09-13T07:04:19Z</time>
      </trkpt>
      <trkpt lat="49.8122" lon="2.27457">
        <ele>117.7</ele>
        <time>2023-09-13T07:04:21Z</time>
      </trkpt>
      <trkpt lat="49.8122" lon="2.27456">
        <ele>117.7</ele>
        <time>2023-09-13T07:04:22Z</time>
      </trkpt>
      <trkpt lat="49.81221" lon="2.27454">
        <ele>117.7</ele>
        <time>2023-09-13T07:04:23Z</time>
      </trkpt>
      <trkpt lat="49.81221" lon="2.27452">
        <ele>117.7</ele>
        <time>2023-09-13T07:04:24Z</time>
      </trkpt>
      <trkpt lat="49.81222" lon="2.27451">
        <ele>117.7</ele>
        <time>2023-09-13T07:04:25Z</time>
      </trkpt>
      <trkpt lat="49.81224" lon="2.2745">
        <ele>117.7</ele>
        <time>2023-09-13T07:04:26Z</time>
      </trkpt>
      <trkpt lat="49.81225" lon="2.27449">
        <ele>117.7</ele>
        <time>2023-09-13T07:04:27Z</time>
      </trkpt>
      <trkpt lat="49.81227" lon="2.27448">
        <ele>117.7</ele>
        <time>2023-09-13T07:04:29Z</time>
      </trkpt>
      <trkpt lat="49.8123" lon="2.27446">
        <ele>117.7</ele>
        <time>2023-09-13T07:04:30Z</time>
      </trkpt>
      <trkpt lat="49.8123" lon="2.27446">
        <ele>117.7</ele>
        <time>2023-09-13T07:04:31Z</time>
      </trkpt>
      <trkpt lat="49.81232" lon="2.27445">
        <ele>117.7</ele>
        <time>2023-09-13T07:04:33Z</time>
      </trkpt>
      <trkpt lat="49.81233" lon="2.27444">
        <ele>117.7</ele>
        <time>2023-09-13T07:04:34Z</time>
      </trkpt>
      <trkpt lat="49.81235" lon="2.27443">
        <ele>117.8</ele>
        <time>2023-09-13T07:04:35Z</time>
      </trkpt>
      <trkpt lat="49.81236" lon="2.27442">
        <ele>117.8</ele>
        <time>2023-09-13T07:04:36Z</time>
      </trkpt>
      <trkpt lat="49.81238" lon="2.27441">
        <ele>117.8</ele>
        <time>2023-09-13T07:04:37Z</time>
      </trkpt>
      <trkpt lat="49.81239" lon="2.27439">
        <ele>117.8</ele>
        <time>2023-09-13T07:04:38Z</time>
      </trkpt>
      <trkpt lat="49.8124" lon="2.27438">
        <ele>117.8</ele>
        <time>2023-09-13T07:04:40Z</time>
      </trkpt>
      <trkpt lat="49.81241" lon="2.27437">
        <ele>117.8</ele>
        <time>2023-09-13T07:04:41Z</time>
      </trkpt>
      <trkpt lat="49.81242" lon="2.27435">
        <ele>117.8</ele>
        <time>2023-09-13T07:04:42Z</time>
      </trkpt>
      <trkpt lat="49.81242" lon="2.27434">
        <ele>117.8</ele>
        <time>2023-09-13T07:04:43Z</time>
      </trkpt>
      <trkpt lat="49.81243" lon="2.27433">
        <ele>117.8</ele>
        <time>2023-09-13T07:04:44Z</time>
      </trkpt>
      <trkpt lat="49.81244" lon="2.2743">
        <ele>117.8</ele>
        <time>2023-09-13T07:04:45Z</time>
      </trkpt>
      <trkpt lat="49.81245" lon="2.27428">
        <ele>117.8</ele>
        <time>2023-09-13T07:04:46Z</time>
      </trkpt>
      <trkpt lat="49.81246" lon="2.27426">
        <ele>117.8</ele>
        <time>2023-09-13T07:04:47Z</time>
      </trkpt>
      <trkpt lat="49.81247" lon="2.27424">
        <ele>117.8</ele>
        <time>2023-09-13T07:04:48Z</time>
      </trkpt>
      <trkpt lat="49.81248" lon="2.27422">
        <ele>117.8</ele>
        <time>2023-09-13T07:04:50Z</time>
      </trkpt>
      <trkpt lat="49.81248" lon="2.27421">
        <ele>117.8</ele>
        <time>2023-09-13T07:04:51Z</time>
      </trkpt>
      <trkpt lat="49.81249" lon="2.27419">
        <ele>117.8</ele>
        <time>2023-09-13T07:04:52Z</time>
      </trkpt>
      <trkpt lat="49.8125" lon="2.27417">
        <ele>117.8</ele>
        <time>2023-09-13T07:04:53Z</time>
      </trkpt>
      <trkpt lat="49.8125" lon="2.27417">
        <ele>117.8</ele>
        <time>2023-09-13T07:04:54Z</time>
      </trkpt>
      <trkpt lat="49.8125" lon="2.27417">
        <ele>117.8</ele>
        <time>2023-09-13T07:04:55Z</time>
      </trkpt>
      <trkpt lat="49.81251" lon="2.27415">
        <ele>117.8</ele>
        <time>2023-09-13T07:04:56Z</time>
      </trkpt>
      <trkpt lat="49.81251" lon="2.27414">
        <ele>117.8</ele>
        <time>2023-09-13T07:04:57Z</time>
      </trkpt>
      <trkpt lat="49.81252" lon="2.27413">
        <ele>117.8</ele>
        <time>2023-09-13T07:04:58Z</time>
      </trkpt>
      <trkpt lat="49.81252" lon="2.27412">
        <ele>117.8</ele>
        <time>2023-09-13T07:04:59Z</time>
      </trkpt>
      <trkpt lat="49.81253" lon="2.27411">
        <ele>117.8</ele>
        <time>2023-09-13T07:05:01Z</time>
      </trkpt>
      <trkpt lat="49.81254" lon="2.2741">
        <ele>117.8</ele>
        <time>2023-09-13T07:05:02Z</time>
      </trkpt>
      <trkpt lat="49.81255" lon="2.27409">
        <ele>117.9</ele>
        <time>2023-09-13T07:05:03Z</time>
      </trkpt>
      <trkpt lat="49.81256" lon="2.27409">
        <ele>117.9</ele>
        <time>2023-09-13T07:05:04Z</time>
      </trkpt>
      <trkpt lat="49.81257" lon="2.27408">
        <ele>117.9</ele>
        <time>2023-09-13T07:05:05Z</time>
      </trkpt>
      <trkpt lat="49.81258" lon="2.27408">
        <ele>117.9</ele>
        <time>2023-09-13T07:05:06Z</time>
      </trkpt>
      <trkpt lat="49.81259" lon="2.27407">
        <ele>117.9</ele>
        <time>2023-09-13T07:05:07Z</time>
      </trkpt>
      <trkpt lat="49.81261" lon="2.27405">
        <ele>117.9</ele>
        <time>2023-09-13T07:05:08Z</time>
      </trkpt>
      <trkpt lat="49.81262" lon="2.27404">
        <ele>117.9</ele>
        <time>2023-09-13T07:05:09Z</time>
      </trkpt>
      <trkpt lat="49.81263" lon="2.27403">
        <ele>117.9</ele>
        <time>2023-09-13T07:05:10Z</time>
      </trkpt>
      <trkpt lat="49.81264" lon="2.27401">
        <ele>117.9</ele>
        <time>2023-09-13T07:05:12Z</time>
      </trkpt>
      <trkpt lat="49.81265" lon="2.27399">
        <ele>117.9</ele>
        <time>2023-09-13T07:05:13Z</time>
      </trkpt>
      <trkpt lat="49.81267" lon="2.27398">
        <ele>117.9</ele>
        <time>2023-09-13T07:05:14Z</time>
      </trkpt>
      <trkpt lat="49.81268" lon="2.27396">
        <ele>117.9</ele>
        <time>2023-09-13T07:05:15Z</time>
      </trkpt>
      <trkpt lat="49.81269" lon="2.27394">
        <ele>117.9</ele>
        <time>2023-09-13T07:05:16Z</time>
      </trkpt>
      <trkpt lat="49.81271" lon="2.27393">
        <ele>117.9</ele>
        <time>2023-09-13T07:05:18Z</time>
      </trkpt>
      <trkpt lat="49.81272" lon="2.27391">
        <ele>117.9</ele>
        <time>2023-09-13T07:05:19Z</time>
      </trkpt>
      <trkpt lat="49.81273" lon="2.2739">
        <ele>117.9</ele>
        <time>2023-09-13T07:05:20Z</time>
      </trkpt>
      <trkpt lat="49.81274" lon="2.27388">
        <ele>117.9</ele>
        <time>2023-09-13T07:05:21Z</time>
      </trkpt>
      <trkpt lat="49.81275" lon="2.27387">
        <ele>117.9</ele>
        <time>2023-09-13T07:05:22Z</time>
      </trkpt>
      <trkpt lat="49.81277" lon="2.27385">
        <ele>117.9</ele>
        <time>2023-09-13T07:05:24Z</time>
      </trkpt>
      <trkpt lat="49.81278" lon="2.27384">
        <ele>117.9</ele>
        <time>2023-09-13T07:05:25Z</time>
      </trkpt>
      <trkpt lat="49.81279" lon="2.27382">
        <ele>117.9</ele>
        <time>2023-09-13T07:05:26Z</time>
      </trkpt>
      <trkpt lat="49.8128" lon="2.27381">
        <ele>117.9</ele>
        <time>2023-09-13T07:05:27Z</time>
      </trkpt>
      <trkpt lat="49.81281" lon="2.2738">
        <ele>117.9</ele>
        <time>2023-09-13T07:05:28Z</time>
      </trkpt>
      <trkpt lat="49.81282" lon="2.27378">
        <ele>117.9</ele>
        <time>2023-09-13T07:05:29Z</time>
      </trkpt>
      <trkpt lat="49.81283" lon="2.27377">
        <ele>117.8</ele>
        <time>2023-09-13T07:05:30Z</time>
      </trkpt>
      <trkpt lat="49.81284" lon="2.27375">
        <ele>117.8</ele>
        <time>2023-09-13T07:05:31Z</time>
      </trkpt>
      <trkpt lat="49.81286" lon="2.27372">
        <ele>117.8</ele>
        <time>2023-09-13T07:05:32Z</time>
      </trkpt>
      <trkpt lat="49.81287" lon="2.27371">
        <ele>117.8</ele>
        <time>2023-09-13T07:05:34Z</time>
      </trkpt>
      <trkpt lat="49.81289" lon="2.2737">
        <ele>117.8</ele>
        <time>2023-09-13T07:05:35Z</time>
      </trkpt>
      <trkpt lat="49.8129" lon="2.27368">
        <ele>117.8</ele>
        <time>2023-09-13T07:05:36Z</time>
      </trkpt>
      <trkpt lat="49.81291" lon="2.27367">
        <ele>117.8</ele>
        <time>2023-09-13T07:05:37Z</time>
      </trkpt>
      <trkpt lat="49.81292" lon="2.27366">
        <ele>117.8</ele>
        <time>2023-09-13T07:05:38Z</time>
      </trkpt>
      <trkpt lat="49.81293" lon="2.27365">
        <ele>117.7</ele>
        <time>2023-09-13T07:05:39Z</time>
      </trkpt>
      <trkpt lat="49.81294" lon="2.27364">
        <ele>117.7</ele>
        <time>2023-09-13T07:05:40Z</time>
      </trkpt>
      <trkpt lat="49.81295" lon="2.27363">
        <ele>117.7</ele>
        <time>2023-09-13T07:05:41Z</time>
      </trkpt>
      <trkpt lat="49.81296" lon="2.27362">
        <ele>117.7</ele>
        <time>2023-09-13T07:05:42Z</time>
      </trkpt>
      <trkpt lat="49.81297" lon="2.27361">
        <ele>117.7</ele>
        <time>2023-09-13T07:05:43Z</time>
      </trkpt>
      <trkpt lat="49.81297" lon="2.2736">
        <ele>117.7</ele>
        <time>2023-09-13T07:05:44Z</time>
      </trkpt>
      <trkpt lat="49.81298" lon="2.27359">
        <ele>117.7</ele>
        <time>2023-09-13T07:05:46Z</time>
      </trkpt>
      <trkpt lat="49.81299" lon="2.27358">
        <ele>117.7</ele>
        <time>2023-09-13T07:05:47Z</time>
      </trkpt>
      <trkpt lat="49.813" lon="2.27357">
        <ele>117.7</ele>
        <time>2023-09-13T07:05:48Z</time>
      </trkpt>
      <trkpt lat="49.813" lon="2.27356">
        <ele>117.7</ele>
        <time>2023-09-13T07:05:49Z</time>
      </trkpt>
      <trkpt lat="49.813" lon="2.27355">
        <ele>117.7</ele>
        <time>2023-09-13T07:05:50Z</time>
      </trkpt>
      <trkpt lat="49.81301" lon="2.27354">
        <ele>117.7</ele>
        <time>2023-09-13T07:05:51Z</time>
      </trkpt>
      <trkpt lat="49.81302" lon="2.27353">
        <ele>117.6</ele>
        <time>2023-09-13T07:05:52Z</time>
      </trkpt>
      <trkpt lat="49.81303" lon="2.27352">
        <ele>117.6</ele>
        <time>2023-09-13T07:05:53Z</time>
      </trkpt>
      <trkpt lat="49.81305" lon="2.2735">
        <ele>117.6</ele>
        <time>2023-09-13T07:05:55Z</time>
      </trkpt>
      <trkpt lat="49.81305" lon="2.27349">
        <ele>117.6</ele>
        <time>2023-09-13T07:05:56Z</time>
      </trkpt>
      <trkpt lat="49.81307" lon="2.27348">
        <ele>117.6</ele>
        <time>2023-09-13T07:05:57Z</time>
      </trkpt>
      <trkpt lat="49.81308" lon="2.27347">
        <ele>117.6</ele>
        <time>2023-09-13T07:05:58Z</time>
      </trkpt>
      <trkpt lat="49.81308" lon="2.27346">
        <ele>117.6</ele>
        <time>2023-09-13T07:05:59Z</time>
      </trkpt>
      <trkpt lat="49.81309" lon="2.27345">
        <ele>117.6</ele>
        <time>2023-09-13T07:06:00Z</time>
      </trkpt>
      <trkpt lat="49.81311" lon="2.27344">
        <ele>117.6</ele>
        <time>2023-09-13T07:06:01Z</time>
      </trkpt>
      <trkpt lat="49.81312" lon="2.27343">
        <ele>117.6</ele>
        <time>2023-09-13T07:06:02Z</time>
      </trkpt>
      <trkpt lat="49.81313" lon="2.27341">
        <ele>117.6</ele>
        <time>2023-09-13T07:06:04Z</time>
      </trkpt>
      <trkpt lat="49.81314" lon="2.2734">
        <ele>117.5</ele>
        <time>2023-09-13T07:06:05Z</time>
      </trkpt>
      <trkpt lat="49.81316" lon="2.27339">
        <ele>117.5</ele>
        <time>2023-09-13T07:06:06Z</time>
      </trkpt>
      <trkpt lat="49.81318" lon="2.27336">
        <ele>117.5</ele>
        <time>2023-09-13T07:06:07Z</time>
      </trkpt>
      <trkpt lat="49.81319" lon="2.27336">
        <ele>117.5</ele>
        <time>2023-09-13T07:06:08Z</time>
      </trkpt>
      <trkpt lat="49.8132" lon="2.27334">
        <ele>117.5</ele>
        <time>2023-09-13T07:06:10Z</time>
      </trkpt>
      <trkpt lat="49.81322" lon="2.27333">
        <ele>117.5</ele>
        <time>2023-09-13T07:06:11Z</time>
      </trkpt>
      <trkpt lat="49.81324" lon="2.2733">
        <ele>117.5</ele>
        <time>2023-09-13T07:06:12Z</time>
      </trkpt>
      <trkpt lat="49.81325" lon="2.27329">
        <ele>117.5</ele>
        <time>2023-09-13T07:06:13Z</time>
      </trkpt>
      <trkpt lat="49.81326" lon="2.27328">
        <ele>117.4</ele>
        <time>2023-09-13T07:06:14Z</time>
      </trkpt>
      <trkpt lat="49.81327" lon="2.27326">
        <ele>117.4</ele>
        <time>2023-09-13T07:06:15Z</time>
      </trkpt>
      <trkpt lat="49.81328" lon="2.27324">
        <ele>117.4</ele>
        <time>2023-09-13T07:06:16Z</time>
      </trkpt>
      <trkpt lat="49.81329" lon="2.27322">
        <ele>117.4</ele>
        <time>2023-09-13T07:06:18Z</time>
      </trkpt>
      <trkpt lat="49.8133" lon="2.2732">
        <ele>117.4</ele>
        <time>2023-09-13T07:06:19Z</time>
      </trkpt>
      <trkpt lat="49.81331" lon="2.27319">
        <ele>117.4</ele>
        <time>2023-09-13T07:06:20Z</time>
      </trkpt>
      <trkpt lat="49.81331" lon="2.27318">
        <ele>117.4</ele>
        <time>2023-09-13T07:06:21Z</time>
      </trkpt>
      <trkpt lat="49.81332" lon="2.27317">
        <ele>117.4</ele>
        <time>2023-09-13T07:06:22Z</time>
      </trkpt>
      <trkpt lat="49.81333" lon="2.27315">
        <ele>117.3</ele>
        <time>2023-09-13T07:06:23Z</time>
      </trkpt>
      <trkpt lat="49.81334" lon="2.27315">
        <ele>117.3</ele>
        <time>2023-09-13T07:06:24Z</time>
      </trkpt>
      <trkpt lat="49.81335" lon="2.27314">
        <ele>117.3</ele>
        <time>2023-09-13T07:06:26Z</time>
      </trkpt>
      <trkpt lat="49.81336" lon="2.27313">
        <ele>117.3</ele>
        <time>2023-09-13T07:06:27Z</time>
      </trkpt>
      <trkpt lat="49.81337" lon="2.27312">
        <ele>117.3</ele>
        <time>2023-09-13T07:06:28Z</time>
      </trkpt>
      <trkpt lat="49.81338" lon="2.27311">
        <ele>117.3</ele>
        <time>2023-09-13T07:06:29Z</time>
      </trkpt>
      <trkpt lat="49.81338" lon="2.2731">
        <ele>117.3</ele>
        <time>2023-09-13T07:06:31Z</time>
      </trkpt>
      <trkpt lat="49.81339" lon="2.2731">
        <ele>117.3</ele>
        <time>2023-09-13T07:06:32Z</time>
      </trkpt>
      <trkpt lat="49.81339" lon="2.27309">
        <ele>117.2</ele>
        <time>2023-09-13T07:06:33Z</time>
      </trkpt>
      <trkpt lat="49.8134" lon="2.27308">
        <ele>117.2</ele>
        <time>2023-09-13T07:06:34Z</time>
      </trkpt>
      <trkpt lat="49.81341" lon="2.27306">
        <ele>117.2</ele>
        <time>2023-09-13T07:06:35Z</time>
      </trkpt>
      <trkpt lat="49.81342" lon="2.27305">
        <ele>117.2</ele>
        <time>2023-09-13T07:06:36Z</time>
      </trkpt>
      <trkpt lat="49.81344" lon="2.27303">
        <ele>117.2</ele>
        <time>2023-09-13T07:06:37Z</time>
      </trkpt>
      <trkpt lat="49.81345" lon="2.27302">
        <ele>117.1</ele>
        <time>2023-09-13T07:06:38Z</time>
      </trkpt>
      <trkpt lat="49.81345" lon="2.27301">
        <ele>117.1</ele>
        <time>2023-09-13T07:06:39Z</time>
      </trkpt>
      <trkpt lat="49.81346" lon="2.273">
        <ele>117.1</ele>
        <time>2023-09-13T07:06:40Z</time>
      </trkpt>
      <trkpt lat="49.81347" lon="2.27299">
        <ele>117.1</ele>
        <time>2023-09-13T07:06:42Z</time>
      </trkpt>
      <trkpt lat="49.81348" lon="2.27297">
        <ele>117.1</ele>
        <time>2023-09-13T07:06:43Z</time>
      </trkpt>
      <trkpt lat="49.81349" lon="2.27296">
        <ele>117.1</ele>
        <time>2023-09-13T07:06:44Z</time>
      </trkpt>
      <trkpt lat="49.8135" lon="2.27295">
        <ele>117</ele>
        <time>2023-09-13T07:06:45Z</time>
      </trkpt>
      <trkpt lat="49.8135" lon="2.27293">
        <ele>117</ele>
        <time>2023-09-13T07:06:46Z</time>
      </trkpt>
      <trkpt lat="49.81352" lon="2.27291">
        <ele>117</ele>
        <time>2023-09-13T07:06:47Z</time>
      </trkpt>
      <trkpt lat="49.81352" lon="2.2729">
        <ele>117</ele>
        <time>2023-09-13T07:06:48Z</time>
      </trkpt>
      <trkpt lat="49.81353" lon="2.27289">
        <ele>117</ele>
        <time>2023-09-13T07:06:49Z</time>
      </trkpt>
      <trkpt lat="49.81354" lon="2.27287">
        <ele>117</ele>
        <time>2023-09-13T07:06:50Z</time>
      </trkpt>
      <trkpt lat="49.81355" lon="2.27286">
        <ele>117</ele>
        <time>2023-09-13T07:06:52Z</time>
      </trkpt>
      <trkpt lat="49.81356" lon="2.27285">
        <ele>117</ele>
        <time>2023-09-13T07:06:53Z</time>
      </trkpt>
      <trkpt lat="49.81357" lon="2.27283">
        <ele>116.9</ele>
        <time>2023-09-13T07:06:54Z</time>
      </trkpt>
      <trkpt lat="49.81358" lon="2.27282">
        <ele>116.9</ele>
        <time>2023-09-13T07:06:55Z</time>
      </trkpt>
      <trkpt lat="49.81358" lon="2.27281">
        <ele>116.9</ele>
        <time>2023-09-13T07:06:56Z</time>
      </trkpt>
      <trkpt lat="49.81359" lon="2.2728">
        <ele>116.9</ele>
        <time>2023-09-13T07:06:57Z</time>
      </trkpt>
      <trkpt lat="49.8136" lon="2.27279">
        <ele>116.9</ele>
        <time>2023-09-13T07:06:58Z</time>
      </trkpt>
      <trkpt lat="49.81362" lon="2.27278">
        <ele>116.9</ele>
        <time>2023-09-13T07:07:00Z</time>
      </trkpt>
      <trkpt lat="49.81363" lon="2.27277">
        <ele>116.9</ele>
        <time>2023-09-13T07:07:01Z</time>
      </trkpt>
      <trkpt lat="49.81364" lon="2.27276">
        <ele>116.9</ele>
        <time>2023-09-13T07:07:02Z</time>
      </trkpt>
      <trkpt lat="49.81365" lon="2.27275">
        <ele>116.9</ele>
        <time>2023-09-13T07:07:03Z</time>
      </trkpt>
      <trkpt lat="49.81366" lon="2.27273">
        <ele>116.8</ele>
        <time>2023-09-13T07:07:04Z</time>
      </trkpt>
      <trkpt lat="49.81367" lon="2.27272">
        <ele>116.8</ele>
        <time>2023-09-13T07:07:05Z</time>
      </trkpt>
      <trkpt lat="49.81368" lon="2.27271">
        <ele>116.8</ele>
        <time>2023-09-13T07:07:06Z</time>
      </trkpt>
      <trkpt lat="49.81369" lon="2.2727">
        <ele>116.8</ele>
        <time>2023-09-13T07:07:07Z</time>
      </trkpt>
      <trkpt lat="49.8137" lon="2.27268">
        <ele>116.8</ele>
        <time>2023-09-13T07:07:08Z</time>
      </trkpt>
      <trkpt lat="49.8137" lon="2.27267">
        <ele>116.8</ele>
        <time>2023-09-13T07:07:10Z</time>
      </trkpt>
      <trkpt lat="49.81372" lon="2.27264">
        <ele>116.8</ele>
        <time>2023-09-13T07:07:11Z</time>
      </trkpt>
      <trkpt lat="49.81373" lon="2.27263">
        <ele>116.8</ele>
        <time>2023-09-13T07:07:12Z</time>
      </trkpt>
      <trkpt lat="49.81373" lon="2.27263">
        <ele>116.8</ele>
        <time>2023-09-13T07:07:13Z</time>
      </trkpt>
      <trkpt lat="49.81374" lon="2.27261">
        <ele>116.8</ele>
        <time>2023-09-13T07:07:14Z</time>
      </trkpt>
      <trkpt lat="49.81374" lon="2.2726">
        <ele>116.8</ele>
        <time>2023-09-13T07:07:15Z</time>
      </trkpt>
      <trkpt lat="49.81375" lon="2.27258">
        <ele>116.8</ele>
        <time>2023-09-13T07:07:16Z</time>
      </trkpt>
      <trkpt lat="49.81376" lon="2.27255">
        <ele>116.8</ele>
        <time>2023-09-13T07:07:17Z</time>
      </trkpt>
      <trkpt lat="49.81377" lon="2.27254">
        <ele>116.8</ele>
        <time>2023-09-13T07:07:19Z</time>
      </trkpt>
      <trkpt lat="49.81378" lon="2.27253">
        <ele>116.8</ele>
        <time>2023-09-13T07:07:20Z</time>
      </trkpt>
      <trkpt lat="49.81378" lon="2.27252">
        <ele>116.8</ele>
        <time>2023-09-13T07:07:21Z</time>
      </trkpt>
      <trkpt lat="49.81379" lon="2.27251">
        <ele>116.8</ele>
        <time>2023-09-13T07:07:22Z</time>
      </trkpt>
      <trkpt lat="49.8138" lon="2.27249">
        <ele>116.8</ele>
        <time>2023-09-13T07:07:24Z</time>
      </trkpt>
      <trkpt lat="49.81381" lon="2.27246">
        <ele>116.8</ele>
        <time>2023-09-13T07:07:25Z</time>
      </trkpt>
      <trkpt lat="49.81382" lon="2.27245">
        <ele>116.8</ele>
        <time>2023-09-13T07:07:26Z</time>
      </trkpt>
      <trkpt lat="49.81382" lon="2.27244">
        <ele>116.8</ele>
        <time>2023-09-13T07:07:27Z</time>
      </trkpt>
      <trkpt lat="49.81384" lon="2.27242">
        <ele>116.8</ele>
        <time>2023-09-13T07:07:28Z</time>
      </trkpt>
      <trkpt lat="49.81384" lon="2.27241">
        <ele>116.8</ele>
        <time>2023-09-13T07:07:29Z</time>
      </trkpt>
      <trkpt lat="49.81385" lon="2.2724">
        <ele>116.8</ele>
        <time>2023-09-13T07:07:30Z</time>
      </trkpt>
      <trkpt lat="49.81386" lon="2.27237">
        <ele>116.8</ele>
        <time>2023-09-13T07:07:31Z</time>
      </trkpt>
      <trkpt lat="49.81387" lon="2.27236">
        <ele>116.8</ele>
        <time>2023-09-13T07:07:32Z</time>
      </trkpt>
      <trkpt lat="49.81387" lon="2.27235">
        <ele>116.8</ele>
        <time>2023-09-13T07:07:33Z</time>
      </trkpt>
      <trkpt lat="49.81388" lon="2.27234">
        <ele>116.8</ele>
        <time>2023-09-13T07:07:35Z</time>
      </trkpt>
      <trkpt lat="49.81388" lon="2.27232">
        <ele>116.8</ele>
        <time>2023-09-13T07:07:36Z</time>
      </trkpt>
      <trkpt lat="49.81389" lon="2.27231">
        <ele>116.8</ele>
        <time>2023-09-13T07:07:37Z</time>
      </trkpt>
      <trkpt lat="49.8139" lon="2.27228">
        <ele>116.7</ele>
        <time>2023-09-13T07:07:38Z</time>
      </trkpt>
      <trkpt lat="49.81391" lon="2.27227">
        <ele>116.7</ele>
        <time>2023-09-13T07:07:39Z</time>
      </trkpt>
      <trkpt lat="49.81391" lon="2.27226">
        <ele>116.7</ele>
        <time>2023-09-13T07:07:40Z</time>
      </trkpt>
      <trkpt lat="49.81392" lon="2.27224">
        <ele>116.7</ele>
        <time>2023-09-13T07:07:41Z</time>
      </trkpt>
      <trkpt lat="49.81392" lon="2.27223">
        <ele>116.7</ele>
        <time>2023-09-13T07:07:42Z</time>
      </trkpt>
      <trkpt lat="49.81393" lon="2.27221">
        <ele>116.7</ele>
        <time>2023-09-13T07:07:44Z</time>
      </trkpt>
      <trkpt lat="49.81394" lon="2.2722">
        <ele>116.7</ele>
        <time>2023-09-13T07:07:45Z</time>
      </trkpt>
      <trkpt lat="49.81394" lon="2.27218">
        <ele>116.7</ele>
        <time>2023-09-13T07:07:46Z</time>
      </trkpt>
      <trkpt lat="49.81395" lon="2.27215">
        <ele>116.7</ele>
        <time>2023-09-13T07:07:47Z</time>
      </trkpt>
      <trkpt lat="49.81396" lon="2.27214">
        <ele>116.7</ele>
        <time>2023-09-13T07:07:48Z</time>
      </trkpt>
      <trkpt lat="49.81396" lon="2.27213">
        <ele>116.7</ele>
        <time>2023-09-13T07:07:49Z</time>
      </trkpt>
      <trkpt lat="49.81397" lon="2.2721">
        <ele>116.7</ele>
        <time>2023-09-13T07:07:50Z</time>
      </trkpt>
      <trkpt lat="49.81398" lon="2.27209">
        <ele>116.7</ele>
        <time>2023-09-13T07:07:51Z</time>
      </trkpt>
      <trkpt lat="49.81398" lon="2.27208">
        <ele>116.7</ele>
        <time>2023-09-13T07:07:52Z</time>
      </trkpt>
      <trkpt lat="49.81399" lon="2.27205">
        <ele>116.6</ele>
        <time>2023-09-13T07:07:54Z</time>
      </trkpt>
      <trkpt lat="49.81399" lon="2.27204">
        <ele>116.6</ele>
        <time>2023-09-13T07:07:55Z</time>
      </trkpt>
      <trkpt lat="49.814" lon="2.27203">
        <ele>116.6</ele>
        <time>2023-09-13T07:07:56Z</time>
      </trkpt>
      <trkpt lat="49.814" lon="2.272">
        <ele>116.6</ele>
        <time>2023-09-13T07:07:57Z</time>
      </trkpt>
      <trkpt lat="49.81401" lon="2.27199">
        <ele>116.6</ele>
        <time>2023-09-13T07:07:58Z</time>
      </trkpt>
      <trkpt lat="49.81402" lon="2.27196">
        <ele>116.6</ele>
        <time>2023-09-13T07:07:59Z</time>
      </trkpt>
      <trkpt lat="49.81402" lon="2.27194">
        <ele>116.6</ele>
        <time>2023-09-13T07:08:00Z</time>
      </trkpt>
      <trkpt lat="49.81402" lon="2.27193">
        <ele>116.6</ele>
        <time>2023-09-13T07:08:01Z</time>
      </trkpt>
      <trkpt lat="49.81403" lon="2.27191">
        <ele>116.6</ele>
        <time>2023-09-13T07:08:02Z</time>
      </trkpt>
      <trkpt lat="49.81404" lon="2.2719">
        <ele>116.6</ele>
        <time>2023-09-13T07:08:03Z</time>
      </trkpt>
      <trkpt lat="49.81404" lon="2.27188">
        <ele>116.6</ele>
        <time>2023-09-13T07:08:05Z</time>
      </trkpt>
      <trkpt lat="49.81405" lon="2.27185">
        <ele>116.5</ele>
        <time>2023-09-13T07:08:06Z</time>
      </trkpt>
      <trkpt lat="49.81405" lon="2.27184">
        <ele>116.5</ele>
        <time>2023-09-13T07:08:07Z</time>
      </trkpt>
      <trkpt lat="49.81406" lon="2.27183">
        <ele>116.5</ele>
        <time>2023-09-13T07:08:08Z</time>
      </trkpt>
      <trkpt lat="49.81406" lon="2.27181">
        <ele>116.5</ele>
        <time>2023-09-13T07:08:09Z</time>
      </trkpt>
      <trkpt lat="49.81407" lon="2.27179">
        <ele>116.5</ele>
        <time>2023-09-13T07:08:10Z</time>
      </trkpt>
      <trkpt lat="49.81408" lon="2.27176">
        <ele>116.5</ele>
        <time>2023-09-13T07:08:11Z</time>
      </trkpt>
      <trkpt lat="49.81408" lon="2.27175">
        <ele>116.5</ele>
        <time>2023-09-13T07:08:12Z</time>
      </trkpt>
      <trkpt lat="49.81408" lon="2.27174">
        <ele>116.5</ele>
        <time>2023-09-13T07:08:13Z</time>
      </trkpt>
      <trkpt lat="49.81409" lon="2.27171">
        <ele>116.5</ele>
        <time>2023-09-13T07:08:15Z</time>
      </trkpt>
      <trkpt lat="49.8141" lon="2.2717">
        <ele>116.5</ele>
        <time>2023-09-13T07:08:16Z</time>
      </trkpt>
      <trkpt lat="49.8141" lon="2.27169">
        <ele>116.5</ele>
        <time>2023-09-13T07:08:17Z</time>
      </trkpt>
      <trkpt lat="49.81411" lon="2.27167">
        <ele>116.5</ele>
        <time>2023-09-13T07:08:18Z</time>
      </trkpt>
      <trkpt lat="49.81412" lon="2.27165">
        <ele>116.5</ele>
        <time>2023-09-13T07:08:19Z</time>
      </trkpt>
      <trkpt lat="49.81413" lon="2.27163">
        <ele>116.5</ele>
        <time>2023-09-13T07:08:20Z</time>
      </trkpt>
      <trkpt lat="49.81413" lon="2.27162">
        <ele>116.5</ele>
        <time>2023-09-13T07:08:21Z</time>
      </trkpt>
      <trkpt lat="49.81414" lon="2.2716">
        <ele>116.5</ele>
        <time>2023-09-13T07:08:22Z</time>
      </trkpt>
      <trkpt lat="49.81415" lon="2.27158">
        <ele>116.5</ele>
        <time>2023-09-13T07:08:23Z</time>
      </trkpt>
      <trkpt lat="49.81415" lon="2.27157">
        <ele>116.5</ele>
        <time>2023-09-13T07:08:25Z</time>
      </trkpt>
      <trkpt lat="49.81416" lon="2.27156">
        <ele>116.5</ele>
        <time>2023-09-13T07:08:26Z</time>
      </trkpt>
      <trkpt lat="49.81416" lon="2.27154">
        <ele>116.5</ele>
        <time>2023-09-13T07:08:27Z</time>
      </trkpt>
      <trkpt lat="49.81417" lon="2.27152">
        <ele>116.5</ele>
        <time>2023-09-13T07:08:28Z</time>
      </trkpt>
      <trkpt lat="49.81418" lon="2.27149">
        <ele>116.4</ele>
        <time>2023-09-13T07:08:29Z</time>
      </trkpt>
      <trkpt lat="49.81418" lon="2.27148">
        <ele>116.4</ele>
        <time>2023-09-13T07:08:30Z</time>
      </trkpt>
      <trkpt lat="49.81418" lon="2.27147">
        <ele>116.4</ele>
        <time>2023-09-13T07:08:31Z</time>
      </trkpt>
      <trkpt lat="49.81419" lon="2.27146">
        <ele>116.4</ele>
        <time>2023-09-13T07:08:32Z</time>
      </trkpt>
      <trkpt lat="49.81419" lon="2.27144">
        <ele>116.4</ele>
        <time>2023-09-13T07:08:34Z</time>
      </trkpt>
      <trkpt lat="49.8142" lon="2.27143">
        <ele>116.4</ele>
        <time>2023-09-13T07:08:35Z</time>
      </trkpt>
      <trkpt lat="49.8142" lon="2.27141">
        <ele>116.4</ele>
        <time>2023-09-13T07:08:36Z</time>
      </trkpt>
      <trkpt lat="49.81421" lon="2.27139">
        <ele>116.4</ele>
        <time>2023-09-13T07:08:37Z</time>
      </trkpt>
      <trkpt lat="49.81421" lon="2.27138">
        <ele>116.4</ele>
        <time>2023-09-13T07:08:38Z</time>
      </trkpt>
      <trkpt lat="49.81421" lon="2.27136">
        <ele>116.4</ele>
        <time>2023-09-13T07:08:39Z</time>
      </trkpt>
      <trkpt lat="49.81422" lon="2.27135">
        <ele>116.4</ele>
        <time>2023-09-13T07:08:40Z</time>
      </trkpt>
      <trkpt lat="49.81422" lon="2.27133">
        <ele>116.4</ele>
        <time>2023-09-13T07:08:41Z</time>
      </trkpt>
      <trkpt lat="49.81422" lon="2.27131">
        <ele>116.4</ele>
        <time>2023-09-13T07:08:42Z</time>
      </trkpt>
      <trkpt lat="49.81423" lon="2.2713">
        <ele>116.4</ele>
        <time>2023-09-13T07:08:44Z</time>
      </trkpt>
      <trkpt lat="49.81424" lon="2.27128">
        <ele>116.4</ele>
        <time>2023-09-13T07:08:45Z</time>
      </trkpt>
      <trkpt lat="49.81425" lon="2.27126">
        <ele>116.3</ele>
        <time>2023-09-13T07:08:46Z</time>
      </trkpt>
      <trkpt lat="49.81426" lon="2.27125">
        <ele>116.3</ele>
        <time>2023-09-13T07:08:47Z</time>
      </trkpt>
      <trkpt lat="49.81426" lon="2.27124">
        <ele>116.3</ele>
        <time>2023-09-13T07:08:48Z</time>
      </trkpt>
      <trkpt lat="49.81427" lon="2.27122">
        <ele>116.3</ele>
        <time>2023-09-13T07:08:49Z</time>
      </trkpt>
      <trkpt lat="49.81428" lon="2.2712">
        <ele>116.3</ele>
        <time>2023-09-13T07:08:50Z</time>
      </trkpt>
      <trkpt lat="49.81429" lon="2.27117">
        <ele>116.3</ele>
        <time>2023-09-13T07:08:51Z</time>
      </trkpt>
      <trkpt lat="49.8143" lon="2.27116">
        <ele>116.3</ele>
        <time>2023-09-13T07:08:52Z</time>
      </trkpt>
      <trkpt lat="49.8143" lon="2.27115">
        <ele>116.3</ele>
        <time>2023-09-13T07:08:53Z</time>
      </trkpt>
      <trkpt lat="49.81432" lon="2.27113">
        <ele>116.3</ele>
        <time>2023-09-13T07:08:55Z</time>
      </trkpt>
      <trkpt lat="49.81432" lon="2.27112">
        <ele>116.3</ele>
        <time>2023-09-13T07:08:56Z</time>
      </trkpt>
      <trkpt lat="49.81432" lon="2.2711">
        <ele>116.3</ele>
        <time>2023-09-13T07:08:57Z</time>
      </trkpt>
      <trkpt lat="49.81434" lon="2.27108">
        <ele>116.3</ele>
        <time>2023-09-13T07:08:58Z</time>
      </trkpt>
      <trkpt lat="49.81434" lon="2.27107">
        <ele>116.3</ele>
        <time>2023-09-13T07:08:59Z</time>
      </trkpt>
      <trkpt lat="49.81435" lon="2.27105">
        <ele>116.2</ele>
        <time>2023-09-13T07:09:00Z</time>
      </trkpt>
      <trkpt lat="49.81436" lon="2.27103">
        <ele>116.2</ele>
        <time>2023-09-13T07:09:02Z</time>
      </trkpt>
      <trkpt lat="49.81436" lon="2.27101">
        <ele>116.2</ele>
        <time>2023-09-13T07:09:03Z</time>
      </trkpt>
      <trkpt lat="49.81437" lon="2.27099">
        <ele>116.2</ele>
        <time>2023-09-13T07:09:04Z</time>
      </trkpt>
      <trkpt lat="49.81438" lon="2.27098">
        <ele>116.2</ele>
        <time>2023-09-13T07:09:05Z</time>
      </trkpt>
      <trkpt lat="49.81438" lon="2.27096">
        <ele>116.2</ele>
        <time>2023-09-13T07:09:06Z</time>
      </trkpt>
      <trkpt lat="49.81439" lon="2.27095">
        <ele>116.2</ele>
        <time>2023-09-13T07:09:07Z</time>
      </trkpt>
      <trkpt lat="49.8144" lon="2.27093">
        <ele>116.2</ele>
        <time>2023-09-13T07:09:08Z</time>
      </trkpt>
      <trkpt lat="49.81441" lon="2.2709">
        <ele>116.2</ele>
        <time>2023-09-13T07:09:10Z</time>
      </trkpt>
      <trkpt lat="49.81441" lon="2.27089">
        <ele>116.2</ele>
        <time>2023-09-13T07:09:11Z</time>
      </trkpt>
      <trkpt lat="49.81442" lon="2.27088">
        <ele>116.2</ele>
        <time>2023-09-13T07:09:12Z</time>
      </trkpt>
      <trkpt lat="49.81442" lon="2.27086">
        <ele>116.2</ele>
        <time>2023-09-13T07:09:13Z</time>
      </trkpt>
      <trkpt lat="49.81443" lon="2.27085">
        <ele>116.2</ele>
        <time>2023-09-13T07:09:14Z</time>
      </trkpt>
      <trkpt lat="49.81444" lon="2.27083">
        <ele>116.2</ele>
        <time>2023-09-13T07:09:15Z</time>
      </trkpt>
      <trkpt lat="49.81445" lon="2.27081">
        <ele>116.1</ele>
        <time>2023-09-13T07:09:16Z</time>
      </trkpt>
      <trkpt lat="49.81446" lon="2.2708">
        <ele>116.1</ele>
        <time>2023-09-13T07:09:17Z</time>
      </trkpt>
      <trkpt lat="49.81446" lon="2.27079">
        <ele>116.1</ele>
        <time>2023-09-13T07:09:18Z</time>
      </trkpt>
      <trkpt lat="49.81447" lon="2.27077">
        <ele>116.1</ele>
        <time>2023-09-13T07:09:20Z</time>
      </trkpt>
      <trkpt lat="49.81449" lon="2.27075">
        <ele>116.1</ele>
        <time>2023-09-13T07:09:21Z</time>
      </trkpt>
      <trkpt lat="49.8145" lon="2.27073">
        <ele>116.1</ele>
        <time>2023-09-13T07:09:22Z</time>
      </trkpt>
      <trkpt lat="49.81451" lon="2.27072">
        <ele>116.1</ele>
        <time>2023-09-13T07:09:23Z</time>
      </trkpt>
      <trkpt lat="49.81451" lon="2.27072">
        <ele>116.1</ele>
        <time>2023-09-13T07:09:24Z</time>
      </trkpt>
      <trkpt lat="49.81453" lon="2.27069">
        <ele>116</ele>
        <time>2023-09-13T07:09:25Z</time>
      </trkpt>
      <trkpt lat="49.81453" lon="2.27068">
        <ele>116</ele>
        <time>2023-09-13T07:09:26Z</time>
      </trkpt>
      <trkpt lat="49.81454" lon="2.27067">
        <ele>116</ele>
        <time>2023-09-13T07:09:27Z</time>
      </trkpt>
      <trkpt lat="49.81455" lon="2.27066">
        <ele>116</ele>
        <time>2023-09-13T07:09:28Z</time>
      </trkpt>
      <trkpt lat="49.81456" lon="2.27064">
        <ele>116</ele>
        <time>2023-09-13T07:09:30Z</time>
      </trkpt>
      <trkpt lat="49.81457" lon="2.27063">
        <ele>116</ele>
        <time>2023-09-13T07:09:31Z</time>
      </trkpt>
      <trkpt lat="49.81458" lon="2.27061">
        <ele>116</ele>
        <time>2023-09-13T07:09:32Z</time>
      </trkpt>
      <trkpt lat="49.81459" lon="2.2706">
        <ele>116</ele>
        <time>2023-09-13T07:09:33Z</time>
      </trkpt>
      <trkpt lat="49.81459" lon="2.27058">
        <ele>116</ele>
        <time>2023-09-13T07:09:34Z</time>
      </trkpt>
      <trkpt lat="49.8146" lon="2.27057">
        <ele>115.9</ele>
        <time>2023-09-13T07:09:36Z</time>
      </trkpt>
      <trkpt lat="49.81461" lon="2.27056">
        <ele>115.9</ele>
        <time>2023-09-13T07:09:37Z</time>
      </trkpt>
      <trkpt lat="49.81462" lon="2.27055">
        <ele>115.9</ele>
        <time>2023-09-13T07:09:38Z</time>
      </trkpt>
      <trkpt lat="49.81463" lon="2.27053">
        <ele>115.9</ele>
        <time>2023-09-13T07:09:39Z</time>
      </trkpt>
      <trkpt lat="49.81465" lon="2.27051">
        <ele>115.9</ele>
        <time>2023-09-13T07:09:40Z</time>
      </trkpt>
      <trkpt lat="49.81466" lon="2.2705">
        <ele>115.9</ele>
        <time>2023-09-13T07:09:41Z</time>
      </trkpt>
      <trkpt lat="49.81466" lon="2.27049">
        <ele>115.9</ele>
        <time>2023-09-13T07:09:42Z</time>
      </trkpt>
      <trkpt lat="49.81467" lon="2.27048">
        <ele>115.9</ele>
        <time>2023-09-13T07:09:43Z</time>
      </trkpt>
      <trkpt lat="49.81468" lon="2.27047">
        <ele>115.9</ele>
        <time>2023-09-13T07:09:44Z</time>
      </trkpt>
      <trkpt lat="49.81469" lon="2.27046">
        <ele>115.8</ele>
        <time>2023-09-13T07:09:46Z</time>
      </trkpt>
      <trkpt lat="49.81471" lon="2.27045">
        <ele>115.8</ele>
        <time>2023-09-13T07:09:47Z</time>
      </trkpt>
      <trkpt lat="49.81472" lon="2.27044">
        <ele>115.8</ele>
        <time>2023-09-13T07:09:48Z</time>
      </trkpt>
      <trkpt lat="49.81473" lon="2.27043">
        <ele>115.8</ele>
        <time>2023-09-13T07:09:49Z</time>
      </trkpt>
      <trkpt lat="49.81474" lon="2.27041">
        <ele>115.8</ele>
        <time>2023-09-13T07:09:50Z</time>
      </trkpt>
      <trkpt lat="49.81475" lon="2.2704">
        <ele>115.8</ele>
        <time>2023-09-13T07:09:51Z</time>
      </trkpt>
      <trkpt lat="49.81476" lon="2.27039">
        <ele>115.8</ele>
        <time>2023-09-13T07:09:52Z</time>
      </trkpt>
      <trkpt lat="49.81477" lon="2.27038">
        <ele>115.8</ele>
        <time>2023-09-13T07:09:53Z</time>
      </trkpt>
      <trkpt lat="49.81478" lon="2.27036">
        <ele>115.8</ele>
        <time>2023-09-13T07:09:55Z</time>
      </trkpt>
      <trkpt lat="49.81479" lon="2.27035">
        <ele>115.8</ele>
        <time>2023-09-13T07:09:56Z</time>
      </trkpt>
      <trkpt lat="49.8148" lon="2.27034">
        <ele>115.8</ele>
        <time>2023-09-13T07:09:57Z</time>
      </trkpt>
      <trkpt lat="49.81481" lon="2.27033">
        <ele>115.8</ele>
        <time>2023-09-13T07:09:58Z</time>
      </trkpt>
      <trkpt lat="49.81482" lon="2.27031">
        <ele>115.8</ele>
        <time>2023-09-13T07:09:59Z</time>
      </trkpt>
      <trkpt lat="49.81483" lon="2.2703">
        <ele>115.8</ele>
        <time>2023-09-13T07:10:00Z</time>
      </trkpt>
      <trkpt lat="49.81484" lon="2.27029">
        <ele>115.8</ele>
        <time>2023-09-13T07:10:01Z</time>
      </trkpt>
      <trkpt lat="49.81485" lon="2.27027">
        <ele>115.8</ele>
        <time>2023-09-13T07:10:02Z</time>
      </trkpt>
      <trkpt lat="49.81486" lon="2.27026">
        <ele>115.8</ele>
        <time>2023-09-13T07:10:03Z</time>
      </trkpt>
      <trkpt lat="49.81487" lon="2.27024">
        <ele>115.8</ele>
        <time>2023-09-13T07:10:05Z</time>
      </trkpt>
      <trkpt lat="49.81488" lon="2.27023">
        <ele>115.8</ele>
        <time>2023-09-13T07:10:06Z</time>
      </trkpt>
      <trkpt lat="49.81489" lon="2.2702">
        <ele>115.8</ele>
        <time>2023-09-13T07:10:07Z</time>
      </trkpt>
      <trkpt lat="49.8149" lon="2.2702">
        <ele>115.8</ele>
        <time>2023-09-13T07:10:08Z</time>
      </trkpt>
      <trkpt lat="49.8149" lon="2.27019">
        <ele>115.8</ele>
        <time>2023-09-13T07:10:09Z</time>
      </trkpt>
      <trkpt lat="49.81491" lon="2.27018">
        <ele>115.8</ele>
        <time>2023-09-13T07:10:10Z</time>
      </trkpt>
      <trkpt lat="49.81492" lon="2.27016">
        <ele>115.8</ele>
        <time>2023-09-13T07:10:11Z</time>
      </trkpt>
      <trkpt lat="49.81493" lon="2.27015">
        <ele>115.8</ele>
        <time>2023-09-13T07:10:12Z</time>
      </trkpt>
      <trkpt lat="49.81494" lon="2.27014">
        <ele>115.8</ele>
        <time>2023-09-13T07:10:13Z</time>
      </trkpt>
      <trkpt lat="49.81495" lon="2.27013">
        <ele>115.8</ele>
        <time>2023-09-13T07:10:15Z</time>
      </trkpt>
      <trkpt lat="49.81496" lon="2.27012">
        <ele>115.8</ele>
        <time>2023-09-13T07:10:16Z</time>
      </trkpt>
      <trkpt lat="49.81497" lon="2.27011">
        <ele>115.8</ele>
        <time>2023-09-13T07:10:17Z</time>
      </trkpt>
      <trkpt lat="49.81498" lon="2.27011">
        <ele>115.8</ele>
        <time>2023-09-13T07:10:18Z</time>
      </trkpt>
      <trkpt lat="49.815" lon="2.27009">
        <ele>115.8</ele>
        <time>2023-09-13T07:10:19Z</time>
      </trkpt>
      <trkpt lat="49.81501" lon="2.27009">
        <ele>115.8</ele>
        <time>2023-09-13T07:10:21Z</time>
      </trkpt>
      <trkpt lat="49.81502" lon="2.27008">
        <ele>115.8</ele>
        <time>2023-09-13T07:10:22Z</time>
      </trkpt>
      <trkpt lat="49.81504" lon="2.27007">
        <ele>115.8</ele>
        <time>2023-09-13T07:10:23Z</time>
      </trkpt>
      <trkpt lat="49.81505" lon="2.27007">
        <ele>115.8</ele>
        <time>2023-09-13T07:10:24Z</time>
      </trkpt>
      <trkpt lat="49.81506" lon="2.27006">
        <ele>115.8</ele>
        <time>2023-09-13T07:10:25Z</time>
      </trkpt>
      <trkpt lat="49.81508" lon="2.27005">
        <ele>115.8</ele>
        <time>2023-09-13T07:10:26Z</time>
      </trkpt>
      <trkpt lat="49.8151" lon="2.27004">
        <ele>115.8</ele>
        <time>2023-09-13T07:10:27Z</time>
      </trkpt>
      <trkpt lat="49.81511" lon="2.27003">
        <ele>115.8</ele>
        <time>2023-09-13T07:10:28Z</time>
      </trkpt>
      <trkpt lat="49.81511" lon="2.27003">
        <ele>115.8</ele>
        <time>2023-09-13T07:10:29Z</time>
      </trkpt>
      <trkpt lat="49.81513" lon="2.27002">
        <ele>115.8</ele>
        <time>2023-09-13T07:10:31Z</time>
      </trkpt>
      <trkpt lat="49.81514" lon="2.27001">
        <ele>115.8</ele>
        <time>2023-09-13T07:10:32Z</time>
      </trkpt>
      <trkpt lat="49.81515" lon="2.27">
        <ele>115.8</ele>
        <time>2023-09-13T07:10:33Z</time>
      </trkpt>
      <trkpt lat="49.81517" lon="2.26999">
        <ele>115.7</ele>
        <time>2023-09-13T07:10:34Z</time>
      </trkpt>
      <trkpt lat="49.81518" lon="2.26999">
        <ele>115.7</ele>
        <time>2023-09-13T07:10:35Z</time>
      </trkpt>
      <trkpt lat="49.81518" lon="2.26998">
        <ele>115.7</ele>
        <time>2023-09-13T07:10:36Z</time>
      </trkpt>
      <trkpt lat="49.8152" lon="2.26998">
        <ele>115.7</ele>
        <time>2023-09-13T07:10:37Z</time>
      </trkpt>
      <trkpt lat="49.81521" lon="2.26997">
        <ele>115.7</ele>
        <time>2023-09-13T07:10:38Z</time>
      </trkpt>
      <trkpt lat="49.81522" lon="2.26996">
        <ele>115.7</ele>
        <time>2023-09-13T07:10:40Z</time>
      </trkpt>
      <trkpt lat="49.81524" lon="2.26995">
        <ele>115.7</ele>
        <time>2023-09-13T07:10:41Z</time>
      </trkpt>
      <trkpt lat="49.81525" lon="2.26995">
        <ele>115.7</ele>
        <time>2023-09-13T07:10:42Z</time>
      </trkpt>
      <trkpt lat="49.81526" lon="2.26995">
        <ele>115.7</ele>
        <time>2023-09-13T07:10:43Z</time>
      </trkpt>
      <trkpt lat="49.81527" lon="2.26994">
        <ele>115.7</ele>
        <time>2023-09-13T07:10:44Z</time>
      </trkpt>
      <trkpt lat="49.81529" lon="2.26994">
        <ele>115.7</ele>
        <time>2023-09-13T07:10:45Z</time>
      </trkpt>
      <trkpt lat="49.8153" lon="2.26994">
        <ele>115.7</ele>
        <time>2023-09-13T07:10:46Z</time>
      </trkpt>
      <trkpt lat="49.81531" lon="2.26993">
        <ele>115.7</ele>
        <time>2023-09-13T07:10:47Z</time>
      </trkpt>
      <trkpt lat="49.81533" lon="2.26993">
        <ele>115.7</ele>
        <time>2023-09-13T07:10:48Z</time>
      </trkpt>
      <trkpt lat="49.81534" lon="2.26992">
        <ele>115.7</ele>
        <time>2023-09-13T07:10:50Z</time>
      </trkpt>
      <trkpt lat="49.81535" lon="2.26992">
        <ele>115.7</ele>
        <time>2023-09-13T07:10:51Z</time>
      </trkpt>
      <trkpt lat="49.81536" lon="2.26992">
        <ele>115.7</ele>
        <time>2023-09-13T07:10:52Z</time>
      </trkpt>
      <trkpt lat="49.81538" lon="2.26991">
        <ele>115.7</ele>
        <time>2023-09-13T07:10:53Z</time>
      </trkpt>
      <trkpt lat="49.81539" lon="2.26991">
        <ele>115.7</ele>
        <time>2023-09-13T07:10:54Z</time>
      </trkpt>
      <trkpt lat="49.8154" lon="2.2699">
        <ele>115.7</ele>
        <time>2023-09-13T07:10:55Z</time>
      </trkpt>
      <trkpt lat="49.81542" lon="2.2699">
        <ele>115.7</ele>
        <time>2023-09-13T07:10:56Z</time>
      </trkpt>
      <trkpt lat="49.81543" lon="2.26989">
        <ele>115.7</ele>
        <time>2023-09-13T07:10:57Z</time>
      </trkpt>
      <trkpt lat="49.81544" lon="2.26989">
        <ele>115.7</ele>
        <time>2023-09-13T07:10:59Z</time>
      </trkpt>
      <trkpt lat="49.81545" lon="2.26988">
        <ele>115.7</ele>
        <time>2023-09-13T07:11:00Z</time>
      </trkpt>
      <trkpt lat="49.81546" lon="2.26988">
        <ele>115.7</ele>
        <time>2023-09-13T07:11:01Z</time>
      </trkpt>
      <trkpt lat="49.81547" lon="2.26987">
        <ele>115.7</ele>
        <time>2023-09-13T07:11:02Z</time>
      </trkpt>
      <trkpt lat="49.81549" lon="2.26986">
        <ele>115.7</ele>
        <time>2023-09-13T07:11:03Z</time>
      </trkpt>
      <trkpt lat="49.8155" lon="2.26986">
        <ele>115.7</ele>
        <time>2023-09-13T07:11:04Z</time>
      </trkpt>
      <trkpt lat="49.81551" lon="2.26986">
        <ele>115.7</ele>
        <time>2023-09-13T07:11:05Z</time>
      </trkpt>
      <trkpt lat="49.81552" lon="2.26985">
        <ele>115.7</ele>
        <time>2023-09-13T07:11:06Z</time>
      </trkpt>
      <trkpt lat="49.81553" lon="2.26984">
        <ele>115.7</ele>
        <time>2023-09-13T07:11:08Z</time>
      </trkpt>
      <trkpt lat="49.81554" lon="2.26984">
        <ele>115.7</ele>
        <time>2023-09-13T07:11:09Z</time>
      </trkpt>
      <trkpt lat="49.81556" lon="2.26983">
        <ele>115.7</ele>
        <time>2023-09-13T07:11:10Z</time>
      </trkpt>
      <trkpt lat="49.81557" lon="2.26983">
        <ele>115.7</ele>
        <time>2023-09-13T07:11:11Z</time>
      </trkpt>
      <trkpt lat="49.81558" lon="2.26982">
        <ele>115.7</ele>
        <time>2023-09-13T07:11:12Z</time>
      </trkpt>
      <trkpt lat="49.81559" lon="2.26982">
        <ele>115.7</ele>
        <time>2023-09-13T07:11:13Z</time>
      </trkpt>
      <trkpt lat="49.8156" lon="2.26981">
        <ele>115.7</ele>
        <time>2023-09-13T07:11:14Z</time>
      </trkpt>
      <trkpt lat="49.81561" lon="2.26981">
        <ele>115.7</ele>
        <time>2023-09-13T07:11:16Z</time>
      </trkpt>
      <trkpt lat="49.81562" lon="2.2698">
        <ele>115.7</ele>
        <time>2023-09-13T07:11:17Z</time>
      </trkpt>
      <trkpt lat="49.81563" lon="2.26979">
        <ele>115.7</ele>
        <time>2023-09-13T07:11:18Z</time>
      </trkpt>
      <trkpt lat="49.81564" lon="2.26979">
        <ele>115.7</ele>
        <time>2023-09-13T07:11:19Z</time>
      </trkpt>
      <trkpt lat="49.81567" lon="2.26978">
        <ele>115.7</ele>
        <time>2023-09-13T07:11:20Z</time>
      </trkpt>
      <trkpt lat="49.81567" lon="2.26977">
        <ele>115.7</ele>
        <time>2023-09-13T07:11:21Z</time>
      </trkpt>
      <trkpt lat="49.81568" lon="2.26977">
        <ele>115.7</ele>
        <time>2023-09-13T07:11:22Z</time>
      </trkpt>
      <trkpt lat="49.81569" lon="2.26976">
        <ele>115.7</ele>
        <time>2023-09-13T07:11:23Z</time>
      </trkpt>
      <trkpt lat="49.81571" lon="2.26975">
        <ele>115.7</ele>
        <time>2023-09-13T07:11:24Z</time>
      </trkpt>
      <trkpt lat="49.81572" lon="2.26975">
        <ele>115.6</ele>
        <time>2023-09-13T07:11:26Z</time>
      </trkpt>
      <trkpt lat="49.81573" lon="2.26974">
        <ele>115.6</ele>
        <time>2023-09-13T07:11:27Z</time>
      </trkpt>
      <trkpt lat="49.81574" lon="2.26974">
        <ele>115.6</ele>
        <time>2023-09-13T07:11:28Z</time>
      </trkpt>
      <trkpt lat="49.81575" lon="2.26973">
        <ele>115.6</ele>
        <time>2023-09-13T07:11:29Z</time>
      </trkpt>
      <trkpt lat="49.81577" lon="2.26972">
        <ele>115.6</ele>
        <time>2023-09-13T07:11:30Z</time>
      </trkpt>
      <trkpt lat="49.81578" lon="2.26972">
        <ele>115.6</ele>
        <time>2023-09-13T07:11:31Z</time>
      </trkpt>
      <trkpt lat="49.81579" lon="2.26971">
        <ele>115.6</ele>
        <time>2023-09-13T07:11:32Z</time>
      </trkpt>
      <trkpt lat="49.8158" lon="2.2697">
        <ele>115.6</ele>
        <time>2023-09-13T07:11:33Z</time>
      </trkpt>
      <trkpt lat="49.81581" lon="2.26969">
        <ele>115.6</ele>
        <time>2023-09-13T07:11:35Z</time>
      </trkpt>
      <trkpt lat="49.81582" lon="2.26969">
        <ele>115.6</ele>
        <time>2023-09-13T07:11:36Z</time>
      </trkpt>
      <trkpt lat="49.81583" lon="2.26968">
        <ele>115.6</ele>
        <time>2023-09-13T07:11:37Z</time>
      </trkpt>
      <trkpt lat="49.81584" lon="2.26967">
        <ele>115.6</ele>
        <time>2023-09-13T07:11:38Z</time>
      </trkpt>
      <trkpt lat="49.81585" lon="2.26967">
        <ele>115.6</ele>
        <time>2023-09-13T07:11:39Z</time>
      </trkpt>
      <trkpt lat="49.81587" lon="2.26966">
        <ele>115.6</ele>
        <time>2023-09-13T07:11:40Z</time>
      </trkpt>
      <trkpt lat="49.81588" lon="2.26965">
        <ele>115.6</ele>
        <time>2023-09-13T07:11:41Z</time>
      </trkpt>
      <trkpt lat="49.81589" lon="2.26964">
        <ele>115.6</ele>
        <time>2023-09-13T07:11:42Z</time>
      </trkpt>
      <trkpt lat="49.8159" lon="2.26963">
        <ele>115.6</ele>
        <time>2023-09-13T07:11:44Z</time>
      </trkpt>
      <trkpt lat="49.81591" lon="2.26963">
        <ele>115.6</ele>
        <time>2023-09-13T07:11:45Z</time>
      </trkpt>
      <trkpt lat="49.81593" lon="2.26961">
        <ele>115.6</ele>
        <time>2023-09-13T07:11:46Z</time>
      </trkpt>
      <trkpt lat="49.81594" lon="2.26961">
        <ele>115.6</ele>
        <time>2023-09-13T07:11:47Z</time>
      </trkpt>
      <trkpt lat="49.81595" lon="2.26961">
        <ele>115.6</ele>
        <time>2023-09-13T07:11:48Z</time>
      </trkpt>
      <trkpt lat="49.81597" lon="2.26959">
        <ele>115.6</ele>
        <time>2023-09-13T07:11:49Z</time>
      </trkpt>
      <trkpt lat="49.81598" lon="2.26959">
        <ele>115.6</ele>
        <time>2023-09-13T07:11:50Z</time>
      </trkpt>
      <trkpt lat="49.81599" lon="2.26958">
        <ele>115.6</ele>
        <time>2023-09-13T07:11:52Z</time>
      </trkpt>
      <trkpt lat="49.816" lon="2.26957">
        <ele>115.6</ele>
        <time>2023-09-13T07:11:53Z</time>
      </trkpt>
      <trkpt lat="49.816" lon="2.26957">
        <ele>115.6</ele>
        <time>2023-09-13T07:11:54Z</time>
      </trkpt>
      <trkpt lat="49.81601" lon="2.26956">
        <ele>115.5</ele>
        <time>2023-09-13T07:11:55Z</time>
      </trkpt>
      <trkpt lat="49.81603" lon="2.26954">
        <ele>115.5</ele>
        <time>2023-09-13T07:11:56Z</time>
      </trkpt>
      <trkpt lat="49.81604" lon="2.26954">
        <ele>115.5</ele>
        <time>2023-09-13T07:11:57Z</time>
      </trkpt>
      <trkpt lat="49.81605" lon="2.26953">
        <ele>115.5</ele>
        <time>2023-09-13T07:11:58Z</time>
      </trkpt>
      <trkpt lat="49.81606" lon="2.26953">
        <ele>115.5</ele>
        <time>2023-09-13T07:11:59Z</time>
      </trkpt>
      <trkpt lat="49.81607" lon="2.26952">
        <ele>115.5</ele>
        <time>2023-09-13T07:12:00Z</time>
      </trkpt>
      <trkpt lat="49.81608" lon="2.26952">
        <ele>115.5</ele>
        <time>2023-09-13T07:12:02Z</time>
      </trkpt>
      <trkpt lat="49.81609" lon="2.26951">
        <ele>115.5</ele>
        <time>2023-09-13T07:12:03Z</time>
      </trkpt>
      <trkpt lat="49.81611" lon="2.26951">
        <ele>115.5</ele>
        <time>2023-09-13T07:12:04Z</time>
      </trkpt>
      <trkpt lat="49.81612" lon="2.2695">
        <ele>115.5</ele>
        <time>2023-09-13T07:12:05Z</time>
      </trkpt>
      <trkpt lat="49.81613" lon="2.26949">
        <ele>115.5</ele>
        <time>2023-09-13T07:12:06Z</time>
      </trkpt>
      <trkpt lat="49.81614" lon="2.26948">
        <ele>115.5</ele>
        <time>2023-09-13T07:12:07Z</time>
      </trkpt>
      <trkpt lat="49.81614" lon="2.26946">
        <ele>115.5</ele>
        <time>2023-09-13T07:12:08Z</time>
      </trkpt>
      <trkpt lat="49.81615" lon="2.26945">
        <ele>115.5</ele>
        <time>2023-09-13T07:12:09Z</time>
      </trkpt>
      <trkpt lat="49.81616" lon="2.26944">
        <ele>115.5</ele>
        <time>2023-09-13T07:12:11Z</time>
      </trkpt>
      <trkpt lat="49.81617" lon="2.26943">
        <ele>115.5</ele>
        <time>2023-09-13T07:12:12Z</time>
      </trkpt>
      <trkpt lat="49.81618" lon="2.26942">
        <ele>115.5</ele>
        <time>2023-09-13T07:12:13Z</time>
      </trkpt>
      <trkpt lat="49.81619" lon="2.26941">
        <ele>115.5</ele>
        <time>2023-09-13T07:12:14Z</time>
      </trkpt>
      <trkpt lat="49.81621" lon="2.26939">
        <ele>115.5</ele>
        <time>2023-09-13T07:12:15Z</time>
      </trkpt>
      <trkpt lat="49.81622" lon="2.26938">
        <ele>115.5</ele>
        <time>2023-09-13T07:12:17Z</time>
      </trkpt>
      <trkpt lat="49.81622" lon="2.26937">
        <ele>115.5</ele>
        <time>2023-09-13T07:12:18Z</time>
      </trkpt>
      <trkpt lat="49.81624" lon="2.26935">
        <ele>115.5</ele>
        <time>2023-09-13T07:12:19Z</time>
      </trkpt>
      <trkpt lat="49.81625" lon="2.26934">
        <ele>115.5</ele>
        <time>2023-09-13T07:12:20Z</time>
      </trkpt>
      <trkpt lat="49.81625" lon="2.26934">
        <ele>115.5</ele>
        <time>2023-09-13T07:12:21Z</time>
      </trkpt>
      <trkpt lat="49.81627" lon="2.26933">
        <ele>115.4</ele>
        <time>2023-09-13T07:12:22Z</time>
      </trkpt>
      <trkpt lat="49.81627" lon="2.26932">
        <ele>115.4</ele>
        <time>2023-09-13T07:12:23Z</time>
      </trkpt>
      <trkpt lat="49.81628" lon="2.26931">
        <ele>115.4</ele>
        <time>2023-09-13T07:12:25Z</time>
      </trkpt>
      <trkpt lat="49.81629" lon="2.2693">
        <ele>115.4</ele>
        <time>2023-09-13T07:12:26Z</time>
      </trkpt>
      <trkpt lat="49.8163" lon="2.26929">
        <ele>115.4</ele>
        <time>2023-09-13T07:12:27Z</time>
      </trkpt>
      <trkpt lat="49.81631" lon="2.26928">
        <ele>115.4</ele>
        <time>2023-09-13T07:12:28Z</time>
      </trkpt>
      <trkpt lat="49.81633" lon="2.26926">
        <ele>115.4</ele>
        <time>2023-09-13T07:12:29Z</time>
      </trkpt>
      <trkpt lat="49.81634" lon="2.26926">
        <ele>115.4</ele>
        <time>2023-09-13T07:12:30Z</time>
      </trkpt>
      <trkpt lat="49.81634" lon="2.26925">
        <ele>115.4</ele>
        <time>2023-09-13T07:12:31Z</time>
      </trkpt>
      <trkpt lat="49.81636" lon="2.26923">
        <ele>115.4</ele>
        <time>2023-09-13T07:12:32Z</time>
      </trkpt>
      <trkpt lat="49.81637" lon="2.26922">
        <ele>115.4</ele>
        <time>2023-09-13T07:12:33Z</time>
      </trkpt>
      <trkpt lat="49.81638" lon="2.26921">
        <ele>115.4</ele>
        <time>2023-09-13T07:12:35Z</time>
      </trkpt>
      <trkpt lat="49.81639" lon="2.2692">
        <ele>115.4</ele>
        <time>2023-09-13T07:12:36Z</time>
      </trkpt>
      <trkpt lat="49.81639" lon="2.26919">
        <ele>115.4</ele>
        <time>2023-09-13T07:12:37Z</time>
      </trkpt>
      <trkpt lat="49.8164" lon="2.26918">
        <ele>115.4</ele>
        <time>2023-09-13T07:12:38Z</time>
      </trkpt>
      <trkpt lat="49.81642" lon="2.26916">
        <ele>115.3</ele>
        <time>2023-09-13T07:12:39Z</time>
      </trkpt>
      <trkpt lat="49.81643" lon="2.26915">
        <ele>115.3</ele>
        <time>2023-09-13T07:12:40Z</time>
      </trkpt>
      <trkpt lat="49.81643" lon="2.26914">
        <ele>115.3</ele>
        <time>2023-09-13T07:12:41Z</time>
      </trkpt>
      <trkpt lat="49.81645" lon="2.26912">
        <ele>115.3</ele>
        <time>2023-09-13T07:12:42Z</time>
      </trkpt>
      <trkpt lat="49.81645" lon="2.26911">
        <ele>115.3</ele>
        <time>2023-09-13T07:12:44Z</time>
      </trkpt>
      <trkpt lat="49.81646" lon="2.2691">
        <ele>115.3</ele>
        <time>2023-09-13T07:12:45Z</time>
      </trkpt>
      <trkpt lat="49.81648" lon="2.26908">
        <ele>115.3</ele>
        <time>2023-09-13T07:12:46Z</time>
      </trkpt>
      <trkpt lat="49.81648" lon="2.26907">
        <ele>115.3</ele>
        <time>2023-09-13T07:12:47Z</time>
      </trkpt>
      <trkpt lat="49.81649" lon="2.26906">
        <ele>115.3</ele>
        <time>2023-09-13T07:12:48Z</time>
      </trkpt>
      <trkpt lat="49.8165" lon="2.26905">
        <ele>115.3</ele>
        <time>2023-09-13T07:12:49Z</time>
      </trkpt>
      <trkpt lat="49.81651" lon="2.26903">
        <ele>115.3</ele>
        <time>2023-09-13T07:12:50Z</time>
      </trkpt>
      <trkpt lat="49.81653" lon="2.26901">
        <ele>115.3</ele>
        <time>2023-09-13T07:12:51Z</time>
      </trkpt>
      <trkpt lat="49.81653" lon="2.269">
        <ele>115.2</ele>
        <time>2023-09-13T07:12:52Z</time>
      </trkpt>
      <trkpt lat="49.81654" lon="2.26899">
        <ele>115.2</ele>
        <time>2023-09-13T07:12:53Z</time>
      </trkpt>
      <trkpt lat="49.81656" lon="2.26898">
        <ele>115.2</ele>
        <time>2023-09-13T07:12:55Z</time>
      </trkpt>
      <trkpt lat="49.81657" lon="2.26897">
        <ele>115.2</ele>
        <time>2023-09-13T07:12:56Z</time>
      </trkpt>
      <trkpt lat="49.81657" lon="2.26896">
        <ele>115.2</ele>
        <time>2023-09-13T07:12:57Z</time>
      </trkpt>
      <trkpt lat="49.81659" lon="2.26895">
        <ele>115.2</ele>
        <time>2023-09-13T07:12:58Z</time>
      </trkpt>
      <trkpt lat="49.8166" lon="2.26894">
        <ele>115.2</ele>
        <time>2023-09-13T07:12:59Z</time>
      </trkpt>
      <trkpt lat="49.81662" lon="2.26892">
        <ele>115.1</ele>
        <time>2023-09-13T07:13:00Z</time>
      </trkpt>
      <trkpt lat="49.81662" lon="2.26892">
        <ele>115.1</ele>
        <time>2023-09-13T07:13:01Z</time>
      </trkpt>
      <trkpt lat="49.81663" lon="2.26891">
        <ele>115.1</ele>
        <time>2023-09-13T07:13:02Z</time>
      </trkpt>
      <trkpt lat="49.81665" lon="2.26889">
        <ele>115.1</ele>
        <time>2023-09-13T07:13:03Z</time>
      </trkpt>
      <trkpt lat="49.81666" lon="2.26889">
        <ele>115.1</ele>
        <time>2023-09-13T07:13:05Z</time>
      </trkpt>
      <trkpt lat="49.81666" lon="2.26888">
        <ele>115.1</ele>
        <time>2023-09-13T07:13:06Z</time>
      </trkpt>
      <trkpt lat="49.81667" lon="2.26886">
        <ele>115.1</ele>
        <time>2023-09-13T07:13:07Z</time>
      </trkpt>
      <trkpt lat="49.81669" lon="2.26885">
        <ele>115</ele>
        <time>2023-09-13T07:13:08Z</time>
      </trkpt>
      <trkpt lat="49.8167" lon="2.26884">
        <ele>115</ele>
        <time>2023-09-13T07:13:09Z</time>
      </trkpt>
      <trkpt lat="49.81671" lon="2.26883">
        <ele>115</ele>
        <time>2023-09-13T07:13:10Z</time>
      </trkpt>
      <trkpt lat="49.81672" lon="2.26881">
        <ele>115</ele>
        <time>2023-09-13T07:13:11Z</time>
      </trkpt>
      <trkpt lat="49.81673" lon="2.2688">
        <ele>114.9</ele>
        <time>2023-09-13T07:13:12Z</time>
      </trkpt>
      <trkpt lat="49.81674" lon="2.26879">
        <ele>114.9</ele>
        <time>2023-09-13T07:13:13Z</time>
      </trkpt>
      <trkpt lat="49.81675" lon="2.26877">
        <ele>114.9</ele>
        <time>2023-09-13T07:13:14Z</time>
      </trkpt>
      <trkpt lat="49.81676" lon="2.26877">
        <ele>114.9</ele>
        <time>2023-09-13T07:13:16Z</time>
      </trkpt>
      <trkpt lat="49.81676" lon="2.26876">
        <ele>114.9</ele>
        <time>2023-09-13T07:13:17Z</time>
      </trkpt>
      <trkpt lat="49.81677" lon="2.26874">
        <ele>114.9</ele>
        <time>2023-09-13T07:13:18Z</time>
      </trkpt>
      <trkpt lat="49.81678" lon="2.26873">
        <ele>114.8</ele>
        <time>2023-09-13T07:13:19Z</time>
      </trkpt>
      <trkpt lat="49.81679" lon="2.26872">
        <ele>114.8</ele>
        <time>2023-09-13T07:13:20Z</time>
      </trkpt>
      <trkpt lat="49.81681" lon="2.2687">
        <ele>114.8</ele>
        <time>2023-09-13T07:13:22Z</time>
      </trkpt>
      <trkpt lat="49.81682" lon="2.26869">
        <ele>114.8</ele>
        <time>2023-09-13T07:13:23Z</time>
      </trkpt>
      <trkpt lat="49.81683" lon="2.26868">
        <ele>114.7</ele>
        <time>2023-09-13T07:13:24Z</time>
      </trkpt>
      <trkpt lat="49.81685" lon="2.26866">
        <ele>114.7</ele>
        <time>2023-09-13T07:13:25Z</time>
      </trkpt>
      <trkpt lat="49.81685" lon="2.26865">
        <ele>114.7</ele>
        <time>2023-09-13T07:13:26Z</time>
      </trkpt>
      <trkpt lat="49.81686" lon="2.26864">
        <ele>114.7</ele>
        <time>2023-09-13T07:13:27Z</time>
      </trkpt>
      <trkpt lat="49.81688" lon="2.26861">
        <ele>114.6</ele>
        <time>2023-09-13T07:13:28Z</time>
      </trkpt>
      <trkpt lat="49.81689" lon="2.2686">
        <ele>114.6</ele>
        <time>2023-09-13T07:13:30Z</time>
      </trkpt>
      <trkpt lat="49.8169" lon="2.26859">
        <ele>114.6</ele>
        <time>2023-09-13T07:13:31Z</time>
      </trkpt>
      <trkpt lat="49.8169" lon="2.26858">
        <ele>114.6</ele>
        <time>2023-09-13T07:13:32Z</time>
      </trkpt>
      <trkpt lat="49.81691" lon="2.26857">
        <ele>114.6</ele>
        <time>2023-09-13T07:13:33Z</time>
      </trkpt>
      <trkpt lat="49.81692" lon="2.26856">
        <ele>114.6</ele>
        <time>2023-09-13T07:13:34Z</time>
      </trkpt>
      <trkpt lat="49.81694" lon="2.26854">
        <ele>114.5</ele>
        <time>2023-09-13T07:13:35Z</time>
      </trkpt>
      <trkpt lat="49.81695" lon="2.26853">
        <ele>114.5</ele>
        <time>2023-09-13T07:13:36Z</time>
      </trkpt>
      <trkpt lat="49.81696" lon="2.26851">
        <ele>114.5</ele>
        <time>2023-09-13T07:13:37Z</time>
      </trkpt>
      <trkpt lat="49.81697" lon="2.2685">
        <ele>114.5</ele>
        <time>2023-09-13T07:13:38Z</time>
      </trkpt>
      <trkpt lat="49.81698" lon="2.26849">
        <ele>114.5</ele>
        <time>2023-09-13T07:13:39Z</time>
      </trkpt>
      <trkpt lat="49.81699" lon="2.26848">
        <ele>114.5</ele>
        <time>2023-09-13T07:13:41Z</time>
      </trkpt>
      <trkpt lat="49.81701" lon="2.26846">
        <ele>114.5</ele>
        <time>2023-09-13T07:13:42Z</time>
      </trkpt>
      <trkpt lat="49.81701" lon="2.26845">
        <ele>114.5</ele>
        <time>2023-09-13T07:13:43Z</time>
      </trkpt>
      <trkpt lat="49.81702" lon="2.26845">
        <ele>114.4</ele>
        <time>2023-09-13T07:13:44Z</time>
      </trkpt>
      <trkpt lat="49.81703" lon="2.26843">
        <ele>114.4</ele>
        <time>2023-09-13T07:13:46Z</time>
      </trkpt>
      <trkpt lat="49.81704" lon="2.26841">
        <ele>114.4</ele>
        <time>2023-09-13T07:13:47Z</time>
      </trkpt>
      <trkpt lat="49.81706" lon="2.2684">
        <ele>114.4</ele>
        <time>2023-09-13T07:13:48Z</time>
      </trkpt>
      <trkpt lat="49.81707" lon="2.26839">
        <ele>114.4</ele>
        <time>2023-09-13T07:13:49Z</time>
      </trkpt>
      <trkpt lat="49.81708" lon="2.26838">
        <ele>114.4</ele>
        <time>2023-09-13T07:13:50Z</time>
      </trkpt>
      <trkpt lat="49.8171" lon="2.26837">
        <ele>114.4</ele>
        <time>2023-09-13T07:13:51Z</time>
      </trkpt>
      <trkpt lat="49.81711" lon="2.26835">
        <ele>114.4</ele>
        <time>2023-09-13T07:13:53Z</time>
      </trkpt>
      <trkpt lat="49.81712" lon="2.26833">
        <ele>114.4</ele>
        <time>2023-09-13T07:13:54Z</time>
      </trkpt>
      <trkpt lat="49.81713" lon="2.26832">
        <ele>114.4</ele>
        <time>2023-09-13T07:13:55Z</time>
      </trkpt>
      <trkpt lat="49.81714" lon="2.26831">
        <ele>114.4</ele>
        <time>2023-09-13T07:13:56Z</time>
      </trkpt>
      <trkpt lat="49.81715" lon="2.26829">
        <ele>114.4</ele>
        <time>2023-09-13T07:13:57Z</time>
      </trkpt>
      <trkpt lat="49.81716" lon="2.26828">
        <ele>114.4</ele>
        <time>2023-09-13T07:13:58Z</time>
      </trkpt>
      <trkpt lat="49.81717" lon="2.26827">
        <ele>114.4</ele>
        <time>2023-09-13T07:14:00Z</time>
      </trkpt>
      <trkpt lat="49.81718" lon="2.26825">
        <ele>114.4</ele>
        <time>2023-09-13T07:14:01Z</time>
      </trkpt>
      <trkpt lat="49.81719" lon="2.26824">
        <ele>114.4</ele>
        <time>2023-09-13T07:14:02Z</time>
      </trkpt>
      <trkpt lat="49.81719" lon="2.26823">
        <ele>114.4</ele>
        <time>2023-09-13T07:14:03Z</time>
      </trkpt>
      <trkpt lat="49.8172" lon="2.26821">
        <ele>114.3</ele>
        <time>2023-09-13T07:14:04Z</time>
      </trkpt>
      <trkpt lat="49.81721" lon="2.26818">
        <ele>114.3</ele>
        <time>2023-09-13T07:14:05Z</time>
      </trkpt>
      <trkpt lat="49.81722" lon="2.26815">
        <ele>114.3</ele>
        <time>2023-09-13T07:14:06Z</time>
      </trkpt>
      <trkpt lat="49.81722" lon="2.26814">
        <ele>114.3</ele>
        <time>2023-09-13T07:14:07Z</time>
      </trkpt>
      <trkpt lat="49.81723" lon="2.26813">
        <ele>114.3</ele>
        <time>2023-09-13T07:14:08Z</time>
      </trkpt>
      <trkpt lat="49.81723" lon="2.26812">
        <ele>114.3</ele>
        <time>2023-09-13T07:14:09Z</time>
      </trkpt>
      <trkpt lat="49.81724" lon="2.26811">
        <ele>114.3</ele>
        <time>2023-09-13T07:14:11Z</time>
      </trkpt>
      <trkpt lat="49.81724" lon="2.2681">
        <ele>114.3</ele>
        <time>2023-09-13T07:14:12Z</time>
      </trkpt>
      <trkpt lat="49.81725" lon="2.2681">
        <ele>114.3</ele>
        <time>2023-09-13T07:14:13Z</time>
      </trkpt>
      <trkpt lat="49.81726" lon="2.26809">
        <ele>114.3</ele>
        <time>2023-09-13T07:14:14Z</time>
      </trkpt>
      <trkpt lat="49.81727" lon="2.26809">
        <ele>114.3</ele>
        <time>2023-09-13T07:14:15Z</time>
      </trkpt>
      <trkpt lat="49.81728" lon="2.26808">
        <ele>114.2</ele>
        <time>2023-09-13T07:14:16Z</time>
      </trkpt>
      <trkpt lat="49.81729" lon="2.26807">
        <ele>114.2</ele>
        <time>2023-09-13T07:14:17Z</time>
      </trkpt>
      <trkpt lat="49.8173" lon="2.26807">
        <ele>114.2</ele>
        <time>2023-09-13T07:14:18Z</time>
      </trkpt>
      <trkpt lat="49.81731" lon="2.26806">
        <ele>114.2</ele>
        <time>2023-09-13T07:14:19Z</time>
      </trkpt>
      <trkpt lat="49.81732" lon="2.26805">
        <ele>114.2</ele>
        <time>2023-09-13T07:14:20Z</time>
      </trkpt>
      <trkpt lat="49.81733" lon="2.26804">
        <ele>114.2</ele>
        <time>2023-09-13T07:14:22Z</time>
      </trkpt>
      <trkpt lat="49.81734" lon="2.26804">
        <ele>114.2</ele>
        <time>2023-09-13T07:14:23Z</time>
      </trkpt>
      <trkpt lat="49.81735" lon="2.26803">
        <ele>114.2</ele>
        <time>2023-09-13T07:14:24Z</time>
      </trkpt>
      <trkpt lat="49.81736" lon="2.26802">
        <ele>114.2</ele>
        <time>2023-09-13T07:14:25Z</time>
      </trkpt>
      <trkpt lat="49.81737" lon="2.268">
        <ele>114.2</ele>
        <time>2023-09-13T07:14:27Z</time>
      </trkpt>
      <trkpt lat="49.81739" lon="2.26798">
        <ele>114.2</ele>
        <time>2023-09-13T07:14:28Z</time>
      </trkpt>
      <trkpt lat="49.8174" lon="2.26797">
        <ele>114.2</ele>
        <time>2023-09-13T07:14:29Z</time>
      </trkpt>
      <trkpt lat="49.81741" lon="2.26797">
        <ele>114.2</ele>
        <time>2023-09-13T07:14:30Z</time>
      </trkpt>
      <trkpt lat="49.81742" lon="2.26795">
        <ele>114.2</ele>
        <time>2023-09-13T07:14:31Z</time>
      </trkpt>
      <trkpt lat="49.81743" lon="2.26793">
        <ele>114.2</ele>
        <time>2023-09-13T07:14:32Z</time>
      </trkpt>
      <trkpt lat="49.81744" lon="2.26792">
        <ele>114.2</ele>
        <time>2023-09-13T07:14:33Z</time>
      </trkpt>
      <trkpt lat="49.81746" lon="2.2679">
        <ele>114.2</ele>
        <time>2023-09-13T07:14:34Z</time>
      </trkpt>
      <trkpt lat="49.81747" lon="2.26788">
        <ele>114.1</ele>
        <time>2023-09-13T07:14:36Z</time>
      </trkpt>
      <trkpt lat="49.81747" lon="2.26787">
        <ele>114.1</ele>
        <time>2023-09-13T07:14:37Z</time>
      </trkpt>
      <trkpt lat="49.81749" lon="2.26784">
        <ele>114.1</ele>
        <time>2023-09-13T07:14:38Z</time>
      </trkpt>
      <trkpt lat="49.81749" lon="2.26783">
        <ele>114.1</ele>
        <time>2023-09-13T07:14:39Z</time>
      </trkpt>
      <trkpt lat="49.8175" lon="2.26782">
        <ele>114.1</ele>
        <time>2023-09-13T07:14:40Z</time>
      </trkpt>
      <trkpt lat="49.81752" lon="2.26779">
        <ele>114.1</ele>
        <time>2023-09-13T07:14:41Z</time>
      </trkpt>
      <trkpt lat="49.81752" lon="2.26779">
        <ele>114.1</ele>
        <time>2023-09-13T07:14:42Z</time>
      </trkpt>
      <trkpt lat="49.81753" lon="2.26778">
        <ele>114.1</ele>
        <time>2023-09-13T07:14:43Z</time>
      </trkpt>
      <trkpt lat="49.81754" lon="2.26776">
        <ele>114.1</ele>
        <time>2023-09-13T07:14:44Z</time>
      </trkpt>
      <trkpt lat="49.81755" lon="2.26775">
        <ele>114.1</ele>
        <time>2023-09-13T07:14:45Z</time>
      </trkpt>
      <trkpt lat="49.81756" lon="2.26773">
        <ele>114.1</ele>
        <time>2023-09-13T07:14:47Z</time>
      </trkpt>
      <trkpt lat="49.81757" lon="2.26772">
        <ele>114.1</ele>
        <time>2023-09-13T07:14:48Z</time>
      </trkpt>
      <trkpt lat="49.81759" lon="2.2677">
        <ele>114.1</ele>
        <time>2023-09-13T07:14:49Z</time>
      </trkpt>
      <trkpt lat="49.8176" lon="2.26769">
        <ele>114.1</ele>
        <time>2023-09-13T07:14:50Z</time>
      </trkpt>
      <trkpt lat="49.8176" lon="2.26768">
        <ele>114.1</ele>
        <time>2023-09-13T07:14:51Z</time>
      </trkpt>
      <trkpt lat="49.81762" lon="2.26765">
        <ele>114</ele>
        <time>2023-09-13T07:14:53Z</time>
      </trkpt>
      <trkpt lat="49.81762" lon="2.26764">
        <ele>114</ele>
        <time>2023-09-13T07:14:54Z</time>
      </trkpt>
      <trkpt lat="49.81763" lon="2.26763">
        <ele>114</ele>
        <time>2023-09-13T07:14:55Z</time>
      </trkpt>
      <trkpt lat="49.81764" lon="2.26762">
        <ele>114</ele>
        <time>2023-09-13T07:14:56Z</time>
      </trkpt>
      <trkpt lat="49.81765" lon="2.2676">
        <ele>114</ele>
        <time>2023-09-13T07:14:57Z</time>
      </trkpt>
      <trkpt lat="49.81767" lon="2.26758">
        <ele>114</ele>
        <time>2023-09-13T07:14:58Z</time>
      </trkpt>
      <trkpt lat="49.81767" lon="2.26758">
        <ele>114</ele>
        <time>2023-09-13T07:14:59Z</time>
      </trkpt>
      <trkpt lat="49.81768" lon="2.26757">
        <ele>113.9</ele>
        <time>2023-09-13T07:15:00Z</time>
      </trkpt>
      <trkpt lat="49.81769" lon="2.26755">
        <ele>113.9</ele>
        <time>2023-09-13T07:15:01Z</time>
      </trkpt>
      <trkpt lat="49.8177" lon="2.26754">
        <ele>113.9</ele>
        <time>2023-09-13T07:15:03Z</time>
      </trkpt>
      <trkpt lat="49.81771" lon="2.26753">
        <ele>113.9</ele>
        <time>2023-09-13T07:15:04Z</time>
      </trkpt>
      <trkpt lat="49.81772" lon="2.26752">
        <ele>113.9</ele>
        <time>2023-09-13T07:15:05Z</time>
      </trkpt>
      <trkpt lat="49.81773" lon="2.26751">
        <ele>113.9</ele>
        <time>2023-09-13T07:15:06Z</time>
      </trkpt>
      <trkpt lat="49.81775" lon="2.26749">
        <ele>113.9</ele>
        <time>2023-09-13T07:15:07Z</time>
      </trkpt>
      <trkpt lat="49.81776" lon="2.26749">
        <ele>113.9</ele>
        <time>2023-09-13T07:15:08Z</time>
      </trkpt>
      <trkpt lat="49.81777" lon="2.26748">
        <ele>113.8</ele>
        <time>2023-09-13T07:15:09Z</time>
      </trkpt>
      <trkpt lat="49.81778" lon="2.26747">
        <ele>113.8</ele>
        <time>2023-09-13T07:15:10Z</time>
      </trkpt>
      <trkpt lat="49.81779" lon="2.26745">
        <ele>113.8</ele>
        <time>2023-09-13T07:15:11Z</time>
      </trkpt>
      <trkpt lat="49.81781" lon="2.26743">
        <ele>113.8</ele>
        <time>2023-09-13T07:15:12Z</time>
      </trkpt>
      <trkpt lat="49.81782" lon="2.26743">
        <ele>113.8</ele>
        <time>2023-09-13T07:15:14Z</time>
      </trkpt>
      <trkpt lat="49.81783" lon="2.26742">
        <ele>113.8</ele>
        <time>2023-09-13T07:15:15Z</time>
      </trkpt>
      <trkpt lat="49.81784" lon="2.26741">
        <ele>113.8</ele>
        <time>2023-09-13T07:15:16Z</time>
      </trkpt>
      <trkpt lat="49.81785" lon="2.2674">
        <ele>113.7</ele>
        <time>2023-09-13T07:15:17Z</time>
      </trkpt>
      <trkpt lat="49.81786" lon="2.2674">
        <ele>113.7</ele>
        <time>2023-09-13T07:15:18Z</time>
      </trkpt>
      <trkpt lat="49.81787" lon="2.26739">
        <ele>113.7</ele>
        <time>2023-09-13T07:15:19Z</time>
      </trkpt>
      <trkpt lat="49.81788" lon="2.26738">
        <ele>113.7</ele>
        <time>2023-09-13T07:15:20Z</time>
      </trkpt>
      <trkpt lat="49.81789" lon="2.26737">
        <ele>113.7</ele>
        <time>2023-09-13T07:15:22Z</time>
      </trkpt>
      <trkpt lat="49.8179" lon="2.26736">
        <ele>113.7</ele>
        <time>2023-09-13T07:15:23Z</time>
      </trkpt>
      <trkpt lat="49.81792" lon="2.26733">
        <ele>113.6</ele>
        <time>2023-09-13T07:15:24Z</time>
      </trkpt>
      <trkpt lat="49.81792" lon="2.26732">
        <ele>113.6</ele>
        <time>2023-09-13T07:15:25Z</time>
      </trkpt>
      <trkpt lat="49.81793" lon="2.26731">
        <ele>113.6</ele>
        <time>2023-09-13T07:15:26Z</time>
      </trkpt>
      <trkpt lat="49.81795" lon="2.26729">
        <ele>113.6</ele>
        <time>2023-09-13T07:15:27Z</time>
      </trkpt>
      <trkpt lat="49.81795" lon="2.26728">
        <ele>113.6</ele>
        <time>2023-09-13T07:15:28Z</time>
      </trkpt>
      <trkpt lat="49.81795" lon="2.26727">
        <ele>113.6</ele>
        <time>2023-09-13T07:15:29Z</time>
      </trkpt>
      <trkpt lat="49.81796" lon="2.26726">
        <ele>113.5</ele>
        <time>2023-09-13T07:15:30Z</time>
      </trkpt>
      <trkpt lat="49.81797" lon="2.26724">
        <ele>113.5</ele>
        <time>2023-09-13T07:15:32Z</time>
      </trkpt>
      <trkpt lat="49.81798" lon="2.26723">
        <ele>113.5</ele>
        <time>2023-09-13T07:15:33Z</time>
      </trkpt>
      <trkpt lat="49.81799" lon="2.2672">
        <ele>113.5</ele>
        <time>2023-09-13T07:15:34Z</time>
      </trkpt>
      <trkpt lat="49.81799" lon="2.26719">
        <ele>113.5</ele>
        <time>2023-09-13T07:15:35Z</time>
      </trkpt>
      <trkpt lat="49.818" lon="2.26718">
        <ele>113.5</ele>
        <time>2023-09-13T07:15:36Z</time>
      </trkpt>
      <trkpt lat="49.81801" lon="2.26716">
        <ele>113.5</ele>
        <time>2023-09-13T07:15:37Z</time>
      </trkpt>
      <trkpt lat="49.81802" lon="2.26715">
        <ele>113.4</ele>
        <time>2023-09-13T07:15:38Z</time>
      </trkpt>
      <trkpt lat="49.81803" lon="2.26712">
        <ele>113.4</ele>
        <time>2023-09-13T07:15:39Z</time>
      </trkpt>
      <trkpt lat="49.81804" lon="2.26711">
        <ele>113.4</ele>
        <time>2023-09-13T07:15:40Z</time>
      </trkpt>
      <trkpt lat="49.81805" lon="2.2671">
        <ele>113.4</ele>
        <time>2023-09-13T07:15:41Z</time>
      </trkpt>
      <trkpt lat="49.81806" lon="2.26708">
        <ele>113.4</ele>
        <time>2023-09-13T07:15:43Z</time>
      </trkpt>
      <trkpt lat="49.81807" lon="2.26707">
        <ele>113.4</ele>
        <time>2023-09-13T07:15:44Z</time>
      </trkpt>
      <trkpt lat="49.81808" lon="2.26706">
        <ele>113.4</ele>
        <time>2023-09-13T07:15:45Z</time>
      </trkpt>
      <trkpt lat="49.8181" lon="2.26704">
        <ele>113.4</ele>
        <time>2023-09-13T07:15:46Z</time>
      </trkpt>
      <trkpt lat="49.8181" lon="2.26703">
        <ele>113.4</ele>
        <time>2023-09-13T07:15:47Z</time>
      </trkpt>
      <trkpt lat="49.81811" lon="2.26702">
        <ele>113.4</ele>
        <time>2023-09-13T07:15:48Z</time>
      </trkpt>
      <trkpt lat="49.81813" lon="2.267">
        <ele>113.4</ele>
        <time>2023-09-13T07:15:49Z</time>
      </trkpt>
      <trkpt lat="49.81814" lon="2.26699">
        <ele>113.4</ele>
        <time>2023-09-13T07:15:51Z</time>
      </trkpt>
      <trkpt lat="49.81815" lon="2.26697">
        <ele>113.4</ele>
        <time>2023-09-13T07:15:52Z</time>
      </trkpt>
      <trkpt lat="49.81816" lon="2.26696">
        <ele>113.4</ele>
        <time>2023-09-13T07:15:54Z</time>
      </trkpt>
      <trkpt lat="49.81817" lon="2.26695">
        <ele>113.4</ele>
        <time>2023-09-13T07:15:55Z</time>
      </trkpt>
      <trkpt lat="49.81818" lon="2.26694">
        <ele>113.4</ele>
        <time>2023-09-13T07:15:56Z</time>
      </trkpt>
      <trkpt lat="49.81819" lon="2.26693">
        <ele>113.3</ele>
        <time>2023-09-13T07:15:57Z</time>
      </trkpt>
      <trkpt lat="49.8182" lon="2.26691">
        <ele>113.3</ele>
        <time>2023-09-13T07:15:58Z</time>
      </trkpt>
      <trkpt lat="49.81821" lon="2.2669">
        <ele>113.3</ele>
        <time>2023-09-13T07:16:00Z</time>
      </trkpt>
      <trkpt lat="49.81822" lon="2.26689">
        <ele>113.3</ele>
        <time>2023-09-13T07:16:01Z</time>
      </trkpt>
      <trkpt lat="49.81823" lon="2.26688">
        <ele>113.3</ele>
        <time>2023-09-13T07:16:02Z</time>
      </trkpt>
      <trkpt lat="49.81824" lon="2.26688">
        <ele>113.3</ele>
        <time>2023-09-13T07:16:03Z</time>
      </trkpt>
      <trkpt lat="49.81825" lon="2.26687">
        <ele>113.3</ele>
        <time>2023-09-13T07:16:04Z</time>
      </trkpt>
      <trkpt lat="49.81827" lon="2.26685">
        <ele>113.3</ele>
        <time>2023-09-13T07:16:05Z</time>
      </trkpt>
      <trkpt lat="49.81828" lon="2.26685">
        <ele>113.3</ele>
        <time>2023-09-13T07:16:06Z</time>
      </trkpt>
      <trkpt lat="49.81828" lon="2.26684">
        <ele>113.3</ele>
        <time>2023-09-13T07:16:07Z</time>
      </trkpt>
      <trkpt lat="49.8183" lon="2.26683">
        <ele>113.3</ele>
        <time>2023-09-13T07:16:09Z</time>
      </trkpt>
      <trkpt lat="49.81831" lon="2.26683">
        <ele>113.3</ele>
        <time>2023-09-13T07:16:10Z</time>
      </trkpt>
      <trkpt lat="49.81832" lon="2.26682">
        <ele>113.3</ele>
        <time>2023-09-13T07:16:11Z</time>
      </trkpt>
      <trkpt lat="49.81833" lon="2.26681">
        <ele>113.3</ele>
        <time>2023-09-13T07:16:12Z</time>
      </trkpt>
      <trkpt lat="49.81834" lon="2.2668">
        <ele>113.3</ele>
        <time>2023-09-13T07:16:13Z</time>
      </trkpt>
      <trkpt lat="49.81834" lon="2.26679">
        <ele>113.3</ele>
        <time>2023-09-13T07:16:14Z</time>
      </trkpt>
      <trkpt lat="49.81835" lon="2.26678">
        <ele>113.2</ele>
        <time>2023-09-13T07:16:16Z</time>
      </trkpt>
      <trkpt lat="49.81835" lon="2.26676">
        <ele>113.2</ele>
        <time>2023-09-13T07:16:17Z</time>
      </trkpt>
      <trkpt lat="49.81837" lon="2.26674">
        <ele>113.2</ele>
        <time>2023-09-13T07:16:18Z</time>
      </trkpt>
      <trkpt lat="49.81838" lon="2.26673">
        <ele>113.2</ele>
        <time>2023-09-13T07:16:19Z</time>
      </trkpt>
      <trkpt lat="49.81838" lon="2.26672">
        <ele>113.2</ele>
        <time>2023-09-13T07:16:20Z</time>
      </trkpt>
      <trkpt lat="49.8184" lon="2.2667">
        <ele>113.2</ele>
        <time>2023-09-13T07:16:21Z</time>
      </trkpt>
      <trkpt lat="49.81841" lon="2.26669">
        <ele>113.2</ele>
        <time>2023-09-13T07:16:22Z</time>
      </trkpt>
      <trkpt lat="49.81841" lon="2.26668">
        <ele>113.2</ele>
        <time>2023-09-13T07:16:23Z</time>
      </trkpt>
      <trkpt lat="49.81843" lon="2.26666">
        <ele>113.1</ele>
        <time>2023-09-13T07:16:25Z</time>
      </trkpt>
      <trkpt lat="49.81844" lon="2.26666">
        <ele>113.1</ele>
        <time>2023-09-13T07:16:26Z</time>
      </trkpt>
      <trkpt lat="49.81845" lon="2.26665">
        <ele>113.1</ele>
        <time>2023-09-13T07:16:27Z</time>
      </trkpt>
      <trkpt lat="49.81846" lon="2.26664">
        <ele>113.1</ele>
        <time>2023-09-13T07:16:28Z</time>
      </trkpt>
      <trkpt lat="49.81847" lon="2.26663">
        <ele>113.1</ele>
        <time>2023-09-13T07:16:29Z</time>
      </trkpt>
      <trkpt lat="49.81849" lon="2.26661">
        <ele>113.1</ele>
        <time>2023-09-13T07:16:31Z</time>
      </trkpt>
      <trkpt lat="49.8185" lon="2.2666">
        <ele>113.1</ele>
        <time>2023-09-13T07:16:32Z</time>
      </trkpt>
      <trkpt lat="49.81851" lon="2.26659">
        <ele>113</ele>
        <time>2023-09-13T07:16:33Z</time>
      </trkpt>
      <trkpt lat="49.81852" lon="2.26658">
        <ele>113</ele>
        <time>2023-09-13T07:16:34Z</time>
      </trkpt>
      <trkpt lat="49.81853" lon="2.26657">
        <ele>113</ele>
        <time>2023-09-13T07:16:35Z</time>
      </trkpt>
      <trkpt lat="49.81853" lon="2.26655">
        <ele>113</ele>
        <time>2023-09-13T07:16:36Z</time>
      </trkpt>
      <trkpt lat="49.81855" lon="2.26654">
        <ele>113</ele>
        <time>2023-09-13T07:16:37Z</time>
      </trkpt>
      <trkpt lat="49.81856" lon="2.26653">
        <ele>113</ele>
        <time>2023-09-13T07:16:39Z</time>
      </trkpt>
      <trkpt lat="49.81857" lon="2.26652">
        <ele>113</ele>
        <time>2023-09-13T07:16:40Z</time>
      </trkpt>
      <trkpt lat="49.81858" lon="2.2665">
        <ele>113</ele>
        <time>2023-09-13T07:16:41Z</time>
      </trkpt>
      <trkpt lat="49.81859" lon="2.26648">
        <ele>113</ele>
        <time>2023-09-13T07:16:42Z</time>
      </trkpt>
      <trkpt lat="49.81859" lon="2.26647">
        <ele>113</ele>
        <time>2023-09-13T07:16:43Z</time>
      </trkpt>
      <trkpt lat="49.8186" lon="2.26646">
        <ele>113</ele>
        <time>2023-09-13T07:16:44Z</time>
      </trkpt>
      <trkpt lat="49.81861" lon="2.26643">
        <ele>113</ele>
        <time>2023-09-13T07:16:45Z</time>
      </trkpt>
      <trkpt lat="49.81862" lon="2.26642">
        <ele>113</ele>
        <time>2023-09-13T07:16:47Z</time>
      </trkpt>
      <trkpt lat="49.81863" lon="2.26641">
        <ele>113</ele>
        <time>2023-09-13T07:16:48Z</time>
      </trkpt>
      <trkpt lat="49.81864" lon="2.26641">
        <ele>113</ele>
        <time>2023-09-13T07:16:49Z</time>
      </trkpt>
      <trkpt lat="49.81865" lon="2.2664">
        <ele>113</ele>
        <time>2023-09-13T07:16:50Z</time>
      </trkpt>
      <trkpt lat="49.81866" lon="2.26639">
        <ele>113</ele>
        <time>2023-09-13T07:16:51Z</time>
      </trkpt>
      <trkpt lat="49.81867" lon="2.26638">
        <ele>113</ele>
        <time>2023-09-13T07:16:52Z</time>
      </trkpt>
      <trkpt lat="49.81869" lon="2.26636">
        <ele>113</ele>
        <time>2023-09-13T07:16:54Z</time>
      </trkpt>
      <trkpt lat="49.8187" lon="2.26635">
        <ele>113</ele>
        <time>2023-09-13T07:16:55Z</time>
      </trkpt>
      <trkpt lat="49.81871" lon="2.26635">
        <ele>113</ele>
        <time>2023-09-13T07:16:56Z</time>
      </trkpt>
      <trkpt lat="49.81873" lon="2.26633">
        <ele>113</ele>
        <time>2023-09-13T07:16:57Z</time>
      </trkpt>
      <trkpt lat="49.81874" lon="2.26633">
        <ele>113</ele>
        <time>2023-09-13T07:16:58Z</time>
      </trkpt>
      <trkpt lat="49.81874" lon="2.26632">
        <ele>113</ele>
        <time>2023-09-13T07:16:59Z</time>
      </trkpt>
      <trkpt lat="49.81876" lon="2.26631">
        <ele>113</ele>
        <time>2023-09-13T07:17:00Z</time>
      </trkpt>
      <trkpt lat="49.81877" lon="2.2663">
        <ele>113</ele>
        <time>2023-09-13T07:17:02Z</time>
      </trkpt>
      <trkpt lat="49.81878" lon="2.26629">
        <ele>113</ele>
        <time>2023-09-13T07:17:03Z</time>
      </trkpt>
      <trkpt lat="49.81878" lon="2.26628">
        <ele>113</ele>
        <time>2023-09-13T07:17:04Z</time>
      </trkpt>
      <trkpt lat="49.8188" lon="2.26627">
        <ele>113</ele>
        <time>2023-09-13T07:17:05Z</time>
      </trkpt>
      <trkpt lat="49.81881" lon="2.26626">
        <ele>113</ele>
        <time>2023-09-13T07:17:06Z</time>
      </trkpt>
      <trkpt lat="49.81882" lon="2.26625">
        <ele>112.9</ele>
        <time>2023-09-13T07:17:07Z</time>
      </trkpt>
      <trkpt lat="49.81883" lon="2.26623">
        <ele>112.9</ele>
        <time>2023-09-13T07:17:09Z</time>
      </trkpt>
      <trkpt lat="49.81885" lon="2.26622">
        <ele>112.9</ele>
        <time>2023-09-13T07:17:10Z</time>
      </trkpt>
      <trkpt lat="49.81887" lon="2.26621">
        <ele>112.9</ele>
        <time>2023-09-13T07:17:11Z</time>
      </trkpt>
      <trkpt lat="49.81887" lon="2.2662">
        <ele>112.9</ele>
        <time>2023-09-13T07:17:12Z</time>
      </trkpt>
      <trkpt lat="49.81888" lon="2.2662">
        <ele>112.9</ele>
        <time>2023-09-13T07:17:13Z</time>
      </trkpt>
      <trkpt lat="49.81889" lon="2.26619">
        <ele>112.9</ele>
        <time>2023-09-13T07:17:14Z</time>
      </trkpt>
      <trkpt lat="49.8189" lon="2.26618">
        <ele>112.9</ele>
        <time>2023-09-13T07:17:15Z</time>
      </trkpt>
      <trkpt lat="49.81892" lon="2.26616">
        <ele>112.9</ele>
        <time>2023-09-13T07:17:17Z</time>
      </trkpt>
      <trkpt lat="49.81893" lon="2.26614">
        <ele>112.9</ele>
        <time>2023-09-13T07:17:18Z</time>
      </trkpt>
      <trkpt lat="49.81894" lon="2.26613">
        <ele>112.9</ele>
        <time>2023-09-13T07:17:19Z</time>
      </trkpt>
      <trkpt lat="49.81894" lon="2.26612">
        <ele>112.9</ele>
        <time>2023-09-13T07:17:20Z</time>
      </trkpt>
      <trkpt lat="49.81896" lon="2.26611">
        <ele>112.9</ele>
        <time>2023-09-13T07:17:21Z</time>
      </trkpt>
      <trkpt lat="49.81896" lon="2.2661">
        <ele>112.9</ele>
        <time>2023-09-13T07:17:22Z</time>
      </trkpt>
      <trkpt lat="49.81897" lon="2.26609">
        <ele>112.9</ele>
        <time>2023-09-13T07:17:24Z</time>
      </trkpt>
      <trkpt lat="49.81899" lon="2.26607">
        <ele>112.9</ele>
        <time>2023-09-13T07:17:25Z</time>
      </trkpt>
      <trkpt lat="49.819" lon="2.26606">
        <ele>112.9</ele>
        <time>2023-09-13T07:17:26Z</time>
      </trkpt>
      <trkpt lat="49.81901" lon="2.26605">
        <ele>112.9</ele>
        <time>2023-09-13T07:17:27Z</time>
      </trkpt>
      <trkpt lat="49.81902" lon="2.26603">
        <ele>112.9</ele>
        <time>2023-09-13T07:17:28Z</time>
      </trkpt>
      <trkpt lat="49.81903" lon="2.26602">
        <ele>112.9</ele>
        <time>2023-09-13T07:17:30Z</time>
      </trkpt>
      <trkpt lat="49.81904" lon="2.266">
        <ele>112.9</ele>
        <time>2023-09-13T07:17:31Z</time>
      </trkpt>
      <trkpt lat="49.81905" lon="2.26598">
        <ele>112.9</ele>
        <time>2023-09-13T07:17:32Z</time>
      </trkpt>
      <trkpt lat="49.81906" lon="2.26597">
        <ele>112.9</ele>
        <time>2023-09-13T07:17:33Z</time>
      </trkpt>
      <trkpt lat="49.81907" lon="2.26595">
        <ele>112.9</ele>
        <time>2023-09-13T07:17:34Z</time>
      </trkpt>
      <trkpt lat="49.81909" lon="2.26593">
        <ele>112.9</ele>
        <time>2023-09-13T07:17:35Z</time>
      </trkpt>
      <trkpt lat="49.81909" lon="2.26592">
        <ele>112.9</ele>
        <time>2023-09-13T07:17:36Z</time>
      </trkpt>
      <trkpt lat="49.8191" lon="2.26591">
        <ele>112.9</ele>
        <time>2023-09-13T07:17:37Z</time>
      </trkpt>
      <trkpt lat="49.81911" lon="2.26589">
        <ele>112.9</ele>
        <time>2023-09-13T07:17:39Z</time>
      </trkpt>
      <trkpt lat="49.81912" lon="2.26587">
        <ele>112.9</ele>
        <time>2023-09-13T07:17:40Z</time>
      </trkpt>
      <trkpt lat="49.81913" lon="2.26586">
        <ele>112.9</ele>
        <time>2023-09-13T07:17:41Z</time>
      </trkpt>
      <trkpt lat="49.81914" lon="2.26585">
        <ele>112.9</ele>
        <time>2023-09-13T07:17:42Z</time>
      </trkpt>
      <trkpt lat="49.81916" lon="2.26583">
        <ele>112.9</ele>
        <time>2023-09-13T07:17:43Z</time>
      </trkpt>
      <trkpt lat="49.81916" lon="2.26582">
        <ele>112.9</ele>
        <time>2023-09-13T07:17:44Z</time>
      </trkpt>
      <trkpt lat="49.81917" lon="2.2658">
        <ele>112.9</ele>
        <time>2023-09-13T07:17:46Z</time>
      </trkpt>
      <trkpt lat="49.81918" lon="2.26578">
        <ele>112.9</ele>
        <time>2023-09-13T07:17:47Z</time>
      </trkpt>
      <trkpt lat="49.81919" lon="2.26577">
        <ele>113</ele>
        <time>2023-09-13T07:17:48Z</time>
      </trkpt>
      <trkpt lat="49.8192" lon="2.26576">
        <ele>113</ele>
        <time>2023-09-13T07:17:49Z</time>
      </trkpt>
      <trkpt lat="49.81921" lon="2.26574">
        <ele>113</ele>
        <time>2023-09-13T07:17:50Z</time>
      </trkpt>
      <trkpt lat="49.81922" lon="2.26573">
        <ele>113</ele>
        <time>2023-09-13T07:17:51Z</time>
      </trkpt>
      <trkpt lat="49.81922" lon="2.26572">
        <ele>113</ele>
        <time>2023-09-13T07:17:52Z</time>
      </trkpt>
      <trkpt lat="49.81924" lon="2.26569">
        <ele>113</ele>
        <time>2023-09-13T07:17:53Z</time>
      </trkpt>
      <trkpt lat="49.81925" lon="2.26568">
        <ele>113</ele>
        <time>2023-09-13T07:17:54Z</time>
      </trkpt>
      <trkpt lat="49.81926" lon="2.26567">
        <ele>113</ele>
        <time>2023-09-13T07:17:56Z</time>
      </trkpt>
      <trkpt lat="49.81926" lon="2.26566">
        <ele>113</ele>
        <time>2023-09-13T07:17:57Z</time>
      </trkpt>
      <trkpt lat="49.81927" lon="2.26565">
        <ele>113</ele>
        <time>2023-09-13T07:17:58Z</time>
      </trkpt>
      <trkpt lat="49.81928" lon="2.26564">
        <ele>113</ele>
        <time>2023-09-13T07:17:59Z</time>
      </trkpt>
      <trkpt lat="49.81929" lon="2.26563">
        <ele>113</ele>
        <time>2023-09-13T07:18:01Z</time>
      </trkpt>
      <trkpt lat="49.8193" lon="2.26561">
        <ele>113</ele>
        <time>2023-09-13T07:18:02Z</time>
      </trkpt>
      <trkpt lat="49.81931" lon="2.2656">
        <ele>113.1</ele>
        <time>2023-09-13T07:18:03Z</time>
      </trkpt>
      <trkpt lat="49.81932" lon="2.26559">
        <ele>113.1</ele>
        <time>2023-09-13T07:18:04Z</time>
      </trkpt>
      <trkpt lat="49.81933" lon="2.26558">
        <ele>113.1</ele>
        <time>2023-09-13T07:18:05Z</time>
      </trkpt>
      <trkpt lat="49.81934" lon="2.26556">
        <ele>113.1</ele>
        <time>2023-09-13T07:18:06Z</time>
      </trkpt>
      <trkpt lat="49.81935" lon="2.26555">
        <ele>113.1</ele>
        <time>2023-09-13T07:18:07Z</time>
      </trkpt>
      <trkpt lat="49.81936" lon="2.26554">
        <ele>113.1</ele>
        <time>2023-09-13T07:18:08Z</time>
      </trkpt>
      <trkpt lat="49.81937" lon="2.26551">
        <ele>113.1</ele>
        <time>2023-09-13T07:18:10Z</time>
      </trkpt>
      <trkpt lat="49.81937" lon="2.2655">
        <ele>113.1</ele>
        <time>2023-09-13T07:18:11Z</time>
      </trkpt>
      <trkpt lat="49.81938" lon="2.26548">
        <ele>113.1</ele>
        <time>2023-09-13T07:18:12Z</time>
      </trkpt>
      <trkpt lat="49.81939" lon="2.26546">
        <ele>113.2</ele>
        <time>2023-09-13T07:18:13Z</time>
      </trkpt>
      <trkpt lat="49.8194" lon="2.26543">
        <ele>113.2</ele>
        <time>2023-09-13T07:18:14Z</time>
      </trkpt>
      <trkpt lat="49.8194" lon="2.26542">
        <ele>113.2</ele>
        <time>2023-09-13T07:18:15Z</time>
      </trkpt>
      <trkpt lat="49.81941" lon="2.26541">
        <ele>113.2</ele>
        <time>2023-09-13T07:18:16Z</time>
      </trkpt>
      <trkpt lat="49.81942" lon="2.26538">
        <ele>113.2</ele>
        <time>2023-09-13T07:18:18Z</time>
      </trkpt>
      <trkpt lat="49.81943" lon="2.26537">
        <ele>113.2</ele>
        <time>2023-09-13T07:18:19Z</time>
      </trkpt>
      <trkpt lat="49.81943" lon="2.26536">
        <ele>113.2</ele>
        <time>2023-09-13T07:18:20Z</time>
      </trkpt>
      <trkpt lat="49.81944" lon="2.26533">
        <ele>113.2</ele>
        <time>2023-09-13T07:18:21Z</time>
      </trkpt>
      <trkpt lat="49.81945" lon="2.26532">
        <ele>113.2</ele>
        <time>2023-09-13T07:18:22Z</time>
      </trkpt>
      <trkpt lat="49.81945" lon="2.26531">
        <ele>113.2</ele>
        <time>2023-09-13T07:18:23Z</time>
      </trkpt>
      <trkpt lat="49.81946" lon="2.26529">
        <ele>113.2</ele>
        <time>2023-09-13T07:18:24Z</time>
      </trkpt>
      <trkpt lat="49.81947" lon="2.26527">
        <ele>113.2</ele>
        <time>2023-09-13T07:18:26Z</time>
      </trkpt>
      <trkpt lat="49.81948" lon="2.26524">
        <ele>113.2</ele>
        <time>2023-09-13T07:18:28Z</time>
      </trkpt>
      <trkpt lat="49.81949" lon="2.26522">
        <ele>113.3</ele>
        <time>2023-09-13T07:18:29Z</time>
      </trkpt>
      <trkpt lat="49.8195" lon="2.2652">
        <ele>113.3</ele>
        <time>2023-09-13T07:18:30Z</time>
      </trkpt>
      <trkpt lat="49.81951" lon="2.26519">
        <ele>113.3</ele>
        <time>2023-09-13T07:18:31Z</time>
      </trkpt>
      <trkpt lat="49.81951" lon="2.26518">
        <ele>113.3</ele>
        <time>2023-09-13T07:18:32Z</time>
      </trkpt>
      <trkpt lat="49.81953" lon="2.26515">
        <ele>113.3</ele>
        <time>2023-09-13T07:18:33Z</time>
      </trkpt>
      <trkpt lat="49.81953" lon="2.26514">
        <ele>113.3</ele>
        <time>2023-09-13T07:18:34Z</time>
      </trkpt>
      <trkpt lat="49.81954" lon="2.26513">
        <ele>113.3</ele>
        <time>2023-09-13T07:18:35Z</time>
      </trkpt>
      <trkpt lat="49.81955" lon="2.26511">
        <ele>113.3</ele>
        <time>2023-09-13T07:18:36Z</time>
      </trkpt>
      <trkpt lat="49.81956" lon="2.2651">
        <ele>113.3</ele>
        <time>2023-09-13T07:18:38Z</time>
      </trkpt>
      <trkpt lat="49.81956" lon="2.26509">
        <ele>113.4</ele>
        <time>2023-09-13T07:18:39Z</time>
      </trkpt>
      <trkpt lat="49.81958" lon="2.26507">
        <ele>113.4</ele>
        <time>2023-09-13T07:18:40Z</time>
      </trkpt>
      <trkpt lat="49.81958" lon="2.26506">
        <ele>113.4</ele>
        <time>2023-09-13T07:18:41Z</time>
      </trkpt>
      <trkpt lat="49.81959" lon="2.26505">
        <ele>113.4</ele>
        <time>2023-09-13T07:18:42Z</time>
      </trkpt>
      <trkpt lat="49.8196" lon="2.26502">
        <ele>113.4</ele>
        <time>2023-09-13T07:18:43Z</time>
      </trkpt>
      <trkpt lat="49.81961" lon="2.26501">
        <ele>113.4</ele>
        <time>2023-09-13T07:18:44Z</time>
      </trkpt>
      <trkpt lat="49.81961" lon="2.265">
        <ele>113.4</ele>
        <time>2023-09-13T07:18:45Z</time>
      </trkpt>
      <trkpt lat="49.81962" lon="2.26498">
        <ele>113.4</ele>
        <time>2023-09-13T07:18:46Z</time>
      </trkpt>
      <trkpt lat="49.81963" lon="2.26497">
        <ele>113.4</ele>
        <time>2023-09-13T07:18:48Z</time>
      </trkpt>
      <trkpt lat="49.81963" lon="2.26496">
        <ele>113.4</ele>
        <time>2023-09-13T07:18:49Z</time>
      </trkpt>
      <trkpt lat="49.81964" lon="2.26493">
        <ele>113.4</ele>
        <time>2023-09-13T07:18:50Z</time>
      </trkpt>
      <trkpt lat="49.81965" lon="2.26492">
        <ele>113.4</ele>
        <time>2023-09-13T07:18:51Z</time>
      </trkpt>
      <trkpt lat="49.81966" lon="2.26491">
        <ele>113.4</ele>
        <time>2023-09-13T07:18:52Z</time>
      </trkpt>
      <trkpt lat="49.81966" lon="2.2649">
        <ele>113.5</ele>
        <time>2023-09-13T07:18:53Z</time>
      </trkpt>
      <trkpt lat="49.81967" lon="2.26488">
        <ele>113.5</ele>
        <time>2023-09-13T07:18:54Z</time>
      </trkpt>
      <trkpt lat="49.81969" lon="2.26485">
        <ele>113.5</ele>
        <time>2023-09-13T07:18:55Z</time>
      </trkpt>
      <trkpt lat="49.81969" lon="2.26484">
        <ele>113.5</ele>
        <time>2023-09-13T07:18:56Z</time>
      </trkpt>
      <trkpt lat="49.8197" lon="2.26483">
        <ele>113.5</ele>
        <time>2023-09-13T07:18:58Z</time>
      </trkpt>
      <trkpt lat="49.81971" lon="2.26482">
        <ele>113.5</ele>
        <time>2023-09-13T07:18:59Z</time>
      </trkpt>
      <trkpt lat="49.81971" lon="2.2648">
        <ele>113.5</ele>
        <time>2023-09-13T07:19:00Z</time>
      </trkpt>
      <trkpt lat="49.81972" lon="2.26479">
        <ele>113.5</ele>
        <time>2023-09-13T07:19:01Z</time>
      </trkpt>
      <trkpt lat="49.81973" lon="2.26476">
        <ele>113.5</ele>
        <time>2023-09-13T07:19:02Z</time>
      </trkpt>
      <trkpt lat="49.81974" lon="2.26475">
        <ele>113.5</ele>
        <time>2023-09-13T07:19:03Z</time>
      </trkpt>
      <trkpt lat="49.81974" lon="2.26474">
        <ele>113.5</ele>
        <time>2023-09-13T07:19:04Z</time>
      </trkpt>
      <trkpt lat="49.81975" lon="2.26473">
        <ele>113.6</ele>
        <time>2023-09-13T07:19:05Z</time>
      </trkpt>
      <trkpt lat="49.81976" lon="2.26471">
        <ele>113.6</ele>
        <time>2023-09-13T07:19:06Z</time>
      </trkpt>
      <trkpt lat="49.81977" lon="2.2647">
        <ele>113.6</ele>
        <time>2023-09-13T07:19:08Z</time>
      </trkpt>
      <trkpt lat="49.81978" lon="2.26469">
        <ele>113.6</ele>
        <time>2023-09-13T07:19:09Z</time>
      </trkpt>
      <trkpt lat="49.81979" lon="2.26468">
        <ele>113.6</ele>
        <time>2023-09-13T07:19:10Z</time>
      </trkpt>
      <trkpt lat="49.81979" lon="2.26466">
        <ele>113.6</ele>
        <time>2023-09-13T07:19:11Z</time>
      </trkpt>
      <trkpt lat="49.8198" lon="2.26463">
        <ele>113.7</ele>
        <time>2023-09-13T07:19:12Z</time>
      </trkpt>
      <trkpt lat="49.81981" lon="2.26462">
        <ele>113.7</ele>
        <time>2023-09-13T07:19:13Z</time>
      </trkpt>
      <trkpt lat="49.81981" lon="2.26461">
        <ele>113.7</ele>
        <time>2023-09-13T07:19:14Z</time>
      </trkpt>
      <trkpt lat="49.81981" lon="2.26458">
        <ele>113.7</ele>
        <time>2023-09-13T07:19:15Z</time>
      </trkpt>
      <trkpt lat="49.81982" lon="2.26457">
        <ele>113.7</ele>
        <time>2023-09-13T07:19:16Z</time>
      </trkpt>
      <trkpt lat="49.81982" lon="2.26455">
        <ele>113.7</ele>
        <time>2023-09-13T07:19:18Z</time>
      </trkpt>
      <trkpt lat="49.81983" lon="2.26452">
        <ele>113.7</ele>
        <time>2023-09-13T07:19:19Z</time>
      </trkpt>
      <trkpt lat="49.81983" lon="2.26451">
        <ele>113.8</ele>
        <time>2023-09-13T07:19:20Z</time>
      </trkpt>
      <trkpt lat="49.81984" lon="2.2645">
        <ele>113.8</ele>
        <time>2023-09-13T07:19:21Z</time>
      </trkpt>
      <trkpt lat="49.81985" lon="2.26447">
        <ele>113.8</ele>
        <time>2023-09-13T07:19:23Z</time>
      </trkpt>
      <trkpt lat="49.81986" lon="2.26446">
        <ele>113.8</ele>
        <time>2023-09-13T07:19:24Z</time>
      </trkpt>
      <trkpt lat="49.81987" lon="2.26444">
        <ele>113.8</ele>
        <time>2023-09-13T07:19:25Z</time>
      </trkpt>
      <trkpt lat="49.81987" lon="2.26443">
        <ele>113.8</ele>
        <time>2023-09-13T07:19:26Z</time>
      </trkpt>
      <trkpt lat="49.81988" lon="2.26441">
        <ele>113.8</ele>
        <time>2023-09-13T07:19:27Z</time>
      </trkpt>
      <trkpt lat="49.81989" lon="2.2644">
        <ele>113.8</ele>
        <time>2023-09-13T07:19:28Z</time>
      </trkpt>
      <trkpt lat="49.81989" lon="2.26438">
        <ele>113.9</ele>
        <time>2023-09-13T07:19:29Z</time>
      </trkpt>
      <trkpt lat="49.81989" lon="2.26436">
        <ele>113.9</ele>
        <time>2023-09-13T07:19:30Z</time>
      </trkpt>
      <trkpt lat="49.8199" lon="2.26434">
        <ele>113.9</ele>
        <time>2023-09-13T07:19:32Z</time>
      </trkpt>
      <trkpt lat="49.8199" lon="2.26433">
        <ele>113.9</ele>
        <time>2023-09-13T07:19:33Z</time>
      </trkpt>
      <trkpt lat="49.81991" lon="2.26431">
        <ele>113.9</ele>
        <time>2023-09-13T07:19:34Z</time>
      </trkpt>
      <trkpt lat="49.81991" lon="2.2643">
        <ele>113.9</ele>
        <time>2023-09-13T07:19:35Z</time>
      </trkpt>
      <trkpt lat="49.81992" lon="2.26428">
        <ele>113.9</ele>
        <time>2023-09-13T07:19:37Z</time>
      </trkpt>
      <trkpt lat="49.81992" lon="2.26428">
        <ele>113.9</ele>
        <time>2023-09-13T07:19:38Z</time>
      </trkpt>
      <trkpt lat="49.81992" lon="2.26428">
        <ele>113.9</ele>
        <time>2023-09-13T07:19:40Z</time>
      </trkpt>
      <trkpt lat="49.81992" lon="2.26428">
        <ele>113.9</ele>
        <time>2023-09-13T07:19:41Z</time>
      </trkpt>
      <trkpt lat="49.81992" lon="2.26428">
        <ele>113.9</ele>
        <time>2023-09-13T07:19:42Z</time>
      </trkpt>
      <trkpt lat="49.81992" lon="2.26428">
        <ele>113.9</ele>
        <time>2023-09-13T07:19:43Z</time>
      </trkpt>
      <trkpt lat="49.81992" lon="2.26428">
        <ele>113.9</ele>
        <time>2023-09-13T07:19:45Z</time>
      </trkpt>
      <trkpt lat="49.81992" lon="2.26428">
        <ele>113.9</ele>
        <time>2023-09-13T07:19:46Z</time>
      </trkpt>
      <trkpt lat="49.81992" lon="2.26429">
        <ele>113.9</ele>
        <time>2023-09-13T07:19:47Z</time>
      </trkpt>
      <trkpt lat="49.81992" lon="2.26429">
        <ele>113.9</ele>
        <time>2023-09-13T07:19:48Z</time>
      </trkpt>
      <trkpt lat="49.81992" lon="2.26429">
        <ele>113.9</ele>
        <time>2023-09-13T07:19:50Z</time>
      </trkpt>
      <trkpt lat="49.81992" lon="2.26429">
        <ele>113.9</ele>
        <time>2023-09-13T07:19:51Z</time>
      </trkpt>
      <trkpt lat="49.81992" lon="2.26429">
        <ele>113.9</ele>
        <time>2023-09-13T07:19:53Z</time>
      </trkpt>
      <trkpt lat="49.81991" lon="2.2643">
        <ele>113.9</ele>
        <time>2023-09-13T07:19:54Z</time>
      </trkpt>
      <trkpt lat="49.81991" lon="2.2643">
        <ele>114</ele>
        <time>2023-09-13T07:19:55Z</time>
      </trkpt>
      <trkpt lat="49.81991" lon="2.2643">
        <ele>114</ele>
        <time>2023-09-13T07:19:56Z</time>
      </trkpt>
      <trkpt lat="49.81991" lon="2.2643">
        <ele>114</ele>
        <time>2023-09-13T07:19:57Z</time>
      </trkpt>
      <trkpt lat="49.81991" lon="2.2643">
        <ele>114</ele>
        <time>2023-09-13T07:19:58Z</time>
      </trkpt>
      <trkpt lat="49.81991" lon="2.2643">
        <ele>114</ele>
        <time>2023-09-13T07:19:59Z</time>
      </trkpt>
      <trkpt lat="49.81991" lon="2.2643">
        <ele>114</ele>
        <time>2023-09-13T07:20:00Z</time>
      </trkpt>
      <trkpt lat="49.81991" lon="2.2643">
        <ele>114</ele>
        <time>2023-09-13T07:20:01Z</time>
      </trkpt>
      <trkpt lat="49.81991" lon="2.2643">
        <ele>114</ele>
        <time>2023-09-13T07:20:02Z</time>
      </trkpt>
      <trkpt lat="49.81991" lon="2.2643">
        <ele>114</ele>
        <time>2023-09-13T07:20:03Z</time>
      </trkpt>
      <trkpt lat="49.81991" lon="2.2643">
        <ele>114</ele>
        <time>2023-09-13T07:20:04Z</time>
      </trkpt>
      <trkpt lat="49.81991" lon="2.2643">
        <ele>114</ele>
        <time>2023-09-13T07:20:05Z</time>
      </trkpt>
      <trkpt lat="49.81991" lon="2.2643">
        <ele>114</ele>
        <time>2023-09-13T07:20:06Z</time>
      </trkpt>
      <trkpt lat="49.81991" lon="2.2643">
        <ele>114</ele>
        <time>2023-09-13T07:20:07Z</time>
      </trkpt>
      <trkpt lat="49.81991" lon="2.2643">
        <ele>114</ele>
        <time>2023-09-13T07:20:08Z</time>
      </trkpt>
      <trkpt lat="49.81991" lon="2.2643">
        <ele>114</ele>
        <time>2023-09-13T07:20:09Z</time>
      </trkpt>
      <trkpt lat="49.81991" lon="2.2643">
        <ele>114</ele>
        <time>2023-09-13T07:20:10Z</time>
      </trkpt>
      <trkpt lat="49.81991" lon="2.2643">
        <ele>114</ele>
        <time>2023-09-13T07:20:11Z</time>
      </trkpt>
      <trkpt lat="49.81991" lon="2.2643">
        <ele>114</ele>
        <time>2023-09-13T07:20:12Z</time>
      </trkpt>
      <trkpt lat="49.81991" lon="2.2643">
        <ele>114</ele>
        <time>2023-09-13T07:20:13Z</time>
      </trkpt>
      <trkpt lat="49.81991" lon="2.2643">
        <ele>114</ele>
        <time>2023-09-13T07:20:14Z</time>
      </trkpt>
      <trkpt lat="49.81991" lon="2.2643">
        <ele>114</ele>
        <time>2023-09-13T07:20:15Z</time>
      </trkpt>
      <trkpt lat="49.81991" lon="2.2643">
        <ele>114</ele>
        <time>2023-09-13T07:20:16Z</time>
      </trkpt>
      <trkpt lat="49.81991" lon="2.2643">
        <ele>114</ele>
        <time>2023-09-13T07:20:17Z</time>
      </trkpt>
      <trkpt lat="49.8199" lon="2.26431">
        <ele>114</ele>
        <time>2023-09-13T07:20:18Z</time>
      </trkpt>
      <trkpt lat="49.8199" lon="2.2643">
        <ele>114</ele>
        <time>2023-09-13T07:20:19Z</time>
      </trkpt>
      <trkpt lat="49.8199" lon="2.26429">
        <ele>114</ele>
        <time>2023-09-13T07:20:20Z</time>
      </trkpt>
      <trkpt lat="49.8199" lon="2.26428">
        <ele>114</ele>
        <time>2023-09-13T07:20:21Z</time>
      </trkpt>
      <trkpt lat="49.8199" lon="2.26427">
        <ele>114</ele>
        <time>2023-09-13T07:20:22Z</time>
      </trkpt>
      <trkpt lat="49.8199" lon="2.26426">
        <ele>114</ele>
        <time>2023-09-13T07:20:23Z</time>
      </trkpt>
      <trkpt lat="49.81989" lon="2.26425">
        <ele>114</ele>
        <time>2023-09-13T07:20:24Z</time>
      </trkpt>
      <trkpt lat="49.81991" lon="2.26419">
        <ele>113.9</ele>
        <time>2023-09-13T07:20:26Z</time>
      </trkpt>
      <trkpt lat="49.81992" lon="2.26417">
        <ele>113.9</ele>
        <time>2023-09-13T07:20:27Z</time>
      </trkpt>
      <trkpt lat="49.81992" lon="2.26415">
        <ele>113.9</ele>
        <time>2023-09-13T07:20:28Z</time>
      </trkpt>
      <trkpt lat="49.81994" lon="2.2641">
        <ele>113.8</ele>
        <time>2023-09-13T07:20:29Z</time>
      </trkpt>
      <trkpt lat="49.81994" lon="2.26409">
        <ele>113.8</ele>
        <time>2023-09-13T07:20:30Z</time>
      </trkpt>
      <trkpt lat="49.81995" lon="2.26404">
        <ele>113.7</ele>
        <time>2023-09-13T07:20:31Z</time>
      </trkpt>
      <trkpt lat="49.81995" lon="2.26403">
        <ele>113.7</ele>
        <time>2023-09-13T07:20:32Z</time>
      </trkpt>
      <trkpt lat="49.81995" lon="2.26401">
        <ele>113.7</ele>
        <time>2023-09-13T07:20:33Z</time>
      </trkpt>
      <trkpt lat="49.81996" lon="2.26398">
        <ele>113.6</ele>
        <time>2023-09-13T07:20:35Z</time>
      </trkpt>
      <trkpt lat="49.81997" lon="2.26397">
        <ele>113.6</ele>
        <time>2023-09-13T07:20:36Z</time>
      </trkpt>
      <trkpt lat="49.81998" lon="2.26395">
        <ele>113.6</ele>
        <time>2023-09-13T07:20:37Z</time>
      </trkpt>
      <trkpt lat="49.82" lon="2.26393">
        <ele>113.6</ele>
        <time>2023-09-13T07:20:38Z</time>
      </trkpt>
      <trkpt lat="49.82001" lon="2.26392">
        <ele>113.6</ele>
        <time>2023-09-13T07:20:39Z</time>
      </trkpt>
      <trkpt lat="49.82002" lon="2.2639">
        <ele>113.5</ele>
        <time>2023-09-13T07:20:40Z</time>
      </trkpt>
      <trkpt lat="49.82003" lon="2.26389">
        <ele>113.5</ele>
        <time>2023-09-13T07:20:41Z</time>
      </trkpt>
      <trkpt lat="49.82004" lon="2.26387">
        <ele>113.5</ele>
        <time>2023-09-13T07:20:42Z</time>
      </trkpt>
      <trkpt lat="49.82004" lon="2.26385">
        <ele>113.5</ele>
        <time>2023-09-13T07:20:43Z</time>
      </trkpt>
      <trkpt lat="49.82005" lon="2.26383">
        <ele>113.5</ele>
        <time>2023-09-13T07:20:45Z</time>
      </trkpt>
      <trkpt lat="49.82006" lon="2.26381">
        <ele>113.5</ele>
        <time>2023-09-13T07:20:46Z</time>
      </trkpt>
      <trkpt lat="49.82006" lon="2.26379">
        <ele>113.4</ele>
        <time>2023-09-13T07:20:47Z</time>
      </trkpt>
      <trkpt lat="49.82008" lon="2.26377">
        <ele>113.4</ele>
        <time>2023-09-13T07:20:48Z</time>
      </trkpt>
      <trkpt lat="49.82009" lon="2.26376">
        <ele>113.4</ele>
        <time>2023-09-13T07:20:49Z</time>
      </trkpt>
      <trkpt lat="49.8201" lon="2.26375">
        <ele>113.4</ele>
        <time>2023-09-13T07:20:50Z</time>
      </trkpt>
      <trkpt lat="49.82013" lon="2.26373">
        <ele>113.4</ele>
        <time>2023-09-13T07:20:51Z</time>
      </trkpt>
      <trkpt lat="49.82013" lon="2.26372">
        <ele>113.4</ele>
        <time>2023-09-13T07:20:53Z</time>
      </trkpt>
      <trkpt lat="49.82014" lon="2.26371">
        <ele>113.4</ele>
        <time>2023-09-13T07:20:54Z</time>
      </trkpt>
      <trkpt lat="49.82015" lon="2.2637">
        <ele>113.3</ele>
        <time>2023-09-13T07:20:55Z</time>
      </trkpt>
      <trkpt lat="49.82016" lon="2.26369">
        <ele>113.3</ele>
        <time>2023-09-13T07:20:56Z</time>
      </trkpt>
      <trkpt lat="49.82017" lon="2.26367">
        <ele>113.3</ele>
        <time>2023-09-13T07:20:57Z</time>
      </trkpt>
      <trkpt lat="49.82019" lon="2.26365">
        <ele>113.3</ele>
        <time>2023-09-13T07:20:59Z</time>
      </trkpt>
      <trkpt lat="49.8202" lon="2.26363">
        <ele>113.3</ele>
        <time>2023-09-13T07:21:00Z</time>
      </trkpt>
      <trkpt lat="49.8202" lon="2.26361">
        <ele>113.3</ele>
        <time>2023-09-13T07:21:01Z</time>
      </trkpt>
      <trkpt lat="49.82022" lon="2.26358">
        <ele>113.3</ele>
        <time>2023-09-13T07:21:02Z</time>
      </trkpt>
      <trkpt lat="49.82022" lon="2.26357">
        <ele>113.3</ele>
        <time>2023-09-13T07:21:03Z</time>
      </trkpt>
      <trkpt lat="49.82023" lon="2.26356">
        <ele>113.3</ele>
        <time>2023-09-13T07:21:04Z</time>
      </trkpt>
      <trkpt lat="49.82024" lon="2.26354">
        <ele>113.3</ele>
        <time>2023-09-13T07:21:05Z</time>
      </trkpt>
      <trkpt lat="49.82024" lon="2.26352">
        <ele>113.3</ele>
        <time>2023-09-13T07:21:06Z</time>
      </trkpt>
      <trkpt lat="49.82025" lon="2.26351">
        <ele>113.2</ele>
        <time>2023-09-13T07:21:08Z</time>
      </trkpt>
      <trkpt lat="49.82026" lon="2.26349">
        <ele>113.2</ele>
        <time>2023-09-13T07:21:09Z</time>
      </trkpt>
      <trkpt lat="49.82027" lon="2.26347">
        <ele>113.2</ele>
        <time>2023-09-13T07:21:10Z</time>
      </trkpt>
      <trkpt lat="49.82028" lon="2.26345">
        <ele>113.2</ele>
        <time>2023-09-13T07:21:11Z</time>
      </trkpt>
      <trkpt lat="49.82029" lon="2.26343">
        <ele>113.2</ele>
        <time>2023-09-13T07:21:12Z</time>
      </trkpt>
      <trkpt lat="49.8203" lon="2.26342">
        <ele>113.2</ele>
        <time>2023-09-13T07:21:13Z</time>
      </trkpt>
      <trkpt lat="49.82031" lon="2.26339">
        <ele>113.2</ele>
        <time>2023-09-13T07:21:14Z</time>
      </trkpt>
      <trkpt lat="49.82032" lon="2.26337">
        <ele>113.2</ele>
        <time>2023-09-13T07:21:15Z</time>
      </trkpt>
      <trkpt lat="49.82032" lon="2.26336">
        <ele>113.2</ele>
        <time>2023-09-13T07:21:16Z</time>
      </trkpt>
      <trkpt lat="49.82033" lon="2.26334">
        <ele>113.2</ele>
        <time>2023-09-13T07:21:17Z</time>
      </trkpt>
      <trkpt lat="49.82033" lon="2.26332">
        <ele>113.1</ele>
        <time>2023-09-13T07:21:18Z</time>
      </trkpt>
      <trkpt lat="49.82034" lon="2.2633">
        <ele>113.1</ele>
        <time>2023-09-13T07:21:20Z</time>
      </trkpt>
      <trkpt lat="49.82035" lon="2.26328">
        <ele>113.1</ele>
        <time>2023-09-13T07:21:21Z</time>
      </trkpt>
      <trkpt lat="49.82036" lon="2.26326">
        <ele>113.1</ele>
        <time>2023-09-13T07:21:22Z</time>
      </trkpt>
      <trkpt lat="49.82036" lon="2.26324">
        <ele>113.1</ele>
        <time>2023-09-13T07:21:23Z</time>
      </trkpt>
      <trkpt lat="49.82037" lon="2.26321">
        <ele>113.1</ele>
        <time>2023-09-13T07:21:24Z</time>
      </trkpt>
      <trkpt lat="49.82037" lon="2.2632">
        <ele>113.1</ele>
        <time>2023-09-13T07:21:25Z</time>
      </trkpt>
      <trkpt lat="49.82038" lon="2.26319">
        <ele>113.1</ele>
        <time>2023-09-13T07:21:26Z</time>
      </trkpt>
      <trkpt lat="49.82039" lon="2.26316">
        <ele>113.1</ele>
        <time>2023-09-13T07:21:27Z</time>
      </trkpt>
      <trkpt lat="49.82039" lon="2.26315">
        <ele>113.1</ele>
        <time>2023-09-13T07:21:29Z</time>
      </trkpt>
      <trkpt lat="49.8204" lon="2.26313">
        <ele>113.1</ele>
        <time>2023-09-13T07:21:30Z</time>
      </trkpt>
      <trkpt lat="49.82041" lon="2.2631">
        <ele>113.1</ele>
        <time>2023-09-13T07:21:31Z</time>
      </trkpt>
      <trkpt lat="49.82041" lon="2.26309">
        <ele>113.1</ele>
        <time>2023-09-13T07:21:32Z</time>
      </trkpt>
      <trkpt lat="49.82042" lon="2.26308">
        <ele>113.1</ele>
        <time>2023-09-13T07:21:33Z</time>
      </trkpt>
      <trkpt lat="49.82043" lon="2.26307">
        <ele>113.1</ele>
        <time>2023-09-13T07:21:34Z</time>
      </trkpt>
      <trkpt lat="49.82044" lon="2.26305">
        <ele>113</ele>
        <time>2023-09-13T07:21:35Z</time>
      </trkpt>
      <trkpt lat="49.82045" lon="2.26303">
        <ele>113</ele>
        <time>2023-09-13T07:21:36Z</time>
      </trkpt>
      <trkpt lat="49.82046" lon="2.26302">
        <ele>113</ele>
        <time>2023-09-13T07:21:37Z</time>
      </trkpt>
      <trkpt lat="49.82047" lon="2.263">
        <ele>113</ele>
        <time>2023-09-13T07:21:38Z</time>
      </trkpt>
      <trkpt lat="49.82048" lon="2.26299">
        <ele>113</ele>
        <time>2023-09-13T07:21:40Z</time>
      </trkpt>
      <trkpt lat="49.82049" lon="2.26297">
        <ele>113</ele>
        <time>2023-09-13T07:21:41Z</time>
      </trkpt>
      <trkpt lat="49.8205" lon="2.26296">
        <ele>113</ele>
        <time>2023-09-13T07:21:42Z</time>
      </trkpt>
      <trkpt lat="49.82051" lon="2.26293">
        <ele>113</ele>
        <time>2023-09-13T07:21:43Z</time>
      </trkpt>
      <trkpt lat="49.82052" lon="2.26292">
        <ele>113</ele>
        <time>2023-09-13T07:21:44Z</time>
      </trkpt>
      <trkpt lat="49.82052" lon="2.26291">
        <ele>113</ele>
        <time>2023-09-13T07:21:45Z</time>
      </trkpt>
      <trkpt lat="49.82053" lon="2.2629">
        <ele>113</ele>
        <time>2023-09-13T07:21:46Z</time>
      </trkpt>
      <trkpt lat="49.82055" lon="2.26289">
        <ele>113</ele>
        <time>2023-09-13T07:21:48Z</time>
      </trkpt>
      <trkpt lat="49.82056" lon="2.26287">
        <ele>113</ele>
        <time>2023-09-13T07:21:49Z</time>
      </trkpt>
      <trkpt lat="49.82056" lon="2.26286">
        <ele>113</ele>
        <time>2023-09-13T07:21:50Z</time>
      </trkpt>
      <trkpt lat="49.82057" lon="2.26285">
        <ele>112.9</ele>
        <time>2023-09-13T07:21:51Z</time>
      </trkpt>
      <trkpt lat="49.82059" lon="2.26283">
        <ele>112.9</ele>
        <time>2023-09-13T07:21:52Z</time>
      </trkpt>
      <trkpt lat="49.8206" lon="2.26282">
        <ele>112.9</ele>
        <time>2023-09-13T07:21:53Z</time>
      </trkpt>
      <trkpt lat="49.8206" lon="2.26281">
        <ele>112.9</ele>
        <time>2023-09-13T07:21:54Z</time>
      </trkpt>
      <trkpt lat="49.82061" lon="2.2628">
        <ele>112.9</ele>
        <time>2023-09-13T07:21:56Z</time>
      </trkpt>
      <trkpt lat="49.82063" lon="2.26278">
        <ele>112.9</ele>
        <time>2023-09-13T07:21:57Z</time>
      </trkpt>
      <trkpt lat="49.82064" lon="2.26277">
        <ele>112.9</ele>
        <time>2023-09-13T07:21:58Z</time>
      </trkpt>
      <trkpt lat="49.82065" lon="2.26275">
        <ele>112.8</ele>
        <time>2023-09-13T07:21:59Z</time>
      </trkpt>
      <trkpt lat="49.82067" lon="2.26273">
        <ele>112.8</ele>
        <time>2023-09-13T07:22:00Z</time>
      </trkpt>
      <trkpt lat="49.82067" lon="2.26272">
        <ele>112.8</ele>
        <time>2023-09-13T07:22:01Z</time>
      </trkpt>
      <trkpt lat="49.82068" lon="2.26271">
        <ele>112.8</ele>
        <time>2023-09-13T07:22:02Z</time>
      </trkpt>
      <trkpt lat="49.8207" lon="2.26269">
        <ele>112.7</ele>
        <time>2023-09-13T07:22:03Z</time>
      </trkpt>
      <trkpt lat="49.8207" lon="2.26268">
        <ele>112.7</ele>
        <time>2023-09-13T07:22:05Z</time>
      </trkpt>
      <trkpt lat="49.82071" lon="2.26267">
        <ele>112.7</ele>
        <time>2023-09-13T07:22:06Z</time>
      </trkpt>
      <trkpt lat="49.82073" lon="2.26265">
        <ele>112.7</ele>
        <time>2023-09-13T07:22:07Z</time>
      </trkpt>
      <trkpt lat="49.82074" lon="2.26265">
        <ele>112.7</ele>
        <time>2023-09-13T07:22:08Z</time>
      </trkpt>
      <trkpt lat="49.82075" lon="2.26264">
        <ele>112.6</ele>
        <time>2023-09-13T07:22:09Z</time>
      </trkpt>
      <trkpt lat="49.82076" lon="2.26262">
        <ele>112.6</ele>
        <time>2023-09-13T07:22:10Z</time>
      </trkpt>
      <trkpt lat="49.82077" lon="2.26262">
        <ele>112.6</ele>
        <time>2023-09-13T07:22:11Z</time>
      </trkpt>
      <trkpt lat="49.82078" lon="2.26261">
        <ele>112.5</ele>
        <time>2023-09-13T07:22:12Z</time>
      </trkpt>
      <trkpt lat="49.82079" lon="2.2626">
        <ele>112.5</ele>
        <time>2023-09-13T07:22:13Z</time>
      </trkpt>
      <trkpt lat="49.8208" lon="2.26259">
        <ele>112.4</ele>
        <time>2023-09-13T07:22:14Z</time>
      </trkpt>
      <trkpt lat="49.82081" lon="2.26257">
        <ele>112.4</ele>
        <time>2023-09-13T07:22:15Z</time>
      </trkpt>
      <trkpt lat="49.82082" lon="2.26256">
        <ele>112.3</ele>
        <time>2023-09-13T07:22:16Z</time>
      </trkpt>
      <trkpt lat="49.82084" lon="2.26253">
        <ele>112.3</ele>
        <time>2023-09-13T07:22:17Z</time>
      </trkpt>
      <trkpt lat="49.82085" lon="2.26252">
        <ele>112.2</ele>
        <time>2023-09-13T07:22:19Z</time>
      </trkpt>
      <trkpt lat="49.82086" lon="2.26251">
        <ele>112.2</ele>
        <time>2023-09-13T07:22:20Z</time>
      </trkpt>
      <trkpt lat="49.82087" lon="2.2625">
        <ele>112.2</ele>
        <time>2023-09-13T07:22:21Z</time>
      </trkpt>
      <trkpt lat="49.82088" lon="2.26249">
        <ele>112.1</ele>
        <time>2023-09-13T07:22:22Z</time>
      </trkpt>
      <trkpt lat="49.82089" lon="2.26248">
        <ele>112.1</ele>
        <time>2023-09-13T07:22:23Z</time>
      </trkpt>
      <trkpt lat="49.82091" lon="2.26248">
        <ele>112</ele>
        <time>2023-09-13T07:22:24Z</time>
      </trkpt>
      <trkpt lat="49.82092" lon="2.26247">
        <ele>112</ele>
        <time>2023-09-13T07:22:25Z</time>
      </trkpt>
      <trkpt lat="49.82093" lon="2.26246">
        <ele>112</ele>
        <time>2023-09-13T07:22:26Z</time>
      </trkpt>
      <trkpt lat="49.82095" lon="2.26246">
        <ele>111.9</ele>
        <time>2023-09-13T07:22:28Z</time>
      </trkpt>
      <trkpt lat="49.82096" lon="2.26245">
        <ele>111.9</ele>
        <time>2023-09-13T07:22:29Z</time>
      </trkpt>
      <trkpt lat="49.82097" lon="2.26244">
        <ele>111.8</ele>
        <time>2023-09-13T07:22:30Z</time>
      </trkpt>
      <trkpt lat="49.82098" lon="2.26243">
        <ele>111.8</ele>
        <time>2023-09-13T07:22:31Z</time>
      </trkpt>
      <trkpt lat="49.821" lon="2.26242">
        <ele>111.7</ele>
        <time>2023-09-13T07:22:32Z</time>
      </trkpt>
      <trkpt lat="49.82101" lon="2.26242">
        <ele>111.7</ele>
        <time>2023-09-13T07:22:33Z</time>
      </trkpt>
      <trkpt lat="49.82103" lon="2.26241">
        <ele>111.6</ele>
        <time>2023-09-13T07:22:34Z</time>
      </trkpt>
      <trkpt lat="49.82104" lon="2.2624">
        <ele>111.6</ele>
        <time>2023-09-13T07:22:35Z</time>
      </trkpt>
      <trkpt lat="49.82106" lon="2.26239">
        <ele>111.5</ele>
        <time>2023-09-13T07:22:37Z</time>
      </trkpt>
      <trkpt lat="49.82107" lon="2.26238">
        <ele>111.5</ele>
        <time>2023-09-13T07:22:38Z</time>
      </trkpt>
      <trkpt lat="49.82108" lon="2.26237">
        <ele>111.4</ele>
        <time>2023-09-13T07:22:39Z</time>
      </trkpt>
      <trkpt lat="49.8211" lon="2.26236">
        <ele>111.3</ele>
        <time>2023-09-13T07:22:40Z</time>
      </trkpt>
      <trkpt lat="49.82111" lon="2.26234">
        <ele>111.3</ele>
        <time>2023-09-13T07:22:41Z</time>
      </trkpt>
      <trkpt lat="49.82112" lon="2.26234">
        <ele>111.2</ele>
        <time>2023-09-13T07:22:42Z</time>
      </trkpt>
      <trkpt lat="49.82113" lon="2.26233">
        <ele>111.2</ele>
        <time>2023-09-13T07:22:43Z</time>
      </trkpt>
      <trkpt lat="49.82114" lon="2.26232">
        <ele>111.1</ele>
        <time>2023-09-13T07:22:44Z</time>
      </trkpt>
      <trkpt lat="49.82115" lon="2.26232">
        <ele>111.1</ele>
        <time>2023-09-13T07:22:45Z</time>
      </trkpt>
      <trkpt lat="49.82117" lon="2.26231">
        <ele>111</ele>
        <time>2023-09-13T07:22:47Z</time>
      </trkpt>
      <trkpt lat="49.82118" lon="2.26231">
        <ele>111</ele>
        <time>2023-09-13T07:22:48Z</time>
      </trkpt>
      <trkpt lat="49.82119" lon="2.2623">
        <ele>110.9</ele>
        <time>2023-09-13T07:22:49Z</time>
      </trkpt>
      <trkpt lat="49.8212" lon="2.2623">
        <ele>110.9</ele>
        <time>2023-09-13T07:22:50Z</time>
      </trkpt>
      <trkpt lat="49.82121" lon="2.26229">
        <ele>110.8</ele>
        <time>2023-09-13T07:22:51Z</time>
      </trkpt>
      <trkpt lat="49.82122" lon="2.26228">
        <ele>110.8</ele>
        <time>2023-09-13T07:22:52Z</time>
      </trkpt>
      <trkpt lat="49.82123" lon="2.26227">
        <ele>110.8</ele>
        <time>2023-09-13T07:22:53Z</time>
      </trkpt>
      <trkpt lat="49.82125" lon="2.26226">
        <ele>110.7</ele>
        <time>2023-09-13T07:22:54Z</time>
      </trkpt>
      <trkpt lat="49.82126" lon="2.26225">
        <ele>110.6</ele>
        <time>2023-09-13T07:22:56Z</time>
      </trkpt>
      <trkpt lat="49.82127" lon="2.26225">
        <ele>110.6</ele>
        <time>2023-09-13T07:22:57Z</time>
      </trkpt>
      <trkpt lat="49.82128" lon="2.26224">
        <ele>110.5</ele>
        <time>2023-09-13T07:22:58Z</time>
      </trkpt>
      <trkpt lat="49.82129" lon="2.26223">
        <ele>110.5</ele>
        <time>2023-09-13T07:22:59Z</time>
      </trkpt>
      <trkpt lat="49.82131" lon="2.26222">
        <ele>110.4</ele>
        <time>2023-09-13T07:23:00Z</time>
      </trkpt>
      <trkpt lat="49.82132" lon="2.26221">
        <ele>110.4</ele>
        <time>2023-09-13T07:23:01Z</time>
      </trkpt>
      <trkpt lat="49.82133" lon="2.2622">
        <ele>110.3</ele>
        <time>2023-09-13T07:23:02Z</time>
      </trkpt>
      <trkpt lat="49.82134" lon="2.26219">
        <ele>110.3</ele>
        <time>2023-09-13T07:23:03Z</time>
      </trkpt>
      <trkpt lat="49.82135" lon="2.26218">
        <ele>110.2</ele>
        <time>2023-09-13T07:23:04Z</time>
      </trkpt>
      <trkpt lat="49.82136" lon="2.26217">
        <ele>110.2</ele>
        <time>2023-09-13T07:23:06Z</time>
      </trkpt>
      <trkpt lat="49.82137" lon="2.26216">
        <ele>110.1</ele>
        <time>2023-09-13T07:23:07Z</time>
      </trkpt>
      <trkpt lat="49.82138" lon="2.26214">
        <ele>110</ele>
        <time>2023-09-13T07:23:08Z</time>
      </trkpt>
      <trkpt lat="49.8214" lon="2.26212">
        <ele>110</ele>
        <time>2023-09-13T07:23:09Z</time>
      </trkpt>
      <trkpt lat="49.82141" lon="2.2621">
        <ele>109.9</ele>
        <time>2023-09-13T07:23:10Z</time>
      </trkpt>
      <trkpt lat="49.82142" lon="2.26208">
        <ele>109.8</ele>
        <time>2023-09-13T07:23:12Z</time>
      </trkpt>
      <trkpt lat="49.82143" lon="2.26207">
        <ele>109.8</ele>
        <time>2023-09-13T07:23:13Z</time>
      </trkpt>
      <trkpt lat="49.82143" lon="2.26205">
        <ele>109.7</ele>
        <time>2023-09-13T07:23:14Z</time>
      </trkpt>
      <trkpt lat="49.82144" lon="2.26204">
        <ele>109.6</ele>
        <time>2023-09-13T07:23:15Z</time>
      </trkpt>
      <trkpt lat="49.82146" lon="2.26203">
        <ele>109.6</ele>
        <time>2023-09-13T07:23:16Z</time>
      </trkpt>
      <trkpt lat="49.82147" lon="2.26202">
        <ele>109.5</ele>
        <time>2023-09-13T07:23:18Z</time>
      </trkpt>
      <trkpt lat="49.82149" lon="2.26201">
        <ele>109.4</ele>
        <time>2023-09-13T07:23:19Z</time>
      </trkpt>
      <trkpt lat="49.8215" lon="2.262">
        <ele>109.4</ele>
        <time>2023-09-13T07:23:20Z</time>
      </trkpt>
      <trkpt lat="49.8215" lon="2.262">
        <ele>109.4</ele>
        <time>2023-09-13T07:23:21Z</time>
      </trkpt>
      <trkpt lat="49.82152" lon="2.26199">
        <ele>109.3</ele>
        <time>2023-09-13T07:23:22Z</time>
      </trkpt>
      <trkpt lat="49.82153" lon="2.26199">
        <ele>109.3</ele>
        <time>2023-09-13T07:23:23Z</time>
      </trkpt>
      <trkpt lat="49.82154" lon="2.26199">
        <ele>108.9</ele>
        <time>2023-09-13T07:23:24Z</time>
      </trkpt>
      <trkpt lat="49.82157" lon="2.26198">
        <ele>108.9</ele>
        <time>2023-09-13T07:23:25Z</time>
      </trkpt>
      <trkpt lat="49.82158" lon="2.26198">
        <ele>108.8</ele>
        <time>2023-09-13T07:23:27Z</time>
      </trkpt>
      <trkpt lat="49.82159" lon="2.26197">
        <ele>108.8</ele>
        <time>2023-09-13T07:23:29Z</time>
      </trkpt>
      <trkpt lat="49.82161" lon="2.26197">
        <ele>108.8</ele>
        <time>2023-09-13T07:23:30Z</time>
      </trkpt>
      <trkpt lat="49.82162" lon="2.26196">
        <ele>108.8</ele>
        <time>2023-09-13T07:23:31Z</time>
      </trkpt>
      <trkpt lat="49.82163" lon="2.26195">
        <ele>108.7</ele>
        <time>2023-09-13T07:23:32Z</time>
      </trkpt>
      <trkpt lat="49.82164" lon="2.26194">
        <ele>108.7</ele>
        <time>2023-09-13T07:23:33Z</time>
      </trkpt>
      <trkpt lat="49.82166" lon="2.26192">
        <ele>108.6</ele>
        <time>2023-09-13T07:23:34Z</time>
      </trkpt>
      <trkpt lat="49.82167" lon="2.26192">
        <ele>108.6</ele>
        <time>2023-09-13T07:23:36Z</time>
      </trkpt>
      <trkpt lat="49.82168" lon="2.26191">
        <ele>108.6</ele>
        <time>2023-09-13T07:23:37Z</time>
      </trkpt>
      <trkpt lat="49.82169" lon="2.2619">
        <ele>108.6</ele>
        <time>2023-09-13T07:23:38Z</time>
      </trkpt>
      <trkpt lat="49.8217" lon="2.2619">
        <ele>108.6</ele>
        <time>2023-09-13T07:23:39Z</time>
      </trkpt>
      <trkpt lat="49.82171" lon="2.26189">
        <ele>108.5</ele>
        <time>2023-09-13T07:23:40Z</time>
      </trkpt>
      <trkpt lat="49.82172" lon="2.26188">
        <ele>108.5</ele>
        <time>2023-09-13T07:23:41Z</time>
      </trkpt>
      <trkpt lat="49.82173" lon="2.26187">
        <ele>108.5</ele>
        <time>2023-09-13T07:23:42Z</time>
      </trkpt>
      <trkpt lat="49.82174" lon="2.26186">
        <ele>108.5</ele>
        <time>2023-09-13T07:23:43Z</time>
      </trkpt>
      <trkpt lat="49.82174" lon="2.26185">
        <ele>108.4</ele>
        <time>2023-09-13T07:23:44Z</time>
      </trkpt>
      <trkpt lat="49.82176" lon="2.26184">
        <ele>108.4</ele>
        <time>2023-09-13T07:23:46Z</time>
      </trkpt>
      <trkpt lat="49.82178" lon="2.26184">
        <ele>108.4</ele>
        <time>2023-09-13T07:23:47Z</time>
      </trkpt>
      <trkpt lat="49.82179" lon="2.26183">
        <ele>108.4</ele>
        <time>2023-09-13T07:23:48Z</time>
      </trkpt>
      <trkpt lat="49.8218" lon="2.26183">
        <ele>108.3</ele>
        <time>2023-09-13T07:23:49Z</time>
      </trkpt>
      <trkpt lat="49.82181" lon="2.26182">
        <ele>108.3</ele>
        <time>2023-09-13T07:23:50Z</time>
      </trkpt>
      <trkpt lat="49.82183" lon="2.26182">
        <ele>108.3</ele>
        <time>2023-09-13T07:23:51Z</time>
      </trkpt>
      <trkpt lat="49.82184" lon="2.26181">
        <ele>108.3</ele>
        <time>2023-09-13T07:23:52Z</time>
      </trkpt>
      <trkpt lat="49.82185" lon="2.26181">
        <ele>108.2</ele>
        <time>2023-09-13T07:23:53Z</time>
      </trkpt>
      <trkpt lat="49.82187" lon="2.2618">
        <ele>108.2</ele>
        <time>2023-09-13T07:23:54Z</time>
      </trkpt>
      <trkpt lat="49.82188" lon="2.26179">
        <ele>108.2</ele>
        <time>2023-09-13T07:23:55Z</time>
      </trkpt>
      <trkpt lat="49.82189" lon="2.26179">
        <ele>108.2</ele>
        <time>2023-09-13T07:23:56Z</time>
      </trkpt>
      <trkpt lat="49.8219" lon="2.26178">
        <ele>108.2</ele>
        <time>2023-09-13T07:23:57Z</time>
      </trkpt>
      <trkpt lat="49.82192" lon="2.26177">
        <ele>108.1</ele>
        <time>2023-09-13T07:23:59Z</time>
      </trkpt>
      <trkpt lat="49.82194" lon="2.26176">
        <ele>108.1</ele>
        <time>2023-09-13T07:24:00Z</time>
      </trkpt>
      <trkpt lat="49.82195" lon="2.26176">
        <ele>108.1</ele>
        <time>2023-09-13T07:24:01Z</time>
      </trkpt>
      <trkpt lat="49.82196" lon="2.26175">
        <ele>108.1</ele>
        <time>2023-09-13T07:24:02Z</time>
      </trkpt>
      <trkpt lat="49.82197" lon="2.26175">
        <ele>108.1</ele>
        <time>2023-09-13T07:24:03Z</time>
      </trkpt>
      <trkpt lat="49.82199" lon="2.26174">
        <ele>108.1</ele>
        <time>2023-09-13T07:24:04Z</time>
      </trkpt>
      <trkpt lat="49.822" lon="2.26173">
        <ele>108.1</ele>
        <time>2023-09-13T07:24:05Z</time>
      </trkpt>
      <trkpt lat="49.82201" lon="2.26173">
        <ele>108</ele>
        <time>2023-09-13T07:24:06Z</time>
      </trkpt>
      <trkpt lat="49.82203" lon="2.26172">
        <ele>108</ele>
        <time>2023-09-13T07:24:08Z</time>
      </trkpt>
      <trkpt lat="49.82204" lon="2.26171">
        <ele>108</ele>
        <time>2023-09-13T07:24:09Z</time>
      </trkpt>
      <trkpt lat="49.82206" lon="2.2617">
        <ele>108</ele>
        <time>2023-09-13T07:24:10Z</time>
      </trkpt>
      <trkpt lat="49.82207" lon="2.26169">
        <ele>108</ele>
        <time>2023-09-13T07:24:11Z</time>
      </trkpt>
      <trkpt lat="49.82208" lon="2.26169">
        <ele>108</ele>
        <time>2023-09-13T07:24:12Z</time>
      </trkpt>
      <trkpt lat="49.8221" lon="2.26167">
        <ele>108</ele>
        <time>2023-09-13T07:24:13Z</time>
      </trkpt>
      <trkpt lat="49.82211" lon="2.26167">
        <ele>108</ele>
        <time>2023-09-13T07:24:14Z</time>
      </trkpt>
      <trkpt lat="49.82211" lon="2.26166">
        <ele>108</ele>
        <time>2023-09-13T07:24:15Z</time>
      </trkpt>
      <trkpt lat="49.82213" lon="2.26165">
        <ele>107.9</ele>
        <time>2023-09-13T07:24:17Z</time>
      </trkpt>
      <trkpt lat="49.82214" lon="2.26164">
        <ele>107.9</ele>
        <time>2023-09-13T07:24:18Z</time>
      </trkpt>
      <trkpt lat="49.82215" lon="2.26163">
        <ele>107.9</ele>
        <time>2023-09-13T07:24:19Z</time>
      </trkpt>
      <trkpt lat="49.82216" lon="2.26162">
        <ele>107.9</ele>
        <time>2023-09-13T07:24:20Z</time>
      </trkpt>
      <trkpt lat="49.82218" lon="2.26162">
        <ele>107.9</ele>
        <time>2023-09-13T07:24:21Z</time>
      </trkpt>
      <trkpt lat="49.82219" lon="2.26161">
        <ele>107.9</ele>
        <time>2023-09-13T07:24:22Z</time>
      </trkpt>
      <trkpt lat="49.8222" lon="2.2616">
        <ele>107.9</ele>
        <time>2023-09-13T07:24:23Z</time>
      </trkpt>
      <trkpt lat="49.82221" lon="2.26159">
        <ele>107.9</ele>
        <time>2023-09-13T07:24:24Z</time>
      </trkpt>
      <trkpt lat="49.82223" lon="2.26157">
        <ele>107.8</ele>
        <time>2023-09-13T07:24:25Z</time>
      </trkpt>
      <trkpt lat="49.82224" lon="2.26156">
        <ele>107.8</ele>
        <time>2023-09-13T07:24:26Z</time>
      </trkpt>
      <trkpt lat="49.82225" lon="2.26156">
        <ele>107.8</ele>
        <time>2023-09-13T07:24:27Z</time>
      </trkpt>
      <trkpt lat="49.82226" lon="2.26155">
        <ele>107.8</ele>
        <time>2023-09-13T07:24:28Z</time>
      </trkpt>
      <trkpt lat="49.82227" lon="2.26154">
        <ele>107.8</ele>
        <time>2023-09-13T07:24:29Z</time>
      </trkpt>
      <trkpt lat="49.82228" lon="2.26153">
        <ele>107.8</ele>
        <time>2023-09-13T07:24:31Z</time>
      </trkpt>
      <trkpt lat="49.82229" lon="2.26152">
        <ele>107.8</ele>
        <time>2023-09-13T07:24:32Z</time>
      </trkpt>
      <trkpt lat="49.8223" lon="2.26151">
        <ele>107.8</ele>
        <time>2023-09-13T07:24:33Z</time>
      </trkpt>
      <trkpt lat="49.82231" lon="2.2615">
        <ele>107.8</ele>
        <time>2023-09-13T07:24:34Z</time>
      </trkpt>
      <trkpt lat="49.82232" lon="2.26149">
        <ele>107.8</ele>
        <time>2023-09-13T07:24:35Z</time>
      </trkpt>
      <trkpt lat="49.82233" lon="2.26148">
        <ele>107.8</ele>
        <time>2023-09-13T07:24:36Z</time>
      </trkpt>
      <trkpt lat="49.82236" lon="2.26148">
        <ele>107.8</ele>
        <time>2023-09-13T07:24:37Z</time>
      </trkpt>
      <trkpt lat="49.82237" lon="2.26147">
        <ele>107.7</ele>
        <time>2023-09-13T07:24:39Z</time>
      </trkpt>
      <trkpt lat="49.82238" lon="2.26147">
        <ele>107.7</ele>
        <time>2023-09-13T07:24:40Z</time>
      </trkpt>
      <trkpt lat="49.82239" lon="2.26147">
        <ele>107.7</ele>
        <time>2023-09-13T07:24:41Z</time>
      </trkpt>
      <trkpt lat="49.8224" lon="2.26147">
        <ele>107.7</ele>
        <time>2023-09-13T07:24:42Z</time>
      </trkpt>
      <trkpt lat="49.82243" lon="2.26146">
        <ele>107.7</ele>
        <time>2023-09-13T07:24:43Z</time>
      </trkpt>
      <trkpt lat="49.82243" lon="2.26146">
        <ele>107.7</ele>
        <time>2023-09-13T07:24:44Z</time>
      </trkpt>
      <trkpt lat="49.82244" lon="2.26146">
        <ele>107.7</ele>
        <time>2023-09-13T07:24:45Z</time>
      </trkpt>
      <trkpt lat="49.82246" lon="2.26145">
        <ele>107.7</ele>
        <time>2023-09-13T07:24:47Z</time>
      </trkpt>
      <trkpt lat="49.82247" lon="2.26144">
        <ele>107.7</ele>
        <time>2023-09-13T07:24:48Z</time>
      </trkpt>
      <trkpt lat="49.82248" lon="2.26144">
        <ele>107.7</ele>
        <time>2023-09-13T07:24:49Z</time>
      </trkpt>
      <trkpt lat="49.8225" lon="2.26143">
        <ele>107.7</ele>
        <time>2023-09-13T07:24:50Z</time>
      </trkpt>
      <trkpt lat="49.82251" lon="2.26143">
        <ele>107.6</ele>
        <time>2023-09-13T07:24:51Z</time>
      </trkpt>
      <trkpt lat="49.82251" lon="2.26143">
        <ele>107.6</ele>
        <time>2023-09-13T07:24:52Z</time>
      </trkpt>
      <trkpt lat="49.82253" lon="2.26141">
        <ele>107.6</ele>
        <time>2023-09-13T07:24:54Z</time>
      </trkpt>
      <trkpt lat="49.82254" lon="2.2614">
        <ele>107.6</ele>
        <time>2023-09-13T07:24:55Z</time>
      </trkpt>
      <trkpt lat="49.82256" lon="2.26139">
        <ele>107.6</ele>
        <time>2023-09-13T07:24:56Z</time>
      </trkpt>
      <trkpt lat="49.82257" lon="2.26138">
        <ele>107.6</ele>
        <time>2023-09-13T07:24:57Z</time>
      </trkpt>
      <trkpt lat="49.82258" lon="2.26137">
        <ele>107.5</ele>
        <time>2023-09-13T07:24:58Z</time>
      </trkpt>
      <trkpt lat="49.82259" lon="2.26137">
        <ele>107.5</ele>
        <time>2023-09-13T07:24:59Z</time>
      </trkpt>
      <trkpt lat="49.8226" lon="2.26137">
        <ele>107.5</ele>
        <time>2023-09-13T07:25:00Z</time>
      </trkpt>
      <trkpt lat="49.82261" lon="2.26136">
        <ele>107.5</ele>
        <time>2023-09-13T07:25:01Z</time>
      </trkpt>
      <trkpt lat="49.82263" lon="2.26135">
        <ele>107.5</ele>
        <time>2023-09-13T07:25:03Z</time>
      </trkpt>
      <trkpt lat="49.82264" lon="2.26134">
        <ele>107.4</ele>
        <time>2023-09-13T07:25:04Z</time>
      </trkpt>
      <trkpt lat="49.82265" lon="2.26134">
        <ele>107.4</ele>
        <time>2023-09-13T07:25:05Z</time>
      </trkpt>
      <trkpt lat="49.82266" lon="2.26134">
        <ele>107.4</ele>
        <time>2023-09-13T07:25:06Z</time>
      </trkpt>
      <trkpt lat="49.82268" lon="2.26135">
        <ele>107.4</ele>
        <time>2023-09-13T07:25:07Z</time>
      </trkpt>
      <trkpt lat="49.82269" lon="2.26135">
        <ele>107.3</ele>
        <time>2023-09-13T07:25:08Z</time>
      </trkpt>
      <trkpt lat="49.82271" lon="2.26134">
        <ele>107.3</ele>
        <time>2023-09-13T07:25:10Z</time>
      </trkpt>
      <trkpt lat="49.82272" lon="2.26134">
        <ele>107.3</ele>
        <time>2023-09-13T07:25:11Z</time>
      </trkpt>
      <trkpt lat="49.82273" lon="2.26134">
        <ele>107.2</ele>
        <time>2023-09-13T07:25:12Z</time>
      </trkpt>
      <trkpt lat="49.82277" lon="2.26134">
        <ele>107.2</ele>
        <time>2023-09-13T07:25:14Z</time>
      </trkpt>
      <trkpt lat="49.82277" lon="2.26134">
        <ele>107.2</ele>
        <time>2023-09-13T07:25:15Z</time>
      </trkpt>
      <trkpt lat="49.8228" lon="2.26133">
        <ele>107.1</ele>
        <time>2023-09-13T07:25:16Z</time>
      </trkpt>
      <trkpt lat="49.8228" lon="2.26132">
        <ele>107.1</ele>
        <time>2023-09-13T07:25:17Z</time>
      </trkpt>
      <trkpt lat="49.82281" lon="2.26132">
        <ele>107.1</ele>
        <time>2023-09-13T07:25:18Z</time>
      </trkpt>
      <trkpt lat="49.82283" lon="2.26131">
        <ele>107.1</ele>
        <time>2023-09-13T07:25:19Z</time>
      </trkpt>
      <trkpt lat="49.82284" lon="2.2613">
        <ele>107</ele>
        <time>2023-09-13T07:25:20Z</time>
      </trkpt>
      <trkpt lat="49.82285" lon="2.26129">
        <ele>107</ele>
        <time>2023-09-13T07:25:22Z</time>
      </trkpt>
      <trkpt lat="49.82287" lon="2.26128">
        <ele>107</ele>
        <time>2023-09-13T07:25:23Z</time>
      </trkpt>
      <trkpt lat="49.82288" lon="2.26127">
        <ele>106.9</ele>
        <time>2023-09-13T07:25:24Z</time>
      </trkpt>
      <trkpt lat="49.82289" lon="2.26127">
        <ele>106.9</ele>
        <time>2023-09-13T07:25:25Z</time>
      </trkpt>
      <trkpt lat="49.82291" lon="2.26126">
        <ele>106.9</ele>
        <time>2023-09-13T07:25:27Z</time>
      </trkpt>
      <trkpt lat="49.82293" lon="2.26126">
        <ele>106.8</ele>
        <time>2023-09-13T07:25:28Z</time>
      </trkpt>
      <trkpt lat="49.82294" lon="2.26126">
        <ele>106.8</ele>
        <time>2023-09-13T07:25:29Z</time>
      </trkpt>
      <trkpt lat="49.82296" lon="2.26125">
        <ele>106.8</ele>
        <time>2023-09-13T07:25:30Z</time>
      </trkpt>
      <trkpt lat="49.82297" lon="2.26125">
        <ele>106.7</ele>
        <time>2023-09-13T07:25:32Z</time>
      </trkpt>
      <trkpt lat="49.82299" lon="2.26125">
        <ele>106.7</ele>
        <time>2023-09-13T07:25:33Z</time>
      </trkpt>
      <trkpt lat="49.823" lon="2.26125">
        <ele>106.6</ele>
        <time>2023-09-13T07:25:34Z</time>
      </trkpt>
      <trkpt lat="49.82302" lon="2.26124">
        <ele>106.6</ele>
        <time>2023-09-13T07:25:35Z</time>
      </trkpt>
      <trkpt lat="49.82303" lon="2.26124">
        <ele>106.5</ele>
        <time>2023-09-13T07:25:36Z</time>
      </trkpt>
      <trkpt lat="49.82304" lon="2.26124">
        <ele>106.5</ele>
        <time>2023-09-13T07:25:37Z</time>
      </trkpt>
      <trkpt lat="49.82306" lon="2.26123">
        <ele>106.4</ele>
        <time>2023-09-13T07:25:38Z</time>
      </trkpt>
      <trkpt lat="49.82307" lon="2.26122">
        <ele>106.4</ele>
        <time>2023-09-13T07:25:40Z</time>
      </trkpt>
      <trkpt lat="49.82308" lon="2.26122">
        <ele>106.3</ele>
        <time>2023-09-13T07:25:41Z</time>
      </trkpt>
      <trkpt lat="49.82309" lon="2.26121">
        <ele>106.3</ele>
        <time>2023-09-13T07:25:42Z</time>
      </trkpt>
      <trkpt lat="49.8231" lon="2.26121">
        <ele>106.2</ele>
        <time>2023-09-13T07:25:43Z</time>
      </trkpt>
      <trkpt lat="49.82312" lon="2.2612">
        <ele>106.2</ele>
        <time>2023-09-13T07:25:44Z</time>
      </trkpt>
      <trkpt lat="49.82313" lon="2.2612">
        <ele>106.1</ele>
        <time>2023-09-13T07:25:45Z</time>
      </trkpt>
      <trkpt lat="49.82314" lon="2.2612">
        <ele>106.1</ele>
        <time>2023-09-13T07:25:46Z</time>
      </trkpt>
      <trkpt lat="49.82316" lon="2.26119">
        <ele>106</ele>
        <time>2023-09-13T07:25:47Z</time>
      </trkpt>
      <trkpt lat="49.82318" lon="2.26119">
        <ele>106</ele>
        <time>2023-09-13T07:25:49Z</time>
      </trkpt>
      <trkpt lat="49.82319" lon="2.26119">
        <ele>105.9</ele>
        <time>2023-09-13T07:25:50Z</time>
      </trkpt>
      <trkpt lat="49.8232" lon="2.26119">
        <ele>105.9</ele>
        <time>2023-09-13T07:25:51Z</time>
      </trkpt>
      <trkpt lat="49.82321" lon="2.26118">
        <ele>105.9</ele>
        <time>2023-09-13T07:25:52Z</time>
      </trkpt>
      <trkpt lat="49.82322" lon="2.26118">
        <ele>105.8</ele>
        <time>2023-09-13T07:25:53Z</time>
      </trkpt>
      <trkpt lat="49.82323" lon="2.26118">
        <ele>105.8</ele>
        <time>2023-09-13T07:25:54Z</time>
      </trkpt>
      <trkpt lat="49.82325" lon="2.26118">
        <ele>105.7</ele>
        <time>2023-09-13T07:25:55Z</time>
      </trkpt>
      <trkpt lat="49.82327" lon="2.26119">
        <ele>105.7</ele>
        <time>2023-09-13T07:25:57Z</time>
      </trkpt>
      <trkpt lat="49.82328" lon="2.26119">
        <ele>105.7</ele>
        <time>2023-09-13T07:25:58Z</time>
      </trkpt>
      <trkpt lat="49.82329" lon="2.26119">
        <ele>105.6</ele>
        <time>2023-09-13T07:25:59Z</time>
      </trkpt>
      <trkpt lat="49.8233" lon="2.26119">
        <ele>105.6</ele>
        <time>2023-09-13T07:26:00Z</time>
      </trkpt>
      <trkpt lat="49.82332" lon="2.2612">
        <ele>105.5</ele>
        <time>2023-09-13T07:26:01Z</time>
      </trkpt>
      <trkpt lat="49.82333" lon="2.2612">
        <ele>105.5</ele>
        <time>2023-09-13T07:26:02Z</time>
      </trkpt>
      <trkpt lat="49.82334" lon="2.26121">
        <ele>105.5</ele>
        <time>2023-09-13T07:26:03Z</time>
      </trkpt>
      <trkpt lat="49.82335" lon="2.26121">
        <ele>105.4</ele>
        <time>2023-09-13T07:26:04Z</time>
      </trkpt>
      <trkpt lat="49.82336" lon="2.26122">
        <ele>105.4</ele>
        <time>2023-09-13T07:26:05Z</time>
      </trkpt>
      <trkpt lat="49.82338" lon="2.26123">
        <ele>105.4</ele>
        <time>2023-09-13T07:26:07Z</time>
      </trkpt>
      <trkpt lat="49.8234" lon="2.26123">
        <ele>105.3</ele>
        <time>2023-09-13T07:26:08Z</time>
      </trkpt>
      <trkpt lat="49.82341" lon="2.26124">
        <ele>105.3</ele>
        <time>2023-09-13T07:26:09Z</time>
      </trkpt>
      <trkpt lat="49.82343" lon="2.26124">
        <ele>105.3</ele>
        <time>2023-09-13T07:26:10Z</time>
      </trkpt>
      <trkpt lat="49.82344" lon="2.26124">
        <ele>105.2</ele>
        <time>2023-09-13T07:26:11Z</time>
      </trkpt>
      <trkpt lat="49.82346" lon="2.26124">
        <ele>105.2</ele>
        <time>2023-09-13T07:26:12Z</time>
      </trkpt>
      <trkpt lat="49.82347" lon="2.26124">
        <ele>105.2</ele>
        <time>2023-09-13T07:26:13Z</time>
      </trkpt>
      <trkpt lat="49.82349" lon="2.26124">
        <ele>105.1</ele>
        <time>2023-09-13T07:26:15Z</time>
      </trkpt>
      <trkpt lat="49.8235" lon="2.26123">
        <ele>105.1</ele>
        <time>2023-09-13T07:26:16Z</time>
      </trkpt>
      <trkpt lat="49.82351" lon="2.26123">
        <ele>105.1</ele>
        <time>2023-09-13T07:26:17Z</time>
      </trkpt>
      <trkpt lat="49.82353" lon="2.26123">
        <ele>105.1</ele>
        <time>2023-09-13T07:26:18Z</time>
      </trkpt>
      <trkpt lat="49.82354" lon="2.26123">
        <ele>105.1</ele>
        <time>2023-09-13T07:26:19Z</time>
      </trkpt>
      <trkpt lat="49.82355" lon="2.26124">
        <ele>105.1</ele>
        <time>2023-09-13T07:26:20Z</time>
      </trkpt>
      <trkpt lat="49.82356" lon="2.26124">
        <ele>105</ele>
        <time>2023-09-13T07:26:21Z</time>
      </trkpt>
      <trkpt lat="49.82358" lon="2.26124">
        <ele>105</ele>
        <time>2023-09-13T07:26:22Z</time>
      </trkpt>
      <trkpt lat="49.82359" lon="2.26125">
        <ele>105</ele>
        <time>2023-09-13T07:26:24Z</time>
      </trkpt>
      <trkpt lat="49.82361" lon="2.26125">
        <ele>105</ele>
        <time>2023-09-13T07:26:25Z</time>
      </trkpt>
      <trkpt lat="49.82362" lon="2.26126">
        <ele>105</ele>
        <time>2023-09-13T07:26:26Z</time>
      </trkpt>
      <trkpt lat="49.82363" lon="2.26126">
        <ele>105</ele>
        <time>2023-09-13T07:26:27Z</time>
      </trkpt>
      <trkpt lat="49.82365" lon="2.26127">
        <ele>105</ele>
        <time>2023-09-13T07:26:28Z</time>
      </trkpt>
      <trkpt lat="49.82366" lon="2.26128">
        <ele>104.9</ele>
        <time>2023-09-13T07:26:29Z</time>
      </trkpt>
      <trkpt lat="49.82368" lon="2.26128">
        <ele>104.9</ele>
        <time>2023-09-13T07:26:30Z</time>
      </trkpt>
      <trkpt lat="49.82369" lon="2.26129">
        <ele>104.9</ele>
        <time>2023-09-13T07:26:32Z</time>
      </trkpt>
      <trkpt lat="49.8237" lon="2.2613">
        <ele>104.9</ele>
        <time>2023-09-13T07:26:33Z</time>
      </trkpt>
      <trkpt lat="49.82371" lon="2.2613">
        <ele>104.9</ele>
        <time>2023-09-13T07:26:34Z</time>
      </trkpt>
      <trkpt lat="49.82372" lon="2.26131">
        <ele>104.9</ele>
        <time>2023-09-13T07:26:35Z</time>
      </trkpt>
      <trkpt lat="49.82373" lon="2.26132">
        <ele>104.9</ele>
        <time>2023-09-13T07:26:36Z</time>
      </trkpt>
      <trkpt lat="49.82374" lon="2.26132">
        <ele>104.9</ele>
        <time>2023-09-13T07:26:37Z</time>
      </trkpt>
      <trkpt lat="49.82376" lon="2.26133">
        <ele>104.8</ele>
        <time>2023-09-13T07:26:39Z</time>
      </trkpt>
      <trkpt lat="49.82378" lon="2.26134">
        <ele>104.8</ele>
        <time>2023-09-13T07:26:40Z</time>
      </trkpt>
      <trkpt lat="49.82379" lon="2.26135">
        <ele>104.8</ele>
        <time>2023-09-13T07:26:41Z</time>
      </trkpt>
      <trkpt lat="49.8238" lon="2.26135">
        <ele>104.8</ele>
        <time>2023-09-13T07:26:42Z</time>
      </trkpt>
      <trkpt lat="49.82381" lon="2.26135">
        <ele>104.8</ele>
        <time>2023-09-13T07:26:43Z</time>
      </trkpt>
      <trkpt lat="49.82382" lon="2.26136">
        <ele>104.8</ele>
        <time>2023-09-13T07:26:44Z</time>
      </trkpt>
      <trkpt lat="49.82384" lon="2.26136">
        <ele>104.8</ele>
        <time>2023-09-13T07:26:46Z</time>
      </trkpt>
      <trkpt lat="49.82385" lon="2.26137">
        <ele>104.8</ele>
        <time>2023-09-13T07:26:47Z</time>
      </trkpt>
      <trkpt lat="49.82386" lon="2.26137">
        <ele>104.8</ele>
        <time>2023-09-13T07:26:48Z</time>
      </trkpt>
      <trkpt lat="49.82387" lon="2.26138">
        <ele>104.8</ele>
        <time>2023-09-13T07:26:49Z</time>
      </trkpt>
      <trkpt lat="49.82388" lon="2.26138">
        <ele>104.7</ele>
        <time>2023-09-13T07:26:50Z</time>
      </trkpt>
      <trkpt lat="49.8239" lon="2.26138">
        <ele>104.7</ele>
        <time>2023-09-13T07:26:51Z</time>
      </trkpt>
      <trkpt lat="49.82391" lon="2.26139">
        <ele>104.7</ele>
        <time>2023-09-13T07:26:53Z</time>
      </trkpt>
      <trkpt lat="49.82392" lon="2.26139">
        <ele>104.7</ele>
        <time>2023-09-13T07:26:54Z</time>
      </trkpt>
      <trkpt lat="49.82393" lon="2.26139">
        <ele>104.7</ele>
        <time>2023-09-13T07:26:55Z</time>
      </trkpt>
      <trkpt lat="49.82394" lon="2.26139">
        <ele>104.7</ele>
        <time>2023-09-13T07:26:56Z</time>
      </trkpt>
      <trkpt lat="49.82396" lon="2.2614">
        <ele>104.7</ele>
        <time>2023-09-13T07:26:57Z</time>
      </trkpt>
      <trkpt lat="49.82397" lon="2.26141">
        <ele>104.7</ele>
        <time>2023-09-13T07:26:58Z</time>
      </trkpt>
      <trkpt lat="49.82398" lon="2.26141">
        <ele>104.7</ele>
        <time>2023-09-13T07:26:59Z</time>
      </trkpt>
      <trkpt lat="49.824" lon="2.26142">
        <ele>104.7</ele>
        <time>2023-09-13T07:27:01Z</time>
      </trkpt>
      <trkpt lat="49.824" lon="2.26143">
        <ele>104.7</ele>
        <time>2023-09-13T07:27:02Z</time>
      </trkpt>
      <trkpt lat="49.82401" lon="2.26143">
        <ele>104.7</ele>
        <time>2023-09-13T07:27:03Z</time>
      </trkpt>
      <trkpt lat="49.82402" lon="2.26144">
        <ele>104.6</ele>
        <time>2023-09-13T07:27:04Z</time>
      </trkpt>
      <trkpt lat="49.82403" lon="2.26145">
        <ele>104.6</ele>
        <time>2023-09-13T07:27:05Z</time>
      </trkpt>
      <trkpt lat="49.82405" lon="2.26146">
        <ele>104.6</ele>
        <time>2023-09-13T07:27:06Z</time>
      </trkpt>
      <trkpt lat="49.82406" lon="2.26146">
        <ele>104.6</ele>
        <time>2023-09-13T07:27:07Z</time>
      </trkpt>
      <trkpt lat="49.82407" lon="2.26147">
        <ele>104.6</ele>
        <time>2023-09-13T07:27:08Z</time>
      </trkpt>
      <trkpt lat="49.82409" lon="2.26148">
        <ele>104.6</ele>
        <time>2023-09-13T07:27:10Z</time>
      </trkpt>
      <trkpt lat="49.82411" lon="2.26148">
        <ele>104.6</ele>
        <time>2023-09-13T07:27:11Z</time>
      </trkpt>
      <trkpt lat="49.82412" lon="2.26149">
        <ele>104.6</ele>
        <time>2023-09-13T07:27:12Z</time>
      </trkpt>
      <trkpt lat="49.82414" lon="2.2615">
        <ele>104.6</ele>
        <time>2023-09-13T07:27:13Z</time>
      </trkpt>
      <trkpt lat="49.82415" lon="2.2615">
        <ele>104.6</ele>
        <time>2023-09-13T07:27:14Z</time>
      </trkpt>
      <trkpt lat="49.82416" lon="2.2615">
        <ele>104.6</ele>
        <time>2023-09-13T07:27:15Z</time>
      </trkpt>
      <trkpt lat="49.82417" lon="2.26151">
        <ele>104.6</ele>
        <time>2023-09-13T07:27:16Z</time>
      </trkpt>
      <trkpt lat="49.82419" lon="2.26152">
        <ele>104.6</ele>
        <time>2023-09-13T07:27:17Z</time>
      </trkpt>
      <trkpt lat="49.8242" lon="2.26152">
        <ele>104.5</ele>
        <time>2023-09-13T07:27:18Z</time>
      </trkpt>
      <trkpt lat="49.82421" lon="2.26153">
        <ele>104.5</ele>
        <time>2023-09-13T07:27:19Z</time>
      </trkpt>
      <trkpt lat="49.82423" lon="2.26153">
        <ele>104.5</ele>
        <time>2023-09-13T07:27:20Z</time>
      </trkpt>
      <trkpt lat="49.82424" lon="2.26154">
        <ele>104.5</ele>
        <time>2023-09-13T07:27:21Z</time>
      </trkpt>
      <trkpt lat="49.82426" lon="2.26155">
        <ele>104.5</ele>
        <time>2023-09-13T07:27:23Z</time>
      </trkpt>
      <trkpt lat="49.82427" lon="2.26155">
        <ele>104.5</ele>
        <time>2023-09-13T07:27:24Z</time>
      </trkpt>
      <trkpt lat="49.82428" lon="2.26155">
        <ele>104.5</ele>
        <time>2023-09-13T07:27:25Z</time>
      </trkpt>
      <trkpt lat="49.82429" lon="2.26155">
        <ele>104.5</ele>
        <time>2023-09-13T07:27:26Z</time>
      </trkpt>
      <trkpt lat="49.8243" lon="2.26156">
        <ele>104.5</ele>
        <time>2023-09-13T07:27:27Z</time>
      </trkpt>
      <trkpt lat="49.82431" lon="2.26156">
        <ele>104.5</ele>
        <time>2023-09-13T07:27:28Z</time>
      </trkpt>
      <trkpt lat="49.82432" lon="2.26157">
        <ele>104.5</ele>
        <time>2023-09-13T07:27:29Z</time>
      </trkpt>
      <trkpt lat="49.82434" lon="2.26157">
        <ele>104.5</ele>
        <time>2023-09-13T07:27:30Z</time>
      </trkpt>
      <trkpt lat="49.82435" lon="2.26158">
        <ele>104.5</ele>
        <time>2023-09-13T07:27:32Z</time>
      </trkpt>
      <trkpt lat="49.82437" lon="2.26158">
        <ele>104.5</ele>
        <time>2023-09-13T07:27:33Z</time>
      </trkpt>
      <trkpt lat="49.82437" lon="2.26158">
        <ele>104.5</ele>
        <time>2023-09-13T07:27:34Z</time>
      </trkpt>
      <trkpt lat="49.82438" lon="2.26158">
        <ele>104.5</ele>
        <time>2023-09-13T07:27:35Z</time>
      </trkpt>
      <trkpt lat="49.8244" lon="2.26159">
        <ele>104.4</ele>
        <time>2023-09-13T07:27:36Z</time>
      </trkpt>
      <trkpt lat="49.82441" lon="2.26159">
        <ele>104.4</ele>
        <time>2023-09-13T07:27:37Z</time>
      </trkpt>
      <trkpt lat="49.82442" lon="2.2616">
        <ele>104.4</ele>
        <time>2023-09-13T07:27:38Z</time>
      </trkpt>
      <trkpt lat="49.82443" lon="2.2616">
        <ele>104.4</ele>
        <time>2023-09-13T07:27:39Z</time>
      </trkpt>
      <trkpt lat="49.82445" lon="2.26161">
        <ele>104.4</ele>
        <time>2023-09-13T07:27:40Z</time>
      </trkpt>
      <trkpt lat="49.82446" lon="2.26161">
        <ele>104.4</ele>
        <time>2023-09-13T07:27:42Z</time>
      </trkpt>
      <trkpt lat="49.82448" lon="2.26162">
        <ele>104.4</ele>
        <time>2023-09-13T07:27:43Z</time>
      </trkpt>
      <trkpt lat="49.82449" lon="2.26162">
        <ele>104.4</ele>
        <time>2023-09-13T07:27:44Z</time>
      </trkpt>
      <trkpt lat="49.82449" lon="2.26163">
        <ele>104.4</ele>
        <time>2023-09-13T07:27:45Z</time>
      </trkpt>
      <trkpt lat="49.82451" lon="2.26163">
        <ele>104.4</ele>
        <time>2023-09-13T07:27:46Z</time>
      </trkpt>
      <trkpt lat="49.82452" lon="2.26164">
        <ele>104.4</ele>
        <time>2023-09-13T07:27:47Z</time>
      </trkpt>
      <trkpt lat="49.82454" lon="2.26164">
        <ele>104.4</ele>
        <time>2023-09-13T07:27:48Z</time>
      </trkpt>
      <trkpt lat="49.82455" lon="2.26165">
        <ele>104.3</ele>
        <time>2023-09-13T07:27:50Z</time>
      </trkpt>
      <trkpt lat="49.82456" lon="2.26165">
        <ele>104.3</ele>
        <time>2023-09-13T07:27:51Z</time>
      </trkpt>
      <trkpt lat="49.82458" lon="2.26166">
        <ele>104.3</ele>
        <time>2023-09-13T07:27:52Z</time>
      </trkpt>
      <trkpt lat="49.82459" lon="2.26166">
        <ele>104.3</ele>
        <time>2023-09-13T07:27:53Z</time>
      </trkpt>
      <trkpt lat="49.8246" lon="2.26167">
        <ele>104.3</ele>
        <time>2023-09-13T07:27:54Z</time>
      </trkpt>
      <trkpt lat="49.82462" lon="2.26167">
        <ele>104.3</ele>
        <time>2023-09-13T07:27:56Z</time>
      </trkpt>
      <trkpt lat="49.82463" lon="2.26167">
        <ele>104.3</ele>
        <time>2023-09-13T07:27:57Z</time>
      </trkpt>
      <trkpt lat="49.82464" lon="2.26167">
        <ele>104.3</ele>
        <time>2023-09-13T07:27:58Z</time>
      </trkpt>
      <trkpt lat="49.82466" lon="2.26167">
        <ele>104.3</ele>
        <time>2023-09-13T07:27:59Z</time>
      </trkpt>
      <trkpt lat="49.82467" lon="2.26167">
        <ele>104.3</ele>
        <time>2023-09-13T07:28:00Z</time>
      </trkpt>
      <trkpt lat="49.82468" lon="2.26167">
        <ele>104.3</ele>
        <time>2023-09-13T07:28:01Z</time>
      </trkpt>
      <trkpt lat="49.8247" lon="2.26167">
        <ele>104.3</ele>
        <time>2023-09-13T07:28:02Z</time>
      </trkpt>
      <trkpt lat="49.82471" lon="2.26168">
        <ele>104.3</ele>
        <time>2023-09-13T07:28:03Z</time>
      </trkpt>
      <trkpt lat="49.82473" lon="2.26168">
        <ele>104.3</ele>
        <time>2023-09-13T07:28:04Z</time>
      </trkpt>
      <trkpt lat="49.82474" lon="2.26168">
        <ele>104.3</ele>
        <time>2023-09-13T07:28:05Z</time>
      </trkpt>
      <trkpt lat="49.82475" lon="2.26168">
        <ele>104.3</ele>
        <time>2023-09-13T07:28:06Z</time>
      </trkpt>
      <trkpt lat="49.82477" lon="2.26168">
        <ele>104.3</ele>
        <time>2023-09-13T07:28:07Z</time>
      </trkpt>
      <trkpt lat="49.82478" lon="2.26168">
        <ele>104.3</ele>
        <time>2023-09-13T07:28:09Z</time>
      </trkpt>
      <trkpt lat="49.8248" lon="2.26169">
        <ele>104.3</ele>
        <time>2023-09-13T07:28:10Z</time>
      </trkpt>
      <trkpt lat="49.82481" lon="2.26169">
        <ele>104.3</ele>
        <time>2023-09-13T07:28:11Z</time>
      </trkpt>
      <trkpt lat="49.82483" lon="2.26169">
        <ele>104.3</ele>
        <time>2023-09-13T07:28:12Z</time>
      </trkpt>
      <trkpt lat="49.82484" lon="2.2617">
        <ele>104.3</ele>
        <time>2023-09-13T07:28:13Z</time>
      </trkpt>
      <trkpt lat="49.82486" lon="2.2617">
        <ele>104.3</ele>
        <time>2023-09-13T07:28:14Z</time>
      </trkpt>
      <trkpt lat="49.82487" lon="2.26171">
        <ele>104.3</ele>
        <time>2023-09-13T07:28:16Z</time>
      </trkpt>
      <trkpt lat="49.82489" lon="2.26171">
        <ele>104.3</ele>
        <time>2023-09-13T07:28:17Z</time>
      </trkpt>
      <trkpt lat="49.8249" lon="2.26171">
        <ele>104.3</ele>
        <time>2023-09-13T07:28:18Z</time>
      </trkpt>
      <trkpt lat="49.82492" lon="2.26172">
        <ele>104.3</ele>
        <time>2023-09-13T07:28:19Z</time>
      </trkpt>
      <trkpt lat="49.82493" lon="2.26172">
        <ele>104.3</ele>
        <time>2023-09-13T07:28:20Z</time>
      </trkpt>
      <trkpt lat="49.82494" lon="2.26172">
        <ele>104.3</ele>
        <time>2023-09-13T07:28:21Z</time>
      </trkpt>
      <trkpt lat="49.82496" lon="2.26172">
        <ele>104.3</ele>
        <time>2023-09-13T07:28:23Z</time>
      </trkpt>
      <trkpt lat="49.82497" lon="2.26173">
        <ele>104.3</ele>
        <time>2023-09-13T07:28:24Z</time>
      </trkpt>
      <trkpt lat="49.82499" lon="2.26174">
        <ele>104.4</ele>
        <time>2023-09-13T07:28:25Z</time>
      </trkpt>
      <trkpt lat="49.825" lon="2.26174">
        <ele>104.4</ele>
        <time>2023-09-13T07:28:26Z</time>
      </trkpt>
      <trkpt lat="49.82501" lon="2.26175">
        <ele>104.4</ele>
        <time>2023-09-13T07:28:27Z</time>
      </trkpt>
      <trkpt lat="49.82503" lon="2.26175">
        <ele>104.4</ele>
        <time>2023-09-13T07:28:28Z</time>
      </trkpt>
      <trkpt lat="49.82504" lon="2.26175">
        <ele>104.4</ele>
        <time>2023-09-13T07:28:30Z</time>
      </trkpt>
      <trkpt lat="49.82506" lon="2.26175">
        <ele>104.4</ele>
        <time>2023-09-13T07:28:31Z</time>
      </trkpt>
      <trkpt lat="49.82507" lon="2.26175">
        <ele>104.4</ele>
        <time>2023-09-13T07:28:32Z</time>
      </trkpt>
      <trkpt lat="49.82508" lon="2.26175">
        <ele>104.4</ele>
        <time>2023-09-13T07:28:33Z</time>
      </trkpt>
      <trkpt lat="49.82509" lon="2.26175">
        <ele>104.4</ele>
        <time>2023-09-13T07:28:34Z</time>
      </trkpt>
      <trkpt lat="49.82511" lon="2.26176">
        <ele>104.4</ele>
        <time>2023-09-13T07:28:36Z</time>
      </trkpt>
      <trkpt lat="49.82513" lon="2.26176">
        <ele>104.4</ele>
        <time>2023-09-13T07:28:37Z</time>
      </trkpt>
      <trkpt lat="49.82514" lon="2.26176">
        <ele>104.4</ele>
        <time>2023-09-13T07:28:38Z</time>
      </trkpt>
      <trkpt lat="49.82515" lon="2.26177">
        <ele>104.4</ele>
        <time>2023-09-13T07:28:39Z</time>
      </trkpt>
      <trkpt lat="49.82516" lon="2.26177">
        <ele>104.4</ele>
        <time>2023-09-13T07:28:40Z</time>
      </trkpt>
      <trkpt lat="49.82518" lon="2.26178">
        <ele>104.4</ele>
        <time>2023-09-13T07:28:41Z</time>
      </trkpt>
      <trkpt lat="49.82519" lon="2.26178">
        <ele>104.4</ele>
        <time>2023-09-13T07:28:42Z</time>
      </trkpt>
      <trkpt lat="49.82521" lon="2.26178">
        <ele>104.4</ele>
        <time>2023-09-13T07:28:44Z</time>
      </trkpt>
      <trkpt lat="49.82522" lon="2.26179">
        <ele>104.4</ele>
        <time>2023-09-13T07:28:45Z</time>
      </trkpt>
      <trkpt lat="49.82524" lon="2.26178">
        <ele>104.4</ele>
        <time>2023-09-13T07:28:46Z</time>
      </trkpt>
      <trkpt lat="49.82525" lon="2.26178">
        <ele>104.4</ele>
        <time>2023-09-13T07:28:47Z</time>
      </trkpt>
      <trkpt lat="49.82526" lon="2.26178">
        <ele>104.4</ele>
        <time>2023-09-13T07:28:48Z</time>
      </trkpt>
      <trkpt lat="49.82527" lon="2.26178">
        <ele>104.4</ele>
        <time>2023-09-13T07:28:49Z</time>
      </trkpt>
      <trkpt lat="49.82529" lon="2.26178">
        <ele>104.4</ele>
        <time>2023-09-13T07:28:50Z</time>
      </trkpt>
      <trkpt lat="49.8253" lon="2.26179">
        <ele>104.4</ele>
        <time>2023-09-13T07:28:52Z</time>
      </trkpt>
      <trkpt lat="49.82532" lon="2.26179">
        <ele>104.4</ele>
        <time>2023-09-13T07:28:53Z</time>
      </trkpt>
      <trkpt lat="49.82533" lon="2.26179">
        <ele>104.4</ele>
        <time>2023-09-13T07:28:54Z</time>
      </trkpt>
      <trkpt lat="49.82534" lon="2.2618">
        <ele>104.4</ele>
        <time>2023-09-13T07:28:55Z</time>
      </trkpt>
      <trkpt lat="49.82535" lon="2.2618">
        <ele>104.4</ele>
        <time>2023-09-13T07:28:56Z</time>
      </trkpt>
      <trkpt lat="49.82537" lon="2.26181">
        <ele>104.4</ele>
        <time>2023-09-13T07:28:57Z</time>
      </trkpt>
      <trkpt lat="49.82538" lon="2.26181">
        <ele>104.4</ele>
        <time>2023-09-13T07:28:58Z</time>
      </trkpt>
      <trkpt lat="49.8254" lon="2.26181">
        <ele>104.4</ele>
        <time>2023-09-13T07:29:00Z</time>
      </trkpt>
      <trkpt lat="49.82541" lon="2.26182">
        <ele>104.4</ele>
        <time>2023-09-13T07:29:01Z</time>
      </trkpt>
      <trkpt lat="49.82543" lon="2.26182">
        <ele>104.4</ele>
        <time>2023-09-13T07:29:02Z</time>
      </trkpt>
      <trkpt lat="49.82544" lon="2.26183">
        <ele>104.4</ele>
        <time>2023-09-13T07:29:03Z</time>
      </trkpt>
      <trkpt lat="49.82546" lon="2.26184">
        <ele>104.4</ele>
        <time>2023-09-13T07:29:05Z</time>
      </trkpt>
      <trkpt lat="49.82548" lon="2.26185">
        <ele>104.4</ele>
        <time>2023-09-13T07:29:06Z</time>
      </trkpt>
      <trkpt lat="49.82549" lon="2.26186">
        <ele>104.4</ele>
        <time>2023-09-13T07:29:07Z</time>
      </trkpt>
      <trkpt lat="49.8255" lon="2.26187">
        <ele>104.4</ele>
        <time>2023-09-13T07:29:08Z</time>
      </trkpt>
      <trkpt lat="49.82551" lon="2.26188">
        <ele>104.4</ele>
        <time>2023-09-13T07:29:09Z</time>
      </trkpt>
      <trkpt lat="49.82553" lon="2.26189">
        <ele>104.4</ele>
        <time>2023-09-13T07:29:10Z</time>
      </trkpt>
      <trkpt lat="49.82554" lon="2.26189">
        <ele>104.4</ele>
        <time>2023-09-13T07:29:11Z</time>
      </trkpt>
      <trkpt lat="49.82556" lon="2.2619">
        <ele>104.4</ele>
        <time>2023-09-13T07:29:12Z</time>
      </trkpt>
      <trkpt lat="49.82557" lon="2.26191">
        <ele>104.4</ele>
        <time>2023-09-13T07:29:13Z</time>
      </trkpt>
      <trkpt lat="49.82558" lon="2.26191">
        <ele>104.4</ele>
        <time>2023-09-13T07:29:14Z</time>
      </trkpt>
      <trkpt lat="49.82559" lon="2.26192">
        <ele>104.4</ele>
        <time>2023-09-13T07:29:16Z</time>
      </trkpt>
      <trkpt lat="49.8256" lon="2.26193">
        <ele>104.4</ele>
        <time>2023-09-13T07:29:17Z</time>
      </trkpt>
      <trkpt lat="49.82561" lon="2.26194">
        <ele>104.4</ele>
        <time>2023-09-13T07:29:18Z</time>
      </trkpt>
      <trkpt lat="49.82563" lon="2.26196">
        <ele>104.4</ele>
        <time>2023-09-13T07:29:19Z</time>
      </trkpt>
      <trkpt lat="49.82563" lon="2.26197">
        <ele>104.4</ele>
        <time>2023-09-13T07:29:20Z</time>
      </trkpt>
      <trkpt lat="49.82564" lon="2.26198">
        <ele>104.3</ele>
        <time>2023-09-13T07:29:22Z</time>
      </trkpt>
      <trkpt lat="49.82565" lon="2.26199">
        <ele>104.3</ele>
        <time>2023-09-13T07:29:23Z</time>
      </trkpt>
      <trkpt lat="49.82565" lon="2.262">
        <ele>104.3</ele>
        <time>2023-09-13T07:29:24Z</time>
      </trkpt>
      <trkpt lat="49.82566" lon="2.26201">
        <ele>104.3</ele>
        <time>2023-09-13T07:29:25Z</time>
      </trkpt>
      <trkpt lat="49.82567" lon="2.26203">
        <ele>104.3</ele>
        <time>2023-09-13T07:29:26Z</time>
      </trkpt>
      <trkpt lat="49.82568" lon="2.26205">
        <ele>104.3</ele>
        <time>2023-09-13T07:29:27Z</time>
      </trkpt>
      <trkpt lat="49.82569" lon="2.26206">
        <ele>104.3</ele>
        <time>2023-09-13T07:29:28Z</time>
      </trkpt>
      <trkpt lat="49.8257" lon="2.26208">
        <ele>104.3</ele>
        <time>2023-09-13T07:29:29Z</time>
      </trkpt>
      <trkpt lat="49.82571" lon="2.2621">
        <ele>104.3</ele>
        <time>2023-09-13T07:29:31Z</time>
      </trkpt>
      <trkpt lat="49.82572" lon="2.26211">
        <ele>104.3</ele>
        <time>2023-09-13T07:29:32Z</time>
      </trkpt>
      <trkpt lat="49.82572" lon="2.26213">
        <ele>104.2</ele>
        <time>2023-09-13T07:29:33Z</time>
      </trkpt>
      <trkpt lat="49.82573" lon="2.26214">
        <ele>104.2</ele>
        <time>2023-09-13T07:29:34Z</time>
      </trkpt>
      <trkpt lat="49.82574" lon="2.26215">
        <ele>104.2</ele>
        <time>2023-09-13T07:29:35Z</time>
      </trkpt>
      <trkpt lat="49.82575" lon="2.26216">
        <ele>104.2</ele>
        <time>2023-09-13T07:29:36Z</time>
      </trkpt>
      <trkpt lat="49.82576" lon="2.26217">
        <ele>104.2</ele>
        <time>2023-09-13T07:29:37Z</time>
      </trkpt>
      <trkpt lat="49.82577" lon="2.26219">
        <ele>104.2</ele>
        <time>2023-09-13T07:29:39Z</time>
      </trkpt>
      <trkpt lat="49.82578" lon="2.26221">
        <ele>104.1</ele>
        <time>2023-09-13T07:29:40Z</time>
      </trkpt>
      <trkpt lat="49.82579" lon="2.26222">
        <ele>104.1</ele>
        <time>2023-09-13T07:29:41Z</time>
      </trkpt>
      <trkpt lat="49.8258" lon="2.26222">
        <ele>104.1</ele>
        <time>2023-09-13T07:29:42Z</time>
      </trkpt>
      <trkpt lat="49.8258" lon="2.26224">
        <ele>104.1</ele>
        <time>2023-09-13T07:29:43Z</time>
      </trkpt>
      <trkpt lat="49.82581" lon="2.26225">
        <ele>104</ele>
        <time>2023-09-13T07:29:44Z</time>
      </trkpt>
      <trkpt lat="49.82582" lon="2.26226">
        <ele>104</ele>
        <time>2023-09-13T07:29:45Z</time>
      </trkpt>
      <trkpt lat="49.82583" lon="2.26228">
        <ele>103.9</ele>
        <time>2023-09-13T07:29:47Z</time>
      </trkpt>
      <trkpt lat="49.82584" lon="2.26229">
        <ele>103.9</ele>
        <time>2023-09-13T07:29:48Z</time>
      </trkpt>
      <trkpt lat="49.82584" lon="2.2623">
        <ele>103.9</ele>
        <time>2023-09-13T07:29:49Z</time>
      </trkpt>
      <trkpt lat="49.82585" lon="2.26231">
        <ele>103.9</ele>
        <time>2023-09-13T07:29:50Z</time>
      </trkpt>
      <trkpt lat="49.82586" lon="2.26232">
        <ele>103.8</ele>
        <time>2023-09-13T07:29:51Z</time>
      </trkpt>
      <trkpt lat="49.82587" lon="2.26233">
        <ele>103.8</ele>
        <time>2023-09-13T07:29:52Z</time>
      </trkpt>
      <trkpt lat="49.82588" lon="2.26235">
        <ele>103.7</ele>
        <time>2023-09-13T07:29:53Z</time>
      </trkpt>
      <trkpt lat="49.82589" lon="2.26236">
        <ele>103.7</ele>
        <time>2023-09-13T07:29:55Z</time>
      </trkpt>
      <trkpt lat="49.8259" lon="2.26237">
        <ele>103.6</ele>
        <time>2023-09-13T07:29:56Z</time>
      </trkpt>
      <trkpt lat="49.82591" lon="2.26238">
        <ele>103.5</ele>
        <time>2023-09-13T07:29:57Z</time>
      </trkpt>
      <trkpt lat="49.82592" lon="2.26241">
        <ele>103.5</ele>
        <time>2023-09-13T07:29:58Z</time>
      </trkpt>
      <trkpt lat="49.82593" lon="2.26242">
        <ele>103.4</ele>
        <time>2023-09-13T07:29:59Z</time>
      </trkpt>
      <trkpt lat="49.82593" lon="2.26243">
        <ele>103.4</ele>
        <time>2023-09-13T07:30:00Z</time>
      </trkpt>
      <trkpt lat="49.82594" lon="2.26245">
        <ele>103.3</ele>
        <time>2023-09-13T07:30:01Z</time>
      </trkpt>
      <trkpt lat="49.82595" lon="2.26247">
        <ele>103.2</ele>
        <time>2023-09-13T07:30:02Z</time>
      </trkpt>
      <trkpt lat="49.82596" lon="2.26249">
        <ele>103.1</ele>
        <time>2023-09-13T07:30:03Z</time>
      </trkpt>
      <trkpt lat="49.82597" lon="2.2625">
        <ele>103.1</ele>
        <time>2023-09-13T07:30:05Z</time>
      </trkpt>
      <trkpt lat="49.82597" lon="2.26251">
        <ele>103.1</ele>
        <time>2023-09-13T07:30:06Z</time>
      </trkpt>
      <trkpt lat="49.82598" lon="2.26252">
        <ele>103</ele>
        <time>2023-09-13T07:30:07Z</time>
      </trkpt>
      <trkpt lat="49.82599" lon="2.26253">
        <ele>103</ele>
        <time>2023-09-13T07:30:08Z</time>
      </trkpt>
      <trkpt lat="49.826" lon="2.26254">
        <ele>102.9</ele>
        <time>2023-09-13T07:30:09Z</time>
      </trkpt>
      <trkpt lat="49.826" lon="2.26255">
        <ele>102.8</ele>
        <time>2023-09-13T07:30:10Z</time>
      </trkpt>
      <trkpt lat="49.82601" lon="2.26256">
        <ele>102.8</ele>
        <time>2023-09-13T07:30:12Z</time>
      </trkpt>
      <trkpt lat="49.82602" lon="2.26257">
        <ele>102.7</ele>
        <time>2023-09-13T07:30:13Z</time>
      </trkpt>
      <trkpt lat="49.82602" lon="2.26258">
        <ele>102.7</ele>
        <time>2023-09-13T07:30:14Z</time>
      </trkpt>
      <trkpt lat="49.82603" lon="2.26259">
        <ele>102.6</ele>
        <time>2023-09-13T07:30:15Z</time>
      </trkpt>
      <trkpt lat="49.82604" lon="2.2626">
        <ele>102.5</ele>
        <time>2023-09-13T07:30:16Z</time>
      </trkpt>
      <trkpt lat="49.82605" lon="2.2626">
        <ele>102.4</ele>
        <time>2023-09-13T07:30:17Z</time>
      </trkpt>
      <trkpt lat="49.82607" lon="2.26261">
        <ele>102.4</ele>
        <time>2023-09-13T07:30:18Z</time>
      </trkpt>
      <trkpt lat="49.82608" lon="2.26262">
        <ele>102.3</ele>
        <time>2023-09-13T07:30:19Z</time>
      </trkpt>
      <trkpt lat="49.8261" lon="2.26263">
        <ele>102.1</ele>
        <time>2023-09-13T07:30:21Z</time>
      </trkpt>
      <trkpt lat="49.82611" lon="2.26263">
        <ele>102.1</ele>
        <time>2023-09-13T07:30:22Z</time>
      </trkpt>
      <trkpt lat="49.82612" lon="2.26263">
        <ele>102</ele>
        <time>2023-09-13T07:30:23Z</time>
      </trkpt>
      <trkpt lat="49.82613" lon="2.26263">
        <ele>101.9</ele>
        <time>2023-09-13T07:30:24Z</time>
      </trkpt>
      <trkpt lat="49.82614" lon="2.26263">
        <ele>101.8</ele>
        <time>2023-09-13T07:30:26Z</time>
      </trkpt>
      <trkpt lat="49.82614" lon="2.26262">
        <ele>101.8</ele>
        <time>2023-09-13T07:30:27Z</time>
      </trkpt>
      <trkpt lat="49.82614" lon="2.2626">
        <ele>101.7</ele>
        <time>2023-09-13T07:30:28Z</time>
      </trkpt>
      <trkpt lat="49.82615" lon="2.2626">
        <ele>101.6</ele>
        <time>2023-09-13T07:30:29Z</time>
      </trkpt>
      <trkpt lat="49.82616" lon="2.2626">
        <ele>101.5</ele>
        <time>2023-09-13T07:30:30Z</time>
      </trkpt>
      <trkpt lat="49.82618" lon="2.2626">
        <ele>101.4</ele>
        <time>2023-09-13T07:30:31Z</time>
      </trkpt>
      <trkpt lat="49.8262" lon="2.2626">
        <ele>101.3</ele>
        <time>2023-09-13T07:30:32Z</time>
      </trkpt>
      <trkpt lat="49.8262" lon="2.2626">
        <ele>101.2</ele>
        <time>2023-09-13T07:30:33Z</time>
      </trkpt>
      <trkpt lat="49.82621" lon="2.26261">
        <ele>101.2</ele>
        <time>2023-09-13T07:30:34Z</time>
      </trkpt>
      <trkpt lat="49.82623" lon="2.26261">
        <ele>101</ele>
        <time>2023-09-13T07:30:35Z</time>
      </trkpt>
      <trkpt lat="49.82624" lon="2.26261">
        <ele>101</ele>
        <time>2023-09-13T07:30:36Z</time>
      </trkpt>
      <trkpt lat="49.82625" lon="2.26261">
        <ele>100.9</ele>
        <time>2023-09-13T07:30:37Z</time>
      </trkpt>
      <trkpt lat="49.82626" lon="2.26261">
        <ele>100.8</ele>
        <time>2023-09-13T07:30:39Z</time>
      </trkpt>
      <trkpt lat="49.82627" lon="2.26261">
        <ele>100.8</ele>
        <time>2023-09-13T07:30:40Z</time>
      </trkpt>
      <trkpt lat="49.82628" lon="2.26261">
        <ele>100.7</ele>
        <time>2023-09-13T07:30:41Z</time>
      </trkpt>
      <trkpt lat="49.8263" lon="2.26261">
        <ele>100.6</ele>
        <time>2023-09-13T07:30:42Z</time>
      </trkpt>
      <trkpt lat="49.82631" lon="2.2626">
        <ele>100.6</ele>
        <time>2023-09-13T07:30:43Z</time>
      </trkpt>
      <trkpt lat="49.82634" lon="2.26259">
        <ele>100.4</ele>
        <time>2023-09-13T07:30:44Z</time>
      </trkpt>
      <trkpt lat="49.82635" lon="2.26259">
        <ele>100.3</ele>
        <time>2023-09-13T07:30:45Z</time>
      </trkpt>
      <trkpt lat="49.82638" lon="2.26258">
        <ele>100.2</ele>
        <time>2023-09-13T07:30:46Z</time>
      </trkpt>
      <trkpt lat="49.82639" lon="2.26258">
        <ele>100.2</ele>
        <time>2023-09-13T07:30:47Z</time>
      </trkpt>
      <trkpt lat="49.82642" lon="2.26257">
        <ele>100</ele>
        <time>2023-09-13T07:30:49Z</time>
      </trkpt>
      <trkpt lat="49.82643" lon="2.26257">
        <ele>100</ele>
        <time>2023-09-13T07:30:50Z</time>
      </trkpt>
      <trkpt lat="49.82644" lon="2.26256">
        <ele>100</ele>
        <time>2023-09-13T07:30:51Z</time>
      </trkpt>
      <trkpt lat="49.82646" lon="2.26255">
        <ele>99.9</ele>
        <time>2023-09-13T07:30:52Z</time>
      </trkpt>
      <trkpt lat="49.82648" lon="2.26254">
        <ele>99.8</ele>
        <time>2023-09-13T07:30:53Z</time>
      </trkpt>
      <trkpt lat="49.82649" lon="2.26253">
        <ele>99.8</ele>
        <time>2023-09-13T07:30:54Z</time>
      </trkpt>
      <trkpt lat="49.82651" lon="2.26252">
        <ele>99.7</ele>
        <time>2023-09-13T07:30:55Z</time>
      </trkpt>
      <trkpt lat="49.82652" lon="2.26252">
        <ele>99.6</ele>
        <time>2023-09-13T07:30:57Z</time>
      </trkpt>
      <trkpt lat="49.82654" lon="2.26251">
        <ele>99.6</ele>
        <time>2023-09-13T07:30:58Z</time>
      </trkpt>
      <trkpt lat="49.82655" lon="2.2625">
        <ele>99.5</ele>
        <time>2023-09-13T07:30:59Z</time>
      </trkpt>
      <trkpt lat="49.82657" lon="2.26249">
        <ele>99.4</ele>
        <time>2023-09-13T07:31:00Z</time>
      </trkpt>
      <trkpt lat="49.82658" lon="2.26249">
        <ele>99.4</ele>
        <time>2023-09-13T07:31:01Z</time>
      </trkpt>
      <trkpt lat="49.82659" lon="2.26249">
        <ele>99.4</ele>
        <time>2023-09-13T07:31:02Z</time>
      </trkpt>
      <trkpt lat="49.82661" lon="2.26248">
        <ele>99.3</ele>
        <time>2023-09-13T07:31:03Z</time>
      </trkpt>
      <trkpt lat="49.82661" lon="2.26247">
        <ele>99.2</ele>
        <time>2023-09-13T07:31:04Z</time>
      </trkpt>
      <trkpt lat="49.82662" lon="2.26247">
        <ele>99.2</ele>
        <time>2023-09-13T07:31:05Z</time>
      </trkpt>
      <trkpt lat="49.82664" lon="2.26246">
        <ele>99.1</ele>
        <time>2023-09-13T07:31:06Z</time>
      </trkpt>
      <trkpt lat="49.82665" lon="2.26246">
        <ele>99.1</ele>
        <time>2023-09-13T07:31:07Z</time>
      </trkpt>
      <trkpt lat="49.82666" lon="2.26245">
        <ele>99.1</ele>
        <time>2023-09-13T07:31:08Z</time>
      </trkpt>
      <trkpt lat="49.82667" lon="2.26245">
        <ele>99</ele>
        <time>2023-09-13T07:31:09Z</time>
      </trkpt>
      <trkpt lat="49.82668" lon="2.26245">
        <ele>99</ele>
        <time>2023-09-13T07:31:11Z</time>
      </trkpt>
      <trkpt lat="49.82669" lon="2.26244">
        <ele>98.9</ele>
        <time>2023-09-13T07:31:12Z</time>
      </trkpt>
      <trkpt lat="49.8267" lon="2.26244">
        <ele>98.9</ele>
        <time>2023-09-13T07:31:13Z</time>
      </trkpt>
      <trkpt lat="49.82671" lon="2.26245">
        <ele>98.9</ele>
        <time>2023-09-13T07:31:14Z</time>
      </trkpt>
      <trkpt lat="49.82672" lon="2.26245">
        <ele>98.8</ele>
        <time>2023-09-13T07:31:15Z</time>
      </trkpt>
      <trkpt lat="49.82674" lon="2.26245">
        <ele>98.7</ele>
        <time>2023-09-13T07:31:16Z</time>
      </trkpt>
      <trkpt lat="49.82675" lon="2.26246">
        <ele>98.7</ele>
        <time>2023-09-13T07:31:18Z</time>
      </trkpt>
      <trkpt lat="49.82676" lon="2.26246">
        <ele>98.7</ele>
        <time>2023-09-13T07:31:20Z</time>
      </trkpt>
      <trkpt lat="49.82677" lon="2.26246">
        <ele>98.7</ele>
        <time>2023-09-13T07:31:21Z</time>
      </trkpt>
      <trkpt lat="49.82678" lon="2.26247">
        <ele>98.6</ele>
        <time>2023-09-13T07:31:22Z</time>
      </trkpt>
      <trkpt lat="49.8268" lon="2.26247">
        <ele>98.6</ele>
        <time>2023-09-13T07:31:23Z</time>
      </trkpt>
      <trkpt lat="49.82681" lon="2.26248">
        <ele>98.6</ele>
        <time>2023-09-13T07:31:24Z</time>
      </trkpt>
      <trkpt lat="49.82682" lon="2.26248">
        <ele>98.5</ele>
        <time>2023-09-13T07:31:25Z</time>
      </trkpt>
      <trkpt lat="49.82682" lon="2.26248">
        <ele>98.5</ele>
        <time>2023-09-13T07:31:26Z</time>
      </trkpt>
      <trkpt lat="49.82683" lon="2.26249">
        <ele>98.5</ele>
        <time>2023-09-13T07:31:27Z</time>
      </trkpt>
      <trkpt lat="49.82684" lon="2.26249">
        <ele>98.5</ele>
        <time>2023-09-13T07:31:28Z</time>
      </trkpt>
      <trkpt lat="49.82685" lon="2.26248">
        <ele>98.4</ele>
        <time>2023-09-13T07:31:29Z</time>
      </trkpt>
      <trkpt lat="49.82686" lon="2.26248">
        <ele>98.4</ele>
        <time>2023-09-13T07:31:30Z</time>
      </trkpt>
      <trkpt lat="49.82687" lon="2.26249">
        <ele>98.4</ele>
        <time>2023-09-13T07:31:31Z</time>
      </trkpt>
      <trkpt lat="49.82688" lon="2.26249">
        <ele>98.4</ele>
        <time>2023-09-13T07:31:32Z</time>
      </trkpt>
      <trkpt lat="49.82689" lon="2.26249">
        <ele>98.3</ele>
        <time>2023-09-13T07:31:34Z</time>
      </trkpt>
      <trkpt lat="49.8269" lon="2.26249">
        <ele>98.3</ele>
        <time>2023-09-13T07:31:35Z</time>
      </trkpt>
      <trkpt lat="49.8269" lon="2.26249">
        <ele>98.3</ele>
        <time>2023-09-13T07:31:36Z</time>
      </trkpt>
      <trkpt lat="49.82691" lon="2.26249">
        <ele>98.3</ele>
        <time>2023-09-13T07:31:37Z</time>
      </trkpt>
      <trkpt lat="49.82692" lon="2.26249">
        <ele>98.3</ele>
        <time>2023-09-13T07:31:38Z</time>
      </trkpt>
      <trkpt lat="49.82693" lon="2.2625">
        <ele>98.3</ele>
        <time>2023-09-13T07:31:39Z</time>
      </trkpt>
      <trkpt lat="49.82694" lon="2.2625">
        <ele>98.2</ele>
        <time>2023-09-13T07:31:41Z</time>
      </trkpt>
      <trkpt lat="49.82695" lon="2.2625">
        <ele>98.2</ele>
        <time>2023-09-13T07:31:42Z</time>
      </trkpt>
      <trkpt lat="49.82696" lon="2.26251">
        <ele>98.2</ele>
        <time>2023-09-13T07:31:43Z</time>
      </trkpt>
      <trkpt lat="49.82698" lon="2.26251">
        <ele>98.2</ele>
        <time>2023-09-13T07:31:44Z</time>
      </trkpt>
      <trkpt lat="49.82699" lon="2.26251">
        <ele>98.1</ele>
        <time>2023-09-13T07:31:45Z</time>
      </trkpt>
      <trkpt lat="49.827" lon="2.26252">
        <ele>98.1</ele>
        <time>2023-09-13T07:31:46Z</time>
      </trkpt>
      <trkpt lat="49.82701" lon="2.26252">
        <ele>98.1</ele>
        <time>2023-09-13T07:31:47Z</time>
      </trkpt>
      <trkpt lat="49.82702" lon="2.26252">
        <ele>98.1</ele>
        <time>2023-09-13T07:31:48Z</time>
      </trkpt>
      <trkpt lat="49.82704" lon="2.26252">
        <ele>98</ele>
        <time>2023-09-13T07:31:49Z</time>
      </trkpt>
      <trkpt lat="49.82705" lon="2.26252">
        <ele>98</ele>
        <time>2023-09-13T07:31:50Z</time>
      </trkpt>
      <trkpt lat="49.82706" lon="2.26252">
        <ele>98</ele>
        <time>2023-09-13T07:31:51Z</time>
      </trkpt>
      <trkpt lat="49.82707" lon="2.26252">
        <ele>98</ele>
        <time>2023-09-13T07:31:52Z</time>
      </trkpt>
      <trkpt lat="49.82708" lon="2.26252">
        <ele>98</ele>
        <time>2023-09-13T07:31:53Z</time>
      </trkpt>
      <trkpt lat="49.82709" lon="2.26252">
        <ele>97.9</ele>
        <time>2023-09-13T07:31:55Z</time>
      </trkpt>
      <trkpt lat="49.82712" lon="2.26252">
        <ele>97.9</ele>
        <time>2023-09-13T07:31:56Z</time>
      </trkpt>
      <trkpt lat="49.82713" lon="2.26252">
        <ele>97.9</ele>
        <time>2023-09-13T07:31:57Z</time>
      </trkpt>
      <trkpt lat="49.82713" lon="2.26252">
        <ele>97.9</ele>
        <time>2023-09-13T07:31:58Z</time>
      </trkpt>
      <trkpt lat="49.82715" lon="2.26252">
        <ele>97.8</ele>
        <time>2023-09-13T07:31:59Z</time>
      </trkpt>
      <trkpt lat="49.82716" lon="2.26252">
        <ele>97.8</ele>
        <time>2023-09-13T07:32:00Z</time>
      </trkpt>
      <trkpt lat="49.82718" lon="2.26251">
        <ele>97.8</ele>
        <time>2023-09-13T07:32:02Z</time>
      </trkpt>
      <trkpt lat="49.82719" lon="2.26251">
        <ele>97.8</ele>
        <time>2023-09-13T07:32:03Z</time>
      </trkpt>
      <trkpt lat="49.8272" lon="2.26251">
        <ele>97.7</ele>
        <time>2023-09-13T07:32:04Z</time>
      </trkpt>
      <trkpt lat="49.82721" lon="2.26251">
        <ele>97.7</ele>
        <time>2023-09-13T07:32:05Z</time>
      </trkpt>
      <trkpt lat="49.82721" lon="2.26251">
        <ele>97.7</ele>
        <time>2023-09-13T07:32:06Z</time>
      </trkpt>
      <trkpt lat="49.82722" lon="2.2625">
        <ele>97.7</ele>
        <time>2023-09-13T07:32:07Z</time>
      </trkpt>
      <trkpt lat="49.82723" lon="2.2625">
        <ele>97.7</ele>
        <time>2023-09-13T07:32:08Z</time>
      </trkpt>
      <trkpt lat="49.82724" lon="2.2625">
        <ele>97.7</ele>
        <time>2023-09-13T07:32:09Z</time>
      </trkpt>
      <trkpt lat="49.82726" lon="2.2625">
        <ele>97.7</ele>
        <time>2023-09-13T07:32:10Z</time>
      </trkpt>
      <trkpt lat="49.82726" lon="2.26249">
        <ele>97.7</ele>
        <time>2023-09-13T07:32:12Z</time>
      </trkpt>
      <trkpt lat="49.82727" lon="2.26249">
        <ele>97.6</ele>
        <time>2023-09-13T07:32:13Z</time>
      </trkpt>
      <trkpt lat="49.82728" lon="2.26249">
        <ele>97.6</ele>
        <time>2023-09-13T07:32:14Z</time>
      </trkpt>
      <trkpt lat="49.82729" lon="2.26249">
        <ele>97.6</ele>
        <time>2023-09-13T07:32:15Z</time>
      </trkpt>
      <trkpt lat="49.82731" lon="2.2625">
        <ele>97.6</ele>
        <time>2023-09-13T07:32:16Z</time>
      </trkpt>
      <trkpt lat="49.82732" lon="2.2625">
        <ele>97.6</ele>
        <time>2023-09-13T07:32:17Z</time>
      </trkpt>
      <trkpt lat="49.82733" lon="2.2625">
        <ele>97.6</ele>
        <time>2023-09-13T07:32:18Z</time>
      </trkpt>
      <trkpt lat="49.82735" lon="2.26251">
        <ele>97.5</ele>
        <time>2023-09-13T07:32:19Z</time>
      </trkpt>
      <trkpt lat="49.82736" lon="2.26251">
        <ele>97.5</ele>
        <time>2023-09-13T07:32:20Z</time>
      </trkpt>
      <trkpt lat="49.82737" lon="2.26251">
        <ele>97.5</ele>
        <time>2023-09-13T07:32:22Z</time>
      </trkpt>
      <trkpt lat="49.82739" lon="2.26251">
        <ele>97.5</ele>
        <time>2023-09-13T07:32:23Z</time>
      </trkpt>
      <trkpt lat="49.8274" lon="2.26251">
        <ele>97.5</ele>
        <time>2023-09-13T07:32:24Z</time>
      </trkpt>
      <trkpt lat="49.82742" lon="2.26251">
        <ele>97.5</ele>
        <time>2023-09-13T07:32:25Z</time>
      </trkpt>
      <trkpt lat="49.82743" lon="2.26251">
        <ele>97.5</ele>
        <time>2023-09-13T07:32:27Z</time>
      </trkpt>
      <trkpt lat="49.82745" lon="2.26251">
        <ele>97.4</ele>
        <time>2023-09-13T07:32:28Z</time>
      </trkpt>
      <trkpt lat="49.82746" lon="2.26251">
        <ele>97.4</ele>
        <time>2023-09-13T07:32:29Z</time>
      </trkpt>
      <trkpt lat="49.82748" lon="2.26251">
        <ele>97.4</ele>
        <time>2023-09-13T07:32:30Z</time>
      </trkpt>
      <trkpt lat="49.82749" lon="2.26251">
        <ele>97.4</ele>
        <time>2023-09-13T07:32:31Z</time>
      </trkpt>
      <trkpt lat="49.8275" lon="2.26251">
        <ele>97.4</ele>
        <time>2023-09-13T07:32:32Z</time>
      </trkpt>
      <trkpt lat="49.82752" lon="2.26252">
        <ele>97.4</ele>
        <time>2023-09-13T07:32:33Z</time>
      </trkpt>
      <trkpt lat="49.82753" lon="2.26252">
        <ele>97.3</ele>
        <time>2023-09-13T07:32:34Z</time>
      </trkpt>
      <trkpt lat="49.82755" lon="2.26252">
        <ele>97.3</ele>
        <time>2023-09-13T07:32:35Z</time>
      </trkpt>
      <trkpt lat="49.82756" lon="2.26252">
        <ele>97.3</ele>
        <time>2023-09-13T07:32:36Z</time>
      </trkpt>
      <trkpt lat="49.82757" lon="2.26252">
        <ele>97.3</ele>
        <time>2023-09-13T07:32:37Z</time>
      </trkpt>
      <trkpt lat="49.82759" lon="2.26252">
        <ele>97.3</ele>
        <time>2023-09-13T07:32:39Z</time>
      </trkpt>
      <trkpt lat="49.8276" lon="2.26252">
        <ele>97.3</ele>
        <time>2023-09-13T07:32:40Z</time>
      </trkpt>
      <trkpt lat="49.82762" lon="2.26253">
        <ele>97.2</ele>
        <time>2023-09-13T07:32:41Z</time>
      </trkpt>
      <trkpt lat="49.82763" lon="2.26253">
        <ele>97.2</ele>
        <time>2023-09-13T07:32:42Z</time>
      </trkpt>
      <trkpt lat="49.82764" lon="2.26254">
        <ele>97.2</ele>
        <time>2023-09-13T07:32:43Z</time>
      </trkpt>
      <trkpt lat="49.82766" lon="2.26254">
        <ele>97.2</ele>
        <time>2023-09-13T07:32:44Z</time>
      </trkpt>
      <trkpt lat="49.82767" lon="2.26255">
        <ele>97.2</ele>
        <time>2023-09-13T07:32:46Z</time>
      </trkpt>
      <trkpt lat="49.82769" lon="2.26256">
        <ele>97.1</ele>
        <time>2023-09-13T07:32:47Z</time>
      </trkpt>
      <trkpt lat="49.8277" lon="2.26257">
        <ele>97.1</ele>
        <time>2023-09-13T07:32:48Z</time>
      </trkpt>
      <trkpt lat="49.82772" lon="2.26258">
        <ele>97.1</ele>
        <time>2023-09-13T07:32:49Z</time>
      </trkpt>
      <trkpt lat="49.82773" lon="2.26259">
        <ele>97</ele>
        <time>2023-09-13T07:32:50Z</time>
      </trkpt>
      <trkpt lat="49.82775" lon="2.2626">
        <ele>97</ele>
        <time>2023-09-13T07:32:51Z</time>
      </trkpt>
      <trkpt lat="49.82777" lon="2.26261">
        <ele>96.9</ele>
        <time>2023-09-13T07:32:53Z</time>
      </trkpt>
      <trkpt lat="49.82779" lon="2.26263">
        <ele>96.9</ele>
        <time>2023-09-13T07:32:54Z</time>
      </trkpt>
      <trkpt lat="49.8278" lon="2.26264">
        <ele>96.9</ele>
        <time>2023-09-13T07:32:55Z</time>
      </trkpt>
      <trkpt lat="49.82782" lon="2.26265">
        <ele>96.8</ele>
        <time>2023-09-13T07:32:56Z</time>
      </trkpt>
      <trkpt lat="49.82783" lon="2.26266">
        <ele>96.8</ele>
        <time>2023-09-13T07:32:57Z</time>
      </trkpt>
      <trkpt lat="49.82785" lon="2.26267">
        <ele>96.7</ele>
        <time>2023-09-13T07:32:58Z</time>
      </trkpt>
      <trkpt lat="49.82786" lon="2.26267">
        <ele>96.7</ele>
        <time>2023-09-13T07:32:59Z</time>
      </trkpt>
      <trkpt lat="49.82787" lon="2.26268">
        <ele>96.6</ele>
        <time>2023-09-13T07:33:00Z</time>
      </trkpt>
      <trkpt lat="49.82788" lon="2.26269">
        <ele>96.6</ele>
        <time>2023-09-13T07:33:01Z</time>
      </trkpt>
      <trkpt lat="49.8279" lon="2.2627">
        <ele>96.5</ele>
        <time>2023-09-13T07:33:02Z</time>
      </trkpt>
      <trkpt lat="49.82793" lon="2.26272">
        <ele>96.4</ele>
        <time>2023-09-13T07:33:03Z</time>
      </trkpt>
      <trkpt lat="49.82794" lon="2.26273">
        <ele>96.3</ele>
        <time>2023-09-13T07:33:05Z</time>
      </trkpt>
      <trkpt lat="49.82795" lon="2.26274">
        <ele>96.3</ele>
        <time>2023-09-13T07:33:06Z</time>
      </trkpt>
      <trkpt lat="49.82797" lon="2.26275">
        <ele>96.2</ele>
        <time>2023-09-13T07:33:07Z</time>
      </trkpt>
      <trkpt lat="49.82799" lon="2.26277">
        <ele>96.1</ele>
        <time>2023-09-13T07:33:08Z</time>
      </trkpt>
      <trkpt lat="49.828" lon="2.26278">
        <ele>96.1</ele>
        <time>2023-09-13T07:33:09Z</time>
      </trkpt>
      <trkpt lat="49.82802" lon="2.26279">
        <ele>96.1</ele>
        <time>2023-09-13T07:33:10Z</time>
      </trkpt>
      <trkpt lat="49.82803" lon="2.2628">
        <ele>96</ele>
        <time>2023-09-13T07:33:11Z</time>
      </trkpt>
      <trkpt lat="49.82804" lon="2.26281">
        <ele>96</ele>
        <time>2023-09-13T07:33:12Z</time>
      </trkpt>
      <trkpt lat="49.82806" lon="2.26282">
        <ele>96</ele>
        <time>2023-09-13T07:33:13Z</time>
      </trkpt>
      <trkpt lat="49.82807" lon="2.26283">
        <ele>95.9</ele>
        <time>2023-09-13T07:33:14Z</time>
      </trkpt>
      <trkpt lat="49.82809" lon="2.26284">
        <ele>95.9</ele>
        <time>2023-09-13T07:33:15Z</time>
      </trkpt>
      <trkpt lat="49.8281" lon="2.26286">
        <ele>95.9</ele>
        <time>2023-09-13T07:33:17Z</time>
      </trkpt>
      <trkpt lat="49.82811" lon="2.26287">
        <ele>95.9</ele>
        <time>2023-09-13T07:33:18Z</time>
      </trkpt>
      <trkpt lat="49.82813" lon="2.26288">
        <ele>95.8</ele>
        <time>2023-09-13T07:33:19Z</time>
      </trkpt>
      <trkpt lat="49.82814" lon="2.26289">
        <ele>95.8</ele>
        <time>2023-09-13T07:33:20Z</time>
      </trkpt>
      <trkpt lat="49.82815" lon="2.26289">
        <ele>95.8</ele>
        <time>2023-09-13T07:33:21Z</time>
      </trkpt>
      <trkpt lat="49.82815" lon="2.2629">
        <ele>95.8</ele>
        <time>2023-09-13T07:33:22Z</time>
      </trkpt>
      <trkpt lat="49.82816" lon="2.26292">
        <ele>95.8</ele>
        <time>2023-09-13T07:33:23Z</time>
      </trkpt>
      <trkpt lat="49.82817" lon="2.26293">
        <ele>95.8</ele>
        <time>2023-09-13T07:33:24Z</time>
      </trkpt>
      <trkpt lat="49.82818" lon="2.26294">
        <ele>95.8</ele>
        <time>2023-09-13T07:33:25Z</time>
      </trkpt>
      <trkpt lat="49.82819" lon="2.26296">
        <ele>95.8</ele>
        <time>2023-09-13T07:33:26Z</time>
      </trkpt>
      <trkpt lat="49.82819" lon="2.26297">
        <ele>95.8</ele>
        <time>2023-09-13T07:33:27Z</time>
      </trkpt>
      <trkpt lat="49.8282" lon="2.26298">
        <ele>95.8</ele>
        <time>2023-09-13T07:33:29Z</time>
      </trkpt>
      <trkpt lat="49.8282" lon="2.263">
        <ele>95.8</ele>
        <time>2023-09-13T07:33:30Z</time>
      </trkpt>
      <trkpt lat="49.82821" lon="2.26301">
        <ele>95.8</ele>
        <time>2023-09-13T07:33:31Z</time>
      </trkpt>
      <trkpt lat="49.82822" lon="2.26302">
        <ele>95.8</ele>
        <time>2023-09-13T07:33:32Z</time>
      </trkpt>
      <trkpt lat="49.82822" lon="2.26304">
        <ele>95.8</ele>
        <time>2023-09-13T07:33:33Z</time>
      </trkpt>
      <trkpt lat="49.82822" lon="2.26305">
        <ele>95.8</ele>
        <time>2023-09-13T07:33:34Z</time>
      </trkpt>
      <trkpt lat="49.82823" lon="2.26307">
        <ele>95.8</ele>
        <time>2023-09-13T07:33:35Z</time>
      </trkpt>
      <trkpt lat="49.82823" lon="2.26309">
        <ele>95.8</ele>
        <time>2023-09-13T07:33:36Z</time>
      </trkpt>
      <trkpt lat="49.82824" lon="2.2631">
        <ele>95.8</ele>
        <time>2023-09-13T07:33:37Z</time>
      </trkpt>
      <trkpt lat="49.82825" lon="2.26313">
        <ele>95.8</ele>
        <time>2023-09-13T07:33:39Z</time>
      </trkpt>
      <trkpt lat="49.82825" lon="2.26314">
        <ele>95.8</ele>
        <time>2023-09-13T07:33:40Z</time>
      </trkpt>
      <trkpt lat="49.82826" lon="2.26315">
        <ele>95.8</ele>
        <time>2023-09-13T07:33:41Z</time>
      </trkpt>
      <trkpt lat="49.82827" lon="2.26316">
        <ele>95.8</ele>
        <time>2023-09-13T07:33:42Z</time>
      </trkpt>
      <trkpt lat="49.82828" lon="2.26318">
        <ele>95.8</ele>
        <time>2023-09-13T07:33:43Z</time>
      </trkpt>
      <trkpt lat="49.82828" lon="2.2632">
        <ele>95.8</ele>
        <time>2023-09-13T07:33:44Z</time>
      </trkpt>
      <trkpt lat="49.82829" lon="2.26321">
        <ele>95.8</ele>
        <time>2023-09-13T07:33:45Z</time>
      </trkpt>
      <trkpt lat="49.8283" lon="2.26323">
        <ele>95.9</ele>
        <time>2023-09-13T07:33:47Z</time>
      </trkpt>
      <trkpt lat="49.82831" lon="2.26325">
        <ele>95.9</ele>
        <time>2023-09-13T07:33:48Z</time>
      </trkpt>
      <trkpt lat="49.82832" lon="2.26327">
        <ele>95.9</ele>
        <time>2023-09-13T07:33:49Z</time>
      </trkpt>
      <trkpt lat="49.82833" lon="2.26328">
        <ele>95.9</ele>
        <time>2023-09-13T07:33:50Z</time>
      </trkpt>
      <trkpt lat="49.82834" lon="2.2633">
        <ele>95.9</ele>
        <time>2023-09-13T07:33:51Z</time>
      </trkpt>
      <trkpt lat="49.82835" lon="2.26332">
        <ele>95.9</ele>
        <time>2023-09-13T07:33:53Z</time>
      </trkpt>
      <trkpt lat="49.82835" lon="2.26334">
        <ele>95.9</ele>
        <time>2023-09-13T07:33:54Z</time>
      </trkpt>
      <trkpt lat="49.82836" lon="2.26335">
        <ele>95.9</ele>
        <time>2023-09-13T07:33:55Z</time>
      </trkpt>
      <trkpt lat="49.82837" lon="2.26337">
        <ele>96</ele>
        <time>2023-09-13T07:33:56Z</time>
      </trkpt>
      <trkpt lat="49.82838" lon="2.26339">
        <ele>96</ele>
        <time>2023-09-13T07:33:58Z</time>
      </trkpt>
      <trkpt lat="49.82839" lon="2.26341">
        <ele>96</ele>
        <time>2023-09-13T07:33:59Z</time>
      </trkpt>
      <trkpt lat="49.8284" lon="2.26343">
        <ele>96</ele>
        <time>2023-09-13T07:34:00Z</time>
      </trkpt>
      <trkpt lat="49.82841" lon="2.26344">
        <ele>96</ele>
        <time>2023-09-13T07:34:01Z</time>
      </trkpt>
      <trkpt lat="49.82842" lon="2.26347">
        <ele>96</ele>
        <time>2023-09-13T07:34:02Z</time>
      </trkpt>
      <trkpt lat="49.82843" lon="2.26349">
        <ele>96.1</ele>
        <time>2023-09-13T07:34:04Z</time>
      </trkpt>
      <trkpt lat="49.82844" lon="2.26351">
        <ele>96.1</ele>
        <time>2023-09-13T07:34:05Z</time>
      </trkpt>
      <trkpt lat="49.82844" lon="2.26353">
        <ele>96.1</ele>
        <time>2023-09-13T07:34:06Z</time>
      </trkpt>
      <trkpt lat="49.82845" lon="2.26355">
        <ele>96.1</ele>
        <time>2023-09-13T07:34:07Z</time>
      </trkpt>
      <trkpt lat="49.82845" lon="2.26357">
        <ele>96.1</ele>
        <time>2023-09-13T07:34:08Z</time>
      </trkpt>
      <trkpt lat="49.82846" lon="2.26358">
        <ele>96.1</ele>
        <time>2023-09-13T07:34:09Z</time>
      </trkpt>
      <trkpt lat="49.82847" lon="2.26361">
        <ele>96.2</ele>
        <time>2023-09-13T07:34:10Z</time>
      </trkpt>
      <trkpt lat="49.82847" lon="2.26363">
        <ele>96.2</ele>
        <time>2023-09-13T07:34:12Z</time>
      </trkpt>
      <trkpt lat="49.82848" lon="2.26364">
        <ele>96.2</ele>
        <time>2023-09-13T07:34:13Z</time>
      </trkpt>
      <trkpt lat="49.82848" lon="2.26365">
        <ele>96.2</ele>
        <time>2023-09-13T07:34:14Z</time>
      </trkpt>
      <trkpt lat="49.82849" lon="2.26367">
        <ele>96.2</ele>
        <time>2023-09-13T07:34:15Z</time>
      </trkpt>
      <trkpt lat="49.82849" lon="2.26368">
        <ele>96.3</ele>
        <time>2023-09-13T07:34:16Z</time>
      </trkpt>
      <trkpt lat="49.8285" lon="2.2637">
        <ele>96.3</ele>
        <time>2023-09-13T07:34:17Z</time>
      </trkpt>
      <trkpt lat="49.82851" lon="2.26371">
        <ele>96.3</ele>
        <time>2023-09-13T07:34:18Z</time>
      </trkpt>
      <trkpt lat="49.82852" lon="2.26374">
        <ele>96.4</ele>
        <time>2023-09-13T07:34:20Z</time>
      </trkpt>
      <trkpt lat="49.82852" lon="2.26375">
        <ele>96.4</ele>
        <time>2023-09-13T07:34:21Z</time>
      </trkpt>
      <trkpt lat="49.82853" lon="2.26376">
        <ele>96.4</ele>
        <time>2023-09-13T07:34:22Z</time>
      </trkpt>
      <trkpt lat="49.82853" lon="2.26377">
        <ele>96.4</ele>
        <time>2023-09-13T07:34:23Z</time>
      </trkpt>
      <trkpt lat="49.82854" lon="2.26379">
        <ele>96.5</ele>
        <time>2023-09-13T07:34:24Z</time>
      </trkpt>
      <trkpt lat="49.82854" lon="2.26381">
        <ele>96.5</ele>
        <time>2023-09-13T07:34:25Z</time>
      </trkpt>
      <trkpt lat="49.82855" lon="2.26384">
        <ele>96.6</ele>
        <time>2023-09-13T07:34:27Z</time>
      </trkpt>
      <trkpt lat="49.82856" lon="2.26385">
        <ele>96.6</ele>
        <time>2023-09-13T07:34:28Z</time>
      </trkpt>
      <trkpt lat="49.82856" lon="2.26386">
        <ele>96.6</ele>
        <time>2023-09-13T07:34:29Z</time>
      </trkpt>
      <trkpt lat="49.82857" lon="2.26388">
        <ele>96.7</ele>
        <time>2023-09-13T07:34:30Z</time>
      </trkpt>
      <trkpt lat="49.82858" lon="2.2639">
        <ele>96.7</ele>
        <time>2023-09-13T07:34:31Z</time>
      </trkpt>
      <trkpt lat="49.82858" lon="2.26391">
        <ele>96.7</ele>
        <time>2023-09-13T07:34:32Z</time>
      </trkpt>
      <trkpt lat="49.82859" lon="2.26392">
        <ele>96.8</ele>
        <time>2023-09-13T07:34:33Z</time>
      </trkpt>
      <trkpt lat="49.8286" lon="2.26394">
        <ele>96.8</ele>
        <time>2023-09-13T07:34:35Z</time>
      </trkpt>
      <trkpt lat="49.82861" lon="2.26396">
        <ele>96.8</ele>
        <time>2023-09-13T07:34:36Z</time>
      </trkpt>
      <trkpt lat="49.82861" lon="2.26397">
        <ele>96.9</ele>
        <time>2023-09-13T07:34:37Z</time>
      </trkpt>
      <trkpt lat="49.82862" lon="2.26398">
        <ele>96.9</ele>
        <time>2023-09-13T07:34:38Z</time>
      </trkpt>
      <trkpt lat="49.82863" lon="2.26399">
        <ele>96.9</ele>
        <time>2023-09-13T07:34:39Z</time>
      </trkpt>
      <trkpt lat="49.82864" lon="2.264">
        <ele>97</ele>
        <time>2023-09-13T07:34:40Z</time>
      </trkpt>
      <trkpt lat="49.82865" lon="2.26402">
        <ele>97</ele>
        <time>2023-09-13T07:34:42Z</time>
      </trkpt>
      <trkpt lat="49.82866" lon="2.26403">
        <ele>97.1</ele>
        <time>2023-09-13T07:34:43Z</time>
      </trkpt>
      <trkpt lat="49.82867" lon="2.26404">
        <ele>97.1</ele>
        <time>2023-09-13T07:34:44Z</time>
      </trkpt>
      <trkpt lat="49.82868" lon="2.26405">
        <ele>97.1</ele>
        <time>2023-09-13T07:34:45Z</time>
      </trkpt>
      <trkpt lat="49.82869" lon="2.26406">
        <ele>97.2</ele>
        <time>2023-09-13T07:34:46Z</time>
      </trkpt>
      <trkpt lat="49.8287" lon="2.26407">
        <ele>97.2</ele>
        <time>2023-09-13T07:34:47Z</time>
      </trkpt>
      <trkpt lat="49.82871" lon="2.26409">
        <ele>97.3</ele>
        <time>2023-09-13T07:34:49Z</time>
      </trkpt>
      <trkpt lat="49.82872" lon="2.2641">
        <ele>97.3</ele>
        <time>2023-09-13T07:34:50Z</time>
      </trkpt>
      <trkpt lat="49.82872" lon="2.26412">
        <ele>97.3</ele>
        <time>2023-09-13T07:34:51Z</time>
      </trkpt>
      <trkpt lat="49.82873" lon="2.26413">
        <ele>97.4</ele>
        <time>2023-09-13T07:34:52Z</time>
      </trkpt>
      <trkpt lat="49.82874" lon="2.26414">
        <ele>97.4</ele>
        <time>2023-09-13T07:34:53Z</time>
      </trkpt>
      <trkpt lat="49.82875" lon="2.26415">
        <ele>97.4</ele>
        <time>2023-09-13T07:34:54Z</time>
      </trkpt>
      <trkpt lat="49.82875" lon="2.26416">
        <ele>97.5</ele>
        <time>2023-09-13T07:34:55Z</time>
      </trkpt>
      <trkpt lat="49.82876" lon="2.26418">
        <ele>97.5</ele>
        <time>2023-09-13T07:34:56Z</time>
      </trkpt>
      <trkpt lat="49.82876" lon="2.26419">
        <ele>97.5</ele>
        <time>2023-09-13T07:34:58Z</time>
      </trkpt>
      <trkpt lat="49.82876" lon="2.2642">
        <ele>97.5</ele>
        <time>2023-09-13T07:34:59Z</time>
      </trkpt>
      <trkpt lat="49.82877" lon="2.26422">
        <ele>97.6</ele>
        <time>2023-09-13T07:35:00Z</time>
      </trkpt>
      <trkpt lat="49.82877" lon="2.26423">
        <ele>97.6</ele>
        <time>2023-09-13T07:35:01Z</time>
      </trkpt>
      <trkpt lat="49.82878" lon="2.26425">
        <ele>97.6</ele>
        <time>2023-09-13T07:35:02Z</time>
      </trkpt>
      <trkpt lat="49.82878" lon="2.26427">
        <ele>97.7</ele>
        <time>2023-09-13T07:35:04Z</time>
      </trkpt>
      <trkpt lat="49.82878" lon="2.26428">
        <ele>97.7</ele>
        <time>2023-09-13T07:35:05Z</time>
      </trkpt>
      <trkpt lat="49.82879" lon="2.26429">
        <ele>97.7</ele>
        <time>2023-09-13T07:35:06Z</time>
      </trkpt>
      <trkpt lat="49.82879" lon="2.26431">
        <ele>97.7</ele>
        <time>2023-09-13T07:35:07Z</time>
      </trkpt>
      <trkpt lat="49.8288" lon="2.26432">
        <ele>97.8</ele>
        <time>2023-09-13T07:35:08Z</time>
      </trkpt>
      <trkpt lat="49.8288" lon="2.26433">
        <ele>97.8</ele>
        <time>2023-09-13T07:35:09Z</time>
      </trkpt>
      <trkpt lat="49.82881" lon="2.26435">
        <ele>97.8</ele>
        <time>2023-09-13T07:35:11Z</time>
      </trkpt>
      <trkpt lat="49.82882" lon="2.26436">
        <ele>97.9</ele>
        <time>2023-09-13T07:35:12Z</time>
      </trkpt>
      <trkpt lat="49.82882" lon="2.26438">
        <ele>97.9</ele>
        <time>2023-09-13T07:35:13Z</time>
      </trkpt>
      <trkpt lat="49.82883" lon="2.26439">
        <ele>97.9</ele>
        <time>2023-09-13T07:35:14Z</time>
      </trkpt>
      <trkpt lat="49.82883" lon="2.26441">
        <ele>98</ele>
        <time>2023-09-13T07:35:15Z</time>
      </trkpt>
      <trkpt lat="49.82884" lon="2.26443">
        <ele>98</ele>
        <time>2023-09-13T07:35:17Z</time>
      </trkpt>
      <trkpt lat="49.82885" lon="2.26444">
        <ele>98</ele>
        <time>2023-09-13T07:35:18Z</time>
      </trkpt>
      <trkpt lat="49.82885" lon="2.26446">
        <ele>98.1</ele>
        <time>2023-09-13T07:35:19Z</time>
      </trkpt>
      <trkpt lat="49.82885" lon="2.26448">
        <ele>98.1</ele>
        <time>2023-09-13T07:35:20Z</time>
      </trkpt>
      <trkpt lat="49.82886" lon="2.26451">
        <ele>98.2</ele>
        <time>2023-09-13T07:35:21Z</time>
      </trkpt>
      <trkpt lat="49.82886" lon="2.26452">
        <ele>98.2</ele>
        <time>2023-09-13T07:35:22Z</time>
      </trkpt>
      <trkpt lat="49.82887" lon="2.26453">
        <ele>98.2</ele>
        <time>2023-09-13T07:35:23Z</time>
      </trkpt>
      <trkpt lat="49.82887" lon="2.26456">
        <ele>98.3</ele>
        <time>2023-09-13T07:35:25Z</time>
      </trkpt>
      <trkpt lat="49.82888" lon="2.26458">
        <ele>98.3</ele>
        <time>2023-09-13T07:35:26Z</time>
      </trkpt>
      <trkpt lat="49.82888" lon="2.26459">
        <ele>98.3</ele>
        <time>2023-09-13T07:35:27Z</time>
      </trkpt>
      <trkpt lat="49.82888" lon="2.26461">
        <ele>98.4</ele>
        <time>2023-09-13T07:35:28Z</time>
      </trkpt>
      <trkpt lat="49.82889" lon="2.26463">
        <ele>98.4</ele>
        <time>2023-09-13T07:35:29Z</time>
      </trkpt>
      <trkpt lat="49.82889" lon="2.26466">
        <ele>98.5</ele>
        <time>2023-09-13T07:35:30Z</time>
      </trkpt>
      <trkpt lat="49.82889" lon="2.26468">
        <ele>98.5</ele>
        <time>2023-09-13T07:35:32Z</time>
      </trkpt>
      <trkpt lat="49.8289" lon="2.26469">
        <ele>98.5</ele>
        <time>2023-09-13T07:35:33Z</time>
      </trkpt>
      <trkpt lat="49.8289" lon="2.26472">
        <ele>98.6</ele>
        <time>2023-09-13T07:35:34Z</time>
      </trkpt>
      <trkpt lat="49.8289" lon="2.26474">
        <ele>98.6</ele>
        <time>2023-09-13T07:35:35Z</time>
      </trkpt>
      <trkpt lat="49.82891" lon="2.26475">
        <ele>98.6</ele>
        <time>2023-09-13T07:35:36Z</time>
      </trkpt>
      <trkpt lat="49.82891" lon="2.26478">
        <ele>98.7</ele>
        <time>2023-09-13T07:35:37Z</time>
      </trkpt>
      <trkpt lat="49.82892" lon="2.26479">
        <ele>98.7</ele>
        <time>2023-09-13T07:35:39Z</time>
      </trkpt>
      <trkpt lat="49.82892" lon="2.2648">
        <ele>98.7</ele>
        <time>2023-09-13T07:35:40Z</time>
      </trkpt>
      <trkpt lat="49.82893" lon="2.26483">
        <ele>98.8</ele>
        <time>2023-09-13T07:35:41Z</time>
      </trkpt>
      <trkpt lat="49.82893" lon="2.26485">
        <ele>98.8</ele>
        <time>2023-09-13T07:35:42Z</time>
      </trkpt>
      <trkpt lat="49.82894" lon="2.26486">
        <ele>98.9</ele>
        <time>2023-09-13T07:35:43Z</time>
      </trkpt>
      <trkpt lat="49.82894" lon="2.26487">
        <ele>98.9</ele>
        <time>2023-09-13T07:35:44Z</time>
      </trkpt>
      <trkpt lat="49.82895" lon="2.26489">
        <ele>98.9</ele>
        <time>2023-09-13T07:35:46Z</time>
      </trkpt>
      <trkpt lat="49.82895" lon="2.2649">
        <ele>99</ele>
        <time>2023-09-13T07:35:47Z</time>
      </trkpt>
      <trkpt lat="49.82896" lon="2.26493">
        <ele>99</ele>
        <time>2023-09-13T07:35:48Z</time>
      </trkpt>
      <trkpt lat="49.82896" lon="2.26494">
        <ele>99.1</ele>
        <time>2023-09-13T07:35:49Z</time>
      </trkpt>
      <trkpt lat="49.82897" lon="2.26495">
        <ele>99.1</ele>
        <time>2023-09-13T07:35:50Z</time>
      </trkpt>
      <trkpt lat="49.82898" lon="2.26497">
        <ele>99.1</ele>
        <time>2023-09-13T07:35:51Z</time>
      </trkpt>
      <trkpt lat="49.82898" lon="2.26498">
        <ele>99.2</ele>
        <time>2023-09-13T07:35:53Z</time>
      </trkpt>
      <trkpt lat="49.82899" lon="2.265">
        <ele>99.2</ele>
        <time>2023-09-13T07:35:54Z</time>
      </trkpt>
      <trkpt lat="49.829" lon="2.26503">
        <ele>99.3</ele>
        <time>2023-09-13T07:35:55Z</time>
      </trkpt>
      <trkpt lat="49.82901" lon="2.26504">
        <ele>99.4</ele>
        <time>2023-09-13T07:35:56Z</time>
      </trkpt>
      <trkpt lat="49.82901" lon="2.26505">
        <ele>99.4</ele>
        <time>2023-09-13T07:35:57Z</time>
      </trkpt>
      <trkpt lat="49.82902" lon="2.26508">
        <ele>99.5</ele>
        <time>2023-09-13T07:35:58Z</time>
      </trkpt>
      <trkpt lat="49.82903" lon="2.2651">
        <ele>99.6</ele>
        <time>2023-09-13T07:36:00Z</time>
      </trkpt>
      <trkpt lat="49.82903" lon="2.26512">
        <ele>99.6</ele>
        <time>2023-09-13T07:36:01Z</time>
      </trkpt>
      <trkpt lat="49.82904" lon="2.26513">
        <ele>99.7</ele>
        <time>2023-09-13T07:36:02Z</time>
      </trkpt>
      <trkpt lat="49.82904" lon="2.26515">
        <ele>99.7</ele>
        <time>2023-09-13T07:36:03Z</time>
      </trkpt>
      <trkpt lat="49.82904" lon="2.26518">
        <ele>99.8</ele>
        <time>2023-09-13T07:36:04Z</time>
      </trkpt>
      <trkpt lat="49.82905" lon="2.26519">
        <ele>99.8</ele>
        <time>2023-09-13T07:36:06Z</time>
      </trkpt>
      <trkpt lat="49.82905" lon="2.26521">
        <ele>99.9</ele>
        <time>2023-09-13T07:36:07Z</time>
      </trkpt>
      <trkpt lat="49.82905" lon="2.26524">
        <ele>100</ele>
        <time>2023-09-13T07:36:08Z</time>
      </trkpt>
      <trkpt lat="49.82905" lon="2.26525">
        <ele>100</ele>
        <time>2023-09-13T07:36:09Z</time>
      </trkpt>
      <trkpt lat="49.82905" lon="2.26527">
        <ele>100</ele>
        <time>2023-09-13T07:36:10Z</time>
      </trkpt>
      <trkpt lat="49.82906" lon="2.2653">
        <ele>100.1</ele>
        <time>2023-09-13T07:36:12Z</time>
      </trkpt>
      <trkpt lat="49.82905" lon="2.26532">
        <ele>100.2</ele>
        <time>2023-09-13T07:36:13Z</time>
      </trkpt>
      <trkpt lat="49.82905" lon="2.26533">
        <ele>100.2</ele>
        <time>2023-09-13T07:36:14Z</time>
      </trkpt>
      <trkpt lat="49.82905" lon="2.26535">
        <ele>100.3</ele>
        <time>2023-09-13T07:36:15Z</time>
      </trkpt>
      <trkpt lat="49.82905" lon="2.26537">
        <ele>100.3</ele>
        <time>2023-09-13T07:36:16Z</time>
      </trkpt>
      <trkpt lat="49.82905" lon="2.26538">
        <ele>100.4</ele>
        <time>2023-09-13T07:36:17Z</time>
      </trkpt>
      <trkpt lat="49.82905" lon="2.26542">
        <ele>100.5</ele>
        <time>2023-09-13T07:36:18Z</time>
      </trkpt>
      <trkpt lat="49.82905" lon="2.26543">
        <ele>100.5</ele>
        <time>2023-09-13T07:36:20Z</time>
      </trkpt>
      <trkpt lat="49.82905" lon="2.26544">
        <ele>100.6</ele>
        <time>2023-09-13T07:36:21Z</time>
      </trkpt>
      <trkpt lat="49.82905" lon="2.26546">
        <ele>100.6</ele>
        <time>2023-09-13T07:36:22Z</time>
      </trkpt>
      <trkpt lat="49.82905" lon="2.26547">
        <ele>100.7</ele>
        <time>2023-09-13T07:36:23Z</time>
      </trkpt>
      <trkpt lat="49.82905" lon="2.26549">
        <ele>100.7</ele>
        <time>2023-09-13T07:36:24Z</time>
      </trkpt>
      <trkpt lat="49.82905" lon="2.26551">
        <ele>100.8</ele>
        <time>2023-09-13T07:36:25Z</time>
      </trkpt>
      <trkpt lat="49.82906" lon="2.26552">
        <ele>100.8</ele>
        <time>2023-09-13T07:36:26Z</time>
      </trkpt>
      <trkpt lat="49.82907" lon="2.26554">
        <ele>100.9</ele>
        <time>2023-09-13T07:36:27Z</time>
      </trkpt>
      <trkpt lat="49.82907" lon="2.26556">
        <ele>100.9</ele>
        <time>2023-09-13T07:36:29Z</time>
      </trkpt>
      <trkpt lat="49.82907" lon="2.26557">
        <ele>101</ele>
        <time>2023-09-13T07:36:30Z</time>
      </trkpt>
      <trkpt lat="49.82908" lon="2.26559">
        <ele>101.1</ele>
        <time>2023-09-13T07:36:31Z</time>
      </trkpt>
      <trkpt lat="49.82908" lon="2.2656">
        <ele>101.1</ele>
        <time>2023-09-13T07:36:32Z</time>
      </trkpt>
      <trkpt lat="49.82909" lon="2.26562">
        <ele>101.2</ele>
        <time>2023-09-13T07:36:33Z</time>
      </trkpt>
      <trkpt lat="49.82909" lon="2.26564">
        <ele>101.2</ele>
        <time>2023-09-13T07:36:35Z</time>
      </trkpt>
      <trkpt lat="49.8291" lon="2.26565">
        <ele>101.3</ele>
        <time>2023-09-13T07:36:36Z</time>
      </trkpt>
      <trkpt lat="49.82911" lon="2.26566">
        <ele>101.3</ele>
        <time>2023-09-13T07:36:37Z</time>
      </trkpt>
      <trkpt lat="49.82911" lon="2.26568">
        <ele>101.4</ele>
        <time>2023-09-13T07:36:38Z</time>
      </trkpt>
      <trkpt lat="49.82912" lon="2.26569">
        <ele>101.4</ele>
        <time>2023-09-13T07:36:39Z</time>
      </trkpt>
      <trkpt lat="49.82913" lon="2.2657">
        <ele>101.5</ele>
        <time>2023-09-13T07:36:40Z</time>
      </trkpt>
      <trkpt lat="49.82913" lon="2.26571">
        <ele>101.5</ele>
        <time>2023-09-13T07:36:41Z</time>
      </trkpt>
      <trkpt lat="49.82914" lon="2.26573">
        <ele>101.6</ele>
        <time>2023-09-13T07:36:43Z</time>
      </trkpt>
      <trkpt lat="49.82915" lon="2.26574">
        <ele>101.6</ele>
        <time>2023-09-13T07:36:44Z</time>
      </trkpt>
      <trkpt lat="49.82915" lon="2.26575">
        <ele>101.7</ele>
        <time>2023-09-13T07:36:45Z</time>
      </trkpt>
      <trkpt lat="49.82916" lon="2.26576">
        <ele>101.7</ele>
        <time>2023-09-13T07:36:46Z</time>
      </trkpt>
      <trkpt lat="49.82917" lon="2.26576">
        <ele>101.7</ele>
        <time>2023-09-13T07:36:47Z</time>
      </trkpt>
      <trkpt lat="49.82918" lon="2.26577">
        <ele>101.8</ele>
        <time>2023-09-13T07:36:49Z</time>
      </trkpt>
      <trkpt lat="49.82919" lon="2.26578">
        <ele>101.9</ele>
        <time>2023-09-13T07:36:50Z</time>
      </trkpt>
      <trkpt lat="49.8292" lon="2.26579">
        <ele>101.9</ele>
        <time>2023-09-13T07:36:51Z</time>
      </trkpt>
      <trkpt lat="49.82921" lon="2.2658">
        <ele>102</ele>
        <time>2023-09-13T07:36:52Z</time>
      </trkpt>
      <trkpt lat="49.82923" lon="2.26581">
        <ele>102.1</ele>
        <time>2023-09-13T07:36:53Z</time>
      </trkpt>
      <trkpt lat="49.82924" lon="2.26582">
        <ele>102.1</ele>
        <time>2023-09-13T07:36:55Z</time>
      </trkpt>
      <trkpt lat="49.82925" lon="2.26583">
        <ele>102.2</ele>
        <time>2023-09-13T07:36:56Z</time>
      </trkpt>
      <trkpt lat="49.82926" lon="2.26584">
        <ele>102.2</ele>
        <time>2023-09-13T07:36:57Z</time>
      </trkpt>
      <trkpt lat="49.82927" lon="2.26584">
        <ele>102.3</ele>
        <time>2023-09-13T07:36:58Z</time>
      </trkpt>
      <trkpt lat="49.82928" lon="2.26585">
        <ele>102.3</ele>
        <time>2023-09-13T07:36:59Z</time>
      </trkpt>
      <trkpt lat="49.82929" lon="2.26588">
        <ele>102.4</ele>
        <time>2023-09-13T07:37:01Z</time>
      </trkpt>
      <trkpt lat="49.8293" lon="2.26589">
        <ele>102.5</ele>
        <time>2023-09-13T07:37:02Z</time>
      </trkpt>
      <trkpt lat="49.82931" lon="2.2659">
        <ele>102.5</ele>
        <time>2023-09-13T07:37:03Z</time>
      </trkpt>
      <trkpt lat="49.82931" lon="2.26591">
        <ele>102.5</ele>
        <time>2023-09-13T07:37:04Z</time>
      </trkpt>
      <trkpt lat="49.82932" lon="2.26592">
        <ele>102.6</ele>
        <time>2023-09-13T07:37:05Z</time>
      </trkpt>
      <trkpt lat="49.82933" lon="2.26593">
        <ele>102.6</ele>
        <time>2023-09-13T07:37:07Z</time>
      </trkpt>
      <trkpt lat="49.82933" lon="2.26594">
        <ele>102.7</ele>
        <time>2023-09-13T07:37:08Z</time>
      </trkpt>
      <trkpt lat="49.82934" lon="2.26596">
        <ele>102.8</ele>
        <time>2023-09-13T07:37:09Z</time>
      </trkpt>
      <trkpt lat="49.82935" lon="2.26597">
        <ele>102.8</ele>
        <time>2023-09-13T07:37:10Z</time>
      </trkpt>
      <trkpt lat="49.82936" lon="2.26598">
        <ele>102.8</ele>
        <time>2023-09-13T07:37:11Z</time>
      </trkpt>
      <trkpt lat="49.82937" lon="2.266">
        <ele>102.9</ele>
        <time>2023-09-13T07:37:13Z</time>
      </trkpt>
      <trkpt lat="49.82938" lon="2.26602">
        <ele>103</ele>
        <time>2023-09-13T07:37:14Z</time>
      </trkpt>
      <trkpt lat="49.82938" lon="2.26603">
        <ele>103</ele>
        <time>2023-09-13T07:37:15Z</time>
      </trkpt>
      <trkpt lat="49.82939" lon="2.26604">
        <ele>103.1</ele>
        <time>2023-09-13T07:37:16Z</time>
      </trkpt>
      <trkpt lat="49.8294" lon="2.26605">
        <ele>103.1</ele>
        <time>2023-09-13T07:37:17Z</time>
      </trkpt>
      <trkpt lat="49.82941" lon="2.26606">
        <ele>103.2</ele>
        <time>2023-09-13T07:37:18Z</time>
      </trkpt>
      <trkpt lat="49.82942" lon="2.26607">
        <ele>103.2</ele>
        <time>2023-09-13T07:37:20Z</time>
      </trkpt>
      <trkpt lat="49.82942" lon="2.26609">
        <ele>103.3</ele>
        <time>2023-09-13T07:37:21Z</time>
      </trkpt>
      <trkpt lat="49.82943" lon="2.2661">
        <ele>103.4</ele>
        <time>2023-09-13T07:37:22Z</time>
      </trkpt>
      <trkpt lat="49.82944" lon="2.26612">
        <ele>103.4</ele>
        <time>2023-09-13T07:37:23Z</time>
      </trkpt>
      <trkpt lat="49.82945" lon="2.26614">
        <ele>103.5</ele>
        <time>2023-09-13T07:37:24Z</time>
      </trkpt>
      <trkpt lat="49.82945" lon="2.26615">
        <ele>103.5</ele>
        <time>2023-09-13T07:37:26Z</time>
      </trkpt>
      <trkpt lat="49.82946" lon="2.26616">
        <ele>103.6</ele>
        <time>2023-09-13T07:37:27Z</time>
      </trkpt>
      <trkpt lat="49.82946" lon="2.26617">
        <ele>103.6</ele>
        <time>2023-09-13T07:37:28Z</time>
      </trkpt>
      <trkpt lat="49.82947" lon="2.26618">
        <ele>103.7</ele>
        <time>2023-09-13T07:37:29Z</time>
      </trkpt>
      <trkpt lat="49.82947" lon="2.2662">
        <ele>103.7</ele>
        <time>2023-09-13T07:37:30Z</time>
      </trkpt>
      <trkpt lat="49.82948" lon="2.26621">
        <ele>103.8</ele>
        <time>2023-09-13T07:37:31Z</time>
      </trkpt>
      <trkpt lat="49.82948" lon="2.26623">
        <ele>103.8</ele>
        <time>2023-09-13T07:37:32Z</time>
      </trkpt>
      <trkpt lat="49.82949" lon="2.26625">
        <ele>103.9</ele>
        <time>2023-09-13T07:37:34Z</time>
      </trkpt>
      <trkpt lat="49.82949" lon="2.26626">
        <ele>103.9</ele>
        <time>2023-09-13T07:37:35Z</time>
      </trkpt>
      <trkpt lat="49.82949" lon="2.26626">
        <ele>103.9</ele>
        <time>2023-09-13T07:37:37Z</time>
      </trkpt>
      <trkpt lat="49.82949" lon="2.26626">
        <ele>103.9</ele>
        <time>2023-09-13T07:37:38Z</time>
      </trkpt>
      <trkpt lat="49.82948" lon="2.26627">
        <ele>104</ele>
        <time>2023-09-13T07:37:40Z</time>
      </trkpt>
      <trkpt lat="49.82948" lon="2.26628">
        <ele>104</ele>
        <time>2023-09-13T07:37:41Z</time>
      </trkpt>
      <trkpt lat="49.82947" lon="2.26628">
        <ele>104</ele>
        <time>2023-09-13T07:37:43Z</time>
      </trkpt>
      <trkpt lat="49.82947" lon="2.26627">
        <ele>104.1</ele>
        <time>2023-09-13T07:37:44Z</time>
      </trkpt>
      <trkpt lat="49.82948" lon="2.26626">
        <ele>104.1</ele>
        <time>2023-09-13T07:37:45Z</time>
      </trkpt>
      <trkpt lat="49.82948" lon="2.26625">
        <ele>104.1</ele>
        <time>2023-09-13T07:37:46Z</time>
      </trkpt>
      <trkpt lat="49.82947" lon="2.26624">
        <ele>104.2</ele>
        <time>2023-09-13T07:37:48Z</time>
      </trkpt>
      <trkpt lat="49.82946" lon="2.26624">
        <ele>104.2</ele>
        <time>2023-09-13T07:37:49Z</time>
      </trkpt>
      <trkpt lat="49.82946" lon="2.26624">
        <ele>104.2</ele>
        <time>2023-09-13T07:37:51Z</time>
      </trkpt>
      <trkpt lat="49.82945" lon="2.26623">
        <ele>104.3</ele>
        <time>2023-09-13T07:37:53Z</time>
      </trkpt>
      <trkpt lat="49.82945" lon="2.26623">
        <ele>104.3</ele>
        <time>2023-09-13T07:37:54Z</time>
      </trkpt>
      <trkpt lat="49.82945" lon="2.26622">
        <ele>104.3</ele>
        <time>2023-09-13T07:37:56Z</time>
      </trkpt>
      <trkpt lat="49.82945" lon="2.26622">
        <ele>104.3</ele>
        <time>2023-09-13T07:37:57Z</time>
      </trkpt>
      <trkpt lat="49.82945" lon="2.26621">
        <ele>104.3</ele>
        <time>2023-09-13T07:37:58Z</time>
      </trkpt>
      <trkpt lat="49.82945" lon="2.2662">
        <ele>104.4</ele>
        <time>2023-09-13T07:38:00Z</time>
      </trkpt>
      <trkpt lat="49.82945" lon="2.2662">
        <ele>104.4</ele>
        <time>2023-09-13T07:38:01Z</time>
      </trkpt>
      <trkpt lat="49.82945" lon="2.2662">
        <ele>104.4</ele>
        <time>2023-09-13T07:38:03Z</time>
      </trkpt>
      <trkpt lat="49.82945" lon="2.2662">
        <ele>104.4</ele>
        <time>2023-09-13T07:38:04Z</time>
      </trkpt>
      <trkpt lat="49.82945" lon="2.2662">
        <ele>104.4</ele>
        <time>2023-09-13T07:38:06Z</time>
      </trkpt>
      <trkpt lat="49.82945" lon="2.2662">
        <ele>104.4</ele>
        <time>2023-09-13T07:38:07Z</time>
      </trkpt>
      <trkpt lat="49.82945" lon="2.2662">
        <ele>104.4</ele>
        <time>2023-09-13T07:38:08Z</time>
      </trkpt>
      <trkpt lat="49.82945" lon="2.26621">
        <ele>104.4</ele>
        <time>2023-09-13T07:38:10Z</time>
      </trkpt>
      <trkpt lat="49.82945" lon="2.26621">
        <ele>104.4</ele>
        <time>2023-09-13T07:38:11Z</time>
      </trkpt>
      <trkpt lat="49.82945" lon="2.26621">
        <ele>104.4</ele>
        <time>2023-09-13T07:38:13Z</time>
      </trkpt>
      <trkpt lat="49.82945" lon="2.26621">
        <ele>104.4</ele>
        <time>2023-09-13T07:38:14Z</time>
      </trkpt>
      <trkpt lat="49.82946" lon="2.26621">
        <ele>104.5</ele>
        <time>2023-09-13T07:38:15Z</time>
      </trkpt>
      <trkpt lat="49.82946" lon="2.26621">
        <ele>104.5</ele>
        <time>2023-09-13T07:38:16Z</time>
      </trkpt>
      <trkpt lat="49.82946" lon="2.26621">
        <ele>104.5</ele>
        <time>2023-09-13T07:38:17Z</time>
      </trkpt>
      <trkpt lat="49.82946" lon="2.26621">
        <ele>104.5</ele>
        <time>2023-09-13T07:38:18Z</time>
      </trkpt>
      <trkpt lat="49.82946" lon="2.26621">
        <ele>104.5</ele>
        <time>2023-09-13T07:38:19Z</time>
      </trkpt>
      <trkpt lat="49.82946" lon="2.26621">
        <ele>104.5</ele>
        <time>2023-09-13T07:38:20Z</time>
      </trkpt>
      <trkpt lat="49.82946" lon="2.26621">
        <ele>104.5</ele>
        <time>2023-09-13T07:38:21Z</time>
      </trkpt>
      <trkpt lat="49.82946" lon="2.26621">
        <ele>104.5</ele>
        <time>2023-09-13T07:38:22Z</time>
      </trkpt>
      <trkpt lat="49.82946" lon="2.26621">
        <ele>104.5</ele>
        <time>2023-09-13T07:38:23Z</time>
      </trkpt>
      <trkpt lat="49.82946" lon="2.26621">
        <ele>104.5</ele>
        <time>2023-09-13T07:38:24Z</time>
      </trkpt>
      <trkpt lat="49.82946" lon="2.26621">
        <ele>104.5</ele>
        <time>2023-09-13T07:38:25Z</time>
      </trkpt>
      <trkpt lat="49.82946" lon="2.26621">
        <ele>104.5</ele>
        <time>2023-09-13T07:38:26Z</time>
      </trkpt>
      <trkpt lat="49.82946" lon="2.26621">
        <ele>104.5</ele>
        <time>2023-09-13T07:38:27Z</time>
      </trkpt>
      <trkpt lat="49.82946" lon="2.26621">
        <ele>104.5</ele>
        <time>2023-09-13T07:38:28Z</time>
      </trkpt>
      <trkpt lat="49.82946" lon="2.26621">
        <ele>104.5</ele>
        <time>2023-09-13T07:38:29Z</time>
      </trkpt>
      <trkpt lat="49.82946" lon="2.26621">
        <ele>104.5</ele>
        <time>2023-09-13T07:38:30Z</time>
      </trkpt>
      <trkpt lat="49.82946" lon="2.26621">
        <ele>104.5</ele>
        <time>2023-09-13T07:38:31Z</time>
      </trkpt>
      <trkpt lat="49.82946" lon="2.26621">
        <ele>104.5</ele>
        <time>2023-09-13T07:38:32Z</time>
      </trkpt>
      <trkpt lat="49.82946" lon="2.26621">
        <ele>104.5</ele>
        <time>2023-09-13T07:38:33Z</time>
      </trkpt>
      <trkpt lat="49.82946" lon="2.26621">
        <ele>104.5</ele>
        <time>2023-09-13T07:38:34Z</time>
      </trkpt>
      <trkpt lat="49.82946" lon="2.26621">
        <ele>104.5</ele>
        <time>2023-09-13T07:38:35Z</time>
      </trkpt>
      <trkpt lat="49.82946" lon="2.26621">
        <ele>104.5</ele>
        <time>2023-09-13T07:38:36Z</time>
      </trkpt>
      <trkpt lat="49.82946" lon="2.26621">
        <ele>104.5</ele>
        <time>2023-09-13T07:38:37Z</time>
      </trkpt>
      <trkpt lat="49.82946" lon="2.26621">
        <ele>104.5</ele>
        <time>2023-09-13T07:38:38Z</time>
      </trkpt>
      <trkpt lat="49.82946" lon="2.26621">
        <ele>104.5</ele>
        <time>2023-09-13T07:38:39Z</time>
      </trkpt>
      <trkpt lat="49.82946" lon="2.26621">
        <ele>104.5</ele>
        <time>2023-09-13T07:38:40Z</time>
      </trkpt>
      <trkpt lat="49.82946" lon="2.26621">
        <ele>104.5</ele>
        <time>2023-09-13T07:38:41Z</time>
      </trkpt>
      <trkpt lat="49.82946" lon="2.26621">
        <ele>104.5</ele>
        <time>2023-09-13T07:38:42Z</time>
      </trkpt>
      <trkpt lat="49.82946" lon="2.26621">
        <ele>104.5</ele>
        <time>2023-09-13T07:38:43Z</time>
      </trkpt>
      <trkpt lat="49.82946" lon="2.26621">
        <ele>104.5</ele>
        <time>2023-09-13T07:38:44Z</time>
      </trkpt>
      <trkpt lat="49.82946" lon="2.26621">
        <ele>104.5</ele>
        <time>2023-09-13T07:38:45Z</time>
      </trkpt>
      <trkpt lat="49.82946" lon="2.26621">
        <ele>104.5</ele>
        <time>2023-09-13T07:38:46Z</time>
      </trkpt>
      <trkpt lat="49.82946" lon="2.26621">
        <ele>104.5</ele>
        <time>2023-09-13T07:38:47Z</time>
      </trkpt>
      <trkpt lat="49.82946" lon="2.26621">
        <ele>104.5</ele>
        <time>2023-09-13T07:38:48Z</time>
      </trkpt>
      <trkpt lat="49.82946" lon="2.26621">
        <ele>104.5</ele>
        <time>2023-09-13T07:38:49Z</time>
      </trkpt>
      <trkpt lat="49.82946" lon="2.26621">
        <ele>104.5</ele>
        <time>2023-09-13T07:38:50Z</time>
      </trkpt>
      <trkpt lat="49.82946" lon="2.26621">
        <ele>104.5</ele>
        <time>2023-09-13T07:38:51Z</time>
      </trkpt>
      <trkpt lat="49.82946" lon="2.26621">
        <ele>104.5</ele>
        <time>2023-09-13T07:38:52Z</time>
      </trkpt>
      <trkpt lat="49.82946" lon="2.26621">
        <ele>104.5</ele>
        <time>2023-09-13T07:38:53Z</time>
      </trkpt>
      <trkpt lat="49.82946" lon="2.26621">
        <ele>104.5</ele>
        <time>2023-09-13T07:38:54Z</time>
      </trkpt>
      <trkpt lat="49.82946" lon="2.26621">
        <ele>104.5</ele>
        <time>2023-09-13T07:38:55Z</time>
      </trkpt>
      <trkpt lat="49.82946" lon="2.26621">
        <ele>104.5</ele>
        <time>2023-09-13T07:38:56Z</time>
      </trkpt>
      <trkpt lat="49.82946" lon="2.26621">
        <ele>104.5</ele>
        <time>2023-09-13T07:38:57Z</time>
      </trkpt>
      <trkpt lat="49.82946" lon="2.26621">
        <ele>104.5</ele>
        <time>2023-09-13T07:38:58Z</time>
      </trkpt>
      <trkpt lat="49.82946" lon="2.26621">
        <ele>104.5</ele>
        <time>2023-09-13T07:38:59Z</time>
      </trkpt>
      <trkpt lat="49.82946" lon="2.26621">
        <ele>104.5</ele>
        <time>2023-09-13T07:39:00Z</time>
      </trkpt>
      <trkpt lat="49.82946" lon="2.26621">
        <ele>104.5</ele>
        <time>2023-09-13T07:39:01Z</time>
      </trkpt>
      <trkpt lat="49.82946" lon="2.26621">
        <ele>104.5</ele>
        <time>2023-09-13T07:39:02Z</time>
      </trkpt>
      <trkpt lat="49.82946" lon="2.26621">
        <ele>104.5</ele>
        <time>2023-09-13T07:39:03Z</time>
      </trkpt>
      <trkpt lat="49.82946" lon="2.26621">
        <ele>104.5</ele>
        <time>2023-09-13T07:39:04Z</time>
      </trkpt>
      <trkpt lat="49.82946" lon="2.26621">
        <ele>104.5</ele>
        <time>2023-09-13T07:39:05Z</time>
      </trkpt>
      <trkpt lat="49.82946" lon="2.26621">
        <ele>104.5</ele>
        <time>2023-09-13T07:39:06Z</time>
      </trkpt>
      <trkpt lat="49.82946" lon="2.26621">
        <ele>104.5</ele>
        <time>2023-09-13T07:39:07Z</time>
      </trkpt>
      <trkpt lat="49.82946" lon="2.26621">
        <ele>104.5</ele>
        <time>2023-09-13T07:39:08Z</time>
      </trkpt>
      <trkpt lat="49.82946" lon="2.26621">
        <ele>104.5</ele>
        <time>2023-09-13T07:39:09Z</time>
      </trkpt>
      <trkpt lat="49.82946" lon="2.26621">
        <ele>104.5</ele>
        <time>2023-09-13T07:39:10Z</time>
      </trkpt>
      <trkpt lat="49.82946" lon="2.26621">
        <ele>104.5</ele>
        <time>2023-09-13T07:39:11Z</time>
      </trkpt>
      <trkpt lat="49.82946" lon="2.26621">
        <ele>104.5</ele>
        <time>2023-09-13T07:39:12Z</time>
      </trkpt>
      <trkpt lat="49.82946" lon="2.26621">
        <ele>104.5</ele>
        <time>2023-09-13T07:39:13Z</time>
      </trkpt>
      <trkpt lat="49.82946" lon="2.26621">
        <ele>104.5</ele>
        <time>2023-09-13T07:39:14Z</time>
      </trkpt>
      <trkpt lat="49.82946" lon="2.26621">
        <ele>104.5</ele>
        <time>2023-09-13T07:39:15Z</time>
      </trkpt>
      <trkpt lat="49.82946" lon="2.26621">
        <ele>104.5</ele>
        <time>2023-09-13T07:39:16Z</time>
      </trkpt>
      <trkpt lat="49.82946" lon="2.26621">
        <ele>104.5</ele>
        <time>2023-09-13T07:39:17Z</time>
      </trkpt>
      <trkpt lat="49.82946" lon="2.26621">
        <ele>104.5</ele>
        <time>2023-09-13T07:39:18Z</time>
      </trkpt>
      <trkpt lat="49.82946" lon="2.26621">
        <ele>104.5</ele>
        <time>2023-09-13T07:39:19Z</time>
      </trkpt>
      <trkpt lat="49.82946" lon="2.26621">
        <ele>104.5</ele>
        <time>2023-09-13T07:39:20Z</time>
      </trkpt>
      <trkpt lat="49.82946" lon="2.26621">
        <ele>104.5</ele>
        <time>2023-09-13T07:39:21Z</time>
      </trkpt>
      <trkpt lat="49.82946" lon="2.26621">
        <ele>104.5</ele>
        <time>2023-09-13T07:39:22Z</time>
      </trkpt>
      <trkpt lat="49.82946" lon="2.26621">
        <ele>104.5</ele>
        <time>2023-09-13T07:39:23Z</time>
      </trkpt>
      <trkpt lat="49.82946" lon="2.26621">
        <ele>104.5</ele>
        <time>2023-09-13T07:39:24Z</time>
      </trkpt>
      <trkpt lat="49.82946" lon="2.26621">
        <ele>104.5</ele>
        <time>2023-09-13T07:39:25Z</time>
      </trkpt>
      <trkpt lat="49.82946" lon="2.26621">
        <ele>104.5</ele>
        <time>2023-09-13T07:39:26Z</time>
      </trkpt>
      <trkpt lat="49.82946" lon="2.26621">
        <ele>104.5</ele>
        <time>2023-09-13T07:39:27Z</time>
      </trkpt>
      <trkpt lat="49.82946" lon="2.26621">
        <ele>104.5</ele>
        <time>2023-09-13T07:39:28Z</time>
      </trkpt>
      <trkpt lat="49.82946" lon="2.26621">
        <ele>104.5</ele>
        <time>2023-09-13T07:39:29Z</time>
      </trkpt>
      <trkpt lat="49.82946" lon="2.26621">
        <ele>104.5</ele>
        <time>2023-09-13T07:39:30Z</time>
      </trkpt>
      <trkpt lat="49.82946" lon="2.26621">
        <ele>104.5</ele>
        <time>2023-09-13T07:39:31Z</time>
      </trkpt>
      <trkpt lat="49.82946" lon="2.26621">
        <ele>104.5</ele>
        <time>2023-09-13T07:39:32Z</time>
      </trkpt>
      <trkpt lat="49.82946" lon="2.26621">
        <ele>104.5</ele>
        <time>2023-09-13T07:39:33Z</time>
      </trkpt>
      <trkpt lat="49.82946" lon="2.26621">
        <ele>104.5</ele>
        <time>2023-09-13T07:39:34Z</time>
      </trkpt>
      <trkpt lat="49.82946" lon="2.26621">
        <ele>104.5</ele>
        <time>2023-09-13T07:39:35Z</time>
      </trkpt>
      <trkpt lat="49.82946" lon="2.26621">
        <ele>104.5</ele>
        <time>2023-09-13T07:39:36Z</time>
      </trkpt>
      <trkpt lat="49.82946" lon="2.26621">
        <ele>104.5</ele>
        <time>2023-09-13T07:39:37Z</time>
      </trkpt>
      <trkpt lat="49.82946" lon="2.26621">
        <ele>104.5</ele>
        <time>2023-09-13T07:39:38Z</time>
      </trkpt>
      <trkpt lat="49.82946" lon="2.26621">
        <ele>104.5</ele>
        <time>2023-09-13T07:39:39Z</time>
      </trkpt>
      <trkpt lat="49.82946" lon="2.26621">
        <ele>104.5</ele>
        <time>2023-09-13T07:39:40Z</time>
      </trkpt>
      <trkpt lat="49.82946" lon="2.26621">
        <ele>104.5</ele>
        <time>2023-09-13T07:39:41Z</time>
      </trkpt>
      <trkpt lat="49.82946" lon="2.26621">
        <ele>104.5</ele>
        <time>2023-09-13T07:39:42Z</time>
      </trkpt>
      <trkpt lat="49.82946" lon="2.26621">
        <ele>104.5</ele>
        <time>2023-09-13T07:39:43Z</time>
      </trkpt>
      <trkpt lat="49.82946" lon="2.26621">
        <ele>104.5</ele>
        <time>2023-09-13T07:39:44Z</time>
      </trkpt>
      <trkpt lat="49.82946" lon="2.26621">
        <ele>104.5</ele>
        <time>2023-09-13T07:39:45Z</time>
      </trkpt>
      <trkpt lat="49.82946" lon="2.26621">
        <ele>104.5</ele>
        <time>2023-09-13T07:39:46Z</time>
      </trkpt>
      <trkpt lat="49.82946" lon="2.26621">
        <ele>104.5</ele>
        <time>2023-09-13T07:39:47Z</time>
      </trkpt>
      <trkpt lat="49.82946" lon="2.26621">
        <ele>104.5</ele>
        <time>2023-09-13T07:39:48Z</time>
      </trkpt>
      <trkpt lat="49.82946" lon="2.26621">
        <ele>104.5</ele>
        <time>2023-09-13T07:39:49Z</time>
      </trkpt>
      <trkpt lat="49.82946" lon="2.26621">
        <ele>104.5</ele>
        <time>2023-09-13T07:39:50Z</time>
      </trkpt>
      <trkpt lat="49.82946" lon="2.26621">
        <ele>104.5</ele>
        <time>2023-09-13T07:39:51Z</time>
      </trkpt>
      <trkpt lat="49.82946" lon="2.26621">
        <ele>104.5</ele>
        <time>2023-09-13T07:39:52Z</time>
      </trkpt>
      <trkpt lat="49.82946" lon="2.26621">
        <ele>104.5</ele>
        <time>2023-09-13T07:39:53Z</time>
      </trkpt>
      <trkpt lat="49.82946" lon="2.26621">
        <ele>104.5</ele>
        <time>2023-09-13T07:39:54Z</time>
      </trkpt>
      <trkpt lat="49.82946" lon="2.26621">
        <ele>104.5</ele>
        <time>2023-09-13T07:39:55Z</time>
      </trkpt>
      <trkpt lat="49.82946" lon="2.26621">
        <ele>104.5</ele>
        <time>2023-09-13T07:39:56Z</time>
      </trkpt>
      <trkpt lat="49.82946" lon="2.26621">
        <ele>104.5</ele>
        <time>2023-09-13T07:39:57Z</time>
      </trkpt>
      <trkpt lat="49.82946" lon="2.26621">
        <ele>104.5</ele>
        <time>2023-09-13T07:39:58Z</time>
      </trkpt>
      <trkpt lat="49.82946" lon="2.26621">
        <ele>104.5</ele>
        <time>2023-09-13T07:39:59Z</time>
      </trkpt>
      <trkpt lat="49.82946" lon="2.26621">
        <ele>104.5</ele>
        <time>2023-09-13T07:40:00Z</time>
      </trkpt>
      <trkpt lat="49.82946" lon="2.26621">
        <ele>104.5</ele>
        <time>2023-09-13T07:40:01Z</time>
      </trkpt>
      <trkpt lat="49.82946" lon="2.26621">
        <ele>104.5</ele>
        <time>2023-09-13T07:40:02Z</time>
      </trkpt>
      <trkpt lat="49.82946" lon="2.26621">
        <ele>104.5</ele>
        <time>2023-09-13T07:40:03Z</time>
      </trkpt>
      <trkpt lat="49.82946" lon="2.26621">
        <ele>104.5</ele>
        <time>2023-09-13T07:40:04Z</time>
      </trkpt>
      <trkpt lat="49.82946" lon="2.26621">
        <ele>104.5</ele>
        <time>2023-09-13T07:40:05Z</time>
      </trkpt>
      <trkpt lat="49.82946" lon="2.26621">
        <ele>104.5</ele>
        <time>2023-09-13T07:40:06Z</time>
      </trkpt>
      <trkpt lat="49.82946" lon="2.26621">
        <ele>104.5</ele>
        <time>2023-09-13T07:40:07Z</time>
      </trkpt>
      <trkpt lat="49.82946" lon="2.2662">
        <ele>104.5</ele>
        <time>2023-09-13T07:40:08Z</time>
      </trkpt>
      <trkpt lat="49.82946" lon="2.2662">
        <ele>104.5</ele>
        <time>2023-09-13T07:40:09Z</time>
      </trkpt>
      <trkpt lat="49.82946" lon="2.2662">
        <ele>104.5</ele>
        <time>2023-09-13T07:40:10Z</time>
      </trkpt>
      <trkpt lat="49.82946" lon="2.2662">
        <ele>104.5</ele>
        <time>2023-09-13T07:40:11Z</time>
      </trkpt>
      <trkpt lat="49.82946" lon="2.2662">
        <ele>104.5</ele>
        <time>2023-09-13T07:40:12Z</time>
      </trkpt>
      <trkpt lat="49.82946" lon="2.2662">
        <ele>104.5</ele>
        <time>2023-09-13T07:40:13Z</time>
      </trkpt>
      <trkpt lat="49.82946" lon="2.2662">
        <ele>104.5</ele>
        <time>2023-09-13T07:40:14Z</time>
      </trkpt>
      <trkpt lat="49.82946" lon="2.2662">
        <ele>104.5</ele>
        <time>2023-09-13T07:40:15Z</time>
      </trkpt>
      <trkpt lat="49.82946" lon="2.2662">
        <ele>104.5</ele>
        <time>2023-09-13T07:40:16Z</time>
      </trkpt>
      <trkpt lat="49.82946" lon="2.2662">
        <ele>104.5</ele>
        <time>2023-09-13T07:40:17Z</time>
      </trkpt>
      <trkpt lat="49.82946" lon="2.2662">
        <ele>104.5</ele>
        <time>2023-09-13T07:40:18Z</time>
      </trkpt>
      <trkpt lat="49.82946" lon="2.2662">
        <ele>104.5</ele>
        <time>2023-09-13T07:40:19Z</time>
      </trkpt>
      <trkpt lat="49.82947" lon="2.2662">
        <ele>104.5</ele>
        <time>2023-09-13T07:40:20Z</time>
      </trkpt>
      <trkpt lat="49.82947" lon="2.2662">
        <ele>104.5</ele>
        <time>2023-09-13T07:40:21Z</time>
      </trkpt>
      <trkpt lat="49.82947" lon="2.2662">
        <ele>104.5</ele>
        <time>2023-09-13T07:40:22Z</time>
      </trkpt>
      <trkpt lat="49.82947" lon="2.2662">
        <ele>104.5</ele>
        <time>2023-09-13T07:40:23Z</time>
      </trkpt>
      <trkpt lat="49.82947" lon="2.2662">
        <ele>104.5</ele>
        <time>2023-09-13T07:40:24Z</time>
      </trkpt>
      <trkpt lat="49.82946" lon="2.2662">
        <ele>104.5</ele>
        <time>2023-09-13T07:40:25Z</time>
      </trkpt>
      <trkpt lat="49.82946" lon="2.2662">
        <ele>104.5</ele>
        <time>2023-09-13T07:40:26Z</time>
      </trkpt>
      <trkpt lat="49.82946" lon="2.2662">
        <ele>104.5</ele>
        <time>2023-09-13T07:40:27Z</time>
      </trkpt>
      <trkpt lat="49.82946" lon="2.2662">
        <ele>104.5</ele>
        <time>2023-09-13T07:40:28Z</time>
      </trkpt>
      <trkpt lat="49.82946" lon="2.2662">
        <ele>104.6</ele>
        <time>2023-09-13T07:40:29Z</time>
      </trkpt>
      <trkpt lat="49.82946" lon="2.2662">
        <ele>104.6</ele>
        <time>2023-09-13T07:40:30Z</time>
      </trkpt>
      <trkpt lat="49.82946" lon="2.2662">
        <ele>104.6</ele>
        <time>2023-09-13T07:40:31Z</time>
      </trkpt>
      <trkpt lat="49.82946" lon="2.2662">
        <ele>104.6</ele>
        <time>2023-09-13T07:40:32Z</time>
      </trkpt>
      <trkpt lat="49.82946" lon="2.26619">
        <ele>104.6</ele>
        <time>2023-09-13T07:40:33Z</time>
      </trkpt>
      <trkpt lat="49.82946" lon="2.26619">
        <ele>104.6</ele>
        <time>2023-09-13T07:40:34Z</time>
      </trkpt>
      <trkpt lat="49.82946" lon="2.26619">
        <ele>104.6</ele>
        <time>2023-09-13T07:40:35Z</time>
      </trkpt>
      <trkpt lat="49.82946" lon="2.26619">
        <ele>104.6</ele>
        <time>2023-09-13T07:40:36Z</time>
      </trkpt>
      <trkpt lat="49.82946" lon="2.26619">
        <ele>104.6</ele>
        <time>2023-09-13T07:40:37Z</time>
      </trkpt>
      <trkpt lat="49.82946" lon="2.26619">
        <ele>104.6</ele>
        <time>2023-09-13T07:40:38Z</time>
      </trkpt>
      <trkpt lat="49.82946" lon="2.26619">
        <ele>104.6</ele>
        <time>2023-09-13T07:40:39Z</time>
      </trkpt>
      <trkpt lat="49.82946" lon="2.26619">
        <ele>104.6</ele>
        <time>2023-09-13T07:40:40Z</time>
      </trkpt>
      <trkpt lat="49.82946" lon="2.26619">
        <ele>104.6</ele>
        <time>2023-09-13T07:40:41Z</time>
      </trkpt>
      <trkpt lat="49.82946" lon="2.26619">
        <ele>104.6</ele>
        <time>2023-09-13T07:40:42Z</time>
      </trkpt>
      <trkpt lat="49.82946" lon="2.26619">
        <ele>104.6</ele>
        <time>2023-09-13T07:40:43Z</time>
      </trkpt>
      <trkpt lat="49.82946" lon="2.26619">
        <ele>104.6</ele>
        <time>2023-09-13T07:40:44Z</time>
      </trkpt>
      <trkpt lat="49.82946" lon="2.26619">
        <ele>104.6</ele>
        <time>2023-09-13T07:40:45Z</time>
      </trkpt>
      <trkpt lat="49.82946" lon="2.26619">
        <ele>104.6</ele>
        <time>2023-09-13T07:40:46Z</time>
      </trkpt>
      <trkpt lat="49.82946" lon="2.26619">
        <ele>104.6</ele>
        <time>2023-09-13T07:40:47Z</time>
      </trkpt>
      <trkpt lat="49.82946" lon="2.26619">
        <ele>104.6</ele>
        <time>2023-09-13T07:40:48Z</time>
      </trkpt>
      <trkpt lat="49.82946" lon="2.26619">
        <ele>104.6</ele>
        <time>2023-09-13T07:40:49Z</time>
      </trkpt>
      <trkpt lat="49.82947" lon="2.26619">
        <ele>104.6</ele>
        <time>2023-09-13T07:40:50Z</time>
      </trkpt>
      <trkpt lat="49.82947" lon="2.26619">
        <ele>104.6</ele>
        <time>2023-09-13T07:40:51Z</time>
      </trkpt>
      <trkpt lat="49.82947" lon="2.26619">
        <ele>104.6</ele>
        <time>2023-09-13T07:40:52Z</time>
      </trkpt>
      <trkpt lat="49.82947" lon="2.26619">
        <ele>104.6</ele>
        <time>2023-09-13T07:40:53Z</time>
      </trkpt>
      <trkpt lat="49.82947" lon="2.26619">
        <ele>104.6</ele>
        <time>2023-09-13T07:40:54Z</time>
      </trkpt>
      <trkpt lat="49.82947" lon="2.26618">
        <ele>104.6</ele>
        <time>2023-09-13T07:40:55Z</time>
      </trkpt>
      <trkpt lat="49.82947" lon="2.26618">
        <ele>104.6</ele>
        <time>2023-09-13T07:40:56Z</time>
      </trkpt>
      <trkpt lat="49.82947" lon="2.26618">
        <ele>104.6</ele>
        <time>2023-09-13T07:40:57Z</time>
      </trkpt>
      <trkpt lat="49.82947" lon="2.26618">
        <ele>104.6</ele>
        <time>2023-09-13T07:40:58Z</time>
      </trkpt>
      <trkpt lat="49.82947" lon="2.26618">
        <ele>104.6</ele>
        <time>2023-09-13T07:40:59Z</time>
      </trkpt>
      <trkpt lat="49.82947" lon="2.26618">
        <ele>104.6</ele>
        <time>2023-09-13T07:41:00Z</time>
      </trkpt>
      <trkpt lat="49.82947" lon="2.26618">
        <ele>104.6</ele>
        <time>2023-09-13T07:41:01Z</time>
      </trkpt>
      <trkpt lat="49.82947" lon="2.26618">
        <ele>104.6</ele>
        <time>2023-09-13T07:41:02Z</time>
      </trkpt>
      <trkpt lat="49.82947" lon="2.26618">
        <ele>104.6</ele>
        <time>2023-09-13T07:41:03Z</time>
      </trkpt>
      <trkpt lat="49.82947" lon="2.26618">
        <ele>104.6</ele>
        <time>2023-09-13T07:41:04Z</time>
      </trkpt>
      <trkpt lat="49.82947" lon="2.26618">
        <ele>104.6</ele>
        <time>2023-09-13T07:41:05Z</time>
      </trkpt>
      <trkpt lat="49.82947" lon="2.26618">
        <ele>104.6</ele>
        <time>2023-09-13T07:41:06Z</time>
      </trkpt>
      <trkpt lat="49.82947" lon="2.26618">
        <ele>104.6</ele>
        <time>2023-09-13T07:41:07Z</time>
      </trkpt>
      <trkpt lat="49.82947" lon="2.26618">
        <ele>104.6</ele>
        <time>2023-09-13T07:41:08Z</time>
      </trkpt>
      <trkpt lat="49.82947" lon="2.26618">
        <ele>104.6</ele>
        <time>2023-09-13T07:41:09Z</time>
      </trkpt>
      <trkpt lat="49.82947" lon="2.26618">
        <ele>104.6</ele>
        <time>2023-09-13T07:41:10Z</time>
      </trkpt>
      <trkpt lat="49.82947" lon="2.26618">
        <ele>104.6</ele>
        <time>2023-09-13T07:41:11Z</time>
      </trkpt>
      <trkpt lat="49.82947" lon="2.26618">
        <ele>104.6</ele>
        <time>2023-09-13T07:41:12Z</time>
      </trkpt>
      <trkpt lat="49.82947" lon="2.26618">
        <ele>104.6</ele>
        <time>2023-09-13T07:41:13Z</time>
      </trkpt>
      <trkpt lat="49.82947" lon="2.26618">
        <ele>104.6</ele>
        <time>2023-09-13T07:41:14Z</time>
      </trkpt>
      <trkpt lat="49.82947" lon="2.26618">
        <ele>104.6</ele>
        <time>2023-09-13T07:41:15Z</time>
      </trkpt>
      <trkpt lat="49.82947" lon="2.26618">
        <ele>104.6</ele>
        <time>2023-09-13T07:41:16Z</time>
      </trkpt>
      <trkpt lat="49.82947" lon="2.26618">
        <ele>104.6</ele>
        <time>2023-09-13T07:41:17Z</time>
      </trkpt>
      <trkpt lat="49.82947" lon="2.26618">
        <ele>104.6</ele>
        <time>2023-09-13T07:41:18Z</time>
      </trkpt>
      <trkpt lat="49.82947" lon="2.26618">
        <ele>104.6</ele>
        <time>2023-09-13T07:41:19Z</time>
      </trkpt>
      <trkpt lat="49.82947" lon="2.26618">
        <ele>104.6</ele>
        <time>2023-09-13T07:41:20Z</time>
      </trkpt>
      <trkpt lat="49.82947" lon="2.26618">
        <ele>104.6</ele>
        <time>2023-09-13T07:41:21Z</time>
      </trkpt>
      <trkpt lat="49.82947" lon="2.26618">
        <ele>104.6</ele>
        <time>2023-09-13T07:41:22Z</time>
      </trkpt>
      <trkpt lat="49.82947" lon="2.26618">
        <ele>104.6</ele>
        <time>2023-09-13T07:41:23Z</time>
      </trkpt>
      <trkpt lat="49.82947" lon="2.26618">
        <ele>104.6</ele>
        <time>2023-09-13T07:41:24Z</time>
      </trkpt>
      <trkpt lat="49.82947" lon="2.26618">
        <ele>104.6</ele>
        <time>2023-09-13T07:41:25Z</time>
      </trkpt>
      <trkpt lat="49.82947" lon="2.26618">
        <ele>104.6</ele>
        <time>2023-09-13T07:41:26Z</time>
      </trkpt>
      <trkpt lat="49.82947" lon="2.26618">
        <ele>104.6</ele>
        <time>2023-09-13T07:41:27Z</time>
      </trkpt>
      <trkpt lat="49.82947" lon="2.26618">
        <ele>104.6</ele>
        <time>2023-09-13T07:41:28Z</time>
      </trkpt>
      <trkpt lat="49.82947" lon="2.26618">
        <ele>104.6</ele>
        <time>2023-09-13T07:41:29Z</time>
      </trkpt>
      <trkpt lat="49.82947" lon="2.26618">
        <ele>104.6</ele>
        <time>2023-09-13T07:41:30Z</time>
      </trkpt>
      <trkpt lat="49.82947" lon="2.26618">
        <ele>104.6</ele>
        <time>2023-09-13T07:41:31Z</time>
      </trkpt>
      <trkpt lat="49.82947" lon="2.26618">
        <ele>104.6</ele>
        <time>2023-09-13T07:41:32Z</time>
      </trkpt>
      <trkpt lat="49.82947" lon="2.26618">
        <ele>104.6</ele>
        <time>2023-09-13T07:41:33Z</time>
      </trkpt>
      <trkpt lat="49.82947" lon="2.26618">
        <ele>104.6</ele>
        <time>2023-09-13T07:41:34Z</time>
      </trkpt>
      <trkpt lat="49.82947" lon="2.26618">
        <ele>104.6</ele>
        <time>2023-09-13T07:41:35Z</time>
      </trkpt>
      <trkpt lat="49.82947" lon="2.26618">
        <ele>104.6</ele>
        <time>2023-09-13T07:41:36Z</time>
      </trkpt>
      <trkpt lat="49.82947" lon="2.26618">
        <ele>104.6</ele>
        <time>2023-09-13T07:41:37Z</time>
      </trkpt>
      <trkpt lat="49.82947" lon="2.26618">
        <ele>104.6</ele>
        <time>2023-09-13T07:41:38Z</time>
      </trkpt>
      <trkpt lat="49.82947" lon="2.26618">
        <ele>104.6</ele>
        <time>2023-09-13T07:41:39Z</time>
      </trkpt>
      <trkpt lat="49.82947" lon="2.26618">
        <ele>104.6</ele>
        <time>2023-09-13T07:41:40Z</time>
      </trkpt>
      <trkpt lat="49.82947" lon="2.26618">
        <ele>104.6</ele>
        <time>2023-09-13T07:41:41Z</time>
      </trkpt>
      <trkpt lat="49.82947" lon="2.26618">
        <ele>104.6</ele>
        <time>2023-09-13T07:41:42Z</time>
      </trkpt>
      <trkpt lat="49.82947" lon="2.26618">
        <ele>104.6</ele>
        <time>2023-09-13T07:41:43Z</time>
      </trkpt>
      <trkpt lat="49.82947" lon="2.26618">
        <ele>104.6</ele>
        <time>2023-09-13T07:41:44Z</time>
      </trkpt>
      <trkpt lat="49.82947" lon="2.26618">
        <ele>104.6</ele>
        <time>2023-09-13T07:41:45Z</time>
      </trkpt>
      <trkpt lat="49.82947" lon="2.26619">
        <ele>104.6</ele>
        <time>2023-09-13T07:41:46Z</time>
      </trkpt>
      <trkpt lat="49.82947" lon="2.26619">
        <ele>104.6</ele>
        <time>2023-09-13T07:41:47Z</time>
      </trkpt>
      <trkpt lat="49.82947" lon="2.26619">
        <ele>104.6</ele>
        <time>2023-09-13T07:41:48Z</time>
      </trkpt>
      <trkpt lat="49.82947" lon="2.26619">
        <ele>104.6</ele>
        <time>2023-09-13T07:41:49Z</time>
      </trkpt>
      <trkpt lat="49.82947" lon="2.2662">
        <ele>104.7</ele>
        <time>2023-09-13T07:41:50Z</time>
      </trkpt>
      <trkpt lat="49.82948" lon="2.2662">
        <ele>104.7</ele>
        <time>2023-09-13T07:41:51Z</time>
      </trkpt>
      <trkpt lat="49.82948" lon="2.26621">
        <ele>104.7</ele>
        <time>2023-09-13T07:41:52Z</time>
      </trkpt>
      <trkpt lat="49.82948" lon="2.26622">
        <ele>104.7</ele>
        <time>2023-09-13T07:41:53Z</time>
      </trkpt>
      <trkpt lat="49.8295" lon="2.26624">
        <ele>104.8</ele>
        <time>2023-09-13T07:41:54Z</time>
      </trkpt>
      <trkpt lat="49.82951" lon="2.26625">
        <ele>104.8</ele>
        <time>2023-09-13T07:41:55Z</time>
      </trkpt>
      <trkpt lat="49.82952" lon="2.26625">
        <ele>104.9</ele>
        <time>2023-09-13T07:41:56Z</time>
      </trkpt>
      <trkpt lat="49.82953" lon="2.26626">
        <ele>104.9</ele>
        <time>2023-09-13T07:41:57Z</time>
      </trkpt>
      <trkpt lat="49.82953" lon="2.26626">
        <ele>104.9</ele>
        <time>2023-09-13T07:41:58Z</time>
      </trkpt>
      <trkpt lat="49.82954" lon="2.26626">
        <ele>104.9</ele>
        <time>2023-09-13T07:41:59Z</time>
      </trkpt>
      <trkpt lat="49.82954" lon="2.26627">
        <ele>105</ele>
        <time>2023-09-13T07:42:00Z</time>
      </trkpt>
      <trkpt lat="49.82954" lon="2.26627">
        <ele>105</ele>
        <time>2023-09-13T07:42:01Z</time>
      </trkpt>
      <trkpt lat="49.82954" lon="2.26627">
        <ele>105</ele>
        <time>2023-09-13T07:42:02Z</time>
      </trkpt>
      <trkpt lat="49.82955" lon="2.26627">
        <ele>105</ele>
        <time>2023-09-13T07:42:03Z</time>
      </trkpt>
      <trkpt lat="49.82955" lon="2.26627">
        <ele>105</ele>
        <time>2023-09-13T07:42:04Z</time>
      </trkpt>
      <trkpt lat="49.82955" lon="2.26628">
        <ele>105</ele>
        <time>2023-09-13T07:42:05Z</time>
      </trkpt>
      <trkpt lat="49.82956" lon="2.26629">
        <ele>105</ele>
        <time>2023-09-13T07:42:06Z</time>
      </trkpt>
      <trkpt lat="49.82956" lon="2.2663">
        <ele>105.1</ele>
        <time>2023-09-13T07:42:07Z</time>
      </trkpt>
      <trkpt lat="49.82957" lon="2.26631">
        <ele>105.1</ele>
        <time>2023-09-13T07:42:08Z</time>
      </trkpt>
      <trkpt lat="49.82957" lon="2.26631">
        <ele>105.1</ele>
        <time>2023-09-13T07:42:09Z</time>
      </trkpt>
      <trkpt lat="49.82958" lon="2.26632">
        <ele>105.1</ele>
        <time>2023-09-13T07:42:10Z</time>
      </trkpt>
      <trkpt lat="49.82958" lon="2.26632">
        <ele>105.1</ele>
        <time>2023-09-13T07:42:11Z</time>
      </trkpt>
      <trkpt lat="49.82959" lon="2.26633">
        <ele>105.2</ele>
        <time>2023-09-13T07:42:12Z</time>
      </trkpt>
      <trkpt lat="49.82959" lon="2.26634">
        <ele>105.2</ele>
        <time>2023-09-13T07:42:13Z</time>
      </trkpt>
      <trkpt lat="49.8296" lon="2.26634">
        <ele>105.2</ele>
        <time>2023-09-13T07:42:14Z</time>
      </trkpt>
      <trkpt lat="49.8296" lon="2.26635">
        <ele>105.2</ele>
        <time>2023-09-13T07:42:15Z</time>
      </trkpt>
      <trkpt lat="49.8296" lon="2.26635">
        <ele>105.2</ele>
        <time>2023-09-13T07:42:16Z</time>
      </trkpt>
      <trkpt lat="49.82961" lon="2.26636">
        <ele>105.3</ele>
        <time>2023-09-13T07:42:17Z</time>
      </trkpt>
      <trkpt lat="49.82962" lon="2.26637">
        <ele>105.3</ele>
        <time>2023-09-13T07:42:18Z</time>
      </trkpt>
      <trkpt lat="49.82962" lon="2.26638">
        <ele>105.3</ele>
        <time>2023-09-13T07:42:19Z</time>
      </trkpt>
      <trkpt lat="49.82963" lon="2.26639">
        <ele>105.3</ele>
        <time>2023-09-13T07:42:20Z</time>
      </trkpt>
      <trkpt lat="49.82964" lon="2.2664">
        <ele>105.4</ele>
        <time>2023-09-13T07:42:21Z</time>
      </trkpt>
      <trkpt lat="49.82964" lon="2.26641">
        <ele>105.4</ele>
        <time>2023-09-13T07:42:22Z</time>
      </trkpt>
      <trkpt lat="49.82965" lon="2.26641">
        <ele>105.4</ele>
        <time>2023-09-13T07:42:23Z</time>
      </trkpt>
      <trkpt lat="49.82965" lon="2.26642">
        <ele>105.4</ele>
        <time>2023-09-13T07:42:24Z</time>
      </trkpt>
      <trkpt lat="49.82965" lon="2.26642">
        <ele>105.4</ele>
        <time>2023-09-13T07:42:25Z</time>
      </trkpt>
      <trkpt lat="49.82966" lon="2.26641">
        <ele>105.5</ele>
        <time>2023-09-13T07:42:26Z</time>
      </trkpt>
      <trkpt lat="49.82967" lon="2.2664">
        <ele>105.5</ele>
        <time>2023-09-13T07:42:28Z</time>
      </trkpt>
      <trkpt lat="49.82968" lon="2.26639">
        <ele>105.5</ele>
        <time>2023-09-13T07:42:29Z</time>
      </trkpt>
      <trkpt lat="49.82968" lon="2.26638">
        <ele>105.6</ele>
        <time>2023-09-13T07:42:30Z</time>
      </trkpt>
      <trkpt lat="49.82969" lon="2.26637">
        <ele>105.6</ele>
        <time>2023-09-13T07:42:31Z</time>
      </trkpt>
      <trkpt lat="49.8297" lon="2.26637">
        <ele>105.6</ele>
        <time>2023-09-13T07:42:32Z</time>
      </trkpt>
      <trkpt lat="49.8297" lon="2.26637">
        <ele>105.6</ele>
        <time>2023-09-13T07:42:33Z</time>
      </trkpt>
      <trkpt lat="49.82972" lon="2.26638">
        <ele>105.7</ele>
        <time>2023-09-13T07:42:34Z</time>
      </trkpt>
      <trkpt lat="49.82972" lon="2.2664">
        <ele>105.7</ele>
        <time>2023-09-13T07:42:36Z</time>
      </trkpt>
      <trkpt lat="49.82973" lon="2.26641">
        <ele>105.7</ele>
        <time>2023-09-13T07:42:37Z</time>
      </trkpt>
      <trkpt lat="49.82974" lon="2.26642">
        <ele>105.8</ele>
        <time>2023-09-13T07:42:38Z</time>
      </trkpt>
      <trkpt lat="49.82974" lon="2.26643">
        <ele>105.8</ele>
        <time>2023-09-13T07:42:39Z</time>
      </trkpt>
      <trkpt lat="49.82975" lon="2.26646">
        <ele>105.8</ele>
        <time>2023-09-13T07:42:40Z</time>
      </trkpt>
      <trkpt lat="49.82976" lon="2.26647">
        <ele>105.9</ele>
        <time>2023-09-13T07:42:41Z</time>
      </trkpt>
      <trkpt lat="49.82976" lon="2.26648">
        <ele>105.9</ele>
        <time>2023-09-13T07:42:43Z</time>
      </trkpt>
      <trkpt lat="49.82977" lon="2.2665">
        <ele>105.9</ele>
        <time>2023-09-13T07:42:44Z</time>
      </trkpt>
      <trkpt lat="49.82979" lon="2.26651">
        <ele>106</ele>
        <time>2023-09-13T07:42:45Z</time>
      </trkpt>
      <trkpt lat="49.8298" lon="2.26653">
        <ele>106</ele>
        <time>2023-09-13T07:42:46Z</time>
      </trkpt>
      <trkpt lat="49.82983" lon="2.26658">
        <ele>106.1</ele>
        <time>2023-09-13T07:42:47Z</time>
      </trkpt>
      <trkpt lat="49.82984" lon="2.26661">
        <ele>106.2</ele>
        <time>2023-09-13T07:42:48Z</time>
      </trkpt>
      <trkpt lat="49.82986" lon="2.26667">
        <ele>106.3</ele>
        <time>2023-09-13T07:42:49Z</time>
      </trkpt>
      <trkpt lat="49.82988" lon="2.26672">
        <ele>106.3</ele>
        <time>2023-09-13T07:42:51Z</time>
      </trkpt>
      <trkpt lat="49.8299" lon="2.26676">
        <ele>106.4</ele>
        <time>2023-09-13T07:42:52Z</time>
      </trkpt>
      <trkpt lat="49.82992" lon="2.26681">
        <ele>106.5</ele>
        <time>2023-09-13T07:42:53Z</time>
      </trkpt>
      <trkpt lat="49.82993" lon="2.26686">
        <ele>106.6</ele>
        <time>2023-09-13T07:42:54Z</time>
      </trkpt>
      <trkpt lat="49.82995" lon="2.2669">
        <ele>106.6</ele>
        <time>2023-09-13T07:42:55Z</time>
      </trkpt>
      <trkpt lat="49.82996" lon="2.26694">
        <ele>106.7</ele>
        <time>2023-09-13T07:42:56Z</time>
      </trkpt>
      <trkpt lat="49.82996" lon="2.26696">
        <ele>106.7</ele>
        <time>2023-09-13T07:42:57Z</time>
      </trkpt>
      <trkpt lat="49.82997" lon="2.26698">
        <ele>106.7</ele>
        <time>2023-09-13T07:42:58Z</time>
      </trkpt>
      <trkpt lat="49.82998" lon="2.267">
        <ele>106.7</ele>
        <time>2023-09-13T07:43:00Z</time>
      </trkpt>
      <trkpt lat="49.82999" lon="2.26702">
        <ele>106.8</ele>
        <time>2023-09-13T07:43:01Z</time>
      </trkpt>
      <trkpt lat="49.83" lon="2.26704">
        <ele>106.8</ele>
        <time>2023-09-13T07:43:02Z</time>
      </trkpt>
      <trkpt lat="49.83002" lon="2.26706">
        <ele>106.8</ele>
        <time>2023-09-13T07:43:03Z</time>
      </trkpt>
      <trkpt lat="49.83002" lon="2.26707">
        <ele>106.8</ele>
        <time>2023-09-13T07:43:04Z</time>
      </trkpt>
      <trkpt lat="49.83003" lon="2.26708">
        <ele>106.8</ele>
        <time>2023-09-13T07:43:05Z</time>
      </trkpt>
      <trkpt lat="49.83004" lon="2.26711">
        <ele>106.9</ele>
        <time>2023-09-13T07:43:06Z</time>
      </trkpt>
      <trkpt lat="49.83005" lon="2.26712">
        <ele>106.9</ele>
        <time>2023-09-13T07:43:08Z</time>
      </trkpt>
      <trkpt lat="49.83005" lon="2.26713">
        <ele>106.9</ele>
        <time>2023-09-13T07:43:09Z</time>
      </trkpt>
      <trkpt lat="49.83006" lon="2.26715">
        <ele>106.9</ele>
        <time>2023-09-13T07:43:10Z</time>
      </trkpt>
      <trkpt lat="49.83007" lon="2.26716">
        <ele>106.9</ele>
        <time>2023-09-13T07:43:11Z</time>
      </trkpt>
      <trkpt lat="49.83009" lon="2.2672">
        <ele>107</ele>
        <time>2023-09-13T07:43:12Z</time>
      </trkpt>
      <trkpt lat="49.8301" lon="2.26721">
        <ele>107</ele>
        <time>2023-09-13T07:43:13Z</time>
      </trkpt>
      <trkpt lat="49.83012" lon="2.26725">
        <ele>107</ele>
        <time>2023-09-13T07:43:15Z</time>
      </trkpt>
      <trkpt lat="49.83013" lon="2.26727">
        <ele>107.1</ele>
        <time>2023-09-13T07:43:16Z</time>
      </trkpt>
      <trkpt lat="49.83014" lon="2.26731">
        <ele>107.1</ele>
        <time>2023-09-13T07:43:17Z</time>
      </trkpt>
      <trkpt lat="49.83015" lon="2.26733">
        <ele>107.1</ele>
        <time>2023-09-13T07:43:18Z</time>
      </trkpt>
      <trkpt lat="49.83016" lon="2.26737">
        <ele>107.2</ele>
        <time>2023-09-13T07:43:19Z</time>
      </trkpt>
      <trkpt lat="49.83017" lon="2.26739">
        <ele>107.2</ele>
        <time>2023-09-13T07:43:20Z</time>
      </trkpt>
      <trkpt lat="49.83018" lon="2.26743">
        <ele>107.3</ele>
        <time>2023-09-13T07:43:21Z</time>
      </trkpt>
      <trkpt lat="49.83019" lon="2.26744">
        <ele>107.3</ele>
        <time>2023-09-13T07:43:22Z</time>
      </trkpt>
      <trkpt lat="49.8302" lon="2.26747">
        <ele>107.4</ele>
        <time>2023-09-13T07:43:24Z</time>
      </trkpt>
      <trkpt lat="49.83021" lon="2.26748">
        <ele>107.4</ele>
        <time>2023-09-13T07:43:25Z</time>
      </trkpt>
      <trkpt lat="49.83021" lon="2.26749">
        <ele>107.4</ele>
        <time>2023-09-13T07:43:26Z</time>
      </trkpt>
      <trkpt lat="49.83022" lon="2.2675">
        <ele>107.4</ele>
        <time>2023-09-13T07:43:27Z</time>
      </trkpt>
      <trkpt lat="49.83023" lon="2.26752">
        <ele>107.5</ele>
        <time>2023-09-13T07:43:28Z</time>
      </trkpt>
      <trkpt lat="49.83023" lon="2.26753">
        <ele>107.5</ele>
        <time>2023-09-13T07:43:29Z</time>
      </trkpt>
      <trkpt lat="49.83024" lon="2.26755">
        <ele>107.5</ele>
        <time>2023-09-13T07:43:30Z</time>
      </trkpt>
      <trkpt lat="49.83024" lon="2.26757">
        <ele>107.6</ele>
        <time>2023-09-13T07:43:31Z</time>
      </trkpt>
      <trkpt lat="49.83025" lon="2.26761">
        <ele>107.7</ele>
        <time>2023-09-13T07:43:33Z</time>
      </trkpt>
      <trkpt lat="49.83026" lon="2.26762">
        <ele>107.7</ele>
        <time>2023-09-13T07:43:34Z</time>
      </trkpt>
      <trkpt lat="49.83026" lon="2.26763">
        <ele>107.8</ele>
        <time>2023-09-13T07:43:35Z</time>
      </trkpt>
      <trkpt lat="49.83027" lon="2.26766">
        <ele>107.9</ele>
        <time>2023-09-13T07:43:36Z</time>
      </trkpt>
      <trkpt lat="49.83027" lon="2.26768">
        <ele>107.9</ele>
        <time>2023-09-13T07:43:37Z</time>
      </trkpt>
      <trkpt lat="49.83027" lon="2.26769">
        <ele>108</ele>
        <time>2023-09-13T07:43:38Z</time>
      </trkpt>
      <trkpt lat="49.83028" lon="2.26771">
        <ele>108</ele>
        <time>2023-09-13T07:43:39Z</time>
      </trkpt>
      <trkpt lat="49.83029" lon="2.26773">
        <ele>108.1</ele>
        <time>2023-09-13T07:43:41Z</time>
      </trkpt>
      <trkpt lat="49.83029" lon="2.26775">
        <ele>108.2</ele>
        <time>2023-09-13T07:43:42Z</time>
      </trkpt>
      <trkpt lat="49.8303" lon="2.26777">
        <ele>108.3</ele>
        <time>2023-09-13T07:43:43Z</time>
      </trkpt>
      <trkpt lat="49.8303" lon="2.26779">
        <ele>108.4</ele>
        <time>2023-09-13T07:43:44Z</time>
      </trkpt>
      <trkpt lat="49.8303" lon="2.26782">
        <ele>108.4</ele>
        <time>2023-09-13T07:43:45Z</time>
      </trkpt>
      <trkpt lat="49.8303" lon="2.26783">
        <ele>108.5</ele>
        <time>2023-09-13T07:43:47Z</time>
      </trkpt>
      <trkpt lat="49.83031" lon="2.26784">
        <ele>108.5</ele>
        <time>2023-09-13T07:43:48Z</time>
      </trkpt>
      <trkpt lat="49.83031" lon="2.26785">
        <ele>108.6</ele>
        <time>2023-09-13T07:43:49Z</time>
      </trkpt>
      <trkpt lat="49.83031" lon="2.26787">
        <ele>108.6</ele>
        <time>2023-09-13T07:43:50Z</time>
      </trkpt>
      <trkpt lat="49.83032" lon="2.26789">
        <ele>108.7</ele>
        <time>2023-09-13T07:43:51Z</time>
      </trkpt>
      <trkpt lat="49.83033" lon="2.26791">
        <ele>108.8</ele>
        <time>2023-09-13T07:43:53Z</time>
      </trkpt>
      <trkpt lat="49.83033" lon="2.26793">
        <ele>108.8</ele>
        <time>2023-09-13T07:43:54Z</time>
      </trkpt>
      <trkpt lat="49.83033" lon="2.26795">
        <ele>108.9</ele>
        <time>2023-09-13T07:43:55Z</time>
      </trkpt>
      <trkpt lat="49.83033" lon="2.26796">
        <ele>108.9</ele>
        <time>2023-09-13T07:43:56Z</time>
      </trkpt>
      <trkpt lat="49.83033" lon="2.26797">
        <ele>109</ele>
        <time>2023-09-13T07:43:57Z</time>
      </trkpt>
      <trkpt lat="49.83032" lon="2.26798">
        <ele>109</ele>
        <time>2023-09-13T07:43:58Z</time>
      </trkpt>
      <trkpt lat="49.83032" lon="2.268">
        <ele>109</ele>
        <time>2023-09-13T07:44:00Z</time>
      </trkpt>
      <trkpt lat="49.83032" lon="2.26801">
        <ele>109.1</ele>
        <time>2023-09-13T07:44:01Z</time>
      </trkpt>
      <trkpt lat="49.83032" lon="2.26803">
        <ele>109.2</ele>
        <time>2023-09-13T07:44:03Z</time>
      </trkpt>
      <trkpt lat="49.83031" lon="2.26804">
        <ele>109.2</ele>
        <time>2023-09-13T07:44:05Z</time>
      </trkpt>
      <trkpt lat="49.83031" lon="2.26806">
        <ele>109.2</ele>
        <time>2023-09-13T07:44:06Z</time>
      </trkpt>
      <trkpt lat="49.83031" lon="2.26806">
        <ele>109.2</ele>
        <time>2023-09-13T07:44:07Z</time>
      </trkpt>
      <trkpt lat="49.83031" lon="2.26807">
        <ele>109.2</ele>
        <time>2023-09-13T07:44:08Z</time>
      </trkpt>
      <trkpt lat="49.83032" lon="2.26809">
        <ele>109.2</ele>
        <time>2023-09-13T07:44:09Z</time>
      </trkpt>
      <trkpt lat="49.83031" lon="2.2681">
        <ele>109.2</ele>
        <time>2023-09-13T07:44:11Z</time>
      </trkpt>
      <trkpt lat="49.83031" lon="2.26811">
        <ele>109.2</ele>
        <time>2023-09-13T07:44:12Z</time>
      </trkpt>
      <trkpt lat="49.83031" lon="2.26812">
        <ele>109.1</ele>
        <time>2023-09-13T07:44:14Z</time>
      </trkpt>
      <trkpt lat="49.8303" lon="2.26813">
        <ele>109.1</ele>
        <time>2023-09-13T07:44:15Z</time>
      </trkpt>
      <trkpt lat="49.8303" lon="2.26814">
        <ele>109.1</ele>
        <time>2023-09-13T07:44:16Z</time>
      </trkpt>
      <trkpt lat="49.83028" lon="2.26814">
        <ele>109.1</ele>
        <time>2023-09-13T07:44:18Z</time>
      </trkpt>
      <trkpt lat="49.83028" lon="2.26814">
        <ele>109.1</ele>
        <time>2023-09-13T07:44:19Z</time>
      </trkpt>
      <trkpt lat="49.83027" lon="2.26813">
        <ele>109.1</ele>
        <time>2023-09-13T07:44:20Z</time>
      </trkpt>
      <trkpt lat="49.83026" lon="2.26812">
        <ele>109.1</ele>
        <time>2023-09-13T07:44:21Z</time>
      </trkpt>
      <trkpt lat="49.83025" lon="2.26812">
        <ele>109.1</ele>
        <time>2023-09-13T07:44:22Z</time>
      </trkpt>
      <trkpt lat="49.83023" lon="2.26811">
        <ele>109.1</ele>
        <time>2023-09-13T07:44:24Z</time>
      </trkpt>
      <trkpt lat="49.83022" lon="2.26811">
        <ele>109.1</ele>
        <time>2023-09-13T07:44:26Z</time>
      </trkpt>
      <trkpt lat="49.83021" lon="2.2681">
        <ele>109.1</ele>
        <time>2023-09-13T07:44:27Z</time>
      </trkpt>
      <trkpt lat="49.8302" lon="2.2681">
        <ele>109.1</ele>
        <time>2023-09-13T07:44:28Z</time>
      </trkpt>
      <trkpt lat="49.83019" lon="2.26809">
        <ele>109.1</ele>
        <time>2023-09-13T07:44:29Z</time>
      </trkpt>
      <trkpt lat="49.83018" lon="2.26809">
        <ele>109.1</ele>
        <time>2023-09-13T07:44:30Z</time>
      </trkpt>
      <trkpt lat="49.83017" lon="2.26808">
        <ele>109.1</ele>
        <time>2023-09-13T07:44:32Z</time>
      </trkpt>
      <trkpt lat="49.83017" lon="2.26808">
        <ele>109.1</ele>
        <time>2023-09-13T07:44:33Z</time>
      </trkpt>
      <trkpt lat="49.83016" lon="2.26808">
        <ele>109.1</ele>
        <time>2023-09-13T07:44:34Z</time>
      </trkpt>
      <trkpt lat="49.83015" lon="2.26808">
        <ele>109.1</ele>
        <time>2023-09-13T07:44:35Z</time>
      </trkpt>
      <trkpt lat="49.83015" lon="2.2681">
        <ele>109.1</ele>
        <time>2023-09-13T07:44:36Z</time>
      </trkpt>
      <trkpt lat="49.83015" lon="2.26811">
        <ele>109.1</ele>
        <time>2023-09-13T07:44:37Z</time>
      </trkpt>
      <trkpt lat="49.83015" lon="2.26812">
        <ele>109</ele>
        <time>2023-09-13T07:44:38Z</time>
      </trkpt>
      <trkpt lat="49.83014" lon="2.26814">
        <ele>109</ele>
        <time>2023-09-13T07:44:39Z</time>
      </trkpt>
      <trkpt lat="49.83014" lon="2.26815">
        <ele>109</ele>
        <time>2023-09-13T07:44:40Z</time>
      </trkpt>
      <trkpt lat="49.83014" lon="2.26817">
        <ele>109</ele>
        <time>2023-09-13T07:44:42Z</time>
      </trkpt>
      <trkpt lat="49.83013" lon="2.2682">
        <ele>109</ele>
        <time>2023-09-13T07:44:43Z</time>
      </trkpt>
      <trkpt lat="49.83012" lon="2.26821">
        <ele>109</ele>
        <time>2023-09-13T07:44:44Z</time>
      </trkpt>
      <trkpt lat="49.83012" lon="2.26825">
        <ele>109</ele>
        <time>2023-09-13T07:44:45Z</time>
      </trkpt>
      <trkpt lat="49.83011" lon="2.26826">
        <ele>109</ele>
        <time>2023-09-13T07:44:46Z</time>
      </trkpt>
      <trkpt lat="49.83011" lon="2.26827">
        <ele>109</ele>
        <time>2023-09-13T07:44:47Z</time>
      </trkpt>
      <trkpt lat="49.8301" lon="2.26829">
        <ele>109</ele>
        <time>2023-09-13T07:44:48Z</time>
      </trkpt>
      <trkpt lat="49.8301" lon="2.26831">
        <ele>109</ele>
        <time>2023-09-13T07:44:50Z</time>
      </trkpt>
      <trkpt lat="49.83009" lon="2.26833">
        <ele>109</ele>
        <time>2023-09-13T07:44:51Z</time>
      </trkpt>
      <trkpt lat="49.83009" lon="2.26834">
        <ele>109</ele>
        <time>2023-09-13T07:44:52Z</time>
      </trkpt>
      <trkpt lat="49.83008" lon="2.26836">
        <ele>108.9</ele>
        <time>2023-09-13T07:44:53Z</time>
      </trkpt>
      <trkpt lat="49.83008" lon="2.26837">
        <ele>108.9</ele>
        <time>2023-09-13T07:44:55Z</time>
      </trkpt>
      <trkpt lat="49.83007" lon="2.26838">
        <ele>108.9</ele>
        <time>2023-09-13T07:44:56Z</time>
      </trkpt>
      <trkpt lat="49.83007" lon="2.26839">
        <ele>108.9</ele>
        <time>2023-09-13T07:44:57Z</time>
      </trkpt>
      <trkpt lat="49.83006" lon="2.26839">
        <ele>108.9</ele>
        <time>2023-09-13T07:44:58Z</time>
      </trkpt>
      <trkpt lat="49.83006" lon="2.26841">
        <ele>108.9</ele>
        <time>2023-09-13T07:44:59Z</time>
      </trkpt>
      <trkpt lat="49.83005" lon="2.26842">
        <ele>108.9</ele>
        <time>2023-09-13T07:45:00Z</time>
      </trkpt>
      <trkpt lat="49.83003" lon="2.26845">
        <ele>108.9</ele>
        <time>2023-09-13T07:45:02Z</time>
      </trkpt>
      <trkpt lat="49.83002" lon="2.26847">
        <ele>108.9</ele>
        <time>2023-09-13T07:45:03Z</time>
      </trkpt>
      <trkpt lat="49.83001" lon="2.26849">
        <ele>108.9</ele>
        <time>2023-09-13T07:45:04Z</time>
      </trkpt>
      <trkpt lat="49.83" lon="2.26852">
        <ele>108.9</ele>
        <time>2023-09-13T07:45:06Z</time>
      </trkpt>
      <trkpt lat="49.83" lon="2.26853">
        <ele>108.9</ele>
        <time>2023-09-13T07:45:07Z</time>
      </trkpt>
      <trkpt lat="49.83" lon="2.26854">
        <ele>108.9</ele>
        <time>2023-09-13T07:45:08Z</time>
      </trkpt>
      <trkpt lat="49.83" lon="2.26855">
        <ele>108.9</ele>
        <time>2023-09-13T07:45:09Z</time>
      </trkpt>
      <trkpt lat="49.82999" lon="2.26857">
        <ele>108.9</ele>
        <time>2023-09-13T07:45:11Z</time>
      </trkpt>
      <trkpt lat="49.82998" lon="2.26858">
        <ele>108.9</ele>
        <time>2023-09-13T07:45:12Z</time>
      </trkpt>
      <trkpt lat="49.82998" lon="2.26859">
        <ele>108.9</ele>
        <time>2023-09-13T07:45:13Z</time>
      </trkpt>
      <trkpt lat="49.82997" lon="2.2686">
        <ele>108.9</ele>
        <time>2023-09-13T07:45:14Z</time>
      </trkpt>
      <trkpt lat="49.82997" lon="2.26862">
        <ele>108.9</ele>
        <time>2023-09-13T07:45:15Z</time>
      </trkpt>
      <trkpt lat="49.82996" lon="2.26863">
        <ele>108.9</ele>
        <time>2023-09-13T07:45:17Z</time>
      </trkpt>
      <trkpt lat="49.82995" lon="2.26864">
        <ele>108.9</ele>
        <time>2023-09-13T07:45:18Z</time>
      </trkpt>
      <trkpt lat="49.82995" lon="2.26865">
        <ele>108.9</ele>
        <time>2023-09-13T07:45:19Z</time>
      </trkpt>
      <trkpt lat="49.82994" lon="2.26867">
        <ele>108.9</ele>
        <time>2023-09-13T07:45:20Z</time>
      </trkpt>
      <trkpt lat="49.82994" lon="2.26868">
        <ele>108.9</ele>
        <time>2023-09-13T07:45:21Z</time>
      </trkpt>
      <trkpt lat="49.82993" lon="2.2687">
        <ele>108.9</ele>
        <time>2023-09-13T07:45:22Z</time>
      </trkpt>
      <trkpt lat="49.82992" lon="2.26871">
        <ele>108.9</ele>
        <time>2023-09-13T07:45:24Z</time>
      </trkpt>
      <trkpt lat="49.82991" lon="2.26873">
        <ele>108.9</ele>
        <time>2023-09-13T07:45:25Z</time>
      </trkpt>
      <trkpt lat="49.8299" lon="2.26875">
        <ele>108.9</ele>
        <time>2023-09-13T07:45:26Z</time>
      </trkpt>
      <trkpt lat="49.8299" lon="2.26876">
        <ele>108.9</ele>
        <time>2023-09-13T07:45:27Z</time>
      </trkpt>
      <trkpt lat="49.82989" lon="2.26877">
        <ele>108.9</ele>
        <time>2023-09-13T07:45:28Z</time>
      </trkpt>
      <trkpt lat="49.82989" lon="2.26879">
        <ele>108.9</ele>
        <time>2023-09-13T07:45:29Z</time>
      </trkpt>
      <trkpt lat="49.82988" lon="2.26881">
        <ele>108.9</ele>
        <time>2023-09-13T07:45:30Z</time>
      </trkpt>
      <trkpt lat="49.82988" lon="2.26883">
        <ele>108.9</ele>
        <time>2023-09-13T07:45:31Z</time>
      </trkpt>
      <trkpt lat="49.82987" lon="2.26885">
        <ele>108.9</ele>
        <time>2023-09-13T07:45:32Z</time>
      </trkpt>
      <trkpt lat="49.82987" lon="2.26886">
        <ele>109</ele>
        <time>2023-09-13T07:45:33Z</time>
      </trkpt>
      <trkpt lat="49.82986" lon="2.26887">
        <ele>109</ele>
        <time>2023-09-13T07:45:34Z</time>
      </trkpt>
      <trkpt lat="49.82986" lon="2.26889">
        <ele>109</ele>
        <time>2023-09-13T07:45:35Z</time>
      </trkpt>
      <trkpt lat="49.82985" lon="2.26891">
        <ele>109</ele>
        <time>2023-09-13T07:45:37Z</time>
      </trkpt>
      <trkpt lat="49.82984" lon="2.26892">
        <ele>109</ele>
        <time>2023-09-13T07:45:38Z</time>
      </trkpt>
      <trkpt lat="49.82984" lon="2.26894">
        <ele>109</ele>
        <time>2023-09-13T07:45:39Z</time>
      </trkpt>
      <trkpt lat="49.82983" lon="2.26895">
        <ele>109</ele>
        <time>2023-09-13T07:45:40Z</time>
      </trkpt>
      <trkpt lat="49.82982" lon="2.26897">
        <ele>109</ele>
        <time>2023-09-13T07:45:41Z</time>
      </trkpt>
      <trkpt lat="49.82982" lon="2.26899">
        <ele>109</ele>
        <time>2023-09-13T07:45:42Z</time>
      </trkpt>
      <trkpt lat="49.82981" lon="2.26901">
        <ele>109.1</ele>
        <time>2023-09-13T07:45:44Z</time>
      </trkpt>
      <trkpt lat="49.8298" lon="2.26902">
        <ele>109.1</ele>
        <time>2023-09-13T07:45:45Z</time>
      </trkpt>
      <trkpt lat="49.82979" lon="2.26904">
        <ele>109.1</ele>
        <time>2023-09-13T07:45:46Z</time>
      </trkpt>
      <trkpt lat="49.82978" lon="2.26907">
        <ele>109.1</ele>
        <time>2023-09-13T07:45:47Z</time>
      </trkpt>
      <trkpt lat="49.82978" lon="2.26908">
        <ele>109.1</ele>
        <time>2023-09-13T07:45:48Z</time>
      </trkpt>
      <trkpt lat="49.82977" lon="2.26909">
        <ele>109.1</ele>
        <time>2023-09-13T07:45:49Z</time>
      </trkpt>
      <trkpt lat="49.82976" lon="2.26913">
        <ele>109.1</ele>
        <time>2023-09-13T07:45:50Z</time>
      </trkpt>
      <trkpt lat="49.82976" lon="2.26914">
        <ele>109.1</ele>
        <time>2023-09-13T07:45:52Z</time>
      </trkpt>
      <trkpt lat="49.82976" lon="2.26916">
        <ele>109.1</ele>
        <time>2023-09-13T07:45:53Z</time>
      </trkpt>
      <trkpt lat="49.82975" lon="2.26917">
        <ele>109.1</ele>
        <time>2023-09-13T07:45:54Z</time>
      </trkpt>
      <trkpt lat="49.82975" lon="2.26919">
        <ele>109.1</ele>
        <time>2023-09-13T07:45:55Z</time>
      </trkpt>
      <trkpt lat="49.82974" lon="2.26921">
        <ele>109.1</ele>
        <time>2023-09-13T07:45:56Z</time>
      </trkpt>
      <trkpt lat="49.82974" lon="2.26922">
        <ele>109.1</ele>
        <time>2023-09-13T07:45:57Z</time>
      </trkpt>
      <trkpt lat="49.82973" lon="2.26925">
        <ele>109.2</ele>
        <time>2023-09-13T07:45:59Z</time>
      </trkpt>
      <trkpt lat="49.82972" lon="2.26928">
        <ele>109.2</ele>
        <time>2023-09-13T07:46:00Z</time>
      </trkpt>
      <trkpt lat="49.82971" lon="2.26929">
        <ele>109.2</ele>
        <time>2023-09-13T07:46:01Z</time>
      </trkpt>
      <trkpt lat="49.82971" lon="2.2693">
        <ele>109.2</ele>
        <time>2023-09-13T07:46:02Z</time>
      </trkpt>
      <trkpt lat="49.8297" lon="2.26932">
        <ele>109.2</ele>
        <time>2023-09-13T07:46:03Z</time>
      </trkpt>
      <trkpt lat="49.8297" lon="2.26934">
        <ele>109.2</ele>
        <time>2023-09-13T07:46:04Z</time>
      </trkpt>
      <trkpt lat="49.8297" lon="2.26936">
        <ele>109.2</ele>
        <time>2023-09-13T07:46:05Z</time>
      </trkpt>
      <trkpt lat="49.82969" lon="2.26938">
        <ele>109.2</ele>
        <time>2023-09-13T07:46:06Z</time>
      </trkpt>
      <trkpt lat="49.82968" lon="2.26942">
        <ele>109.2</ele>
        <time>2023-09-13T07:46:07Z</time>
      </trkpt>
      <trkpt lat="49.82968" lon="2.26943">
        <ele>109.2</ele>
        <time>2023-09-13T07:46:08Z</time>
      </trkpt>
      <trkpt lat="49.82968" lon="2.26944">
        <ele>109.2</ele>
        <time>2023-09-13T07:46:09Z</time>
      </trkpt>
      <trkpt lat="49.82966" lon="2.26947">
        <ele>109.2</ele>
        <time>2023-09-13T07:46:10Z</time>
      </trkpt>
      <trkpt lat="49.82966" lon="2.26948">
        <ele>109.3</ele>
        <time>2023-09-13T07:46:12Z</time>
      </trkpt>
      <trkpt lat="49.82965" lon="2.2695">
        <ele>109.3</ele>
        <time>2023-09-13T07:46:13Z</time>
      </trkpt>
      <trkpt lat="49.82965" lon="2.26951">
        <ele>109.3</ele>
        <time>2023-09-13T07:46:14Z</time>
      </trkpt>
      <trkpt lat="49.82964" lon="2.26952">
        <ele>109.3</ele>
        <time>2023-09-13T07:46:15Z</time>
      </trkpt>
      <trkpt lat="49.82963" lon="2.26955">
        <ele>109.3</ele>
        <time>2023-09-13T07:46:16Z</time>
      </trkpt>
      <trkpt lat="49.82963" lon="2.26956">
        <ele>109.3</ele>
        <time>2023-09-13T07:46:17Z</time>
      </trkpt>
      <trkpt lat="49.82962" lon="2.2696">
        <ele>109.3</ele>
        <time>2023-09-13T07:46:18Z</time>
      </trkpt>
      <trkpt lat="49.82961" lon="2.26962">
        <ele>109.3</ele>
        <time>2023-09-13T07:46:20Z</time>
      </trkpt>
      <trkpt lat="49.82961" lon="2.26963">
        <ele>109.4</ele>
        <time>2023-09-13T07:46:21Z</time>
      </trkpt>
      <trkpt lat="49.8296" lon="2.26965">
        <ele>109.4</ele>
        <time>2023-09-13T07:46:22Z</time>
      </trkpt>
      <trkpt lat="49.8296" lon="2.26967">
        <ele>109.4</ele>
        <time>2023-09-13T07:46:23Z</time>
      </trkpt>
      <trkpt lat="49.82959" lon="2.2697">
        <ele>109.4</ele>
        <time>2023-09-13T07:46:24Z</time>
      </trkpt>
      <trkpt lat="49.82959" lon="2.26971">
        <ele>109.4</ele>
        <time>2023-09-13T07:46:25Z</time>
      </trkpt>
      <trkpt lat="49.82958" lon="2.26972">
        <ele>109.4</ele>
        <time>2023-09-13T07:46:26Z</time>
      </trkpt>
      <trkpt lat="49.82957" lon="2.26975">
        <ele>109.4</ele>
        <time>2023-09-13T07:46:27Z</time>
      </trkpt>
      <trkpt lat="49.82957" lon="2.26976">
        <ele>109.5</ele>
        <time>2023-09-13T07:46:28Z</time>
      </trkpt>
      <trkpt lat="49.82957" lon="2.26977">
        <ele>109.5</ele>
        <time>2023-09-13T07:46:29Z</time>
      </trkpt>
      <trkpt lat="49.82956" lon="2.2698">
        <ele>109.5</ele>
        <time>2023-09-13T07:46:31Z</time>
      </trkpt>
      <trkpt lat="49.82956" lon="2.26981">
        <ele>109.5</ele>
        <time>2023-09-13T07:46:32Z</time>
      </trkpt>
      <trkpt lat="49.82955" lon="2.26982">
        <ele>109.5</ele>
        <time>2023-09-13T07:46:33Z</time>
      </trkpt>
      <trkpt lat="49.82955" lon="2.26984">
        <ele>109.5</ele>
        <time>2023-09-13T07:46:34Z</time>
      </trkpt>
      <trkpt lat="49.82955" lon="2.26986">
        <ele>109.5</ele>
        <time>2023-09-13T07:46:35Z</time>
      </trkpt>
      <trkpt lat="49.82954" lon="2.26991">
        <ele>109.6</ele>
        <time>2023-09-13T07:46:37Z</time>
      </trkpt>
      <trkpt lat="49.82953" lon="2.26995">
        <ele>109.6</ele>
        <time>2023-09-13T07:46:39Z</time>
      </trkpt>
      <trkpt lat="49.82953" lon="2.26996">
        <ele>109.6</ele>
        <time>2023-09-13T07:46:40Z</time>
      </trkpt>
      <trkpt lat="49.82953" lon="2.26997">
        <ele>109.6</ele>
        <time>2023-09-13T07:46:41Z</time>
      </trkpt>
      <trkpt lat="49.82953" lon="2.26999">
        <ele>109.6</ele>
        <time>2023-09-13T07:46:42Z</time>
      </trkpt>
      <trkpt lat="49.82953" lon="2.27002">
        <ele>109.6</ele>
        <time>2023-09-13T07:46:43Z</time>
      </trkpt>
      <trkpt lat="49.82953" lon="2.27003">
        <ele>109.6</ele>
        <time>2023-09-13T07:46:44Z</time>
      </trkpt>
      <trkpt lat="49.82952" lon="2.27005">
        <ele>109.7</ele>
        <time>2023-09-13T07:46:45Z</time>
      </trkpt>
      <trkpt lat="49.82952" lon="2.27008">
        <ele>109.7</ele>
        <time>2023-09-13T07:46:46Z</time>
      </trkpt>
      <trkpt lat="49.82952" lon="2.27009">
        <ele>109.7</ele>
        <time>2023-09-13T07:46:47Z</time>
      </trkpt>
      <trkpt lat="49.82951" lon="2.27011">
        <ele>109.7</ele>
        <time>2023-09-13T07:46:48Z</time>
      </trkpt>
      <trkpt lat="49.82951" lon="2.27014">
        <ele>109.7</ele>
        <time>2023-09-13T07:46:50Z</time>
      </trkpt>
      <trkpt lat="49.82951" lon="2.27015">
        <ele>109.7</ele>
        <time>2023-09-13T07:46:51Z</time>
      </trkpt>
      <trkpt lat="49.82951" lon="2.27017">
        <ele>109.7</ele>
        <time>2023-09-13T07:46:52Z</time>
      </trkpt>
      <trkpt lat="49.8295" lon="2.27019">
        <ele>109.7</ele>
        <time>2023-09-13T07:46:53Z</time>
      </trkpt>
      <trkpt lat="49.8295" lon="2.27021">
        <ele>109.7</ele>
        <time>2023-09-13T07:46:54Z</time>
      </trkpt>
      <trkpt lat="49.8295" lon="2.27025">
        <ele>109.7</ele>
        <time>2023-09-13T07:46:55Z</time>
      </trkpt>
      <trkpt lat="49.82949" lon="2.27026">
        <ele>109.8</ele>
        <time>2023-09-13T07:46:56Z</time>
      </trkpt>
      <trkpt lat="49.82949" lon="2.27027">
        <ele>109.8</ele>
        <time>2023-09-13T07:46:57Z</time>
      </trkpt>
      <trkpt lat="49.82949" lon="2.27029">
        <ele>109.8</ele>
        <time>2023-09-13T07:46:59Z</time>
      </trkpt>
      <trkpt lat="49.82949" lon="2.2703">
        <ele>109.8</ele>
        <time>2023-09-13T07:47:00Z</time>
      </trkpt>
      <trkpt lat="49.82948" lon="2.27032">
        <ele>109.8</ele>
        <time>2023-09-13T07:47:01Z</time>
      </trkpt>
      <trkpt lat="49.82948" lon="2.27034">
        <ele>109.8</ele>
        <time>2023-09-13T07:47:02Z</time>
      </trkpt>
      <trkpt lat="49.82947" lon="2.27036">
        <ele>109.8</ele>
        <time>2023-09-13T07:47:03Z</time>
      </trkpt>
      <trkpt lat="49.82947" lon="2.27039">
        <ele>109.8</ele>
        <time>2023-09-13T07:47:04Z</time>
      </trkpt>
      <trkpt lat="49.82946" lon="2.27041">
        <ele>109.8</ele>
        <time>2023-09-13T07:47:06Z</time>
      </trkpt>
      <trkpt lat="49.82946" lon="2.27042">
        <ele>109.8</ele>
        <time>2023-09-13T07:47:07Z</time>
      </trkpt>
      <trkpt lat="49.82946" lon="2.27046">
        <ele>109.8</ele>
        <time>2023-09-13T07:47:08Z</time>
      </trkpt>
      <trkpt lat="49.82945" lon="2.27047">
        <ele>109.9</ele>
        <time>2023-09-13T07:47:09Z</time>
      </trkpt>
      <trkpt lat="49.82945" lon="2.27048">
        <ele>109.9</ele>
        <time>2023-09-13T07:47:10Z</time>
      </trkpt>
      <trkpt lat="49.82944" lon="2.27052">
        <ele>109.9</ele>
        <time>2023-09-13T07:47:11Z</time>
      </trkpt>
      <trkpt lat="49.82944" lon="2.27054">
        <ele>109.9</ele>
        <time>2023-09-13T07:47:13Z</time>
      </trkpt>
      <trkpt lat="49.82944" lon="2.27056">
        <ele>109.9</ele>
        <time>2023-09-13T07:47:14Z</time>
      </trkpt>
      <trkpt lat="49.82944" lon="2.27057">
        <ele>109.9</ele>
        <time>2023-09-13T07:47:15Z</time>
      </trkpt>
      <trkpt lat="49.82944" lon="2.27059">
        <ele>109.9</ele>
        <time>2023-09-13T07:47:16Z</time>
      </trkpt>
      <trkpt lat="49.82944" lon="2.27061">
        <ele>109.9</ele>
        <time>2023-09-13T07:47:17Z</time>
      </trkpt>
      <trkpt lat="49.82944" lon="2.27063">
        <ele>109.9</ele>
        <time>2023-09-13T07:47:18Z</time>
      </trkpt>
      <trkpt lat="49.82944" lon="2.27065">
        <ele>109.9</ele>
        <time>2023-09-13T07:47:19Z</time>
      </trkpt>
      <trkpt lat="49.82944" lon="2.27067">
        <ele>110</ele>
        <time>2023-09-13T07:47:20Z</time>
      </trkpt>
      <trkpt lat="49.82944" lon="2.27069">
        <ele>110</ele>
        <time>2023-09-13T07:47:21Z</time>
      </trkpt>
      <trkpt lat="49.82944" lon="2.27072">
        <ele>110</ele>
        <time>2023-09-13T07:47:23Z</time>
      </trkpt>
      <trkpt lat="49.82944" lon="2.27074">
        <ele>110</ele>
        <time>2023-09-13T07:47:24Z</time>
      </trkpt>
      <trkpt lat="49.82944" lon="2.27076">
        <ele>110</ele>
        <time>2023-09-13T07:47:25Z</time>
      </trkpt>
      <trkpt lat="49.82944" lon="2.27078">
        <ele>110</ele>
        <time>2023-09-13T07:47:26Z</time>
      </trkpt>
      <trkpt lat="49.82944" lon="2.2708">
        <ele>110</ele>
        <time>2023-09-13T07:47:27Z</time>
      </trkpt>
      <trkpt lat="49.82944" lon="2.27082">
        <ele>110</ele>
        <time>2023-09-13T07:47:28Z</time>
      </trkpt>
      <trkpt lat="49.82944" lon="2.27085">
        <ele>110</ele>
        <time>2023-09-13T07:47:30Z</time>
      </trkpt>
      <trkpt lat="49.82944" lon="2.27086">
        <ele>110</ele>
        <time>2023-09-13T07:47:31Z</time>
      </trkpt>
      <trkpt lat="49.82944" lon="2.27089">
        <ele>110.1</ele>
        <time>2023-09-13T07:47:32Z</time>
      </trkpt>
      <trkpt lat="49.82944" lon="2.27091">
        <ele>110.1</ele>
        <time>2023-09-13T07:47:33Z</time>
      </trkpt>
      <trkpt lat="49.82945" lon="2.27093">
        <ele>110.1</ele>
        <time>2023-09-13T07:47:34Z</time>
      </trkpt>
      <trkpt lat="49.82945" lon="2.27096">
        <ele>110.1</ele>
        <time>2023-09-13T07:47:36Z</time>
      </trkpt>
      <trkpt lat="49.82945" lon="2.27098">
        <ele>110.1</ele>
        <time>2023-09-13T07:47:37Z</time>
      </trkpt>
      <trkpt lat="49.82945" lon="2.271">
        <ele>110.1</ele>
        <time>2023-09-13T07:47:38Z</time>
      </trkpt>
      <trkpt lat="49.82946" lon="2.27101">
        <ele>110.1</ele>
        <time>2023-09-13T07:47:39Z</time>
      </trkpt>
      <trkpt lat="49.82946" lon="2.27105">
        <ele>110.1</ele>
        <time>2023-09-13T07:47:40Z</time>
      </trkpt>
      <trkpt lat="49.82947" lon="2.27106">
        <ele>110.1</ele>
        <time>2023-09-13T07:47:42Z</time>
      </trkpt>
      <trkpt lat="49.82947" lon="2.27108">
        <ele>110.1</ele>
        <time>2023-09-13T07:47:43Z</time>
      </trkpt>
      <trkpt lat="49.82947" lon="2.2711">
        <ele>110.1</ele>
        <time>2023-09-13T07:47:44Z</time>
      </trkpt>
      <trkpt lat="49.82948" lon="2.27111">
        <ele>110.1</ele>
        <time>2023-09-13T07:47:45Z</time>
      </trkpt>
      <trkpt lat="49.82948" lon="2.27113">
        <ele>110.1</ele>
        <time>2023-09-13T07:47:46Z</time>
      </trkpt>
      <trkpt lat="49.82949" lon="2.27115">
        <ele>110.1</ele>
        <time>2023-09-13T07:47:47Z</time>
      </trkpt>
      <trkpt lat="49.82949" lon="2.27117">
        <ele>110.1</ele>
        <time>2023-09-13T07:47:48Z</time>
      </trkpt>
      <trkpt lat="49.8295" lon="2.27119">
        <ele>110.2</ele>
        <time>2023-09-13T07:47:50Z</time>
      </trkpt>
      <trkpt lat="49.8295" lon="2.27121">
        <ele>110.2</ele>
        <time>2023-09-13T07:47:51Z</time>
      </trkpt>
      <trkpt lat="49.82951" lon="2.27122">
        <ele>110.2</ele>
        <time>2023-09-13T07:47:52Z</time>
      </trkpt>
      <trkpt lat="49.82951" lon="2.27124">
        <ele>110.2</ele>
        <time>2023-09-13T07:47:53Z</time>
      </trkpt>
      <trkpt lat="49.82952" lon="2.27127">
        <ele>110.2</ele>
        <time>2023-09-13T07:47:54Z</time>
      </trkpt>
      <trkpt lat="49.82953" lon="2.27128">
        <ele>110.2</ele>
        <time>2023-09-13T07:47:55Z</time>
      </trkpt>
      <trkpt lat="49.82953" lon="2.27129">
        <ele>110.2</ele>
        <time>2023-09-13T07:47:56Z</time>
      </trkpt>
      <trkpt lat="49.82954" lon="2.27132">
        <ele>110.2</ele>
        <time>2023-09-13T07:47:57Z</time>
      </trkpt>
      <trkpt lat="49.82954" lon="2.27133">
        <ele>110.2</ele>
        <time>2023-09-13T07:47:58Z</time>
      </trkpt>
      <trkpt lat="49.82954" lon="2.27135">
        <ele>110.2</ele>
        <time>2023-09-13T07:47:59Z</time>
      </trkpt>
      <trkpt lat="49.82955" lon="2.27137">
        <ele>110.2</ele>
        <time>2023-09-13T07:48:01Z</time>
      </trkpt>
      <trkpt lat="49.82956" lon="2.27138">
        <ele>110.2</ele>
        <time>2023-09-13T07:48:02Z</time>
      </trkpt>
      <trkpt lat="49.82957" lon="2.27141">
        <ele>110.2</ele>
        <time>2023-09-13T07:48:03Z</time>
      </trkpt>
      <trkpt lat="49.82958" lon="2.27142">
        <ele>110.2</ele>
        <time>2023-09-13T07:48:04Z</time>
      </trkpt>
      <trkpt lat="49.82958" lon="2.27144">
        <ele>110.2</ele>
        <time>2023-09-13T07:48:05Z</time>
      </trkpt>
      <trkpt lat="49.82959" lon="2.27146">
        <ele>110.2</ele>
        <time>2023-09-13T07:48:06Z</time>
      </trkpt>
      <trkpt lat="49.8296" lon="2.27147">
        <ele>110.2</ele>
        <time>2023-09-13T07:48:07Z</time>
      </trkpt>
      <trkpt lat="49.82962" lon="2.2715">
        <ele>110.2</ele>
        <time>2023-09-13T07:48:08Z</time>
      </trkpt>
      <trkpt lat="49.82962" lon="2.27151">
        <ele>110.2</ele>
        <time>2023-09-13T07:48:09Z</time>
      </trkpt>
      <trkpt lat="49.82963" lon="2.27152">
        <ele>110.2</ele>
        <time>2023-09-13T07:48:10Z</time>
      </trkpt>
      <trkpt lat="49.82964" lon="2.27154">
        <ele>110.2</ele>
        <time>2023-09-13T07:48:11Z</time>
      </trkpt>
      <trkpt lat="49.82965" lon="2.27155">
        <ele>110.2</ele>
        <time>2023-09-13T07:48:13Z</time>
      </trkpt>
      <trkpt lat="49.82965" lon="2.27156">
        <ele>110.2</ele>
        <time>2023-09-13T07:48:14Z</time>
      </trkpt>
      <trkpt lat="49.82966" lon="2.27159">
        <ele>110.2</ele>
        <time>2023-09-13T07:48:15Z</time>
      </trkpt>
      <trkpt lat="49.82967" lon="2.2716">
        <ele>110.2</ele>
        <time>2023-09-13T07:48:16Z</time>
      </trkpt>
      <trkpt lat="49.82967" lon="2.27162">
        <ele>110.2</ele>
        <time>2023-09-13T07:48:17Z</time>
      </trkpt>
      <trkpt lat="49.82968" lon="2.27163">
        <ele>110.2</ele>
        <time>2023-09-13T07:48:18Z</time>
      </trkpt>
      <trkpt lat="49.82969" lon="2.27165">
        <ele>110.2</ele>
        <time>2023-09-13T07:48:19Z</time>
      </trkpt>
      <trkpt lat="49.8297" lon="2.27167">
        <ele>110.2</ele>
        <time>2023-09-13T07:48:20Z</time>
      </trkpt>
      <trkpt lat="49.82971" lon="2.2717">
        <ele>110.2</ele>
        <time>2023-09-13T07:48:21Z</time>
      </trkpt>
      <trkpt lat="49.82972" lon="2.27172">
        <ele>110.2</ele>
        <time>2023-09-13T07:48:23Z</time>
      </trkpt>
      <trkpt lat="49.82972" lon="2.27174">
        <ele>110.2</ele>
        <time>2023-09-13T07:48:24Z</time>
      </trkpt>
      <trkpt lat="49.82973" lon="2.27176">
        <ele>110.2</ele>
        <time>2023-09-13T07:48:25Z</time>
      </trkpt>
      <trkpt lat="49.82973" lon="2.27178">
        <ele>110.2</ele>
        <time>2023-09-13T07:48:26Z</time>
      </trkpt>
      <trkpt lat="49.82974" lon="2.27179">
        <ele>110.2</ele>
        <time>2023-09-13T07:48:27Z</time>
      </trkpt>
      <trkpt lat="49.82974" lon="2.2718">
        <ele>110.2</ele>
        <time>2023-09-13T07:48:28Z</time>
      </trkpt>
      <trkpt lat="49.82974" lon="2.27181">
        <ele>110.2</ele>
        <time>2023-09-13T07:48:29Z</time>
      </trkpt>
      <trkpt lat="49.82975" lon="2.27182">
        <ele>110.2</ele>
        <time>2023-09-13T07:48:30Z</time>
      </trkpt>
      <trkpt lat="49.82975" lon="2.27184">
        <ele>110.2</ele>
        <time>2023-09-13T07:48:31Z</time>
      </trkpt>
      <trkpt lat="49.82976" lon="2.27187">
        <ele>110.2</ele>
        <time>2023-09-13T07:48:32Z</time>
      </trkpt>
      <trkpt lat="49.82976" lon="2.27188">
        <ele>110.2</ele>
        <time>2023-09-13T07:48:34Z</time>
      </trkpt>
      <trkpt lat="49.82977" lon="2.27189">
        <ele>110.2</ele>
        <time>2023-09-13T07:48:35Z</time>
      </trkpt>
      <trkpt lat="49.82977" lon="2.27192">
        <ele>110.2</ele>
        <time>2023-09-13T07:48:36Z</time>
      </trkpt>
      <trkpt lat="49.82978" lon="2.27193">
        <ele>110.2</ele>
        <time>2023-09-13T07:48:37Z</time>
      </trkpt>
      <trkpt lat="49.82978" lon="2.27195">
        <ele>110.2</ele>
        <time>2023-09-13T07:48:38Z</time>
      </trkpt>
      <trkpt lat="49.82979" lon="2.27196">
        <ele>110.2</ele>
        <time>2023-09-13T07:48:39Z</time>
      </trkpt>
      <trkpt lat="49.82979" lon="2.27198">
        <ele>110.2</ele>
        <time>2023-09-13T07:48:40Z</time>
      </trkpt>
      <trkpt lat="49.8298" lon="2.272">
        <ele>110.2</ele>
        <time>2023-09-13T07:48:42Z</time>
      </trkpt>
      <trkpt lat="49.82981" lon="2.27201">
        <ele>110.2</ele>
        <time>2023-09-13T07:48:43Z</time>
      </trkpt>
      <trkpt lat="49.82981" lon="2.27203">
        <ele>110.2</ele>
        <time>2023-09-13T07:48:44Z</time>
      </trkpt>
      <trkpt lat="49.82982" lon="2.27204">
        <ele>110.2</ele>
        <time>2023-09-13T07:48:45Z</time>
      </trkpt>
      <trkpt lat="49.82982" lon="2.27206">
        <ele>110.2</ele>
        <time>2023-09-13T07:48:46Z</time>
      </trkpt>
      <trkpt lat="49.82982" lon="2.27206">
        <ele>110.2</ele>
        <time>2023-09-13T07:48:47Z</time>
      </trkpt>
      <trkpt lat="49.82983" lon="2.27207">
        <ele>110.2</ele>
        <time>2023-09-13T07:48:48Z</time>
      </trkpt>
      <trkpt lat="49.82984" lon="2.27208">
        <ele>110.2</ele>
        <time>2023-09-13T07:48:49Z</time>
      </trkpt>
      <trkpt lat="49.82985" lon="2.27211">
        <ele>110.2</ele>
        <time>2023-09-13T07:48:50Z</time>
      </trkpt>
      <trkpt lat="49.82986" lon="2.27213">
        <ele>110.2</ele>
        <time>2023-09-13T07:48:52Z</time>
      </trkpt>
      <trkpt lat="49.82986" lon="2.27214">
        <ele>110.2</ele>
        <time>2023-09-13T07:48:53Z</time>
      </trkpt>
      <trkpt lat="49.82987" lon="2.27216">
        <ele>110.2</ele>
        <time>2023-09-13T07:48:54Z</time>
      </trkpt>
      <trkpt lat="49.82988" lon="2.27217">
        <ele>110.2</ele>
        <time>2023-09-13T07:48:55Z</time>
      </trkpt>
      <trkpt lat="49.82988" lon="2.27219">
        <ele>110.2</ele>
        <time>2023-09-13T07:48:56Z</time>
      </trkpt>
      <trkpt lat="49.82989" lon="2.27221">
        <ele>110.2</ele>
        <time>2023-09-13T07:48:57Z</time>
      </trkpt>
      <trkpt lat="49.82991" lon="2.27224">
        <ele>110.2</ele>
        <time>2023-09-13T07:48:58Z</time>
      </trkpt>
      <trkpt lat="49.82992" lon="2.27225">
        <ele>110.2</ele>
        <time>2023-09-13T07:49:00Z</time>
      </trkpt>
      <trkpt lat="49.82993" lon="2.27226">
        <ele>110.3</ele>
        <time>2023-09-13T07:49:01Z</time>
      </trkpt>
      <trkpt lat="49.82994" lon="2.27228">
        <ele>110.3</ele>
        <time>2023-09-13T07:49:02Z</time>
      </trkpt>
      <trkpt lat="49.82994" lon="2.27229">
        <ele>110.3</ele>
        <time>2023-09-13T07:49:03Z</time>
      </trkpt>
      <trkpt lat="49.82995" lon="2.2723">
        <ele>110.3</ele>
        <time>2023-09-13T07:49:04Z</time>
      </trkpt>
      <trkpt lat="49.82996" lon="2.27231">
        <ele>110.3</ele>
        <time>2023-09-13T07:49:05Z</time>
      </trkpt>
      <trkpt lat="49.82997" lon="2.27232">
        <ele>110.3</ele>
        <time>2023-09-13T07:49:06Z</time>
      </trkpt>
      <trkpt lat="49.82998" lon="2.27234">
        <ele>110.3</ele>
        <time>2023-09-13T07:49:07Z</time>
      </trkpt>
      <trkpt lat="49.82998" lon="2.27236">
        <ele>110.3</ele>
        <time>2023-09-13T07:49:08Z</time>
      </trkpt>
      <trkpt lat="49.82999" lon="2.27238">
        <ele>110.3</ele>
        <time>2023-09-13T07:49:10Z</time>
      </trkpt>
      <trkpt lat="49.83" lon="2.2724">
        <ele>110.3</ele>
        <time>2023-09-13T07:49:11Z</time>
      </trkpt>
      <trkpt lat="49.83" lon="2.27241">
        <ele>110.3</ele>
        <time>2023-09-13T07:49:12Z</time>
      </trkpt>
      <trkpt lat="49.83001" lon="2.27242">
        <ele>110.3</ele>
        <time>2023-09-13T07:49:13Z</time>
      </trkpt>
      <trkpt lat="49.83001" lon="2.27244">
        <ele>110.3</ele>
        <time>2023-09-13T07:49:14Z</time>
      </trkpt>
      <trkpt lat="49.83002" lon="2.27245">
        <ele>110.4</ele>
        <time>2023-09-13T07:49:15Z</time>
      </trkpt>
      <trkpt lat="49.83003" lon="2.27247">
        <ele>110.4</ele>
        <time>2023-09-13T07:49:16Z</time>
      </trkpt>
      <trkpt lat="49.83004" lon="2.27248">
        <ele>110.4</ele>
        <time>2023-09-13T07:49:17Z</time>
      </trkpt>
      <trkpt lat="49.83004" lon="2.27249">
        <ele>110.4</ele>
        <time>2023-09-13T07:49:18Z</time>
      </trkpt>
      <trkpt lat="49.83005" lon="2.27251">
        <ele>110.4</ele>
        <time>2023-09-13T07:49:19Z</time>
      </trkpt>
      <trkpt lat="49.83006" lon="2.27252">
        <ele>110.4</ele>
        <time>2023-09-13T07:49:21Z</time>
      </trkpt>
      <trkpt lat="49.83006" lon="2.27254">
        <ele>110.4</ele>
        <time>2023-09-13T07:49:22Z</time>
      </trkpt>
      <trkpt lat="49.83007" lon="2.27255">
        <ele>110.4</ele>
        <time>2023-09-13T07:49:23Z</time>
      </trkpt>
      <trkpt lat="49.83008" lon="2.27258">
        <ele>110.4</ele>
        <time>2023-09-13T07:49:24Z</time>
      </trkpt>
      <trkpt lat="49.83008" lon="2.2726">
        <ele>110.4</ele>
        <time>2023-09-13T07:49:25Z</time>
      </trkpt>
      <trkpt lat="49.83008" lon="2.27261">
        <ele>110.4</ele>
        <time>2023-09-13T07:49:26Z</time>
      </trkpt>
      <trkpt lat="49.83009" lon="2.27264">
        <ele>110.5</ele>
        <time>2023-09-13T07:49:27Z</time>
      </trkpt>
      <trkpt lat="49.8301" lon="2.27265">
        <ele>110.5</ele>
        <time>2023-09-13T07:49:28Z</time>
      </trkpt>
      <trkpt lat="49.8301" lon="2.27266">
        <ele>110.5</ele>
        <time>2023-09-13T07:49:29Z</time>
      </trkpt>
      <trkpt lat="49.83011" lon="2.27269">
        <ele>110.5</ele>
        <time>2023-09-13T07:49:30Z</time>
      </trkpt>
      <trkpt lat="49.83011" lon="2.2727">
        <ele>110.5</ele>
        <time>2023-09-13T07:49:32Z</time>
      </trkpt>
      <trkpt lat="49.83012" lon="2.27272">
        <ele>110.5</ele>
        <time>2023-09-13T07:49:33Z</time>
      </trkpt>
      <trkpt lat="49.83012" lon="2.27275">
        <ele>110.5</ele>
        <time>2023-09-13T07:49:34Z</time>
      </trkpt>
      <trkpt lat="49.83012" lon="2.27277">
        <ele>110.5</ele>
        <time>2023-09-13T07:49:35Z</time>
      </trkpt>
      <trkpt lat="49.83012" lon="2.27278">
        <ele>110.5</ele>
        <time>2023-09-13T07:49:36Z</time>
      </trkpt>
      <trkpt lat="49.83013" lon="2.2728">
        <ele>110.5</ele>
        <time>2023-09-13T07:49:37Z</time>
      </trkpt>
      <trkpt lat="49.83013" lon="2.27282">
        <ele>110.5</ele>
        <time>2023-09-13T07:49:38Z</time>
      </trkpt>
      <trkpt lat="49.83013" lon="2.27284">
        <ele>110.5</ele>
        <time>2023-09-13T07:49:40Z</time>
      </trkpt>
      <trkpt lat="49.83014" lon="2.27286">
        <ele>110.5</ele>
        <time>2023-09-13T07:49:41Z</time>
      </trkpt>
      <trkpt lat="49.83014" lon="2.27287">
        <ele>110.5</ele>
        <time>2023-09-13T07:49:42Z</time>
      </trkpt>
      <trkpt lat="49.83013" lon="2.27289">
        <ele>110.5</ele>
        <time>2023-09-13T07:49:43Z</time>
      </trkpt>
      <trkpt lat="49.83014" lon="2.27292">
        <ele>110.5</ele>
        <time>2023-09-13T07:49:44Z</time>
      </trkpt>
      <trkpt lat="49.83014" lon="2.27294">
        <ele>110.4</ele>
        <time>2023-09-13T07:49:45Z</time>
      </trkpt>
      <trkpt lat="49.83014" lon="2.27295">
        <ele>110.4</ele>
        <time>2023-09-13T07:49:46Z</time>
      </trkpt>
      <trkpt lat="49.83014" lon="2.27297">
        <ele>110.4</ele>
        <time>2023-09-13T07:49:47Z</time>
      </trkpt>
      <trkpt lat="49.83014" lon="2.273">
        <ele>110.4</ele>
        <time>2023-09-13T07:49:48Z</time>
      </trkpt>
      <trkpt lat="49.83015" lon="2.27302">
        <ele>110.4</ele>
        <time>2023-09-13T07:49:50Z</time>
      </trkpt>
      <trkpt lat="49.83015" lon="2.27304">
        <ele>110.4</ele>
        <time>2023-09-13T07:49:51Z</time>
      </trkpt>
      <trkpt lat="49.83015" lon="2.27306">
        <ele>110.4</ele>
        <time>2023-09-13T07:49:52Z</time>
      </trkpt>
      <trkpt lat="49.83015" lon="2.27309">
        <ele>110.4</ele>
        <time>2023-09-13T07:49:53Z</time>
      </trkpt>
      <trkpt lat="49.83016" lon="2.27312">
        <ele>110.4</ele>
        <time>2023-09-13T07:49:54Z</time>
      </trkpt>
      <trkpt lat="49.83016" lon="2.27315">
        <ele>110.4</ele>
        <time>2023-09-13T07:49:56Z</time>
      </trkpt>
      <trkpt lat="49.83016" lon="2.27317">
        <ele>110.4</ele>
        <time>2023-09-13T07:49:57Z</time>
      </trkpt>
      <trkpt lat="49.83017" lon="2.27319">
        <ele>110.3</ele>
        <time>2023-09-13T07:49:58Z</time>
      </trkpt>
      <trkpt lat="49.83017" lon="2.27323">
        <ele>110.3</ele>
        <time>2023-09-13T07:49:59Z</time>
      </trkpt>
      <trkpt lat="49.83017" lon="2.27325">
        <ele>110.3</ele>
        <time>2023-09-13T07:50:01Z</time>
      </trkpt>
      <trkpt lat="49.83017" lon="2.27327">
        <ele>110.3</ele>
        <time>2023-09-13T07:50:02Z</time>
      </trkpt>
      <trkpt lat="49.83017" lon="2.27328">
        <ele>110.3</ele>
        <time>2023-09-13T07:50:03Z</time>
      </trkpt>
      <trkpt lat="49.83017" lon="2.2733">
        <ele>110.3</ele>
        <time>2023-09-13T07:50:04Z</time>
      </trkpt>
      <trkpt lat="49.83017" lon="2.27333">
        <ele>110.3</ele>
        <time>2023-09-13T07:50:05Z</time>
      </trkpt>
      <trkpt lat="49.83017" lon="2.27334">
        <ele>110.3</ele>
        <time>2023-09-13T07:50:06Z</time>
      </trkpt>
      <trkpt lat="49.83018" lon="2.27335">
        <ele>110.3</ele>
        <time>2023-09-13T07:50:07Z</time>
      </trkpt>
      <trkpt lat="49.83018" lon="2.27338">
        <ele>110.2</ele>
        <time>2023-09-13T07:50:08Z</time>
      </trkpt>
      <trkpt lat="49.83018" lon="2.2734">
        <ele>110.2</ele>
        <time>2023-09-13T07:50:09Z</time>
      </trkpt>
      <trkpt lat="49.83018" lon="2.27343">
        <ele>110.2</ele>
        <time>2023-09-13T07:50:10Z</time>
      </trkpt>
      <trkpt lat="49.83017" lon="2.27345">
        <ele>110.2</ele>
        <time>2023-09-13T07:50:11Z</time>
      </trkpt>
      <trkpt lat="49.83017" lon="2.27348">
        <ele>110.2</ele>
        <time>2023-09-13T07:50:12Z</time>
      </trkpt>
      <trkpt lat="49.83017" lon="2.2735">
        <ele>110.2</ele>
        <time>2023-09-13T07:50:13Z</time>
      </trkpt>
      <trkpt lat="49.83016" lon="2.27351">
        <ele>110.2</ele>
        <time>2023-09-13T07:50:15Z</time>
      </trkpt>
      <trkpt lat="49.83016" lon="2.27352">
        <ele>110.2</ele>
        <time>2023-09-13T07:50:16Z</time>
      </trkpt>
      <trkpt lat="49.83016" lon="2.27353">
        <ele>110.2</ele>
        <time>2023-09-13T07:50:17Z</time>
      </trkpt>
      <trkpt lat="49.83016" lon="2.27355">
        <ele>110.2</ele>
        <time>2023-09-13T07:50:18Z</time>
      </trkpt>
      <trkpt lat="49.83015" lon="2.27356">
        <ele>110.2</ele>
        <time>2023-09-13T07:50:19Z</time>
      </trkpt>
      <trkpt lat="49.83015" lon="2.27359">
        <ele>110.2</ele>
        <time>2023-09-13T07:50:20Z</time>
      </trkpt>
      <trkpt lat="49.83015" lon="2.27361">
        <ele>110.1</ele>
        <time>2023-09-13T07:50:21Z</time>
      </trkpt>
      <trkpt lat="49.83015" lon="2.27362">
        <ele>110.1</ele>
        <time>2023-09-13T07:50:22Z</time>
      </trkpt>
      <trkpt lat="49.83015" lon="2.27366">
        <ele>110.1</ele>
        <time>2023-09-13T07:50:24Z</time>
      </trkpt>
      <trkpt lat="49.83015" lon="2.27367">
        <ele>110.1</ele>
        <time>2023-09-13T07:50:25Z</time>
      </trkpt>
      <trkpt lat="49.83015" lon="2.27368">
        <ele>110.1</ele>
        <time>2023-09-13T07:50:26Z</time>
      </trkpt>
      <trkpt lat="49.83015" lon="2.27369">
        <ele>110.1</ele>
        <time>2023-09-13T07:50:27Z</time>
      </trkpt>
      <trkpt lat="49.83015" lon="2.27371">
        <ele>110.1</ele>
        <time>2023-09-13T07:50:29Z</time>
      </trkpt>
      <trkpt lat="49.83015" lon="2.27373">
        <ele>110.1</ele>
        <time>2023-09-13T07:50:30Z</time>
      </trkpt>
      <trkpt lat="49.83015" lon="2.27375">
        <ele>110.1</ele>
        <time>2023-09-13T07:50:31Z</time>
      </trkpt>
      <trkpt lat="49.83015" lon="2.27377">
        <ele>110.1</ele>
        <time>2023-09-13T07:50:32Z</time>
      </trkpt>
      <trkpt lat="49.83015" lon="2.2738">
        <ele>110.1</ele>
        <time>2023-09-13T07:50:33Z</time>
      </trkpt>
      <trkpt lat="49.83015" lon="2.27381">
        <ele>110.1</ele>
        <time>2023-09-13T07:50:34Z</time>
      </trkpt>
      <trkpt lat="49.83015" lon="2.27383">
        <ele>110.1</ele>
        <time>2023-09-13T07:50:35Z</time>
      </trkpt>
      <trkpt lat="49.83014" lon="2.27384">
        <ele>110.1</ele>
        <time>2023-09-13T07:50:36Z</time>
      </trkpt>
      <trkpt lat="49.83014" lon="2.27386">
        <ele>110.1</ele>
        <time>2023-09-13T07:50:37Z</time>
      </trkpt>
      <trkpt lat="49.83014" lon="2.27389">
        <ele>110.1</ele>
        <time>2023-09-13T07:50:39Z</time>
      </trkpt>
      <trkpt lat="49.83014" lon="2.2739">
        <ele>110.1</ele>
        <time>2023-09-13T07:50:40Z</time>
      </trkpt>
      <trkpt lat="49.83014" lon="2.27391">
        <ele>110.1</ele>
        <time>2023-09-13T07:50:41Z</time>
      </trkpt>
      <trkpt lat="49.83014" lon="2.27393">
        <ele>110.1</ele>
        <time>2023-09-13T07:50:42Z</time>
      </trkpt>
      <trkpt lat="49.83014" lon="2.27395">
        <ele>110.1</ele>
        <time>2023-09-13T07:50:43Z</time>
      </trkpt>
      <trkpt lat="49.83014" lon="2.27397">
        <ele>110</ele>
        <time>2023-09-13T07:50:44Z</time>
      </trkpt>
      <trkpt lat="49.83014" lon="2.27399">
        <ele>110</ele>
        <time>2023-09-13T07:50:45Z</time>
      </trkpt>
      <trkpt lat="49.83014" lon="2.27402">
        <ele>110</ele>
        <time>2023-09-13T07:50:47Z</time>
      </trkpt>
      <trkpt lat="49.83014" lon="2.27404">
        <ele>110</ele>
        <time>2023-09-13T07:50:48Z</time>
      </trkpt>
      <trkpt lat="49.83014" lon="2.27405">
        <ele>110</ele>
        <time>2023-09-13T07:50:49Z</time>
      </trkpt>
      <trkpt lat="49.83014" lon="2.27407">
        <ele>110</ele>
        <time>2023-09-13T07:50:50Z</time>
      </trkpt>
      <trkpt lat="49.83014" lon="2.27409">
        <ele>110</ele>
        <time>2023-09-13T07:50:51Z</time>
      </trkpt>
      <trkpt lat="49.83014" lon="2.27411">
        <ele>110</ele>
        <time>2023-09-13T07:50:52Z</time>
      </trkpt>
      <trkpt lat="49.83013" lon="2.27414">
        <ele>110</ele>
        <time>2023-09-13T07:50:54Z</time>
      </trkpt>
      <trkpt lat="49.83013" lon="2.27417">
        <ele>110</ele>
        <time>2023-09-13T07:50:55Z</time>
      </trkpt>
      <trkpt lat="49.83013" lon="2.27418">
        <ele>110</ele>
        <time>2023-09-13T07:50:56Z</time>
      </trkpt>
      <trkpt lat="49.83013" lon="2.2742">
        <ele>110</ele>
        <time>2023-09-13T07:50:57Z</time>
      </trkpt>
      <trkpt lat="49.83013" lon="2.27423">
        <ele>109.9</ele>
        <time>2023-09-13T07:50:58Z</time>
      </trkpt>
      <trkpt lat="49.83013" lon="2.27424">
        <ele>109.9</ele>
        <time>2023-09-13T07:50:59Z</time>
      </trkpt>
      <trkpt lat="49.83013" lon="2.27426">
        <ele>109.9</ele>
        <time>2023-09-13T07:51:00Z</time>
      </trkpt>
      <trkpt lat="49.83013" lon="2.27428">
        <ele>109.9</ele>
        <time>2023-09-13T07:51:01Z</time>
      </trkpt>
      <trkpt lat="49.83013" lon="2.27431">
        <ele>109.9</ele>
        <time>2023-09-13T07:51:02Z</time>
      </trkpt>
      <trkpt lat="49.83013" lon="2.27435">
        <ele>109.9</ele>
        <time>2023-09-13T07:51:03Z</time>
      </trkpt>
      <trkpt lat="49.83013" lon="2.27437">
        <ele>109.9</ele>
        <time>2023-09-13T07:51:04Z</time>
      </trkpt>
      <trkpt lat="49.83013" lon="2.27441">
        <ele>109.9</ele>
        <time>2023-09-13T07:51:06Z</time>
      </trkpt>
      <trkpt lat="49.83013" lon="2.27443">
        <ele>109.8</ele>
        <time>2023-09-13T07:51:07Z</time>
      </trkpt>
      <trkpt lat="49.83013" lon="2.27446">
        <ele>109.8</ele>
        <time>2023-09-13T07:51:08Z</time>
      </trkpt>
      <trkpt lat="49.83013" lon="2.27448">
        <ele>109.8</ele>
        <time>2023-09-13T07:51:09Z</time>
      </trkpt>
      <trkpt lat="49.83013" lon="2.2745">
        <ele>109.8</ele>
        <time>2023-09-13T07:51:10Z</time>
      </trkpt>
      <trkpt lat="49.83012" lon="2.27452">
        <ele>109.8</ele>
        <time>2023-09-13T07:51:11Z</time>
      </trkpt>
      <trkpt lat="49.83012" lon="2.27454">
        <ele>109.8</ele>
        <time>2023-09-13T07:51:12Z</time>
      </trkpt>
      <trkpt lat="49.83011" lon="2.27456">
        <ele>109.8</ele>
        <time>2023-09-13T07:51:13Z</time>
      </trkpt>
      <trkpt lat="49.83011" lon="2.27459">
        <ele>109.7</ele>
        <time>2023-09-13T07:51:15Z</time>
      </trkpt>
      <trkpt lat="49.83011" lon="2.2746">
        <ele>109.7</ele>
        <time>2023-09-13T07:51:16Z</time>
      </trkpt>
      <trkpt lat="49.83011" lon="2.27461">
        <ele>109.7</ele>
        <time>2023-09-13T07:51:17Z</time>
      </trkpt>
      <trkpt lat="49.83011" lon="2.27463">
        <ele>109.7</ele>
        <time>2023-09-13T07:51:18Z</time>
      </trkpt>
      <trkpt lat="49.83011" lon="2.27465">
        <ele>109.7</ele>
        <time>2023-09-13T07:51:19Z</time>
      </trkpt>
      <trkpt lat="49.83011" lon="2.27466">
        <ele>109.7</ele>
        <time>2023-09-13T07:51:20Z</time>
      </trkpt>
      <trkpt lat="49.83011" lon="2.27468">
        <ele>109.7</ele>
        <time>2023-09-13T07:51:21Z</time>
      </trkpt>
      <trkpt lat="49.83011" lon="2.27471">
        <ele>109.7</ele>
        <time>2023-09-13T07:51:22Z</time>
      </trkpt>
      <trkpt lat="49.83011" lon="2.27473">
        <ele>109.6</ele>
        <time>2023-09-13T07:51:23Z</time>
      </trkpt>
      <trkpt lat="49.83011" lon="2.27476">
        <ele>109.6</ele>
        <time>2023-09-13T07:51:25Z</time>
      </trkpt>
      <trkpt lat="49.83012" lon="2.27478">
        <ele>109.6</ele>
        <time>2023-09-13T07:51:26Z</time>
      </trkpt>
      <trkpt lat="49.83011" lon="2.2748">
        <ele>109.6</ele>
        <time>2023-09-13T07:51:27Z</time>
      </trkpt>
      <trkpt lat="49.83011" lon="2.27483">
        <ele>109.6</ele>
        <time>2023-09-13T07:51:28Z</time>
      </trkpt>
      <trkpt lat="49.83012" lon="2.27484">
        <ele>109.6</ele>
        <time>2023-09-13T07:51:29Z</time>
      </trkpt>
      <trkpt lat="49.83012" lon="2.27486">
        <ele>109.5</ele>
        <time>2023-09-13T07:51:30Z</time>
      </trkpt>
      <trkpt lat="49.83013" lon="2.27488">
        <ele>109.5</ele>
        <time>2023-09-13T07:51:32Z</time>
      </trkpt>
      <trkpt lat="49.83014" lon="2.27491">
        <ele>109.5</ele>
        <time>2023-09-13T07:51:33Z</time>
      </trkpt>
      <trkpt lat="49.83014" lon="2.27492">
        <ele>109.5</ele>
        <time>2023-09-13T07:51:34Z</time>
      </trkpt>
      <trkpt lat="49.83015" lon="2.27494">
        <ele>109.5</ele>
        <time>2023-09-13T07:51:35Z</time>
      </trkpt>
      <trkpt lat="49.83015" lon="2.27496">
        <ele>109.5</ele>
        <time>2023-09-13T07:51:36Z</time>
      </trkpt>
      <trkpt lat="49.83016" lon="2.27498">
        <ele>109.5</ele>
        <time>2023-09-13T07:51:37Z</time>
      </trkpt>
      <trkpt lat="49.83017" lon="2.275">
        <ele>109.4</ele>
        <time>2023-09-13T07:51:39Z</time>
      </trkpt>
      <trkpt lat="49.83017" lon="2.27502">
        <ele>109.4</ele>
        <time>2023-09-13T07:51:40Z</time>
      </trkpt>
      <trkpt lat="49.83017" lon="2.27503">
        <ele>109.4</ele>
        <time>2023-09-13T07:51:41Z</time>
      </trkpt>
      <trkpt lat="49.83018" lon="2.27504">
        <ele>109.4</ele>
        <time>2023-09-13T07:51:42Z</time>
      </trkpt>
      <trkpt lat="49.83018" lon="2.27506">
        <ele>109.4</ele>
        <time>2023-09-13T07:51:43Z</time>
      </trkpt>
      <trkpt lat="49.83019" lon="2.27508">
        <ele>109.4</ele>
        <time>2023-09-13T07:51:44Z</time>
      </trkpt>
      <trkpt lat="49.83019" lon="2.27511">
        <ele>109.4</ele>
        <time>2023-09-13T07:51:46Z</time>
      </trkpt>
      <trkpt lat="49.83019" lon="2.27512">
        <ele>109.4</ele>
        <time>2023-09-13T07:51:47Z</time>
      </trkpt>
      <trkpt lat="49.8302" lon="2.27513">
        <ele>109.4</ele>
        <time>2023-09-13T07:51:48Z</time>
      </trkpt>
      <trkpt lat="49.8302" lon="2.27515">
        <ele>109.3</ele>
        <time>2023-09-13T07:51:49Z</time>
      </trkpt>
      <trkpt lat="49.83021" lon="2.27517">
        <ele>109.3</ele>
        <time>2023-09-13T07:51:50Z</time>
      </trkpt>
      <trkpt lat="49.83021" lon="2.27518">
        <ele>109.3</ele>
        <time>2023-09-13T07:51:51Z</time>
      </trkpt>
      <trkpt lat="49.83021" lon="2.27521">
        <ele>109.3</ele>
        <time>2023-09-13T07:51:53Z</time>
      </trkpt>
      <trkpt lat="49.83021" lon="2.27523">
        <ele>109.3</ele>
        <time>2023-09-13T07:51:54Z</time>
      </trkpt>
      <trkpt lat="49.83022" lon="2.27525">
        <ele>109.3</ele>
        <time>2023-09-13T07:51:55Z</time>
      </trkpt>
      <trkpt lat="49.83022" lon="2.27527">
        <ele>109.3</ele>
        <time>2023-09-13T07:51:56Z</time>
      </trkpt>
      <trkpt lat="49.83024" lon="2.27531">
        <ele>109.2</ele>
        <time>2023-09-13T07:51:58Z</time>
      </trkpt>
      <trkpt lat="49.83024" lon="2.27532">
        <ele>109.2</ele>
        <time>2023-09-13T07:51:59Z</time>
      </trkpt>
      <trkpt lat="49.83025" lon="2.27536">
        <ele>109.2</ele>
        <time>2023-09-13T07:52:00Z</time>
      </trkpt>
      <trkpt lat="49.83026" lon="2.27538">
        <ele>109.2</ele>
        <time>2023-09-13T07:52:01Z</time>
      </trkpt>
      <trkpt lat="49.83027" lon="2.27542">
        <ele>109.1</ele>
        <time>2023-09-13T07:52:02Z</time>
      </trkpt>
      <trkpt lat="49.83027" lon="2.27543">
        <ele>109.1</ele>
        <time>2023-09-13T07:52:03Z</time>
      </trkpt>
      <trkpt lat="49.83028" lon="2.27546">
        <ele>109.1</ele>
        <time>2023-09-13T07:52:04Z</time>
      </trkpt>
      <trkpt lat="49.83029" lon="2.27549">
        <ele>109.1</ele>
        <time>2023-09-13T07:52:06Z</time>
      </trkpt>
      <trkpt lat="49.8303" lon="2.27552">
        <ele>109</ele>
        <time>2023-09-13T07:52:07Z</time>
      </trkpt>
      <trkpt lat="49.8303" lon="2.27554">
        <ele>109</ele>
        <time>2023-09-13T07:52:08Z</time>
      </trkpt>
      <trkpt lat="49.83031" lon="2.27557">
        <ele>109</ele>
        <time>2023-09-13T07:52:09Z</time>
      </trkpt>
      <trkpt lat="49.83032" lon="2.27559">
        <ele>109</ele>
        <time>2023-09-13T07:52:10Z</time>
      </trkpt>
      <trkpt lat="49.83032" lon="2.2756">
        <ele>109</ele>
        <time>2023-09-13T07:52:11Z</time>
      </trkpt>
      <trkpt lat="49.83033" lon="2.27562">
        <ele>108.9</ele>
        <time>2023-09-13T07:52:12Z</time>
      </trkpt>
      <trkpt lat="49.83033" lon="2.27564">
        <ele>108.9</ele>
        <time>2023-09-13T07:52:14Z</time>
      </trkpt>
      <trkpt lat="49.83034" lon="2.27566">
        <ele>108.9</ele>
        <time>2023-09-13T07:52:15Z</time>
      </trkpt>
      <trkpt lat="49.83034" lon="2.27567">
        <ele>108.9</ele>
        <time>2023-09-13T07:52:16Z</time>
      </trkpt>
      <trkpt lat="49.83034" lon="2.27568">
        <ele>108.9</ele>
        <time>2023-09-13T07:52:17Z</time>
      </trkpt>
      <trkpt lat="49.83034" lon="2.2757">
        <ele>108.8</ele>
        <time>2023-09-13T07:52:18Z</time>
      </trkpt>
      <trkpt lat="49.83035" lon="2.27571">
        <ele>108.8</ele>
        <time>2023-09-13T07:52:19Z</time>
      </trkpt>
      <trkpt lat="49.83035" lon="2.27573">
        <ele>108.8</ele>
        <time>2023-09-13T07:52:20Z</time>
      </trkpt>
      <trkpt lat="49.83035" lon="2.27575">
        <ele>108.8</ele>
        <time>2023-09-13T07:52:21Z</time>
      </trkpt>
      <trkpt lat="49.83035" lon="2.27576">
        <ele>108.8</ele>
        <time>2023-09-13T07:52:22Z</time>
      </trkpt>
      <trkpt lat="49.83036" lon="2.27578">
        <ele>108.7</ele>
        <time>2023-09-13T07:52:24Z</time>
      </trkpt>
      <trkpt lat="49.83036" lon="2.27579">
        <ele>108.7</ele>
        <time>2023-09-13T07:52:25Z</time>
      </trkpt>
      <trkpt lat="49.83036" lon="2.27581">
        <ele>108.7</ele>
        <time>2023-09-13T07:52:26Z</time>
      </trkpt>
      <trkpt lat="49.83037" lon="2.27583">
        <ele>108.7</ele>
        <time>2023-09-13T07:52:27Z</time>
      </trkpt>
      <trkpt lat="49.83037" lon="2.27586">
        <ele>108.6</ele>
        <time>2023-09-13T07:52:28Z</time>
      </trkpt>
      <trkpt lat="49.83038" lon="2.27588">
        <ele>108.6</ele>
        <time>2023-09-13T07:52:29Z</time>
      </trkpt>
      <trkpt lat="49.83038" lon="2.27592">
        <ele>108.6</ele>
        <time>2023-09-13T07:52:31Z</time>
      </trkpt>
      <trkpt lat="49.83038" lon="2.27593">
        <ele>108.5</ele>
        <time>2023-09-13T07:52:32Z</time>
      </trkpt>
      <trkpt lat="49.83039" lon="2.27594">
        <ele>108.5</ele>
        <time>2023-09-13T07:52:33Z</time>
      </trkpt>
      <trkpt lat="49.83039" lon="2.27597">
        <ele>108.5</ele>
        <time>2023-09-13T07:52:34Z</time>
      </trkpt>
      <trkpt lat="49.83039" lon="2.27599">
        <ele>108.5</ele>
        <time>2023-09-13T07:52:35Z</time>
      </trkpt>
      <trkpt lat="49.8304" lon="2.276">
        <ele>108.5</ele>
        <time>2023-09-13T07:52:36Z</time>
      </trkpt>
      <trkpt lat="49.8304" lon="2.27602">
        <ele>108.4</ele>
        <time>2023-09-13T07:52:37Z</time>
      </trkpt>
      <trkpt lat="49.8304" lon="2.27605">
        <ele>108.4</ele>
        <time>2023-09-13T07:52:39Z</time>
      </trkpt>
      <trkpt lat="49.83041" lon="2.27607">
        <ele>108.4</ele>
        <time>2023-09-13T07:52:40Z</time>
      </trkpt>
      <trkpt lat="49.83041" lon="2.27609">
        <ele>108.4</ele>
        <time>2023-09-13T07:52:41Z</time>
      </trkpt>
      <trkpt lat="49.83042" lon="2.27612">
        <ele>108.3</ele>
        <time>2023-09-13T07:52:42Z</time>
      </trkpt>
      <trkpt lat="49.83042" lon="2.27614">
        <ele>108.3</ele>
        <time>2023-09-13T07:52:43Z</time>
      </trkpt>
      <trkpt lat="49.83043" lon="2.27616">
        <ele>108.3</ele>
        <time>2023-09-13T07:52:44Z</time>
      </trkpt>
      <trkpt lat="49.83043" lon="2.27619">
        <ele>108.3</ele>
        <time>2023-09-13T07:52:45Z</time>
      </trkpt>
      <trkpt lat="49.83044" lon="2.27621">
        <ele>108.3</ele>
        <time>2023-09-13T07:52:47Z</time>
      </trkpt>
      <trkpt lat="49.83044" lon="2.27622">
        <ele>108.2</ele>
        <time>2023-09-13T07:52:48Z</time>
      </trkpt>
      <trkpt lat="49.83045" lon="2.27624">
        <ele>108.2</ele>
        <time>2023-09-13T07:52:49Z</time>
      </trkpt>
      <trkpt lat="49.83046" lon="2.27626">
        <ele>108.2</ele>
        <time>2023-09-13T07:52:50Z</time>
      </trkpt>
      <trkpt lat="49.83046" lon="2.27628">
        <ele>108.1</ele>
        <time>2023-09-13T07:52:51Z</time>
      </trkpt>
      <trkpt lat="49.83046" lon="2.2763">
        <ele>108.1</ele>
        <time>2023-09-13T07:52:52Z</time>
      </trkpt>
      <trkpt lat="49.83047" lon="2.27633">
        <ele>108</ele>
        <time>2023-09-13T07:52:53Z</time>
      </trkpt>
      <trkpt lat="49.83047" lon="2.27635">
        <ele>108</ele>
        <time>2023-09-13T07:52:54Z</time>
      </trkpt>
      <trkpt lat="49.83047" lon="2.27638">
        <ele>107.9</ele>
        <time>2023-09-13T07:52:55Z</time>
      </trkpt>
      <trkpt lat="49.83047" lon="2.2764">
        <ele>107.9</ele>
        <time>2023-09-13T07:52:57Z</time>
      </trkpt>
      <trkpt lat="49.83048" lon="2.27642">
        <ele>107.8</ele>
        <time>2023-09-13T07:52:58Z</time>
      </trkpt>
      <trkpt lat="49.83048" lon="2.27644">
        <ele>107.8</ele>
        <time>2023-09-13T07:52:59Z</time>
      </trkpt>
      <trkpt lat="49.83048" lon="2.27646">
        <ele>107.7</ele>
        <time>2023-09-13T07:53:00Z</time>
      </trkpt>
      <trkpt lat="49.83049" lon="2.27648">
        <ele>107.7</ele>
        <time>2023-09-13T07:53:01Z</time>
      </trkpt>
      <trkpt lat="49.83052" lon="2.27649">
        <ele>107.6</ele>
        <time>2023-09-13T07:53:03Z</time>
      </trkpt>
      <trkpt lat="49.83052" lon="2.27648">
        <ele>107.6</ele>
        <time>2023-09-13T07:53:04Z</time>
      </trkpt>
      <trkpt lat="49.83054" lon="2.27647">
        <ele>107.5</ele>
        <time>2023-09-13T07:53:05Z</time>
      </trkpt>
      <trkpt lat="49.83055" lon="2.27643">
        <ele>107.5</ele>
        <time>2023-09-13T07:53:07Z</time>
      </trkpt>
      <trkpt lat="49.83055" lon="2.27642">
        <ele>107.4</ele>
        <time>2023-09-13T07:53:08Z</time>
      </trkpt>
      <trkpt lat="49.83055" lon="2.27642">
        <ele>107.4</ele>
        <time>2023-09-13T07:53:09Z</time>
      </trkpt>
      <trkpt lat="49.83055" lon="2.27642">
        <ele>107.4</ele>
        <time>2023-09-13T07:53:11Z</time>
      </trkpt>
      <trkpt lat="49.83055" lon="2.27642">
        <ele>107.4</ele>
        <time>2023-09-13T07:53:12Z</time>
      </trkpt>
      <trkpt lat="49.83055" lon="2.27642">
        <ele>107.4</ele>
        <time>2023-09-13T07:53:14Z</time>
      </trkpt>
      <trkpt lat="49.83054" lon="2.27642">
        <ele>107.4</ele>
        <time>2023-09-13T07:53:15Z</time>
      </trkpt>
      <trkpt lat="49.83054" lon="2.27642">
        <ele>107.4</ele>
        <time>2023-09-13T07:53:16Z</time>
      </trkpt>
      <trkpt lat="49.83054" lon="2.27642">
        <ele>107.4</ele>
        <time>2023-09-13T07:53:18Z</time>
      </trkpt>
      <trkpt lat="49.83054" lon="2.27641">
        <ele>107.4</ele>
        <time>2023-09-13T07:53:19Z</time>
      </trkpt>
      <trkpt lat="49.83054" lon="2.27641">
        <ele>107.4</ele>
        <time>2023-09-13T07:53:20Z</time>
      </trkpt>
      <trkpt lat="49.83054" lon="2.27641">
        <ele>107.4</ele>
        <time>2023-09-13T07:53:22Z</time>
      </trkpt>
      <trkpt lat="49.83054" lon="2.27641">
        <ele>107.4</ele>
        <time>2023-09-13T07:53:23Z</time>
      </trkpt>
      <trkpt lat="49.83054" lon="2.27641">
        <ele>107.4</ele>
        <time>2023-09-13T07:53:24Z</time>
      </trkpt>
      <trkpt lat="49.83054" lon="2.27641">
        <ele>107.4</ele>
        <time>2023-09-13T07:53:25Z</time>
      </trkpt>
      <trkpt lat="49.83054" lon="2.27641">
        <ele>107.4</ele>
        <time>2023-09-13T07:53:26Z</time>
      </trkpt>
      <trkpt lat="49.83054" lon="2.27641">
        <ele>107.4</ele>
        <time>2023-09-13T07:53:27Z</time>
      </trkpt>
      <trkpt lat="49.83053" lon="2.2764">
        <ele>107.4</ele>
        <time>2023-09-13T07:53:28Z</time>
      </trkpt>
      <trkpt lat="49.83053" lon="2.2764">
        <ele>107.4</ele>
        <time>2023-09-13T07:53:29Z</time>
      </trkpt>
      <trkpt lat="49.83053" lon="2.2764">
        <ele>107.4</ele>
        <time>2023-09-13T07:53:30Z</time>
      </trkpt>
      <trkpt lat="49.83053" lon="2.2764">
        <ele>107.4</ele>
        <time>2023-09-13T07:53:31Z</time>
      </trkpt>
      <trkpt lat="49.83053" lon="2.2764">
        <ele>107.4</ele>
        <time>2023-09-13T07:53:32Z</time>
      </trkpt>
      <trkpt lat="49.83053" lon="2.2764">
        <ele>107.4</ele>
        <time>2023-09-13T07:53:33Z</time>
      </trkpt>
      <trkpt lat="49.83053" lon="2.2764">
        <ele>107.4</ele>
        <time>2023-09-13T07:53:34Z</time>
      </trkpt>
      <trkpt lat="49.83053" lon="2.2764">
        <ele>107.4</ele>
        <time>2023-09-13T07:53:35Z</time>
      </trkpt>
      <trkpt lat="49.83053" lon="2.2764">
        <ele>107.4</ele>
        <time>2023-09-13T07:53:36Z</time>
      </trkpt>
      <trkpt lat="49.83053" lon="2.27639">
        <ele>107.4</ele>
        <time>2023-09-13T07:53:37Z</time>
      </trkpt>
      <trkpt lat="49.83053" lon="2.27639">
        <ele>107.4</ele>
        <time>2023-09-13T07:53:38Z</time>
      </trkpt>
      <trkpt lat="49.83052" lon="2.27639">
        <ele>107.4</ele>
        <time>2023-09-13T07:53:39Z</time>
      </trkpt>
      <trkpt lat="49.83052" lon="2.27639">
        <ele>107.3</ele>
        <time>2023-09-13T07:53:40Z</time>
      </trkpt>
      <trkpt lat="49.83052" lon="2.27639">
        <ele>107.3</ele>
        <time>2023-09-13T07:53:41Z</time>
      </trkpt>
      <trkpt lat="49.83052" lon="2.27639">
        <ele>107.3</ele>
        <time>2023-09-13T07:53:42Z</time>
      </trkpt>
      <trkpt lat="49.83052" lon="2.27639">
        <ele>107.3</ele>
        <time>2023-09-13T07:53:43Z</time>
      </trkpt>
      <trkpt lat="49.83052" lon="2.27639">
        <ele>107.3</ele>
        <time>2023-09-13T07:53:44Z</time>
      </trkpt>
      <trkpt lat="49.83052" lon="2.27638">
        <ele>107.3</ele>
        <time>2023-09-13T07:53:45Z</time>
      </trkpt>
      <trkpt lat="49.83052" lon="2.27638">
        <ele>107.3</ele>
        <time>2023-09-13T07:53:46Z</time>
      </trkpt>
      <trkpt lat="49.83052" lon="2.27638">
        <ele>107.3</ele>
        <time>2023-09-13T07:53:47Z</time>
      </trkpt>
      <trkpt lat="49.83052" lon="2.27638">
        <ele>107.3</ele>
        <time>2023-09-13T07:53:48Z</time>
      </trkpt>
      <trkpt lat="49.83051" lon="2.27638">
        <ele>107.3</ele>
        <time>2023-09-13T07:53:49Z</time>
      </trkpt>
      <trkpt lat="49.83051" lon="2.27638">
        <ele>107.3</ele>
        <time>2023-09-13T07:53:50Z</time>
      </trkpt>
      <trkpt lat="49.83051" lon="2.27638">
        <ele>107.3</ele>
        <time>2023-09-13T07:53:51Z</time>
      </trkpt>
      <trkpt lat="49.83051" lon="2.27638">
        <ele>107.3</ele>
        <time>2023-09-13T07:53:52Z</time>
      </trkpt>
      <trkpt lat="49.83051" lon="2.27637">
        <ele>107.3</ele>
        <time>2023-09-13T07:53:53Z</time>
      </trkpt>
      <trkpt lat="49.83051" lon="2.27637">
        <ele>107.3</ele>
        <time>2023-09-13T07:53:54Z</time>
      </trkpt>
      <trkpt lat="49.83051" lon="2.27637">
        <ele>107.3</ele>
        <time>2023-09-13T07:53:55Z</time>
      </trkpt>
      <trkpt lat="49.83051" lon="2.27637">
        <ele>107.3</ele>
        <time>2023-09-13T07:53:56Z</time>
      </trkpt>
      <trkpt lat="49.83051" lon="2.27637">
        <ele>107.3</ele>
        <time>2023-09-13T07:53:57Z</time>
      </trkpt>
      <trkpt lat="49.83051" lon="2.27637">
        <ele>107.3</ele>
        <time>2023-09-13T07:53:58Z</time>
      </trkpt>
      <trkpt lat="49.83051" lon="2.27637">
        <ele>107.3</ele>
        <time>2023-09-13T07:53:59Z</time>
      </trkpt>
      <trkpt lat="49.8305" lon="2.27637">
        <ele>107.3</ele>
        <time>2023-09-13T07:54:00Z</time>
      </trkpt>
      <trkpt lat="49.8305" lon="2.27636">
        <ele>107.3</ele>
        <time>2023-09-13T07:54:01Z</time>
      </trkpt>
      <trkpt lat="49.8305" lon="2.27636">
        <ele>107.3</ele>
        <time>2023-09-13T07:54:02Z</time>
      </trkpt>
      <trkpt lat="49.8305" lon="2.27636">
        <ele>107.3</ele>
        <time>2023-09-13T07:54:03Z</time>
      </trkpt>
      <trkpt lat="49.8305" lon="2.27636">
        <ele>107.3</ele>
        <time>2023-09-13T07:54:04Z</time>
      </trkpt>
      <trkpt lat="49.8305" lon="2.27636">
        <ele>107.3</ele>
        <time>2023-09-13T07:54:05Z</time>
      </trkpt>
      <trkpt lat="49.8305" lon="2.27636">
        <ele>107.3</ele>
        <time>2023-09-13T07:54:06Z</time>
      </trkpt>
      <trkpt lat="49.8305" lon="2.27636">
        <ele>107.3</ele>
        <time>2023-09-13T07:54:07Z</time>
      </trkpt>
      <trkpt lat="49.8305" lon="2.27636">
        <ele>107.3</ele>
        <time>2023-09-13T07:54:08Z</time>
      </trkpt>
      <trkpt lat="49.8305" lon="2.27635">
        <ele>107.3</ele>
        <time>2023-09-13T07:54:09Z</time>
      </trkpt>
      <trkpt lat="49.83049" lon="2.27635">
        <ele>107.3</ele>
        <time>2023-09-13T07:54:10Z</time>
      </trkpt>
      <trkpt lat="49.83048" lon="2.27633">
        <ele>107.2</ele>
        <time>2023-09-13T07:54:11Z</time>
      </trkpt>
      <trkpt lat="49.83047" lon="2.27632">
        <ele>107.2</ele>
        <time>2023-09-13T07:54:12Z</time>
      </trkpt>
      <trkpt lat="49.83047" lon="2.27632">
        <ele>107.2</ele>
        <time>2023-09-13T07:54:13Z</time>
      </trkpt>
      <trkpt lat="49.83047" lon="2.27632">
        <ele>107.2</ele>
        <time>2023-09-13T07:54:14Z</time>
      </trkpt>
      <trkpt lat="49.83047" lon="2.27632">
        <ele>107.2</ele>
        <time>2023-09-13T07:54:15Z</time>
      </trkpt>
      <trkpt lat="49.83047" lon="2.27631">
        <ele>107.2</ele>
        <time>2023-09-13T07:54:16Z</time>
      </trkpt>
      <trkpt lat="49.83047" lon="2.27631">
        <ele>107.2</ele>
        <time>2023-09-13T07:54:17Z</time>
      </trkpt>
      <trkpt lat="49.83047" lon="2.27632">
        <ele>107.2</ele>
        <time>2023-09-13T07:54:18Z</time>
      </trkpt>
      <trkpt lat="49.83047" lon="2.27632">
        <ele>107.1</ele>
        <time>2023-09-13T07:54:19Z</time>
      </trkpt>
      <trkpt lat="49.83047" lon="2.27632">
        <ele>107.1</ele>
        <time>2023-09-13T07:54:20Z</time>
      </trkpt>
      <trkpt lat="49.83047" lon="2.27632">
        <ele>107.1</ele>
        <time>2023-09-13T07:54:21Z</time>
      </trkpt>
      <trkpt lat="49.83047" lon="2.27632">
        <ele>107.1</ele>
        <time>2023-09-13T07:54:22Z</time>
      </trkpt>
      <trkpt lat="49.83047" lon="2.27632">
        <ele>107.1</ele>
        <time>2023-09-13T07:54:23Z</time>
      </trkpt>
      <trkpt lat="49.83047" lon="2.27632">
        <ele>107.1</ele>
        <time>2023-09-13T07:54:24Z</time>
      </trkpt>
      <trkpt lat="49.83047" lon="2.27632">
        <ele>107.1</ele>
        <time>2023-09-13T07:54:25Z</time>
      </trkpt>
      <trkpt lat="49.83047" lon="2.27632">
        <ele>107.1</ele>
        <time>2023-09-13T07:54:26Z</time>
      </trkpt>
      <trkpt lat="49.83047" lon="2.27632">
        <ele>107.1</ele>
        <time>2023-09-13T07:54:27Z</time>
      </trkpt>
      <trkpt lat="49.83047" lon="2.27632">
        <ele>107.1</ele>
        <time>2023-09-13T07:54:28Z</time>
      </trkpt>
      <trkpt lat="49.83047" lon="2.27632">
        <ele>107.1</ele>
        <time>2023-09-13T07:54:29Z</time>
      </trkpt>
      <trkpt lat="49.83047" lon="2.27632">
        <ele>107.1</ele>
        <time>2023-09-13T07:54:30Z</time>
      </trkpt>
      <trkpt lat="49.83047" lon="2.27632">
        <ele>107.1</ele>
        <time>2023-09-13T07:54:31Z</time>
      </trkpt>
      <trkpt lat="49.83047" lon="2.27632">
        <ele>107.1</ele>
        <time>2023-09-13T07:54:32Z</time>
      </trkpt>
      <trkpt lat="49.83047" lon="2.27632">
        <ele>107.1</ele>
        <time>2023-09-13T07:54:33Z</time>
      </trkpt>
      <trkpt lat="49.83047" lon="2.27632">
        <ele>107.1</ele>
        <time>2023-09-13T07:54:34Z</time>
      </trkpt>
      <trkpt lat="49.83047" lon="2.27632">
        <ele>107.1</ele>
        <time>2023-09-13T07:54:35Z</time>
      </trkpt>
      <trkpt lat="49.83047" lon="2.27632">
        <ele>107.1</ele>
        <time>2023-09-13T07:54:36Z</time>
      </trkpt>
      <trkpt lat="49.83047" lon="2.27632">
        <ele>107.1</ele>
        <time>2023-09-13T07:54:37Z</time>
      </trkpt>
      <trkpt lat="49.83047" lon="2.27632">
        <ele>107.1</ele>
        <time>2023-09-13T07:54:38Z</time>
      </trkpt>
      <trkpt lat="49.83047" lon="2.27632">
        <ele>107.1</ele>
        <time>2023-09-13T07:54:39Z</time>
      </trkpt>
      <trkpt lat="49.83047" lon="2.27632">
        <ele>107.1</ele>
        <time>2023-09-13T07:54:40Z</time>
      </trkpt>
      <trkpt lat="49.83047" lon="2.27632">
        <ele>107.1</ele>
        <time>2023-09-13T07:54:41Z</time>
      </trkpt>
      <trkpt lat="49.83047" lon="2.27632">
        <ele>107.1</ele>
        <time>2023-09-13T07:54:42Z</time>
      </trkpt>
      <trkpt lat="49.83047" lon="2.27632">
        <ele>107.1</ele>
        <time>2023-09-13T07:54:43Z</time>
      </trkpt>
      <trkpt lat="49.83047" lon="2.27632">
        <ele>107.1</ele>
        <time>2023-09-13T07:54:44Z</time>
      </trkpt>
      <trkpt lat="49.83047" lon="2.27632">
        <ele>107.1</ele>
        <time>2023-09-13T07:54:45Z</time>
      </trkpt>
      <trkpt lat="49.83047" lon="2.27632">
        <ele>107.1</ele>
        <time>2023-09-13T07:54:46Z</time>
      </trkpt>
      <trkpt lat="49.83047" lon="2.27632">
        <ele>107.1</ele>
        <time>2023-09-13T07:54:47Z</time>
      </trkpt>
      <trkpt lat="49.83047" lon="2.27632">
        <ele>107.1</ele>
        <time>2023-09-13T07:54:48Z</time>
      </trkpt>
      <trkpt lat="49.83047" lon="2.27632">
        <ele>107.1</ele>
        <time>2023-09-13T07:54:49Z</time>
      </trkpt>
      <trkpt lat="49.83047" lon="2.27632">
        <ele>107.1</ele>
        <time>2023-09-13T07:54:50Z</time>
      </trkpt>
      <trkpt lat="49.83047" lon="2.27632">
        <ele>107.1</ele>
        <time>2023-09-13T07:54:51Z</time>
      </trkpt>
      <trkpt lat="49.83047" lon="2.27632">
        <ele>107.1</ele>
        <time>2023-09-13T07:54:52Z</time>
      </trkpt>
      <trkpt lat="49.83047" lon="2.27632">
        <ele>107.1</ele>
        <time>2023-09-13T07:54:53Z</time>
      </trkpt>
      <trkpt lat="49.83047" lon="2.27632">
        <ele>107.1</ele>
        <time>2023-09-13T07:54:54Z</time>
      </trkpt>
      <trkpt lat="49.83047" lon="2.27632">
        <ele>107.1</ele>
        <time>2023-09-13T07:54:55Z</time>
      </trkpt>
      <trkpt lat="49.83047" lon="2.27632">
        <ele>107.1</ele>
        <time>2023-09-13T07:54:56Z</time>
      </trkpt>
      <trkpt lat="49.83047" lon="2.27632">
        <ele>107.1</ele>
        <time>2023-09-13T07:54:57Z</time>
      </trkpt>
      <trkpt lat="49.83047" lon="2.27632">
        <ele>107.1</ele>
        <time>2023-09-13T07:54:58Z</time>
      </trkpt>
      <trkpt lat="49.83047" lon="2.27632">
        <ele>107.1</ele>
        <time>2023-09-13T07:54:59Z</time>
      </trkpt>
      <trkpt lat="49.83047" lon="2.27632">
        <ele>107.1</ele>
        <time>2023-09-13T07:55:00Z</time>
      </trkpt>
      <trkpt lat="49.83047" lon="2.27632">
        <ele>107.1</ele>
        <time>2023-09-13T07:55:01Z</time>
      </trkpt>
      <trkpt lat="49.83047" lon="2.27632">
        <ele>107.1</ele>
        <time>2023-09-13T07:55:02Z</time>
      </trkpt>
      <trkpt lat="49.83047" lon="2.27632">
        <ele>107.1</ele>
        <time>2023-09-13T07:55:03Z</time>
      </trkpt>
      <trkpt lat="49.83047" lon="2.27632">
        <ele>107.1</ele>
        <time>2023-09-13T07:55:04Z</time>
      </trkpt>
      <trkpt lat="49.83047" lon="2.27632">
        <ele>107.1</ele>
        <time>2023-09-13T07:55:05Z</time>
      </trkpt>
      <trkpt lat="49.83047" lon="2.27632">
        <ele>107.1</ele>
        <time>2023-09-13T07:55:06Z</time>
      </trkpt>
      <trkpt lat="49.83047" lon="2.27632">
        <ele>107.1</ele>
        <time>2023-09-13T07:55:07Z</time>
      </trkpt>
      <trkpt lat="49.83047" lon="2.27632">
        <ele>107.1</ele>
        <time>2023-09-13T07:55:08Z</time>
      </trkpt>
      <trkpt lat="49.83047" lon="2.27632">
        <ele>107.1</ele>
        <time>2023-09-13T07:55:09Z</time>
      </trkpt>
      <trkpt lat="49.83047" lon="2.27632">
        <ele>107.1</ele>
        <time>2023-09-13T07:55:10Z</time>
      </trkpt>
      <trkpt lat="49.83047" lon="2.27632">
        <ele>107.1</ele>
        <time>2023-09-13T07:55:11Z</time>
      </trkpt>
      <trkpt lat="49.83047" lon="2.27632">
        <ele>107.1</ele>
        <time>2023-09-13T07:55:12Z</time>
      </trkpt>
      <trkpt lat="49.83047" lon="2.27632">
        <ele>107.1</ele>
        <time>2023-09-13T07:55:13Z</time>
      </trkpt>
      <trkpt lat="49.83047" lon="2.27632">
        <ele>107.1</ele>
        <time>2023-09-13T07:55:14Z</time>
      </trkpt>
      <trkpt lat="49.83047" lon="2.27632">
        <ele>107.1</ele>
        <time>2023-09-13T07:55:15Z</time>
      </trkpt>
      <trkpt lat="49.83047" lon="2.27632">
        <ele>107.1</ele>
        <time>2023-09-13T07:55:16Z</time>
      </trkpt>
      <trkpt lat="49.83047" lon="2.27632">
        <ele>107.1</ele>
        <time>2023-09-13T07:55:17Z</time>
      </trkpt>
      <trkpt lat="49.83047" lon="2.27632">
        <ele>107.1</ele>
        <time>2023-09-13T07:55:18Z</time>
      </trkpt>
      <trkpt lat="49.83047" lon="2.27632">
        <ele>107.1</ele>
        <time>2023-09-13T07:55:19Z</time>
      </trkpt>
      <trkpt lat="49.83047" lon="2.27632">
        <ele>107.1</ele>
        <time>2023-09-13T07:55:20Z</time>
      </trkpt>
      <trkpt lat="49.83047" lon="2.27632">
        <ele>107.1</ele>
        <time>2023-09-13T07:55:21Z</time>
      </trkpt>
      <trkpt lat="49.83047" lon="2.27632">
        <ele>107.1</ele>
        <time>2023-09-13T07:55:22Z</time>
      </trkpt>
      <trkpt lat="49.83047" lon="2.27632">
        <ele>107.1</ele>
        <time>2023-09-13T07:55:23Z</time>
      </trkpt>
      <trkpt lat="49.83047" lon="2.27632">
        <ele>107.1</ele>
        <time>2023-09-13T07:55:24Z</time>
      </trkpt>
      <trkpt lat="49.83047" lon="2.27632">
        <ele>107.1</ele>
        <time>2023-09-13T07:55:25Z</time>
      </trkpt>
      <trkpt lat="49.83047" lon="2.27632">
        <ele>107.1</ele>
        <time>2023-09-13T07:55:26Z</time>
      </trkpt>
      <trkpt lat="49.83047" lon="2.27632">
        <ele>107.1</ele>
        <time>2023-09-13T07:55:27Z</time>
      </trkpt>
      <trkpt lat="49.83047" lon="2.27632">
        <ele>107.1</ele>
        <time>2023-09-13T07:55:28Z</time>
      </trkpt>
      <trkpt lat="49.83047" lon="2.27632">
        <ele>107.1</ele>
        <time>2023-09-13T07:55:29Z</time>
      </trkpt>
      <trkpt lat="49.83047" lon="2.27632">
        <ele>107.1</ele>
        <time>2023-09-13T07:55:30Z</time>
      </trkpt>
      <trkpt lat="49.83047" lon="2.27632">
        <ele>107.1</ele>
        <time>2023-09-13T07:55:31Z</time>
      </trkpt>
      <trkpt lat="49.83047" lon="2.27632">
        <ele>107.1</ele>
        <time>2023-09-13T07:55:32Z</time>
      </trkpt>
      <trkpt lat="49.83047" lon="2.27632">
        <ele>107.1</ele>
        <time>2023-09-13T07:55:33Z</time>
      </trkpt>
      <trkpt lat="49.83047" lon="2.27632">
        <ele>107.1</ele>
        <time>2023-09-13T07:55:34Z</time>
      </trkpt>
      <trkpt lat="49.83047" lon="2.27632">
        <ele>107.1</ele>
        <time>2023-09-13T07:55:35Z</time>
      </trkpt>
      <trkpt lat="49.83047" lon="2.27632">
        <ele>107.1</ele>
        <time>2023-09-13T07:55:36Z</time>
      </trkpt>
      <trkpt lat="49.83047" lon="2.27632">
        <ele>107.1</ele>
        <time>2023-09-13T07:55:37Z</time>
      </trkpt>
      <trkpt lat="49.83047" lon="2.27632">
        <ele>107.1</ele>
        <time>2023-09-13T07:55:38Z</time>
      </trkpt>
      <trkpt lat="49.83047" lon="2.27632">
        <ele>107.1</ele>
        <time>2023-09-13T07:55:39Z</time>
      </trkpt>
      <trkpt lat="49.83047" lon="2.27632">
        <ele>107.1</ele>
        <time>2023-09-13T07:55:40Z</time>
      </trkpt>
      <trkpt lat="49.83047" lon="2.27632">
        <ele>107.1</ele>
        <time>2023-09-13T07:55:41Z</time>
      </trkpt>
      <trkpt lat="49.83047" lon="2.27632">
        <ele>107.1</ele>
        <time>2023-09-13T07:55:42Z</time>
      </trkpt>
      <trkpt lat="49.83047" lon="2.27632">
        <ele>107.1</ele>
        <time>2023-09-13T07:55:43Z</time>
      </trkpt>
      <trkpt lat="49.83048" lon="2.27632">
        <ele>107.1</ele>
        <time>2023-09-13T07:55:44Z</time>
      </trkpt>
      <trkpt lat="49.83048" lon="2.27633">
        <ele>107.1</ele>
        <time>2023-09-13T07:55:45Z</time>
      </trkpt>
      <trkpt lat="49.83049" lon="2.27635">
        <ele>107.1</ele>
        <time>2023-09-13T07:55:46Z</time>
      </trkpt>
      <trkpt lat="49.83048" lon="2.27636">
        <ele>107.1</ele>
        <time>2023-09-13T07:55:47Z</time>
      </trkpt>
      <trkpt lat="49.83048" lon="2.27639">
        <ele>107</ele>
        <time>2023-09-13T07:55:48Z</time>
      </trkpt>
      <trkpt lat="49.83049" lon="2.2764">
        <ele>107</ele>
        <time>2023-09-13T07:55:50Z</time>
      </trkpt>
      <trkpt lat="49.83049" lon="2.27642">
        <ele>107</ele>
        <time>2023-09-13T07:55:51Z</time>
      </trkpt>
      <trkpt lat="49.8305" lon="2.27646">
        <ele>106.9</ele>
        <time>2023-09-13T07:55:52Z</time>
      </trkpt>
      <trkpt lat="49.8305" lon="2.27647">
        <ele>106.8</ele>
        <time>2023-09-13T07:55:53Z</time>
      </trkpt>
      <trkpt lat="49.83051" lon="2.2765">
        <ele>106.8</ele>
        <time>2023-09-13T07:55:54Z</time>
      </trkpt>
      <trkpt lat="49.83051" lon="2.27652">
        <ele>106.8</ele>
        <time>2023-09-13T07:55:55Z</time>
      </trkpt>
      <trkpt lat="49.83051" lon="2.27653">
        <ele>106.7</ele>
        <time>2023-09-13T07:55:56Z</time>
      </trkpt>
      <trkpt lat="49.83052" lon="2.27655">
        <ele>106.7</ele>
        <time>2023-09-13T07:55:58Z</time>
      </trkpt>
      <trkpt lat="49.83052" lon="2.27657">
        <ele>106.7</ele>
        <time>2023-09-13T07:55:59Z</time>
      </trkpt>
      <trkpt lat="49.83053" lon="2.27659">
        <ele>106.6</ele>
        <time>2023-09-13T07:56:00Z</time>
      </trkpt>
      <trkpt lat="49.83053" lon="2.27661">
        <ele>106.6</ele>
        <time>2023-09-13T07:56:01Z</time>
      </trkpt>
      <trkpt lat="49.83053" lon="2.27662">
        <ele>106.5</ele>
        <time>2023-09-13T07:56:03Z</time>
      </trkpt>
      <trkpt lat="49.83054" lon="2.27665">
        <ele>106.5</ele>
        <time>2023-09-13T07:56:04Z</time>
      </trkpt>
      <trkpt lat="49.83054" lon="2.27667">
        <ele>106.4</ele>
        <time>2023-09-13T07:56:05Z</time>
      </trkpt>
      <trkpt lat="49.83054" lon="2.27669">
        <ele>106.4</ele>
        <time>2023-09-13T07:56:06Z</time>
      </trkpt>
      <trkpt lat="49.83055" lon="2.27673">
        <ele>106.3</ele>
        <time>2023-09-13T07:56:07Z</time>
      </trkpt>
      <trkpt lat="49.83055" lon="2.27675">
        <ele>106.3</ele>
        <time>2023-09-13T07:56:08Z</time>
      </trkpt>
      <trkpt lat="49.83055" lon="2.27678">
        <ele>106.2</ele>
        <time>2023-09-13T07:56:09Z</time>
      </trkpt>
      <trkpt lat="49.83055" lon="2.2768">
        <ele>106.2</ele>
        <time>2023-09-13T07:56:10Z</time>
      </trkpt>
      <trkpt lat="49.83056" lon="2.27682">
        <ele>106.1</ele>
        <time>2023-09-13T07:56:11Z</time>
      </trkpt>
      <trkpt lat="49.83056" lon="2.27685">
        <ele>106.1</ele>
        <time>2023-09-13T07:56:13Z</time>
      </trkpt>
      <trkpt lat="49.83056" lon="2.27687">
        <ele>106</ele>
        <time>2023-09-13T07:56:14Z</time>
      </trkpt>
      <trkpt lat="49.83056" lon="2.27689">
        <ele>105.9</ele>
        <time>2023-09-13T07:56:15Z</time>
      </trkpt>
      <trkpt lat="49.83057" lon="2.27692">
        <ele>105.9</ele>
        <time>2023-09-13T07:56:16Z</time>
      </trkpt>
      <trkpt lat="49.83057" lon="2.27694">
        <ele>105.8</ele>
        <time>2023-09-13T07:56:17Z</time>
      </trkpt>
      <trkpt lat="49.83057" lon="2.27695">
        <ele>105.8</ele>
        <time>2023-09-13T07:56:18Z</time>
      </trkpt>
      <trkpt lat="49.83057" lon="2.27698">
        <ele>105.7</ele>
        <time>2023-09-13T07:56:19Z</time>
      </trkpt>
      <trkpt lat="49.83057" lon="2.27701">
        <ele>105.7</ele>
        <time>2023-09-13T07:56:21Z</time>
      </trkpt>
      <trkpt lat="49.83057" lon="2.27702">
        <ele>105.6</ele>
        <time>2023-09-13T07:56:22Z</time>
      </trkpt>
      <trkpt lat="49.83057" lon="2.27704">
        <ele>105.6</ele>
        <time>2023-09-13T07:56:23Z</time>
      </trkpt>
      <trkpt lat="49.83057" lon="2.27706">
        <ele>105.5</ele>
        <time>2023-09-13T07:56:24Z</time>
      </trkpt>
      <trkpt lat="49.83058" lon="2.27706">
        <ele>105.5</ele>
        <time>2023-09-13T07:56:25Z</time>
      </trkpt>
      <trkpt lat="49.83058" lon="2.27707">
        <ele>105.5</ele>
        <time>2023-09-13T07:56:26Z</time>
      </trkpt>
      <trkpt lat="49.83056" lon="2.27707">
        <ele>105.4</ele>
        <time>2023-09-13T07:56:28Z</time>
      </trkpt>
      <trkpt lat="49.83056" lon="2.27707">
        <ele>105.4</ele>
        <time>2023-09-13T07:56:29Z</time>
      </trkpt>
      <trkpt lat="49.83055" lon="2.27706">
        <ele>105.4</ele>
        <time>2023-09-13T07:56:31Z</time>
      </trkpt>
      <trkpt lat="49.83055" lon="2.27706">
        <ele>105.4</ele>
        <time>2023-09-13T07:56:32Z</time>
      </trkpt>
      <trkpt lat="49.83056" lon="2.27706">
        <ele>105.4</ele>
        <time>2023-09-13T07:56:34Z</time>
      </trkpt>
      <trkpt lat="49.83056" lon="2.27705">
        <ele>105.4</ele>
        <time>2023-09-13T07:56:35Z</time>
      </trkpt>
      <trkpt lat="49.83056" lon="2.27705">
        <ele>105.3</ele>
        <time>2023-09-13T07:56:36Z</time>
      </trkpt>
      <trkpt lat="49.83056" lon="2.27705">
        <ele>105.3</ele>
        <time>2023-09-13T07:56:38Z</time>
      </trkpt>
      <trkpt lat="49.83056" lon="2.27705">
        <ele>105.3</ele>
        <time>2023-09-13T07:56:39Z</time>
      </trkpt>
      <trkpt lat="49.83056" lon="2.27705">
        <ele>105.3</ele>
        <time>2023-09-13T07:56:41Z</time>
      </trkpt>
      <trkpt lat="49.83056" lon="2.27706">
        <ele>105.3</ele>
        <time>2023-09-13T07:56:43Z</time>
      </trkpt>
      <trkpt lat="49.83056" lon="2.27706">
        <ele>105.3</ele>
        <time>2023-09-13T07:56:44Z</time>
      </trkpt>
      <trkpt lat="49.83056" lon="2.27707">
        <ele>105.3</ele>
        <time>2023-09-13T07:56:45Z</time>
      </trkpt>
      <trkpt lat="49.83056" lon="2.27708">
        <ele>105.3</ele>
        <time>2023-09-13T07:56:46Z</time>
      </trkpt>
      <trkpt lat="49.83057" lon="2.27709">
        <ele>105.2</ele>
        <time>2023-09-13T07:56:47Z</time>
      </trkpt>
      <trkpt lat="49.83057" lon="2.2771">
        <ele>105.2</ele>
        <time>2023-09-13T07:56:48Z</time>
      </trkpt>
      <trkpt lat="49.83058" lon="2.27711">
        <ele>105.1</ele>
        <time>2023-09-13T07:56:49Z</time>
      </trkpt>
      <trkpt lat="49.83059" lon="2.27712">
        <ele>105.1</ele>
        <time>2023-09-13T07:56:51Z</time>
      </trkpt>
      <trkpt lat="49.8306" lon="2.27714">
        <ele>105</ele>
        <time>2023-09-13T07:56:52Z</time>
      </trkpt>
      <trkpt lat="49.83061" lon="2.27715">
        <ele>105</ele>
        <time>2023-09-13T07:56:53Z</time>
      </trkpt>
      <trkpt lat="49.83061" lon="2.27716">
        <ele>104.9</ele>
        <time>2023-09-13T07:56:54Z</time>
      </trkpt>
      <trkpt lat="49.83062" lon="2.27718">
        <ele>104.8</ele>
        <time>2023-09-13T07:56:55Z</time>
      </trkpt>
      <trkpt lat="49.83063" lon="2.2772">
        <ele>104.8</ele>
        <time>2023-09-13T07:56:57Z</time>
      </trkpt>
      <trkpt lat="49.83064" lon="2.27722">
        <ele>104.7</ele>
        <time>2023-09-13T07:56:58Z</time>
      </trkpt>
      <trkpt lat="49.83064" lon="2.27723">
        <ele>104.6</ele>
        <time>2023-09-13T07:56:59Z</time>
      </trkpt>
      <trkpt lat="49.83065" lon="2.27724">
        <ele>104.6</ele>
        <time>2023-09-13T07:57:00Z</time>
      </trkpt>
      <trkpt lat="49.83066" lon="2.27726">
        <ele>104.5</ele>
        <time>2023-09-13T07:57:01Z</time>
      </trkpt>
      <trkpt lat="49.83066" lon="2.27729">
        <ele>104.4</ele>
        <time>2023-09-13T07:57:02Z</time>
      </trkpt>
      <trkpt lat="49.83067" lon="2.27731">
        <ele>104.4</ele>
        <time>2023-09-13T07:57:04Z</time>
      </trkpt>
      <trkpt lat="49.83067" lon="2.27733">
        <ele>104.3</ele>
        <time>2023-09-13T07:57:05Z</time>
      </trkpt>
      <trkpt lat="49.83068" lon="2.27736">
        <ele>104.2</ele>
        <time>2023-09-13T07:57:06Z</time>
      </trkpt>
      <trkpt lat="49.83068" lon="2.27738">
        <ele>104.1</ele>
        <time>2023-09-13T07:57:07Z</time>
      </trkpt>
      <trkpt lat="49.83068" lon="2.2774">
        <ele>104.1</ele>
        <time>2023-09-13T07:57:08Z</time>
      </trkpt>
      <trkpt lat="49.83069" lon="2.27742">
        <ele>104</ele>
        <time>2023-09-13T07:57:09Z</time>
      </trkpt>
      <trkpt lat="49.83069" lon="2.27744">
        <ele>103.9</ele>
        <time>2023-09-13T07:57:10Z</time>
      </trkpt>
      <trkpt lat="49.83069" lon="2.27746">
        <ele>103.9</ele>
        <time>2023-09-13T07:57:11Z</time>
      </trkpt>
      <trkpt lat="49.8307" lon="2.27748">
        <ele>103.8</ele>
        <time>2023-09-13T07:57:13Z</time>
      </trkpt>
      <trkpt lat="49.8307" lon="2.27751">
        <ele>103.7</ele>
        <time>2023-09-13T07:57:14Z</time>
      </trkpt>
      <trkpt lat="49.8307" lon="2.27753">
        <ele>103.6</ele>
        <time>2023-09-13T07:57:15Z</time>
      </trkpt>
      <trkpt lat="49.8307" lon="2.27755">
        <ele>103.6</ele>
        <time>2023-09-13T07:57:16Z</time>
      </trkpt>
      <trkpt lat="49.83071" lon="2.27757">
        <ele>103.5</ele>
        <time>2023-09-13T07:57:17Z</time>
      </trkpt>
      <trkpt lat="49.83071" lon="2.27758">
        <ele>103.5</ele>
        <time>2023-09-13T07:57:18Z</time>
      </trkpt>
      <trkpt lat="49.83071" lon="2.2776">
        <ele>103.4</ele>
        <time>2023-09-13T07:57:19Z</time>
      </trkpt>
      <trkpt lat="49.83071" lon="2.27762">
        <ele>103.3</ele>
        <time>2023-09-13T07:57:20Z</time>
      </trkpt>
      <trkpt lat="49.83071" lon="2.27764">
        <ele>103.3</ele>
        <time>2023-09-13T07:57:22Z</time>
      </trkpt>
      <trkpt lat="49.83072" lon="2.27768">
        <ele>103.1</ele>
        <time>2023-09-13T07:57:23Z</time>
      </trkpt>
      <trkpt lat="49.83072" lon="2.27769">
        <ele>103.1</ele>
        <time>2023-09-13T07:57:24Z</time>
      </trkpt>
      <trkpt lat="49.83072" lon="2.2777">
        <ele>103.1</ele>
        <time>2023-09-13T07:57:25Z</time>
      </trkpt>
      <trkpt lat="49.83072" lon="2.27773">
        <ele>103</ele>
        <time>2023-09-13T07:57:26Z</time>
      </trkpt>
      <trkpt lat="49.83073" lon="2.27774">
        <ele>102.9</ele>
        <time>2023-09-13T07:57:27Z</time>
      </trkpt>
      <trkpt lat="49.83073" lon="2.27776">
        <ele>102.9</ele>
        <time>2023-09-13T07:57:28Z</time>
      </trkpt>
      <trkpt lat="49.83073" lon="2.27778">
        <ele>102.8</ele>
        <time>2023-09-13T07:57:29Z</time>
      </trkpt>
      <trkpt lat="49.83073" lon="2.2778">
        <ele>102.7</ele>
        <time>2023-09-13T07:57:30Z</time>
      </trkpt>
      <trkpt lat="49.83074" lon="2.27782">
        <ele>102.7</ele>
        <time>2023-09-13T07:57:32Z</time>
      </trkpt>
      <trkpt lat="49.83074" lon="2.27784">
        <ele>102.6</ele>
        <time>2023-09-13T07:57:33Z</time>
      </trkpt>
      <trkpt lat="49.83074" lon="2.27786">
        <ele>102.5</ele>
        <time>2023-09-13T07:57:34Z</time>
      </trkpt>
      <trkpt lat="49.83075" lon="2.27789">
        <ele>102.5</ele>
        <time>2023-09-13T07:57:35Z</time>
      </trkpt>
      <trkpt lat="49.83075" lon="2.2779">
        <ele>102.4</ele>
        <time>2023-09-13T07:57:36Z</time>
      </trkpt>
      <trkpt lat="49.83075" lon="2.27791">
        <ele>102.4</ele>
        <time>2023-09-13T07:57:37Z</time>
      </trkpt>
      <trkpt lat="49.83076" lon="2.27793">
        <ele>102.3</ele>
        <time>2023-09-13T07:57:39Z</time>
      </trkpt>
      <trkpt lat="49.83076" lon="2.27795">
        <ele>102.2</ele>
        <time>2023-09-13T07:57:40Z</time>
      </trkpt>
      <trkpt lat="49.83076" lon="2.27799">
        <ele>102.1</ele>
        <time>2023-09-13T07:57:41Z</time>
      </trkpt>
      <trkpt lat="49.83076" lon="2.278">
        <ele>102.1</ele>
        <time>2023-09-13T07:57:42Z</time>
      </trkpt>
      <trkpt lat="49.83076" lon="2.27801">
        <ele>102</ele>
        <time>2023-09-13T07:57:43Z</time>
      </trkpt>
      <trkpt lat="49.83076" lon="2.27804">
        <ele>101.9</ele>
        <time>2023-09-13T07:57:45Z</time>
      </trkpt>
      <trkpt lat="49.83076" lon="2.27806">
        <ele>101.9</ele>
        <time>2023-09-13T07:57:46Z</time>
      </trkpt>
      <trkpt lat="49.83077" lon="2.27808">
        <ele>101.8</ele>
        <time>2023-09-13T07:57:47Z</time>
      </trkpt>
      <trkpt lat="49.83077" lon="2.27809">
        <ele>101.7</ele>
        <time>2023-09-13T07:57:48Z</time>
      </trkpt>
      <trkpt lat="49.83078" lon="2.27812">
        <ele>101.7</ele>
        <time>2023-09-13T07:57:50Z</time>
      </trkpt>
      <trkpt lat="49.83078" lon="2.27814">
        <ele>101.6</ele>
        <time>2023-09-13T07:57:51Z</time>
      </trkpt>
      <trkpt lat="49.83078" lon="2.27816">
        <ele>101.5</ele>
        <time>2023-09-13T07:57:52Z</time>
      </trkpt>
      <trkpt lat="49.83079" lon="2.27818">
        <ele>101.4</ele>
        <time>2023-09-13T07:57:53Z</time>
      </trkpt>
      <trkpt lat="49.83079" lon="2.2782">
        <ele>101.3</ele>
        <time>2023-09-13T07:57:54Z</time>
      </trkpt>
      <trkpt lat="49.8308" lon="2.27822">
        <ele>101.2</ele>
        <time>2023-09-13T07:57:55Z</time>
      </trkpt>
      <trkpt lat="49.8308" lon="2.27824">
        <ele>101.2</ele>
        <time>2023-09-13T07:57:56Z</time>
      </trkpt>
      <trkpt lat="49.83081" lon="2.2783">
        <ele>100.9</ele>
        <time>2023-09-13T07:57:58Z</time>
      </trkpt>
      <trkpt lat="49.83082" lon="2.27831">
        <ele>100.8</ele>
        <time>2023-09-13T07:58:00Z</time>
      </trkpt>
      <trkpt lat="49.83082" lon="2.27833">
        <ele>100.8</ele>
        <time>2023-09-13T07:58:01Z</time>
      </trkpt>
      <trkpt lat="49.83082" lon="2.27834">
        <ele>100.7</ele>
        <time>2023-09-13T07:58:02Z</time>
      </trkpt>
      <trkpt lat="49.83082" lon="2.27836">
        <ele>100.6</ele>
        <time>2023-09-13T07:58:03Z</time>
      </trkpt>
      <trkpt lat="49.83083" lon="2.27839">
        <ele>100.5</ele>
        <time>2023-09-13T07:58:04Z</time>
      </trkpt>
      <trkpt lat="49.83083" lon="2.27841">
        <ele>100.4</ele>
        <time>2023-09-13T07:58:05Z</time>
      </trkpt>
      <trkpt lat="49.83083" lon="2.27843">
        <ele>100.3</ele>
        <time>2023-09-13T07:58:07Z</time>
      </trkpt>
      <trkpt lat="49.83084" lon="2.27845">
        <ele>100.2</ele>
        <time>2023-09-13T07:58:08Z</time>
      </trkpt>
      <trkpt lat="49.83084" lon="2.27847">
        <ele>100.1</ele>
        <time>2023-09-13T07:58:09Z</time>
      </trkpt>
      <trkpt lat="49.83085" lon="2.27849">
        <ele>100</ele>
        <time>2023-09-13T07:58:10Z</time>
      </trkpt>
      <trkpt lat="49.83085" lon="2.27851">
        <ele>99.9</ele>
        <time>2023-09-13T07:58:11Z</time>
      </trkpt>
      <trkpt lat="49.83086" lon="2.27853">
        <ele>99.8</ele>
        <time>2023-09-13T07:58:12Z</time>
      </trkpt>
      <trkpt lat="49.83086" lon="2.27854">
        <ele>99.7</ele>
        <time>2023-09-13T07:58:13Z</time>
      </trkpt>
      <trkpt lat="49.83087" lon="2.27856">
        <ele>99.6</ele>
        <time>2023-09-13T07:58:15Z</time>
      </trkpt>
      <trkpt lat="49.83088" lon="2.27859">
        <ele>99.5</ele>
        <time>2023-09-13T07:58:16Z</time>
      </trkpt>
      <trkpt lat="49.83088" lon="2.2786">
        <ele>99.4</ele>
        <time>2023-09-13T07:58:17Z</time>
      </trkpt>
      <trkpt lat="49.83088" lon="2.27862">
        <ele>99.4</ele>
        <time>2023-09-13T07:58:18Z</time>
      </trkpt>
      <trkpt lat="49.83089" lon="2.27865">
        <ele>99.2</ele>
        <time>2023-09-13T07:58:19Z</time>
      </trkpt>
      <trkpt lat="49.83089" lon="2.27866">
        <ele>99.2</ele>
        <time>2023-09-13T07:58:20Z</time>
      </trkpt>
      <trkpt lat="49.8309" lon="2.27867">
        <ele>99.1</ele>
        <time>2023-09-13T07:58:21Z</time>
      </trkpt>
      <trkpt lat="49.8309" lon="2.27871">
        <ele>99</ele>
        <time>2023-09-13T07:58:22Z</time>
      </trkpt>
      <trkpt lat="49.83091" lon="2.27872">
        <ele>98.9</ele>
        <time>2023-09-13T07:58:23Z</time>
      </trkpt>
      <trkpt lat="49.83091" lon="2.27873">
        <ele>98.9</ele>
        <time>2023-09-13T07:58:24Z</time>
      </trkpt>
      <trkpt lat="49.83092" lon="2.27876">
        <ele>98.7</ele>
        <time>2023-09-13T07:58:25Z</time>
      </trkpt>
      <trkpt lat="49.83092" lon="2.27878">
        <ele>98.6</ele>
        <time>2023-09-13T07:58:27Z</time>
      </trkpt>
      <trkpt lat="49.83092" lon="2.27879">
        <ele>98.6</ele>
        <time>2023-09-13T07:58:28Z</time>
      </trkpt>
      <trkpt lat="49.83092" lon="2.27882">
        <ele>98.4</ele>
        <time>2023-09-13T07:58:29Z</time>
      </trkpt>
      <trkpt lat="49.83093" lon="2.27884">
        <ele>98.4</ele>
        <time>2023-09-13T07:58:30Z</time>
      </trkpt>
      <trkpt lat="49.83093" lon="2.27885">
        <ele>98.3</ele>
        <time>2023-09-13T07:58:31Z</time>
      </trkpt>
      <trkpt lat="49.83093" lon="2.27887">
        <ele>98.2</ele>
        <time>2023-09-13T07:58:32Z</time>
      </trkpt>
      <trkpt lat="49.83093" lon="2.27889">
        <ele>98.1</ele>
        <time>2023-09-13T07:58:33Z</time>
      </trkpt>
      <trkpt lat="49.83093" lon="2.27892">
        <ele>98</ele>
        <time>2023-09-13T07:58:35Z</time>
      </trkpt>
      <trkpt lat="49.83094" lon="2.27895">
        <ele>97.9</ele>
        <time>2023-09-13T07:58:36Z</time>
      </trkpt>
      <trkpt lat="49.83094" lon="2.27897">
        <ele>97.8</ele>
        <time>2023-09-13T07:58:37Z</time>
      </trkpt>
      <trkpt lat="49.83094" lon="2.279">
        <ele>97.6</ele>
        <time>2023-09-13T07:58:38Z</time>
      </trkpt>
      <trkpt lat="49.83095" lon="2.27901">
        <ele>97.6</ele>
        <time>2023-09-13T07:58:40Z</time>
      </trkpt>
      <trkpt lat="49.83095" lon="2.27903">
        <ele>97.5</ele>
        <time>2023-09-13T07:58:41Z</time>
      </trkpt>
      <trkpt lat="49.83095" lon="2.27905">
        <ele>97.4</ele>
        <time>2023-09-13T07:58:42Z</time>
      </trkpt>
      <trkpt lat="49.83095" lon="2.27907">
        <ele>97.3</ele>
        <time>2023-09-13T07:58:43Z</time>
      </trkpt>
      <trkpt lat="49.83096" lon="2.2791">
        <ele>97.2</ele>
        <time>2023-09-13T07:58:44Z</time>
      </trkpt>
      <trkpt lat="49.83096" lon="2.27911">
        <ele>97.1</ele>
        <time>2023-09-13T07:58:45Z</time>
      </trkpt>
      <trkpt lat="49.83097" lon="2.27913">
        <ele>97.1</ele>
        <time>2023-09-13T07:58:46Z</time>
      </trkpt>
      <trkpt lat="49.83097" lon="2.27915">
        <ele>97</ele>
        <time>2023-09-13T07:58:47Z</time>
      </trkpt>
      <trkpt lat="49.83097" lon="2.27917">
        <ele>96.9</ele>
        <time>2023-09-13T07:58:48Z</time>
      </trkpt>
      <trkpt lat="49.83098" lon="2.2792">
        <ele>96.8</ele>
        <time>2023-09-13T07:58:50Z</time>
      </trkpt>
      <trkpt lat="49.83098" lon="2.27922">
        <ele>96.7</ele>
        <time>2023-09-13T07:58:51Z</time>
      </trkpt>
      <trkpt lat="49.83099" lon="2.27925">
        <ele>96.5</ele>
        <time>2023-09-13T07:58:52Z</time>
      </trkpt>
      <trkpt lat="49.83099" lon="2.27926">
        <ele>96.5</ele>
        <time>2023-09-13T07:58:53Z</time>
      </trkpt>
      <trkpt lat="49.83099" lon="2.27928">
        <ele>96.4</ele>
        <time>2023-09-13T07:58:54Z</time>
      </trkpt>
      <trkpt lat="49.831" lon="2.2793">
        <ele>96.3</ele>
        <time>2023-09-13T07:58:55Z</time>
      </trkpt>
      <trkpt lat="49.831" lon="2.27931">
        <ele>96.2</ele>
        <time>2023-09-13T07:58:56Z</time>
      </trkpt>
      <trkpt lat="49.83101" lon="2.27934">
        <ele>96.1</ele>
        <time>2023-09-13T07:58:58Z</time>
      </trkpt>
      <trkpt lat="49.83102" lon="2.27937">
        <ele>96</ele>
        <time>2023-09-13T07:58:59Z</time>
      </trkpt>
      <trkpt lat="49.83102" lon="2.27938">
        <ele>95.9</ele>
        <time>2023-09-13T07:59:00Z</time>
      </trkpt>
      <trkpt lat="49.83103" lon="2.2794">
        <ele>95.9</ele>
        <time>2023-09-13T07:59:01Z</time>
      </trkpt>
      <trkpt lat="49.83103" lon="2.27942">
        <ele>95.8</ele>
        <time>2023-09-13T07:59:02Z</time>
      </trkpt>
      <trkpt lat="49.83104" lon="2.27944">
        <ele>95.7</ele>
        <time>2023-09-13T07:59:03Z</time>
      </trkpt>
      <trkpt lat="49.83104" lon="2.27946">
        <ele>95.6</ele>
        <time>2023-09-13T07:59:04Z</time>
      </trkpt>
      <trkpt lat="49.83104" lon="2.27948">
        <ele>95.5</ele>
        <time>2023-09-13T07:59:05Z</time>
      </trkpt>
      <trkpt lat="49.83105" lon="2.27951">
        <ele>95.4</ele>
        <time>2023-09-13T07:59:07Z</time>
      </trkpt>
      <trkpt lat="49.83106" lon="2.27953">
        <ele>95.3</ele>
        <time>2023-09-13T07:59:08Z</time>
      </trkpt>
      <trkpt lat="49.83106" lon="2.27955">
        <ele>95.2</ele>
        <time>2023-09-13T07:59:10Z</time>
      </trkpt>
      <trkpt lat="49.83107" lon="2.27957">
        <ele>95.1</ele>
        <time>2023-09-13T07:59:11Z</time>
      </trkpt>
      <trkpt lat="49.83108" lon="2.27959">
        <ele>95</ele>
        <time>2023-09-13T07:59:12Z</time>
      </trkpt>
      <trkpt lat="49.83109" lon="2.27961">
        <ele>94.9</ele>
        <time>2023-09-13T07:59:13Z</time>
      </trkpt>
      <trkpt lat="49.8311" lon="2.27964">
        <ele>94.7</ele>
        <time>2023-09-13T07:59:14Z</time>
      </trkpt>
      <trkpt lat="49.8311" lon="2.27965">
        <ele>94.7</ele>
        <time>2023-09-13T07:59:15Z</time>
      </trkpt>
      <trkpt lat="49.8311" lon="2.27967">
        <ele>94.6</ele>
        <time>2023-09-13T07:59:16Z</time>
      </trkpt>
      <trkpt lat="49.83111" lon="2.2797">
        <ele>94.5</ele>
        <time>2023-09-13T07:59:18Z</time>
      </trkpt>
      <trkpt lat="49.83111" lon="2.27971">
        <ele>94.4</ele>
        <time>2023-09-13T07:59:19Z</time>
      </trkpt>
      <trkpt lat="49.83112" lon="2.27973">
        <ele>94.4</ele>
        <time>2023-09-13T07:59:20Z</time>
      </trkpt>
      <trkpt lat="49.83112" lon="2.27974">
        <ele>94.3</ele>
        <time>2023-09-13T07:59:21Z</time>
      </trkpt>
      <trkpt lat="49.83112" lon="2.27976">
        <ele>94.2</ele>
        <time>2023-09-13T07:59:22Z</time>
      </trkpt>
      <trkpt lat="49.83113" lon="2.27979">
        <ele>94.1</ele>
        <time>2023-09-13T07:59:23Z</time>
      </trkpt>
      <trkpt lat="49.83113" lon="2.27981">
        <ele>94</ele>
        <time>2023-09-13T07:59:24Z</time>
      </trkpt>
      <trkpt lat="49.83113" lon="2.27982">
        <ele>94</ele>
        <time>2023-09-13T07:59:25Z</time>
      </trkpt>
      <trkpt lat="49.83114" lon="2.27985">
        <ele>93.9</ele>
        <time>2023-09-13T07:59:26Z</time>
      </trkpt>
      <trkpt lat="49.83114" lon="2.27987">
        <ele>93.8</ele>
        <time>2023-09-13T07:59:28Z</time>
      </trkpt>
      <trkpt lat="49.83114" lon="2.27988">
        <ele>93.8</ele>
        <time>2023-09-13T07:59:29Z</time>
      </trkpt>
      <trkpt lat="49.83115" lon="2.27991">
        <ele>93.7</ele>
        <time>2023-09-13T07:59:30Z</time>
      </trkpt>
      <trkpt lat="49.83115" lon="2.27992">
        <ele>93.6</ele>
        <time>2023-09-13T07:59:31Z</time>
      </trkpt>
      <trkpt lat="49.83115" lon="2.27993">
        <ele>93.6</ele>
        <time>2023-09-13T07:59:32Z</time>
      </trkpt>
      <trkpt lat="49.83116" lon="2.27997">
        <ele>93.5</ele>
        <time>2023-09-13T07:59:33Z</time>
      </trkpt>
      <trkpt lat="49.83116" lon="2.27998">
        <ele>93.5</ele>
        <time>2023-09-13T07:59:34Z</time>
      </trkpt>
      <trkpt lat="49.83116" lon="2.27999">
        <ele>93.4</ele>
        <time>2023-09-13T07:59:35Z</time>
      </trkpt>
      <trkpt lat="49.83117" lon="2.28001">
        <ele>93.4</ele>
        <time>2023-09-13T07:59:36Z</time>
      </trkpt>
      <trkpt lat="49.83117" lon="2.28003">
        <ele>93.3</ele>
        <time>2023-09-13T07:59:37Z</time>
      </trkpt>
      <trkpt lat="49.83117" lon="2.28005">
        <ele>93.3</ele>
        <time>2023-09-13T07:59:39Z</time>
      </trkpt>
      <trkpt lat="49.83118" lon="2.28008">
        <ele>93.2</ele>
        <time>2023-09-13T07:59:40Z</time>
      </trkpt>
      <trkpt lat="49.83118" lon="2.28009">
        <ele>93.2</ele>
        <time>2023-09-13T07:59:41Z</time>
      </trkpt>
      <trkpt lat="49.83118" lon="2.28011">
        <ele>93.1</ele>
        <time>2023-09-13T07:59:42Z</time>
      </trkpt>
      <trkpt lat="49.83118" lon="2.28014">
        <ele>93</ele>
        <time>2023-09-13T07:59:43Z</time>
      </trkpt>
      <trkpt lat="49.83119" lon="2.28015">
        <ele>93</ele>
        <time>2023-09-13T07:59:44Z</time>
      </trkpt>
      <trkpt lat="49.83119" lon="2.28016">
        <ele>93</ele>
        <time>2023-09-13T07:59:45Z</time>
      </trkpt>
      <trkpt lat="49.83119" lon="2.28019">
        <ele>92.9</ele>
        <time>2023-09-13T07:59:46Z</time>
      </trkpt>
      <trkpt lat="49.83119" lon="2.28021">
        <ele>92.9</ele>
        <time>2023-09-13T07:59:47Z</time>
      </trkpt>
      <trkpt lat="49.83119" lon="2.28022">
        <ele>92.9</ele>
        <time>2023-09-13T07:59:48Z</time>
      </trkpt>
      <trkpt lat="49.8312" lon="2.28024">
        <ele>92.8</ele>
        <time>2023-09-13T07:59:49Z</time>
      </trkpt>
      <trkpt lat="49.8312" lon="2.28026">
        <ele>92.8</ele>
        <time>2023-09-13T07:59:50Z</time>
      </trkpt>
      <trkpt lat="49.8312" lon="2.28028">
        <ele>92.7</ele>
        <time>2023-09-13T07:59:52Z</time>
      </trkpt>
      <trkpt lat="49.83121" lon="2.28031">
        <ele>92.7</ele>
        <time>2023-09-13T07:59:53Z</time>
      </trkpt>
      <trkpt lat="49.83121" lon="2.28033">
        <ele>92.6</ele>
        <time>2023-09-13T07:59:54Z</time>
      </trkpt>
      <trkpt lat="49.83121" lon="2.28034">
        <ele>92.6</ele>
        <time>2023-09-13T07:59:55Z</time>
      </trkpt>
      <trkpt lat="49.83122" lon="2.28037">
        <ele>92.5</ele>
        <time>2023-09-13T07:59:56Z</time>
      </trkpt>
      <trkpt lat="49.83122" lon="2.28038">
        <ele>92.5</ele>
        <time>2023-09-13T07:59:57Z</time>
      </trkpt>
      <trkpt lat="49.83122" lon="2.28039">
        <ele>92.5</ele>
        <time>2023-09-13T07:59:58Z</time>
      </trkpt>
      <trkpt lat="49.83122" lon="2.28042">
        <ele>92.4</ele>
        <time>2023-09-13T07:59:59Z</time>
      </trkpt>
      <trkpt lat="49.83122" lon="2.28044">
        <ele>92.4</ele>
        <time>2023-09-13T08:00:01Z</time>
      </trkpt>
      <trkpt lat="49.83121" lon="2.28045">
        <ele>92.4</ele>
        <time>2023-09-13T08:00:02Z</time>
      </trkpt>
      <trkpt lat="49.83121" lon="2.28048">
        <ele>92.3</ele>
        <time>2023-09-13T08:00:03Z</time>
      </trkpt>
      <trkpt lat="49.83121" lon="2.28049">
        <ele>92.3</ele>
        <time>2023-09-13T08:00:04Z</time>
      </trkpt>
      <trkpt lat="49.83121" lon="2.28051">
        <ele>92.2</ele>
        <time>2023-09-13T08:00:05Z</time>
      </trkpt>
      <trkpt lat="49.83122" lon="2.28054">
        <ele>92.1</ele>
        <time>2023-09-13T08:00:06Z</time>
      </trkpt>
      <trkpt lat="49.83122" lon="2.28056">
        <ele>92.1</ele>
        <time>2023-09-13T08:00:08Z</time>
      </trkpt>
      <trkpt lat="49.83122" lon="2.28057">
        <ele>92.1</ele>
        <time>2023-09-13T08:00:09Z</time>
      </trkpt>
      <trkpt lat="49.83123" lon="2.28059">
        <ele>92</ele>
        <time>2023-09-13T08:00:10Z</time>
      </trkpt>
      <trkpt lat="49.83123" lon="2.28061">
        <ele>92</ele>
        <time>2023-09-13T08:00:11Z</time>
      </trkpt>
      <trkpt lat="49.83124" lon="2.28062">
        <ele>92</ele>
        <time>2023-09-13T08:00:12Z</time>
      </trkpt>
      <trkpt lat="49.83125" lon="2.28064">
        <ele>91.9</ele>
        <time>2023-09-13T08:00:13Z</time>
      </trkpt>
      <trkpt lat="49.83125" lon="2.28066">
        <ele>91.9</ele>
        <time>2023-09-13T08:00:14Z</time>
      </trkpt>
      <trkpt lat="49.83126" lon="2.28067">
        <ele>91.8</ele>
        <time>2023-09-13T08:00:16Z</time>
      </trkpt>
      <trkpt lat="49.83126" lon="2.28068">
        <ele>91.8</ele>
        <time>2023-09-13T08:00:17Z</time>
      </trkpt>
      <trkpt lat="49.83127" lon="2.2807">
        <ele>91.8</ele>
        <time>2023-09-13T08:00:18Z</time>
      </trkpt>
      <trkpt lat="49.83127" lon="2.28071">
        <ele>91.7</ele>
        <time>2023-09-13T08:00:19Z</time>
      </trkpt>
      <trkpt lat="49.83127" lon="2.28073">
        <ele>91.7</ele>
        <time>2023-09-13T08:00:20Z</time>
      </trkpt>
      <trkpt lat="49.83127" lon="2.28076">
        <ele>91.6</ele>
        <time>2023-09-13T08:00:21Z</time>
      </trkpt>
      <trkpt lat="49.83128" lon="2.28077">
        <ele>91.6</ele>
        <time>2023-09-13T08:00:22Z</time>
      </trkpt>
      <trkpt lat="49.83128" lon="2.28079">
        <ele>91.6</ele>
        <time>2023-09-13T08:00:23Z</time>
      </trkpt>
      <trkpt lat="49.83128" lon="2.28082">
        <ele>91.5</ele>
        <time>2023-09-13T08:00:25Z</time>
      </trkpt>
      <trkpt lat="49.83128" lon="2.28084">
        <ele>91.5</ele>
        <time>2023-09-13T08:00:26Z</time>
      </trkpt>
      <trkpt lat="49.83128" lon="2.28087">
        <ele>91.4</ele>
        <time>2023-09-13T08:00:28Z</time>
      </trkpt>
      <trkpt lat="49.83129" lon="2.28089">
        <ele>91.3</ele>
        <time>2023-09-13T08:00:29Z</time>
      </trkpt>
      <trkpt lat="49.83129" lon="2.28091">
        <ele>91.3</ele>
        <time>2023-09-13T08:00:30Z</time>
      </trkpt>
      <trkpt lat="49.83129" lon="2.28093">
        <ele>91.2</ele>
        <time>2023-09-13T08:00:31Z</time>
      </trkpt>
      <trkpt lat="49.83129" lon="2.28094">
        <ele>91.2</ele>
        <time>2023-09-13T08:00:32Z</time>
      </trkpt>
      <trkpt lat="49.8313" lon="2.28095">
        <ele>91.2</ele>
        <time>2023-09-13T08:00:33Z</time>
      </trkpt>
      <trkpt lat="49.8313" lon="2.28097">
        <ele>91.1</ele>
        <time>2023-09-13T08:00:34Z</time>
      </trkpt>
      <trkpt lat="49.8313" lon="2.28098">
        <ele>91.1</ele>
        <time>2023-09-13T08:00:35Z</time>
      </trkpt>
      <trkpt lat="49.8313" lon="2.281">
        <ele>91</ele>
        <time>2023-09-13T08:00:36Z</time>
      </trkpt>
      <trkpt lat="49.8313" lon="2.28102">
        <ele>91</ele>
        <time>2023-09-13T08:00:37Z</time>
      </trkpt>
      <trkpt lat="49.8313" lon="2.28104">
        <ele>90.9</ele>
        <time>2023-09-13T08:00:39Z</time>
      </trkpt>
      <trkpt lat="49.8313" lon="2.28106">
        <ele>90.9</ele>
        <time>2023-09-13T08:00:40Z</time>
      </trkpt>
      <trkpt lat="49.8313" lon="2.28107">
        <ele>90.9</ele>
        <time>2023-09-13T08:00:41Z</time>
      </trkpt>
      <trkpt lat="49.8313" lon="2.28109">
        <ele>90.8</ele>
        <time>2023-09-13T08:00:42Z</time>
      </trkpt>
      <trkpt lat="49.8313" lon="2.28111">
        <ele>90.7</ele>
        <time>2023-09-13T08:00:43Z</time>
      </trkpt>
      <trkpt lat="49.83131" lon="2.28113">
        <ele>90.7</ele>
        <time>2023-09-13T08:00:44Z</time>
      </trkpt>
      <trkpt lat="49.83131" lon="2.28115">
        <ele>90.6</ele>
        <time>2023-09-13T08:00:45Z</time>
      </trkpt>
      <trkpt lat="49.83131" lon="2.28118">
        <ele>90.5</ele>
        <time>2023-09-13T08:00:46Z</time>
      </trkpt>
      <trkpt lat="49.83131" lon="2.2812">
        <ele>90.5</ele>
        <time>2023-09-13T08:00:47Z</time>
      </trkpt>
      <trkpt lat="49.83131" lon="2.28122">
        <ele>90.4</ele>
        <time>2023-09-13T08:00:48Z</time>
      </trkpt>
      <trkpt lat="49.83132" lon="2.28124">
        <ele>90.4</ele>
        <time>2023-09-13T08:00:50Z</time>
      </trkpt>
      <trkpt lat="49.83132" lon="2.28126">
        <ele>90.3</ele>
        <time>2023-09-13T08:00:51Z</time>
      </trkpt>
      <trkpt lat="49.83132" lon="2.28128">
        <ele>90.2</ele>
        <time>2023-09-13T08:00:52Z</time>
      </trkpt>
      <trkpt lat="49.83131" lon="2.2813">
        <ele>90.2</ele>
        <time>2023-09-13T08:00:53Z</time>
      </trkpt>
      <trkpt lat="49.83132" lon="2.28133">
        <ele>90.1</ele>
        <time>2023-09-13T08:00:54Z</time>
      </trkpt>
      <trkpt lat="49.83132" lon="2.28134">
        <ele>90</ele>
        <time>2023-09-13T08:00:56Z</time>
      </trkpt>
      <trkpt lat="49.83132" lon="2.28136">
        <ele>90</ele>
        <time>2023-09-13T08:00:57Z</time>
      </trkpt>
      <trkpt lat="49.83131" lon="2.28138">
        <ele>89.9</ele>
        <time>2023-09-13T08:00:58Z</time>
      </trkpt>
      <trkpt lat="49.83131" lon="2.28141">
        <ele>89.8</ele>
        <time>2023-09-13T08:00:59Z</time>
      </trkpt>
      <trkpt lat="49.83131" lon="2.28142">
        <ele>89.8</ele>
        <time>2023-09-13T08:01:00Z</time>
      </trkpt>
      <trkpt lat="49.83131" lon="2.28144">
        <ele>89.7</ele>
        <time>2023-09-13T08:01:01Z</time>
      </trkpt>
      <trkpt lat="49.83131" lon="2.28145">
        <ele>89.7</ele>
        <time>2023-09-13T08:01:02Z</time>
      </trkpt>
      <trkpt lat="49.83131" lon="2.28147">
        <ele>89.6</ele>
        <time>2023-09-13T08:01:03Z</time>
      </trkpt>
      <trkpt lat="49.83131" lon="2.28149">
        <ele>89.5</ele>
        <time>2023-09-13T08:01:04Z</time>
      </trkpt>
      <trkpt lat="49.83131" lon="2.28151">
        <ele>89.5</ele>
        <time>2023-09-13T08:01:05Z</time>
      </trkpt>
      <trkpt lat="49.83131" lon="2.28152">
        <ele>89.4</ele>
        <time>2023-09-13T08:01:06Z</time>
      </trkpt>
      <trkpt lat="49.83131" lon="2.28154">
        <ele>89.3</ele>
        <time>2023-09-13T08:01:08Z</time>
      </trkpt>
      <trkpt lat="49.83131" lon="2.28156">
        <ele>89.3</ele>
        <time>2023-09-13T08:01:09Z</time>
      </trkpt>
      <trkpt lat="49.83132" lon="2.28158">
        <ele>89.2</ele>
        <time>2023-09-13T08:01:10Z</time>
      </trkpt>
      <trkpt lat="49.83132" lon="2.2816">
        <ele>89.1</ele>
        <time>2023-09-13T08:01:11Z</time>
      </trkpt>
      <trkpt lat="49.83132" lon="2.28161">
        <ele>89.1</ele>
        <time>2023-09-13T08:01:12Z</time>
      </trkpt>
      <trkpt lat="49.83132" lon="2.28163">
        <ele>89</ele>
        <time>2023-09-13T08:01:13Z</time>
      </trkpt>
      <trkpt lat="49.83132" lon="2.28165">
        <ele>89</ele>
        <time>2023-09-13T08:01:14Z</time>
      </trkpt>
      <trkpt lat="49.83132" lon="2.28167">
        <ele>88.9</ele>
        <time>2023-09-13T08:01:15Z</time>
      </trkpt>
      <trkpt lat="49.83132" lon="2.28169">
        <ele>88.8</ele>
        <time>2023-09-13T08:01:16Z</time>
      </trkpt>
      <trkpt lat="49.83132" lon="2.28171">
        <ele>88.7</ele>
        <time>2023-09-13T08:01:18Z</time>
      </trkpt>
      <trkpt lat="49.83132" lon="2.28173">
        <ele>88.7</ele>
        <time>2023-09-13T08:01:19Z</time>
      </trkpt>
      <trkpt lat="49.83132" lon="2.28174">
        <ele>88.6</ele>
        <time>2023-09-13T08:01:20Z</time>
      </trkpt>
      <trkpt lat="49.83132" lon="2.28176">
        <ele>88.6</ele>
        <time>2023-09-13T08:01:21Z</time>
      </trkpt>
      <trkpt lat="49.83132" lon="2.28178">
        <ele>88.5</ele>
        <time>2023-09-13T08:01:22Z</time>
      </trkpt>
      <trkpt lat="49.83133" lon="2.2818">
        <ele>88.4</ele>
        <time>2023-09-13T08:01:23Z</time>
      </trkpt>
      <trkpt lat="49.83133" lon="2.28182">
        <ele>88.3</ele>
        <time>2023-09-13T08:01:25Z</time>
      </trkpt>
      <trkpt lat="49.83133" lon="2.28186">
        <ele>88.2</ele>
        <time>2023-09-13T08:01:26Z</time>
      </trkpt>
      <trkpt lat="49.83133" lon="2.28187">
        <ele>88.2</ele>
        <time>2023-09-13T08:01:27Z</time>
      </trkpt>
      <trkpt lat="49.83133" lon="2.28189">
        <ele>88.1</ele>
        <time>2023-09-13T08:01:28Z</time>
      </trkpt>
      <trkpt lat="49.83133" lon="2.28191">
        <ele>88</ele>
        <time>2023-09-13T08:01:29Z</time>
      </trkpt>
      <trkpt lat="49.83133" lon="2.28193">
        <ele>88</ele>
        <time>2023-09-13T08:01:30Z</time>
      </trkpt>
      <trkpt lat="49.83133" lon="2.28195">
        <ele>87.9</ele>
        <time>2023-09-13T08:01:31Z</time>
      </trkpt>
      <trkpt lat="49.83133" lon="2.28197">
        <ele>87.8</ele>
        <time>2023-09-13T08:01:33Z</time>
      </trkpt>
      <trkpt lat="49.83133" lon="2.28199">
        <ele>87.7</ele>
        <time>2023-09-13T08:01:34Z</time>
      </trkpt>
      <trkpt lat="49.83133" lon="2.28202">
        <ele>87.7</ele>
        <time>2023-09-13T08:01:35Z</time>
      </trkpt>
      <trkpt lat="49.83133" lon="2.28203">
        <ele>87.6</ele>
        <time>2023-09-13T08:01:36Z</time>
      </trkpt>
      <trkpt lat="49.83133" lon="2.28205">
        <ele>87.5</ele>
        <time>2023-09-13T08:01:37Z</time>
      </trkpt>
      <trkpt lat="49.83133" lon="2.28207">
        <ele>87.5</ele>
        <time>2023-09-13T08:01:38Z</time>
      </trkpt>
      <trkpt lat="49.83133" lon="2.2821">
        <ele>87.4</ele>
        <time>2023-09-13T08:01:39Z</time>
      </trkpt>
      <trkpt lat="49.83133" lon="2.28211">
        <ele>87.3</ele>
        <time>2023-09-13T08:01:40Z</time>
      </trkpt>
      <trkpt lat="49.83133" lon="2.28212">
        <ele>87.3</ele>
        <time>2023-09-13T08:01:41Z</time>
      </trkpt>
      <trkpt lat="49.83133" lon="2.28216">
        <ele>87.2</ele>
        <time>2023-09-13T08:01:42Z</time>
      </trkpt>
      <trkpt lat="49.83134" lon="2.28217">
        <ele>87.2</ele>
        <time>2023-09-13T08:01:44Z</time>
      </trkpt>
      <trkpt lat="49.83134" lon="2.28218">
        <ele>87.1</ele>
        <time>2023-09-13T08:01:45Z</time>
      </trkpt>
      <trkpt lat="49.83134" lon="2.2822">
        <ele>87.1</ele>
        <time>2023-09-13T08:01:46Z</time>
      </trkpt>
      <trkpt lat="49.83134" lon="2.28221">
        <ele>87</ele>
        <time>2023-09-13T08:01:47Z</time>
      </trkpt>
      <trkpt lat="49.83134" lon="2.28223">
        <ele>87</ele>
        <time>2023-09-13T08:01:48Z</time>
      </trkpt>
      <trkpt lat="49.83134" lon="2.28225">
        <ele>86.9</ele>
        <time>2023-09-13T08:01:49Z</time>
      </trkpt>
      <trkpt lat="49.83134" lon="2.28227">
        <ele>86.9</ele>
        <time>2023-09-13T08:01:50Z</time>
      </trkpt>
      <trkpt lat="49.83135" lon="2.28229">
        <ele>86.8</ele>
        <time>2023-09-13T08:01:51Z</time>
      </trkpt>
      <trkpt lat="49.83135" lon="2.28231">
        <ele>86.8</ele>
        <time>2023-09-13T08:01:52Z</time>
      </trkpt>
      <trkpt lat="49.83135" lon="2.28233">
        <ele>86.7</ele>
        <time>2023-09-13T08:01:53Z</time>
      </trkpt>
      <trkpt lat="49.83135" lon="2.28236">
        <ele>86.7</ele>
        <time>2023-09-13T08:01:55Z</time>
      </trkpt>
      <trkpt lat="49.83135" lon="2.28237">
        <ele>86.6</ele>
        <time>2023-09-13T08:01:56Z</time>
      </trkpt>
      <trkpt lat="49.83135" lon="2.28238">
        <ele>86.6</ele>
        <time>2023-09-13T08:01:57Z</time>
      </trkpt>
      <trkpt lat="49.83135" lon="2.2824">
        <ele>86.6</ele>
        <time>2023-09-13T08:01:58Z</time>
      </trkpt>
      <trkpt lat="49.83135" lon="2.28243">
        <ele>86.5</ele>
        <time>2023-09-13T08:01:59Z</time>
      </trkpt>
      <trkpt lat="49.83135" lon="2.28245">
        <ele>86.5</ele>
        <time>2023-09-13T08:02:00Z</time>
      </trkpt>
      <trkpt lat="49.83135" lon="2.28247">
        <ele>86.4</ele>
        <time>2023-09-13T08:02:01Z</time>
      </trkpt>
      <trkpt lat="49.83135" lon="2.28249">
        <ele>86.4</ele>
        <time>2023-09-13T08:02:03Z</time>
      </trkpt>
      <trkpt lat="49.83135" lon="2.28251">
        <ele>86.4</ele>
        <time>2023-09-13T08:02:04Z</time>
      </trkpt>
      <trkpt lat="49.83135" lon="2.28253">
        <ele>86.4</ele>
        <time>2023-09-13T08:02:05Z</time>
      </trkpt>
      <trkpt lat="49.83135" lon="2.28254">
        <ele>86.3</ele>
        <time>2023-09-13T08:02:06Z</time>
      </trkpt>
      <trkpt lat="49.83134" lon="2.28257">
        <ele>86.3</ele>
        <time>2023-09-13T08:02:07Z</time>
      </trkpt>
      <trkpt lat="49.83134" lon="2.28259">
        <ele>86.2</ele>
        <time>2023-09-13T08:02:08Z</time>
      </trkpt>
      <trkpt lat="49.83133" lon="2.28261">
        <ele>86.2</ele>
        <time>2023-09-13T08:02:09Z</time>
      </trkpt>
      <trkpt lat="49.83133" lon="2.28263">
        <ele>86.2</ele>
        <time>2023-09-13T08:02:11Z</time>
      </trkpt>
      <trkpt lat="49.83133" lon="2.28265">
        <ele>86.2</ele>
        <time>2023-09-13T08:02:12Z</time>
      </trkpt>
      <trkpt lat="49.83133" lon="2.28267">
        <ele>86.1</ele>
        <time>2023-09-13T08:02:13Z</time>
      </trkpt>
      <trkpt lat="49.83133" lon="2.2827">
        <ele>86.1</ele>
        <time>2023-09-13T08:02:14Z</time>
      </trkpt>
      <trkpt lat="49.83133" lon="2.28271">
        <ele>86.1</ele>
        <time>2023-09-13T08:02:15Z</time>
      </trkpt>
      <trkpt lat="49.83134" lon="2.28273">
        <ele>86.1</ele>
        <time>2023-09-13T08:02:16Z</time>
      </trkpt>
      <trkpt lat="49.83134" lon="2.28276">
        <ele>86</ele>
        <time>2023-09-13T08:02:17Z</time>
      </trkpt>
      <trkpt lat="49.83134" lon="2.28277">
        <ele>86</ele>
        <time>2023-09-13T08:02:18Z</time>
      </trkpt>
      <trkpt lat="49.83134" lon="2.28278">
        <ele>86</ele>
        <time>2023-09-13T08:02:19Z</time>
      </trkpt>
      <trkpt lat="49.83134" lon="2.2828">
        <ele>86</ele>
        <time>2023-09-13T08:02:20Z</time>
      </trkpt>
      <trkpt lat="49.83134" lon="2.28282">
        <ele>86</ele>
        <time>2023-09-13T08:02:21Z</time>
      </trkpt>
      <trkpt lat="49.83135" lon="2.28284">
        <ele>85.9</ele>
        <time>2023-09-13T08:02:23Z</time>
      </trkpt>
      <trkpt lat="49.83135" lon="2.28288">
        <ele>85.9</ele>
        <time>2023-09-13T08:02:24Z</time>
      </trkpt>
      <trkpt lat="49.83136" lon="2.28289">
        <ele>85.9</ele>
        <time>2023-09-13T08:02:25Z</time>
      </trkpt>
      <trkpt lat="49.83136" lon="2.2829">
        <ele>85.9</ele>
        <time>2023-09-13T08:02:26Z</time>
      </trkpt>
      <trkpt lat="49.83136" lon="2.28292">
        <ele>85.9</ele>
        <time>2023-09-13T08:02:27Z</time>
      </trkpt>
      <trkpt lat="49.83136" lon="2.28294">
        <ele>85.9</ele>
        <time>2023-09-13T08:02:28Z</time>
      </trkpt>
      <trkpt lat="49.83137" lon="2.28295">
        <ele>85.9</ele>
        <time>2023-09-13T08:02:29Z</time>
      </trkpt>
      <trkpt lat="49.83137" lon="2.28298">
        <ele>85.8</ele>
        <time>2023-09-13T08:02:30Z</time>
      </trkpt>
      <trkpt lat="49.83137" lon="2.28299">
        <ele>85.8</ele>
        <time>2023-09-13T08:02:31Z</time>
      </trkpt>
      <trkpt lat="49.83137" lon="2.283">
        <ele>85.8</ele>
        <time>2023-09-13T08:02:32Z</time>
      </trkpt>
      <trkpt lat="49.83137" lon="2.28303">
        <ele>85.8</ele>
        <time>2023-09-13T08:02:33Z</time>
      </trkpt>
      <trkpt lat="49.83137" lon="2.28305">
        <ele>85.8</ele>
        <time>2023-09-13T08:02:35Z</time>
      </trkpt>
      <trkpt lat="49.83137" lon="2.28306">
        <ele>85.8</ele>
        <time>2023-09-13T08:02:36Z</time>
      </trkpt>
      <trkpt lat="49.83137" lon="2.28309">
        <ele>85.8</ele>
        <time>2023-09-13T08:02:37Z</time>
      </trkpt>
      <trkpt lat="49.83137" lon="2.28311">
        <ele>85.8</ele>
        <time>2023-09-13T08:02:38Z</time>
      </trkpt>
      <trkpt lat="49.83137" lon="2.28312">
        <ele>85.8</ele>
        <time>2023-09-13T08:02:39Z</time>
      </trkpt>
      <trkpt lat="49.83137" lon="2.28315">
        <ele>85.8</ele>
        <time>2023-09-13T08:02:40Z</time>
      </trkpt>
      <trkpt lat="49.83137" lon="2.28316">
        <ele>85.8</ele>
        <time>2023-09-13T08:02:41Z</time>
      </trkpt>
      <trkpt lat="49.83137" lon="2.28318">
        <ele>85.8</ele>
        <time>2023-09-13T08:02:42Z</time>
      </trkpt>
      <trkpt lat="49.83137" lon="2.2832">
        <ele>85.8</ele>
        <time>2023-09-13T08:02:43Z</time>
      </trkpt>
      <trkpt lat="49.83137" lon="2.28321">
        <ele>85.8</ele>
        <time>2023-09-13T08:02:44Z</time>
      </trkpt>
      <trkpt lat="49.83137" lon="2.28323">
        <ele>85.8</ele>
        <time>2023-09-13T08:02:45Z</time>
      </trkpt>
      <trkpt lat="49.83137" lon="2.28326">
        <ele>85.8</ele>
        <time>2023-09-13T08:02:47Z</time>
      </trkpt>
      <trkpt lat="49.83137" lon="2.28327">
        <ele>85.8</ele>
        <time>2023-09-13T08:02:48Z</time>
      </trkpt>
      <trkpt lat="49.83136" lon="2.28329">
        <ele>85.8</ele>
        <time>2023-09-13T08:02:49Z</time>
      </trkpt>
      <trkpt lat="49.83136" lon="2.28332">
        <ele>85.8</ele>
        <time>2023-09-13T08:02:50Z</time>
      </trkpt>
      <trkpt lat="49.83136" lon="2.28334">
        <ele>85.8</ele>
        <time>2023-09-13T08:02:51Z</time>
      </trkpt>
      <trkpt lat="49.83136" lon="2.28335">
        <ele>85.8</ele>
        <time>2023-09-13T08:02:52Z</time>
      </trkpt>
      <trkpt lat="49.83135" lon="2.28338">
        <ele>85.8</ele>
        <time>2023-09-13T08:02:53Z</time>
      </trkpt>
      <trkpt lat="49.83135" lon="2.2834">
        <ele>85.8</ele>
        <time>2023-09-13T08:02:54Z</time>
      </trkpt>
      <trkpt lat="49.83134" lon="2.28341">
        <ele>85.8</ele>
        <time>2023-09-13T08:02:56Z</time>
      </trkpt>
      <trkpt lat="49.83134" lon="2.28343">
        <ele>85.8</ele>
        <time>2023-09-13T08:02:57Z</time>
      </trkpt>
      <trkpt lat="49.83134" lon="2.28344">
        <ele>85.8</ele>
        <time>2023-09-13T08:02:58Z</time>
      </trkpt>
      <trkpt lat="49.83133" lon="2.28346">
        <ele>85.8</ele>
        <time>2023-09-13T08:02:59Z</time>
      </trkpt>
      <trkpt lat="49.83133" lon="2.28348">
        <ele>85.7</ele>
        <time>2023-09-13T08:03:00Z</time>
      </trkpt>
      <trkpt lat="49.83133" lon="2.28349">
        <ele>85.7</ele>
        <time>2023-09-13T08:03:01Z</time>
      </trkpt>
      <trkpt lat="49.83133" lon="2.28351">
        <ele>85.7</ele>
        <time>2023-09-13T08:03:02Z</time>
      </trkpt>
      <trkpt lat="49.83132" lon="2.28354">
        <ele>85.7</ele>
        <time>2023-09-13T08:03:03Z</time>
      </trkpt>
      <trkpt lat="49.83132" lon="2.28355">
        <ele>85.7</ele>
        <time>2023-09-13T08:03:04Z</time>
      </trkpt>
      <trkpt lat="49.83132" lon="2.28356">
        <ele>85.7</ele>
        <time>2023-09-13T08:03:05Z</time>
      </trkpt>
      <trkpt lat="49.83132" lon="2.28358">
        <ele>85.7</ele>
        <time>2023-09-13T08:03:06Z</time>
      </trkpt>
      <trkpt lat="49.83131" lon="2.2836">
        <ele>85.7</ele>
        <time>2023-09-13T08:03:07Z</time>
      </trkpt>
      <trkpt lat="49.83131" lon="2.28362">
        <ele>85.7</ele>
        <time>2023-09-13T08:03:09Z</time>
      </trkpt>
      <trkpt lat="49.8313" lon="2.28365">
        <ele>85.7</ele>
        <time>2023-09-13T08:03:10Z</time>
      </trkpt>
      <trkpt lat="49.8313" lon="2.28367">
        <ele>85.7</ele>
        <time>2023-09-13T08:03:11Z</time>
      </trkpt>
      <trkpt lat="49.8313" lon="2.28368">
        <ele>85.7</ele>
        <time>2023-09-13T08:03:12Z</time>
      </trkpt>
      <trkpt lat="49.83129" lon="2.2837">
        <ele>85.7</ele>
        <time>2023-09-13T08:03:13Z</time>
      </trkpt>
      <trkpt lat="49.83129" lon="2.28372">
        <ele>85.7</ele>
        <time>2023-09-13T08:03:15Z</time>
      </trkpt>
      <trkpt lat="49.83129" lon="2.28374">
        <ele>85.7</ele>
        <time>2023-09-13T08:03:16Z</time>
      </trkpt>
      <trkpt lat="49.83128" lon="2.28376">
        <ele>85.7</ele>
        <time>2023-09-13T08:03:17Z</time>
      </trkpt>
      <trkpt lat="49.83128" lon="2.28378">
        <ele>85.7</ele>
        <time>2023-09-13T08:03:18Z</time>
      </trkpt>
      <trkpt lat="49.83128" lon="2.2838">
        <ele>85.6</ele>
        <time>2023-09-13T08:03:19Z</time>
      </trkpt>
      <trkpt lat="49.83128" lon="2.28382">
        <ele>85.6</ele>
        <time>2023-09-13T08:03:20Z</time>
      </trkpt>
      <trkpt lat="49.83127" lon="2.28384">
        <ele>85.6</ele>
        <time>2023-09-13T08:03:22Z</time>
      </trkpt>
      <trkpt lat="49.83127" lon="2.28387">
        <ele>85.6</ele>
        <time>2023-09-13T08:03:23Z</time>
      </trkpt>
      <trkpt lat="49.83127" lon="2.28388">
        <ele>85.6</ele>
        <time>2023-09-13T08:03:24Z</time>
      </trkpt>
      <trkpt lat="49.83127" lon="2.2839">
        <ele>85.6</ele>
        <time>2023-09-13T08:03:25Z</time>
      </trkpt>
      <trkpt lat="49.83127" lon="2.28391">
        <ele>85.6</ele>
        <time>2023-09-13T08:03:26Z</time>
      </trkpt>
      <trkpt lat="49.83126" lon="2.28393">
        <ele>85.5</ele>
        <time>2023-09-13T08:03:27Z</time>
      </trkpt>
      <trkpt lat="49.83126" lon="2.28395">
        <ele>85.5</ele>
        <time>2023-09-13T08:03:29Z</time>
      </trkpt>
      <trkpt lat="49.83126" lon="2.28398">
        <ele>85.5</ele>
        <time>2023-09-13T08:03:30Z</time>
      </trkpt>
      <trkpt lat="49.83126" lon="2.284">
        <ele>85.5</ele>
        <time>2023-09-13T08:03:31Z</time>
      </trkpt>
      <trkpt lat="49.83126" lon="2.28401">
        <ele>85.5</ele>
        <time>2023-09-13T08:03:32Z</time>
      </trkpt>
      <trkpt lat="49.83126" lon="2.28405">
        <ele>85.4</ele>
        <time>2023-09-13T08:03:33Z</time>
      </trkpt>
      <trkpt lat="49.83126" lon="2.28406">
        <ele>85.4</ele>
        <time>2023-09-13T08:03:34Z</time>
      </trkpt>
      <trkpt lat="49.83126" lon="2.28408">
        <ele>85.4</ele>
        <time>2023-09-13T08:03:35Z</time>
      </trkpt>
      <trkpt lat="49.83125" lon="2.28411">
        <ele>85.4</ele>
        <time>2023-09-13T08:03:36Z</time>
      </trkpt>
      <trkpt lat="49.83125" lon="2.28412">
        <ele>85.4</ele>
        <time>2023-09-13T08:03:37Z</time>
      </trkpt>
      <trkpt lat="49.83125" lon="2.28414">
        <ele>85.4</ele>
        <time>2023-09-13T08:03:38Z</time>
      </trkpt>
      <trkpt lat="49.83125" lon="2.28417">
        <ele>85.3</ele>
        <time>2023-09-13T08:03:40Z</time>
      </trkpt>
      <trkpt lat="49.83125" lon="2.28418">
        <ele>85.3</ele>
        <time>2023-09-13T08:03:41Z</time>
      </trkpt>
      <trkpt lat="49.83124" lon="2.2842">
        <ele>85.3</ele>
        <time>2023-09-13T08:03:42Z</time>
      </trkpt>
      <trkpt lat="49.83124" lon="2.28423">
        <ele>85.3</ele>
        <time>2023-09-13T08:03:43Z</time>
      </trkpt>
      <trkpt lat="49.83124" lon="2.28425">
        <ele>85.2</ele>
        <time>2023-09-13T08:03:44Z</time>
      </trkpt>
      <trkpt lat="49.83124" lon="2.28426">
        <ele>85.2</ele>
        <time>2023-09-13T08:03:45Z</time>
      </trkpt>
      <trkpt lat="49.83124" lon="2.28428">
        <ele>85.2</ele>
        <time>2023-09-13T08:03:46Z</time>
      </trkpt>
      <trkpt lat="49.83124" lon="2.28431">
        <ele>85.2</ele>
        <time>2023-09-13T08:03:48Z</time>
      </trkpt>
      <trkpt lat="49.83124" lon="2.28433">
        <ele>85.1</ele>
        <time>2023-09-13T08:03:49Z</time>
      </trkpt>
      <trkpt lat="49.83124" lon="2.28435">
        <ele>85.1</ele>
        <time>2023-09-13T08:03:50Z</time>
      </trkpt>
      <trkpt lat="49.83124" lon="2.28439">
        <ele>85.1</ele>
        <time>2023-09-13T08:03:51Z</time>
      </trkpt>
      <trkpt lat="49.83124" lon="2.2844">
        <ele>85.1</ele>
        <time>2023-09-13T08:03:52Z</time>
      </trkpt>
      <trkpt lat="49.83124" lon="2.28442">
        <ele>85.1</ele>
        <time>2023-09-13T08:03:53Z</time>
      </trkpt>
      <trkpt lat="49.83124" lon="2.28445">
        <ele>85</ele>
        <time>2023-09-13T08:03:55Z</time>
      </trkpt>
      <trkpt lat="49.83124" lon="2.28446">
        <ele>85</ele>
        <time>2023-09-13T08:03:56Z</time>
      </trkpt>
      <trkpt lat="49.83124" lon="2.28448">
        <ele>85</ele>
        <time>2023-09-13T08:03:57Z</time>
      </trkpt>
      <trkpt lat="49.83124" lon="2.28451">
        <ele>85</ele>
        <time>2023-09-13T08:03:58Z</time>
      </trkpt>
      <trkpt lat="49.83124" lon="2.28452">
        <ele>84.9</ele>
        <time>2023-09-13T08:03:59Z</time>
      </trkpt>
      <trkpt lat="49.83124" lon="2.28453">
        <ele>84.9</ele>
        <time>2023-09-13T08:04:00Z</time>
      </trkpt>
      <trkpt lat="49.83123" lon="2.28457">
        <ele>84.9</ele>
        <time>2023-09-13T08:04:01Z</time>
      </trkpt>
      <trkpt lat="49.83123" lon="2.28458">
        <ele>84.9</ele>
        <time>2023-09-13T08:04:02Z</time>
      </trkpt>
      <trkpt lat="49.83123" lon="2.28459">
        <ele>84.9</ele>
        <time>2023-09-13T08:04:03Z</time>
      </trkpt>
      <trkpt lat="49.83123" lon="2.28462">
        <ele>84.9</ele>
        <time>2023-09-13T08:04:05Z</time>
      </trkpt>
      <trkpt lat="49.83123" lon="2.28463">
        <ele>84.9</ele>
        <time>2023-09-13T08:04:06Z</time>
      </trkpt>
      <trkpt lat="49.83123" lon="2.28465">
        <ele>84.9</ele>
        <time>2023-09-13T08:04:07Z</time>
      </trkpt>
      <trkpt lat="49.83123" lon="2.28467">
        <ele>84.8</ele>
        <time>2023-09-13T08:04:08Z</time>
      </trkpt>
      <trkpt lat="49.83123" lon="2.28469">
        <ele>84.8</ele>
        <time>2023-09-13T08:04:09Z</time>
      </trkpt>
      <trkpt lat="49.83123" lon="2.28472">
        <ele>84.8</ele>
        <time>2023-09-13T08:04:11Z</time>
      </trkpt>
      <trkpt lat="49.83123" lon="2.28474">
        <ele>84.8</ele>
        <time>2023-09-13T08:04:12Z</time>
      </trkpt>
      <trkpt lat="49.83123" lon="2.28478">
        <ele>84.8</ele>
        <time>2023-09-13T08:04:13Z</time>
      </trkpt>
      <trkpt lat="49.83123" lon="2.28479">
        <ele>84.8</ele>
        <time>2023-09-13T08:04:14Z</time>
      </trkpt>
      <trkpt lat="49.83123" lon="2.2848">
        <ele>84.8</ele>
        <time>2023-09-13T08:04:15Z</time>
      </trkpt>
      <trkpt lat="49.83123" lon="2.28482">
        <ele>84.7</ele>
        <time>2023-09-13T08:04:17Z</time>
      </trkpt>
      <trkpt lat="49.83123" lon="2.28484">
        <ele>84.7</ele>
        <time>2023-09-13T08:04:18Z</time>
      </trkpt>
      <trkpt lat="49.83123" lon="2.28485">
        <ele>84.7</ele>
        <time>2023-09-13T08:04:19Z</time>
      </trkpt>
      <trkpt lat="49.83122" lon="2.28489">
        <ele>84.7</ele>
        <time>2023-09-13T08:04:20Z</time>
      </trkpt>
      <trkpt lat="49.83122" lon="2.2849">
        <ele>84.7</ele>
        <time>2023-09-13T08:04:21Z</time>
      </trkpt>
      <trkpt lat="49.83122" lon="2.28491">
        <ele>84.7</ele>
        <time>2023-09-13T08:04:22Z</time>
      </trkpt>
      <trkpt lat="49.83123" lon="2.28493">
        <ele>84.7</ele>
        <time>2023-09-13T08:04:23Z</time>
      </trkpt>
      <trkpt lat="49.83123" lon="2.28494">
        <ele>84.7</ele>
        <time>2023-09-13T08:04:24Z</time>
      </trkpt>
      <trkpt lat="49.83123" lon="2.28496">
        <ele>84.6</ele>
        <time>2023-09-13T08:04:26Z</time>
      </trkpt>
      <trkpt lat="49.83124" lon="2.28497">
        <ele>84.6</ele>
        <time>2023-09-13T08:04:27Z</time>
      </trkpt>
      <trkpt lat="49.83124" lon="2.28499">
        <ele>84.6</ele>
        <time>2023-09-13T08:04:28Z</time>
      </trkpt>
      <trkpt lat="49.83124" lon="2.28501">
        <ele>84.6</ele>
        <time>2023-09-13T08:04:29Z</time>
      </trkpt>
      <trkpt lat="49.83123" lon="2.28504">
        <ele>84.6</ele>
        <time>2023-09-13T08:04:30Z</time>
      </trkpt>
      <trkpt lat="49.83123" lon="2.28506">
        <ele>84.6</ele>
        <time>2023-09-13T08:04:31Z</time>
      </trkpt>
      <trkpt lat="49.83123" lon="2.28507">
        <ele>84.6</ele>
        <time>2023-09-13T08:04:32Z</time>
      </trkpt>
      <trkpt lat="49.83123" lon="2.2851">
        <ele>84.5</ele>
        <time>2023-09-13T08:04:33Z</time>
      </trkpt>
      <trkpt lat="49.83123" lon="2.28512">
        <ele>84.5</ele>
        <time>2023-09-13T08:04:34Z</time>
      </trkpt>
      <trkpt lat="49.83123" lon="2.28513">
        <ele>84.5</ele>
        <time>2023-09-13T08:04:36Z</time>
      </trkpt>
      <trkpt lat="49.83123" lon="2.28515">
        <ele>84.5</ele>
        <time>2023-09-13T08:04:37Z</time>
      </trkpt>
      <trkpt lat="49.83123" lon="2.28516">
        <ele>84.5</ele>
        <time>2023-09-13T08:04:38Z</time>
      </trkpt>
      <trkpt lat="49.83123" lon="2.28518">
        <ele>84.5</ele>
        <time>2023-09-13T08:04:39Z</time>
      </trkpt>
      <trkpt lat="49.83124" lon="2.28521">
        <ele>84.5</ele>
        <time>2023-09-13T08:04:40Z</time>
      </trkpt>
      <trkpt lat="49.83124" lon="2.28522">
        <ele>84.5</ele>
        <time>2023-09-13T08:04:41Z</time>
      </trkpt>
      <trkpt lat="49.83124" lon="2.28524">
        <ele>84.4</ele>
        <time>2023-09-13T08:04:42Z</time>
      </trkpt>
      <trkpt lat="49.83125" lon="2.28526">
        <ele>84.4</ele>
        <time>2023-09-13T08:04:43Z</time>
      </trkpt>
      <trkpt lat="49.83125" lon="2.28528">
        <ele>84.4</ele>
        <time>2023-09-13T08:04:44Z</time>
      </trkpt>
      <trkpt lat="49.83125" lon="2.2853">
        <ele>84.4</ele>
        <time>2023-09-13T08:04:46Z</time>
      </trkpt>
      <trkpt lat="49.83125" lon="2.28533">
        <ele>84.4</ele>
        <time>2023-09-13T08:04:47Z</time>
      </trkpt>
      <trkpt lat="49.83126" lon="2.28534">
        <ele>84.4</ele>
        <time>2023-09-13T08:04:48Z</time>
      </trkpt>
      <trkpt lat="49.83126" lon="2.28535">
        <ele>84.4</ele>
        <time>2023-09-13T08:04:49Z</time>
      </trkpt>
      <trkpt lat="49.83126" lon="2.28537">
        <ele>84.4</ele>
        <time>2023-09-13T08:04:50Z</time>
      </trkpt>
      <trkpt lat="49.83126" lon="2.2854">
        <ele>84.3</ele>
        <time>2023-09-13T08:04:51Z</time>
      </trkpt>
      <trkpt lat="49.83126" lon="2.28542">
        <ele>84.3</ele>
        <time>2023-09-13T08:04:52Z</time>
      </trkpt>
      <trkpt lat="49.83127" lon="2.28544">
        <ele>84.3</ele>
        <time>2023-09-13T08:04:53Z</time>
      </trkpt>
      <trkpt lat="49.83127" lon="2.28546">
        <ele>84.3</ele>
        <time>2023-09-13T08:04:54Z</time>
      </trkpt>
      <trkpt lat="49.83127" lon="2.28548">
        <ele>84.3</ele>
        <time>2023-09-13T08:04:56Z</time>
      </trkpt>
      <trkpt lat="49.83128" lon="2.28549">
        <ele>84.3</ele>
        <time>2023-09-13T08:04:57Z</time>
      </trkpt>
      <trkpt lat="49.83128" lon="2.28551">
        <ele>84.3</ele>
        <time>2023-09-13T08:04:58Z</time>
      </trkpt>
      <trkpt lat="49.83128" lon="2.28553">
        <ele>84.3</ele>
        <time>2023-09-13T08:04:59Z</time>
      </trkpt>
      <trkpt lat="49.83129" lon="2.28555">
        <ele>84.3</ele>
        <time>2023-09-13T08:05:00Z</time>
      </trkpt>
      <trkpt lat="49.83129" lon="2.28557">
        <ele>84.3</ele>
        <time>2023-09-13T08:05:01Z</time>
      </trkpt>
      <trkpt lat="49.83129" lon="2.28559">
        <ele>84.3</ele>
        <time>2023-09-13T08:05:03Z</time>
      </trkpt>
      <trkpt lat="49.8313" lon="2.28562">
        <ele>84.2</ele>
        <time>2023-09-13T08:05:04Z</time>
      </trkpt>
      <trkpt lat="49.8313" lon="2.28563">
        <ele>84.2</ele>
        <time>2023-09-13T08:05:05Z</time>
      </trkpt>
      <trkpt lat="49.8313" lon="2.28565">
        <ele>84.2</ele>
        <time>2023-09-13T08:05:06Z</time>
      </trkpt>
      <trkpt lat="49.8313" lon="2.28567">
        <ele>84.2</ele>
        <time>2023-09-13T08:05:07Z</time>
      </trkpt>
      <trkpt lat="49.8313" lon="2.28568">
        <ele>84.2</ele>
        <time>2023-09-13T08:05:08Z</time>
      </trkpt>
      <trkpt lat="49.8313" lon="2.2857">
        <ele>84.2</ele>
        <time>2023-09-13T08:05:09Z</time>
      </trkpt>
      <trkpt lat="49.8313" lon="2.28572">
        <ele>84.2</ele>
        <time>2023-09-13T08:05:10Z</time>
      </trkpt>
      <trkpt lat="49.83131" lon="2.28574">
        <ele>84.2</ele>
        <time>2023-09-13T08:05:11Z</time>
      </trkpt>
      <trkpt lat="49.83131" lon="2.28576">
        <ele>84.2</ele>
        <time>2023-09-13T08:05:13Z</time>
      </trkpt>
      <trkpt lat="49.83131" lon="2.28579">
        <ele>84.2</ele>
        <time>2023-09-13T08:05:14Z</time>
      </trkpt>
      <trkpt lat="49.83131" lon="2.28581">
        <ele>84.1</ele>
        <time>2023-09-13T08:05:15Z</time>
      </trkpt>
      <trkpt lat="49.83131" lon="2.28582">
        <ele>84.1</ele>
        <time>2023-09-13T08:05:16Z</time>
      </trkpt>
      <trkpt lat="49.83131" lon="2.28584">
        <ele>84.1</ele>
        <time>2023-09-13T08:05:17Z</time>
      </trkpt>
      <trkpt lat="49.83131" lon="2.28585">
        <ele>84.1</ele>
        <time>2023-09-13T08:05:18Z</time>
      </trkpt>
      <trkpt lat="49.8313" lon="2.28587">
        <ele>84.1</ele>
        <time>2023-09-13T08:05:19Z</time>
      </trkpt>
      <trkpt lat="49.8313" lon="2.2859">
        <ele>84.1</ele>
        <time>2023-09-13T08:05:21Z</time>
      </trkpt>
      <trkpt lat="49.83129" lon="2.28592">
        <ele>84.1</ele>
        <time>2023-09-13T08:05:23Z</time>
      </trkpt>
      <trkpt lat="49.83129" lon="2.28594">
        <ele>84.1</ele>
        <time>2023-09-13T08:05:24Z</time>
      </trkpt>
      <trkpt lat="49.83129" lon="2.28595">
        <ele>84.1</ele>
        <time>2023-09-13T08:05:25Z</time>
      </trkpt>
      <trkpt lat="49.83129" lon="2.28597">
        <ele>84</ele>
        <time>2023-09-13T08:05:26Z</time>
      </trkpt>
      <trkpt lat="49.83129" lon="2.28599">
        <ele>84</ele>
        <time>2023-09-13T08:05:27Z</time>
      </trkpt>
      <trkpt lat="49.8313" lon="2.28601">
        <ele>84</ele>
        <time>2023-09-13T08:05:29Z</time>
      </trkpt>
      <trkpt lat="49.8313" lon="2.28602">
        <ele>84</ele>
        <time>2023-09-13T08:05:30Z</time>
      </trkpt>
      <trkpt lat="49.8313" lon="2.28603">
        <ele>84</ele>
        <time>2023-09-13T08:05:31Z</time>
      </trkpt>
      <trkpt lat="49.83131" lon="2.28605">
        <ele>84</ele>
        <time>2023-09-13T08:05:32Z</time>
      </trkpt>
      <trkpt lat="49.83131" lon="2.28607">
        <ele>84</ele>
        <time>2023-09-13T08:05:33Z</time>
      </trkpt>
      <trkpt lat="49.83131" lon="2.28609">
        <ele>84</ele>
        <time>2023-09-13T08:05:34Z</time>
      </trkpt>
      <trkpt lat="49.83131" lon="2.28611">
        <ele>83.9</ele>
        <time>2023-09-13T08:05:35Z</time>
      </trkpt>
      <trkpt lat="49.83132" lon="2.28613">
        <ele>83.9</ele>
        <time>2023-09-13T08:05:37Z</time>
      </trkpt>
      <trkpt lat="49.83132" lon="2.28615">
        <ele>83.9</ele>
        <time>2023-09-13T08:05:38Z</time>
      </trkpt>
      <trkpt lat="49.83132" lon="2.28617">
        <ele>83.9</ele>
        <time>2023-09-13T08:05:39Z</time>
      </trkpt>
      <trkpt lat="49.83132" lon="2.28619">
        <ele>83.9</ele>
        <time>2023-09-13T08:05:40Z</time>
      </trkpt>
      <trkpt lat="49.83132" lon="2.2862">
        <ele>83.8</ele>
        <time>2023-09-13T08:05:41Z</time>
      </trkpt>
      <trkpt lat="49.83132" lon="2.28622">
        <ele>83.8</ele>
        <time>2023-09-13T08:05:42Z</time>
      </trkpt>
      <trkpt lat="49.83132" lon="2.28624">
        <ele>83.8</ele>
        <time>2023-09-13T08:05:44Z</time>
      </trkpt>
      <trkpt lat="49.83132" lon="2.28626">
        <ele>83.8</ele>
        <time>2023-09-13T08:05:45Z</time>
      </trkpt>
      <trkpt lat="49.83132" lon="2.28628">
        <ele>83.8</ele>
        <time>2023-09-13T08:05:46Z</time>
      </trkpt>
      <trkpt lat="49.83132" lon="2.2863">
        <ele>83.7</ele>
        <time>2023-09-13T08:05:47Z</time>
      </trkpt>
      <trkpt lat="49.83132" lon="2.28633">
        <ele>83.7</ele>
        <time>2023-09-13T08:05:48Z</time>
      </trkpt>
      <trkpt lat="49.83132" lon="2.28635">
        <ele>83.7</ele>
        <time>2023-09-13T08:05:49Z</time>
      </trkpt>
      <trkpt lat="49.83132" lon="2.28636">
        <ele>83.7</ele>
        <time>2023-09-13T08:05:50Z</time>
      </trkpt>
      <trkpt lat="49.83132" lon="2.28637">
        <ele>83.7</ele>
        <time>2023-09-13T08:05:52Z</time>
      </trkpt>
      <trkpt lat="49.83133" lon="2.28639">
        <ele>83.7</ele>
        <time>2023-09-13T08:05:53Z</time>
      </trkpt>
      <trkpt lat="49.83133" lon="2.28641">
        <ele>83.6</ele>
        <time>2023-09-13T08:05:54Z</time>
      </trkpt>
      <trkpt lat="49.83133" lon="2.28644">
        <ele>83.6</ele>
        <time>2023-09-13T08:05:55Z</time>
      </trkpt>
      <trkpt lat="49.83133" lon="2.28645">
        <ele>83.6</ele>
        <time>2023-09-13T08:05:56Z</time>
      </trkpt>
      <trkpt lat="49.83133" lon="2.28647">
        <ele>83.6</ele>
        <time>2023-09-13T08:05:57Z</time>
      </trkpt>
      <trkpt lat="49.83133" lon="2.28649">
        <ele>83.6</ele>
        <time>2023-09-13T08:05:58Z</time>
      </trkpt>
      <trkpt lat="49.83133" lon="2.28651">
        <ele>83.5</ele>
        <time>2023-09-13T08:05:59Z</time>
      </trkpt>
      <trkpt lat="49.83134" lon="2.28652">
        <ele>83.5</ele>
        <time>2023-09-13T08:06:00Z</time>
      </trkpt>
      <trkpt lat="49.83134" lon="2.28654">
        <ele>83.5</ele>
        <time>2023-09-13T08:06:02Z</time>
      </trkpt>
      <trkpt lat="49.83135" lon="2.28655">
        <ele>83.5</ele>
        <time>2023-09-13T08:06:03Z</time>
      </trkpt>
      <trkpt lat="49.83135" lon="2.28657">
        <ele>83.5</ele>
        <time>2023-09-13T08:06:04Z</time>
      </trkpt>
      <trkpt lat="49.83136" lon="2.2866">
        <ele>83.4</ele>
        <time>2023-09-13T08:06:05Z</time>
      </trkpt>
      <trkpt lat="49.83136" lon="2.28661">
        <ele>83.4</ele>
        <time>2023-09-13T08:06:06Z</time>
      </trkpt>
      <trkpt lat="49.83137" lon="2.28662">
        <ele>83.4</ele>
        <time>2023-09-13T08:06:07Z</time>
      </trkpt>
      <trkpt lat="49.83137" lon="2.28664">
        <ele>83.4</ele>
        <time>2023-09-13T08:06:09Z</time>
      </trkpt>
      <trkpt lat="49.83138" lon="2.28667">
        <ele>83.4</ele>
        <time>2023-09-13T08:06:10Z</time>
      </trkpt>
      <trkpt lat="49.83138" lon="2.28669">
        <ele>83.3</ele>
        <time>2023-09-13T08:06:11Z</time>
      </trkpt>
      <trkpt lat="49.83139" lon="2.2867">
        <ele>83.3</ele>
        <time>2023-09-13T08:06:12Z</time>
      </trkpt>
      <trkpt lat="49.83139" lon="2.28671">
        <ele>83.3</ele>
        <time>2023-09-13T08:06:13Z</time>
      </trkpt>
      <trkpt lat="49.8314" lon="2.28673">
        <ele>83.3</ele>
        <time>2023-09-13T08:06:14Z</time>
      </trkpt>
      <trkpt lat="49.8314" lon="2.28675">
        <ele>83.3</ele>
        <time>2023-09-13T08:06:15Z</time>
      </trkpt>
      <trkpt lat="49.83141" lon="2.28677">
        <ele>83.2</ele>
        <time>2023-09-13T08:06:16Z</time>
      </trkpt>
      <trkpt lat="49.83141" lon="2.28679">
        <ele>83.2</ele>
        <time>2023-09-13T08:06:17Z</time>
      </trkpt>
      <trkpt lat="49.83141" lon="2.28681">
        <ele>83.2</ele>
        <time>2023-09-13T08:06:18Z</time>
      </trkpt>
      <trkpt lat="49.83142" lon="2.28683">
        <ele>83.2</ele>
        <time>2023-09-13T08:06:19Z</time>
      </trkpt>
      <trkpt lat="49.83142" lon="2.28685">
        <ele>83.1</ele>
        <time>2023-09-13T08:06:21Z</time>
      </trkpt>
      <trkpt lat="49.83142" lon="2.28687">
        <ele>83.1</ele>
        <time>2023-09-13T08:06:22Z</time>
      </trkpt>
      <trkpt lat="49.83143" lon="2.2869">
        <ele>83.1</ele>
        <time>2023-09-13T08:06:23Z</time>
      </trkpt>
      <trkpt lat="49.83143" lon="2.28693">
        <ele>83</ele>
        <time>2023-09-13T08:06:24Z</time>
      </trkpt>
      <trkpt lat="49.83143" lon="2.28694">
        <ele>83</ele>
        <time>2023-09-13T08:06:25Z</time>
      </trkpt>
      <trkpt lat="49.83144" lon="2.28695">
        <ele>83</ele>
        <time>2023-09-13T08:06:26Z</time>
      </trkpt>
      <trkpt lat="49.83144" lon="2.28698">
        <ele>82.9</ele>
        <time>2023-09-13T08:06:27Z</time>
      </trkpt>
      <trkpt lat="49.83144" lon="2.28699">
        <ele>82.9</ele>
        <time>2023-09-13T08:06:28Z</time>
      </trkpt>
      <trkpt lat="49.83145" lon="2.28701">
        <ele>82.9</ele>
        <time>2023-09-13T08:06:29Z</time>
      </trkpt>
      <trkpt lat="49.83145" lon="2.28704">
        <ele>82.8</ele>
        <time>2023-09-13T08:06:30Z</time>
      </trkpt>
      <trkpt lat="49.83145" lon="2.28705">
        <ele>82.8</ele>
        <time>2023-09-13T08:06:32Z</time>
      </trkpt>
      <trkpt lat="49.83146" lon="2.28707">
        <ele>82.8</ele>
        <time>2023-09-13T08:06:33Z</time>
      </trkpt>
      <trkpt lat="49.83146" lon="2.28708">
        <ele>82.8</ele>
        <time>2023-09-13T08:06:34Z</time>
      </trkpt>
      <trkpt lat="49.83146" lon="2.2871">
        <ele>82.7</ele>
        <time>2023-09-13T08:06:35Z</time>
      </trkpt>
      <trkpt lat="49.83146" lon="2.28712">
        <ele>82.7</ele>
        <time>2023-09-13T08:06:36Z</time>
      </trkpt>
      <trkpt lat="49.83147" lon="2.28714">
        <ele>82.7</ele>
        <time>2023-09-13T08:06:37Z</time>
      </trkpt>
      <trkpt lat="49.83147" lon="2.28716">
        <ele>82.6</ele>
        <time>2023-09-13T08:06:38Z</time>
      </trkpt>
      <trkpt lat="49.83147" lon="2.28719">
        <ele>82.6</ele>
        <time>2023-09-13T08:06:40Z</time>
      </trkpt>
      <trkpt lat="49.83148" lon="2.28722">
        <ele>82.5</ele>
        <time>2023-09-13T08:06:41Z</time>
      </trkpt>
      <trkpt lat="49.83148" lon="2.28723">
        <ele>82.5</ele>
        <time>2023-09-13T08:06:42Z</time>
      </trkpt>
      <trkpt lat="49.83148" lon="2.28724">
        <ele>82.5</ele>
        <time>2023-09-13T08:06:43Z</time>
      </trkpt>
      <trkpt lat="49.83149" lon="2.28726">
        <ele>82.4</ele>
        <time>2023-09-13T08:06:44Z</time>
      </trkpt>
      <trkpt lat="49.83149" lon="2.28729">
        <ele>82.4</ele>
        <time>2023-09-13T08:06:45Z</time>
      </trkpt>
      <trkpt lat="49.83149" lon="2.2873">
        <ele>82.4</ele>
        <time>2023-09-13T08:06:46Z</time>
      </trkpt>
      <trkpt lat="49.8315" lon="2.28732">
        <ele>82.3</ele>
        <time>2023-09-13T08:06:47Z</time>
      </trkpt>
      <trkpt lat="49.8315" lon="2.28734">
        <ele>82.3</ele>
        <time>2023-09-13T08:06:49Z</time>
      </trkpt>
      <trkpt lat="49.83151" lon="2.28737">
        <ele>82.2</ele>
        <time>2023-09-13T08:06:50Z</time>
      </trkpt>
      <trkpt lat="49.83151" lon="2.28739">
        <ele>82.2</ele>
        <time>2023-09-13T08:06:51Z</time>
      </trkpt>
      <trkpt lat="49.83152" lon="2.2874">
        <ele>82.2</ele>
        <time>2023-09-13T08:06:52Z</time>
      </trkpt>
      <trkpt lat="49.83152" lon="2.28744">
        <ele>82.1</ele>
        <time>2023-09-13T08:06:53Z</time>
      </trkpt>
      <trkpt lat="49.83152" lon="2.28745">
        <ele>82.1</ele>
        <time>2023-09-13T08:06:55Z</time>
      </trkpt>
      <trkpt lat="49.83153" lon="2.28747">
        <ele>82.1</ele>
        <time>2023-09-13T08:06:56Z</time>
      </trkpt>
      <trkpt lat="49.83153" lon="2.28749">
        <ele>82</ele>
        <time>2023-09-13T08:06:57Z</time>
      </trkpt>
      <trkpt lat="49.83153" lon="2.28751">
        <ele>82</ele>
        <time>2023-09-13T08:06:58Z</time>
      </trkpt>
      <trkpt lat="49.83154" lon="2.28756">
        <ele>81.9</ele>
        <time>2023-09-13T08:07:00Z</time>
      </trkpt>
      <trkpt lat="49.83154" lon="2.28757">
        <ele>81.9</ele>
        <time>2023-09-13T08:07:01Z</time>
      </trkpt>
      <trkpt lat="49.83154" lon="2.28759">
        <ele>81.9</ele>
        <time>2023-09-13T08:07:02Z</time>
      </trkpt>
      <trkpt lat="49.83153" lon="2.28761">
        <ele>81.8</ele>
        <time>2023-09-13T08:07:03Z</time>
      </trkpt>
      <trkpt lat="49.83153" lon="2.28762">
        <ele>81.8</ele>
        <time>2023-09-13T08:07:04Z</time>
      </trkpt>
      <trkpt lat="49.83153" lon="2.28763">
        <ele>81.8</ele>
        <time>2023-09-13T08:07:06Z</time>
      </trkpt>
      <trkpt lat="49.83153" lon="2.28765">
        <ele>81.7</ele>
        <time>2023-09-13T08:07:07Z</time>
      </trkpt>
      <trkpt lat="49.83153" lon="2.28767">
        <ele>81.7</ele>
        <time>2023-09-13T08:07:08Z</time>
      </trkpt>
      <trkpt lat="49.83154" lon="2.2877">
        <ele>81.6</ele>
        <time>2023-09-13T08:07:09Z</time>
      </trkpt>
      <trkpt lat="49.83154" lon="2.28772">
        <ele>81.6</ele>
        <time>2023-09-13T08:07:10Z</time>
      </trkpt>
      <trkpt lat="49.83154" lon="2.28773">
        <ele>81.6</ele>
        <time>2023-09-13T08:07:11Z</time>
      </trkpt>
      <trkpt lat="49.83154" lon="2.28776">
        <ele>81.5</ele>
        <time>2023-09-13T08:07:12Z</time>
      </trkpt>
      <trkpt lat="49.83154" lon="2.28777">
        <ele>81.5</ele>
        <time>2023-09-13T08:07:13Z</time>
      </trkpt>
      <trkpt lat="49.83154" lon="2.28779">
        <ele>81.4</ele>
        <time>2023-09-13T08:07:14Z</time>
      </trkpt>
      <trkpt lat="49.83154" lon="2.28782">
        <ele>81.3</ele>
        <time>2023-09-13T08:07:16Z</time>
      </trkpt>
      <trkpt lat="49.83154" lon="2.28783">
        <ele>81.3</ele>
        <time>2023-09-13T08:07:17Z</time>
      </trkpt>
      <trkpt lat="49.83155" lon="2.28784">
        <ele>81.3</ele>
        <time>2023-09-13T08:07:18Z</time>
      </trkpt>
      <trkpt lat="49.83155" lon="2.28787">
        <ele>81.2</ele>
        <time>2023-09-13T08:07:19Z</time>
      </trkpt>
      <trkpt lat="49.83155" lon="2.28789">
        <ele>81.2</ele>
        <time>2023-09-13T08:07:20Z</time>
      </trkpt>
      <trkpt lat="49.83155" lon="2.2879">
        <ele>81.1</ele>
        <time>2023-09-13T08:07:21Z</time>
      </trkpt>
      <trkpt lat="49.83155" lon="2.28792">
        <ele>81.1</ele>
        <time>2023-09-13T08:07:23Z</time>
      </trkpt>
      <trkpt lat="49.83155" lon="2.28794">
        <ele>81</ele>
        <time>2023-09-13T08:07:24Z</time>
      </trkpt>
      <trkpt lat="49.83156" lon="2.28798">
        <ele>80.9</ele>
        <time>2023-09-13T08:07:25Z</time>
      </trkpt>
      <trkpt lat="49.83156" lon="2.28799">
        <ele>80.9</ele>
        <time>2023-09-13T08:07:26Z</time>
      </trkpt>
      <trkpt lat="49.83156" lon="2.28801">
        <ele>80.8</ele>
        <time>2023-09-13T08:07:27Z</time>
      </trkpt>
      <trkpt lat="49.83156" lon="2.28804">
        <ele>80.7</ele>
        <time>2023-09-13T08:07:29Z</time>
      </trkpt>
      <trkpt lat="49.83156" lon="2.28806">
        <ele>80.6</ele>
        <time>2023-09-13T08:07:30Z</time>
      </trkpt>
      <trkpt lat="49.83156" lon="2.28809">
        <ele>80.6</ele>
        <time>2023-09-13T08:07:31Z</time>
      </trkpt>
      <trkpt lat="49.83156" lon="2.28811">
        <ele>80.5</ele>
        <time>2023-09-13T08:07:32Z</time>
      </trkpt>
      <trkpt lat="49.83157" lon="2.28813">
        <ele>80.4</ele>
        <time>2023-09-13T08:07:33Z</time>
      </trkpt>
      <trkpt lat="49.83157" lon="2.28815">
        <ele>80.3</ele>
        <time>2023-09-13T08:07:34Z</time>
      </trkpt>
      <trkpt lat="49.83156" lon="2.28818">
        <ele>80.2</ele>
        <time>2023-09-13T08:07:36Z</time>
      </trkpt>
      <trkpt lat="49.83156" lon="2.2882">
        <ele>80.1</ele>
        <time>2023-09-13T08:07:37Z</time>
      </trkpt>
      <trkpt lat="49.83156" lon="2.28822">
        <ele>80</ele>
        <time>2023-09-13T08:07:38Z</time>
      </trkpt>
      <trkpt lat="49.83156" lon="2.28824">
        <ele>80</ele>
        <time>2023-09-13T08:07:39Z</time>
      </trkpt>
      <trkpt lat="49.83156" lon="2.28826">
        <ele>79.9</ele>
        <time>2023-09-13T08:07:40Z</time>
      </trkpt>
      <trkpt lat="49.83156" lon="2.28828">
        <ele>79.8</ele>
        <time>2023-09-13T08:07:42Z</time>
      </trkpt>
      <trkpt lat="49.83155" lon="2.28829">
        <ele>79.7</ele>
        <time>2023-09-13T08:07:43Z</time>
      </trkpt>
      <trkpt lat="49.83155" lon="2.28831">
        <ele>79.7</ele>
        <time>2023-09-13T08:07:44Z</time>
      </trkpt>
      <trkpt lat="49.83154" lon="2.28832">
        <ele>79.6</ele>
        <time>2023-09-13T08:07:45Z</time>
      </trkpt>
      <trkpt lat="49.83153" lon="2.28836">
        <ele>79.4</ele>
        <time>2023-09-13T08:07:46Z</time>
      </trkpt>
      <trkpt lat="49.83153" lon="2.28837">
        <ele>79.4</ele>
        <time>2023-09-13T08:07:47Z</time>
      </trkpt>
      <trkpt lat="49.83153" lon="2.28838">
        <ele>79.3</ele>
        <time>2023-09-13T08:07:48Z</time>
      </trkpt>
      <trkpt lat="49.83152" lon="2.28841">
        <ele>79.2</ele>
        <time>2023-09-13T08:07:50Z</time>
      </trkpt>
      <trkpt lat="49.83151" lon="2.28842">
        <ele>79.1</ele>
        <time>2023-09-13T08:07:51Z</time>
      </trkpt>
      <trkpt lat="49.83151" lon="2.28844">
        <ele>79</ele>
        <time>2023-09-13T08:07:52Z</time>
      </trkpt>
      <trkpt lat="49.83151" lon="2.28846">
        <ele>78.9</ele>
        <time>2023-09-13T08:07:53Z</time>
      </trkpt>
      <trkpt lat="49.8315" lon="2.28848">
        <ele>78.8</ele>
        <time>2023-09-13T08:07:54Z</time>
      </trkpt>
      <trkpt lat="49.8315" lon="2.2885">
        <ele>78.8</ele>
        <time>2023-09-13T08:07:55Z</time>
      </trkpt>
      <trkpt lat="49.8315" lon="2.28852">
        <ele>78.7</ele>
        <time>2023-09-13T08:07:57Z</time>
      </trkpt>
      <trkpt lat="49.8315" lon="2.28854">
        <ele>78.6</ele>
        <time>2023-09-13T08:07:58Z</time>
      </trkpt>
      <trkpt lat="49.8315" lon="2.28856">
        <ele>78.5</ele>
        <time>2023-09-13T08:07:59Z</time>
      </trkpt>
      <trkpt lat="49.8315" lon="2.28858">
        <ele>78.4</ele>
        <time>2023-09-13T08:08:00Z</time>
      </trkpt>
      <trkpt lat="49.83149" lon="2.2886">
        <ele>78.3</ele>
        <time>2023-09-13T08:08:01Z</time>
      </trkpt>
      <trkpt lat="49.83149" lon="2.28863">
        <ele>78.2</ele>
        <time>2023-09-13T08:08:03Z</time>
      </trkpt>
      <trkpt lat="49.83149" lon="2.28866">
        <ele>78</ele>
        <time>2023-09-13T08:08:04Z</time>
      </trkpt>
      <trkpt lat="49.83149" lon="2.28867">
        <ele>77.9</ele>
        <time>2023-09-13T08:08:05Z</time>
      </trkpt>
      <trkpt lat="49.83149" lon="2.28868">
        <ele>77.9</ele>
        <time>2023-09-13T08:08:06Z</time>
      </trkpt>
      <trkpt lat="49.83149" lon="2.28872">
        <ele>77.7</ele>
        <time>2023-09-13T08:08:08Z</time>
      </trkpt>
      <trkpt lat="49.83149" lon="2.28873">
        <ele>77.7</ele>
        <time>2023-09-13T08:08:09Z</time>
      </trkpt>
      <trkpt lat="49.83148" lon="2.28874">
        <ele>77.6</ele>
        <time>2023-09-13T08:08:10Z</time>
      </trkpt>
      <trkpt lat="49.83148" lon="2.28877">
        <ele>77.5</ele>
        <time>2023-09-13T08:08:11Z</time>
      </trkpt>
      <trkpt lat="49.83148" lon="2.28878">
        <ele>77.4</ele>
        <time>2023-09-13T08:08:12Z</time>
      </trkpt>
      <trkpt lat="49.83148" lon="2.28879">
        <ele>77.4</ele>
        <time>2023-09-13T08:08:13Z</time>
      </trkpt>
      <trkpt lat="49.83148" lon="2.28881">
        <ele>77.3</ele>
        <time>2023-09-13T08:08:14Z</time>
      </trkpt>
      <trkpt lat="49.83147" lon="2.28883">
        <ele>77.2</ele>
        <time>2023-09-13T08:08:15Z</time>
      </trkpt>
      <trkpt lat="49.83147" lon="2.28886">
        <ele>77.1</ele>
        <time>2023-09-13T08:08:17Z</time>
      </trkpt>
      <trkpt lat="49.83147" lon="2.28889">
        <ele>77</ele>
        <time>2023-09-13T08:08:18Z</time>
      </trkpt>
      <trkpt lat="49.83146" lon="2.2889">
        <ele>76.9</ele>
        <time>2023-09-13T08:08:19Z</time>
      </trkpt>
      <trkpt lat="49.83146" lon="2.28891">
        <ele>76.9</ele>
        <time>2023-09-13T08:08:20Z</time>
      </trkpt>
      <trkpt lat="49.83146" lon="2.28892">
        <ele>76.8</ele>
        <time>2023-09-13T08:08:21Z</time>
      </trkpt>
      <trkpt lat="49.83146" lon="2.28894">
        <ele>76.8</ele>
        <time>2023-09-13T08:08:22Z</time>
      </trkpt>
      <trkpt lat="49.83146" lon="2.28896">
        <ele>76.7</ele>
        <time>2023-09-13T08:08:23Z</time>
      </trkpt>
      <trkpt lat="49.83146" lon="2.28898">
        <ele>76.6</ele>
        <time>2023-09-13T08:08:24Z</time>
      </trkpt>
      <trkpt lat="49.83145" lon="2.289">
        <ele>76.5</ele>
        <time>2023-09-13T08:08:25Z</time>
      </trkpt>
      <trkpt lat="49.83145" lon="2.28902">
        <ele>76.5</ele>
        <time>2023-09-13T08:08:27Z</time>
      </trkpt>
      <trkpt lat="49.83145" lon="2.28904">
        <ele>76.4</ele>
        <time>2023-09-13T08:08:28Z</time>
      </trkpt>
      <trkpt lat="49.83145" lon="2.28906">
        <ele>76.3</ele>
        <time>2023-09-13T08:08:29Z</time>
      </trkpt>
      <trkpt lat="49.83144" lon="2.28909">
        <ele>76.2</ele>
        <time>2023-09-13T08:08:30Z</time>
      </trkpt>
      <trkpt lat="49.83144" lon="2.2891">
        <ele>76.1</ele>
        <time>2023-09-13T08:08:31Z</time>
      </trkpt>
      <trkpt lat="49.83144" lon="2.28912">
        <ele>76.1</ele>
        <time>2023-09-13T08:08:32Z</time>
      </trkpt>
      <trkpt lat="49.83144" lon="2.28913">
        <ele>76.1</ele>
        <time>2023-09-13T08:08:33Z</time>
      </trkpt>
      <trkpt lat="49.83144" lon="2.28915">
        <ele>76</ele>
        <time>2023-09-13T08:08:34Z</time>
      </trkpt>
      <trkpt lat="49.83145" lon="2.28917">
        <ele>75.9</ele>
        <time>2023-09-13T08:08:35Z</time>
      </trkpt>
      <trkpt lat="49.83145" lon="2.2892">
        <ele>75.8</ele>
        <time>2023-09-13T08:08:36Z</time>
      </trkpt>
      <trkpt lat="49.83145" lon="2.28921">
        <ele>75.8</ele>
        <time>2023-09-13T08:08:37Z</time>
      </trkpt>
      <trkpt lat="49.83145" lon="2.28923">
        <ele>75.7</ele>
        <time>2023-09-13T08:08:38Z</time>
      </trkpt>
      <trkpt lat="49.83145" lon="2.28924">
        <ele>75.7</ele>
        <time>2023-09-13T08:08:40Z</time>
      </trkpt>
      <trkpt lat="49.83145" lon="2.28926">
        <ele>75.6</ele>
        <time>2023-09-13T08:08:41Z</time>
      </trkpt>
      <trkpt lat="49.83145" lon="2.28928">
        <ele>75.6</ele>
        <time>2023-09-13T08:08:42Z</time>
      </trkpt>
      <trkpt lat="49.83145" lon="2.2893">
        <ele>75.5</ele>
        <time>2023-09-13T08:08:43Z</time>
      </trkpt>
      <trkpt lat="49.83145" lon="2.28931">
        <ele>75.5</ele>
        <time>2023-09-13T08:08:44Z</time>
      </trkpt>
      <trkpt lat="49.83145" lon="2.28933">
        <ele>75.4</ele>
        <time>2023-09-13T08:08:45Z</time>
      </trkpt>
      <trkpt lat="49.83145" lon="2.28935">
        <ele>75.4</ele>
        <time>2023-09-13T08:08:46Z</time>
      </trkpt>
      <trkpt lat="49.83146" lon="2.28936">
        <ele>75.3</ele>
        <time>2023-09-13T08:08:47Z</time>
      </trkpt>
      <trkpt lat="49.83146" lon="2.28938">
        <ele>75.2</ele>
        <time>2023-09-13T08:08:49Z</time>
      </trkpt>
      <trkpt lat="49.83147" lon="2.28941">
        <ele>75.1</ele>
        <time>2023-09-13T08:08:50Z</time>
      </trkpt>
      <trkpt lat="49.83147" lon="2.28943">
        <ele>75.1</ele>
        <time>2023-09-13T08:08:51Z</time>
      </trkpt>
      <trkpt lat="49.83148" lon="2.28944">
        <ele>75</ele>
        <time>2023-09-13T08:08:52Z</time>
      </trkpt>
      <trkpt lat="49.83148" lon="2.28946">
        <ele>75</ele>
        <time>2023-09-13T08:08:53Z</time>
      </trkpt>
      <trkpt lat="49.83149" lon="2.28948">
        <ele>74.9</ele>
        <time>2023-09-13T08:08:54Z</time>
      </trkpt>
      <trkpt lat="49.83149" lon="2.2895">
        <ele>74.8</ele>
        <time>2023-09-13T08:08:56Z</time>
      </trkpt>
      <trkpt lat="49.8315" lon="2.28953">
        <ele>74.8</ele>
        <time>2023-09-13T08:08:57Z</time>
      </trkpt>
      <trkpt lat="49.8315" lon="2.28956">
        <ele>74.7</ele>
        <time>2023-09-13T08:08:58Z</time>
      </trkpt>
      <trkpt lat="49.8315" lon="2.28957">
        <ele>74.6</ele>
        <time>2023-09-13T08:08:59Z</time>
      </trkpt>
      <trkpt lat="49.8315" lon="2.28959">
        <ele>74.6</ele>
        <time>2023-09-13T08:09:00Z</time>
      </trkpt>
      <trkpt lat="49.83151" lon="2.28962">
        <ele>74.5</ele>
        <time>2023-09-13T08:09:01Z</time>
      </trkpt>
      <trkpt lat="49.83151" lon="2.28963">
        <ele>74.5</ele>
        <time>2023-09-13T08:09:02Z</time>
      </trkpt>
      <trkpt lat="49.83151" lon="2.28964">
        <ele>74.4</ele>
        <time>2023-09-13T08:09:03Z</time>
      </trkpt>
      <trkpt lat="49.83152" lon="2.28967">
        <ele>74.4</ele>
        <time>2023-09-13T08:09:05Z</time>
      </trkpt>
      <trkpt lat="49.83152" lon="2.28969">
        <ele>74.3</ele>
        <time>2023-09-13T08:09:06Z</time>
      </trkpt>
      <trkpt lat="49.83152" lon="2.2897">
        <ele>74.3</ele>
        <time>2023-09-13T08:09:07Z</time>
      </trkpt>
      <trkpt lat="49.83153" lon="2.28973">
        <ele>74.2</ele>
        <time>2023-09-13T08:09:08Z</time>
      </trkpt>
      <trkpt lat="49.83154" lon="2.28974">
        <ele>74.2</ele>
        <time>2023-09-13T08:09:09Z</time>
      </trkpt>
      <trkpt lat="49.83154" lon="2.28975">
        <ele>74.1</ele>
        <time>2023-09-13T08:09:10Z</time>
      </trkpt>
      <trkpt lat="49.83155" lon="2.28978">
        <ele>74.1</ele>
        <time>2023-09-13T08:09:11Z</time>
      </trkpt>
      <trkpt lat="49.83156" lon="2.28979">
        <ele>74</ele>
        <time>2023-09-13T08:09:12Z</time>
      </trkpt>
      <trkpt lat="49.83156" lon="2.2898">
        <ele>74</ele>
        <time>2023-09-13T08:09:13Z</time>
      </trkpt>
      <trkpt lat="49.83157" lon="2.28982">
        <ele>74</ele>
        <time>2023-09-13T08:09:14Z</time>
      </trkpt>
      <trkpt lat="49.83158" lon="2.28984">
        <ele>73.9</ele>
        <time>2023-09-13T08:09:15Z</time>
      </trkpt>
      <trkpt lat="49.83158" lon="2.28986">
        <ele>73.9</ele>
        <time>2023-09-13T08:09:17Z</time>
      </trkpt>
      <trkpt lat="49.83159" lon="2.28988">
        <ele>73.8</ele>
        <time>2023-09-13T08:09:18Z</time>
      </trkpt>
      <trkpt lat="49.8316" lon="2.28989">
        <ele>73.8</ele>
        <time>2023-09-13T08:09:19Z</time>
      </trkpt>
      <trkpt lat="49.8316" lon="2.28991">
        <ele>73.8</ele>
        <time>2023-09-13T08:09:20Z</time>
      </trkpt>
      <trkpt lat="49.83161" lon="2.28993">
        <ele>73.7</ele>
        <time>2023-09-13T08:09:21Z</time>
      </trkpt>
      <trkpt lat="49.83162" lon="2.28995">
        <ele>73.7</ele>
        <time>2023-09-13T08:09:22Z</time>
      </trkpt>
      <trkpt lat="49.83162" lon="2.28996">
        <ele>73.7</ele>
        <time>2023-09-13T08:09:23Z</time>
      </trkpt>
      <trkpt lat="49.83163" lon="2.28998">
        <ele>73.7</ele>
        <time>2023-09-13T08:09:25Z</time>
      </trkpt>
      <trkpt lat="49.83164" lon="2.29">
        <ele>73.6</ele>
        <time>2023-09-13T08:09:26Z</time>
      </trkpt>
      <trkpt lat="49.83164" lon="2.29002">
        <ele>73.6</ele>
        <time>2023-09-13T08:09:27Z</time>
      </trkpt>
      <trkpt lat="49.83165" lon="2.29004">
        <ele>73.6</ele>
        <time>2023-09-13T08:09:28Z</time>
      </trkpt>
      <trkpt lat="49.83166" lon="2.29006">
        <ele>73.5</ele>
        <time>2023-09-13T08:09:29Z</time>
      </trkpt>
      <trkpt lat="49.83167" lon="2.29009">
        <ele>73.5</ele>
        <time>2023-09-13T08:09:31Z</time>
      </trkpt>
      <trkpt lat="49.83167" lon="2.29011">
        <ele>73.5</ele>
        <time>2023-09-13T08:09:32Z</time>
      </trkpt>
      <trkpt lat="49.83168" lon="2.29013">
        <ele>73.5</ele>
        <time>2023-09-13T08:09:33Z</time>
      </trkpt>
      <trkpt lat="49.83169" lon="2.29016">
        <ele>73.4</ele>
        <time>2023-09-13T08:09:34Z</time>
      </trkpt>
      <trkpt lat="49.83169" lon="2.29017">
        <ele>73.4</ele>
        <time>2023-09-13T08:09:35Z</time>
      </trkpt>
      <trkpt lat="49.8317" lon="2.29018">
        <ele>73.4</ele>
        <time>2023-09-13T08:09:36Z</time>
      </trkpt>
      <trkpt lat="49.8317" lon="2.2902">
        <ele>73.4</ele>
        <time>2023-09-13T08:09:37Z</time>
      </trkpt>
      <trkpt lat="49.83171" lon="2.29022">
        <ele>73.4</ele>
        <time>2023-09-13T08:09:38Z</time>
      </trkpt>
      <trkpt lat="49.83171" lon="2.29024">
        <ele>73.4</ele>
        <time>2023-09-13T08:09:39Z</time>
      </trkpt>
      <trkpt lat="49.83172" lon="2.29027">
        <ele>73.4</ele>
        <time>2023-09-13T08:09:41Z</time>
      </trkpt>
      <trkpt lat="49.83172" lon="2.29028">
        <ele>73.4</ele>
        <time>2023-09-13T08:09:42Z</time>
      </trkpt>
      <trkpt lat="49.83172" lon="2.29029">
        <ele>73.3</ele>
        <time>2023-09-13T08:09:43Z</time>
      </trkpt>
      <trkpt lat="49.83173" lon="2.29031">
        <ele>73.3</ele>
        <time>2023-09-13T08:09:44Z</time>
      </trkpt>
      <trkpt lat="49.83174" lon="2.29033">
        <ele>73.3</ele>
        <time>2023-09-13T08:09:45Z</time>
      </trkpt>
      <trkpt lat="49.83174" lon="2.29035">
        <ele>73.3</ele>
        <time>2023-09-13T08:09:46Z</time>
      </trkpt>
      <trkpt lat="49.83175" lon="2.29037">
        <ele>73.3</ele>
        <time>2023-09-13T08:09:48Z</time>
      </trkpt>
      <trkpt lat="49.83176" lon="2.29039">
        <ele>73.3</ele>
        <time>2023-09-13T08:09:49Z</time>
      </trkpt>
      <trkpt lat="49.83176" lon="2.29041">
        <ele>73.3</ele>
        <time>2023-09-13T08:09:50Z</time>
      </trkpt>
      <trkpt lat="49.83177" lon="2.29043">
        <ele>73.3</ele>
        <time>2023-09-13T08:09:51Z</time>
      </trkpt>
      <trkpt lat="49.83177" lon="2.29044">
        <ele>73.3</ele>
        <time>2023-09-13T08:09:52Z</time>
      </trkpt>
      <trkpt lat="49.83178" lon="2.29046">
        <ele>73.3</ele>
        <time>2023-09-13T08:09:53Z</time>
      </trkpt>
      <trkpt lat="49.83178" lon="2.29049">
        <ele>73.3</ele>
        <time>2023-09-13T08:09:55Z</time>
      </trkpt>
      <trkpt lat="49.83179" lon="2.29051">
        <ele>73.3</ele>
        <time>2023-09-13T08:09:56Z</time>
      </trkpt>
      <trkpt lat="49.83179" lon="2.29052">
        <ele>73.3</ele>
        <time>2023-09-13T08:09:57Z</time>
      </trkpt>
      <trkpt lat="49.8318" lon="2.29054">
        <ele>73.3</ele>
        <time>2023-09-13T08:09:58Z</time>
      </trkpt>
      <trkpt lat="49.83181" lon="2.29056">
        <ele>73.3</ele>
        <time>2023-09-13T08:09:59Z</time>
      </trkpt>
      <trkpt lat="49.83181" lon="2.29057">
        <ele>73.3</ele>
        <time>2023-09-13T08:10:00Z</time>
      </trkpt>
      <trkpt lat="49.83182" lon="2.29059">
        <ele>73.3</ele>
        <time>2023-09-13T08:10:01Z</time>
      </trkpt>
      <trkpt lat="49.83183" lon="2.29061">
        <ele>73.3</ele>
        <time>2023-09-13T08:10:03Z</time>
      </trkpt>
      <trkpt lat="49.83184" lon="2.29064">
        <ele>73.3</ele>
        <time>2023-09-13T08:10:04Z</time>
      </trkpt>
      <trkpt lat="49.83184" lon="2.29065">
        <ele>73.3</ele>
        <time>2023-09-13T08:10:05Z</time>
      </trkpt>
      <trkpt lat="49.83185" lon="2.29066">
        <ele>73.3</ele>
        <time>2023-09-13T08:10:06Z</time>
      </trkpt>
      <trkpt lat="49.83185" lon="2.29068">
        <ele>73.3</ele>
        <time>2023-09-13T08:10:07Z</time>
      </trkpt>
      <trkpt lat="49.83186" lon="2.2907">
        <ele>73.3</ele>
        <time>2023-09-13T08:10:08Z</time>
      </trkpt>
      <trkpt lat="49.83186" lon="2.29073">
        <ele>73.3</ele>
        <time>2023-09-13T08:10:09Z</time>
      </trkpt>
      <trkpt lat="49.83186" lon="2.29075">
        <ele>73.3</ele>
        <time>2023-09-13T08:10:10Z</time>
      </trkpt>
      <trkpt lat="49.83186" lon="2.29076">
        <ele>73.2</ele>
        <time>2023-09-13T08:10:11Z</time>
      </trkpt>
      <trkpt lat="49.83188" lon="2.29079">
        <ele>73.2</ele>
        <time>2023-09-13T08:10:12Z</time>
      </trkpt>
      <trkpt lat="49.83188" lon="2.2908">
        <ele>73.2</ele>
        <time>2023-09-13T08:10:14Z</time>
      </trkpt>
      <trkpt lat="49.83189" lon="2.29082">
        <ele>73.2</ele>
        <time>2023-09-13T08:10:15Z</time>
      </trkpt>
      <trkpt lat="49.8319" lon="2.29083">
        <ele>73.2</ele>
        <time>2023-09-13T08:10:16Z</time>
      </trkpt>
      <trkpt lat="49.8319" lon="2.29085">
        <ele>73.2</ele>
        <time>2023-09-13T08:10:17Z</time>
      </trkpt>
      <trkpt lat="49.83191" lon="2.29087">
        <ele>73.2</ele>
        <time>2023-09-13T08:10:18Z</time>
      </trkpt>
      <trkpt lat="49.83192" lon="2.29089">
        <ele>73.2</ele>
        <time>2023-09-13T08:10:19Z</time>
      </trkpt>
      <trkpt lat="49.83193" lon="2.29092">
        <ele>73.2</ele>
        <time>2023-09-13T08:10:21Z</time>
      </trkpt>
      <trkpt lat="49.83194" lon="2.29093">
        <ele>73.2</ele>
        <time>2023-09-13T08:10:22Z</time>
      </trkpt>
      <trkpt lat="49.83195" lon="2.29097">
        <ele>73.2</ele>
        <time>2023-09-13T08:10:23Z</time>
      </trkpt>
      <trkpt lat="49.83195" lon="2.29098">
        <ele>73.2</ele>
        <time>2023-09-13T08:10:25Z</time>
      </trkpt>
      <trkpt lat="49.83196" lon="2.29099">
        <ele>73.2</ele>
        <time>2023-09-13T08:10:26Z</time>
      </trkpt>
      <trkpt lat="49.83196" lon="2.29101">
        <ele>73.2</ele>
        <time>2023-09-13T08:10:27Z</time>
      </trkpt>
      <trkpt lat="49.83197" lon="2.29102">
        <ele>73.2</ele>
        <time>2023-09-13T08:10:28Z</time>
      </trkpt>
      <trkpt lat="49.83197" lon="2.29104">
        <ele>73.2</ele>
        <time>2023-09-13T08:10:29Z</time>
      </trkpt>
      <trkpt lat="49.83198" lon="2.29106">
        <ele>73.2</ele>
        <time>2023-09-13T08:10:31Z</time>
      </trkpt>
      <trkpt lat="49.83198" lon="2.29107">
        <ele>73.2</ele>
        <time>2023-09-13T08:10:32Z</time>
      </trkpt>
      <trkpt lat="49.83199" lon="2.2911">
        <ele>73.2</ele>
        <time>2023-09-13T08:10:33Z</time>
      </trkpt>
      <trkpt lat="49.832" lon="2.29111">
        <ele>73.2</ele>
        <time>2023-09-13T08:10:34Z</time>
      </trkpt>
      <trkpt lat="49.832" lon="2.29113">
        <ele>73.2</ele>
        <time>2023-09-13T08:10:35Z</time>
      </trkpt>
      <trkpt lat="49.83201" lon="2.29116">
        <ele>73.2</ele>
        <time>2023-09-13T08:10:36Z</time>
      </trkpt>
      <trkpt lat="49.83201" lon="2.29117">
        <ele>73.2</ele>
        <time>2023-09-13T08:10:37Z</time>
      </trkpt>
      <trkpt lat="49.83202" lon="2.29118">
        <ele>73.2</ele>
        <time>2023-09-13T08:10:38Z</time>
      </trkpt>
      <trkpt lat="49.83203" lon="2.2912">
        <ele>73.2</ele>
        <time>2023-09-13T08:10:39Z</time>
      </trkpt>
      <trkpt lat="49.83204" lon="2.29122">
        <ele>73.2</ele>
        <time>2023-09-13T08:10:40Z</time>
      </trkpt>
      <trkpt lat="49.83204" lon="2.29123">
        <ele>73.2</ele>
        <time>2023-09-13T08:10:41Z</time>
      </trkpt>
      <trkpt lat="49.83205" lon="2.29124">
        <ele>73.2</ele>
        <time>2023-09-13T08:10:42Z</time>
      </trkpt>
      <trkpt lat="49.83206" lon="2.29126">
        <ele>73.2</ele>
        <time>2023-09-13T08:10:43Z</time>
      </trkpt>
      <trkpt lat="49.83206" lon="2.29127">
        <ele>73.2</ele>
        <time>2023-09-13T08:10:44Z</time>
      </trkpt>
      <trkpt lat="49.83207" lon="2.2913">
        <ele>73.2</ele>
        <time>2023-09-13T08:10:46Z</time>
      </trkpt>
      <trkpt lat="49.83207" lon="2.29132">
        <ele>73.2</ele>
        <time>2023-09-13T08:10:47Z</time>
      </trkpt>
      <trkpt lat="49.83208" lon="2.29133">
        <ele>73.2</ele>
        <time>2023-09-13T08:10:48Z</time>
      </trkpt>
      <trkpt lat="49.83208" lon="2.29135">
        <ele>73.2</ele>
        <time>2023-09-13T08:10:49Z</time>
      </trkpt>
      <trkpt lat="49.83209" lon="2.29137">
        <ele>73.2</ele>
        <time>2023-09-13T08:10:50Z</time>
      </trkpt>
      <trkpt lat="49.8321" lon="2.29139">
        <ele>73.2</ele>
        <time>2023-09-13T08:10:51Z</time>
      </trkpt>
      <trkpt lat="49.8321" lon="2.29141">
        <ele>73.2</ele>
        <time>2023-09-13T08:10:52Z</time>
      </trkpt>
      <trkpt lat="49.83211" lon="2.29143">
        <ele>73.2</ele>
        <time>2023-09-13T08:10:53Z</time>
      </trkpt>
      <trkpt lat="49.83212" lon="2.29145">
        <ele>73.2</ele>
        <time>2023-09-13T08:10:55Z</time>
      </trkpt>
      <trkpt lat="49.83212" lon="2.29147">
        <ele>73.2</ele>
        <time>2023-09-13T08:10:56Z</time>
      </trkpt>
      <trkpt lat="49.83213" lon="2.29149">
        <ele>73.2</ele>
        <time>2023-09-13T08:10:57Z</time>
      </trkpt>
      <trkpt lat="49.83214" lon="2.2915">
        <ele>73.1</ele>
        <time>2023-09-13T08:10:58Z</time>
      </trkpt>
      <trkpt lat="49.83214" lon="2.29152">
        <ele>73.1</ele>
        <time>2023-09-13T08:10:59Z</time>
      </trkpt>
      <trkpt lat="49.83214" lon="2.29154">
        <ele>73.1</ele>
        <time>2023-09-13T08:11:00Z</time>
      </trkpt>
      <trkpt lat="49.83215" lon="2.29156">
        <ele>73.1</ele>
        <time>2023-09-13T08:11:01Z</time>
      </trkpt>
      <trkpt lat="49.83215" lon="2.29158">
        <ele>73.1</ele>
        <time>2023-09-13T08:11:02Z</time>
      </trkpt>
      <trkpt lat="49.83216" lon="2.29159">
        <ele>73.1</ele>
        <time>2023-09-13T08:11:03Z</time>
      </trkpt>
      <trkpt lat="49.83216" lon="2.29161">
        <ele>73.1</ele>
        <time>2023-09-13T08:11:04Z</time>
      </trkpt>
      <trkpt lat="49.83217" lon="2.29164">
        <ele>73.1</ele>
        <time>2023-09-13T08:11:06Z</time>
      </trkpt>
      <trkpt lat="49.83217" lon="2.29166">
        <ele>73</ele>
        <time>2023-09-13T08:11:07Z</time>
      </trkpt>
      <trkpt lat="49.83218" lon="2.29168">
        <ele>73</ele>
        <time>2023-09-13T08:11:08Z</time>
      </trkpt>
      <trkpt lat="49.83219" lon="2.2917">
        <ele>73</ele>
        <time>2023-09-13T08:11:09Z</time>
      </trkpt>
      <trkpt lat="49.83219" lon="2.29172">
        <ele>73</ele>
        <time>2023-09-13T08:11:10Z</time>
      </trkpt>
      <trkpt lat="49.8322" lon="2.29175">
        <ele>72.9</ele>
        <time>2023-09-13T08:11:12Z</time>
      </trkpt>
      <trkpt lat="49.8322" lon="2.29176">
        <ele>72.9</ele>
        <time>2023-09-13T08:11:13Z</time>
      </trkpt>
      <trkpt lat="49.83221" lon="2.29178">
        <ele>72.9</ele>
        <time>2023-09-13T08:11:14Z</time>
      </trkpt>
      <trkpt lat="49.83221" lon="2.29179">
        <ele>72.9</ele>
        <time>2023-09-13T08:11:15Z</time>
      </trkpt>
      <trkpt lat="49.83222" lon="2.29181">
        <ele>72.9</ele>
        <time>2023-09-13T08:11:16Z</time>
      </trkpt>
      <trkpt lat="49.83222" lon="2.29183">
        <ele>72.8</ele>
        <time>2023-09-13T08:11:17Z</time>
      </trkpt>
      <trkpt lat="49.83223" lon="2.29184">
        <ele>72.8</ele>
        <time>2023-09-13T08:11:18Z</time>
      </trkpt>
      <trkpt lat="49.83223" lon="2.29187">
        <ele>72.8</ele>
        <time>2023-09-13T08:11:20Z</time>
      </trkpt>
      <trkpt lat="49.83224" lon="2.29189">
        <ele>72.7</ele>
        <time>2023-09-13T08:11:21Z</time>
      </trkpt>
      <trkpt lat="49.83224" lon="2.29191">
        <ele>72.7</ele>
        <time>2023-09-13T08:11:22Z</time>
      </trkpt>
      <trkpt lat="49.83225" lon="2.29193">
        <ele>72.7</ele>
        <time>2023-09-13T08:11:23Z</time>
      </trkpt>
      <trkpt lat="49.83226" lon="2.29195">
        <ele>72.6</ele>
        <time>2023-09-13T08:11:24Z</time>
      </trkpt>
      <trkpt lat="49.83227" lon="2.29197">
        <ele>72.6</ele>
        <time>2023-09-13T08:11:25Z</time>
      </trkpt>
      <trkpt lat="49.83228" lon="2.29199">
        <ele>72.6</ele>
        <time>2023-09-13T08:11:26Z</time>
      </trkpt>
      <trkpt lat="49.83228" lon="2.29201">
        <ele>72.6</ele>
        <time>2023-09-13T08:11:27Z</time>
      </trkpt>
      <trkpt lat="49.83229" lon="2.29203">
        <ele>72.5</ele>
        <time>2023-09-13T08:11:29Z</time>
      </trkpt>
      <trkpt lat="49.8323" lon="2.29205">
        <ele>72.5</ele>
        <time>2023-09-13T08:11:30Z</time>
      </trkpt>
      <trkpt lat="49.8323" lon="2.29206">
        <ele>72.5</ele>
        <time>2023-09-13T08:11:31Z</time>
      </trkpt>
      <trkpt lat="49.83231" lon="2.29209">
        <ele>72.4</ele>
        <time>2023-09-13T08:11:32Z</time>
      </trkpt>
      <trkpt lat="49.83232" lon="2.2921">
        <ele>72.4</ele>
        <time>2023-09-13T08:11:33Z</time>
      </trkpt>
      <trkpt lat="49.83232" lon="2.29212">
        <ele>72.4</ele>
        <time>2023-09-13T08:11:34Z</time>
      </trkpt>
      <trkpt lat="49.83233" lon="2.29215">
        <ele>72.4</ele>
        <time>2023-09-13T08:11:36Z</time>
      </trkpt>
      <trkpt lat="49.83234" lon="2.29216">
        <ele>72.3</ele>
        <time>2023-09-13T08:11:37Z</time>
      </trkpt>
      <trkpt lat="49.83234" lon="2.29217">
        <ele>72.3</ele>
        <time>2023-09-13T08:11:38Z</time>
      </trkpt>
      <trkpt lat="49.83235" lon="2.2922">
        <ele>72.3</ele>
        <time>2023-09-13T08:11:39Z</time>
      </trkpt>
      <trkpt lat="49.83235" lon="2.29221">
        <ele>72.3</ele>
        <time>2023-09-13T08:11:40Z</time>
      </trkpt>
      <trkpt lat="49.83236" lon="2.29223">
        <ele>72.2</ele>
        <time>2023-09-13T08:11:41Z</time>
      </trkpt>
      <trkpt lat="49.83237" lon="2.29225">
        <ele>72.2</ele>
        <time>2023-09-13T08:11:42Z</time>
      </trkpt>
      <trkpt lat="49.83237" lon="2.29227">
        <ele>72.2</ele>
        <time>2023-09-13T08:11:43Z</time>
      </trkpt>
      <trkpt lat="49.83239" lon="2.2923">
        <ele>72.1</ele>
        <time>2023-09-13T08:11:44Z</time>
      </trkpt>
      <trkpt lat="49.83239" lon="2.29231">
        <ele>72.1</ele>
        <time>2023-09-13T08:11:46Z</time>
      </trkpt>
      <trkpt lat="49.8324" lon="2.29232">
        <ele>72.1</ele>
        <time>2023-09-13T08:11:47Z</time>
      </trkpt>
      <trkpt lat="49.8324" lon="2.29234">
        <ele>72</ele>
        <time>2023-09-13T08:11:48Z</time>
      </trkpt>
      <trkpt lat="49.83241" lon="2.29235">
        <ele>72</ele>
        <time>2023-09-13T08:11:49Z</time>
      </trkpt>
      <trkpt lat="49.83241" lon="2.29237">
        <ele>72</ele>
        <time>2023-09-13T08:11:50Z</time>
      </trkpt>
      <trkpt lat="49.83242" lon="2.29239">
        <ele>71.9</ele>
        <time>2023-09-13T08:11:51Z</time>
      </trkpt>
      <trkpt lat="49.83243" lon="2.2924">
        <ele>71.9</ele>
        <time>2023-09-13T08:11:52Z</time>
      </trkpt>
      <trkpt lat="49.83243" lon="2.29242">
        <ele>71.8</ele>
        <time>2023-09-13T08:11:54Z</time>
      </trkpt>
      <trkpt lat="49.83244" lon="2.29243">
        <ele>71.8</ele>
        <time>2023-09-13T08:11:55Z</time>
      </trkpt>
      <trkpt lat="49.83244" lon="2.29245">
        <ele>71.8</ele>
        <time>2023-09-13T08:11:56Z</time>
      </trkpt>
      <trkpt lat="49.83244" lon="2.29244">
        <ele>71.8</ele>
        <time>2023-09-13T08:11:57Z</time>
      </trkpt>
      <trkpt lat="49.83244" lon="2.29244">
        <ele>71.7</ele>
        <time>2023-09-13T08:11:58Z</time>
      </trkpt>
      <trkpt lat="49.83244" lon="2.29245">
        <ele>71.7</ele>
        <time>2023-09-13T08:11:59Z</time>
      </trkpt>
      <trkpt lat="49.83244" lon="2.29246">
        <ele>71.7</ele>
        <time>2023-09-13T08:12:00Z</time>
      </trkpt>
      <trkpt lat="49.83244" lon="2.29247">
        <ele>71.7</ele>
        <time>2023-09-13T08:12:02Z</time>
      </trkpt>
      <trkpt lat="49.83245" lon="2.2925">
        <ele>71.6</ele>
        <time>2023-09-13T08:12:03Z</time>
      </trkpt>
      <trkpt lat="49.83245" lon="2.29251">
        <ele>71.6</ele>
        <time>2023-09-13T08:12:04Z</time>
      </trkpt>
      <trkpt lat="49.83245" lon="2.29252">
        <ele>71.6</ele>
        <time>2023-09-13T08:12:05Z</time>
      </trkpt>
      <trkpt lat="49.83246" lon="2.29252">
        <ele>71.6</ele>
        <time>2023-09-13T08:12:06Z</time>
      </trkpt>
      <trkpt lat="49.83246" lon="2.29253">
        <ele>71.5</ele>
        <time>2023-09-13T08:12:07Z</time>
      </trkpt>
      <trkpt lat="49.83247" lon="2.29258">
        <ele>71.4</ele>
        <time>2023-09-13T08:12:09Z</time>
      </trkpt>
      <trkpt lat="49.83248" lon="2.29259">
        <ele>71.4</ele>
        <time>2023-09-13T08:12:10Z</time>
      </trkpt>
      <trkpt lat="49.83249" lon="2.29262">
        <ele>71.3</ele>
        <time>2023-09-13T08:12:11Z</time>
      </trkpt>
      <trkpt lat="49.83249" lon="2.29263">
        <ele>71.3</ele>
        <time>2023-09-13T08:12:12Z</time>
      </trkpt>
      <trkpt lat="49.8325" lon="2.29264">
        <ele>71.3</ele>
        <time>2023-09-13T08:12:13Z</time>
      </trkpt>
      <trkpt lat="49.83251" lon="2.29269">
        <ele>71.2</ele>
        <time>2023-09-13T08:12:14Z</time>
      </trkpt>
      <trkpt lat="49.83252" lon="2.2927">
        <ele>71.2</ele>
        <time>2023-09-13T08:12:15Z</time>
      </trkpt>
      <trkpt lat="49.83253" lon="2.29273">
        <ele>71.1</ele>
        <time>2023-09-13T08:12:16Z</time>
      </trkpt>
      <trkpt lat="49.83255" lon="2.29276">
        <ele>71.1</ele>
        <time>2023-09-13T08:12:18Z</time>
      </trkpt>
      <trkpt lat="49.83257" lon="2.2928">
        <ele>71</ele>
        <time>2023-09-13T08:12:19Z</time>
      </trkpt>
      <trkpt lat="49.83257" lon="2.29281">
        <ele>71</ele>
        <time>2023-09-13T08:12:20Z</time>
      </trkpt>
      <trkpt lat="49.83257" lon="2.29283">
        <ele>70.9</ele>
        <time>2023-09-13T08:12:21Z</time>
      </trkpt>
      <trkpt lat="49.83258" lon="2.29285">
        <ele>70.9</ele>
        <time>2023-09-13T08:12:22Z</time>
      </trkpt>
      <trkpt lat="49.83259" lon="2.29287">
        <ele>70.9</ele>
        <time>2023-09-13T08:12:23Z</time>
      </trkpt>
      <trkpt lat="49.83259" lon="2.29289">
        <ele>70.8</ele>
        <time>2023-09-13T08:12:24Z</time>
      </trkpt>
      <trkpt lat="49.8326" lon="2.29292">
        <ele>70.8</ele>
        <time>2023-09-13T08:12:26Z</time>
      </trkpt>
      <trkpt lat="49.83261" lon="2.29294">
        <ele>70.7</ele>
        <time>2023-09-13T08:12:27Z</time>
      </trkpt>
      <trkpt lat="49.83261" lon="2.29296">
        <ele>70.7</ele>
        <time>2023-09-13T08:12:28Z</time>
      </trkpt>
      <trkpt lat="49.83262" lon="2.29299">
        <ele>70.6</ele>
        <time>2023-09-13T08:12:29Z</time>
      </trkpt>
      <trkpt lat="49.83263" lon="2.29301">
        <ele>70.6</ele>
        <time>2023-09-13T08:12:30Z</time>
      </trkpt>
      <trkpt lat="49.83264" lon="2.29303">
        <ele>70.5</ele>
        <time>2023-09-13T08:12:31Z</time>
      </trkpt>
      <trkpt lat="49.83264" lon="2.29305">
        <ele>70.5</ele>
        <time>2023-09-13T08:12:32Z</time>
      </trkpt>
      <trkpt lat="49.83265" lon="2.29307">
        <ele>70.4</ele>
        <time>2023-09-13T08:12:33Z</time>
      </trkpt>
      <trkpt lat="49.83266" lon="2.2931">
        <ele>70.4</ele>
        <time>2023-09-13T08:12:34Z</time>
      </trkpt>
      <trkpt lat="49.83266" lon="2.29311">
        <ele>70.3</ele>
        <time>2023-09-13T08:12:35Z</time>
      </trkpt>
      <trkpt lat="49.83267" lon="2.29312">
        <ele>70.3</ele>
        <time>2023-09-13T08:12:37Z</time>
      </trkpt>
      <trkpt lat="49.83267" lon="2.29314">
        <ele>70.3</ele>
        <time>2023-09-13T08:12:38Z</time>
      </trkpt>
      <trkpt lat="49.83268" lon="2.29315">
        <ele>70.2</ele>
        <time>2023-09-13T08:12:39Z</time>
      </trkpt>
      <trkpt lat="49.83268" lon="2.29316">
        <ele>70.2</ele>
        <time>2023-09-13T08:12:40Z</time>
      </trkpt>
      <trkpt lat="49.83269" lon="2.29318">
        <ele>70.1</ele>
        <time>2023-09-13T08:12:41Z</time>
      </trkpt>
      <trkpt lat="49.8327" lon="2.2932">
        <ele>70.1</ele>
        <time>2023-09-13T08:12:42Z</time>
      </trkpt>
      <trkpt lat="49.83271" lon="2.29322">
        <ele>70</ele>
        <time>2023-09-13T08:12:43Z</time>
      </trkpt>
      <trkpt lat="49.83272" lon="2.29323">
        <ele>69.9</ele>
        <time>2023-09-13T08:12:44Z</time>
      </trkpt>
      <trkpt lat="49.83273" lon="2.29325">
        <ele>69.9</ele>
        <time>2023-09-13T08:12:46Z</time>
      </trkpt>
      <trkpt lat="49.83274" lon="2.29327">
        <ele>69.8</ele>
        <time>2023-09-13T08:12:47Z</time>
      </trkpt>
      <trkpt lat="49.83275" lon="2.29328">
        <ele>69.8</ele>
        <time>2023-09-13T08:12:48Z</time>
      </trkpt>
      <trkpt lat="49.83276" lon="2.2933">
        <ele>69.7</ele>
        <time>2023-09-13T08:12:49Z</time>
      </trkpt>
      <trkpt lat="49.83278" lon="2.29332">
        <ele>69.6</ele>
        <time>2023-09-13T08:12:50Z</time>
      </trkpt>
      <trkpt lat="49.83278" lon="2.29333">
        <ele>69.6</ele>
        <time>2023-09-13T08:12:51Z</time>
      </trkpt>
      <trkpt lat="49.83279" lon="2.29334">
        <ele>69.5</ele>
        <time>2023-09-13T08:12:52Z</time>
      </trkpt>
      <trkpt lat="49.8328" lon="2.29335">
        <ele>69.5</ele>
        <time>2023-09-13T08:12:53Z</time>
      </trkpt>
      <trkpt lat="49.83281" lon="2.29337">
        <ele>69.4</ele>
        <time>2023-09-13T08:12:54Z</time>
      </trkpt>
      <trkpt lat="49.83282" lon="2.29339">
        <ele>69.3</ele>
        <time>2023-09-13T08:12:56Z</time>
      </trkpt>
      <trkpt lat="49.83283" lon="2.29341">
        <ele>69.2</ele>
        <time>2023-09-13T08:12:57Z</time>
      </trkpt>
      <trkpt lat="49.83284" lon="2.29342">
        <ele>69.2</ele>
        <time>2023-09-13T08:12:58Z</time>
      </trkpt>
      <trkpt lat="49.83284" lon="2.29343">
        <ele>69.2</ele>
        <time>2023-09-13T08:12:59Z</time>
      </trkpt>
      <trkpt lat="49.83285" lon="2.29345">
        <ele>69.1</ele>
        <time>2023-09-13T08:13:00Z</time>
      </trkpt>
      <trkpt lat="49.83286" lon="2.29347">
        <ele>69</ele>
        <time>2023-09-13T08:13:01Z</time>
      </trkpt>
      <trkpt lat="49.83287" lon="2.29349">
        <ele>69</ele>
        <time>2023-09-13T08:13:02Z</time>
      </trkpt>
      <trkpt lat="49.83288" lon="2.29351">
        <ele>68.9</ele>
        <time>2023-09-13T08:13:03Z</time>
      </trkpt>
      <trkpt lat="49.83289" lon="2.29353">
        <ele>68.8</ele>
        <time>2023-09-13T08:13:05Z</time>
      </trkpt>
      <trkpt lat="49.8329" lon="2.29354">
        <ele>68.8</ele>
        <time>2023-09-13T08:13:06Z</time>
      </trkpt>
      <trkpt lat="49.8329" lon="2.29355">
        <ele>68.7</ele>
        <time>2023-09-13T08:13:07Z</time>
      </trkpt>
      <trkpt lat="49.83291" lon="2.29357">
        <ele>68.7</ele>
        <time>2023-09-13T08:13:08Z</time>
      </trkpt>
      <trkpt lat="49.83292" lon="2.29359">
        <ele>68.6</ele>
        <time>2023-09-13T08:13:09Z</time>
      </trkpt>
      <trkpt lat="49.83293" lon="2.29361">
        <ele>68.5</ele>
        <time>2023-09-13T08:13:10Z</time>
      </trkpt>
      <trkpt lat="49.83293" lon="2.29363">
        <ele>68.5</ele>
        <time>2023-09-13T08:13:11Z</time>
      </trkpt>
      <trkpt lat="49.83293" lon="2.29364">
        <ele>68.4</ele>
        <time>2023-09-13T08:13:12Z</time>
      </trkpt>
      <trkpt lat="49.83294" lon="2.29366">
        <ele>68.4</ele>
        <time>2023-09-13T08:13:14Z</time>
      </trkpt>
      <trkpt lat="49.83295" lon="2.29368">
        <ele>68.3</ele>
        <time>2023-09-13T08:13:15Z</time>
      </trkpt>
      <trkpt lat="49.83296" lon="2.29371">
        <ele>68.2</ele>
        <time>2023-09-13T08:13:16Z</time>
      </trkpt>
      <trkpt lat="49.83296" lon="2.29372">
        <ele>68.2</ele>
        <time>2023-09-13T08:13:17Z</time>
      </trkpt>
      <trkpt lat="49.83297" lon="2.29373">
        <ele>68.1</ele>
        <time>2023-09-13T08:13:18Z</time>
      </trkpt>
      <trkpt lat="49.83297" lon="2.29374">
        <ele>68.1</ele>
        <time>2023-09-13T08:13:19Z</time>
      </trkpt>
      <trkpt lat="49.83298" lon="2.29376">
        <ele>68.1</ele>
        <time>2023-09-13T08:13:20Z</time>
      </trkpt>
      <trkpt lat="49.83298" lon="2.29377">
        <ele>68</ele>
        <time>2023-09-13T08:13:21Z</time>
      </trkpt>
      <trkpt lat="49.83299" lon="2.29379">
        <ele>68</ele>
        <time>2023-09-13T08:13:22Z</time>
      </trkpt>
      <trkpt lat="49.83299" lon="2.29381">
        <ele>67.9</ele>
        <time>2023-09-13T08:13:24Z</time>
      </trkpt>
      <trkpt lat="49.833" lon="2.29382">
        <ele>67.9</ele>
        <time>2023-09-13T08:13:25Z</time>
      </trkpt>
      <trkpt lat="49.833" lon="2.29383">
        <ele>67.8</ele>
        <time>2023-09-13T08:13:26Z</time>
      </trkpt>
      <trkpt lat="49.83301" lon="2.29385">
        <ele>67.8</ele>
        <time>2023-09-13T08:13:27Z</time>
      </trkpt>
      <trkpt lat="49.83302" lon="2.29386">
        <ele>67.7</ele>
        <time>2023-09-13T08:13:28Z</time>
      </trkpt>
      <trkpt lat="49.83303" lon="2.29388">
        <ele>67.7</ele>
        <time>2023-09-13T08:13:29Z</time>
      </trkpt>
      <trkpt lat="49.83304" lon="2.2939">
        <ele>67.6</ele>
        <time>2023-09-13T08:13:30Z</time>
      </trkpt>
      <trkpt lat="49.83305" lon="2.29392">
        <ele>67.5</ele>
        <time>2023-09-13T08:13:31Z</time>
      </trkpt>
      <trkpt lat="49.83306" lon="2.29394">
        <ele>67.5</ele>
        <time>2023-09-13T08:13:32Z</time>
      </trkpt>
      <trkpt lat="49.83307" lon="2.29396">
        <ele>67.4</ele>
        <time>2023-09-13T08:13:33Z</time>
      </trkpt>
      <trkpt lat="49.83307" lon="2.29398">
        <ele>67.4</ele>
        <time>2023-09-13T08:13:34Z</time>
      </trkpt>
      <trkpt lat="49.83308" lon="2.294">
        <ele>67.3</ele>
        <time>2023-09-13T08:13:36Z</time>
      </trkpt>
      <trkpt lat="49.83309" lon="2.29402">
        <ele>67.2</ele>
        <time>2023-09-13T08:13:37Z</time>
      </trkpt>
      <trkpt lat="49.83309" lon="2.29404">
        <ele>67.2</ele>
        <time>2023-09-13T08:13:38Z</time>
      </trkpt>
      <trkpt lat="49.8331" lon="2.29406">
        <ele>67.1</ele>
        <time>2023-09-13T08:13:39Z</time>
      </trkpt>
      <trkpt lat="49.8331" lon="2.29407">
        <ele>67.1</ele>
        <time>2023-09-13T08:13:40Z</time>
      </trkpt>
      <trkpt lat="49.83311" lon="2.29409">
        <ele>67</ele>
        <time>2023-09-13T08:13:41Z</time>
      </trkpt>
      <trkpt lat="49.83312" lon="2.29411">
        <ele>67</ele>
        <time>2023-09-13T08:13:43Z</time>
      </trkpt>
      <trkpt lat="49.83313" lon="2.29413">
        <ele>66.9</ele>
        <time>2023-09-13T08:13:44Z</time>
      </trkpt>
      <trkpt lat="49.83314" lon="2.29414">
        <ele>66.8</ele>
        <time>2023-09-13T08:13:45Z</time>
      </trkpt>
      <trkpt lat="49.83314" lon="2.29415">
        <ele>66.8</ele>
        <time>2023-09-13T08:13:46Z</time>
      </trkpt>
      <trkpt lat="49.83315" lon="2.29417">
        <ele>66.7</ele>
        <time>2023-09-13T08:13:47Z</time>
      </trkpt>
      <trkpt lat="49.83316" lon="2.29419">
        <ele>66.6</ele>
        <time>2023-09-13T08:13:48Z</time>
      </trkpt>
      <trkpt lat="49.83316" lon="2.29422">
        <ele>66.5</ele>
        <time>2023-09-13T08:13:49Z</time>
      </trkpt>
      <trkpt lat="49.83317" lon="2.29423">
        <ele>66.5</ele>
        <time>2023-09-13T08:13:50Z</time>
      </trkpt>
      <trkpt lat="49.83317" lon="2.29425">
        <ele>66.4</ele>
        <time>2023-09-13T08:13:51Z</time>
      </trkpt>
      <trkpt lat="49.83318" lon="2.29426">
        <ele>66.4</ele>
        <time>2023-09-13T08:13:52Z</time>
      </trkpt>
      <trkpt lat="49.83318" lon="2.29428">
        <ele>66.3</ele>
        <time>2023-09-13T08:13:54Z</time>
      </trkpt>
      <trkpt lat="49.83319" lon="2.29429">
        <ele>66.2</ele>
        <time>2023-09-13T08:13:55Z</time>
      </trkpt>
      <trkpt lat="49.8332" lon="2.29432">
        <ele>66.1</ele>
        <time>2023-09-13T08:13:56Z</time>
      </trkpt>
      <trkpt lat="49.8332" lon="2.29433">
        <ele>66.1</ele>
        <time>2023-09-13T08:13:57Z</time>
      </trkpt>
      <trkpt lat="49.83321" lon="2.29434">
        <ele>66</ele>
        <time>2023-09-13T08:13:58Z</time>
      </trkpt>
      <trkpt lat="49.83322" lon="2.29436">
        <ele>65.9</ele>
        <time>2023-09-13T08:14:00Z</time>
      </trkpt>
      <trkpt lat="49.83323" lon="2.29438">
        <ele>65.9</ele>
        <time>2023-09-13T08:14:01Z</time>
      </trkpt>
      <trkpt lat="49.83323" lon="2.2944">
        <ele>65.8</ele>
        <time>2023-09-13T08:14:02Z</time>
      </trkpt>
      <trkpt lat="49.83324" lon="2.29442">
        <ele>65.7</ele>
        <time>2023-09-13T08:14:03Z</time>
      </trkpt>
      <trkpt lat="49.83325" lon="2.29443">
        <ele>65.7</ele>
        <time>2023-09-13T08:14:04Z</time>
      </trkpt>
      <trkpt lat="49.83326" lon="2.29444">
        <ele>65.6</ele>
        <time>2023-09-13T08:14:05Z</time>
      </trkpt>
      <trkpt lat="49.83327" lon="2.29447">
        <ele>65.5</ele>
        <time>2023-09-13T08:14:07Z</time>
      </trkpt>
      <trkpt lat="49.83328" lon="2.29449">
        <ele>65.4</ele>
        <time>2023-09-13T08:14:08Z</time>
      </trkpt>
      <trkpt lat="49.83329" lon="2.2945">
        <ele>65.3</ele>
        <time>2023-09-13T08:14:09Z</time>
      </trkpt>
      <trkpt lat="49.83329" lon="2.29451">
        <ele>65.3</ele>
        <time>2023-09-13T08:14:10Z</time>
      </trkpt>
      <trkpt lat="49.8333" lon="2.29453">
        <ele>65.2</ele>
        <time>2023-09-13T08:14:11Z</time>
      </trkpt>
      <trkpt lat="49.83331" lon="2.29454">
        <ele>65.1</ele>
        <time>2023-09-13T08:14:13Z</time>
      </trkpt>
      <trkpt lat="49.83332" lon="2.29456">
        <ele>65.1</ele>
        <time>2023-09-13T08:14:14Z</time>
      </trkpt>
      <trkpt lat="49.83333" lon="2.29458">
        <ele>65</ele>
        <time>2023-09-13T08:14:15Z</time>
      </trkpt>
      <trkpt lat="49.83334" lon="2.2946">
        <ele>64.9</ele>
        <time>2023-09-13T08:14:16Z</time>
      </trkpt>
      <trkpt lat="49.83335" lon="2.29462">
        <ele>64.8</ele>
        <time>2023-09-13T08:14:17Z</time>
      </trkpt>
      <trkpt lat="49.83335" lon="2.29464">
        <ele>64.7</ele>
        <time>2023-09-13T08:14:18Z</time>
      </trkpt>
      <trkpt lat="49.83336" lon="2.29465">
        <ele>64.7</ele>
        <time>2023-09-13T08:14:19Z</time>
      </trkpt>
      <trkpt lat="49.83336" lon="2.29467">
        <ele>64.6</ele>
        <time>2023-09-13T08:14:21Z</time>
      </trkpt>
      <trkpt lat="49.83338" lon="2.2947">
        <ele>64.5</ele>
        <time>2023-09-13T08:14:22Z</time>
      </trkpt>
      <trkpt lat="49.83338" lon="2.29471">
        <ele>64.4</ele>
        <time>2023-09-13T08:14:23Z</time>
      </trkpt>
      <trkpt lat="49.83339" lon="2.29472">
        <ele>64.4</ele>
        <time>2023-09-13T08:14:24Z</time>
      </trkpt>
      <trkpt lat="49.8334" lon="2.29473">
        <ele>64.3</ele>
        <time>2023-09-13T08:14:25Z</time>
      </trkpt>
      <trkpt lat="49.83341" lon="2.29474">
        <ele>64.3</ele>
        <time>2023-09-13T08:14:26Z</time>
      </trkpt>
      <trkpt lat="49.83342" lon="2.29477">
        <ele>64.2</ele>
        <time>2023-09-13T08:14:28Z</time>
      </trkpt>
      <trkpt lat="49.83342" lon="2.29479">
        <ele>64.1</ele>
        <time>2023-09-13T08:14:29Z</time>
      </trkpt>
      <trkpt lat="49.83343" lon="2.29482">
        <ele>64</ele>
        <time>2023-09-13T08:14:30Z</time>
      </trkpt>
      <trkpt lat="49.83343" lon="2.29483">
        <ele>63.9</ele>
        <time>2023-09-13T08:14:31Z</time>
      </trkpt>
      <trkpt lat="49.83343" lon="2.29484">
        <ele>63.9</ele>
        <time>2023-09-13T08:14:32Z</time>
      </trkpt>
      <trkpt lat="49.83344" lon="2.29487">
        <ele>63.8</ele>
        <time>2023-09-13T08:14:33Z</time>
      </trkpt>
      <trkpt lat="49.83345" lon="2.29488">
        <ele>63.7</ele>
        <time>2023-09-13T08:14:34Z</time>
      </trkpt>
      <trkpt lat="49.83345" lon="2.2949">
        <ele>63.7</ele>
        <time>2023-09-13T08:14:35Z</time>
      </trkpt>
      <trkpt lat="49.83346" lon="2.29492">
        <ele>63.6</ele>
        <time>2023-09-13T08:14:37Z</time>
      </trkpt>
      <trkpt lat="49.83347" lon="2.29493">
        <ele>63.6</ele>
        <time>2023-09-13T08:14:38Z</time>
      </trkpt>
      <trkpt lat="49.83347" lon="2.29495">
        <ele>63.5</ele>
        <time>2023-09-13T08:14:39Z</time>
      </trkpt>
      <trkpt lat="49.83348" lon="2.29497">
        <ele>63.4</ele>
        <time>2023-09-13T08:14:40Z</time>
      </trkpt>
      <trkpt lat="49.83349" lon="2.29499">
        <ele>63.3</ele>
        <time>2023-09-13T08:14:41Z</time>
      </trkpt>
      <trkpt lat="49.83349" lon="2.29501">
        <ele>63.3</ele>
        <time>2023-09-13T08:14:42Z</time>
      </trkpt>
      <trkpt lat="49.8335" lon="2.29503">
        <ele>63.2</ele>
        <time>2023-09-13T08:14:43Z</time>
      </trkpt>
      <trkpt lat="49.8335" lon="2.29505">
        <ele>63.1</ele>
        <time>2023-09-13T08:14:44Z</time>
      </trkpt>
      <trkpt lat="49.83351" lon="2.29507">
        <ele>63</ele>
        <time>2023-09-13T08:14:46Z</time>
      </trkpt>
      <trkpt lat="49.83351" lon="2.29509">
        <ele>63</ele>
        <time>2023-09-13T08:14:47Z</time>
      </trkpt>
      <trkpt lat="49.83352" lon="2.2951">
        <ele>62.9</ele>
        <time>2023-09-13T08:14:48Z</time>
      </trkpt>
      <trkpt lat="49.83352" lon="2.29513">
        <ele>62.8</ele>
        <time>2023-09-13T08:14:49Z</time>
      </trkpt>
      <trkpt lat="49.83353" lon="2.29514">
        <ele>62.8</ele>
        <time>2023-09-13T08:14:50Z</time>
      </trkpt>
      <trkpt lat="49.83354" lon="2.29516">
        <ele>62.7</ele>
        <time>2023-09-13T08:14:52Z</time>
      </trkpt>
      <trkpt lat="49.83354" lon="2.29519">
        <ele>62.6</ele>
        <time>2023-09-13T08:14:53Z</time>
      </trkpt>
      <trkpt lat="49.83355" lon="2.29522">
        <ele>62.5</ele>
        <time>2023-09-13T08:14:54Z</time>
      </trkpt>
      <trkpt lat="49.83356" lon="2.29523">
        <ele>62.5</ele>
        <time>2023-09-13T08:14:55Z</time>
      </trkpt>
      <trkpt lat="49.83356" lon="2.29524">
        <ele>62.4</ele>
        <time>2023-09-13T08:14:56Z</time>
      </trkpt>
      <trkpt lat="49.83357" lon="2.29527">
        <ele>62.3</ele>
        <time>2023-09-13T08:14:57Z</time>
      </trkpt>
      <trkpt lat="49.83357" lon="2.29528">
        <ele>62.3</ele>
        <time>2023-09-13T08:14:58Z</time>
      </trkpt>
      <trkpt lat="49.83358" lon="2.29529">
        <ele>62.3</ele>
        <time>2023-09-13T08:14:59Z</time>
      </trkpt>
      <trkpt lat="49.83359" lon="2.29532">
        <ele>62.2</ele>
        <time>2023-09-13T08:15:00Z</time>
      </trkpt>
      <trkpt lat="49.8336" lon="2.29533">
        <ele>62.2</ele>
        <time>2023-09-13T08:15:02Z</time>
      </trkpt>
      <trkpt lat="49.8336" lon="2.29534">
        <ele>62.1</ele>
        <time>2023-09-13T08:15:03Z</time>
      </trkpt>
      <trkpt lat="49.83361" lon="2.29537">
        <ele>62.1</ele>
        <time>2023-09-13T08:15:04Z</time>
      </trkpt>
      <trkpt lat="49.83362" lon="2.29538">
        <ele>62</ele>
        <time>2023-09-13T08:15:05Z</time>
      </trkpt>
      <trkpt lat="49.83362" lon="2.29539">
        <ele>62</ele>
        <time>2023-09-13T08:15:06Z</time>
      </trkpt>
      <trkpt lat="49.83363" lon="2.2954">
        <ele>62</ele>
        <time>2023-09-13T08:15:07Z</time>
      </trkpt>
      <trkpt lat="49.83363" lon="2.29541">
        <ele>62</ele>
        <time>2023-09-13T08:15:08Z</time>
      </trkpt>
      <trkpt lat="49.83364" lon="2.29543">
        <ele>61.9</ele>
        <time>2023-09-13T08:15:09Z</time>
      </trkpt>
      <trkpt lat="49.83365" lon="2.29545">
        <ele>61.9</ele>
        <time>2023-09-13T08:15:10Z</time>
      </trkpt>
      <trkpt lat="49.83366" lon="2.29546">
        <ele>61.9</ele>
        <time>2023-09-13T08:15:11Z</time>
      </trkpt>
      <trkpt lat="49.83366" lon="2.29548">
        <ele>61.8</ele>
        <time>2023-09-13T08:15:13Z</time>
      </trkpt>
      <trkpt lat="49.83367" lon="2.2955">
        <ele>61.8</ele>
        <time>2023-09-13T08:15:14Z</time>
      </trkpt>
      <trkpt lat="49.83368" lon="2.29551">
        <ele>61.8</ele>
        <time>2023-09-13T08:15:15Z</time>
      </trkpt>
      <trkpt lat="49.83368" lon="2.29552">
        <ele>61.8</ele>
        <time>2023-09-13T08:15:16Z</time>
      </trkpt>
      <trkpt lat="49.83369" lon="2.29554">
        <ele>61.7</ele>
        <time>2023-09-13T08:15:18Z</time>
      </trkpt>
      <trkpt lat="49.8337" lon="2.29554">
        <ele>61.7</ele>
        <time>2023-09-13T08:15:19Z</time>
      </trkpt>
      <trkpt lat="49.83371" lon="2.29554">
        <ele>61.7</ele>
        <time>2023-09-13T08:15:20Z</time>
      </trkpt>
      <trkpt lat="49.83371" lon="2.29553">
        <ele>61.7</ele>
        <time>2023-09-13T08:15:22Z</time>
      </trkpt>
      <trkpt lat="49.83372" lon="2.29553">
        <ele>61.7</ele>
        <time>2023-09-13T08:15:23Z</time>
      </trkpt>
      <trkpt lat="49.83372" lon="2.29552">
        <ele>61.7</ele>
        <time>2023-09-13T08:15:25Z</time>
      </trkpt>
      <trkpt lat="49.83372" lon="2.29552">
        <ele>61.7</ele>
        <time>2023-09-13T08:15:26Z</time>
      </trkpt>
      <trkpt lat="49.83372" lon="2.29552">
        <ele>61.7</ele>
        <time>2023-09-13T08:15:27Z</time>
      </trkpt>
      <trkpt lat="49.83372" lon="2.29552">
        <ele>61.7</ele>
        <time>2023-09-13T08:15:29Z</time>
      </trkpt>
      <trkpt lat="49.83372" lon="2.29552">
        <ele>61.7</ele>
        <time>2023-09-13T08:15:30Z</time>
      </trkpt>
      <trkpt lat="49.83372" lon="2.29551">
        <ele>61.7</ele>
        <time>2023-09-13T08:15:32Z</time>
      </trkpt>
      <trkpt lat="49.83372" lon="2.29551">
        <ele>61.7</ele>
        <time>2023-09-13T08:15:33Z</time>
      </trkpt>
      <trkpt lat="49.83372" lon="2.29551">
        <ele>61.7</ele>
        <time>2023-09-13T08:15:35Z</time>
      </trkpt>
      <trkpt lat="49.83372" lon="2.29551">
        <ele>61.7</ele>
        <time>2023-09-13T08:15:36Z</time>
      </trkpt>
      <trkpt lat="49.83371" lon="2.29551">
        <ele>61.7</ele>
        <time>2023-09-13T08:15:37Z</time>
      </trkpt>
      <trkpt lat="49.83371" lon="2.29551">
        <ele>61.7</ele>
        <time>2023-09-13T08:15:38Z</time>
      </trkpt>
      <trkpt lat="49.83371" lon="2.29551">
        <ele>61.7</ele>
        <time>2023-09-13T08:15:39Z</time>
      </trkpt>
      <trkpt lat="49.83371" lon="2.29551">
        <ele>61.7</ele>
        <time>2023-09-13T08:15:40Z</time>
      </trkpt>
      <trkpt lat="49.83371" lon="2.29551">
        <ele>61.7</ele>
        <time>2023-09-13T08:15:41Z</time>
      </trkpt>
      <trkpt lat="49.83371" lon="2.29551">
        <ele>61.7</ele>
        <time>2023-09-13T08:15:42Z</time>
      </trkpt>
      <trkpt lat="49.83371" lon="2.29551">
        <ele>61.7</ele>
        <time>2023-09-13T08:15:43Z</time>
      </trkpt>
      <trkpt lat="49.83371" lon="2.29551">
        <ele>61.7</ele>
        <time>2023-09-13T08:15:44Z</time>
      </trkpt>
      <trkpt lat="49.83371" lon="2.29551">
        <ele>61.7</ele>
        <time>2023-09-13T08:15:45Z</time>
      </trkpt>
      <trkpt lat="49.83371" lon="2.29551">
        <ele>61.7</ele>
        <time>2023-09-13T08:15:46Z</time>
      </trkpt>
      <trkpt lat="49.83371" lon="2.29551">
        <ele>61.7</ele>
        <time>2023-09-13T08:15:47Z</time>
      </trkpt>
      <trkpt lat="49.83371" lon="2.29551">
        <ele>61.7</ele>
        <time>2023-09-13T08:15:48Z</time>
      </trkpt>
      <trkpt lat="49.83371" lon="2.29551">
        <ele>61.7</ele>
        <time>2023-09-13T08:15:49Z</time>
      </trkpt>
      <trkpt lat="49.83371" lon="2.29551">
        <ele>61.7</ele>
        <time>2023-09-13T08:15:50Z</time>
      </trkpt>
      <trkpt lat="49.83371" lon="2.29551">
        <ele>61.7</ele>
        <time>2023-09-13T08:15:51Z</time>
      </trkpt>
      <trkpt lat="49.83371" lon="2.29551">
        <ele>61.7</ele>
        <time>2023-09-13T08:15:52Z</time>
      </trkpt>
      <trkpt lat="49.83371" lon="2.29551">
        <ele>61.7</ele>
        <time>2023-09-13T08:15:53Z</time>
      </trkpt>
      <trkpt lat="49.83371" lon="2.29551">
        <ele>61.7</ele>
        <time>2023-09-13T08:15:54Z</time>
      </trkpt>
      <trkpt lat="49.83371" lon="2.29551">
        <ele>61.7</ele>
        <time>2023-09-13T08:15:55Z</time>
      </trkpt>
      <trkpt lat="49.83371" lon="2.29551">
        <ele>61.7</ele>
        <time>2023-09-13T08:15:56Z</time>
      </trkpt>
      <trkpt lat="49.83371" lon="2.29551">
        <ele>61.7</ele>
        <time>2023-09-13T08:15:57Z</time>
      </trkpt>
      <trkpt lat="49.83371" lon="2.29551">
        <ele>61.7</ele>
        <time>2023-09-13T08:15:58Z</time>
      </trkpt>
      <trkpt lat="49.83371" lon="2.29551">
        <ele>61.7</ele>
        <time>2023-09-13T08:15:59Z</time>
      </trkpt>
      <trkpt lat="49.83371" lon="2.29551">
        <ele>61.7</ele>
        <time>2023-09-13T08:16:00Z</time>
      </trkpt>
      <trkpt lat="49.83371" lon="2.29551">
        <ele>61.7</ele>
        <time>2023-09-13T08:16:01Z</time>
      </trkpt>
      <trkpt lat="49.83371" lon="2.29551">
        <ele>61.7</ele>
        <time>2023-09-13T08:16:02Z</time>
      </trkpt>
      <trkpt lat="49.83371" lon="2.29551">
        <ele>61.7</ele>
        <time>2023-09-13T08:16:03Z</time>
      </trkpt>
      <trkpt lat="49.83371" lon="2.29551">
        <ele>61.7</ele>
        <time>2023-09-13T08:16:04Z</time>
      </trkpt>
      <trkpt lat="49.83371" lon="2.29551">
        <ele>61.7</ele>
        <time>2023-09-13T08:16:05Z</time>
      </trkpt>
      <trkpt lat="49.83371" lon="2.29551">
        <ele>61.7</ele>
        <time>2023-09-13T08:16:06Z</time>
      </trkpt>
      <trkpt lat="49.83371" lon="2.29551">
        <ele>61.7</ele>
        <time>2023-09-13T08:16:07Z</time>
      </trkpt>
      <trkpt lat="49.83371" lon="2.29551">
        <ele>61.7</ele>
        <time>2023-09-13T08:16:08Z</time>
      </trkpt>
      <trkpt lat="49.8337" lon="2.29551">
        <ele>61.7</ele>
        <time>2023-09-13T08:16:09Z</time>
      </trkpt>
      <trkpt lat="49.8337" lon="2.29551">
        <ele>61.7</ele>
        <time>2023-09-13T08:16:11Z</time>
      </trkpt>
      <trkpt lat="49.8337" lon="2.29551">
        <ele>61.7</ele>
        <time>2023-09-13T08:16:12Z</time>
      </trkpt>
      <trkpt lat="49.8337" lon="2.29551">
        <ele>61.7</ele>
        <time>2023-09-13T08:16:13Z</time>
      </trkpt>
      <trkpt lat="49.8337" lon="2.29551">
        <ele>61.7</ele>
        <time>2023-09-13T08:16:14Z</time>
      </trkpt>
      <trkpt lat="49.83371" lon="2.29551">
        <ele>61.7</ele>
        <time>2023-09-13T08:16:16Z</time>
      </trkpt>
      <trkpt lat="49.83371" lon="2.29551">
        <ele>61.7</ele>
        <time>2023-09-13T08:16:18Z</time>
      </trkpt>
      <trkpt lat="49.83371" lon="2.29551">
        <ele>61.7</ele>
        <time>2023-09-13T08:16:19Z</time>
      </trkpt>
      <trkpt lat="49.83371" lon="2.29551">
        <ele>61.7</ele>
        <time>2023-09-13T08:16:21Z</time>
      </trkpt>
      <trkpt lat="49.83371" lon="2.29551">
        <ele>61.7</ele>
        <time>2023-09-13T08:16:22Z</time>
      </trkpt>
      <trkpt lat="49.83371" lon="2.29551">
        <ele>61.7</ele>
        <time>2023-09-13T08:16:23Z</time>
      </trkpt>
      <trkpt lat="49.83371" lon="2.29552">
        <ele>61.7</ele>
        <time>2023-09-13T08:16:25Z</time>
      </trkpt>
      <trkpt lat="49.83371" lon="2.29551">
        <ele>61.7</ele>
        <time>2023-09-13T08:16:26Z</time>
      </trkpt>
      <trkpt lat="49.83371" lon="2.29551">
        <ele>61.7</ele>
        <time>2023-09-13T08:16:27Z</time>
      </trkpt>
      <trkpt lat="49.83371" lon="2.29551">
        <ele>61.7</ele>
        <time>2023-09-13T08:16:28Z</time>
      </trkpt>
      <trkpt lat="49.83371" lon="2.29551">
        <ele>61.7</ele>
        <time>2023-09-13T08:16:29Z</time>
      </trkpt>
      <trkpt lat="49.83371" lon="2.29551">
        <ele>61.7</ele>
        <time>2023-09-13T08:16:30Z</time>
      </trkpt>
      <trkpt lat="49.83371" lon="2.29551">
        <ele>61.7</ele>
        <time>2023-09-13T08:16:31Z</time>
      </trkpt>
      <trkpt lat="49.83371" lon="2.29551">
        <ele>61.7</ele>
        <time>2023-09-13T08:16:32Z</time>
      </trkpt>
      <trkpt lat="49.83371" lon="2.29551">
        <ele>61.7</ele>
        <time>2023-09-13T08:16:33Z</time>
      </trkpt>
      <trkpt lat="49.83371" lon="2.29551">
        <ele>61.7</ele>
        <time>2023-09-13T08:16:34Z</time>
      </trkpt>
      <trkpt lat="49.83371" lon="2.29551">
        <ele>61.7</ele>
        <time>2023-09-13T08:16:35Z</time>
      </trkpt>
      <trkpt lat="49.83371" lon="2.29551">
        <ele>61.7</ele>
        <time>2023-09-13T08:16:36Z</time>
      </trkpt>
      <trkpt lat="49.83371" lon="2.29551">
        <ele>61.7</ele>
        <time>2023-09-13T08:16:37Z</time>
      </trkpt>
      <trkpt lat="49.83371" lon="2.29551">
        <ele>61.7</ele>
        <time>2023-09-13T08:16:38Z</time>
      </trkpt>
      <trkpt lat="49.83371" lon="2.29551">
        <ele>61.7</ele>
        <time>2023-09-13T08:16:39Z</time>
      </trkpt>
      <trkpt lat="49.83371" lon="2.29551">
        <ele>61.7</ele>
        <time>2023-09-13T08:16:40Z</time>
      </trkpt>
      <trkpt lat="49.83371" lon="2.29551">
        <ele>61.7</ele>
        <time>2023-09-13T08:16:41Z</time>
      </trkpt>
      <trkpt lat="49.83371" lon="2.29551">
        <ele>61.7</ele>
        <time>2023-09-13T08:16:42Z</time>
      </trkpt>
      <trkpt lat="49.83371" lon="2.29551">
        <ele>61.7</ele>
        <time>2023-09-13T08:16:43Z</time>
      </trkpt>
      <trkpt lat="49.83369" lon="2.29551">
        <ele>61.6</ele>
        <time>2023-09-13T08:16:44Z</time>
      </trkpt>
      <trkpt lat="49.83368" lon="2.29551">
        <ele>61.6</ele>
        <time>2023-09-13T08:16:45Z</time>
      </trkpt>
      <trkpt lat="49.83367" lon="2.29551">
        <ele>61.6</ele>
        <time>2023-09-13T08:16:46Z</time>
      </trkpt>
      <trkpt lat="49.83367" lon="2.29551">
        <ele>61.6</ele>
        <time>2023-09-13T08:16:47Z</time>
      </trkpt>
      <trkpt lat="49.83367" lon="2.29551">
        <ele>61.6</ele>
        <time>2023-09-13T08:16:48Z</time>
      </trkpt>
      <trkpt lat="49.83367" lon="2.29551">
        <ele>61.6</ele>
        <time>2023-09-13T08:16:49Z</time>
      </trkpt>
      <trkpt lat="49.83367" lon="2.29552">
        <ele>61.6</ele>
        <time>2023-09-13T08:16:50Z</time>
      </trkpt>
      <trkpt lat="49.83366" lon="2.29553">
        <ele>61.6</ele>
        <time>2023-09-13T08:16:51Z</time>
      </trkpt>
      <trkpt lat="49.83365" lon="2.29555">
        <ele>61.6</ele>
        <time>2023-09-13T08:16:52Z</time>
      </trkpt>
      <trkpt lat="49.83365" lon="2.29553">
        <ele>61.6</ele>
        <time>2023-09-13T08:16:54Z</time>
      </trkpt>
      <trkpt lat="49.83364" lon="2.29552">
        <ele>61.6</ele>
        <time>2023-09-13T08:16:55Z</time>
      </trkpt>
      <trkpt lat="49.83364" lon="2.29552">
        <ele>61.5</ele>
        <time>2023-09-13T08:16:56Z</time>
      </trkpt>
      <trkpt lat="49.83363" lon="2.29554">
        <ele>61.5</ele>
        <time>2023-09-13T08:16:58Z</time>
      </trkpt>
      <trkpt lat="49.83363" lon="2.29554">
        <ele>61.5</ele>
        <time>2023-09-13T08:16:59Z</time>
      </trkpt>
      <trkpt lat="49.83363" lon="2.29554">
        <ele>61.5</ele>
        <time>2023-09-13T08:17:00Z</time>
      </trkpt>
      <trkpt lat="49.83364" lon="2.29555">
        <ele>61.5</ele>
        <time>2023-09-13T08:17:02Z</time>
      </trkpt>
      <trkpt lat="49.83364" lon="2.29555">
        <ele>61.5</ele>
        <time>2023-09-13T08:17:03Z</time>
      </trkpt>
      <trkpt lat="49.83364" lon="2.29555">
        <ele>61.5</ele>
        <time>2023-09-13T08:17:04Z</time>
      </trkpt>
      <trkpt lat="49.83364" lon="2.29555">
        <ele>61.5</ele>
        <time>2023-09-13T08:17:06Z</time>
      </trkpt>
      <trkpt lat="49.83364" lon="2.29556">
        <ele>61.5</ele>
        <time>2023-09-13T08:17:07Z</time>
      </trkpt>
      <trkpt lat="49.83364" lon="2.29556">
        <ele>61.5</ele>
        <time>2023-09-13T08:17:09Z</time>
      </trkpt>
      <trkpt lat="49.83365" lon="2.29556">
        <ele>61.5</ele>
        <time>2023-09-13T08:17:10Z</time>
      </trkpt>
      <trkpt lat="49.83365" lon="2.29556">
        <ele>61.5</ele>
        <time>2023-09-13T08:17:11Z</time>
      </trkpt>
      <trkpt lat="49.83365" lon="2.29555">
        <ele>61.5</ele>
        <time>2023-09-13T08:17:12Z</time>
      </trkpt>
      <trkpt lat="49.83364" lon="2.29555">
        <ele>61.5</ele>
        <time>2023-09-13T08:17:13Z</time>
      </trkpt>
      <trkpt lat="49.83365" lon="2.29555">
        <ele>61.5</ele>
        <time>2023-09-13T08:17:14Z</time>
      </trkpt>
      <trkpt lat="49.83365" lon="2.29555">
        <ele>61.5</ele>
        <time>2023-09-13T08:17:16Z</time>
      </trkpt>
      <trkpt lat="49.83365" lon="2.29556">
        <ele>61.5</ele>
        <time>2023-09-13T08:17:17Z</time>
      </trkpt>
      <trkpt lat="49.83365" lon="2.29556">
        <ele>61.5</ele>
        <time>2023-09-13T08:17:19Z</time>
      </trkpt>
      <trkpt lat="49.83365" lon="2.29556">
        <ele>61.5</ele>
        <time>2023-09-13T08:17:20Z</time>
      </trkpt>
      <trkpt lat="49.83365" lon="2.29555">
        <ele>61.5</ele>
        <time>2023-09-13T08:17:22Z</time>
      </trkpt>
      <trkpt lat="49.83365" lon="2.29555">
        <ele>61.5</ele>
        <time>2023-09-13T08:17:23Z</time>
      </trkpt>
      <trkpt lat="49.83365" lon="2.29555">
        <ele>61.5</ele>
        <time>2023-09-13T08:17:24Z</time>
      </trkpt>
      <trkpt lat="49.83365" lon="2.29555">
        <ele>61.5</ele>
        <time>2023-09-13T08:17:26Z</time>
      </trkpt>
      <trkpt lat="49.83365" lon="2.29554">
        <ele>61.5</ele>
        <time>2023-09-13T08:17:27Z</time>
      </trkpt>
      <trkpt lat="49.83365" lon="2.29554">
        <ele>61.5</ele>
        <time>2023-09-13T08:17:28Z</time>
      </trkpt>
      <trkpt lat="49.83365" lon="2.29554">
        <ele>61.5</ele>
        <time>2023-09-13T08:17:29Z</time>
      </trkpt>
      <trkpt lat="49.83365" lon="2.29554">
        <ele>61.5</ele>
        <time>2023-09-13T08:17:30Z</time>
      </trkpt>
      <trkpt lat="49.83365" lon="2.29554">
        <ele>61.5</ele>
        <time>2023-09-13T08:17:31Z</time>
      </trkpt>
      <trkpt lat="49.83365" lon="2.29554">
        <ele>61.5</ele>
        <time>2023-09-13T08:17:32Z</time>
      </trkpt>
      <trkpt lat="49.83365" lon="2.29554">
        <ele>61.5</ele>
        <time>2023-09-13T08:17:33Z</time>
      </trkpt>
      <trkpt lat="49.83365" lon="2.29554">
        <ele>61.5</ele>
        <time>2023-09-13T08:17:34Z</time>
      </trkpt>
      <trkpt lat="49.83365" lon="2.29554">
        <ele>61.5</ele>
        <time>2023-09-13T08:17:35Z</time>
      </trkpt>
      <trkpt lat="49.83365" lon="2.29554">
        <ele>61.5</ele>
        <time>2023-09-13T08:17:36Z</time>
      </trkpt>
      <trkpt lat="49.83365" lon="2.29554">
        <ele>61.5</ele>
        <time>2023-09-13T08:17:37Z</time>
      </trkpt>
      <trkpt lat="49.83365" lon="2.29554">
        <ele>61.5</ele>
        <time>2023-09-13T08:17:38Z</time>
      </trkpt>
      <trkpt lat="49.83365" lon="2.29554">
        <ele>61.5</ele>
        <time>2023-09-13T08:17:39Z</time>
      </trkpt>
      <trkpt lat="49.83365" lon="2.29554">
        <ele>61.5</ele>
        <time>2023-09-13T08:17:40Z</time>
      </trkpt>
      <trkpt lat="49.83365" lon="2.29554">
        <ele>61.5</ele>
        <time>2023-09-13T08:17:41Z</time>
      </trkpt>
      <trkpt lat="49.83365" lon="2.29554">
        <ele>61.5</ele>
        <time>2023-09-13T08:17:42Z</time>
      </trkpt>
      <trkpt lat="49.83365" lon="2.29554">
        <ele>61.5</ele>
        <time>2023-09-13T08:17:43Z</time>
      </trkpt>
      <trkpt lat="49.83365" lon="2.29554">
        <ele>61.5</ele>
        <time>2023-09-13T08:17:44Z</time>
      </trkpt>
      <trkpt lat="49.83365" lon="2.29554">
        <ele>61.5</ele>
        <time>2023-09-13T08:17:45Z</time>
      </trkpt>
      <trkpt lat="49.83365" lon="2.29554">
        <ele>61.5</ele>
        <time>2023-09-13T08:17:46Z</time>
      </trkpt>
      <trkpt lat="49.83365" lon="2.29554">
        <ele>61.5</ele>
        <time>2023-09-13T08:17:47Z</time>
      </trkpt>
      <trkpt lat="49.83365" lon="2.29554">
        <ele>61.5</ele>
        <time>2023-09-13T08:17:48Z</time>
      </trkpt>
      <trkpt lat="49.83365" lon="2.29554">
        <ele>61.5</ele>
        <time>2023-09-13T08:17:49Z</time>
      </trkpt>
      <trkpt lat="49.83365" lon="2.29553">
        <ele>61.5</ele>
        <time>2023-09-13T08:17:50Z</time>
      </trkpt>
      <trkpt lat="49.83365" lon="2.29553">
        <ele>61.5</ele>
        <time>2023-09-13T08:17:51Z</time>
      </trkpt>
      <trkpt lat="49.83365" lon="2.29553">
        <ele>61.5</ele>
        <time>2023-09-13T08:17:52Z</time>
      </trkpt>
      <trkpt lat="49.83365" lon="2.29553">
        <ele>61.5</ele>
        <time>2023-09-13T08:17:53Z</time>
      </trkpt>
      <trkpt lat="49.83365" lon="2.29553">
        <ele>61.5</ele>
        <time>2023-09-13T08:17:54Z</time>
      </trkpt>
      <trkpt lat="49.83365" lon="2.29553">
        <ele>61.5</ele>
        <time>2023-09-13T08:17:55Z</time>
      </trkpt>
      <trkpt lat="49.83365" lon="2.29553">
        <ele>61.4</ele>
        <time>2023-09-13T08:17:56Z</time>
      </trkpt>
      <trkpt lat="49.83366" lon="2.29554">
        <ele>61.4</ele>
        <time>2023-09-13T08:17:58Z</time>
      </trkpt>
      <trkpt lat="49.83366" lon="2.29555">
        <ele>61.4</ele>
        <time>2023-09-13T08:17:59Z</time>
      </trkpt>
      <trkpt lat="49.83367" lon="2.29555">
        <ele>61.4</ele>
        <time>2023-09-13T08:18:00Z</time>
      </trkpt>
      <trkpt lat="49.83367" lon="2.29557">
        <ele>61.4</ele>
        <time>2023-09-13T08:18:01Z</time>
      </trkpt>
      <trkpt lat="49.83367" lon="2.29558">
        <ele>61.4</ele>
        <time>2023-09-13T08:18:02Z</time>
      </trkpt>
      <trkpt lat="49.83367" lon="2.2956">
        <ele>61.4</ele>
        <time>2023-09-13T08:18:03Z</time>
      </trkpt>
      <trkpt lat="49.83366" lon="2.29561">
        <ele>61.3</ele>
        <time>2023-09-13T08:18:04Z</time>
      </trkpt>
      <trkpt lat="49.83364" lon="2.29563">
        <ele>61</ele>
        <time>2023-09-13T08:18:06Z</time>
      </trkpt>
      <trkpt lat="49.83363" lon="2.29565">
        <ele>60.9</ele>
        <time>2023-09-13T08:18:07Z</time>
      </trkpt>
      <trkpt lat="49.83362" lon="2.29565">
        <ele>60.9</ele>
        <time>2023-09-13T08:18:08Z</time>
      </trkpt>
      <trkpt lat="49.83361" lon="2.29566">
        <ele>60.8</ele>
        <time>2023-09-13T08:18:09Z</time>
      </trkpt>
      <trkpt lat="49.8336" lon="2.29568">
        <ele>60.8</ele>
        <time>2023-09-13T08:18:10Z</time>
      </trkpt>
      <trkpt lat="49.83358" lon="2.29569">
        <ele>60.7</ele>
        <time>2023-09-13T08:18:11Z</time>
      </trkpt>
      <trkpt lat="49.83358" lon="2.2957">
        <ele>60.7</ele>
        <time>2023-09-13T08:18:12Z</time>
      </trkpt>
      <trkpt lat="49.83357" lon="2.2957">
        <ele>60.7</ele>
        <time>2023-09-13T08:18:13Z</time>
      </trkpt>
      <trkpt lat="49.83356" lon="2.29571">
        <ele>60.7</ele>
        <time>2023-09-13T08:18:14Z</time>
      </trkpt>
      <trkpt lat="49.83356" lon="2.29572">
        <ele>60.6</ele>
        <time>2023-09-13T08:18:15Z</time>
      </trkpt>
      <trkpt lat="49.83355" lon="2.29573">
        <ele>60.6</ele>
        <time>2023-09-13T08:18:16Z</time>
      </trkpt>
      <trkpt lat="49.83354" lon="2.29574">
        <ele>60.5</ele>
        <time>2023-09-13T08:18:17Z</time>
      </trkpt>
      <trkpt lat="49.83353" lon="2.29575">
        <ele>60.5</ele>
        <time>2023-09-13T08:18:18Z</time>
      </trkpt>
      <trkpt lat="49.83352" lon="2.29576">
        <ele>60.5</ele>
        <time>2023-09-13T08:18:19Z</time>
      </trkpt>
      <trkpt lat="49.8335" lon="2.29578">
        <ele>60.4</ele>
        <time>2023-09-13T08:18:21Z</time>
      </trkpt>
      <trkpt lat="49.83349" lon="2.29579">
        <ele>60.4</ele>
        <time>2023-09-13T08:18:22Z</time>
      </trkpt>
      <trkpt lat="49.83347" lon="2.29581">
        <ele>60.3</ele>
        <time>2023-09-13T08:18:23Z</time>
      </trkpt>
      <trkpt lat="49.83346" lon="2.29582">
        <ele>60.3</ele>
        <time>2023-09-13T08:18:24Z</time>
      </trkpt>
      <trkpt lat="49.83344" lon="2.29583">
        <ele>60.3</ele>
        <time>2023-09-13T08:18:25Z</time>
      </trkpt>
      <trkpt lat="49.83343" lon="2.29584">
        <ele>60.2</ele>
        <time>2023-09-13T08:18:26Z</time>
      </trkpt>
      <trkpt lat="49.83341" lon="2.29586">
        <ele>60.2</ele>
        <time>2023-09-13T08:18:27Z</time>
      </trkpt>
      <trkpt lat="49.8334" lon="2.29587">
        <ele>60.2</ele>
        <time>2023-09-13T08:18:29Z</time>
      </trkpt>
      <trkpt lat="49.83339" lon="2.29588">
        <ele>60.2</ele>
        <time>2023-09-13T08:18:30Z</time>
      </trkpt>
      <trkpt lat="49.83339" lon="2.29588">
        <ele>60.1</ele>
        <time>2023-09-13T08:18:31Z</time>
      </trkpt>
      <trkpt lat="49.83338" lon="2.29589">
        <ele>60.1</ele>
        <time>2023-09-13T08:18:32Z</time>
      </trkpt>
      <trkpt lat="49.83336" lon="2.2959">
        <ele>60.1</ele>
        <time>2023-09-13T08:18:33Z</time>
      </trkpt>
      <trkpt lat="49.83335" lon="2.29591">
        <ele>60.1</ele>
        <time>2023-09-13T08:18:34Z</time>
      </trkpt>
      <trkpt lat="49.83333" lon="2.29592">
        <ele>60</ele>
        <time>2023-09-13T08:18:35Z</time>
      </trkpt>
      <trkpt lat="49.83332" lon="2.29593">
        <ele>60</ele>
        <time>2023-09-13T08:18:36Z</time>
      </trkpt>
      <trkpt lat="49.83332" lon="2.29593">
        <ele>60</ele>
        <time>2023-09-13T08:18:37Z</time>
      </trkpt>
      <trkpt lat="49.83331" lon="2.29593">
        <ele>60</ele>
        <time>2023-09-13T08:18:38Z</time>
      </trkpt>
      <trkpt lat="49.83329" lon="2.29594">
        <ele>60</ele>
        <time>2023-09-13T08:18:40Z</time>
      </trkpt>
      <trkpt lat="49.83328" lon="2.29595">
        <ele>60</ele>
        <time>2023-09-13T08:18:41Z</time>
      </trkpt>
      <trkpt lat="49.83327" lon="2.29596">
        <ele>59.9</ele>
        <time>2023-09-13T08:18:42Z</time>
      </trkpt>
      <trkpt lat="49.83326" lon="2.29597">
        <ele>59.9</ele>
        <time>2023-09-13T08:18:43Z</time>
      </trkpt>
      <trkpt lat="49.83324" lon="2.29599">
        <ele>59.9</ele>
        <time>2023-09-13T08:18:45Z</time>
      </trkpt>
      <trkpt lat="49.83323" lon="2.296">
        <ele>59.9</ele>
        <time>2023-09-13T08:18:46Z</time>
      </trkpt>
      <trkpt lat="49.83321" lon="2.29602">
        <ele>59.8</ele>
        <time>2023-09-13T08:18:47Z</time>
      </trkpt>
      <trkpt lat="49.83321" lon="2.29602">
        <ele>59.8</ele>
        <time>2023-09-13T08:18:48Z</time>
      </trkpt>
      <trkpt lat="49.8332" lon="2.29603">
        <ele>59.8</ele>
        <time>2023-09-13T08:18:49Z</time>
      </trkpt>
      <trkpt lat="49.83319" lon="2.29603">
        <ele>59.8</ele>
        <time>2023-09-13T08:18:50Z</time>
      </trkpt>
      <trkpt lat="49.83317" lon="2.29604">
        <ele>59.7</ele>
        <time>2023-09-13T08:18:51Z</time>
      </trkpt>
      <trkpt lat="49.83315" lon="2.29605">
        <ele>59.7</ele>
        <time>2023-09-13T08:18:52Z</time>
      </trkpt>
      <trkpt lat="49.83315" lon="2.29605">
        <ele>59.7</ele>
        <time>2023-09-13T08:18:54Z</time>
      </trkpt>
      <trkpt lat="49.83314" lon="2.29606">
        <ele>59.7</ele>
        <time>2023-09-13T08:18:55Z</time>
      </trkpt>
      <trkpt lat="49.83313" lon="2.29606">
        <ele>59.7</ele>
        <time>2023-09-13T08:18:56Z</time>
      </trkpt>
      <trkpt lat="49.83312" lon="2.29606">
        <ele>59.6</ele>
        <time>2023-09-13T08:18:57Z</time>
      </trkpt>
      <trkpt lat="49.83311" lon="2.29607">
        <ele>59.6</ele>
        <time>2023-09-13T08:18:58Z</time>
      </trkpt>
      <trkpt lat="49.8331" lon="2.29608">
        <ele>59.6</ele>
        <time>2023-09-13T08:18:59Z</time>
      </trkpt>
      <trkpt lat="49.83309" lon="2.29609">
        <ele>59.6</ele>
        <time>2023-09-13T08:19:01Z</time>
      </trkpt>
      <trkpt lat="49.83309" lon="2.29609">
        <ele>59.6</ele>
        <time>2023-09-13T08:19:02Z</time>
      </trkpt>
      <trkpt lat="49.83308" lon="2.2961">
        <ele>59.6</ele>
        <time>2023-09-13T08:19:03Z</time>
      </trkpt>
      <trkpt lat="49.83307" lon="2.29611">
        <ele>59.6</ele>
        <time>2023-09-13T08:19:04Z</time>
      </trkpt>
      <trkpt lat="49.83306" lon="2.29612">
        <ele>59.5</ele>
        <time>2023-09-13T08:19:05Z</time>
      </trkpt>
      <trkpt lat="49.83305" lon="2.29612">
        <ele>59.5</ele>
        <time>2023-09-13T08:19:06Z</time>
      </trkpt>
      <trkpt lat="49.83304" lon="2.29613">
        <ele>59.5</ele>
        <time>2023-09-13T08:19:08Z</time>
      </trkpt>
      <trkpt lat="49.83303" lon="2.29614">
        <ele>59.5</ele>
        <time>2023-09-13T08:19:09Z</time>
      </trkpt>
      <trkpt lat="49.83302" lon="2.29615">
        <ele>59.5</ele>
        <time>2023-09-13T08:19:10Z</time>
      </trkpt>
      <trkpt lat="49.833" lon="2.29616">
        <ele>59.5</ele>
        <time>2023-09-13T08:19:11Z</time>
      </trkpt>
      <trkpt lat="49.83298" lon="2.29617">
        <ele>59.4</ele>
        <time>2023-09-13T08:19:13Z</time>
      </trkpt>
      <trkpt lat="49.83297" lon="2.29618">
        <ele>59.4</ele>
        <time>2023-09-13T08:19:14Z</time>
      </trkpt>
      <trkpt lat="49.83296" lon="2.29619">
        <ele>59.4</ele>
        <time>2023-09-13T08:19:15Z</time>
      </trkpt>
      <trkpt lat="49.83295" lon="2.2962">
        <ele>59.4</ele>
        <time>2023-09-13T08:19:16Z</time>
      </trkpt>
      <trkpt lat="49.83294" lon="2.29621">
        <ele>59.4</ele>
        <time>2023-09-13T08:19:17Z</time>
      </trkpt>
      <trkpt lat="49.83292" lon="2.29622">
        <ele>59.4</ele>
        <time>2023-09-13T08:19:19Z</time>
      </trkpt>
      <trkpt lat="49.83291" lon="2.29622">
        <ele>59.4</ele>
        <time>2023-09-13T08:19:20Z</time>
      </trkpt>
      <trkpt lat="49.83291" lon="2.29623">
        <ele>59.4</ele>
        <time>2023-09-13T08:19:21Z</time>
      </trkpt>
      <trkpt lat="49.8329" lon="2.29624">
        <ele>59.4</ele>
        <time>2023-09-13T08:19:22Z</time>
      </trkpt>
      <trkpt lat="49.83289" lon="2.29624">
        <ele>59.4</ele>
        <time>2023-09-13T08:19:23Z</time>
      </trkpt>
      <trkpt lat="49.83286" lon="2.29626">
        <ele>59.3</ele>
        <time>2023-09-13T08:19:24Z</time>
      </trkpt>
      <trkpt lat="49.83285" lon="2.29626">
        <ele>59.3</ele>
        <time>2023-09-13T08:19:26Z</time>
      </trkpt>
      <trkpt lat="49.83284" lon="2.29627">
        <ele>59.3</ele>
        <time>2023-09-13T08:19:27Z</time>
      </trkpt>
      <trkpt lat="49.83283" lon="2.29627">
        <ele>59.3</ele>
        <time>2023-09-13T08:19:28Z</time>
      </trkpt>
      <trkpt lat="49.83282" lon="2.29628">
        <ele>59.3</ele>
        <time>2023-09-13T08:19:29Z</time>
      </trkpt>
      <trkpt lat="49.83281" lon="2.29628">
        <ele>59.3</ele>
        <time>2023-09-13T08:19:30Z</time>
      </trkpt>
      <trkpt lat="49.8328" lon="2.29629">
        <ele>59.3</ele>
        <time>2023-09-13T08:19:31Z</time>
      </trkpt>
      <trkpt lat="49.83279" lon="2.29629">
        <ele>59.3</ele>
        <time>2023-09-13T08:19:32Z</time>
      </trkpt>
      <trkpt lat="49.83277" lon="2.2963">
        <ele>59.3</ele>
        <time>2023-09-13T08:19:34Z</time>
      </trkpt>
      <trkpt lat="49.83276" lon="2.2963">
        <ele>59.3</ele>
        <time>2023-09-13T08:19:35Z</time>
      </trkpt>
      <trkpt lat="49.83275" lon="2.29631">
        <ele>59.2</ele>
        <time>2023-09-13T08:19:36Z</time>
      </trkpt>
      <trkpt lat="49.83274" lon="2.29631">
        <ele>59.2</ele>
        <time>2023-09-13T08:19:37Z</time>
      </trkpt>
      <trkpt lat="49.83273" lon="2.29632">
        <ele>59.2</ele>
        <time>2023-09-13T08:19:38Z</time>
      </trkpt>
      <trkpt lat="49.83271" lon="2.29633">
        <ele>59.2</ele>
        <time>2023-09-13T08:19:40Z</time>
      </trkpt>
      <trkpt lat="49.8327" lon="2.29634">
        <ele>59.2</ele>
        <time>2023-09-13T08:19:41Z</time>
      </trkpt>
      <trkpt lat="49.83269" lon="2.29634">
        <ele>59.2</ele>
        <time>2023-09-13T08:19:42Z</time>
      </trkpt>
      <trkpt lat="49.83267" lon="2.29636">
        <ele>59.2</ele>
        <time>2023-09-13T08:19:43Z</time>
      </trkpt>
      <trkpt lat="49.83266" lon="2.29636">
        <ele>59.2</ele>
        <time>2023-09-13T08:19:44Z</time>
      </trkpt>
      <trkpt lat="49.83265" lon="2.29637">
        <ele>59.2</ele>
        <time>2023-09-13T08:19:45Z</time>
      </trkpt>
      <trkpt lat="49.83263" lon="2.29638">
        <ele>59.1</ele>
        <time>2023-09-13T08:19:46Z</time>
      </trkpt>
      <trkpt lat="49.83262" lon="2.29638">
        <ele>59.1</ele>
        <time>2023-09-13T08:19:48Z</time>
      </trkpt>
      <trkpt lat="49.83261" lon="2.29639">
        <ele>59.1</ele>
        <time>2023-09-13T08:19:49Z</time>
      </trkpt>
      <trkpt lat="49.8326" lon="2.29639">
        <ele>59.1</ele>
        <time>2023-09-13T08:19:50Z</time>
      </trkpt>
      <trkpt lat="49.83259" lon="2.2964">
        <ele>59.1</ele>
        <time>2023-09-13T08:19:51Z</time>
      </trkpt>
      <trkpt lat="49.83257" lon="2.2964">
        <ele>59.1</ele>
        <time>2023-09-13T08:19:53Z</time>
      </trkpt>
      <trkpt lat="49.83256" lon="2.2964">
        <ele>59.1</ele>
        <time>2023-09-13T08:19:54Z</time>
      </trkpt>
      <trkpt lat="49.83256" lon="2.2964">
        <ele>59.1</ele>
        <time>2023-09-13T08:19:55Z</time>
      </trkpt>
      <trkpt lat="49.83255" lon="2.2964">
        <ele>59.1</ele>
        <time>2023-09-13T08:19:56Z</time>
      </trkpt>
      <trkpt lat="49.83254" lon="2.29641">
        <ele>59.1</ele>
        <time>2023-09-13T08:19:57Z</time>
      </trkpt>
      <trkpt lat="49.83253" lon="2.29642">
        <ele>59.1</ele>
        <time>2023-09-13T08:19:58Z</time>
      </trkpt>
      <trkpt lat="49.83253" lon="2.29643">
        <ele>59.1</ele>
        <time>2023-09-13T08:19:59Z</time>
      </trkpt>
      <trkpt lat="49.83252" lon="2.29643">
        <ele>59.1</ele>
        <time>2023-09-13T08:20:01Z</time>
      </trkpt>
      <trkpt lat="49.83251" lon="2.29644">
        <ele>59.1</ele>
        <time>2023-09-13T08:20:02Z</time>
      </trkpt>
      <trkpt lat="49.8325" lon="2.29644">
        <ele>59.1</ele>
        <time>2023-09-13T08:20:03Z</time>
      </trkpt>
      <trkpt lat="49.83249" lon="2.29645">
        <ele>59</ele>
        <time>2023-09-13T08:20:04Z</time>
      </trkpt>
      <trkpt lat="49.83248" lon="2.29645">
        <ele>59</ele>
        <time>2023-09-13T08:20:05Z</time>
      </trkpt>
      <trkpt lat="49.83248" lon="2.29646">
        <ele>59</ele>
        <time>2023-09-13T08:20:06Z</time>
      </trkpt>
      <trkpt lat="49.83246" lon="2.29646">
        <ele>59</ele>
        <time>2023-09-13T08:20:07Z</time>
      </trkpt>
      <trkpt lat="49.83245" lon="2.29647">
        <ele>59</ele>
        <time>2023-09-13T08:20:09Z</time>
      </trkpt>
      <trkpt lat="49.83244" lon="2.29647">
        <ele>59</ele>
        <time>2023-09-13T08:20:10Z</time>
      </trkpt>
      <trkpt lat="49.83243" lon="2.29648">
        <ele>59</ele>
        <time>2023-09-13T08:20:11Z</time>
      </trkpt>
      <trkpt lat="49.83241" lon="2.29648">
        <ele>59</ele>
        <time>2023-09-13T08:20:13Z</time>
      </trkpt>
      <trkpt lat="49.8324" lon="2.29649">
        <ele>59</ele>
        <time>2023-09-13T08:20:14Z</time>
      </trkpt>
      <trkpt lat="49.83239" lon="2.29649">
        <ele>59</ele>
        <time>2023-09-13T08:20:15Z</time>
      </trkpt>
      <trkpt lat="49.83238" lon="2.29649">
        <ele>59</ele>
        <time>2023-09-13T08:20:16Z</time>
      </trkpt>
      <trkpt lat="49.83236" lon="2.2965">
        <ele>59</ele>
        <time>2023-09-13T08:20:17Z</time>
      </trkpt>
      <trkpt lat="49.83235" lon="2.2965">
        <ele>59</ele>
        <time>2023-09-13T08:20:18Z</time>
      </trkpt>
      <trkpt lat="49.83234" lon="2.2965">
        <ele>59</ele>
        <time>2023-09-13T08:20:19Z</time>
      </trkpt>
      <trkpt lat="49.83233" lon="2.29651">
        <ele>59</ele>
        <time>2023-09-13T08:20:20Z</time>
      </trkpt>
      <trkpt lat="49.83231" lon="2.29651">
        <ele>59</ele>
        <time>2023-09-13T08:20:22Z</time>
      </trkpt>
      <trkpt lat="49.8323" lon="2.29652">
        <ele>59</ele>
        <time>2023-09-13T08:20:23Z</time>
      </trkpt>
      <trkpt lat="49.83228" lon="2.29653">
        <ele>59</ele>
        <time>2023-09-13T08:20:24Z</time>
      </trkpt>
      <trkpt lat="49.83227" lon="2.29654">
        <ele>59</ele>
        <time>2023-09-13T08:20:25Z</time>
      </trkpt>
      <trkpt lat="49.83226" lon="2.29654">
        <ele>59</ele>
        <time>2023-09-13T08:20:26Z</time>
      </trkpt>
      <trkpt lat="49.83225" lon="2.29654">
        <ele>59</ele>
        <time>2023-09-13T08:20:27Z</time>
      </trkpt>
      <trkpt lat="49.83224" lon="2.29655">
        <ele>59</ele>
        <time>2023-09-13T08:20:28Z</time>
      </trkpt>
      <trkpt lat="49.83222" lon="2.29656">
        <ele>59</ele>
        <time>2023-09-13T08:20:30Z</time>
      </trkpt>
      <trkpt lat="49.83221" lon="2.29656">
        <ele>59</ele>
        <time>2023-09-13T08:20:31Z</time>
      </trkpt>
      <trkpt lat="49.8322" lon="2.29656">
        <ele>58.9</ele>
        <time>2023-09-13T08:20:32Z</time>
      </trkpt>
      <trkpt lat="49.83219" lon="2.29657">
        <ele>58.9</ele>
        <time>2023-09-13T08:20:33Z</time>
      </trkpt>
      <trkpt lat="49.83217" lon="2.29658">
        <ele>58.9</ele>
        <time>2023-09-13T08:20:34Z</time>
      </trkpt>
      <trkpt lat="49.83216" lon="2.29658">
        <ele>58.9</ele>
        <time>2023-09-13T08:20:35Z</time>
      </trkpt>
      <trkpt lat="49.83215" lon="2.29659">
        <ele>58.9</ele>
        <time>2023-09-13T08:20:36Z</time>
      </trkpt>
      <trkpt lat="49.83213" lon="2.29659">
        <ele>58.9</ele>
        <time>2023-09-13T08:20:37Z</time>
      </trkpt>
      <trkpt lat="49.83212" lon="2.2966">
        <ele>58.9</ele>
        <time>2023-09-13T08:20:38Z</time>
      </trkpt>
      <trkpt lat="49.83211" lon="2.2966">
        <ele>58.8</ele>
        <time>2023-09-13T08:20:39Z</time>
      </trkpt>
      <trkpt lat="49.8321" lon="2.2966">
        <ele>58.8</ele>
        <time>2023-09-13T08:20:41Z</time>
      </trkpt>
      <trkpt lat="49.83208" lon="2.2966">
        <ele>58.8</ele>
        <time>2023-09-13T08:20:42Z</time>
      </trkpt>
      <trkpt lat="49.83207" lon="2.29661">
        <ele>58.8</ele>
        <time>2023-09-13T08:20:43Z</time>
      </trkpt>
      <trkpt lat="49.83205" lon="2.29661">
        <ele>58.8</ele>
        <time>2023-09-13T08:20:44Z</time>
      </trkpt>
      <trkpt lat="49.83203" lon="2.29661">
        <ele>58.7</ele>
        <time>2023-09-13T08:20:45Z</time>
      </trkpt>
      <trkpt lat="49.83202" lon="2.29662">
        <ele>58.7</ele>
        <time>2023-09-13T08:20:46Z</time>
      </trkpt>
      <trkpt lat="49.83202" lon="2.29662">
        <ele>58.7</ele>
        <time>2023-09-13T08:20:47Z</time>
      </trkpt>
      <trkpt lat="49.832" lon="2.29662">
        <ele>58.7</ele>
        <time>2023-09-13T08:20:49Z</time>
      </trkpt>
      <trkpt lat="49.83199" lon="2.29663">
        <ele>58.7</ele>
        <time>2023-09-13T08:20:50Z</time>
      </trkpt>
      <trkpt lat="49.83197" lon="2.29664">
        <ele>58.6</ele>
        <time>2023-09-13T08:20:51Z</time>
      </trkpt>
      <trkpt lat="49.83196" lon="2.29664">
        <ele>58.6</ele>
        <time>2023-09-13T08:20:52Z</time>
      </trkpt>
      <trkpt lat="49.83194" lon="2.29665">
        <ele>58.6</ele>
        <time>2023-09-13T08:20:53Z</time>
      </trkpt>
      <trkpt lat="49.83193" lon="2.29665">
        <ele>58.6</ele>
        <time>2023-09-13T08:20:54Z</time>
      </trkpt>
      <trkpt lat="49.83192" lon="2.29666">
        <ele>58.6</ele>
        <time>2023-09-13T08:20:55Z</time>
      </trkpt>
      <trkpt lat="49.8319" lon="2.29666">
        <ele>58.6</ele>
        <time>2023-09-13T08:20:57Z</time>
      </trkpt>
      <trkpt lat="49.83189" lon="2.29667">
        <ele>58.6</ele>
        <time>2023-09-13T08:20:58Z</time>
      </trkpt>
      <trkpt lat="49.83187" lon="2.29667">
        <ele>58.6</ele>
        <time>2023-09-13T08:20:59Z</time>
      </trkpt>
      <trkpt lat="49.83185" lon="2.29667">
        <ele>58.6</ele>
        <time>2023-09-13T08:21:00Z</time>
      </trkpt>
      <trkpt lat="49.83184" lon="2.29667">
        <ele>58.6</ele>
        <time>2023-09-13T08:21:01Z</time>
      </trkpt>
      <trkpt lat="49.83184" lon="2.29668">
        <ele>58.6</ele>
        <time>2023-09-13T08:21:02Z</time>
      </trkpt>
      <trkpt lat="49.83182" lon="2.29668">
        <ele>58.6</ele>
        <time>2023-09-13T08:21:03Z</time>
      </trkpt>
      <trkpt lat="49.83181" lon="2.29669">
        <ele>58.5</ele>
        <time>2023-09-13T08:21:05Z</time>
      </trkpt>
      <trkpt lat="49.83179" lon="2.29669">
        <ele>58.5</ele>
        <time>2023-09-13T08:21:06Z</time>
      </trkpt>
      <trkpt lat="49.83178" lon="2.2967">
        <ele>58.5</ele>
        <time>2023-09-13T08:21:07Z</time>
      </trkpt>
      <trkpt lat="49.83177" lon="2.29671">
        <ele>58.5</ele>
        <time>2023-09-13T08:21:08Z</time>
      </trkpt>
      <trkpt lat="49.83175" lon="2.29671">
        <ele>58.5</ele>
        <time>2023-09-13T08:21:09Z</time>
      </trkpt>
      <trkpt lat="49.83173" lon="2.29672">
        <ele>58.5</ele>
        <time>2023-09-13T08:21:10Z</time>
      </trkpt>
      <trkpt lat="49.83172" lon="2.29672">
        <ele>58.5</ele>
        <time>2023-09-13T08:21:11Z</time>
      </trkpt>
      <trkpt lat="49.83171" lon="2.29673">
        <ele>58.5</ele>
        <time>2023-09-13T08:21:12Z</time>
      </trkpt>
      <trkpt lat="49.8317" lon="2.29673">
        <ele>58.5</ele>
        <time>2023-09-13T08:21:13Z</time>
      </trkpt>
      <trkpt lat="49.83169" lon="2.29674">
        <ele>58.5</ele>
        <time>2023-09-13T08:21:14Z</time>
      </trkpt>
      <trkpt lat="49.83168" lon="2.29674">
        <ele>58.5</ele>
        <time>2023-09-13T08:21:15Z</time>
      </trkpt>
      <trkpt lat="49.83167" lon="2.29675">
        <ele>58.5</ele>
        <time>2023-09-13T08:21:17Z</time>
      </trkpt>
      <trkpt lat="49.83166" lon="2.29675">
        <ele>58.5</ele>
        <time>2023-09-13T08:21:18Z</time>
      </trkpt>
      <trkpt lat="49.83165" lon="2.29675">
        <ele>58.5</ele>
        <time>2023-09-13T08:21:19Z</time>
      </trkpt>
      <trkpt lat="49.83163" lon="2.29676">
        <ele>58.5</ele>
        <time>2023-09-13T08:21:20Z</time>
      </trkpt>
      <trkpt lat="49.83162" lon="2.29676">
        <ele>58.5</ele>
        <time>2023-09-13T08:21:21Z</time>
      </trkpt>
      <trkpt lat="49.83161" lon="2.29676">
        <ele>58.5</ele>
        <time>2023-09-13T08:21:22Z</time>
      </trkpt>
      <trkpt lat="49.8316" lon="2.29677">
        <ele>58.5</ele>
        <time>2023-09-13T08:21:23Z</time>
      </trkpt>
      <trkpt lat="49.83159" lon="2.29677">
        <ele>58.5</ele>
        <time>2023-09-13T08:21:24Z</time>
      </trkpt>
      <trkpt lat="49.83158" lon="2.29677">
        <ele>58.5</ele>
        <time>2023-09-13T08:21:25Z</time>
      </trkpt>
      <trkpt lat="49.83157" lon="2.29678">
        <ele>58.5</ele>
        <time>2023-09-13T08:21:27Z</time>
      </trkpt>
      <trkpt lat="49.83156" lon="2.29678">
        <ele>58.5</ele>
        <time>2023-09-13T08:21:28Z</time>
      </trkpt>
      <trkpt lat="49.83155" lon="2.29679">
        <ele>58.5</ele>
        <time>2023-09-13T08:21:29Z</time>
      </trkpt>
      <trkpt lat="49.83154" lon="2.29679">
        <ele>58.5</ele>
        <time>2023-09-13T08:21:30Z</time>
      </trkpt>
      <trkpt lat="49.83153" lon="2.2968">
        <ele>58.5</ele>
        <time>2023-09-13T08:21:31Z</time>
      </trkpt>
      <trkpt lat="49.83151" lon="2.29681">
        <ele>58.5</ele>
        <time>2023-09-13T08:21:32Z</time>
      </trkpt>
      <trkpt lat="49.8315" lon="2.29681">
        <ele>58.5</ele>
        <time>2023-09-13T08:21:33Z</time>
      </trkpt>
      <trkpt lat="49.83149" lon="2.29682">
        <ele>58.5</ele>
        <time>2023-09-13T08:21:34Z</time>
      </trkpt>
      <trkpt lat="49.83148" lon="2.29683">
        <ele>58.5</ele>
        <time>2023-09-13T08:21:36Z</time>
      </trkpt>
      <trkpt lat="49.83146" lon="2.29683">
        <ele>58.4</ele>
        <time>2023-09-13T08:21:37Z</time>
      </trkpt>
      <trkpt lat="49.83145" lon="2.29683">
        <ele>58.4</ele>
        <time>2023-09-13T08:21:38Z</time>
      </trkpt>
      <trkpt lat="49.83144" lon="2.29683">
        <ele>58.4</ele>
        <time>2023-09-13T08:21:39Z</time>
      </trkpt>
      <trkpt lat="49.83143" lon="2.29683">
        <ele>58.4</ele>
        <time>2023-09-13T08:21:40Z</time>
      </trkpt>
      <trkpt lat="49.83142" lon="2.29684">
        <ele>58.4</ele>
        <time>2023-09-13T08:21:41Z</time>
      </trkpt>
      <trkpt lat="49.83141" lon="2.29683">
        <ele>58.4</ele>
        <time>2023-09-13T08:21:42Z</time>
      </trkpt>
      <trkpt lat="49.8314" lon="2.29683">
        <ele>58.4</ele>
        <time>2023-09-13T08:21:43Z</time>
      </trkpt>
      <trkpt lat="49.83139" lon="2.29683">
        <ele>58.4</ele>
        <time>2023-09-13T08:21:45Z</time>
      </trkpt>
      <trkpt lat="49.83138" lon="2.29683">
        <ele>58.4</ele>
        <time>2023-09-13T08:21:46Z</time>
      </trkpt>
      <trkpt lat="49.83136" lon="2.29683">
        <ele>58.4</ele>
        <time>2023-09-13T08:21:47Z</time>
      </trkpt>
      <trkpt lat="49.83135" lon="2.29684">
        <ele>58.4</ele>
        <time>2023-09-13T08:21:48Z</time>
      </trkpt>
      <trkpt lat="49.83134" lon="2.29684">
        <ele>58.4</ele>
        <time>2023-09-13T08:21:49Z</time>
      </trkpt>
      <trkpt lat="49.83132" lon="2.29685">
        <ele>58.4</ele>
        <time>2023-09-13T08:21:50Z</time>
      </trkpt>
      <trkpt lat="49.83131" lon="2.29685">
        <ele>58.4</ele>
        <time>2023-09-13T08:21:51Z</time>
      </trkpt>
      <trkpt lat="49.8313" lon="2.29685">
        <ele>58.4</ele>
        <time>2023-09-13T08:21:52Z</time>
      </trkpt>
      <trkpt lat="49.83127" lon="2.29685">
        <ele>58.4</ele>
        <time>2023-09-13T08:21:54Z</time>
      </trkpt>
      <trkpt lat="49.83127" lon="2.29686">
        <ele>58.4</ele>
        <time>2023-09-13T08:21:55Z</time>
      </trkpt>
      <trkpt lat="49.83126" lon="2.29686">
        <ele>58.4</ele>
        <time>2023-09-13T08:21:56Z</time>
      </trkpt>
      <trkpt lat="49.83125" lon="2.29686">
        <ele>58.4</ele>
        <time>2023-09-13T08:21:57Z</time>
      </trkpt>
      <trkpt lat="49.83124" lon="2.29686">
        <ele>58.4</ele>
        <time>2023-09-13T08:21:58Z</time>
      </trkpt>
      <trkpt lat="49.83123" lon="2.29687">
        <ele>58.4</ele>
        <time>2023-09-13T08:21:59Z</time>
      </trkpt>
      <trkpt lat="49.83121" lon="2.29688">
        <ele>58.4</ele>
        <time>2023-09-13T08:22:00Z</time>
      </trkpt>
      <trkpt lat="49.8312" lon="2.29689">
        <ele>58.4</ele>
        <time>2023-09-13T08:22:01Z</time>
      </trkpt>
      <trkpt lat="49.83119" lon="2.29689">
        <ele>58.4</ele>
        <time>2023-09-13T08:22:03Z</time>
      </trkpt>
      <trkpt lat="49.83118" lon="2.2969">
        <ele>58.4</ele>
        <time>2023-09-13T08:22:04Z</time>
      </trkpt>
      <trkpt lat="49.83117" lon="2.29691">
        <ele>58.5</ele>
        <time>2023-09-13T08:22:05Z</time>
      </trkpt>
      <trkpt lat="49.83116" lon="2.29691">
        <ele>58.5</ele>
        <time>2023-09-13T08:22:06Z</time>
      </trkpt>
      <trkpt lat="49.83115" lon="2.29692">
        <ele>58.5</ele>
        <time>2023-09-13T08:22:07Z</time>
      </trkpt>
      <trkpt lat="49.83113" lon="2.29693">
        <ele>58.5</ele>
        <time>2023-09-13T08:22:08Z</time>
      </trkpt>
      <trkpt lat="49.83112" lon="2.29693">
        <ele>58.5</ele>
        <time>2023-09-13T08:22:09Z</time>
      </trkpt>
      <trkpt lat="49.83111" lon="2.29694">
        <ele>58.5</ele>
        <time>2023-09-13T08:22:10Z</time>
      </trkpt>
      <trkpt lat="49.83109" lon="2.29694">
        <ele>58.5</ele>
        <time>2023-09-13T08:22:12Z</time>
      </trkpt>
      <trkpt lat="49.83108" lon="2.29694">
        <ele>58.5</ele>
        <time>2023-09-13T08:22:13Z</time>
      </trkpt>
      <trkpt lat="49.83107" lon="2.29693">
        <ele>58.5</ele>
        <time>2023-09-13T08:22:14Z</time>
      </trkpt>
      <trkpt lat="49.83106" lon="2.29693">
        <ele>58.5</ele>
        <time>2023-09-13T08:22:15Z</time>
      </trkpt>
      <trkpt lat="49.83105" lon="2.29691">
        <ele>58.5</ele>
        <time>2023-09-13T08:22:16Z</time>
      </trkpt>
      <trkpt lat="49.83104" lon="2.2969">
        <ele>58.5</ele>
        <time>2023-09-13T08:22:17Z</time>
      </trkpt>
      <trkpt lat="49.83103" lon="2.29688">
        <ele>58.5</ele>
        <time>2023-09-13T08:22:19Z</time>
      </trkpt>
      <trkpt lat="49.83102" lon="2.29686">
        <ele>58.5</ele>
        <time>2023-09-13T08:22:20Z</time>
      </trkpt>
      <trkpt lat="49.83102" lon="2.29685">
        <ele>58.5</ele>
        <time>2023-09-13T08:22:21Z</time>
      </trkpt>
      <trkpt lat="49.83101" lon="2.29683">
        <ele>58.5</ele>
        <time>2023-09-13T08:22:22Z</time>
      </trkpt>
      <trkpt lat="49.83101" lon="2.29681">
        <ele>58.5</ele>
        <time>2023-09-13T08:22:23Z</time>
      </trkpt>
      <trkpt lat="49.831" lon="2.29679">
        <ele>58.5</ele>
        <time>2023-09-13T08:22:24Z</time>
      </trkpt>
      <trkpt lat="49.83099" lon="2.29676">
        <ele>58.6</ele>
        <time>2023-09-13T08:22:25Z</time>
      </trkpt>
      <trkpt lat="49.83098" lon="2.29672">
        <ele>58.6</ele>
        <time>2023-09-13T08:22:26Z</time>
      </trkpt>
      <trkpt lat="49.83098" lon="2.29671">
        <ele>58.6</ele>
        <time>2023-09-13T08:22:28Z</time>
      </trkpt>
      <trkpt lat="49.83097" lon="2.29669">
        <ele>58.6</ele>
        <time>2023-09-13T08:22:29Z</time>
      </trkpt>
      <trkpt lat="49.83097" lon="2.29668">
        <ele>58.6</ele>
        <time>2023-09-13T08:22:30Z</time>
      </trkpt>
      <trkpt lat="49.83096" lon="2.29666">
        <ele>58.6</ele>
        <time>2023-09-13T08:22:31Z</time>
      </trkpt>
      <trkpt lat="49.83095" lon="2.29663">
        <ele>58.6</ele>
        <time>2023-09-13T08:22:32Z</time>
      </trkpt>
      <trkpt lat="49.83095" lon="2.29662">
        <ele>58.6</ele>
        <time>2023-09-13T08:22:34Z</time>
      </trkpt>
      <trkpt lat="49.83095" lon="2.29661">
        <ele>58.6</ele>
        <time>2023-09-13T08:22:35Z</time>
      </trkpt>
      <trkpt lat="49.83094" lon="2.29658">
        <ele>58.6</ele>
        <time>2023-09-13T08:22:36Z</time>
      </trkpt>
      <trkpt lat="49.83093" lon="2.29656">
        <ele>58.6</ele>
        <time>2023-09-13T08:22:37Z</time>
      </trkpt>
      <trkpt lat="49.83093" lon="2.29655">
        <ele>58.6</ele>
        <time>2023-09-13T08:22:38Z</time>
      </trkpt>
      <trkpt lat="49.83092" lon="2.29653">
        <ele>58.6</ele>
        <time>2023-09-13T08:22:39Z</time>
      </trkpt>
      <trkpt lat="49.83091" lon="2.29652">
        <ele>58.6</ele>
        <time>2023-09-13T08:22:40Z</time>
      </trkpt>
      <trkpt lat="49.8309" lon="2.29649">
        <ele>58.7</ele>
        <time>2023-09-13T08:22:42Z</time>
      </trkpt>
      <trkpt lat="49.8309" lon="2.29647">
        <ele>58.7</ele>
        <time>2023-09-13T08:22:43Z</time>
      </trkpt>
      <trkpt lat="49.83089" lon="2.29645">
        <ele>58.7</ele>
        <time>2023-09-13T08:22:45Z</time>
      </trkpt>
      <trkpt lat="49.83088" lon="2.29643">
        <ele>58.7</ele>
        <time>2023-09-13T08:22:46Z</time>
      </trkpt>
      <trkpt lat="49.83087" lon="2.29641">
        <ele>58.8</ele>
        <time>2023-09-13T08:22:47Z</time>
      </trkpt>
      <trkpt lat="49.83086" lon="2.2964">
        <ele>58.8</ele>
        <time>2023-09-13T08:22:48Z</time>
      </trkpt>
      <trkpt lat="49.83086" lon="2.29639">
        <ele>58.8</ele>
        <time>2023-09-13T08:22:49Z</time>
      </trkpt>
      <trkpt lat="49.83085" lon="2.29637">
        <ele>58.9</ele>
        <time>2023-09-13T08:22:51Z</time>
      </trkpt>
      <trkpt lat="49.83084" lon="2.29636">
        <ele>58.9</ele>
        <time>2023-09-13T08:22:52Z</time>
      </trkpt>
      <trkpt lat="49.83083" lon="2.29633">
        <ele>58.9</ele>
        <time>2023-09-13T08:22:53Z</time>
      </trkpt>
      <trkpt lat="49.83082" lon="2.29632">
        <ele>59</ele>
        <time>2023-09-13T08:22:54Z</time>
      </trkpt>
      <trkpt lat="49.8308" lon="2.2963">
        <ele>59</ele>
        <time>2023-09-13T08:22:55Z</time>
      </trkpt>
      <trkpt lat="49.8308" lon="2.29629">
        <ele>59</ele>
        <time>2023-09-13T08:22:56Z</time>
      </trkpt>
      <trkpt lat="49.83079" lon="2.29628">
        <ele>59</ele>
        <time>2023-09-13T08:22:57Z</time>
      </trkpt>
      <trkpt lat="49.83078" lon="2.29626">
        <ele>59</ele>
        <time>2023-09-13T08:22:58Z</time>
      </trkpt>
      <trkpt lat="49.83078" lon="2.29624">
        <ele>59.1</ele>
        <time>2023-09-13T08:22:59Z</time>
      </trkpt>
      <trkpt lat="49.83076" lon="2.29621">
        <ele>59.1</ele>
        <time>2023-09-13T08:23:00Z</time>
      </trkpt>
      <trkpt lat="49.83076" lon="2.2962">
        <ele>59.1</ele>
        <time>2023-09-13T08:23:02Z</time>
      </trkpt>
      <trkpt lat="49.83075" lon="2.29618">
        <ele>59.2</ele>
        <time>2023-09-13T08:23:03Z</time>
      </trkpt>
      <trkpt lat="49.83074" lon="2.29617">
        <ele>59.2</ele>
        <time>2023-09-13T08:23:04Z</time>
      </trkpt>
      <trkpt lat="49.83073" lon="2.29616">
        <ele>59.2</ele>
        <time>2023-09-13T08:23:05Z</time>
      </trkpt>
      <trkpt lat="49.83072" lon="2.29614">
        <ele>59.2</ele>
        <time>2023-09-13T08:23:06Z</time>
      </trkpt>
      <trkpt lat="49.83071" lon="2.29613">
        <ele>59.2</ele>
        <time>2023-09-13T08:23:07Z</time>
      </trkpt>
      <trkpt lat="49.83071" lon="2.29612">
        <ele>59.3</ele>
        <time>2023-09-13T08:23:08Z</time>
      </trkpt>
      <trkpt lat="49.83069" lon="2.29609">
        <ele>59.3</ele>
        <time>2023-09-13T08:23:09Z</time>
      </trkpt>
      <trkpt lat="49.83069" lon="2.29608">
        <ele>59.3</ele>
        <time>2023-09-13T08:23:10Z</time>
      </trkpt>
      <trkpt lat="49.83068" lon="2.29607">
        <ele>59.3</ele>
        <time>2023-09-13T08:23:11Z</time>
      </trkpt>
      <trkpt lat="49.83067" lon="2.29606">
        <ele>59.4</ele>
        <time>2023-09-13T08:23:13Z</time>
      </trkpt>
      <trkpt lat="49.83066" lon="2.29604">
        <ele>59.4</ele>
        <time>2023-09-13T08:23:14Z</time>
      </trkpt>
      <trkpt lat="49.83066" lon="2.29603">
        <ele>59.4</ele>
        <time>2023-09-13T08:23:15Z</time>
      </trkpt>
      <trkpt lat="49.83065" lon="2.29601">
        <ele>59.4</ele>
        <time>2023-09-13T08:23:16Z</time>
      </trkpt>
      <trkpt lat="49.83064" lon="2.29599">
        <ele>59.5</ele>
        <time>2023-09-13T08:23:18Z</time>
      </trkpt>
      <trkpt lat="49.83063" lon="2.29597">
        <ele>59.5</ele>
        <time>2023-09-13T08:23:19Z</time>
      </trkpt>
      <trkpt lat="49.83062" lon="2.29596">
        <ele>59.5</ele>
        <time>2023-09-13T08:23:20Z</time>
      </trkpt>
      <trkpt lat="49.83062" lon="2.29595">
        <ele>59.6</ele>
        <time>2023-09-13T08:23:21Z</time>
      </trkpt>
      <trkpt lat="49.83061" lon="2.29592">
        <ele>59.6</ele>
        <time>2023-09-13T08:23:22Z</time>
      </trkpt>
      <trkpt lat="49.8306" lon="2.29591">
        <ele>59.7</ele>
        <time>2023-09-13T08:23:23Z</time>
      </trkpt>
      <trkpt lat="49.83059" lon="2.2959">
        <ele>59.7</ele>
        <time>2023-09-13T08:23:24Z</time>
      </trkpt>
      <trkpt lat="49.83059" lon="2.29588">
        <ele>59.7</ele>
        <time>2023-09-13T08:23:26Z</time>
      </trkpt>
      <trkpt lat="49.83058" lon="2.29586">
        <ele>59.8</ele>
        <time>2023-09-13T08:23:27Z</time>
      </trkpt>
      <trkpt lat="49.83057" lon="2.29583">
        <ele>59.8</ele>
        <time>2023-09-13T08:23:28Z</time>
      </trkpt>
      <trkpt lat="49.83056" lon="2.29582">
        <ele>59.9</ele>
        <time>2023-09-13T08:23:29Z</time>
      </trkpt>
      <trkpt lat="49.83056" lon="2.29581">
        <ele>59.9</ele>
        <time>2023-09-13T08:23:30Z</time>
      </trkpt>
      <trkpt lat="49.83055" lon="2.29578">
        <ele>60</ele>
        <time>2023-09-13T08:23:31Z</time>
      </trkpt>
      <trkpt lat="49.83055" lon="2.29576">
        <ele>60</ele>
        <time>2023-09-13T08:23:33Z</time>
      </trkpt>
      <trkpt lat="49.83054" lon="2.29575">
        <ele>60</ele>
        <time>2023-09-13T08:23:34Z</time>
      </trkpt>
      <trkpt lat="49.83053" lon="2.29572">
        <ele>60.1</ele>
        <time>2023-09-13T08:23:35Z</time>
      </trkpt>
      <trkpt lat="49.83053" lon="2.29571">
        <ele>60.2</ele>
        <time>2023-09-13T08:23:36Z</time>
      </trkpt>
      <trkpt lat="49.83052" lon="2.2957">
        <ele>60.2</ele>
        <time>2023-09-13T08:23:37Z</time>
      </trkpt>
      <trkpt lat="49.83052" lon="2.29567">
        <ele>60.3</ele>
        <time>2023-09-13T08:23:39Z</time>
      </trkpt>
      <trkpt lat="49.83051" lon="2.29565">
        <ele>60.3</ele>
        <time>2023-09-13T08:23:40Z</time>
      </trkpt>
      <trkpt lat="49.83051" lon="2.29564">
        <ele>60.4</ele>
        <time>2023-09-13T08:23:41Z</time>
      </trkpt>
      <trkpt lat="49.83051" lon="2.29563">
        <ele>60.4</ele>
        <time>2023-09-13T08:23:42Z</time>
      </trkpt>
      <trkpt lat="49.8305" lon="2.29561">
        <ele>60.5</ele>
        <time>2023-09-13T08:23:43Z</time>
      </trkpt>
      <trkpt lat="49.8305" lon="2.29559">
        <ele>60.6</ele>
        <time>2023-09-13T08:23:44Z</time>
      </trkpt>
      <trkpt lat="49.83049" lon="2.29557">
        <ele>60.6</ele>
        <time>2023-09-13T08:23:45Z</time>
      </trkpt>
      <trkpt lat="49.83049" lon="2.29556">
        <ele>60.7</ele>
        <time>2023-09-13T08:23:47Z</time>
      </trkpt>
      <trkpt lat="49.83048" lon="2.29554">
        <ele>60.7</ele>
        <time>2023-09-13T08:23:48Z</time>
      </trkpt>
      <trkpt lat="49.83048" lon="2.29552">
        <ele>60.8</ele>
        <time>2023-09-13T08:23:49Z</time>
      </trkpt>
      <trkpt lat="49.83048" lon="2.29551">
        <ele>60.9</ele>
        <time>2023-09-13T08:23:50Z</time>
      </trkpt>
      <trkpt lat="49.83048" lon="2.29549">
        <ele>60.9</ele>
        <time>2023-09-13T08:23:51Z</time>
      </trkpt>
      <trkpt lat="49.83047" lon="2.29547">
        <ele>61</ele>
        <time>2023-09-13T08:23:53Z</time>
      </trkpt>
      <trkpt lat="49.83047" lon="2.29546">
        <ele>61</ele>
        <time>2023-09-13T08:23:54Z</time>
      </trkpt>
      <trkpt lat="49.83046" lon="2.29544">
        <ele>61.1</ele>
        <time>2023-09-13T08:23:55Z</time>
      </trkpt>
      <trkpt lat="49.83046" lon="2.29543">
        <ele>61.1</ele>
        <time>2023-09-13T08:23:56Z</time>
      </trkpt>
      <trkpt lat="49.83046" lon="2.29541">
        <ele>61.2</ele>
        <time>2023-09-13T08:23:57Z</time>
      </trkpt>
      <trkpt lat="49.83045" lon="2.2954">
        <ele>61.3</ele>
        <time>2023-09-13T08:23:59Z</time>
      </trkpt>
      <trkpt lat="49.83045" lon="2.29538">
        <ele>61.4</ele>
        <time>2023-09-13T08:24:00Z</time>
      </trkpt>
      <trkpt lat="49.83044" lon="2.29536">
        <ele>61.5</ele>
        <time>2023-09-13T08:24:01Z</time>
      </trkpt>
      <trkpt lat="49.83044" lon="2.29535">
        <ele>61.5</ele>
        <time>2023-09-13T08:24:02Z</time>
      </trkpt>
      <trkpt lat="49.83043" lon="2.29531">
        <ele>61.7</ele>
        <time>2023-09-13T08:24:03Z</time>
      </trkpt>
      <trkpt lat="49.83043" lon="2.2953">
        <ele>61.8</ele>
        <time>2023-09-13T08:24:04Z</time>
      </trkpt>
      <trkpt lat="49.83043" lon="2.29528">
        <ele>61.8</ele>
        <time>2023-09-13T08:24:06Z</time>
      </trkpt>
      <trkpt lat="49.83043" lon="2.29527">
        <ele>61.9</ele>
        <time>2023-09-13T08:24:07Z</time>
      </trkpt>
      <trkpt lat="49.83043" lon="2.29525">
        <ele>62</ele>
        <time>2023-09-13T08:24:08Z</time>
      </trkpt>
      <trkpt lat="49.83043" lon="2.29524">
        <ele>62</ele>
        <time>2023-09-13T08:24:09Z</time>
      </trkpt>
      <trkpt lat="49.83042" lon="2.29521">
        <ele>62.1</ele>
        <time>2023-09-13T08:24:11Z</time>
      </trkpt>
      <trkpt lat="49.83042" lon="2.29519">
        <ele>62.3</ele>
        <time>2023-09-13T08:24:12Z</time>
      </trkpt>
      <trkpt lat="49.83042" lon="2.29516">
        <ele>62.3</ele>
        <time>2023-09-13T08:24:13Z</time>
      </trkpt>
      <trkpt lat="49.83042" lon="2.29514">
        <ele>62.4</ele>
        <time>2023-09-13T08:24:14Z</time>
      </trkpt>
      <trkpt lat="49.83041" lon="2.29512">
        <ele>62.5</ele>
        <time>2023-09-13T08:24:15Z</time>
      </trkpt>
      <trkpt lat="49.83041" lon="2.2951">
        <ele>62.6</ele>
        <time>2023-09-13T08:24:16Z</time>
      </trkpt>
      <trkpt lat="49.83041" lon="2.29508">
        <ele>62.7</ele>
        <time>2023-09-13T08:24:18Z</time>
      </trkpt>
      <trkpt lat="49.8304" lon="2.29506">
        <ele>62.8</ele>
        <time>2023-09-13T08:24:19Z</time>
      </trkpt>
      <trkpt lat="49.8304" lon="2.29504">
        <ele>62.9</ele>
        <time>2023-09-13T08:24:20Z</time>
      </trkpt>
      <trkpt lat="49.83039" lon="2.29502">
        <ele>63</ele>
        <time>2023-09-13T08:24:21Z</time>
      </trkpt>
      <trkpt lat="49.83039" lon="2.295">
        <ele>63</ele>
        <time>2023-09-13T08:24:22Z</time>
      </trkpt>
      <trkpt lat="49.83038" lon="2.29498">
        <ele>63.1</ele>
        <time>2023-09-13T08:24:23Z</time>
      </trkpt>
      <trkpt lat="49.83038" lon="2.29496">
        <ele>63.2</ele>
        <time>2023-09-13T08:24:25Z</time>
      </trkpt>
      <trkpt lat="49.83037" lon="2.29493">
        <ele>63.3</ele>
        <time>2023-09-13T08:24:26Z</time>
      </trkpt>
      <trkpt lat="49.83037" lon="2.29492">
        <ele>63.3</ele>
        <time>2023-09-13T08:24:27Z</time>
      </trkpt>
      <trkpt lat="49.83037" lon="2.29491">
        <ele>63.4</ele>
        <time>2023-09-13T08:24:28Z</time>
      </trkpt>
      <trkpt lat="49.83036" lon="2.29489">
        <ele>63.5</ele>
        <time>2023-09-13T08:24:29Z</time>
      </trkpt>
      <trkpt lat="49.83036" lon="2.29487">
        <ele>63.5</ele>
        <time>2023-09-13T08:24:30Z</time>
      </trkpt>
      <trkpt lat="49.83035" lon="2.29485">
        <ele>63.6</ele>
        <time>2023-09-13T08:24:31Z</time>
      </trkpt>
      <trkpt lat="49.83034" lon="2.29483">
        <ele>63.7</ele>
        <time>2023-09-13T08:24:33Z</time>
      </trkpt>
      <trkpt lat="49.83033" lon="2.29481">
        <ele>63.8</ele>
        <time>2023-09-13T08:24:34Z</time>
      </trkpt>
      <trkpt lat="49.83033" lon="2.29479">
        <ele>63.9</ele>
        <time>2023-09-13T08:24:35Z</time>
      </trkpt>
      <trkpt lat="49.83031" lon="2.29476">
        <ele>64</ele>
        <time>2023-09-13T08:24:36Z</time>
      </trkpt>
      <trkpt lat="49.83031" lon="2.29475">
        <ele>64</ele>
        <time>2023-09-13T08:24:37Z</time>
      </trkpt>
      <trkpt lat="49.8303" lon="2.29473">
        <ele>64.1</ele>
        <time>2023-09-13T08:24:38Z</time>
      </trkpt>
      <trkpt lat="49.8303" lon="2.29472">
        <ele>64.2</ele>
        <time>2023-09-13T08:24:39Z</time>
      </trkpt>
      <trkpt lat="49.83029" lon="2.2947">
        <ele>64.3</ele>
        <time>2023-09-13T08:24:40Z</time>
      </trkpt>
      <trkpt lat="49.83028" lon="2.29468">
        <ele>64.3</ele>
        <time>2023-09-13T08:24:42Z</time>
      </trkpt>
      <trkpt lat="49.83028" lon="2.29467">
        <ele>64.4</ele>
        <time>2023-09-13T08:24:43Z</time>
      </trkpt>
      <trkpt lat="49.83027" lon="2.29465">
        <ele>64.5</ele>
        <time>2023-09-13T08:24:44Z</time>
      </trkpt>
      <trkpt lat="49.83027" lon="2.29463">
        <ele>64.6</ele>
        <time>2023-09-13T08:24:45Z</time>
      </trkpt>
      <trkpt lat="49.83027" lon="2.29461">
        <ele>64.7</ele>
        <time>2023-09-13T08:24:46Z</time>
      </trkpt>
      <trkpt lat="49.83027" lon="2.29458">
        <ele>64.8</ele>
        <time>2023-09-13T08:24:47Z</time>
      </trkpt>
      <trkpt lat="49.83027" lon="2.29456">
        <ele>64.9</ele>
        <time>2023-09-13T08:24:48Z</time>
      </trkpt>
      <trkpt lat="49.83027" lon="2.29454">
        <ele>65</ele>
        <time>2023-09-13T08:24:49Z</time>
      </trkpt>
      <trkpt lat="49.83027" lon="2.29451">
        <ele>65.1</ele>
        <time>2023-09-13T08:24:51Z</time>
      </trkpt>
      <trkpt lat="49.83026" lon="2.29449">
        <ele>65.2</ele>
        <time>2023-09-13T08:24:52Z</time>
      </trkpt>
      <trkpt lat="49.83026" lon="2.29448">
        <ele>65.2</ele>
        <time>2023-09-13T08:24:53Z</time>
      </trkpt>
      <trkpt lat="49.83026" lon="2.29445">
        <ele>65.4</ele>
        <time>2023-09-13T08:24:54Z</time>
      </trkpt>
      <trkpt lat="49.83026" lon="2.29444">
        <ele>65.4</ele>
        <time>2023-09-13T08:24:55Z</time>
      </trkpt>
      <trkpt lat="49.83026" lon="2.29442">
        <ele>65.5</ele>
        <time>2023-09-13T08:24:56Z</time>
      </trkpt>
      <trkpt lat="49.83026" lon="2.2944">
        <ele>65.6</ele>
        <time>2023-09-13T08:24:57Z</time>
      </trkpt>
      <trkpt lat="49.83025" lon="2.29439">
        <ele>65.6</ele>
        <time>2023-09-13T08:24:59Z</time>
      </trkpt>
      <trkpt lat="49.83025" lon="2.29437">
        <ele>65.7</ele>
        <time>2023-09-13T08:25:00Z</time>
      </trkpt>
      <trkpt lat="49.83025" lon="2.29435">
        <ele>65.8</ele>
        <time>2023-09-13T08:25:01Z</time>
      </trkpt>
      <trkpt lat="49.83025" lon="2.29434">
        <ele>65.9</ele>
        <time>2023-09-13T08:25:02Z</time>
      </trkpt>
      <trkpt lat="49.83025" lon="2.29432">
        <ele>65.9</ele>
        <time>2023-09-13T08:25:03Z</time>
      </trkpt>
      <trkpt lat="49.83024" lon="2.2943">
        <ele>66</ele>
        <time>2023-09-13T08:25:04Z</time>
      </trkpt>
      <trkpt lat="49.83024" lon="2.29429">
        <ele>66.1</ele>
        <time>2023-09-13T08:25:05Z</time>
      </trkpt>
      <trkpt lat="49.83024" lon="2.29427">
        <ele>66.2</ele>
        <time>2023-09-13T08:25:07Z</time>
      </trkpt>
      <trkpt lat="49.83025" lon="2.29425">
        <ele>66.2</ele>
        <time>2023-09-13T08:25:08Z</time>
      </trkpt>
      <trkpt lat="49.83025" lon="2.29423">
        <ele>66.3</ele>
        <time>2023-09-13T08:25:09Z</time>
      </trkpt>
      <trkpt lat="49.83025" lon="2.29422">
        <ele>66.4</ele>
        <time>2023-09-13T08:25:10Z</time>
      </trkpt>
      <trkpt lat="49.83025" lon="2.29418">
        <ele>66.5</ele>
        <time>2023-09-13T08:25:11Z</time>
      </trkpt>
      <trkpt lat="49.83024" lon="2.29417">
        <ele>66.6</ele>
        <time>2023-09-13T08:25:12Z</time>
      </trkpt>
      <trkpt lat="49.83024" lon="2.29416">
        <ele>66.6</ele>
        <time>2023-09-13T08:25:13Z</time>
      </trkpt>
      <trkpt lat="49.83024" lon="2.29412">
        <ele>66.8</ele>
        <time>2023-09-13T08:25:15Z</time>
      </trkpt>
      <trkpt lat="49.83024" lon="2.29411">
        <ele>66.8</ele>
        <time>2023-09-13T08:25:16Z</time>
      </trkpt>
      <trkpt lat="49.83024" lon="2.2941">
        <ele>66.9</ele>
        <time>2023-09-13T08:25:17Z</time>
      </trkpt>
      <trkpt lat="49.83024" lon="2.29407">
        <ele>67</ele>
        <time>2023-09-13T08:25:18Z</time>
      </trkpt>
      <trkpt lat="49.83024" lon="2.29405">
        <ele>67.1</ele>
        <time>2023-09-13T08:25:19Z</time>
      </trkpt>
      <trkpt lat="49.83024" lon="2.29404">
        <ele>67.2</ele>
        <time>2023-09-13T08:25:20Z</time>
      </trkpt>
      <trkpt lat="49.83024" lon="2.29402">
        <ele>67.2</ele>
        <time>2023-09-13T08:25:21Z</time>
      </trkpt>
      <trkpt lat="49.83024" lon="2.294">
        <ele>67.3</ele>
        <time>2023-09-13T08:25:23Z</time>
      </trkpt>
      <trkpt lat="49.83024" lon="2.29399">
        <ele>67.4</ele>
        <time>2023-09-13T08:25:24Z</time>
      </trkpt>
      <trkpt lat="49.83025" lon="2.29397">
        <ele>67.5</ele>
        <time>2023-09-13T08:25:25Z</time>
      </trkpt>
      <trkpt lat="49.83024" lon="2.29395">
        <ele>67.5</ele>
        <time>2023-09-13T08:25:26Z</time>
      </trkpt>
      <trkpt lat="49.83024" lon="2.29393">
        <ele>67.6</ele>
        <time>2023-09-13T08:25:27Z</time>
      </trkpt>
      <trkpt lat="49.83024" lon="2.2939">
        <ele>67.8</ele>
        <time>2023-09-13T08:25:28Z</time>
      </trkpt>
      <trkpt lat="49.83024" lon="2.29388">
        <ele>67.8</ele>
        <time>2023-09-13T08:25:30Z</time>
      </trkpt>
      <trkpt lat="49.83024" lon="2.29387">
        <ele>67.9</ele>
        <time>2023-09-13T08:25:31Z</time>
      </trkpt>
      <trkpt lat="49.83024" lon="2.29385">
        <ele>68</ele>
        <time>2023-09-13T08:25:32Z</time>
      </trkpt>
      <trkpt lat="49.83024" lon="2.29384">
        <ele>68</ele>
        <time>2023-09-13T08:25:33Z</time>
      </trkpt>
      <trkpt lat="49.83024" lon="2.29382">
        <ele>68.1</ele>
        <time>2023-09-13T08:25:34Z</time>
      </trkpt>
      <trkpt lat="49.83024" lon="2.2938">
        <ele>68.2</ele>
        <time>2023-09-13T08:25:35Z</time>
      </trkpt>
      <trkpt lat="49.83024" lon="2.29378">
        <ele>68.3</ele>
        <time>2023-09-13T08:25:37Z</time>
      </trkpt>
      <trkpt lat="49.83024" lon="2.29376">
        <ele>68.4</ele>
        <time>2023-09-13T08:25:38Z</time>
      </trkpt>
      <trkpt lat="49.83024" lon="2.29374">
        <ele>68.4</ele>
        <time>2023-09-13T08:25:39Z</time>
      </trkpt>
      <trkpt lat="49.83024" lon="2.29373">
        <ele>68.5</ele>
        <time>2023-09-13T08:25:40Z</time>
      </trkpt>
      <trkpt lat="49.83024" lon="2.29371">
        <ele>68.6</ele>
        <time>2023-09-13T08:25:41Z</time>
      </trkpt>
      <trkpt lat="49.83024" lon="2.29369">
        <ele>68.7</ele>
        <time>2023-09-13T08:25:42Z</time>
      </trkpt>
      <trkpt lat="49.83024" lon="2.29367">
        <ele>68.7</ele>
        <time>2023-09-13T08:25:43Z</time>
      </trkpt>
      <trkpt lat="49.83024" lon="2.29366">
        <ele>68.8</ele>
        <time>2023-09-13T08:25:45Z</time>
      </trkpt>
      <trkpt lat="49.83024" lon="2.29364">
        <ele>68.9</ele>
        <time>2023-09-13T08:25:46Z</time>
      </trkpt>
      <trkpt lat="49.83024" lon="2.29362">
        <ele>69</ele>
        <time>2023-09-13T08:25:47Z</time>
      </trkpt>
      <trkpt lat="49.83024" lon="2.29361">
        <ele>69</ele>
        <time>2023-09-13T08:25:48Z</time>
      </trkpt>
      <trkpt lat="49.83023" lon="2.29359">
        <ele>69.1</ele>
        <time>2023-09-13T08:25:49Z</time>
      </trkpt>
      <trkpt lat="49.83023" lon="2.29357">
        <ele>69.2</ele>
        <time>2023-09-13T08:25:51Z</time>
      </trkpt>
      <trkpt lat="49.83023" lon="2.29356">
        <ele>69.3</ele>
        <time>2023-09-13T08:25:52Z</time>
      </trkpt>
      <trkpt lat="49.83022" lon="2.29354">
        <ele>69.3</ele>
        <time>2023-09-13T08:25:53Z</time>
      </trkpt>
      <trkpt lat="49.83022" lon="2.29353">
        <ele>69.4</ele>
        <time>2023-09-13T08:25:54Z</time>
      </trkpt>
      <trkpt lat="49.83021" lon="2.29352">
        <ele>69.5</ele>
        <time>2023-09-13T08:25:55Z</time>
      </trkpt>
      <trkpt lat="49.8302" lon="2.29349">
        <ele>69.6</ele>
        <time>2023-09-13T08:25:56Z</time>
      </trkpt>
      <trkpt lat="49.8302" lon="2.29348">
        <ele>69.7</ele>
        <time>2023-09-13T08:25:57Z</time>
      </trkpt>
      <trkpt lat="49.83019" lon="2.29347">
        <ele>69.8</ele>
        <time>2023-09-13T08:25:58Z</time>
      </trkpt>
      <trkpt lat="49.83018" lon="2.29345">
        <ele>69.8</ele>
        <time>2023-09-13T08:25:59Z</time>
      </trkpt>
      <trkpt lat="49.83018" lon="2.29343">
        <ele>69.9</ele>
        <time>2023-09-13T08:26:00Z</time>
      </trkpt>
      <trkpt lat="49.83018" lon="2.29341">
        <ele>70</ele>
        <time>2023-09-13T08:26:02Z</time>
      </trkpt>
      <trkpt lat="49.83017" lon="2.2934">
        <ele>70.1</ele>
        <time>2023-09-13T08:26:03Z</time>
      </trkpt>
      <trkpt lat="49.83017" lon="2.29338">
        <ele>70.2</ele>
        <time>2023-09-13T08:26:04Z</time>
      </trkpt>
      <trkpt lat="49.83016" lon="2.29336">
        <ele>70.3</ele>
        <time>2023-09-13T08:26:05Z</time>
      </trkpt>
      <trkpt lat="49.83016" lon="2.29335">
        <ele>70.3</ele>
        <time>2023-09-13T08:26:06Z</time>
      </trkpt>
      <trkpt lat="49.83015" lon="2.29333">
        <ele>70.4</ele>
        <time>2023-09-13T08:26:07Z</time>
      </trkpt>
      <trkpt lat="49.83014" lon="2.29332">
        <ele>70.5</ele>
        <time>2023-09-13T08:26:09Z</time>
      </trkpt>
      <trkpt lat="49.83012" lon="2.2933">
        <ele>70.7</ele>
        <time>2023-09-13T08:26:10Z</time>
      </trkpt>
      <trkpt lat="49.83012" lon="2.29329">
        <ele>70.7</ele>
        <time>2023-09-13T08:26:11Z</time>
      </trkpt>
      <trkpt lat="49.83011" lon="2.29328">
        <ele>70.8</ele>
        <time>2023-09-13T08:26:12Z</time>
      </trkpt>
      <trkpt lat="49.8301" lon="2.29326">
        <ele>70.9</ele>
        <time>2023-09-13T08:26:13Z</time>
      </trkpt>
      <trkpt lat="49.83009" lon="2.29324">
        <ele>71</ele>
        <time>2023-09-13T08:26:14Z</time>
      </trkpt>
      <trkpt lat="49.83008" lon="2.29323">
        <ele>71.1</ele>
        <time>2023-09-13T08:26:15Z</time>
      </trkpt>
      <trkpt lat="49.83007" lon="2.29321">
        <ele>71.2</ele>
        <time>2023-09-13T08:26:17Z</time>
      </trkpt>
      <trkpt lat="49.83006" lon="2.2932">
        <ele>71.3</ele>
        <time>2023-09-13T08:26:18Z</time>
      </trkpt>
      <trkpt lat="49.83005" lon="2.29319">
        <ele>71.3</ele>
        <time>2023-09-13T08:26:19Z</time>
      </trkpt>
      <trkpt lat="49.83004" lon="2.29316">
        <ele>71.5</ele>
        <time>2023-09-13T08:26:20Z</time>
      </trkpt>
      <trkpt lat="49.83003" lon="2.29315">
        <ele>71.5</ele>
        <time>2023-09-13T08:26:21Z</time>
      </trkpt>
      <trkpt lat="49.83002" lon="2.29315">
        <ele>71.6</ele>
        <time>2023-09-13T08:26:22Z</time>
      </trkpt>
      <trkpt lat="49.83001" lon="2.29312">
        <ele>71.7</ele>
        <time>2023-09-13T08:26:24Z</time>
      </trkpt>
      <trkpt lat="49.83001" lon="2.29311">
        <ele>71.8</ele>
        <time>2023-09-13T08:26:25Z</time>
      </trkpt>
      <trkpt lat="49.83" lon="2.2931">
        <ele>71.8</ele>
        <time>2023-09-13T08:26:26Z</time>
      </trkpt>
      <trkpt lat="49.82999" lon="2.29308">
        <ele>71.9</ele>
        <time>2023-09-13T08:26:27Z</time>
      </trkpt>
      <trkpt lat="49.82998" lon="2.29306">
        <ele>72</ele>
        <time>2023-09-13T08:26:28Z</time>
      </trkpt>
      <trkpt lat="49.82998" lon="2.29305">
        <ele>72.1</ele>
        <time>2023-09-13T08:26:29Z</time>
      </trkpt>
      <trkpt lat="49.82997" lon="2.29303">
        <ele>72.2</ele>
        <time>2023-09-13T08:26:31Z</time>
      </trkpt>
      <trkpt lat="49.82996" lon="2.29302">
        <ele>72.2</ele>
        <time>2023-09-13T08:26:32Z</time>
      </trkpt>
      <trkpt lat="49.82996" lon="2.29301">
        <ele>72.3</ele>
        <time>2023-09-13T08:26:33Z</time>
      </trkpt>
      <trkpt lat="49.82995" lon="2.29299">
        <ele>72.4</ele>
        <time>2023-09-13T08:26:34Z</time>
      </trkpt>
      <trkpt lat="49.82994" lon="2.29298">
        <ele>72.4</ele>
        <time>2023-09-13T08:26:35Z</time>
      </trkpt>
      <trkpt lat="49.82993" lon="2.29297">
        <ele>72.5</ele>
        <time>2023-09-13T08:26:37Z</time>
      </trkpt>
      <trkpt lat="49.82992" lon="2.29297">
        <ele>72.6</ele>
        <time>2023-09-13T08:26:38Z</time>
      </trkpt>
      <trkpt lat="49.82991" lon="2.29296">
        <ele>72.6</ele>
        <time>2023-09-13T08:26:39Z</time>
      </trkpt>
      <trkpt lat="49.8299" lon="2.29296">
        <ele>72.7</ele>
        <time>2023-09-13T08:26:40Z</time>
      </trkpt>
      <trkpt lat="49.8299" lon="2.29295">
        <ele>72.8</ele>
        <time>2023-09-13T08:26:41Z</time>
      </trkpt>
      <trkpt lat="49.82989" lon="2.29294">
        <ele>72.8</ele>
        <time>2023-09-13T08:26:42Z</time>
      </trkpt>
      <trkpt lat="49.82988" lon="2.29294">
        <ele>72.9</ele>
        <time>2023-09-13T08:26:44Z</time>
      </trkpt>
      <trkpt lat="49.82987" lon="2.29294">
        <ele>72.9</ele>
        <time>2023-09-13T08:26:45Z</time>
      </trkpt>
      <trkpt lat="49.82987" lon="2.29294">
        <ele>72.9</ele>
        <time>2023-09-13T08:26:46Z</time>
      </trkpt>
      <trkpt lat="49.82986" lon="2.29294">
        <ele>73</ele>
        <time>2023-09-13T08:26:47Z</time>
      </trkpt>
      <trkpt lat="49.82985" lon="2.29294">
        <ele>73.1</ele>
        <time>2023-09-13T08:26:48Z</time>
      </trkpt>
      <trkpt lat="49.82984" lon="2.29294">
        <ele>73.1</ele>
        <time>2023-09-13T08:26:49Z</time>
      </trkpt>
      <trkpt lat="49.82983" lon="2.29293">
        <ele>73.2</ele>
        <time>2023-09-13T08:26:51Z</time>
      </trkpt>
      <trkpt lat="49.82982" lon="2.29293">
        <ele>73.2</ele>
        <time>2023-09-13T08:26:52Z</time>
      </trkpt>
      <trkpt lat="49.82981" lon="2.29293">
        <ele>73.3</ele>
        <time>2023-09-13T08:26:53Z</time>
      </trkpt>
      <trkpt lat="49.8298" lon="2.29292">
        <ele>73.3</ele>
        <time>2023-09-13T08:26:54Z</time>
      </trkpt>
      <trkpt lat="49.82979" lon="2.29292">
        <ele>73.4</ele>
        <time>2023-09-13T08:26:55Z</time>
      </trkpt>
      <trkpt lat="49.82978" lon="2.29291">
        <ele>73.5</ele>
        <time>2023-09-13T08:26:56Z</time>
      </trkpt>
      <trkpt lat="49.82977" lon="2.29291">
        <ele>73.5</ele>
        <time>2023-09-13T08:26:58Z</time>
      </trkpt>
      <trkpt lat="49.82976" lon="2.2929">
        <ele>73.6</ele>
        <time>2023-09-13T08:26:59Z</time>
      </trkpt>
      <trkpt lat="49.82975" lon="2.29289">
        <ele>73.6</ele>
        <time>2023-09-13T08:27:00Z</time>
      </trkpt>
      <trkpt lat="49.82974" lon="2.29288">
        <ele>73.7</ele>
        <time>2023-09-13T08:27:01Z</time>
      </trkpt>
      <trkpt lat="49.82973" lon="2.29287">
        <ele>73.7</ele>
        <time>2023-09-13T08:27:02Z</time>
      </trkpt>
      <trkpt lat="49.82973" lon="2.29286">
        <ele>73.8</ele>
        <time>2023-09-13T08:27:03Z</time>
      </trkpt>
      <trkpt lat="49.82972" lon="2.29285">
        <ele>73.9</ele>
        <time>2023-09-13T08:27:05Z</time>
      </trkpt>
      <trkpt lat="49.82971" lon="2.29284">
        <ele>73.9</ele>
        <time>2023-09-13T08:27:06Z</time>
      </trkpt>
      <trkpt lat="49.8297" lon="2.29283">
        <ele>74</ele>
        <time>2023-09-13T08:27:07Z</time>
      </trkpt>
      <trkpt lat="49.82969" lon="2.29281">
        <ele>74</ele>
        <time>2023-09-13T08:27:08Z</time>
      </trkpt>
      <trkpt lat="49.82968" lon="2.2928">
        <ele>74.1</ele>
        <time>2023-09-13T08:27:09Z</time>
      </trkpt>
      <trkpt lat="49.82967" lon="2.29279">
        <ele>74.1</ele>
        <time>2023-09-13T08:27:10Z</time>
      </trkpt>
      <trkpt lat="49.82966" lon="2.29276">
        <ele>74.2</ele>
        <time>2023-09-13T08:27:12Z</time>
      </trkpt>
      <trkpt lat="49.82965" lon="2.29276">
        <ele>74.3</ele>
        <time>2023-09-13T08:27:13Z</time>
      </trkpt>
      <trkpt lat="49.82964" lon="2.29275">
        <ele>74.3</ele>
        <time>2023-09-13T08:27:14Z</time>
      </trkpt>
      <trkpt lat="49.82964" lon="2.29274">
        <ele>74.4</ele>
        <time>2023-09-13T08:27:15Z</time>
      </trkpt>
      <trkpt lat="49.82963" lon="2.29273">
        <ele>74.4</ele>
        <time>2023-09-13T08:27:16Z</time>
      </trkpt>
      <trkpt lat="49.82963" lon="2.29273">
        <ele>74.4</ele>
        <time>2023-09-13T08:27:17Z</time>
      </trkpt>
      <trkpt lat="49.82962" lon="2.29272">
        <ele>74.5</ele>
        <time>2023-09-13T08:27:18Z</time>
      </trkpt>
      <trkpt lat="49.8296" lon="2.2927">
        <ele>74.6</ele>
        <time>2023-09-13T08:27:19Z</time>
      </trkpt>
      <trkpt lat="49.82959" lon="2.29269">
        <ele>74.6</ele>
        <time>2023-09-13T08:27:20Z</time>
      </trkpt>
      <trkpt lat="49.82959" lon="2.29268">
        <ele>74.6</ele>
        <time>2023-09-13T08:27:22Z</time>
      </trkpt>
      <trkpt lat="49.82958" lon="2.29267">
        <ele>74.7</ele>
        <time>2023-09-13T08:27:23Z</time>
      </trkpt>
      <trkpt lat="49.82957" lon="2.29266">
        <ele>74.7</ele>
        <time>2023-09-13T08:27:24Z</time>
      </trkpt>
      <trkpt lat="49.82957" lon="2.29264">
        <ele>74.8</ele>
        <time>2023-09-13T08:27:25Z</time>
      </trkpt>
      <trkpt lat="49.82955" lon="2.29262">
        <ele>74.9</ele>
        <time>2023-09-13T08:27:26Z</time>
      </trkpt>
      <trkpt lat="49.82954" lon="2.29261">
        <ele>74.9</ele>
        <time>2023-09-13T08:27:27Z</time>
      </trkpt>
      <trkpt lat="49.82953" lon="2.2926">
        <ele>75</ele>
        <time>2023-09-13T08:27:28Z</time>
      </trkpt>
      <trkpt lat="49.82952" lon="2.29259">
        <ele>75</ele>
        <time>2023-09-13T08:27:30Z</time>
      </trkpt>
      <trkpt lat="49.82951" lon="2.29257">
        <ele>75.1</ele>
        <time>2023-09-13T08:27:31Z</time>
      </trkpt>
      <trkpt lat="49.82949" lon="2.29254">
        <ele>75.3</ele>
        <time>2023-09-13T08:27:32Z</time>
      </trkpt>
      <trkpt lat="49.82949" lon="2.29253">
        <ele>75.3</ele>
        <time>2023-09-13T08:27:33Z</time>
      </trkpt>
      <trkpt lat="49.82947" lon="2.29251">
        <ele>75.4</ele>
        <time>2023-09-13T08:27:34Z</time>
      </trkpt>
      <trkpt lat="49.82946" lon="2.29249">
        <ele>75.5</ele>
        <time>2023-09-13T08:27:35Z</time>
      </trkpt>
      <trkpt lat="49.82944" lon="2.29246">
        <ele>75.7</ele>
        <time>2023-09-13T08:27:37Z</time>
      </trkpt>
      <trkpt lat="49.82943" lon="2.29246">
        <ele>75.7</ele>
        <time>2023-09-13T08:27:38Z</time>
      </trkpt>
      <trkpt lat="49.82942" lon="2.29244">
        <ele>75.8</ele>
        <time>2023-09-13T08:27:39Z</time>
      </trkpt>
      <trkpt lat="49.8294" lon="2.29242">
        <ele>75.9</ele>
        <time>2023-09-13T08:27:40Z</time>
      </trkpt>
      <trkpt lat="49.82939" lon="2.2924">
        <ele>76</ele>
        <time>2023-09-13T08:27:41Z</time>
      </trkpt>
      <trkpt lat="49.82938" lon="2.29238">
        <ele>76.2</ele>
        <time>2023-09-13T08:27:42Z</time>
      </trkpt>
      <trkpt lat="49.82935" lon="2.29236">
        <ele>76.3</ele>
        <time>2023-09-13T08:27:43Z</time>
      </trkpt>
      <trkpt lat="49.82935" lon="2.29235">
        <ele>76.4</ele>
        <time>2023-09-13T08:27:45Z</time>
      </trkpt>
      <trkpt lat="49.82934" lon="2.29235">
        <ele>76.4</ele>
        <time>2023-09-13T08:27:46Z</time>
      </trkpt>
      <trkpt lat="49.82933" lon="2.29234">
        <ele>76.5</ele>
        <time>2023-09-13T08:27:47Z</time>
      </trkpt>
      <trkpt lat="49.82932" lon="2.29233">
        <ele>76.5</ele>
        <time>2023-09-13T08:27:48Z</time>
      </trkpt>
      <trkpt lat="49.8293" lon="2.29232">
        <ele>76.7</ele>
        <time>2023-09-13T08:27:49Z</time>
      </trkpt>
      <trkpt lat="49.82929" lon="2.29231">
        <ele>76.7</ele>
        <time>2023-09-13T08:27:50Z</time>
      </trkpt>
      <trkpt lat="49.82928" lon="2.2923">
        <ele>76.8</ele>
        <time>2023-09-13T08:27:51Z</time>
      </trkpt>
      <trkpt lat="49.82927" lon="2.29229">
        <ele>76.9</ele>
        <time>2023-09-13T08:27:53Z</time>
      </trkpt>
      <trkpt lat="49.82926" lon="2.29228">
        <ele>77</ele>
        <time>2023-09-13T08:27:54Z</time>
      </trkpt>
      <trkpt lat="49.82924" lon="2.29227">
        <ele>77.1</ele>
        <time>2023-09-13T08:27:55Z</time>
      </trkpt>
      <trkpt lat="49.82923" lon="2.29227">
        <ele>77.1</ele>
        <time>2023-09-13T08:27:56Z</time>
      </trkpt>
      <trkpt lat="49.82922" lon="2.29227">
        <ele>77.2</ele>
        <time>2023-09-13T08:27:57Z</time>
      </trkpt>
      <trkpt lat="49.82921" lon="2.29226">
        <ele>77.3</ele>
        <time>2023-09-13T08:27:58Z</time>
      </trkpt>
      <trkpt lat="49.8292" lon="2.29226">
        <ele>77.3</ele>
        <time>2023-09-13T08:27:59Z</time>
      </trkpt>
      <trkpt lat="49.82919" lon="2.29225">
        <ele>77.4</ele>
        <time>2023-09-13T08:28:01Z</time>
      </trkpt>
      <trkpt lat="49.82918" lon="2.29224">
        <ele>77.5</ele>
        <time>2023-09-13T08:28:02Z</time>
      </trkpt>
      <trkpt lat="49.82917" lon="2.29223">
        <ele>77.6</ele>
        <time>2023-09-13T08:28:03Z</time>
      </trkpt>
      <trkpt lat="49.82916" lon="2.29223">
        <ele>77.6</ele>
        <time>2023-09-13T08:28:04Z</time>
      </trkpt>
      <trkpt lat="49.82915" lon="2.29221">
        <ele>77.7</ele>
        <time>2023-09-13T08:28:05Z</time>
      </trkpt>
      <trkpt lat="49.82913" lon="2.2922">
        <ele>77.8</ele>
        <time>2023-09-13T08:28:06Z</time>
      </trkpt>
      <trkpt lat="49.82911" lon="2.29219">
        <ele>77.9</ele>
        <time>2023-09-13T08:28:08Z</time>
      </trkpt>
      <trkpt lat="49.82911" lon="2.29218">
        <ele>78</ele>
        <time>2023-09-13T08:28:09Z</time>
      </trkpt>
      <trkpt lat="49.8291" lon="2.29218">
        <ele>78</ele>
        <time>2023-09-13T08:28:10Z</time>
      </trkpt>
      <trkpt lat="49.82909" lon="2.29217">
        <ele>78.1</ele>
        <time>2023-09-13T08:28:11Z</time>
      </trkpt>
      <trkpt lat="49.82908" lon="2.29217">
        <ele>78.2</ele>
        <time>2023-09-13T08:28:12Z</time>
      </trkpt>
      <trkpt lat="49.82907" lon="2.29216">
        <ele>78.2</ele>
        <time>2023-09-13T08:28:14Z</time>
      </trkpt>
      <trkpt lat="49.82906" lon="2.29215">
        <ele>78.3</ele>
        <time>2023-09-13T08:28:15Z</time>
      </trkpt>
      <trkpt lat="49.82905" lon="2.29214">
        <ele>78.4</ele>
        <time>2023-09-13T08:28:16Z</time>
      </trkpt>
      <trkpt lat="49.82905" lon="2.29214">
        <ele>78.4</ele>
        <time>2023-09-13T08:28:17Z</time>
      </trkpt>
      <trkpt lat="49.82903" lon="2.29213">
        <ele>78.5</ele>
        <time>2023-09-13T08:28:19Z</time>
      </trkpt>
      <trkpt lat="49.82903" lon="2.29212">
        <ele>78.6</ele>
        <time>2023-09-13T08:28:20Z</time>
      </trkpt>
      <trkpt lat="49.82902" lon="2.2921">
        <ele>78.7</ele>
        <time>2023-09-13T08:28:21Z</time>
      </trkpt>
      <trkpt lat="49.82901" lon="2.2921">
        <ele>78.7</ele>
        <time>2023-09-13T08:28:22Z</time>
      </trkpt>
      <trkpt lat="49.829" lon="2.29209">
        <ele>78.8</ele>
        <time>2023-09-13T08:28:23Z</time>
      </trkpt>
      <trkpt lat="49.82899" lon="2.29208">
        <ele>78.9</ele>
        <time>2023-09-13T08:28:24Z</time>
      </trkpt>
      <trkpt lat="49.82899" lon="2.29207">
        <ele>78.9</ele>
        <time>2023-09-13T08:28:25Z</time>
      </trkpt>
      <trkpt lat="49.82898" lon="2.29206">
        <ele>79</ele>
        <time>2023-09-13T08:28:27Z</time>
      </trkpt>
      <trkpt lat="49.82897" lon="2.29205">
        <ele>79.1</ele>
        <time>2023-09-13T08:28:28Z</time>
      </trkpt>
      <trkpt lat="49.82897" lon="2.29204">
        <ele>79.1</ele>
        <time>2023-09-13T08:28:29Z</time>
      </trkpt>
      <trkpt lat="49.82896" lon="2.29204">
        <ele>79.2</ele>
        <time>2023-09-13T08:28:30Z</time>
      </trkpt>
      <trkpt lat="49.82895" lon="2.29203">
        <ele>79.2</ele>
        <time>2023-09-13T08:28:31Z</time>
      </trkpt>
      <trkpt lat="49.82894" lon="2.29203">
        <ele>79.3</ele>
        <time>2023-09-13T08:28:33Z</time>
      </trkpt>
      <trkpt lat="49.82893" lon="2.29202">
        <ele>79.4</ele>
        <time>2023-09-13T08:28:34Z</time>
      </trkpt>
      <trkpt lat="49.82892" lon="2.29202">
        <ele>79.4</ele>
        <time>2023-09-13T08:28:35Z</time>
      </trkpt>
      <trkpt lat="49.82891" lon="2.29201">
        <ele>79.5</ele>
        <time>2023-09-13T08:28:36Z</time>
      </trkpt>
      <trkpt lat="49.8289" lon="2.29201">
        <ele>79.6</ele>
        <time>2023-09-13T08:28:37Z</time>
      </trkpt>
      <trkpt lat="49.82889" lon="2.292">
        <ele>79.6</ele>
        <time>2023-09-13T08:28:38Z</time>
      </trkpt>
      <trkpt lat="49.82888" lon="2.29199">
        <ele>79.7</ele>
        <time>2023-09-13T08:28:39Z</time>
      </trkpt>
      <trkpt lat="49.82887" lon="2.29199">
        <ele>79.8</ele>
        <time>2023-09-13T08:28:40Z</time>
      </trkpt>
      <trkpt lat="49.82886" lon="2.29199">
        <ele>79.9</ele>
        <time>2023-09-13T08:28:41Z</time>
      </trkpt>
      <trkpt lat="49.82885" lon="2.29198">
        <ele>79.9</ele>
        <time>2023-09-13T08:28:42Z</time>
      </trkpt>
      <trkpt lat="49.82884" lon="2.29198">
        <ele>80</ele>
        <time>2023-09-13T08:28:44Z</time>
      </trkpt>
      <trkpt lat="49.82883" lon="2.29198">
        <ele>80.1</ele>
        <time>2023-09-13T08:28:45Z</time>
      </trkpt>
      <trkpt lat="49.82882" lon="2.29197">
        <ele>80.1</ele>
        <time>2023-09-13T08:28:46Z</time>
      </trkpt>
      <trkpt lat="49.82881" lon="2.29196">
        <ele>80.2</ele>
        <time>2023-09-13T08:28:47Z</time>
      </trkpt>
      <trkpt lat="49.8288" lon="2.29195">
        <ele>80.3</ele>
        <time>2023-09-13T08:28:48Z</time>
      </trkpt>
      <trkpt lat="49.82879" lon="2.29195">
        <ele>80.4</ele>
        <time>2023-09-13T08:28:50Z</time>
      </trkpt>
      <trkpt lat="49.82877" lon="2.29194">
        <ele>80.5</ele>
        <time>2023-09-13T08:28:51Z</time>
      </trkpt>
      <trkpt lat="49.82876" lon="2.29193">
        <ele>80.5</ele>
        <time>2023-09-13T08:28:52Z</time>
      </trkpt>
      <trkpt lat="49.82875" lon="2.29193">
        <ele>80.6</ele>
        <time>2023-09-13T08:28:53Z</time>
      </trkpt>
      <trkpt lat="49.82874" lon="2.29192">
        <ele>80.7</ele>
        <time>2023-09-13T08:28:54Z</time>
      </trkpt>
      <trkpt lat="49.82873" lon="2.29191">
        <ele>80.8</ele>
        <time>2023-09-13T08:28:56Z</time>
      </trkpt>
      <trkpt lat="49.82872" lon="2.2919">
        <ele>80.8</ele>
        <time>2023-09-13T08:28:57Z</time>
      </trkpt>
      <trkpt lat="49.82871" lon="2.2919">
        <ele>80.9</ele>
        <time>2023-09-13T08:28:58Z</time>
      </trkpt>
      <trkpt lat="49.8287" lon="2.29189">
        <ele>81</ele>
        <time>2023-09-13T08:28:59Z</time>
      </trkpt>
      <trkpt lat="49.82869" lon="2.29188">
        <ele>81</ele>
        <time>2023-09-13T08:29:01Z</time>
      </trkpt>
      <trkpt lat="49.82868" lon="2.29187">
        <ele>81.1</ele>
        <time>2023-09-13T08:29:02Z</time>
      </trkpt>
      <trkpt lat="49.82868" lon="2.29187">
        <ele>81.1</ele>
        <time>2023-09-13T08:29:03Z</time>
      </trkpt>
      <trkpt lat="49.82867" lon="2.29186">
        <ele>81.2</ele>
        <time>2023-09-13T08:29:04Z</time>
      </trkpt>
      <trkpt lat="49.82866" lon="2.29185">
        <ele>81.3</ele>
        <time>2023-09-13T08:29:05Z</time>
      </trkpt>
      <trkpt lat="49.82865" lon="2.29184">
        <ele>81.3</ele>
        <time>2023-09-13T08:29:07Z</time>
      </trkpt>
      <trkpt lat="49.82864" lon="2.29183">
        <ele>81.4</ele>
        <time>2023-09-13T08:29:08Z</time>
      </trkpt>
      <trkpt lat="49.82863" lon="2.29182">
        <ele>81.5</ele>
        <time>2023-09-13T08:29:09Z</time>
      </trkpt>
      <trkpt lat="49.82862" lon="2.29181">
        <ele>81.5</ele>
        <time>2023-09-13T08:29:10Z</time>
      </trkpt>
      <trkpt lat="49.82861" lon="2.2918">
        <ele>81.6</ele>
        <time>2023-09-13T08:29:11Z</time>
      </trkpt>
      <trkpt lat="49.8286" lon="2.29179">
        <ele>81.7</ele>
        <time>2023-09-13T08:29:12Z</time>
      </trkpt>
      <trkpt lat="49.82859" lon="2.29178">
        <ele>81.7</ele>
        <time>2023-09-13T08:29:14Z</time>
      </trkpt>
      <trkpt lat="49.82858" lon="2.29177">
        <ele>81.8</ele>
        <time>2023-09-13T08:29:15Z</time>
      </trkpt>
      <trkpt lat="49.82857" lon="2.29176">
        <ele>81.9</ele>
        <time>2023-09-13T08:29:16Z</time>
      </trkpt>
      <trkpt lat="49.82856" lon="2.29175">
        <ele>81.9</ele>
        <time>2023-09-13T08:29:17Z</time>
      </trkpt>
      <trkpt lat="49.82855" lon="2.29174">
        <ele>82</ele>
        <time>2023-09-13T08:29:18Z</time>
      </trkpt>
      <trkpt lat="49.82854" lon="2.29173">
        <ele>82.1</ele>
        <time>2023-09-13T08:29:19Z</time>
      </trkpt>
      <trkpt lat="49.82853" lon="2.29172">
        <ele>82.1</ele>
        <time>2023-09-13T08:29:21Z</time>
      </trkpt>
      <trkpt lat="49.82852" lon="2.29172">
        <ele>82.2</ele>
        <time>2023-09-13T08:29:22Z</time>
      </trkpt>
      <trkpt lat="49.82851" lon="2.29171">
        <ele>82.2</ele>
        <time>2023-09-13T08:29:23Z</time>
      </trkpt>
      <trkpt lat="49.8285" lon="2.2917">
        <ele>82.3</ele>
        <time>2023-09-13T08:29:24Z</time>
      </trkpt>
      <trkpt lat="49.82849" lon="2.29167">
        <ele>82.4</ele>
        <time>2023-09-13T08:29:25Z</time>
      </trkpt>
      <trkpt lat="49.82848" lon="2.29167">
        <ele>82.4</ele>
        <time>2023-09-13T08:29:26Z</time>
      </trkpt>
      <trkpt lat="49.82848" lon="2.29166">
        <ele>82.5</ele>
        <time>2023-09-13T08:29:27Z</time>
      </trkpt>
      <trkpt lat="49.82847" lon="2.29164">
        <ele>82.5</ele>
        <time>2023-09-13T08:29:28Z</time>
      </trkpt>
      <trkpt lat="49.82846" lon="2.29162">
        <ele>82.6</ele>
        <time>2023-09-13T08:29:29Z</time>
      </trkpt>
      <trkpt lat="49.82845" lon="2.29161">
        <ele>82.7</ele>
        <time>2023-09-13T08:29:31Z</time>
      </trkpt>
      <trkpt lat="49.82844" lon="2.29159">
        <ele>82.7</ele>
        <time>2023-09-13T08:29:32Z</time>
      </trkpt>
      <trkpt lat="49.82843" lon="2.29158">
        <ele>82.8</ele>
        <time>2023-09-13T08:29:33Z</time>
      </trkpt>
      <trkpt lat="49.82842" lon="2.29157">
        <ele>82.8</ele>
        <time>2023-09-13T08:29:34Z</time>
      </trkpt>
      <trkpt lat="49.82841" lon="2.29156">
        <ele>82.9</ele>
        <time>2023-09-13T08:29:35Z</time>
      </trkpt>
      <trkpt lat="49.8284" lon="2.29155">
        <ele>82.9</ele>
        <time>2023-09-13T08:29:36Z</time>
      </trkpt>
      <trkpt lat="49.82838" lon="2.29152">
        <ele>83</ele>
        <time>2023-09-13T08:29:37Z</time>
      </trkpt>
      <trkpt lat="49.82838" lon="2.29151">
        <ele>83.1</ele>
        <time>2023-09-13T08:29:39Z</time>
      </trkpt>
      <trkpt lat="49.82837" lon="2.2915">
        <ele>83.1</ele>
        <time>2023-09-13T08:29:40Z</time>
      </trkpt>
      <trkpt lat="49.82836" lon="2.29148">
        <ele>83.1</ele>
        <time>2023-09-13T08:29:41Z</time>
      </trkpt>
      <trkpt lat="49.82836" lon="2.29147">
        <ele>83.2</ele>
        <time>2023-09-13T08:29:42Z</time>
      </trkpt>
      <trkpt lat="49.82835" lon="2.29146">
        <ele>83.2</ele>
        <time>2023-09-13T08:29:43Z</time>
      </trkpt>
      <trkpt lat="49.82834" lon="2.29144">
        <ele>83.3</ele>
        <time>2023-09-13T08:29:44Z</time>
      </trkpt>
      <trkpt lat="49.82832" lon="2.29142">
        <ele>83.4</ele>
        <time>2023-09-13T08:29:46Z</time>
      </trkpt>
      <trkpt lat="49.82831" lon="2.2914">
        <ele>83.4</ele>
        <time>2023-09-13T08:29:47Z</time>
      </trkpt>
      <trkpt lat="49.8283" lon="2.29139">
        <ele>83.5</ele>
        <time>2023-09-13T08:29:48Z</time>
      </trkpt>
      <trkpt lat="49.8283" lon="2.29138">
        <ele>83.5</ele>
        <time>2023-09-13T08:29:49Z</time>
      </trkpt>
      <trkpt lat="49.82829" lon="2.29137">
        <ele>83.5</ele>
        <time>2023-09-13T08:29:50Z</time>
      </trkpt>
      <trkpt lat="49.82828" lon="2.29135">
        <ele>83.6</ele>
        <time>2023-09-13T08:29:52Z</time>
      </trkpt>
      <trkpt lat="49.82828" lon="2.29134">
        <ele>83.6</ele>
        <time>2023-09-13T08:29:53Z</time>
      </trkpt>
      <trkpt lat="49.82827" lon="2.29133">
        <ele>83.6</ele>
        <time>2023-09-13T08:29:54Z</time>
      </trkpt>
      <trkpt lat="49.82826" lon="2.29131">
        <ele>83.7</ele>
        <time>2023-09-13T08:29:55Z</time>
      </trkpt>
      <trkpt lat="49.82826" lon="2.2913">
        <ele>83.7</ele>
        <time>2023-09-13T08:29:56Z</time>
      </trkpt>
      <trkpt lat="49.82825" lon="2.29129">
        <ele>83.7</ele>
        <time>2023-09-13T08:29:57Z</time>
      </trkpt>
      <trkpt lat="49.82825" lon="2.29128">
        <ele>83.8</ele>
        <time>2023-09-13T08:29:58Z</time>
      </trkpt>
      <trkpt lat="49.82824" lon="2.29126">
        <ele>83.8</ele>
        <time>2023-09-13T08:29:59Z</time>
      </trkpt>
      <trkpt lat="49.82823" lon="2.29124">
        <ele>83.8</ele>
        <time>2023-09-13T08:30:01Z</time>
      </trkpt>
      <trkpt lat="49.82822" lon="2.29123">
        <ele>83.9</ele>
        <time>2023-09-13T08:30:02Z</time>
      </trkpt>
      <trkpt lat="49.82822" lon="2.29122">
        <ele>83.9</ele>
        <time>2023-09-13T08:30:03Z</time>
      </trkpt>
      <trkpt lat="49.8282" lon="2.29119">
        <ele>83.9</ele>
        <time>2023-09-13T08:30:04Z</time>
      </trkpt>
      <trkpt lat="49.8282" lon="2.29119">
        <ele>84</ele>
        <time>2023-09-13T08:30:05Z</time>
      </trkpt>
      <trkpt lat="49.82819" lon="2.29118">
        <ele>84</ele>
        <time>2023-09-13T08:30:06Z</time>
      </trkpt>
      <trkpt lat="49.82818" lon="2.29115">
        <ele>84</ele>
        <time>2023-09-13T08:30:07Z</time>
      </trkpt>
      <trkpt lat="49.82817" lon="2.29115">
        <ele>84.1</ele>
        <time>2023-09-13T08:30:09Z</time>
      </trkpt>
      <trkpt lat="49.82817" lon="2.29114">
        <ele>84.1</ele>
        <time>2023-09-13T08:30:10Z</time>
      </trkpt>
      <trkpt lat="49.82816" lon="2.29112">
        <ele>84.1</ele>
        <time>2023-09-13T08:30:11Z</time>
      </trkpt>
      <trkpt lat="49.82815" lon="2.29111">
        <ele>84.1</ele>
        <time>2023-09-13T08:30:12Z</time>
      </trkpt>
      <trkpt lat="49.82815" lon="2.2911">
        <ele>84.2</ele>
        <time>2023-09-13T08:30:13Z</time>
      </trkpt>
      <trkpt lat="49.82814" lon="2.29109">
        <ele>84.2</ele>
        <time>2023-09-13T08:30:14Z</time>
      </trkpt>
      <trkpt lat="49.82814" lon="2.29107">
        <ele>84.2</ele>
        <time>2023-09-13T08:30:15Z</time>
      </trkpt>
      <trkpt lat="49.82813" lon="2.29105">
        <ele>84.2</ele>
        <time>2023-09-13T08:30:17Z</time>
      </trkpt>
      <trkpt lat="49.82812" lon="2.29102">
        <ele>84.3</ele>
        <time>2023-09-13T08:30:18Z</time>
      </trkpt>
      <trkpt lat="49.82811" lon="2.29101">
        <ele>84.3</ele>
        <time>2023-09-13T08:30:19Z</time>
      </trkpt>
      <trkpt lat="49.82811" lon="2.291">
        <ele>84.3</ele>
        <time>2023-09-13T08:30:20Z</time>
      </trkpt>
      <trkpt lat="49.8281" lon="2.29098">
        <ele>84.3</ele>
        <time>2023-09-13T08:30:21Z</time>
      </trkpt>
      <trkpt lat="49.8281" lon="2.29096">
        <ele>84.4</ele>
        <time>2023-09-13T08:30:22Z</time>
      </trkpt>
      <trkpt lat="49.82809" lon="2.29095">
        <ele>84.4</ele>
        <time>2023-09-13T08:30:23Z</time>
      </trkpt>
      <trkpt lat="49.82808" lon="2.29093">
        <ele>84.4</ele>
        <time>2023-09-13T08:30:25Z</time>
      </trkpt>
      <trkpt lat="49.82808" lon="2.29092">
        <ele>84.4</ele>
        <time>2023-09-13T08:30:26Z</time>
      </trkpt>
      <trkpt lat="49.82807" lon="2.2909">
        <ele>84.5</ele>
        <time>2023-09-13T08:30:27Z</time>
      </trkpt>
      <trkpt lat="49.82807" lon="2.29089">
        <ele>84.5</ele>
        <time>2023-09-13T08:30:28Z</time>
      </trkpt>
      <trkpt lat="49.82806" lon="2.29087">
        <ele>84.5</ele>
        <time>2023-09-13T08:30:29Z</time>
      </trkpt>
      <trkpt lat="49.82805" lon="2.29085">
        <ele>84.6</ele>
        <time>2023-09-13T08:30:30Z</time>
      </trkpt>
      <trkpt lat="49.82804" lon="2.29083">
        <ele>84.6</ele>
        <time>2023-09-13T08:30:31Z</time>
      </trkpt>
      <trkpt lat="49.82804" lon="2.29081">
        <ele>84.6</ele>
        <time>2023-09-13T08:30:33Z</time>
      </trkpt>
      <trkpt lat="49.82803" lon="2.29079">
        <ele>84.7</ele>
        <time>2023-09-13T08:30:34Z</time>
      </trkpt>
      <trkpt lat="49.82803" lon="2.29078">
        <ele>84.7</ele>
        <time>2023-09-13T08:30:35Z</time>
      </trkpt>
      <trkpt lat="49.82802" lon="2.29076">
        <ele>84.7</ele>
        <time>2023-09-13T08:30:36Z</time>
      </trkpt>
      <trkpt lat="49.82802" lon="2.29075">
        <ele>84.7</ele>
        <time>2023-09-13T08:30:37Z</time>
      </trkpt>
      <trkpt lat="49.82801" lon="2.29072">
        <ele>84.8</ele>
        <time>2023-09-13T08:30:39Z</time>
      </trkpt>
      <trkpt lat="49.828" lon="2.2907">
        <ele>84.8</ele>
        <time>2023-09-13T08:30:40Z</time>
      </trkpt>
      <trkpt lat="49.828" lon="2.29069">
        <ele>84.8</ele>
        <time>2023-09-13T08:30:41Z</time>
      </trkpt>
      <trkpt lat="49.828" lon="2.29067">
        <ele>84.9</ele>
        <time>2023-09-13T08:30:42Z</time>
      </trkpt>
      <trkpt lat="49.82799" lon="2.29066">
        <ele>84.9</ele>
        <time>2023-09-13T08:30:43Z</time>
      </trkpt>
      <trkpt lat="49.82799" lon="2.29064">
        <ele>84.9</ele>
        <time>2023-09-13T08:30:44Z</time>
      </trkpt>
      <trkpt lat="49.82798" lon="2.29063">
        <ele>84.9</ele>
        <time>2023-09-13T08:30:46Z</time>
      </trkpt>
      <trkpt lat="49.82798" lon="2.29061">
        <ele>85</ele>
        <time>2023-09-13T08:30:47Z</time>
      </trkpt>
      <trkpt lat="49.82797" lon="2.29059">
        <ele>85</ele>
        <time>2023-09-13T08:30:48Z</time>
      </trkpt>
      <trkpt lat="49.82797" lon="2.29058">
        <ele>85</ele>
        <time>2023-09-13T08:30:49Z</time>
      </trkpt>
      <trkpt lat="49.82797" lon="2.29057">
        <ele>85</ele>
        <time>2023-09-13T08:30:50Z</time>
      </trkpt>
      <trkpt lat="49.82796" lon="2.29055">
        <ele>85</ele>
        <time>2023-09-13T08:30:51Z</time>
      </trkpt>
      <trkpt lat="49.82796" lon="2.29054">
        <ele>85.1</ele>
        <time>2023-09-13T08:30:52Z</time>
      </trkpt>
      <trkpt lat="49.82795" lon="2.29053">
        <ele>85.1</ele>
        <time>2023-09-13T08:30:53Z</time>
      </trkpt>
      <trkpt lat="49.82794" lon="2.29051">
        <ele>85.1</ele>
        <time>2023-09-13T08:30:54Z</time>
      </trkpt>
      <trkpt lat="49.82794" lon="2.29049">
        <ele>85.1</ele>
        <time>2023-09-13T08:30:55Z</time>
      </trkpt>
      <trkpt lat="49.82793" lon="2.29048">
        <ele>85.2</ele>
        <time>2023-09-13T08:30:57Z</time>
      </trkpt>
      <trkpt lat="49.82793" lon="2.29046">
        <ele>85.2</ele>
        <time>2023-09-13T08:30:58Z</time>
      </trkpt>
      <trkpt lat="49.82792" lon="2.29043">
        <ele>85.2</ele>
        <time>2023-09-13T08:30:59Z</time>
      </trkpt>
      <trkpt lat="49.82791" lon="2.29042">
        <ele>85.2</ele>
        <time>2023-09-13T08:31:00Z</time>
      </trkpt>
      <trkpt lat="49.82791" lon="2.29041">
        <ele>85.2</ele>
        <time>2023-09-13T08:31:01Z</time>
      </trkpt>
      <trkpt lat="49.82789" lon="2.2904">
        <ele>85.3</ele>
        <time>2023-09-13T08:31:03Z</time>
      </trkpt>
      <trkpt lat="49.82789" lon="2.29038">
        <ele>85.3</ele>
        <time>2023-09-13T08:31:04Z</time>
      </trkpt>
      <trkpt lat="49.82788" lon="2.29036">
        <ele>85.3</ele>
        <time>2023-09-13T08:31:05Z</time>
      </trkpt>
      <trkpt lat="49.82787" lon="2.29035">
        <ele>85.4</ele>
        <time>2023-09-13T08:31:06Z</time>
      </trkpt>
      <trkpt lat="49.82786" lon="2.29033">
        <ele>85.4</ele>
        <time>2023-09-13T08:31:07Z</time>
      </trkpt>
      <trkpt lat="49.82785" lon="2.29031">
        <ele>85.4</ele>
        <time>2023-09-13T08:31:08Z</time>
      </trkpt>
      <trkpt lat="49.82785" lon="2.29029">
        <ele>85.4</ele>
        <time>2023-09-13T08:31:09Z</time>
      </trkpt>
      <trkpt lat="49.82784" lon="2.29028">
        <ele>85.5</ele>
        <time>2023-09-13T08:31:10Z</time>
      </trkpt>
      <trkpt lat="49.82784" lon="2.29026">
        <ele>85.5</ele>
        <time>2023-09-13T08:31:12Z</time>
      </trkpt>
      <trkpt lat="49.82783" lon="2.29025">
        <ele>85.5</ele>
        <time>2023-09-13T08:31:13Z</time>
      </trkpt>
      <trkpt lat="49.82783" lon="2.29023">
        <ele>85.5</ele>
        <time>2023-09-13T08:31:14Z</time>
      </trkpt>
      <trkpt lat="49.82783" lon="2.29021">
        <ele>85.6</ele>
        <time>2023-09-13T08:31:15Z</time>
      </trkpt>
      <trkpt lat="49.82782" lon="2.29018">
        <ele>85.6</ele>
        <time>2023-09-13T08:31:16Z</time>
      </trkpt>
      <trkpt lat="49.82781" lon="2.29017">
        <ele>85.6</ele>
        <time>2023-09-13T08:31:17Z</time>
      </trkpt>
      <trkpt lat="49.82781" lon="2.29016">
        <ele>85.6</ele>
        <time>2023-09-13T08:31:18Z</time>
      </trkpt>
      <trkpt lat="49.8278" lon="2.29013">
        <ele>85.7</ele>
        <time>2023-09-13T08:31:20Z</time>
      </trkpt>
      <trkpt lat="49.8278" lon="2.29012">
        <ele>85.7</ele>
        <time>2023-09-13T08:31:21Z</time>
      </trkpt>
      <trkpt lat="49.82779" lon="2.29011">
        <ele>85.7</ele>
        <time>2023-09-13T08:31:22Z</time>
      </trkpt>
      <trkpt lat="49.82778" lon="2.29008">
        <ele>85.8</ele>
        <time>2023-09-13T08:31:23Z</time>
      </trkpt>
      <trkpt lat="49.82778" lon="2.29007">
        <ele>85.8</ele>
        <time>2023-09-13T08:31:24Z</time>
      </trkpt>
      <trkpt lat="49.82778" lon="2.29006">
        <ele>85.8</ele>
        <time>2023-09-13T08:31:25Z</time>
      </trkpt>
      <trkpt lat="49.82777" lon="2.29003">
        <ele>85.9</ele>
        <time>2023-09-13T08:31:27Z</time>
      </trkpt>
      <trkpt lat="49.82777" lon="2.29002">
        <ele>85.9</ele>
        <time>2023-09-13T08:31:28Z</time>
      </trkpt>
      <trkpt lat="49.82776" lon="2.29001">
        <ele>86</ele>
        <time>2023-09-13T08:31:29Z</time>
      </trkpt>
      <trkpt lat="49.82775" lon="2.28999">
        <ele>86</ele>
        <time>2023-09-13T08:31:30Z</time>
      </trkpt>
      <trkpt lat="49.82775" lon="2.28997">
        <ele>86</ele>
        <time>2023-09-13T08:31:31Z</time>
      </trkpt>
      <trkpt lat="49.82774" lon="2.28996">
        <ele>86.1</ele>
        <time>2023-09-13T08:31:33Z</time>
      </trkpt>
      <trkpt lat="49.82774" lon="2.28994">
        <ele>86.1</ele>
        <time>2023-09-13T08:31:34Z</time>
      </trkpt>
      <trkpt lat="49.82773" lon="2.28993">
        <ele>86.1</ele>
        <time>2023-09-13T08:31:35Z</time>
      </trkpt>
      <trkpt lat="49.82773" lon="2.28992">
        <ele>86.2</ele>
        <time>2023-09-13T08:31:36Z</time>
      </trkpt>
      <trkpt lat="49.82772" lon="2.28989">
        <ele>86.2</ele>
        <time>2023-09-13T08:31:37Z</time>
      </trkpt>
      <trkpt lat="49.82771" lon="2.28988">
        <ele>86.2</ele>
        <time>2023-09-13T08:31:39Z</time>
      </trkpt>
      <trkpt lat="49.82771" lon="2.28986">
        <ele>86.3</ele>
        <time>2023-09-13T08:31:40Z</time>
      </trkpt>
      <trkpt lat="49.82771" lon="2.28985">
        <ele>86.3</ele>
        <time>2023-09-13T08:31:41Z</time>
      </trkpt>
      <trkpt lat="49.82771" lon="2.28984">
        <ele>86.3</ele>
        <time>2023-09-13T08:31:42Z</time>
      </trkpt>
      <trkpt lat="49.8277" lon="2.28982">
        <ele>86.4</ele>
        <time>2023-09-13T08:31:43Z</time>
      </trkpt>
      <trkpt lat="49.8277" lon="2.28979">
        <ele>86.4</ele>
        <time>2023-09-13T08:31:44Z</time>
      </trkpt>
      <trkpt lat="49.82769" lon="2.28978">
        <ele>86.4</ele>
        <time>2023-09-13T08:31:46Z</time>
      </trkpt>
      <trkpt lat="49.82769" lon="2.28976">
        <ele>86.5</ele>
        <time>2023-09-13T08:31:47Z</time>
      </trkpt>
      <trkpt lat="49.82768" lon="2.28975">
        <ele>86.5</ele>
        <time>2023-09-13T08:31:48Z</time>
      </trkpt>
      <trkpt lat="49.82767" lon="2.28974">
        <ele>86.5</ele>
        <time>2023-09-13T08:31:50Z</time>
      </trkpt>
      <trkpt lat="49.82767" lon="2.28973">
        <ele>86.6</ele>
        <time>2023-09-13T08:31:51Z</time>
      </trkpt>
      <trkpt lat="49.82766" lon="2.28972">
        <ele>86.6</ele>
        <time>2023-09-13T08:31:52Z</time>
      </trkpt>
      <trkpt lat="49.82766" lon="2.2897">
        <ele>86.6</ele>
        <time>2023-09-13T08:31:53Z</time>
      </trkpt>
      <trkpt lat="49.82766" lon="2.28969">
        <ele>86.6</ele>
        <time>2023-09-13T08:31:54Z</time>
      </trkpt>
      <trkpt lat="49.82765" lon="2.28968">
        <ele>86.7</ele>
        <time>2023-09-13T08:31:56Z</time>
      </trkpt>
      <trkpt lat="49.82765" lon="2.28967">
        <ele>86.7</ele>
        <time>2023-09-13T08:31:57Z</time>
      </trkpt>
      <trkpt lat="49.82764" lon="2.28966">
        <ele>86.7</ele>
        <time>2023-09-13T08:31:58Z</time>
      </trkpt>
      <trkpt lat="49.82764" lon="2.28965">
        <ele>86.7</ele>
        <time>2023-09-13T08:31:59Z</time>
      </trkpt>
      <trkpt lat="49.82763" lon="2.28963">
        <ele>86.7</ele>
        <time>2023-09-13T08:32:01Z</time>
      </trkpt>
      <trkpt lat="49.82763" lon="2.28962">
        <ele>86.7</ele>
        <time>2023-09-13T08:32:02Z</time>
      </trkpt>
      <trkpt lat="49.82763" lon="2.28961">
        <ele>86.7</ele>
        <time>2023-09-13T08:32:03Z</time>
      </trkpt>
      <trkpt lat="49.82763" lon="2.28959">
        <ele>86.8</ele>
        <time>2023-09-13T08:32:05Z</time>
      </trkpt>
      <trkpt lat="49.82763" lon="2.28958">
        <ele>86.8</ele>
        <time>2023-09-13T08:32:06Z</time>
      </trkpt>
      <trkpt lat="49.82763" lon="2.28958">
        <ele>86.8</ele>
        <time>2023-09-13T08:32:07Z</time>
      </trkpt>
      <trkpt lat="49.82764" lon="2.28958">
        <ele>86.8</ele>
        <time>2023-09-13T08:32:08Z</time>
      </trkpt>
      <trkpt lat="49.82764" lon="2.28957">
        <ele>86.8</ele>
        <time>2023-09-13T08:32:10Z</time>
      </trkpt>
      <trkpt lat="49.82764" lon="2.28957">
        <ele>86.8</ele>
        <time>2023-09-13T08:32:12Z</time>
      </trkpt>
      <trkpt lat="49.82764" lon="2.28958">
        <ele>86.8</ele>
        <time>2023-09-13T08:32:13Z</time>
      </trkpt>
      <trkpt lat="49.82764" lon="2.28958">
        <ele>86.8</ele>
        <time>2023-09-13T08:32:15Z</time>
      </trkpt>
      <trkpt lat="49.82764" lon="2.28958">
        <ele>86.8</ele>
        <time>2023-09-13T08:32:16Z</time>
      </trkpt>
      <trkpt lat="49.82765" lon="2.28958">
        <ele>86.8</ele>
        <time>2023-09-13T08:32:17Z</time>
      </trkpt>
      <trkpt lat="49.82765" lon="2.28958">
        <ele>86.8</ele>
        <time>2023-09-13T08:32:19Z</time>
      </trkpt>
      <trkpt lat="49.82765" lon="2.2896">
        <ele>86.8</ele>
        <time>2023-09-13T08:32:20Z</time>
      </trkpt>
      <trkpt lat="49.82765" lon="2.2896">
        <ele>86.8</ele>
        <time>2023-09-13T08:32:21Z</time>
      </trkpt>
      <trkpt lat="49.82765" lon="2.28961">
        <ele>86.9</ele>
        <time>2023-09-13T08:32:22Z</time>
      </trkpt>
      <trkpt lat="49.82765" lon="2.28961">
        <ele>86.9</ele>
        <time>2023-09-13T08:32:23Z</time>
      </trkpt>
      <trkpt lat="49.82765" lon="2.28961">
        <ele>86.9</ele>
        <time>2023-09-13T08:32:24Z</time>
      </trkpt>
      <trkpt lat="49.82765" lon="2.28961">
        <ele>86.9</ele>
        <time>2023-09-13T08:32:25Z</time>
      </trkpt>
      <trkpt lat="49.82765" lon="2.28961">
        <ele>86.9</ele>
        <time>2023-09-13T08:32:26Z</time>
      </trkpt>
      <trkpt lat="49.82765" lon="2.28962">
        <ele>86.9</ele>
        <time>2023-09-13T08:32:27Z</time>
      </trkpt>
      <trkpt lat="49.82765" lon="2.28962">
        <ele>86.9</ele>
        <time>2023-09-13T08:32:28Z</time>
      </trkpt>
      <trkpt lat="49.82765" lon="2.28963">
        <ele>86.9</ele>
        <time>2023-09-13T08:32:29Z</time>
      </trkpt>
      <trkpt lat="49.82765" lon="2.28963">
        <ele>86.9</ele>
        <time>2023-09-13T08:32:30Z</time>
      </trkpt>
      <trkpt lat="49.82765" lon="2.28963">
        <ele>86.9</ele>
        <time>2023-09-13T08:32:31Z</time>
      </trkpt>
      <trkpt lat="49.82765" lon="2.28964">
        <ele>86.9</ele>
        <time>2023-09-13T08:32:32Z</time>
      </trkpt>
      <trkpt lat="49.82765" lon="2.28964">
        <ele>86.9</ele>
        <time>2023-09-13T08:32:33Z</time>
      </trkpt>
      <trkpt lat="49.82765" lon="2.28964">
        <ele>86.9</ele>
        <time>2023-09-13T08:32:34Z</time>
      </trkpt>
      <trkpt lat="49.82765" lon="2.28965">
        <ele>86.9</ele>
        <time>2023-09-13T08:32:35Z</time>
      </trkpt>
      <trkpt lat="49.82765" lon="2.28965">
        <ele>86.9</ele>
        <time>2023-09-13T08:32:36Z</time>
      </trkpt>
      <trkpt lat="49.82765" lon="2.28965">
        <ele>86.9</ele>
        <time>2023-09-13T08:32:37Z</time>
      </trkpt>
      <trkpt lat="49.82765" lon="2.28966">
        <ele>86.9</ele>
        <time>2023-09-13T08:32:38Z</time>
      </trkpt>
      <trkpt lat="49.82765" lon="2.28966">
        <ele>86.9</ele>
        <time>2023-09-13T08:32:39Z</time>
      </trkpt>
      <trkpt lat="49.82766" lon="2.28966">
        <ele>86.9</ele>
        <time>2023-09-13T08:32:40Z</time>
      </trkpt>
      <trkpt lat="49.82766" lon="2.28967">
        <ele>86.9</ele>
        <time>2023-09-13T08:32:41Z</time>
      </trkpt>
      <trkpt lat="49.82766" lon="2.28967">
        <ele>86.9</ele>
        <time>2023-09-13T08:32:42Z</time>
      </trkpt>
      <trkpt lat="49.82766" lon="2.28968">
        <ele>86.9</ele>
        <time>2023-09-13T08:32:43Z</time>
      </trkpt>
      <trkpt lat="49.82766" lon="2.28968">
        <ele>86.9</ele>
        <time>2023-09-13T08:32:44Z</time>
      </trkpt>
      <trkpt lat="49.82766" lon="2.28973">
        <ele>87</ele>
        <time>2023-09-13T08:32:45Z</time>
      </trkpt>
      <trkpt lat="49.82766" lon="2.28974">
        <ele>87</ele>
        <time>2023-09-13T08:32:46Z</time>
      </trkpt>
      <trkpt lat="49.82767" lon="2.28975">
        <ele>87</ele>
        <time>2023-09-13T08:32:47Z</time>
      </trkpt>
      <trkpt lat="49.82767" lon="2.28976">
        <ele>87</ele>
        <time>2023-09-13T08:32:48Z</time>
      </trkpt>
      <trkpt lat="49.82767" lon="2.28976">
        <ele>87</ele>
        <time>2023-09-13T08:32:49Z</time>
      </trkpt>
      <trkpt lat="49.82766" lon="2.28974">
        <ele>87.1</ele>
        <time>2023-09-13T08:32:51Z</time>
      </trkpt>
      <trkpt lat="49.82766" lon="2.28976">
        <ele>87.1</ele>
        <time>2023-09-13T08:32:52Z</time>
      </trkpt>
      <trkpt lat="49.82766" lon="2.28977">
        <ele>87.1</ele>
        <time>2023-09-13T08:32:53Z</time>
      </trkpt>
      <trkpt lat="49.82766" lon="2.28979">
        <ele>87.1</ele>
        <time>2023-09-13T08:32:54Z</time>
      </trkpt>
      <trkpt lat="49.82767" lon="2.2898">
        <ele>87.1</ele>
        <time>2023-09-13T08:32:55Z</time>
      </trkpt>
      <trkpt lat="49.82767" lon="2.28981">
        <ele>87.1</ele>
        <time>2023-09-13T08:32:57Z</time>
      </trkpt>
      <trkpt lat="49.82768" lon="2.2898">
        <ele>87.2</ele>
        <time>2023-09-13T08:32:58Z</time>
      </trkpt>
      <trkpt lat="49.82768" lon="2.2898">
        <ele>87.2</ele>
        <time>2023-09-13T08:33:00Z</time>
      </trkpt>
      <trkpt lat="49.82767" lon="2.2898">
        <ele>87.2</ele>
        <time>2023-09-13T08:33:01Z</time>
      </trkpt>
      <trkpt lat="49.82767" lon="2.28979">
        <ele>87.2</ele>
        <time>2023-09-13T08:33:03Z</time>
      </trkpt>
      <trkpt lat="49.82767" lon="2.28978">
        <ele>87.2</ele>
        <time>2023-09-13T08:33:04Z</time>
      </trkpt>
      <trkpt lat="49.82766" lon="2.28978">
        <ele>87.2</ele>
        <time>2023-09-13T08:33:05Z</time>
      </trkpt>
      <trkpt lat="49.82766" lon="2.28977">
        <ele>87.2</ele>
        <time>2023-09-13T08:33:07Z</time>
      </trkpt>
      <trkpt lat="49.82766" lon="2.28977">
        <ele>87.2</ele>
        <time>2023-09-13T08:33:08Z</time>
      </trkpt>
      <trkpt lat="49.82766" lon="2.28977">
        <ele>87.2</ele>
        <time>2023-09-13T08:33:10Z</time>
      </trkpt>
      <trkpt lat="49.82766" lon="2.28977">
        <ele>87.2</ele>
        <time>2023-09-13T08:33:11Z</time>
      </trkpt>
      <trkpt lat="49.82766" lon="2.28977">
        <ele>87.2</ele>
        <time>2023-09-13T08:33:13Z</time>
      </trkpt>
      <trkpt lat="49.82766" lon="2.28976">
        <ele>87.2</ele>
        <time>2023-09-13T08:33:14Z</time>
      </trkpt>
      <trkpt lat="49.82766" lon="2.28975">
        <ele>87.2</ele>
        <time>2023-09-13T08:33:15Z</time>
      </trkpt>
      <trkpt lat="49.82766" lon="2.28975">
        <ele>87.2</ele>
        <time>2023-09-13T08:33:16Z</time>
      </trkpt>
      <trkpt lat="49.82766" lon="2.28975">
        <ele>87.2</ele>
        <time>2023-09-13T08:33:17Z</time>
      </trkpt>
      <trkpt lat="49.82766" lon="2.28975">
        <ele>87.2</ele>
        <time>2023-09-13T08:33:18Z</time>
      </trkpt>
      <trkpt lat="49.82766" lon="2.28974">
        <ele>87.3</ele>
        <time>2023-09-13T08:33:19Z</time>
      </trkpt>
      <trkpt lat="49.82766" lon="2.28974">
        <ele>87.3</ele>
        <time>2023-09-13T08:33:20Z</time>
      </trkpt>
      <trkpt lat="49.82766" lon="2.28974">
        <ele>87.3</ele>
        <time>2023-09-13T08:33:21Z</time>
      </trkpt>
      <trkpt lat="49.82766" lon="2.28974">
        <ele>87.3</ele>
        <time>2023-09-13T08:33:22Z</time>
      </trkpt>
      <trkpt lat="49.82766" lon="2.28974">
        <ele>87.3</ele>
        <time>2023-09-13T08:33:23Z</time>
      </trkpt>
      <trkpt lat="49.82766" lon="2.28974">
        <ele>87.3</ele>
        <time>2023-09-13T08:33:24Z</time>
      </trkpt>
      <trkpt lat="49.82766" lon="2.28974">
        <ele>87.3</ele>
        <time>2023-09-13T08:33:25Z</time>
      </trkpt>
      <trkpt lat="49.82766" lon="2.28974">
        <ele>87.3</ele>
        <time>2023-09-13T08:33:26Z</time>
      </trkpt>
      <trkpt lat="49.82766" lon="2.28974">
        <ele>87.3</ele>
        <time>2023-09-13T08:33:27Z</time>
      </trkpt>
      <trkpt lat="49.82766" lon="2.28974">
        <ele>87.3</ele>
        <time>2023-09-13T08:33:28Z</time>
      </trkpt>
      <trkpt lat="49.82766" lon="2.28974">
        <ele>87.3</ele>
        <time>2023-09-13T08:33:29Z</time>
      </trkpt>
      <trkpt lat="49.82766" lon="2.28974">
        <ele>87.3</ele>
        <time>2023-09-13T08:33:30Z</time>
      </trkpt>
      <trkpt lat="49.82766" lon="2.28974">
        <ele>87.3</ele>
        <time>2023-09-13T08:33:31Z</time>
      </trkpt>
      <trkpt lat="49.82766" lon="2.28974">
        <ele>87.3</ele>
        <time>2023-09-13T08:33:32Z</time>
      </trkpt>
      <trkpt lat="49.82766" lon="2.28974">
        <ele>87.3</ele>
        <time>2023-09-13T08:33:33Z</time>
      </trkpt>
      <trkpt lat="49.82766" lon="2.28974">
        <ele>87.3</ele>
        <time>2023-09-13T08:33:34Z</time>
      </trkpt>
      <trkpt lat="49.82766" lon="2.28974">
        <ele>87.3</ele>
        <time>2023-09-13T08:33:35Z</time>
      </trkpt>
      <trkpt lat="49.82766" lon="2.28974">
        <ele>87.3</ele>
        <time>2023-09-13T08:33:36Z</time>
      </trkpt>
      <trkpt lat="49.82766" lon="2.28974">
        <ele>87.3</ele>
        <time>2023-09-13T08:33:37Z</time>
      </trkpt>
      <trkpt lat="49.82766" lon="2.28974">
        <ele>87.3</ele>
        <time>2023-09-13T08:33:38Z</time>
      </trkpt>
      <trkpt lat="49.82766" lon="2.28974">
        <ele>87.3</ele>
        <time>2023-09-13T08:33:39Z</time>
      </trkpt>
      <trkpt lat="49.82766" lon="2.28974">
        <ele>87.3</ele>
        <time>2023-09-13T08:33:40Z</time>
      </trkpt>
      <trkpt lat="49.82766" lon="2.28974">
        <ele>87.3</ele>
        <time>2023-09-13T08:33:41Z</time>
      </trkpt>
      <trkpt lat="49.82766" lon="2.28974">
        <ele>87.3</ele>
        <time>2023-09-13T08:33:42Z</time>
      </trkpt>
      <trkpt lat="49.82766" lon="2.28974">
        <ele>87.3</ele>
        <time>2023-09-13T08:33:43Z</time>
      </trkpt>
      <trkpt lat="49.82766" lon="2.28974">
        <ele>87.3</ele>
        <time>2023-09-13T08:33:44Z</time>
      </trkpt>
      <trkpt lat="49.82766" lon="2.28974">
        <ele>87.3</ele>
        <time>2023-09-13T08:33:45Z</time>
      </trkpt>
      <trkpt lat="49.82766" lon="2.28974">
        <ele>87.3</ele>
        <time>2023-09-13T08:33:46Z</time>
      </trkpt>
      <trkpt lat="49.82766" lon="2.28974">
        <ele>87.3</ele>
        <time>2023-09-13T08:33:47Z</time>
      </trkpt>
      <trkpt lat="49.82766" lon="2.28974">
        <ele>87.3</ele>
        <time>2023-09-13T08:33:48Z</time>
      </trkpt>
      <trkpt lat="49.82766" lon="2.28974">
        <ele>87.3</ele>
        <time>2023-09-13T08:33:49Z</time>
      </trkpt>
      <trkpt lat="49.82766" lon="2.28974">
        <ele>87.3</ele>
        <time>2023-09-13T08:33:50Z</time>
      </trkpt>
      <trkpt lat="49.82766" lon="2.28974">
        <ele>87.3</ele>
        <time>2023-09-13T08:33:51Z</time>
      </trkpt>
      <trkpt lat="49.82766" lon="2.28974">
        <ele>87.3</ele>
        <time>2023-09-13T08:33:52Z</time>
      </trkpt>
      <trkpt lat="49.82766" lon="2.28974">
        <ele>87.3</ele>
        <time>2023-09-13T08:33:53Z</time>
      </trkpt>
      <trkpt lat="49.82766" lon="2.28974">
        <ele>87.3</ele>
        <time>2023-09-13T08:33:54Z</time>
      </trkpt>
      <trkpt lat="49.82766" lon="2.28974">
        <ele>87.3</ele>
        <time>2023-09-13T08:33:55Z</time>
      </trkpt>
      <trkpt lat="49.82766" lon="2.28974">
        <ele>87.3</ele>
        <time>2023-09-13T08:33:56Z</time>
      </trkpt>
      <trkpt lat="49.82766" lon="2.28974">
        <ele>87.3</ele>
        <time>2023-09-13T08:33:57Z</time>
      </trkpt>
      <trkpt lat="49.82766" lon="2.28974">
        <ele>87.3</ele>
        <time>2023-09-13T08:33:58Z</time>
      </trkpt>
      <trkpt lat="49.82766" lon="2.28974">
        <ele>87.3</ele>
        <time>2023-09-13T08:33:59Z</time>
      </trkpt>
      <trkpt lat="49.82766" lon="2.28974">
        <ele>87.3</ele>
        <time>2023-09-13T08:34:00Z</time>
      </trkpt>
      <trkpt lat="49.82766" lon="2.28974">
        <ele>87.3</ele>
        <time>2023-09-13T08:34:01Z</time>
      </trkpt>
      <trkpt lat="49.82766" lon="2.28974">
        <ele>87.3</ele>
        <time>2023-09-13T08:34:02Z</time>
      </trkpt>
      <trkpt lat="49.82766" lon="2.28974">
        <ele>87.3</ele>
        <time>2023-09-13T08:34:03Z</time>
      </trkpt>
      <trkpt lat="49.82766" lon="2.28974">
        <ele>87.3</ele>
        <time>2023-09-13T08:34:04Z</time>
      </trkpt>
      <trkpt lat="49.82766" lon="2.28974">
        <ele>87.3</ele>
        <time>2023-09-13T08:34:05Z</time>
      </trkpt>
      <trkpt lat="49.82766" lon="2.28974">
        <ele>87.3</ele>
        <time>2023-09-13T08:34:06Z</time>
      </trkpt>
      <trkpt lat="49.82766" lon="2.28974">
        <ele>87.3</ele>
        <time>2023-09-13T08:34:07Z</time>
      </trkpt>
      <trkpt lat="49.82766" lon="2.28974">
        <ele>87.3</ele>
        <time>2023-09-13T08:34:08Z</time>
      </trkpt>
      <trkpt lat="49.82766" lon="2.28974">
        <ele>87.3</ele>
        <time>2023-09-13T08:34:09Z</time>
      </trkpt>
      <trkpt lat="49.82766" lon="2.28974">
        <ele>87.3</ele>
        <time>2023-09-13T08:34:10Z</time>
      </trkpt>
      <trkpt lat="49.82766" lon="2.28974">
        <ele>87.3</ele>
        <time>2023-09-13T08:34:11Z</time>
      </trkpt>
      <trkpt lat="49.82766" lon="2.28974">
        <ele>87.3</ele>
        <time>2023-09-13T08:34:12Z</time>
      </trkpt>
      <trkpt lat="49.82766" lon="2.28974">
        <ele>87.3</ele>
        <time>2023-09-13T08:34:13Z</time>
      </trkpt>
      <trkpt lat="49.82766" lon="2.28974">
        <ele>87.3</ele>
        <time>2023-09-13T08:34:14Z</time>
      </trkpt>
      <trkpt lat="49.82766" lon="2.28974">
        <ele>87.3</ele>
        <time>2023-09-13T08:34:15Z</time>
      </trkpt>
      <trkpt lat="49.82766" lon="2.28974">
        <ele>87.3</ele>
        <time>2023-09-13T08:34:16Z</time>
      </trkpt>
      <trkpt lat="49.82766" lon="2.28974">
        <ele>87.3</ele>
        <time>2023-09-13T08:34:17Z</time>
      </trkpt>
      <trkpt lat="49.82766" lon="2.28974">
        <ele>87.3</ele>
        <time>2023-09-13T08:34:18Z</time>
      </trkpt>
      <trkpt lat="49.82766" lon="2.28974">
        <ele>87.3</ele>
        <time>2023-09-13T08:34:19Z</time>
      </trkpt>
      <trkpt lat="49.82766" lon="2.28974">
        <ele>87.3</ele>
        <time>2023-09-13T08:34:20Z</time>
      </trkpt>
      <trkpt lat="49.82766" lon="2.28974">
        <ele>87.3</ele>
        <time>2023-09-13T08:34:21Z</time>
      </trkpt>
      <trkpt lat="49.82766" lon="2.28975">
        <ele>87.3</ele>
        <time>2023-09-13T08:34:22Z</time>
      </trkpt>
      <trkpt lat="49.82766" lon="2.28975">
        <ele>87.3</ele>
        <time>2023-09-13T08:34:23Z</time>
      </trkpt>
      <trkpt lat="49.82765" lon="2.28974">
        <ele>87.3</ele>
        <time>2023-09-13T08:34:24Z</time>
      </trkpt>
      <trkpt lat="49.82764" lon="2.28974">
        <ele>87.3</ele>
        <time>2023-09-13T08:34:25Z</time>
      </trkpt>
      <trkpt lat="49.82763" lon="2.28973">
        <ele>87.4</ele>
        <time>2023-09-13T08:34:27Z</time>
      </trkpt>
      <trkpt lat="49.82762" lon="2.28972">
        <ele>87.4</ele>
        <time>2023-09-13T08:34:28Z</time>
      </trkpt>
      <trkpt lat="49.82761" lon="2.28971">
        <ele>87.4</ele>
        <time>2023-09-13T08:34:29Z</time>
      </trkpt>
      <trkpt lat="49.8276" lon="2.2897">
        <ele>87.4</ele>
        <time>2023-09-13T08:34:30Z</time>
      </trkpt>
      <trkpt lat="49.82759" lon="2.28965">
        <ele>87.5</ele>
        <time>2023-09-13T08:34:31Z</time>
      </trkpt>
      <trkpt lat="49.82758" lon="2.28964">
        <ele>87.5</ele>
        <time>2023-09-13T08:34:32Z</time>
      </trkpt>
      <trkpt lat="49.82757" lon="2.28959">
        <ele>87.6</ele>
        <time>2023-09-13T08:34:33Z</time>
      </trkpt>
      <trkpt lat="49.82757" lon="2.28958">
        <ele>87.6</ele>
        <time>2023-09-13T08:34:34Z</time>
      </trkpt>
      <trkpt lat="49.82756" lon="2.28956">
        <ele>87.6</ele>
        <time>2023-09-13T08:34:35Z</time>
      </trkpt>
      <trkpt lat="49.82756" lon="2.28953">
        <ele>87.7</ele>
        <time>2023-09-13T08:34:37Z</time>
      </trkpt>
      <trkpt lat="49.82755" lon="2.28951">
        <ele>87.7</ele>
        <time>2023-09-13T08:34:38Z</time>
      </trkpt>
      <trkpt lat="49.82755" lon="2.28949">
        <ele>87.7</ele>
        <time>2023-09-13T08:34:39Z</time>
      </trkpt>
      <trkpt lat="49.82754" lon="2.28947">
        <ele>87.8</ele>
        <time>2023-09-13T08:34:40Z</time>
      </trkpt>
      <trkpt lat="49.82753" lon="2.28945">
        <ele>87.8</ele>
        <time>2023-09-13T08:34:41Z</time>
      </trkpt>
      <trkpt lat="49.82753" lon="2.28943">
        <ele>87.8</ele>
        <time>2023-09-13T08:34:42Z</time>
      </trkpt>
      <trkpt lat="49.82752" lon="2.28942">
        <ele>87.9</ele>
        <time>2023-09-13T08:34:43Z</time>
      </trkpt>
      <trkpt lat="49.82751" lon="2.2894">
        <ele>87.9</ele>
        <time>2023-09-13T08:34:45Z</time>
      </trkpt>
      <trkpt lat="49.82751" lon="2.28938">
        <ele>87.9</ele>
        <time>2023-09-13T08:34:46Z</time>
      </trkpt>
      <trkpt lat="49.8275" lon="2.28936">
        <ele>87.9</ele>
        <time>2023-09-13T08:34:47Z</time>
      </trkpt>
      <trkpt lat="49.8275" lon="2.28935">
        <ele>88</ele>
        <time>2023-09-13T08:34:48Z</time>
      </trkpt>
      <trkpt lat="49.82749" lon="2.28933">
        <ele>88</ele>
        <time>2023-09-13T08:34:49Z</time>
      </trkpt>
      <trkpt lat="49.82748" lon="2.2893">
        <ele>88</ele>
        <time>2023-09-13T08:34:50Z</time>
      </trkpt>
      <trkpt lat="49.82747" lon="2.28927">
        <ele>88.1</ele>
        <time>2023-09-13T08:34:51Z</time>
      </trkpt>
      <trkpt lat="49.82746" lon="2.28924">
        <ele>88.1</ele>
        <time>2023-09-13T08:34:53Z</time>
      </trkpt>
      <trkpt lat="49.82745" lon="2.28919">
        <ele>88.2</ele>
        <time>2023-09-13T08:34:54Z</time>
      </trkpt>
      <trkpt lat="49.82745" lon="2.28918">
        <ele>88.2</ele>
        <time>2023-09-13T08:34:55Z</time>
      </trkpt>
      <trkpt lat="49.82744" lon="2.28916">
        <ele>88.2</ele>
        <time>2023-09-13T08:34:56Z</time>
      </trkpt>
      <trkpt lat="49.82743" lon="2.28914">
        <ele>88.3</ele>
        <time>2023-09-13T08:34:57Z</time>
      </trkpt>
      <trkpt lat="49.82743" lon="2.28913">
        <ele>88.3</ele>
        <time>2023-09-13T08:34:58Z</time>
      </trkpt>
      <trkpt lat="49.82742" lon="2.28911">
        <ele>88.3</ele>
        <time>2023-09-13T08:34:59Z</time>
      </trkpt>
      <trkpt lat="49.82742" lon="2.28909">
        <ele>88.3</ele>
        <time>2023-09-13T08:35:00Z</time>
      </trkpt>
      <trkpt lat="49.82741" lon="2.28907">
        <ele>88.4</ele>
        <time>2023-09-13T08:35:02Z</time>
      </trkpt>
      <trkpt lat="49.8274" lon="2.28905">
        <ele>88.4</ele>
        <time>2023-09-13T08:35:03Z</time>
      </trkpt>
      <trkpt lat="49.82739" lon="2.28903">
        <ele>88.5</ele>
        <time>2023-09-13T08:35:04Z</time>
      </trkpt>
      <trkpt lat="49.82738" lon="2.28902">
        <ele>88.5</ele>
        <time>2023-09-13T08:35:05Z</time>
      </trkpt>
      <trkpt lat="49.82738" lon="2.289">
        <ele>88.5</ele>
        <time>2023-09-13T08:35:06Z</time>
      </trkpt>
      <trkpt lat="49.82737" lon="2.28898">
        <ele>88.5</ele>
        <time>2023-09-13T08:35:07Z</time>
      </trkpt>
      <trkpt lat="49.82736" lon="2.28897">
        <ele>88.6</ele>
        <time>2023-09-13T08:35:08Z</time>
      </trkpt>
      <trkpt lat="49.82736" lon="2.28895">
        <ele>88.6</ele>
        <time>2023-09-13T08:35:10Z</time>
      </trkpt>
      <trkpt lat="49.82735" lon="2.28893">
        <ele>88.6</ele>
        <time>2023-09-13T08:35:11Z</time>
      </trkpt>
      <trkpt lat="49.82735" lon="2.28892">
        <ele>88.6</ele>
        <time>2023-09-13T08:35:12Z</time>
      </trkpt>
      <trkpt lat="49.82734" lon="2.28891">
        <ele>88.7</ele>
        <time>2023-09-13T08:35:13Z</time>
      </trkpt>
      <trkpt lat="49.82733" lon="2.28889">
        <ele>88.7</ele>
        <time>2023-09-13T08:35:14Z</time>
      </trkpt>
      <trkpt lat="49.82733" lon="2.28887">
        <ele>88.7</ele>
        <time>2023-09-13T08:35:16Z</time>
      </trkpt>
      <trkpt lat="49.82732" lon="2.28885">
        <ele>88.7</ele>
        <time>2023-09-13T08:35:17Z</time>
      </trkpt>
      <trkpt lat="49.82732" lon="2.28884">
        <ele>88.8</ele>
        <time>2023-09-13T08:35:18Z</time>
      </trkpt>
      <trkpt lat="49.82731" lon="2.28883">
        <ele>88.8</ele>
        <time>2023-09-13T08:35:19Z</time>
      </trkpt>
      <trkpt lat="49.8273" lon="2.2888">
        <ele>88.8</ele>
        <time>2023-09-13T08:35:20Z</time>
      </trkpt>
      <trkpt lat="49.8273" lon="2.28879">
        <ele>88.8</ele>
        <time>2023-09-13T08:35:21Z</time>
      </trkpt>
      <trkpt lat="49.82729" lon="2.28877">
        <ele>88.8</ele>
        <time>2023-09-13T08:35:22Z</time>
      </trkpt>
      <trkpt lat="49.82729" lon="2.28875">
        <ele>88.9</ele>
        <time>2023-09-13T08:35:24Z</time>
      </trkpt>
      <trkpt lat="49.82728" lon="2.28874">
        <ele>88.9</ele>
        <time>2023-09-13T08:35:25Z</time>
      </trkpt>
      <trkpt lat="49.82728" lon="2.28872">
        <ele>88.9</ele>
        <time>2023-09-13T08:35:26Z</time>
      </trkpt>
      <trkpt lat="49.82727" lon="2.28871">
        <ele>88.9</ele>
        <time>2023-09-13T08:35:27Z</time>
      </trkpt>
      <trkpt lat="49.82727" lon="2.28869">
        <ele>88.9</ele>
        <time>2023-09-13T08:35:29Z</time>
      </trkpt>
      <trkpt lat="49.82727" lon="2.28868">
        <ele>88.9</ele>
        <time>2023-09-13T08:35:30Z</time>
      </trkpt>
      <trkpt lat="49.82726" lon="2.28866">
        <ele>88.9</ele>
        <time>2023-09-13T08:35:31Z</time>
      </trkpt>
      <trkpt lat="49.82726" lon="2.28865">
        <ele>89</ele>
        <time>2023-09-13T08:35:32Z</time>
      </trkpt>
      <trkpt lat="49.82726" lon="2.28863">
        <ele>89</ele>
        <time>2023-09-13T08:35:33Z</time>
      </trkpt>
      <trkpt lat="49.82725" lon="2.28862">
        <ele>89</ele>
        <time>2023-09-13T08:35:34Z</time>
      </trkpt>
      <trkpt lat="49.82725" lon="2.2886">
        <ele>89</ele>
        <time>2023-09-13T08:35:35Z</time>
      </trkpt>
      <trkpt lat="49.82725" lon="2.28859">
        <ele>89</ele>
        <time>2023-09-13T08:35:36Z</time>
      </trkpt>
      <trkpt lat="49.82724" lon="2.28857">
        <ele>89</ele>
        <time>2023-09-13T08:35:38Z</time>
      </trkpt>
      <trkpt lat="49.82724" lon="2.28856">
        <ele>89</ele>
        <time>2023-09-13T08:35:39Z</time>
      </trkpt>
      <trkpt lat="49.82724" lon="2.28854">
        <ele>89.1</ele>
        <time>2023-09-13T08:35:40Z</time>
      </trkpt>
      <trkpt lat="49.82723" lon="2.28851">
        <ele>89.1</ele>
        <time>2023-09-13T08:35:41Z</time>
      </trkpt>
      <trkpt lat="49.82723" lon="2.28849">
        <ele>89.1</ele>
        <time>2023-09-13T08:35:42Z</time>
      </trkpt>
      <trkpt lat="49.82722" lon="2.28848">
        <ele>89.1</ele>
        <time>2023-09-13T08:35:43Z</time>
      </trkpt>
      <trkpt lat="49.82722" lon="2.28845">
        <ele>89.1</ele>
        <time>2023-09-13T08:35:44Z</time>
      </trkpt>
      <trkpt lat="49.82721" lon="2.28844">
        <ele>89.2</ele>
        <time>2023-09-13T08:35:45Z</time>
      </trkpt>
      <trkpt lat="49.82721" lon="2.28842">
        <ele>89.2</ele>
        <time>2023-09-13T08:35:47Z</time>
      </trkpt>
      <trkpt lat="49.8272" lon="2.28841">
        <ele>89.2</ele>
        <time>2023-09-13T08:35:48Z</time>
      </trkpt>
      <trkpt lat="49.8272" lon="2.28839">
        <ele>89.2</ele>
        <time>2023-09-13T08:35:49Z</time>
      </trkpt>
      <trkpt lat="49.82719" lon="2.28838">
        <ele>89.2</ele>
        <time>2023-09-13T08:35:50Z</time>
      </trkpt>
      <trkpt lat="49.82718" lon="2.28836">
        <ele>89.2</ele>
        <time>2023-09-13T08:35:51Z</time>
      </trkpt>
      <trkpt lat="49.82718" lon="2.28834">
        <ele>89.2</ele>
        <time>2023-09-13T08:35:52Z</time>
      </trkpt>
      <trkpt lat="49.82717" lon="2.28832">
        <ele>89.3</ele>
        <time>2023-09-13T08:35:53Z</time>
      </trkpt>
      <trkpt lat="49.82716" lon="2.2883">
        <ele>89.3</ele>
        <time>2023-09-13T08:35:54Z</time>
      </trkpt>
      <trkpt lat="49.82716" lon="2.28828">
        <ele>89.3</ele>
        <time>2023-09-13T08:35:56Z</time>
      </trkpt>
      <trkpt lat="49.82715" lon="2.28827">
        <ele>89.3</ele>
        <time>2023-09-13T08:35:57Z</time>
      </trkpt>
      <trkpt lat="49.82714" lon="2.28825">
        <ele>89.3</ele>
        <time>2023-09-13T08:35:58Z</time>
      </trkpt>
      <trkpt lat="49.82713" lon="2.28823">
        <ele>89.3</ele>
        <time>2023-09-13T08:35:59Z</time>
      </trkpt>
      <trkpt lat="49.82712" lon="2.28821">
        <ele>89.3</ele>
        <time>2023-09-13T08:36:00Z</time>
      </trkpt>
      <trkpt lat="49.82711" lon="2.28819">
        <ele>89.3</ele>
        <time>2023-09-13T08:36:02Z</time>
      </trkpt>
      <trkpt lat="49.82711" lon="2.28817">
        <ele>89.4</ele>
        <time>2023-09-13T08:36:03Z</time>
      </trkpt>
      <trkpt lat="49.8271" lon="2.28815">
        <ele>89.4</ele>
        <time>2023-09-13T08:36:04Z</time>
      </trkpt>
      <trkpt lat="49.8271" lon="2.28814">
        <ele>89.4</ele>
        <time>2023-09-13T08:36:05Z</time>
      </trkpt>
      <trkpt lat="49.82709" lon="2.28812">
        <ele>89.4</ele>
        <time>2023-09-13T08:36:06Z</time>
      </trkpt>
      <trkpt lat="49.82709" lon="2.28811">
        <ele>89.4</ele>
        <time>2023-09-13T08:36:07Z</time>
      </trkpt>
      <trkpt lat="49.82708" lon="2.28808">
        <ele>89.4</ele>
        <time>2023-09-13T08:36:08Z</time>
      </trkpt>
      <trkpt lat="49.82707" lon="2.28807">
        <ele>89.4</ele>
        <time>2023-09-13T08:36:09Z</time>
      </trkpt>
      <trkpt lat="49.82707" lon="2.28806">
        <ele>89.5</ele>
        <time>2023-09-13T08:36:10Z</time>
      </trkpt>
      <trkpt lat="49.82705" lon="2.28803">
        <ele>89.5</ele>
        <time>2023-09-13T08:36:12Z</time>
      </trkpt>
      <trkpt lat="49.82705" lon="2.28802">
        <ele>89.5</ele>
        <time>2023-09-13T08:36:13Z</time>
      </trkpt>
      <trkpt lat="49.82704" lon="2.28801">
        <ele>89.5</ele>
        <time>2023-09-13T08:36:14Z</time>
      </trkpt>
      <trkpt lat="49.82704" lon="2.288">
        <ele>89.5</ele>
        <time>2023-09-13T08:36:15Z</time>
      </trkpt>
      <trkpt lat="49.82703" lon="2.28798">
        <ele>89.5</ele>
        <time>2023-09-13T08:36:16Z</time>
      </trkpt>
      <trkpt lat="49.82702" lon="2.28797">
        <ele>89.5</ele>
        <time>2023-09-13T08:36:17Z</time>
      </trkpt>
      <trkpt lat="49.82701" lon="2.28795">
        <ele>89.6</ele>
        <time>2023-09-13T08:36:18Z</time>
      </trkpt>
      <trkpt lat="49.827" lon="2.28793">
        <ele>89.6</ele>
        <time>2023-09-13T08:36:19Z</time>
      </trkpt>
      <trkpt lat="49.827" lon="2.28791">
        <ele>89.6</ele>
        <time>2023-09-13T08:36:20Z</time>
      </trkpt>
      <trkpt lat="49.82699" lon="2.28789">
        <ele>89.6</ele>
        <time>2023-09-13T08:36:22Z</time>
      </trkpt>
      <trkpt lat="49.82698" lon="2.28787">
        <ele>89.6</ele>
        <time>2023-09-13T08:36:23Z</time>
      </trkpt>
      <trkpt lat="49.82698" lon="2.28786">
        <ele>89.6</ele>
        <time>2023-09-13T08:36:24Z</time>
      </trkpt>
      <trkpt lat="49.82697" lon="2.28784">
        <ele>89.7</ele>
        <time>2023-09-13T08:36:25Z</time>
      </trkpt>
      <trkpt lat="49.82697" lon="2.28782">
        <ele>89.7</ele>
        <time>2023-09-13T08:36:26Z</time>
      </trkpt>
      <trkpt lat="49.82696" lon="2.2878">
        <ele>89.7</ele>
        <time>2023-09-13T08:36:28Z</time>
      </trkpt>
      <trkpt lat="49.82696" lon="2.28778">
        <ele>89.7</ele>
        <time>2023-09-13T08:36:29Z</time>
      </trkpt>
      <trkpt lat="49.82695" lon="2.28777">
        <ele>89.7</ele>
        <time>2023-09-13T08:36:30Z</time>
      </trkpt>
      <trkpt lat="49.82695" lon="2.28775">
        <ele>89.7</ele>
        <time>2023-09-13T08:36:31Z</time>
      </trkpt>
      <trkpt lat="49.82694" lon="2.28772">
        <ele>89.8</ele>
        <time>2023-09-13T08:36:32Z</time>
      </trkpt>
      <trkpt lat="49.82694" lon="2.28771">
        <ele>89.8</ele>
        <time>2023-09-13T08:36:33Z</time>
      </trkpt>
      <trkpt lat="49.82694" lon="2.2877">
        <ele>89.8</ele>
        <time>2023-09-13T08:36:34Z</time>
      </trkpt>
      <trkpt lat="49.82693" lon="2.28768">
        <ele>89.8</ele>
        <time>2023-09-13T08:36:35Z</time>
      </trkpt>
      <trkpt lat="49.82693" lon="2.28766">
        <ele>89.8</ele>
        <time>2023-09-13T08:36:37Z</time>
      </trkpt>
      <trkpt lat="49.82693" lon="2.28765">
        <ele>89.8</ele>
        <time>2023-09-13T08:36:38Z</time>
      </trkpt>
      <trkpt lat="49.82692" lon="2.28763">
        <ele>89.8</ele>
        <time>2023-09-13T08:36:39Z</time>
      </trkpt>
      <trkpt lat="49.82692" lon="2.28761">
        <ele>89.9</ele>
        <time>2023-09-13T08:36:40Z</time>
      </trkpt>
      <trkpt lat="49.82691" lon="2.2876">
        <ele>89.9</ele>
        <time>2023-09-13T08:36:41Z</time>
      </trkpt>
      <trkpt lat="49.8269" lon="2.28757">
        <ele>89.9</ele>
        <time>2023-09-13T08:36:42Z</time>
      </trkpt>
      <trkpt lat="49.8269" lon="2.28756">
        <ele>89.9</ele>
        <time>2023-09-13T08:36:43Z</time>
      </trkpt>
      <trkpt lat="49.8269" lon="2.28755">
        <ele>89.9</ele>
        <time>2023-09-13T08:36:44Z</time>
      </trkpt>
      <trkpt lat="49.82689" lon="2.28753">
        <ele>90</ele>
        <time>2023-09-13T08:36:46Z</time>
      </trkpt>
      <trkpt lat="49.82689" lon="2.28752">
        <ele>90</ele>
        <time>2023-09-13T08:36:47Z</time>
      </trkpt>
      <trkpt lat="49.82688" lon="2.2875">
        <ele>90</ele>
        <time>2023-09-13T08:36:48Z</time>
      </trkpt>
      <trkpt lat="49.82687" lon="2.28748">
        <ele>90</ele>
        <time>2023-09-13T08:36:49Z</time>
      </trkpt>
      <trkpt lat="49.82687" lon="2.28746">
        <ele>90</ele>
        <time>2023-09-13T08:36:50Z</time>
      </trkpt>
      <trkpt lat="49.82686" lon="2.28744">
        <ele>90.1</ele>
        <time>2023-09-13T08:36:52Z</time>
      </trkpt>
      <trkpt lat="49.82684" lon="2.28741">
        <ele>90.1</ele>
        <time>2023-09-13T08:36:53Z</time>
      </trkpt>
      <trkpt lat="49.82684" lon="2.2874">
        <ele>90.1</ele>
        <time>2023-09-13T08:36:54Z</time>
      </trkpt>
      <trkpt lat="49.82683" lon="2.28739">
        <ele>90.1</ele>
        <time>2023-09-13T08:36:55Z</time>
      </trkpt>
      <trkpt lat="49.82683" lon="2.28738">
        <ele>90.2</ele>
        <time>2023-09-13T08:36:56Z</time>
      </trkpt>
      <trkpt lat="49.82682" lon="2.28736">
        <ele>90.2</ele>
        <time>2023-09-13T08:36:57Z</time>
      </trkpt>
      <trkpt lat="49.82681" lon="2.28735">
        <ele>90.2</ele>
        <time>2023-09-13T08:36:58Z</time>
      </trkpt>
      <trkpt lat="49.8268" lon="2.28732">
        <ele>90.2</ele>
        <time>2023-09-13T08:36:59Z</time>
      </trkpt>
      <trkpt lat="49.8268" lon="2.28731">
        <ele>90.2</ele>
        <time>2023-09-13T08:37:00Z</time>
      </trkpt>
      <trkpt lat="49.82679" lon="2.2873">
        <ele>90.2</ele>
        <time>2023-09-13T08:37:01Z</time>
      </trkpt>
      <trkpt lat="49.82679" lon="2.28728">
        <ele>90.3</ele>
        <time>2023-09-13T08:37:03Z</time>
      </trkpt>
      <trkpt lat="49.82678" lon="2.28726">
        <ele>90.3</ele>
        <time>2023-09-13T08:37:04Z</time>
      </trkpt>
      <trkpt lat="49.82678" lon="2.28725">
        <ele>90.3</ele>
        <time>2023-09-13T08:37:05Z</time>
      </trkpt>
      <trkpt lat="49.82677" lon="2.28724">
        <ele>90.3</ele>
        <time>2023-09-13T08:37:06Z</time>
      </trkpt>
      <trkpt lat="49.82677" lon="2.28722">
        <ele>90.3</ele>
        <time>2023-09-13T08:37:07Z</time>
      </trkpt>
      <trkpt lat="49.82677" lon="2.28721">
        <ele>90.3</ele>
        <time>2023-09-13T08:37:08Z</time>
      </trkpt>
      <trkpt lat="49.82676" lon="2.28718">
        <ele>90.4</ele>
        <time>2023-09-13T08:37:09Z</time>
      </trkpt>
      <trkpt lat="49.82675" lon="2.28716">
        <ele>90.4</ele>
        <time>2023-09-13T08:37:10Z</time>
      </trkpt>
      <trkpt lat="49.82675" lon="2.28715">
        <ele>90.4</ele>
        <time>2023-09-13T08:37:11Z</time>
      </trkpt>
      <trkpt lat="49.82674" lon="2.28713">
        <ele>90.4</ele>
        <time>2023-09-13T08:37:13Z</time>
      </trkpt>
      <trkpt lat="49.82674" lon="2.28712">
        <ele>90.4</ele>
        <time>2023-09-13T08:37:14Z</time>
      </trkpt>
      <trkpt lat="49.82673" lon="2.2871">
        <ele>90.4</ele>
        <time>2023-09-13T08:37:15Z</time>
      </trkpt>
      <trkpt lat="49.82672" lon="2.28708">
        <ele>90.4</ele>
        <time>2023-09-13T08:37:16Z</time>
      </trkpt>
      <trkpt lat="49.82672" lon="2.28707">
        <ele>90.4</ele>
        <time>2023-09-13T08:37:17Z</time>
      </trkpt>
      <trkpt lat="49.82671" lon="2.28704">
        <ele>90.5</ele>
        <time>2023-09-13T08:37:18Z</time>
      </trkpt>
      <trkpt lat="49.82671" lon="2.28703">
        <ele>90.5</ele>
        <time>2023-09-13T08:37:19Z</time>
      </trkpt>
      <trkpt lat="49.8267" lon="2.28702">
        <ele>90.5</ele>
        <time>2023-09-13T08:37:20Z</time>
      </trkpt>
      <trkpt lat="49.82669" lon="2.28699">
        <ele>90.5</ele>
        <time>2023-09-13T08:37:21Z</time>
      </trkpt>
      <trkpt lat="49.82668" lon="2.28697">
        <ele>90.5</ele>
        <time>2023-09-13T08:37:23Z</time>
      </trkpt>
      <trkpt lat="49.82668" lon="2.28696">
        <ele>90.6</ele>
        <time>2023-09-13T08:37:24Z</time>
      </trkpt>
      <trkpt lat="49.82667" lon="2.28695">
        <ele>90.6</ele>
        <time>2023-09-13T08:37:25Z</time>
      </trkpt>
      <trkpt lat="49.82667" lon="2.28693">
        <ele>90.6</ele>
        <time>2023-09-13T08:37:26Z</time>
      </trkpt>
      <trkpt lat="49.82666" lon="2.28692">
        <ele>90.6</ele>
        <time>2023-09-13T08:37:27Z</time>
      </trkpt>
      <trkpt lat="49.82666" lon="2.28691">
        <ele>90.6</ele>
        <time>2023-09-13T08:37:28Z</time>
      </trkpt>
      <trkpt lat="49.82665" lon="2.28689">
        <ele>90.7</ele>
        <time>2023-09-13T08:37:29Z</time>
      </trkpt>
      <trkpt lat="49.82664" lon="2.28686">
        <ele>90.7</ele>
        <time>2023-09-13T08:37:30Z</time>
      </trkpt>
      <trkpt lat="49.82664" lon="2.28685">
        <ele>90.7</ele>
        <time>2023-09-13T08:37:31Z</time>
      </trkpt>
      <trkpt lat="49.82663" lon="2.28684">
        <ele>90.7</ele>
        <time>2023-09-13T08:37:32Z</time>
      </trkpt>
      <trkpt lat="49.82662" lon="2.28681">
        <ele>90.8</ele>
        <time>2023-09-13T08:37:34Z</time>
      </trkpt>
      <trkpt lat="49.82661" lon="2.2868">
        <ele>90.8</ele>
        <time>2023-09-13T08:37:35Z</time>
      </trkpt>
      <trkpt lat="49.82661" lon="2.28679">
        <ele>90.8</ele>
        <time>2023-09-13T08:37:36Z</time>
      </trkpt>
      <trkpt lat="49.8266" lon="2.28677">
        <ele>90.8</ele>
        <time>2023-09-13T08:37:37Z</time>
      </trkpt>
      <trkpt lat="49.8266" lon="2.28676">
        <ele>90.8</ele>
        <time>2023-09-13T08:37:38Z</time>
      </trkpt>
      <trkpt lat="49.82659" lon="2.28674">
        <ele>90.8</ele>
        <time>2023-09-13T08:37:39Z</time>
      </trkpt>
      <trkpt lat="49.82659" lon="2.28672">
        <ele>90.9</ele>
        <time>2023-09-13T08:37:40Z</time>
      </trkpt>
      <trkpt lat="49.82659" lon="2.2867">
        <ele>90.9</ele>
        <time>2023-09-13T08:37:41Z</time>
      </trkpt>
      <trkpt lat="49.82658" lon="2.28668">
        <ele>90.9</ele>
        <time>2023-09-13T08:37:43Z</time>
      </trkpt>
      <trkpt lat="49.82658" lon="2.28665">
        <ele>90.9</ele>
        <time>2023-09-13T08:37:44Z</time>
      </trkpt>
      <trkpt lat="49.82658" lon="2.28663">
        <ele>91</ele>
        <time>2023-09-13T08:37:45Z</time>
      </trkpt>
      <trkpt lat="49.82657" lon="2.28662">
        <ele>91</ele>
        <time>2023-09-13T08:37:46Z</time>
      </trkpt>
      <trkpt lat="49.82657" lon="2.2866">
        <ele>91</ele>
        <time>2023-09-13T08:37:47Z</time>
      </trkpt>
      <trkpt lat="49.82657" lon="2.28658">
        <ele>91</ele>
        <time>2023-09-13T08:37:48Z</time>
      </trkpt>
      <trkpt lat="49.82656" lon="2.28656">
        <ele>91</ele>
        <time>2023-09-13T08:37:50Z</time>
      </trkpt>
      <trkpt lat="49.82655" lon="2.28654">
        <ele>91.1</ele>
        <time>2023-09-13T08:37:51Z</time>
      </trkpt>
      <trkpt lat="49.82655" lon="2.28652">
        <ele>91.1</ele>
        <time>2023-09-13T08:37:52Z</time>
      </trkpt>
      <trkpt lat="49.82654" lon="2.28651">
        <ele>91.1</ele>
        <time>2023-09-13T08:37:53Z</time>
      </trkpt>
      <trkpt lat="49.82653" lon="2.28648">
        <ele>91.1</ele>
        <time>2023-09-13T08:37:54Z</time>
      </trkpt>
      <trkpt lat="49.82653" lon="2.28647">
        <ele>91.1</ele>
        <time>2023-09-13T08:37:55Z</time>
      </trkpt>
      <trkpt lat="49.82653" lon="2.28645">
        <ele>91.2</ele>
        <time>2023-09-13T08:37:56Z</time>
      </trkpt>
      <trkpt lat="49.82652" lon="2.28643">
        <ele>91.2</ele>
        <time>2023-09-13T08:37:58Z</time>
      </trkpt>
      <trkpt lat="49.82651" lon="2.28641">
        <ele>91.2</ele>
        <time>2023-09-13T08:37:59Z</time>
      </trkpt>
      <trkpt lat="49.82651" lon="2.2864">
        <ele>91.2</ele>
        <time>2023-09-13T08:38:00Z</time>
      </trkpt>
      <trkpt lat="49.82651" lon="2.28639">
        <ele>91.2</ele>
        <time>2023-09-13T08:38:01Z</time>
      </trkpt>
      <trkpt lat="49.8265" lon="2.28637">
        <ele>91.3</ele>
        <time>2023-09-13T08:38:02Z</time>
      </trkpt>
      <trkpt lat="49.82649" lon="2.28635">
        <ele>91.3</ele>
        <time>2023-09-13T08:38:03Z</time>
      </trkpt>
      <trkpt lat="49.82648" lon="2.28633">
        <ele>91.3</ele>
        <time>2023-09-13T08:38:04Z</time>
      </trkpt>
      <trkpt lat="49.82648" lon="2.28632">
        <ele>91.3</ele>
        <time>2023-09-13T08:38:05Z</time>
      </trkpt>
      <trkpt lat="49.82647" lon="2.2863">
        <ele>91.3</ele>
        <time>2023-09-13T08:38:06Z</time>
      </trkpt>
      <trkpt lat="49.82646" lon="2.28629">
        <ele>91.4</ele>
        <time>2023-09-13T08:38:07Z</time>
      </trkpt>
      <trkpt lat="49.82645" lon="2.28628">
        <ele>91.4</ele>
        <time>2023-09-13T08:38:08Z</time>
      </trkpt>
      <trkpt lat="49.82644" lon="2.28625">
        <ele>91.4</ele>
        <time>2023-09-13T08:38:09Z</time>
      </trkpt>
      <trkpt lat="49.82644" lon="2.28624">
        <ele>91.4</ele>
        <time>2023-09-13T08:38:11Z</time>
      </trkpt>
      <trkpt lat="49.82643" lon="2.28623">
        <ele>91.4</ele>
        <time>2023-09-13T08:38:12Z</time>
      </trkpt>
      <trkpt lat="49.82642" lon="2.2862">
        <ele>91.4</ele>
        <time>2023-09-13T08:38:13Z</time>
      </trkpt>
      <trkpt lat="49.82642" lon="2.28619">
        <ele>91.5</ele>
        <time>2023-09-13T08:38:14Z</time>
      </trkpt>
      <trkpt lat="49.82641" lon="2.28618">
        <ele>91.5</ele>
        <time>2023-09-13T08:38:15Z</time>
      </trkpt>
      <trkpt lat="49.8264" lon="2.28615">
        <ele>91.5</ele>
        <time>2023-09-13T08:38:16Z</time>
      </trkpt>
      <trkpt lat="49.8264" lon="2.28614">
        <ele>91.5</ele>
        <time>2023-09-13T08:38:17Z</time>
      </trkpt>
      <trkpt lat="49.82639" lon="2.28613">
        <ele>91.5</ele>
        <time>2023-09-13T08:38:18Z</time>
      </trkpt>
      <trkpt lat="49.82638" lon="2.2861">
        <ele>91.6</ele>
        <time>2023-09-13T08:38:19Z</time>
      </trkpt>
      <trkpt lat="49.82638" lon="2.28608">
        <ele>91.6</ele>
        <time>2023-09-13T08:38:20Z</time>
      </trkpt>
      <trkpt lat="49.82637" lon="2.28607">
        <ele>91.6</ele>
        <time>2023-09-13T08:38:22Z</time>
      </trkpt>
      <trkpt lat="49.82637" lon="2.28606">
        <ele>91.6</ele>
        <time>2023-09-13T08:38:23Z</time>
      </trkpt>
      <trkpt lat="49.82636" lon="2.28604">
        <ele>91.6</ele>
        <time>2023-09-13T08:38:24Z</time>
      </trkpt>
      <trkpt lat="49.82636" lon="2.28603">
        <ele>91.6</ele>
        <time>2023-09-13T08:38:25Z</time>
      </trkpt>
      <trkpt lat="49.82635" lon="2.286">
        <ele>91.7</ele>
        <time>2023-09-13T08:38:26Z</time>
      </trkpt>
      <trkpt lat="49.82635" lon="2.28599">
        <ele>91.7</ele>
        <time>2023-09-13T08:38:28Z</time>
      </trkpt>
      <trkpt lat="49.82634" lon="2.28597">
        <ele>91.7</ele>
        <time>2023-09-13T08:38:29Z</time>
      </trkpt>
      <trkpt lat="49.82634" lon="2.28596">
        <ele>91.7</ele>
        <time>2023-09-13T08:38:30Z</time>
      </trkpt>
      <trkpt lat="49.82633" lon="2.28594">
        <ele>91.7</ele>
        <time>2023-09-13T08:38:31Z</time>
      </trkpt>
      <trkpt lat="49.82633" lon="2.28593">
        <ele>91.7</ele>
        <time>2023-09-13T08:38:32Z</time>
      </trkpt>
      <trkpt lat="49.82632" lon="2.2859">
        <ele>91.8</ele>
        <time>2023-09-13T08:38:33Z</time>
      </trkpt>
      <trkpt lat="49.82632" lon="2.28589">
        <ele>91.8</ele>
        <time>2023-09-13T08:38:34Z</time>
      </trkpt>
      <trkpt lat="49.82631" lon="2.28588">
        <ele>91.8</ele>
        <time>2023-09-13T08:38:35Z</time>
      </trkpt>
      <trkpt lat="49.8263" lon="2.28585">
        <ele>91.8</ele>
        <time>2023-09-13T08:38:37Z</time>
      </trkpt>
      <trkpt lat="49.8263" lon="2.28584">
        <ele>91.8</ele>
        <time>2023-09-13T08:38:38Z</time>
      </trkpt>
      <trkpt lat="49.8263" lon="2.28583">
        <ele>91.8</ele>
        <time>2023-09-13T08:38:39Z</time>
      </trkpt>
      <trkpt lat="49.82629" lon="2.28581">
        <ele>91.8</ele>
        <time>2023-09-13T08:38:40Z</time>
      </trkpt>
      <trkpt lat="49.82629" lon="2.2858">
        <ele>91.8</ele>
        <time>2023-09-13T08:38:41Z</time>
      </trkpt>
      <trkpt lat="49.82628" lon="2.28579">
        <ele>91.8</ele>
        <time>2023-09-13T08:38:42Z</time>
      </trkpt>
      <trkpt lat="49.82627" lon="2.28579">
        <ele>91.9</ele>
        <time>2023-09-13T08:38:43Z</time>
      </trkpt>
      <trkpt lat="49.82626" lon="2.28577">
        <ele>91.9</ele>
        <time>2023-09-13T08:38:45Z</time>
      </trkpt>
      <trkpt lat="49.82626" lon="2.28576">
        <ele>91.9</ele>
        <time>2023-09-13T08:38:46Z</time>
      </trkpt>
      <trkpt lat="49.82625" lon="2.28574">
        <ele>91.9</ele>
        <time>2023-09-13T08:38:47Z</time>
      </trkpt>
      <trkpt lat="49.82625" lon="2.28572">
        <ele>91.9</ele>
        <time>2023-09-13T08:38:48Z</time>
      </trkpt>
      <trkpt lat="49.82625" lon="2.2857">
        <ele>91.9</ele>
        <time>2023-09-13T08:38:49Z</time>
      </trkpt>
      <trkpt lat="49.82625" lon="2.28568">
        <ele>91.9</ele>
        <time>2023-09-13T08:38:50Z</time>
      </trkpt>
      <trkpt lat="49.82625" lon="2.28565">
        <ele>92</ele>
        <time>2023-09-13T08:38:52Z</time>
      </trkpt>
      <trkpt lat="49.82625" lon="2.28563">
        <ele>92</ele>
        <time>2023-09-13T08:38:53Z</time>
      </trkpt>
      <trkpt lat="49.82624" lon="2.28561">
        <ele>92</ele>
        <time>2023-09-13T08:38:54Z</time>
      </trkpt>
      <trkpt lat="49.82623" lon="2.28558">
        <ele>92</ele>
        <time>2023-09-13T08:38:55Z</time>
      </trkpt>
      <trkpt lat="49.82622" lon="2.28557">
        <ele>92</ele>
        <time>2023-09-13T08:38:56Z</time>
      </trkpt>
      <trkpt lat="49.82622" lon="2.28556">
        <ele>92</ele>
        <time>2023-09-13T08:38:57Z</time>
      </trkpt>
      <trkpt lat="49.82621" lon="2.28552">
        <ele>92</ele>
        <time>2023-09-13T08:38:59Z</time>
      </trkpt>
      <trkpt lat="49.8262" lon="2.2855">
        <ele>92</ele>
        <time>2023-09-13T08:39:01Z</time>
      </trkpt>
      <trkpt lat="49.8262" lon="2.28549">
        <ele>92</ele>
        <time>2023-09-13T08:39:02Z</time>
      </trkpt>
      <trkpt lat="49.8262" lon="2.28547">
        <ele>92</ele>
        <time>2023-09-13T08:39:03Z</time>
      </trkpt>
      <trkpt lat="49.82619" lon="2.28546">
        <ele>92</ele>
        <time>2023-09-13T08:39:04Z</time>
      </trkpt>
      <trkpt lat="49.82619" lon="2.28545">
        <ele>92</ele>
        <time>2023-09-13T08:39:05Z</time>
      </trkpt>
      <trkpt lat="49.82618" lon="2.28544">
        <ele>92.1</ele>
        <time>2023-09-13T08:39:06Z</time>
      </trkpt>
      <trkpt lat="49.82617" lon="2.28542">
        <ele>92.1</ele>
        <time>2023-09-13T08:39:07Z</time>
      </trkpt>
      <trkpt lat="49.82616" lon="2.28541">
        <ele>92.1</ele>
        <time>2023-09-13T08:39:08Z</time>
      </trkpt>
      <trkpt lat="49.82615" lon="2.28539">
        <ele>92.1</ele>
        <time>2023-09-13T08:39:09Z</time>
      </trkpt>
      <trkpt lat="49.82615" lon="2.28537">
        <ele>92.1</ele>
        <time>2023-09-13T08:39:11Z</time>
      </trkpt>
      <trkpt lat="49.82614" lon="2.28536">
        <ele>92</ele>
        <time>2023-09-13T08:39:12Z</time>
      </trkpt>
      <trkpt lat="49.82612" lon="2.28534">
        <ele>92</ele>
        <time>2023-09-13T08:39:13Z</time>
      </trkpt>
      <trkpt lat="49.82611" lon="2.28533">
        <ele>92</ele>
        <time>2023-09-13T08:39:14Z</time>
      </trkpt>
      <trkpt lat="49.8261" lon="2.28532">
        <ele>92</ele>
        <time>2023-09-13T08:39:15Z</time>
      </trkpt>
      <trkpt lat="49.82609" lon="2.28531">
        <ele>92</ele>
        <time>2023-09-13T08:39:16Z</time>
      </trkpt>
      <trkpt lat="49.82608" lon="2.2853">
        <ele>92</ele>
        <time>2023-09-13T08:39:18Z</time>
      </trkpt>
      <trkpt lat="49.82606" lon="2.28529">
        <ele>92</ele>
        <time>2023-09-13T08:39:19Z</time>
      </trkpt>
      <trkpt lat="49.82605" lon="2.28528">
        <ele>92</ele>
        <time>2023-09-13T08:39:20Z</time>
      </trkpt>
      <trkpt lat="49.82604" lon="2.28526">
        <ele>91.9</ele>
        <time>2023-09-13T08:39:21Z</time>
      </trkpt>
      <trkpt lat="49.82603" lon="2.28525">
        <ele>91.9</ele>
        <time>2023-09-13T08:39:22Z</time>
      </trkpt>
      <trkpt lat="49.82602" lon="2.28524">
        <ele>91.9</ele>
        <time>2023-09-13T08:39:23Z</time>
      </trkpt>
      <trkpt lat="49.82601" lon="2.28523">
        <ele>91.9</ele>
        <time>2023-09-13T08:39:24Z</time>
      </trkpt>
      <trkpt lat="49.826" lon="2.28522">
        <ele>91.9</ele>
        <time>2023-09-13T08:39:26Z</time>
      </trkpt>
      <trkpt lat="49.82599" lon="2.28521">
        <ele>91.9</ele>
        <time>2023-09-13T08:39:27Z</time>
      </trkpt>
      <trkpt lat="49.82598" lon="2.2852">
        <ele>91.9</ele>
        <time>2023-09-13T08:39:28Z</time>
      </trkpt>
      <trkpt lat="49.82597" lon="2.28519">
        <ele>91.9</ele>
        <time>2023-09-13T08:39:29Z</time>
      </trkpt>
      <trkpt lat="49.82595" lon="2.28518">
        <ele>91.9</ele>
        <time>2023-09-13T08:39:30Z</time>
      </trkpt>
      <trkpt lat="49.82594" lon="2.28517">
        <ele>91.9</ele>
        <time>2023-09-13T08:39:31Z</time>
      </trkpt>
      <trkpt lat="49.82593" lon="2.28516">
        <ele>91.8</ele>
        <time>2023-09-13T08:39:32Z</time>
      </trkpt>
      <trkpt lat="49.82592" lon="2.28515">
        <ele>91.8</ele>
        <time>2023-09-13T08:39:33Z</time>
      </trkpt>
      <trkpt lat="49.82591" lon="2.28514">
        <ele>91.8</ele>
        <time>2023-09-13T08:39:34Z</time>
      </trkpt>
      <trkpt lat="49.8259" lon="2.28513">
        <ele>91.8</ele>
        <time>2023-09-13T08:39:36Z</time>
      </trkpt>
      <trkpt lat="49.82589" lon="2.28512">
        <ele>91.8</ele>
        <time>2023-09-13T08:39:37Z</time>
      </trkpt>
      <trkpt lat="49.82588" lon="2.28511">
        <ele>91.8</ele>
        <time>2023-09-13T08:39:38Z</time>
      </trkpt>
      <trkpt lat="49.82587" lon="2.28511">
        <ele>91.8</ele>
        <time>2023-09-13T08:39:39Z</time>
      </trkpt>
      <trkpt lat="49.82586" lon="2.28511">
        <ele>91.8</ele>
        <time>2023-09-13T08:39:40Z</time>
      </trkpt>
      <trkpt lat="49.82585" lon="2.2851">
        <ele>91.7</ele>
        <time>2023-09-13T08:39:41Z</time>
      </trkpt>
      <trkpt lat="49.82583" lon="2.2851">
        <ele>91.7</ele>
        <time>2023-09-13T08:39:42Z</time>
      </trkpt>
      <trkpt lat="49.82582" lon="2.28509">
        <ele>91.7</ele>
        <time>2023-09-13T08:39:44Z</time>
      </trkpt>
      <trkpt lat="49.82581" lon="2.28507">
        <ele>91.7</ele>
        <time>2023-09-13T08:39:45Z</time>
      </trkpt>
      <trkpt lat="49.82579" lon="2.28505">
        <ele>91.7</ele>
        <time>2023-09-13T08:39:46Z</time>
      </trkpt>
      <trkpt lat="49.82578" lon="2.28505">
        <ele>91.7</ele>
        <time>2023-09-13T08:39:47Z</time>
      </trkpt>
      <trkpt lat="49.82577" lon="2.28504">
        <ele>91.7</ele>
        <time>2023-09-13T08:39:48Z</time>
      </trkpt>
      <trkpt lat="49.82576" lon="2.28502">
        <ele>91.6</ele>
        <time>2023-09-13T08:39:49Z</time>
      </trkpt>
      <trkpt lat="49.82575" lon="2.28501">
        <ele>91.6</ele>
        <time>2023-09-13T08:39:51Z</time>
      </trkpt>
      <trkpt lat="49.82574" lon="2.285">
        <ele>91.6</ele>
        <time>2023-09-13T08:39:52Z</time>
      </trkpt>
      <trkpt lat="49.82574" lon="2.28498">
        <ele>91.6</ele>
        <time>2023-09-13T08:39:53Z</time>
      </trkpt>
      <trkpt lat="49.82573" lon="2.28497">
        <ele>91.6</ele>
        <time>2023-09-13T08:39:54Z</time>
      </trkpt>
      <trkpt lat="49.82572" lon="2.28495">
        <ele>91.6</ele>
        <time>2023-09-13T08:39:55Z</time>
      </trkpt>
      <trkpt lat="49.8257" lon="2.28494">
        <ele>91.6</ele>
        <time>2023-09-13T08:39:56Z</time>
      </trkpt>
      <trkpt lat="49.8257" lon="2.28493">
        <ele>91.6</ele>
        <time>2023-09-13T08:39:57Z</time>
      </trkpt>
      <trkpt lat="49.82569" lon="2.28491">
        <ele>91.6</ele>
        <time>2023-09-13T08:39:58Z</time>
      </trkpt>
      <trkpt lat="49.82568" lon="2.2849">
        <ele>91.6</ele>
        <time>2023-09-13T08:39:59Z</time>
      </trkpt>
      <trkpt lat="49.82566" lon="2.28488">
        <ele>91.6</ele>
        <time>2023-09-13T08:40:00Z</time>
      </trkpt>
      <trkpt lat="49.82566" lon="2.28487">
        <ele>91.6</ele>
        <time>2023-09-13T08:40:01Z</time>
      </trkpt>
      <trkpt lat="49.82565" lon="2.28486">
        <ele>91.6</ele>
        <time>2023-09-13T08:40:02Z</time>
      </trkpt>
      <trkpt lat="49.82564" lon="2.28484">
        <ele>91.5</ele>
        <time>2023-09-13T08:40:04Z</time>
      </trkpt>
      <trkpt lat="49.82563" lon="2.28483">
        <ele>91.5</ele>
        <time>2023-09-13T08:40:05Z</time>
      </trkpt>
      <trkpt lat="49.82563" lon="2.28482">
        <ele>91.5</ele>
        <time>2023-09-13T08:40:06Z</time>
      </trkpt>
      <trkpt lat="49.82562" lon="2.2848">
        <ele>91.5</ele>
        <time>2023-09-13T08:40:07Z</time>
      </trkpt>
      <trkpt lat="49.82561" lon="2.28478">
        <ele>91.5</ele>
        <time>2023-09-13T08:40:08Z</time>
      </trkpt>
      <trkpt lat="49.82561" lon="2.28477">
        <ele>91.5</ele>
        <time>2023-09-13T08:40:10Z</time>
      </trkpt>
      <trkpt lat="49.8256" lon="2.28475">
        <ele>91.5</ele>
        <time>2023-09-13T08:40:11Z</time>
      </trkpt>
      <trkpt lat="49.82559" lon="2.28473">
        <ele>91.5</ele>
        <time>2023-09-13T08:40:12Z</time>
      </trkpt>
      <trkpt lat="49.82558" lon="2.28471">
        <ele>91.5</ele>
        <time>2023-09-13T08:40:13Z</time>
      </trkpt>
      <trkpt lat="49.82558" lon="2.2847">
        <ele>91.5</ele>
        <time>2023-09-13T08:40:14Z</time>
      </trkpt>
      <trkpt lat="49.82557" lon="2.28469">
        <ele>91.5</ele>
        <time>2023-09-13T08:40:15Z</time>
      </trkpt>
      <trkpt lat="49.82556" lon="2.28467">
        <ele>91.5</ele>
        <time>2023-09-13T08:40:16Z</time>
      </trkpt>
      <trkpt lat="49.82556" lon="2.28466">
        <ele>91.5</ele>
        <time>2023-09-13T08:40:17Z</time>
      </trkpt>
      <trkpt lat="49.82555" lon="2.28464">
        <ele>91.5</ele>
        <time>2023-09-13T08:40:18Z</time>
      </trkpt>
      <trkpt lat="49.82554" lon="2.28462">
        <ele>91.5</ele>
        <time>2023-09-13T08:40:20Z</time>
      </trkpt>
      <trkpt lat="49.82553" lon="2.2846">
        <ele>91.5</ele>
        <time>2023-09-13T08:40:21Z</time>
      </trkpt>
      <trkpt lat="49.82553" lon="2.28458">
        <ele>91.5</ele>
        <time>2023-09-13T08:40:22Z</time>
      </trkpt>
      <trkpt lat="49.82552" lon="2.28456">
        <ele>91.5</ele>
        <time>2023-09-13T08:40:23Z</time>
      </trkpt>
      <trkpt lat="49.82551" lon="2.28455">
        <ele>91.5</ele>
        <time>2023-09-13T08:40:24Z</time>
      </trkpt>
      <trkpt lat="49.82551" lon="2.28453">
        <ele>91.5</ele>
        <time>2023-09-13T08:40:25Z</time>
      </trkpt>
      <trkpt lat="49.8255" lon="2.28451">
        <ele>91.6</ele>
        <time>2023-09-13T08:40:26Z</time>
      </trkpt>
      <trkpt lat="49.82549" lon="2.28449">
        <ele>91.6</ele>
        <time>2023-09-13T08:40:28Z</time>
      </trkpt>
      <trkpt lat="49.82549" lon="2.28448">
        <ele>91.6</ele>
        <time>2023-09-13T08:40:29Z</time>
      </trkpt>
      <trkpt lat="49.82548" lon="2.28446">
        <ele>91.6</ele>
        <time>2023-09-13T08:40:30Z</time>
      </trkpt>
      <trkpt lat="49.82548" lon="2.28444">
        <ele>91.6</ele>
        <time>2023-09-13T08:40:31Z</time>
      </trkpt>
      <trkpt lat="49.82547" lon="2.28442">
        <ele>91.6</ele>
        <time>2023-09-13T08:40:32Z</time>
      </trkpt>
      <trkpt lat="49.82546" lon="2.2844">
        <ele>91.6</ele>
        <time>2023-09-13T08:40:33Z</time>
      </trkpt>
      <trkpt lat="49.82546" lon="2.28438">
        <ele>91.6</ele>
        <time>2023-09-13T08:40:35Z</time>
      </trkpt>
      <trkpt lat="49.82545" lon="2.28436">
        <ele>91.6</ele>
        <time>2023-09-13T08:40:36Z</time>
      </trkpt>
      <trkpt lat="49.82544" lon="2.28434">
        <ele>91.7</ele>
        <time>2023-09-13T08:40:37Z</time>
      </trkpt>
      <trkpt lat="49.82543" lon="2.28431">
        <ele>91.7</ele>
        <time>2023-09-13T08:40:38Z</time>
      </trkpt>
      <trkpt lat="49.82543" lon="2.2843">
        <ele>91.7</ele>
        <time>2023-09-13T08:40:39Z</time>
      </trkpt>
      <trkpt lat="49.82542" lon="2.28428">
        <ele>91.7</ele>
        <time>2023-09-13T08:40:40Z</time>
      </trkpt>
      <trkpt lat="49.82541" lon="2.28426">
        <ele>91.7</ele>
        <time>2023-09-13T08:40:41Z</time>
      </trkpt>
      <trkpt lat="49.82541" lon="2.28425">
        <ele>91.7</ele>
        <time>2023-09-13T08:40:42Z</time>
      </trkpt>
      <trkpt lat="49.82539" lon="2.28422">
        <ele>91.7</ele>
        <time>2023-09-13T08:40:43Z</time>
      </trkpt>
      <trkpt lat="49.82539" lon="2.28421">
        <ele>91.8</ele>
        <time>2023-09-13T08:40:44Z</time>
      </trkpt>
      <trkpt lat="49.82538" lon="2.28419">
        <ele>91.8</ele>
        <time>2023-09-13T08:40:46Z</time>
      </trkpt>
      <trkpt lat="49.82538" lon="2.28418">
        <ele>91.8</ele>
        <time>2023-09-13T08:40:47Z</time>
      </trkpt>
      <trkpt lat="49.82537" lon="2.28417">
        <ele>91.8</ele>
        <time>2023-09-13T08:40:48Z</time>
      </trkpt>
      <trkpt lat="49.82536" lon="2.28416">
        <ele>91.8</ele>
        <time>2023-09-13T08:40:49Z</time>
      </trkpt>
      <trkpt lat="49.82536" lon="2.28414">
        <ele>91.8</ele>
        <time>2023-09-13T08:40:50Z</time>
      </trkpt>
      <trkpt lat="49.82535" lon="2.28412">
        <ele>91.8</ele>
        <time>2023-09-13T08:40:52Z</time>
      </trkpt>
      <trkpt lat="49.82534" lon="2.28411">
        <ele>91.8</ele>
        <time>2023-09-13T08:40:53Z</time>
      </trkpt>
      <trkpt lat="49.82533" lon="2.2841">
        <ele>91.9</ele>
        <time>2023-09-13T08:40:54Z</time>
      </trkpt>
      <trkpt lat="49.82533" lon="2.28409">
        <ele>91.9</ele>
        <time>2023-09-13T08:40:55Z</time>
      </trkpt>
      <trkpt lat="49.82532" lon="2.28407">
        <ele>91.9</ele>
        <time>2023-09-13T08:40:56Z</time>
      </trkpt>
      <trkpt lat="49.82531" lon="2.28406">
        <ele>91.9</ele>
        <time>2023-09-13T08:40:57Z</time>
      </trkpt>
      <trkpt lat="49.8253" lon="2.28405">
        <ele>91.9</ele>
        <time>2023-09-13T08:40:58Z</time>
      </trkpt>
      <trkpt lat="49.8253" lon="2.28404">
        <ele>91.9</ele>
        <time>2023-09-13T08:40:59Z</time>
      </trkpt>
      <trkpt lat="49.82529" lon="2.28402">
        <ele>91.9</ele>
        <time>2023-09-13T08:41:00Z</time>
      </trkpt>
      <trkpt lat="49.82528" lon="2.28401">
        <ele>92</ele>
        <time>2023-09-13T08:41:02Z</time>
      </trkpt>
      <trkpt lat="49.82528" lon="2.284">
        <ele>92</ele>
        <time>2023-09-13T08:41:03Z</time>
      </trkpt>
      <trkpt lat="49.82527" lon="2.28399">
        <ele>92</ele>
        <time>2023-09-13T08:41:04Z</time>
      </trkpt>
      <trkpt lat="49.82526" lon="2.28398">
        <ele>92</ele>
        <time>2023-09-13T08:41:05Z</time>
      </trkpt>
      <trkpt lat="49.82525" lon="2.28397">
        <ele>92</ele>
        <time>2023-09-13T08:41:06Z</time>
      </trkpt>
      <trkpt lat="49.82524" lon="2.28396">
        <ele>92</ele>
        <time>2023-09-13T08:41:07Z</time>
      </trkpt>
      <trkpt lat="49.82524" lon="2.28395">
        <ele>92.1</ele>
        <time>2023-09-13T08:41:08Z</time>
      </trkpt>
      <trkpt lat="49.82523" lon="2.28394">
        <ele>92.1</ele>
        <time>2023-09-13T08:41:09Z</time>
      </trkpt>
      <trkpt lat="49.82522" lon="2.28393">
        <ele>92.1</ele>
        <time>2023-09-13T08:41:10Z</time>
      </trkpt>
      <trkpt lat="49.82521" lon="2.28392">
        <ele>92.1</ele>
        <time>2023-09-13T08:41:12Z</time>
      </trkpt>
      <trkpt lat="49.8252" lon="2.28391">
        <ele>92.2</ele>
        <time>2023-09-13T08:41:13Z</time>
      </trkpt>
      <trkpt lat="49.82519" lon="2.2839">
        <ele>92.2</ele>
        <time>2023-09-13T08:41:14Z</time>
      </trkpt>
      <trkpt lat="49.82518" lon="2.2839">
        <ele>92.2</ele>
        <time>2023-09-13T08:41:15Z</time>
      </trkpt>
      <trkpt lat="49.82516" lon="2.28389">
        <ele>92.2</ele>
        <time>2023-09-13T08:41:16Z</time>
      </trkpt>
      <trkpt lat="49.82515" lon="2.28389">
        <ele>92.2</ele>
        <time>2023-09-13T08:41:17Z</time>
      </trkpt>
      <trkpt lat="49.82513" lon="2.28388">
        <ele>92.3</ele>
        <time>2023-09-13T08:41:19Z</time>
      </trkpt>
      <trkpt lat="49.82511" lon="2.28386">
        <ele>92.3</ele>
        <time>2023-09-13T08:41:20Z</time>
      </trkpt>
      <trkpt lat="49.8251" lon="2.28386">
        <ele>92.4</ele>
        <time>2023-09-13T08:41:21Z</time>
      </trkpt>
      <trkpt lat="49.82509" lon="2.28385">
        <ele>92.4</ele>
        <time>2023-09-13T08:41:22Z</time>
      </trkpt>
      <trkpt lat="49.82508" lon="2.28384">
        <ele>92.4</ele>
        <time>2023-09-13T08:41:24Z</time>
      </trkpt>
      <trkpt lat="49.82507" lon="2.28382">
        <ele>92.4</ele>
        <time>2023-09-13T08:41:25Z</time>
      </trkpt>
      <trkpt lat="49.82506" lon="2.28381">
        <ele>92.4</ele>
        <time>2023-09-13T08:41:26Z</time>
      </trkpt>
      <trkpt lat="49.82505" lon="2.28381">
        <ele>92.4</ele>
        <time>2023-09-13T08:41:27Z</time>
      </trkpt>
      <trkpt lat="49.82503" lon="2.2838">
        <ele>92.5</ele>
        <time>2023-09-13T08:41:28Z</time>
      </trkpt>
      <trkpt lat="49.82501" lon="2.28379">
        <ele>92.5</ele>
        <time>2023-09-13T08:41:29Z</time>
      </trkpt>
      <trkpt lat="49.82501" lon="2.28378">
        <ele>92.5</ele>
        <time>2023-09-13T08:41:30Z</time>
      </trkpt>
      <trkpt lat="49.825" lon="2.28378">
        <ele>92.5</ele>
        <time>2023-09-13T08:41:31Z</time>
      </trkpt>
      <trkpt lat="49.82498" lon="2.28377">
        <ele>92.5</ele>
        <time>2023-09-13T08:41:32Z</time>
      </trkpt>
      <trkpt lat="49.82497" lon="2.28376">
        <ele>92.5</ele>
        <time>2023-09-13T08:41:33Z</time>
      </trkpt>
      <trkpt lat="49.82495" lon="2.28375">
        <ele>92.5</ele>
        <time>2023-09-13T08:41:34Z</time>
      </trkpt>
      <trkpt lat="49.82494" lon="2.28374">
        <ele>92.5</ele>
        <time>2023-09-13T08:41:36Z</time>
      </trkpt>
      <trkpt lat="49.82492" lon="2.28372">
        <ele>92.4</ele>
        <time>2023-09-13T08:41:37Z</time>
      </trkpt>
      <trkpt lat="49.82491" lon="2.28372">
        <ele>92.4</ele>
        <time>2023-09-13T08:41:38Z</time>
      </trkpt>
      <trkpt lat="49.8249" lon="2.28371">
        <ele>92.4</ele>
        <time>2023-09-13T08:41:39Z</time>
      </trkpt>
      <trkpt lat="49.82489" lon="2.28371">
        <ele>92.4</ele>
        <time>2023-09-13T08:41:40Z</time>
      </trkpt>
      <trkpt lat="49.82487" lon="2.28369">
        <ele>92.4</ele>
        <time>2023-09-13T08:41:42Z</time>
      </trkpt>
      <trkpt lat="49.82486" lon="2.28369">
        <ele>92.4</ele>
        <time>2023-09-13T08:41:44Z</time>
      </trkpt>
      <trkpt lat="49.82485" lon="2.28369">
        <ele>92.4</ele>
        <time>2023-09-13T08:41:45Z</time>
      </trkpt>
      <trkpt lat="49.82484" lon="2.28368">
        <ele>92.4</ele>
        <time>2023-09-13T08:41:46Z</time>
      </trkpt>
      <trkpt lat="49.82483" lon="2.28367">
        <ele>92.3</ele>
        <time>2023-09-13T08:41:47Z</time>
      </trkpt>
      <trkpt lat="49.82481" lon="2.28366">
        <ele>92.3</ele>
        <time>2023-09-13T08:41:48Z</time>
      </trkpt>
      <trkpt lat="49.8248" lon="2.28365">
        <ele>92.3</ele>
        <time>2023-09-13T08:41:49Z</time>
      </trkpt>
      <trkpt lat="49.82479" lon="2.28364">
        <ele>92.3</ele>
        <time>2023-09-13T08:41:50Z</time>
      </trkpt>
      <trkpt lat="49.82478" lon="2.28363">
        <ele>92.3</ele>
        <time>2023-09-13T08:41:51Z</time>
      </trkpt>
      <trkpt lat="49.82477" lon="2.28363">
        <ele>92.2</ele>
        <time>2023-09-13T08:41:52Z</time>
      </trkpt>
      <trkpt lat="49.82476" lon="2.28363">
        <ele>92.2</ele>
        <time>2023-09-13T08:41:53Z</time>
      </trkpt>
      <trkpt lat="49.82475" lon="2.28362">
        <ele>92.2</ele>
        <time>2023-09-13T08:41:55Z</time>
      </trkpt>
      <trkpt lat="49.82474" lon="2.28362">
        <ele>92.2</ele>
        <time>2023-09-13T08:41:56Z</time>
      </trkpt>
      <trkpt lat="49.82473" lon="2.28361">
        <ele>92.2</ele>
        <time>2023-09-13T08:41:57Z</time>
      </trkpt>
      <trkpt lat="49.82472" lon="2.2836">
        <ele>92.2</ele>
        <time>2023-09-13T08:41:58Z</time>
      </trkpt>
      <trkpt lat="49.82471" lon="2.2836">
        <ele>92.2</ele>
        <time>2023-09-13T08:41:59Z</time>
      </trkpt>
      <trkpt lat="49.8247" lon="2.28359">
        <ele>92.1</ele>
        <time>2023-09-13T08:42:00Z</time>
      </trkpt>
      <trkpt lat="49.82468" lon="2.28357">
        <ele>92.1</ele>
        <time>2023-09-13T08:42:01Z</time>
      </trkpt>
      <trkpt lat="49.82467" lon="2.28356">
        <ele>92.1</ele>
        <time>2023-09-13T08:42:02Z</time>
      </trkpt>
      <trkpt lat="49.82466" lon="2.28355">
        <ele>92</ele>
        <time>2023-09-13T08:42:03Z</time>
      </trkpt>
      <trkpt lat="49.82465" lon="2.28353">
        <ele>92</ele>
        <time>2023-09-13T08:42:04Z</time>
      </trkpt>
      <trkpt lat="49.82464" lon="2.28352">
        <ele>92</ele>
        <time>2023-09-13T08:42:05Z</time>
      </trkpt>
      <trkpt lat="49.82463" lon="2.28351">
        <ele>92</ele>
        <time>2023-09-13T08:42:07Z</time>
      </trkpt>
      <trkpt lat="49.82463" lon="2.2835">
        <ele>92</ele>
        <time>2023-09-13T08:42:08Z</time>
      </trkpt>
      <trkpt lat="49.82462" lon="2.28348">
        <ele>91.9</ele>
        <time>2023-09-13T08:42:09Z</time>
      </trkpt>
      <trkpt lat="49.82461" lon="2.28347">
        <ele>91.9</ele>
        <time>2023-09-13T08:42:10Z</time>
      </trkpt>
      <trkpt lat="49.8246" lon="2.28346">
        <ele>91.9</ele>
        <time>2023-09-13T08:42:11Z</time>
      </trkpt>
      <trkpt lat="49.8246" lon="2.28344">
        <ele>91.9</ele>
        <time>2023-09-13T08:42:12Z</time>
      </trkpt>
      <trkpt lat="49.82459" lon="2.28343">
        <ele>91.8</ele>
        <time>2023-09-13T08:42:14Z</time>
      </trkpt>
      <trkpt lat="49.82458" lon="2.28342">
        <ele>91.8</ele>
        <time>2023-09-13T08:42:15Z</time>
      </trkpt>
      <trkpt lat="49.82457" lon="2.2834">
        <ele>91.8</ele>
        <time>2023-09-13T08:42:16Z</time>
      </trkpt>
      <trkpt lat="49.82456" lon="2.28338">
        <ele>91.7</ele>
        <time>2023-09-13T08:42:17Z</time>
      </trkpt>
      <trkpt lat="49.82455" lon="2.28337">
        <ele>91.7</ele>
        <time>2023-09-13T08:42:18Z</time>
      </trkpt>
      <trkpt lat="49.82455" lon="2.28336">
        <ele>91.7</ele>
        <time>2023-09-13T08:42:19Z</time>
      </trkpt>
      <trkpt lat="49.82454" lon="2.28335">
        <ele>91.6</ele>
        <time>2023-09-13T08:42:20Z</time>
      </trkpt>
      <trkpt lat="49.82453" lon="2.28333">
        <ele>91.6</ele>
        <time>2023-09-13T08:42:21Z</time>
      </trkpt>
      <trkpt lat="49.82451" lon="2.28332">
        <ele>91.6</ele>
        <time>2023-09-13T08:42:22Z</time>
      </trkpt>
      <trkpt lat="49.8245" lon="2.2833">
        <ele>91.5</ele>
        <time>2023-09-13T08:42:23Z</time>
      </trkpt>
      <trkpt lat="49.82448" lon="2.28328">
        <ele>91.5</ele>
        <time>2023-09-13T08:42:24Z</time>
      </trkpt>
      <trkpt lat="49.82448" lon="2.28327">
        <ele>91.5</ele>
        <time>2023-09-13T08:42:26Z</time>
      </trkpt>
      <trkpt lat="49.82447" lon="2.28326">
        <ele>91.4</ele>
        <time>2023-09-13T08:42:27Z</time>
      </trkpt>
      <trkpt lat="49.82446" lon="2.28324">
        <ele>91.4</ele>
        <time>2023-09-13T08:42:28Z</time>
      </trkpt>
      <trkpt lat="49.82445" lon="2.28323">
        <ele>91.4</ele>
        <time>2023-09-13T08:42:29Z</time>
      </trkpt>
      <trkpt lat="49.82444" lon="2.28321">
        <ele>91.3</ele>
        <time>2023-09-13T08:42:30Z</time>
      </trkpt>
      <trkpt lat="49.82443" lon="2.28319">
        <ele>91.3</ele>
        <time>2023-09-13T08:42:31Z</time>
      </trkpt>
      <trkpt lat="49.82442" lon="2.28317">
        <ele>91.3</ele>
        <time>2023-09-13T08:42:32Z</time>
      </trkpt>
      <trkpt lat="49.8244" lon="2.28314">
        <ele>91.2</ele>
        <time>2023-09-13T08:42:34Z</time>
      </trkpt>
      <trkpt lat="49.82439" lon="2.28312">
        <ele>91.2</ele>
        <time>2023-09-13T08:42:35Z</time>
      </trkpt>
      <trkpt lat="49.82438" lon="2.2831">
        <ele>91.1</ele>
        <time>2023-09-13T08:42:36Z</time>
      </trkpt>
      <trkpt lat="49.82437" lon="2.28308">
        <ele>91.1</ele>
        <time>2023-09-13T08:42:37Z</time>
      </trkpt>
      <trkpt lat="49.82436" lon="2.28306">
        <ele>91.1</ele>
        <time>2023-09-13T08:42:38Z</time>
      </trkpt>
      <trkpt lat="49.82436" lon="2.28305">
        <ele>91.1</ele>
        <time>2023-09-13T08:42:39Z</time>
      </trkpt>
      <trkpt lat="49.82435" lon="2.28303">
        <ele>91</ele>
        <time>2023-09-13T08:42:40Z</time>
      </trkpt>
      <trkpt lat="49.82434" lon="2.28302">
        <ele>91</ele>
        <time>2023-09-13T08:42:41Z</time>
      </trkpt>
      <trkpt lat="49.82433" lon="2.283">
        <ele>91</ele>
        <time>2023-09-13T08:42:42Z</time>
      </trkpt>
      <trkpt lat="49.82432" lon="2.28298">
        <ele>91</ele>
        <time>2023-09-13T08:42:43Z</time>
      </trkpt>
      <trkpt lat="49.82431" lon="2.28295">
        <ele>91</ele>
        <time>2023-09-13T08:42:45Z</time>
      </trkpt>
      <trkpt lat="49.82431" lon="2.28294">
        <ele>91</ele>
        <time>2023-09-13T08:42:46Z</time>
      </trkpt>
      <trkpt lat="49.8243" lon="2.28292">
        <ele>91</ele>
        <time>2023-09-13T08:42:47Z</time>
      </trkpt>
      <trkpt lat="49.82429" lon="2.2829">
        <ele>91</ele>
        <time>2023-09-13T08:42:48Z</time>
      </trkpt>
      <trkpt lat="49.82429" lon="2.28288">
        <ele>91</ele>
        <time>2023-09-13T08:42:49Z</time>
      </trkpt>
      <trkpt lat="49.82428" lon="2.28287">
        <ele>91</ele>
        <time>2023-09-13T08:42:50Z</time>
      </trkpt>
      <trkpt lat="49.82427" lon="2.28284">
        <ele>91</ele>
        <time>2023-09-13T08:42:52Z</time>
      </trkpt>
      <trkpt lat="49.82427" lon="2.28283">
        <ele>91</ele>
        <time>2023-09-13T08:42:53Z</time>
      </trkpt>
      <trkpt lat="49.82427" lon="2.28282">
        <ele>91</ele>
        <time>2023-09-13T08:42:54Z</time>
      </trkpt>
      <trkpt lat="49.82426" lon="2.28281">
        <ele>91</ele>
        <time>2023-09-13T08:42:55Z</time>
      </trkpt>
      <trkpt lat="49.82425" lon="2.28278">
        <ele>91</ele>
        <time>2023-09-13T08:42:56Z</time>
      </trkpt>
      <trkpt lat="49.82425" lon="2.28277">
        <ele>91</ele>
        <time>2023-09-13T08:42:58Z</time>
      </trkpt>
      <trkpt lat="49.82424" lon="2.28276">
        <ele>91.1</ele>
        <time>2023-09-13T08:42:59Z</time>
      </trkpt>
      <trkpt lat="49.82423" lon="2.28274">
        <ele>91.1</ele>
        <time>2023-09-13T08:43:00Z</time>
      </trkpt>
      <trkpt lat="49.82422" lon="2.28273">
        <ele>91.1</ele>
        <time>2023-09-13T08:43:01Z</time>
      </trkpt>
      <trkpt lat="49.82422" lon="2.28272">
        <ele>91.1</ele>
        <time>2023-09-13T08:43:02Z</time>
      </trkpt>
      <trkpt lat="49.82421" lon="2.28271">
        <ele>91.1</ele>
        <time>2023-09-13T08:43:03Z</time>
      </trkpt>
      <trkpt lat="49.82421" lon="2.2827">
        <ele>91.1</ele>
        <time>2023-09-13T08:43:04Z</time>
      </trkpt>
      <trkpt lat="49.8242" lon="2.28269">
        <ele>91.1</ele>
        <time>2023-09-13T08:43:05Z</time>
      </trkpt>
      <trkpt lat="49.82419" lon="2.28268">
        <ele>91.1</ele>
        <time>2023-09-13T08:43:06Z</time>
      </trkpt>
      <trkpt lat="49.82419" lon="2.28266">
        <ele>91.2</ele>
        <time>2023-09-13T08:43:08Z</time>
      </trkpt>
      <trkpt lat="49.82419" lon="2.28265">
        <ele>91.2</ele>
        <time>2023-09-13T08:43:09Z</time>
      </trkpt>
      <trkpt lat="49.82418" lon="2.28264">
        <ele>91.2</ele>
        <time>2023-09-13T08:43:10Z</time>
      </trkpt>
      <trkpt lat="49.82418" lon="2.28263">
        <ele>91.2</ele>
        <time>2023-09-13T08:43:11Z</time>
      </trkpt>
      <trkpt lat="49.82418" lon="2.28262">
        <ele>91.2</ele>
        <time>2023-09-13T08:43:12Z</time>
      </trkpt>
      <trkpt lat="49.82417" lon="2.2826">
        <ele>91.2</ele>
        <time>2023-09-13T08:43:13Z</time>
      </trkpt>
      <trkpt lat="49.82416" lon="2.28259">
        <ele>91.3</ele>
        <time>2023-09-13T08:43:14Z</time>
      </trkpt>
      <trkpt lat="49.82416" lon="2.28258">
        <ele>91.3</ele>
        <time>2023-09-13T08:43:15Z</time>
      </trkpt>
      <trkpt lat="49.82415" lon="2.28257">
        <ele>91.3</ele>
        <time>2023-09-13T08:43:16Z</time>
      </trkpt>
      <trkpt lat="49.82414" lon="2.28255">
        <ele>91.3</ele>
        <time>2023-09-13T08:43:17Z</time>
      </trkpt>
      <trkpt lat="49.82414" lon="2.28254">
        <ele>91.3</ele>
        <time>2023-09-13T08:43:19Z</time>
      </trkpt>
      <trkpt lat="49.82413" lon="2.28253">
        <ele>91.3</ele>
        <time>2023-09-13T08:43:20Z</time>
      </trkpt>
      <trkpt lat="49.82412" lon="2.28251">
        <ele>91.4</ele>
        <time>2023-09-13T08:43:21Z</time>
      </trkpt>
      <trkpt lat="49.82412" lon="2.2825">
        <ele>91.4</ele>
        <time>2023-09-13T08:43:22Z</time>
      </trkpt>
      <trkpt lat="49.82411" lon="2.28248">
        <ele>91.4</ele>
        <time>2023-09-13T08:43:23Z</time>
      </trkpt>
      <trkpt lat="49.8241" lon="2.28246">
        <ele>91.4</ele>
        <time>2023-09-13T08:43:24Z</time>
      </trkpt>
      <trkpt lat="49.8241" lon="2.28245">
        <ele>91.4</ele>
        <time>2023-09-13T08:43:25Z</time>
      </trkpt>
      <trkpt lat="49.82409" lon="2.28244">
        <ele>91.4</ele>
        <time>2023-09-13T08:43:26Z</time>
      </trkpt>
      <trkpt lat="49.82408" lon="2.28242">
        <ele>91.5</ele>
        <time>2023-09-13T08:43:27Z</time>
      </trkpt>
      <trkpt lat="49.82407" lon="2.28241">
        <ele>91.5</ele>
        <time>2023-09-13T08:43:29Z</time>
      </trkpt>
      <trkpt lat="49.82406" lon="2.28239">
        <ele>91.5</ele>
        <time>2023-09-13T08:43:30Z</time>
      </trkpt>
      <trkpt lat="49.82405" lon="2.28237">
        <ele>91.5</ele>
        <time>2023-09-13T08:43:31Z</time>
      </trkpt>
      <trkpt lat="49.82404" lon="2.28236">
        <ele>91.5</ele>
        <time>2023-09-13T08:43:32Z</time>
      </trkpt>
      <trkpt lat="49.82402" lon="2.28234">
        <ele>91.6</ele>
        <time>2023-09-13T08:43:33Z</time>
      </trkpt>
      <trkpt lat="49.82401" lon="2.28233">
        <ele>91.6</ele>
        <time>2023-09-13T08:43:35Z</time>
      </trkpt>
      <trkpt lat="49.824" lon="2.28232">
        <ele>91.6</ele>
        <time>2023-09-13T08:43:36Z</time>
      </trkpt>
      <trkpt lat="49.82399" lon="2.2823">
        <ele>91.6</ele>
        <time>2023-09-13T08:43:37Z</time>
      </trkpt>
      <trkpt lat="49.82398" lon="2.28229">
        <ele>91.6</ele>
        <time>2023-09-13T08:43:38Z</time>
      </trkpt>
      <trkpt lat="49.82396" lon="2.28228">
        <ele>91.6</ele>
        <time>2023-09-13T08:43:39Z</time>
      </trkpt>
      <trkpt lat="49.82395" lon="2.28227">
        <ele>91.7</ele>
        <time>2023-09-13T08:43:40Z</time>
      </trkpt>
      <trkpt lat="49.82394" lon="2.28226">
        <ele>91.7</ele>
        <time>2023-09-13T08:43:41Z</time>
      </trkpt>
      <trkpt lat="49.82393" lon="2.28225">
        <ele>91.7</ele>
        <time>2023-09-13T08:43:42Z</time>
      </trkpt>
      <trkpt lat="49.82391" lon="2.28223">
        <ele>91.7</ele>
        <time>2023-09-13T08:43:43Z</time>
      </trkpt>
      <trkpt lat="49.8239" lon="2.28221">
        <ele>91.7</ele>
        <time>2023-09-13T08:43:45Z</time>
      </trkpt>
      <trkpt lat="49.82389" lon="2.2822">
        <ele>91.8</ele>
        <time>2023-09-13T08:43:46Z</time>
      </trkpt>
      <trkpt lat="49.82388" lon="2.28219">
        <ele>91.8</ele>
        <time>2023-09-13T08:43:47Z</time>
      </trkpt>
      <trkpt lat="49.82388" lon="2.28218">
        <ele>91.8</ele>
        <time>2023-09-13T08:43:48Z</time>
      </trkpt>
      <trkpt lat="49.82387" lon="2.28217">
        <ele>91.8</ele>
        <time>2023-09-13T08:43:49Z</time>
      </trkpt>
      <trkpt lat="49.82385" lon="2.28216">
        <ele>91.8</ele>
        <time>2023-09-13T08:43:50Z</time>
      </trkpt>
      <trkpt lat="49.82384" lon="2.28214">
        <ele>91.9</ele>
        <time>2023-09-13T08:43:52Z</time>
      </trkpt>
      <trkpt lat="49.82383" lon="2.28213">
        <ele>91.9</ele>
        <time>2023-09-13T08:43:53Z</time>
      </trkpt>
      <trkpt lat="49.82381" lon="2.28211">
        <ele>91.9</ele>
        <time>2023-09-13T08:43:54Z</time>
      </trkpt>
      <trkpt lat="49.8238" lon="2.2821">
        <ele>92</ele>
        <time>2023-09-13T08:43:55Z</time>
      </trkpt>
      <trkpt lat="49.8238" lon="2.28209">
        <ele>92</ele>
        <time>2023-09-13T08:43:56Z</time>
      </trkpt>
      <trkpt lat="49.82378" lon="2.28207">
        <ele>92</ele>
        <time>2023-09-13T08:43:57Z</time>
      </trkpt>
      <trkpt lat="49.82378" lon="2.28206">
        <ele>92.1</ele>
        <time>2023-09-13T08:43:58Z</time>
      </trkpt>
      <trkpt lat="49.82377" lon="2.28205">
        <ele>92.1</ele>
        <time>2023-09-13T08:43:59Z</time>
      </trkpt>
      <trkpt lat="49.82376" lon="2.28203">
        <ele>92.1</ele>
        <time>2023-09-13T08:44:00Z</time>
      </trkpt>
      <trkpt lat="49.82375" lon="2.28202">
        <ele>92.2</ele>
        <time>2023-09-13T08:44:02Z</time>
      </trkpt>
      <trkpt lat="49.82375" lon="2.28201">
        <ele>92.2</ele>
        <time>2023-09-13T08:44:03Z</time>
      </trkpt>
      <trkpt lat="49.82374" lon="2.28199">
        <ele>92.2</ele>
        <time>2023-09-13T08:44:04Z</time>
      </trkpt>
      <trkpt lat="49.82373" lon="2.28198">
        <ele>92.3</ele>
        <time>2023-09-13T08:44:05Z</time>
      </trkpt>
      <trkpt lat="49.82373" lon="2.28197">
        <ele>92.3</ele>
        <time>2023-09-13T08:44:06Z</time>
      </trkpt>
      <trkpt lat="49.82372" lon="2.28196">
        <ele>92.3</ele>
        <time>2023-09-13T08:44:07Z</time>
      </trkpt>
      <trkpt lat="49.82372" lon="2.28195">
        <ele>92.4</ele>
        <time>2023-09-13T08:44:08Z</time>
      </trkpt>
      <trkpt lat="49.82371" lon="2.28193">
        <ele>92.4</ele>
        <time>2023-09-13T08:44:09Z</time>
      </trkpt>
      <trkpt lat="49.82371" lon="2.28192">
        <ele>92.4</ele>
        <time>2023-09-13T08:44:11Z</time>
      </trkpt>
      <trkpt lat="49.82371" lon="2.2819">
        <ele>92.5</ele>
        <time>2023-09-13T08:44:12Z</time>
      </trkpt>
      <trkpt lat="49.82371" lon="2.28189">
        <ele>92.5</ele>
        <time>2023-09-13T08:44:13Z</time>
      </trkpt>
      <trkpt lat="49.8237" lon="2.28186">
        <ele>92.6</ele>
        <time>2023-09-13T08:44:14Z</time>
      </trkpt>
      <trkpt lat="49.8237" lon="2.28184">
        <ele>92.7</ele>
        <time>2023-09-13T08:44:16Z</time>
      </trkpt>
      <trkpt lat="49.8237" lon="2.28183">
        <ele>92.7</ele>
        <time>2023-09-13T08:44:17Z</time>
      </trkpt>
      <trkpt lat="49.8237" lon="2.28181">
        <ele>92.8</ele>
        <time>2023-09-13T08:44:18Z</time>
      </trkpt>
      <trkpt lat="49.8237" lon="2.28179">
        <ele>92.8</ele>
        <time>2023-09-13T08:44:19Z</time>
      </trkpt>
      <trkpt lat="49.8237" lon="2.28178">
        <ele>92.9</ele>
        <time>2023-09-13T08:44:20Z</time>
      </trkpt>
      <trkpt lat="49.8237" lon="2.28174">
        <ele>93</ele>
        <time>2023-09-13T08:44:22Z</time>
      </trkpt>
      <trkpt lat="49.82369" lon="2.28173">
        <ele>93</ele>
        <time>2023-09-13T08:44:23Z</time>
      </trkpt>
      <trkpt lat="49.82369" lon="2.28172">
        <ele>93.1</ele>
        <time>2023-09-13T08:44:24Z</time>
      </trkpt>
      <trkpt lat="49.82369" lon="2.2817">
        <ele>93.1</ele>
        <time>2023-09-13T08:44:25Z</time>
      </trkpt>
      <trkpt lat="49.82369" lon="2.28167">
        <ele>93.2</ele>
        <time>2023-09-13T08:44:26Z</time>
      </trkpt>
      <trkpt lat="49.82369" lon="2.28165">
        <ele>93.3</ele>
        <time>2023-09-13T08:44:27Z</time>
      </trkpt>
      <trkpt lat="49.82369" lon="2.28163">
        <ele>93.4</ele>
        <time>2023-09-13T08:44:29Z</time>
      </trkpt>
      <trkpt lat="49.82369" lon="2.28161">
        <ele>93.5</ele>
        <time>2023-09-13T08:44:30Z</time>
      </trkpt>
      <trkpt lat="49.82368" lon="2.28158">
        <ele>93.6</ele>
        <time>2023-09-13T08:44:31Z</time>
      </trkpt>
      <trkpt lat="49.82368" lon="2.28156">
        <ele>93.6</ele>
        <time>2023-09-13T08:44:32Z</time>
      </trkpt>
      <trkpt lat="49.82367" lon="2.28154">
        <ele>93.7</ele>
        <time>2023-09-13T08:44:33Z</time>
      </trkpt>
      <trkpt lat="49.82367" lon="2.28152">
        <ele>93.8</ele>
        <time>2023-09-13T08:44:35Z</time>
      </trkpt>
      <trkpt lat="49.82366" lon="2.2815">
        <ele>93.9</ele>
        <time>2023-09-13T08:44:36Z</time>
      </trkpt>
      <trkpt lat="49.82366" lon="2.28148">
        <ele>94</ele>
        <time>2023-09-13T08:44:37Z</time>
      </trkpt>
      <trkpt lat="49.82365" lon="2.28146">
        <ele>94.1</ele>
        <time>2023-09-13T08:44:38Z</time>
      </trkpt>
      <trkpt lat="49.82364" lon="2.28144">
        <ele>94.1</ele>
        <time>2023-09-13T08:44:39Z</time>
      </trkpt>
      <trkpt lat="49.82364" lon="2.28142">
        <ele>94.2</ele>
        <time>2023-09-13T08:44:40Z</time>
      </trkpt>
      <trkpt lat="49.82363" lon="2.28139">
        <ele>94.3</ele>
        <time>2023-09-13T08:44:42Z</time>
      </trkpt>
      <trkpt lat="49.82363" lon="2.28137">
        <ele>94.3</ele>
        <time>2023-09-13T08:44:43Z</time>
      </trkpt>
      <trkpt lat="49.82362" lon="2.28135">
        <ele>94.4</ele>
        <time>2023-09-13T08:44:44Z</time>
      </trkpt>
      <trkpt lat="49.82362" lon="2.28133">
        <ele>94.5</ele>
        <time>2023-09-13T08:44:45Z</time>
      </trkpt>
      <trkpt lat="49.82362" lon="2.28129">
        <ele>94.6</ele>
        <time>2023-09-13T08:44:46Z</time>
      </trkpt>
      <trkpt lat="49.82361" lon="2.28128">
        <ele>94.6</ele>
        <time>2023-09-13T08:44:47Z</time>
      </trkpt>
      <trkpt lat="49.82361" lon="2.28127">
        <ele>94.7</ele>
        <time>2023-09-13T08:44:48Z</time>
      </trkpt>
      <trkpt lat="49.82361" lon="2.28123">
        <ele>94.7</ele>
        <time>2023-09-13T08:44:50Z</time>
      </trkpt>
      <trkpt lat="49.82361" lon="2.28122">
        <ele>94.8</ele>
        <time>2023-09-13T08:44:51Z</time>
      </trkpt>
      <trkpt lat="49.82361" lon="2.28121">
        <ele>94.8</ele>
        <time>2023-09-13T08:44:52Z</time>
      </trkpt>
      <trkpt lat="49.82361" lon="2.28119">
        <ele>94.9</ele>
        <time>2023-09-13T08:44:53Z</time>
      </trkpt>
      <trkpt lat="49.82361" lon="2.28117">
        <ele>94.9</ele>
        <time>2023-09-13T08:44:54Z</time>
      </trkpt>
      <trkpt lat="49.8236" lon="2.28115">
        <ele>95</ele>
        <time>2023-09-13T08:44:55Z</time>
      </trkpt>
      <trkpt lat="49.8236" lon="2.28114">
        <ele>95</ele>
        <time>2023-09-13T08:44:56Z</time>
      </trkpt>
      <trkpt lat="49.8236" lon="2.28112">
        <ele>95</ele>
        <time>2023-09-13T08:44:58Z</time>
      </trkpt>
      <trkpt lat="49.8236" lon="2.2811">
        <ele>95.1</ele>
        <time>2023-09-13T08:44:59Z</time>
      </trkpt>
      <trkpt lat="49.82359" lon="2.28107">
        <ele>95.2</ele>
        <time>2023-09-13T08:45:00Z</time>
      </trkpt>
      <trkpt lat="49.82359" lon="2.28106">
        <ele>95.2</ele>
        <time>2023-09-13T08:45:02Z</time>
      </trkpt>
      <trkpt lat="49.82359" lon="2.28104">
        <ele>95.2</ele>
        <time>2023-09-13T08:45:03Z</time>
      </trkpt>
      <trkpt lat="49.82359" lon="2.28101">
        <ele>95.3</ele>
        <time>2023-09-13T08:45:04Z</time>
      </trkpt>
      <trkpt lat="49.82359" lon="2.281">
        <ele>95.3</ele>
        <time>2023-09-13T08:45:05Z</time>
      </trkpt>
      <trkpt lat="49.82359" lon="2.28099">
        <ele>95.3</ele>
        <time>2023-09-13T08:45:06Z</time>
      </trkpt>
      <trkpt lat="49.82359" lon="2.28097">
        <ele>95.4</ele>
        <time>2023-09-13T08:45:07Z</time>
      </trkpt>
      <trkpt lat="49.82358" lon="2.28094">
        <ele>95.5</ele>
        <time>2023-09-13T08:45:08Z</time>
      </trkpt>
      <trkpt lat="49.82358" lon="2.28092">
        <ele>95.5</ele>
        <time>2023-09-13T08:45:09Z</time>
      </trkpt>
      <trkpt lat="49.82357" lon="2.28089">
        <ele>95.6</ele>
        <time>2023-09-13T08:45:11Z</time>
      </trkpt>
      <trkpt lat="49.82357" lon="2.28086">
        <ele>95.6</ele>
        <time>2023-09-13T08:45:12Z</time>
      </trkpt>
      <trkpt lat="49.82357" lon="2.28084">
        <ele>95.7</ele>
        <time>2023-09-13T08:45:13Z</time>
      </trkpt>
      <trkpt lat="49.82356" lon="2.28082">
        <ele>95.7</ele>
        <time>2023-09-13T08:45:14Z</time>
      </trkpt>
      <trkpt lat="49.82356" lon="2.2808">
        <ele>95.8</ele>
        <time>2023-09-13T08:45:15Z</time>
      </trkpt>
      <trkpt lat="49.82355" lon="2.28077">
        <ele>95.8</ele>
        <time>2023-09-13T08:45:17Z</time>
      </trkpt>
      <trkpt lat="49.82354" lon="2.28076">
        <ele>95.9</ele>
        <time>2023-09-13T08:45:18Z</time>
      </trkpt>
      <trkpt lat="49.82354" lon="2.28074">
        <ele>95.9</ele>
        <time>2023-09-13T08:45:19Z</time>
      </trkpt>
      <trkpt lat="49.82354" lon="2.28073">
        <ele>95.9</ele>
        <time>2023-09-13T08:45:20Z</time>
      </trkpt>
      <trkpt lat="49.82354" lon="2.28071">
        <ele>96</ele>
        <time>2023-09-13T08:45:21Z</time>
      </trkpt>
      <trkpt lat="49.82354" lon="2.28069">
        <ele>96</ele>
        <time>2023-09-13T08:45:23Z</time>
      </trkpt>
      <trkpt lat="49.82354" lon="2.28067">
        <ele>96</ele>
        <time>2023-09-13T08:45:24Z</time>
      </trkpt>
      <trkpt lat="49.82354" lon="2.28065">
        <ele>96.1</ele>
        <time>2023-09-13T08:45:25Z</time>
      </trkpt>
      <trkpt lat="49.82353" lon="2.28064">
        <ele>96.1</ele>
        <time>2023-09-13T08:45:26Z</time>
      </trkpt>
      <trkpt lat="49.82353" lon="2.28062">
        <ele>96.1</ele>
        <time>2023-09-13T08:45:27Z</time>
      </trkpt>
      <trkpt lat="49.82353" lon="2.2806">
        <ele>96.2</ele>
        <time>2023-09-13T08:45:28Z</time>
      </trkpt>
      <trkpt lat="49.82352" lon="2.28058">
        <ele>96.2</ele>
        <time>2023-09-13T08:45:30Z</time>
      </trkpt>
      <trkpt lat="49.82352" lon="2.28055">
        <ele>96.3</ele>
        <time>2023-09-13T08:45:31Z</time>
      </trkpt>
      <trkpt lat="49.82352" lon="2.28054">
        <ele>96.3</ele>
        <time>2023-09-13T08:45:32Z</time>
      </trkpt>
      <trkpt lat="49.82351" lon="2.28053">
        <ele>96.3</ele>
        <time>2023-09-13T08:45:33Z</time>
      </trkpt>
      <trkpt lat="49.82351" lon="2.28051">
        <ele>96.3</ele>
        <time>2023-09-13T08:45:34Z</time>
      </trkpt>
      <trkpt lat="49.82351" lon="2.28049">
        <ele>96.4</ele>
        <time>2023-09-13T08:45:35Z</time>
      </trkpt>
      <trkpt lat="49.8235" lon="2.28048">
        <ele>96.4</ele>
        <time>2023-09-13T08:45:36Z</time>
      </trkpt>
      <trkpt lat="49.8235" lon="2.28046">
        <ele>96.4</ele>
        <time>2023-09-13T08:45:37Z</time>
      </trkpt>
      <trkpt lat="49.8235" lon="2.28044">
        <ele>96.4</ele>
        <time>2023-09-13T08:45:39Z</time>
      </trkpt>
      <trkpt lat="49.8235" lon="2.28042">
        <ele>96.5</ele>
        <time>2023-09-13T08:45:40Z</time>
      </trkpt>
      <trkpt lat="49.8235" lon="2.28041">
        <ele>96.5</ele>
        <time>2023-09-13T08:45:41Z</time>
      </trkpt>
      <trkpt lat="49.8235" lon="2.28039">
        <ele>96.5</ele>
        <time>2023-09-13T08:45:42Z</time>
      </trkpt>
      <trkpt lat="49.8235" lon="2.28038">
        <ele>96.5</ele>
        <time>2023-09-13T08:45:43Z</time>
      </trkpt>
      <trkpt lat="49.8235" lon="2.28037">
        <ele>96.5</ele>
        <time>2023-09-13T08:45:44Z</time>
      </trkpt>
      <trkpt lat="49.82349" lon="2.28035">
        <ele>96.6</ele>
        <time>2023-09-13T08:45:45Z</time>
      </trkpt>
      <trkpt lat="49.82349" lon="2.28033">
        <ele>96.6</ele>
        <time>2023-09-13T08:45:46Z</time>
      </trkpt>
      <trkpt lat="49.82349" lon="2.28031">
        <ele>96.6</ele>
        <time>2023-09-13T08:45:48Z</time>
      </trkpt>
      <trkpt lat="49.82349" lon="2.2803">
        <ele>96.6</ele>
        <time>2023-09-13T08:45:49Z</time>
      </trkpt>
      <trkpt lat="49.82348" lon="2.28028">
        <ele>96.6</ele>
        <time>2023-09-13T08:45:50Z</time>
      </trkpt>
      <trkpt lat="49.82348" lon="2.28026">
        <ele>96.7</ele>
        <time>2023-09-13T08:45:52Z</time>
      </trkpt>
      <trkpt lat="49.82347" lon="2.28024">
        <ele>96.7</ele>
        <time>2023-09-13T08:45:53Z</time>
      </trkpt>
      <trkpt lat="49.82347" lon="2.28023">
        <ele>96.7</ele>
        <time>2023-09-13T08:45:54Z</time>
      </trkpt>
      <trkpt lat="49.82347" lon="2.28021">
        <ele>96.7</ele>
        <time>2023-09-13T08:45:55Z</time>
      </trkpt>
      <trkpt lat="49.82346" lon="2.28019">
        <ele>96.7</ele>
        <time>2023-09-13T08:45:56Z</time>
      </trkpt>
      <trkpt lat="49.82345" lon="2.28016">
        <ele>96.7</ele>
        <time>2023-09-13T08:45:57Z</time>
      </trkpt>
      <trkpt lat="49.82345" lon="2.28015">
        <ele>96.7</ele>
        <time>2023-09-13T08:45:59Z</time>
      </trkpt>
      <trkpt lat="49.82344" lon="2.28013">
        <ele>96.7</ele>
        <time>2023-09-13T08:46:00Z</time>
      </trkpt>
      <trkpt lat="49.82343" lon="2.28012">
        <ele>96.7</ele>
        <time>2023-09-13T08:46:01Z</time>
      </trkpt>
      <trkpt lat="49.82343" lon="2.28011">
        <ele>96.7</ele>
        <time>2023-09-13T08:46:02Z</time>
      </trkpt>
      <trkpt lat="49.82342" lon="2.28009">
        <ele>96.7</ele>
        <time>2023-09-13T08:46:03Z</time>
      </trkpt>
      <trkpt lat="49.82341" lon="2.28007">
        <ele>96.7</ele>
        <time>2023-09-13T08:46:04Z</time>
      </trkpt>
      <trkpt lat="49.82341" lon="2.28005">
        <ele>96.7</ele>
        <time>2023-09-13T08:46:05Z</time>
      </trkpt>
      <trkpt lat="49.8234" lon="2.28003">
        <ele>96.7</ele>
        <time>2023-09-13T08:46:06Z</time>
      </trkpt>
      <trkpt lat="49.82339" lon="2.28">
        <ele>96.7</ele>
        <time>2023-09-13T08:46:08Z</time>
      </trkpt>
      <trkpt lat="49.82339" lon="2.27999">
        <ele>96.7</ele>
        <time>2023-09-13T08:46:09Z</time>
      </trkpt>
      <trkpt lat="49.82339" lon="2.27998">
        <ele>96.6</ele>
        <time>2023-09-13T08:46:10Z</time>
      </trkpt>
      <trkpt lat="49.82338" lon="2.27995">
        <ele>96.6</ele>
        <time>2023-09-13T08:46:11Z</time>
      </trkpt>
      <trkpt lat="49.82337" lon="2.27994">
        <ele>96.6</ele>
        <time>2023-09-13T08:46:12Z</time>
      </trkpt>
      <trkpt lat="49.82337" lon="2.27993">
        <ele>96.6</ele>
        <time>2023-09-13T08:46:13Z</time>
      </trkpt>
      <trkpt lat="49.82336" lon="2.27991">
        <ele>96.6</ele>
        <time>2023-09-13T08:46:14Z</time>
      </trkpt>
      <trkpt lat="49.82334" lon="2.27989">
        <ele>96.5</ele>
        <time>2023-09-13T08:46:16Z</time>
      </trkpt>
      <trkpt lat="49.82333" lon="2.27988">
        <ele>96.5</ele>
        <time>2023-09-13T08:46:17Z</time>
      </trkpt>
      <trkpt lat="49.82332" lon="2.27986">
        <ele>96.5</ele>
        <time>2023-09-13T08:46:18Z</time>
      </trkpt>
      <trkpt lat="49.82331" lon="2.27984">
        <ele>96.5</ele>
        <time>2023-09-13T08:46:19Z</time>
      </trkpt>
      <trkpt lat="49.8233" lon="2.27982">
        <ele>96.4</ele>
        <time>2023-09-13T08:46:20Z</time>
      </trkpt>
      <trkpt lat="49.82329" lon="2.2798">
        <ele>96.4</ele>
        <time>2023-09-13T08:46:21Z</time>
      </trkpt>
      <trkpt lat="49.82329" lon="2.27979">
        <ele>96.3</ele>
        <time>2023-09-13T08:46:22Z</time>
      </trkpt>
      <trkpt lat="49.82327" lon="2.27975">
        <ele>96.3</ele>
        <time>2023-09-13T08:46:23Z</time>
      </trkpt>
      <trkpt lat="49.82326" lon="2.27974">
        <ele>96.3</ele>
        <time>2023-09-13T08:46:25Z</time>
      </trkpt>
      <trkpt lat="49.82326" lon="2.27972">
        <ele>96.2</ele>
        <time>2023-09-13T08:46:26Z</time>
      </trkpt>
      <trkpt lat="49.82325" lon="2.27971">
        <ele>96.2</ele>
        <time>2023-09-13T08:46:27Z</time>
      </trkpt>
      <trkpt lat="49.82324" lon="2.2797">
        <ele>96.2</ele>
        <time>2023-09-13T08:46:28Z</time>
      </trkpt>
      <trkpt lat="49.82324" lon="2.27968">
        <ele>96.1</ele>
        <time>2023-09-13T08:46:29Z</time>
      </trkpt>
      <trkpt lat="49.82323" lon="2.27965">
        <ele>96.1</ele>
        <time>2023-09-13T08:46:31Z</time>
      </trkpt>
      <trkpt lat="49.82322" lon="2.27963">
        <ele>96.1</ele>
        <time>2023-09-13T08:46:32Z</time>
      </trkpt>
      <trkpt lat="49.82321" lon="2.27961">
        <ele>96</ele>
        <time>2023-09-13T08:46:33Z</time>
      </trkpt>
      <trkpt lat="49.8232" lon="2.27959">
        <ele>96</ele>
        <time>2023-09-13T08:46:34Z</time>
      </trkpt>
      <trkpt lat="49.8232" lon="2.27957">
        <ele>96</ele>
        <time>2023-09-13T08:46:35Z</time>
      </trkpt>
      <trkpt lat="49.82319" lon="2.27954">
        <ele>96</ele>
        <time>2023-09-13T08:46:36Z</time>
      </trkpt>
      <trkpt lat="49.82318" lon="2.27953">
        <ele>95.9</ele>
        <time>2023-09-13T08:46:37Z</time>
      </trkpt>
      <trkpt lat="49.82318" lon="2.27952">
        <ele>95.9</ele>
        <time>2023-09-13T08:46:38Z</time>
      </trkpt>
      <trkpt lat="49.82317" lon="2.27951">
        <ele>95.9</ele>
        <time>2023-09-13T08:46:40Z</time>
      </trkpt>
      <trkpt lat="49.82316" lon="2.27949">
        <ele>95.9</ele>
        <time>2023-09-13T08:46:41Z</time>
      </trkpt>
      <trkpt lat="49.82315" lon="2.27948">
        <ele>95.9</ele>
        <time>2023-09-13T08:46:42Z</time>
      </trkpt>
      <trkpt lat="49.82314" lon="2.27946">
        <ele>95.9</ele>
        <time>2023-09-13T08:46:43Z</time>
      </trkpt>
      <trkpt lat="49.82313" lon="2.27943">
        <ele>95.9</ele>
        <time>2023-09-13T08:46:44Z</time>
      </trkpt>
      <trkpt lat="49.82313" lon="2.27942">
        <ele>95.8</ele>
        <time>2023-09-13T08:46:45Z</time>
      </trkpt>
      <trkpt lat="49.82312" lon="2.27941">
        <ele>95.8</ele>
        <time>2023-09-13T08:46:46Z</time>
      </trkpt>
      <trkpt lat="49.82311" lon="2.2794">
        <ele>95.8</ele>
        <time>2023-09-13T08:46:47Z</time>
      </trkpt>
      <trkpt lat="49.8231" lon="2.27938">
        <ele>95.8</ele>
        <time>2023-09-13T08:46:48Z</time>
      </trkpt>
      <trkpt lat="49.8231" lon="2.27937">
        <ele>95.8</ele>
        <time>2023-09-13T08:46:50Z</time>
      </trkpt>
      <trkpt lat="49.82309" lon="2.27935">
        <ele>95.8</ele>
        <time>2023-09-13T08:46:51Z</time>
      </trkpt>
      <trkpt lat="49.82308" lon="2.27934">
        <ele>95.8</ele>
        <time>2023-09-13T08:46:52Z</time>
      </trkpt>
      <trkpt lat="49.82308" lon="2.27932">
        <ele>95.8</ele>
        <time>2023-09-13T08:46:53Z</time>
      </trkpt>
      <trkpt lat="49.82307" lon="2.27929">
        <ele>95.8</ele>
        <time>2023-09-13T08:46:54Z</time>
      </trkpt>
      <trkpt lat="49.82307" lon="2.27928">
        <ele>95.8</ele>
        <time>2023-09-13T08:46:55Z</time>
      </trkpt>
      <trkpt lat="49.82307" lon="2.27927">
        <ele>95.8</ele>
        <time>2023-09-13T08:46:56Z</time>
      </trkpt>
      <trkpt lat="49.82307" lon="2.27924">
        <ele>95.8</ele>
        <time>2023-09-13T08:46:58Z</time>
      </trkpt>
      <trkpt lat="49.82306" lon="2.27923">
        <ele>95.8</ele>
        <time>2023-09-13T08:46:59Z</time>
      </trkpt>
      <trkpt lat="49.82306" lon="2.2792">
        <ele>95.8</ele>
        <time>2023-09-13T08:47:00Z</time>
      </trkpt>
      <trkpt lat="49.82306" lon="2.27918">
        <ele>95.8</ele>
        <time>2023-09-13T08:47:01Z</time>
      </trkpt>
      <trkpt lat="49.82305" lon="2.27916">
        <ele>95.8</ele>
        <time>2023-09-13T08:47:02Z</time>
      </trkpt>
      <trkpt lat="49.82305" lon="2.27915">
        <ele>95.8</ele>
        <time>2023-09-13T08:47:03Z</time>
      </trkpt>
      <trkpt lat="49.82304" lon="2.27913">
        <ele>95.8</ele>
        <time>2023-09-13T08:47:05Z</time>
      </trkpt>
      <trkpt lat="49.82304" lon="2.27912">
        <ele>95.9</ele>
        <time>2023-09-13T08:47:06Z</time>
      </trkpt>
      <trkpt lat="49.82303" lon="2.27911">
        <ele>95.9</ele>
        <time>2023-09-13T08:47:07Z</time>
      </trkpt>
      <trkpt lat="49.82303" lon="2.2791">
        <ele>95.9</ele>
        <time>2023-09-13T08:47:08Z</time>
      </trkpt>
      <trkpt lat="49.82302" lon="2.27909">
        <ele>95.9</ele>
        <time>2023-09-13T08:47:09Z</time>
      </trkpt>
      <trkpt lat="49.82301" lon="2.27909">
        <ele>95.9</ele>
        <time>2023-09-13T08:47:10Z</time>
      </trkpt>
      <trkpt lat="49.823" lon="2.27908">
        <ele>95.9</ele>
        <time>2023-09-13T08:47:12Z</time>
      </trkpt>
      <trkpt lat="49.823" lon="2.27907">
        <ele>95.9</ele>
        <time>2023-09-13T08:47:13Z</time>
      </trkpt>
      <trkpt lat="49.82298" lon="2.27905">
        <ele>95.9</ele>
        <time>2023-09-13T08:47:14Z</time>
      </trkpt>
      <trkpt lat="49.82297" lon="2.27904">
        <ele>95.9</ele>
        <time>2023-09-13T08:47:15Z</time>
      </trkpt>
      <trkpt lat="49.82297" lon="2.27903">
        <ele>95.9</ele>
        <time>2023-09-13T08:47:16Z</time>
      </trkpt>
      <trkpt lat="49.82295" lon="2.27903">
        <ele>95.9</ele>
        <time>2023-09-13T08:47:17Z</time>
      </trkpt>
      <trkpt lat="49.82294" lon="2.27902">
        <ele>95.9</ele>
        <time>2023-09-13T08:47:18Z</time>
      </trkpt>
      <trkpt lat="49.82293" lon="2.27901">
        <ele>95.9</ele>
        <time>2023-09-13T08:47:20Z</time>
      </trkpt>
      <trkpt lat="49.82292" lon="2.279">
        <ele>95.9</ele>
        <time>2023-09-13T08:47:21Z</time>
      </trkpt>
      <trkpt lat="49.82291" lon="2.27899">
        <ele>95.9</ele>
        <time>2023-09-13T08:47:22Z</time>
      </trkpt>
      <trkpt lat="49.82291" lon="2.27898">
        <ele>95.9</ele>
        <time>2023-09-13T08:47:23Z</time>
      </trkpt>
      <trkpt lat="49.8229" lon="2.27897">
        <ele>96</ele>
        <time>2023-09-13T08:47:24Z</time>
      </trkpt>
      <trkpt lat="49.82288" lon="2.27896">
        <ele>96</ele>
        <time>2023-09-13T08:47:25Z</time>
      </trkpt>
      <trkpt lat="49.82286" lon="2.27894">
        <ele>96</ele>
        <time>2023-09-13T08:47:27Z</time>
      </trkpt>
      <trkpt lat="49.82285" lon="2.27894">
        <ele>96</ele>
        <time>2023-09-13T08:47:28Z</time>
      </trkpt>
      <trkpt lat="49.82284" lon="2.27893">
        <ele>96</ele>
        <time>2023-09-13T08:47:29Z</time>
      </trkpt>
      <trkpt lat="49.82283" lon="2.27892">
        <ele>96</ele>
        <time>2023-09-13T08:47:30Z</time>
      </trkpt>
      <trkpt lat="49.82282" lon="2.27891">
        <ele>96</ele>
        <time>2023-09-13T08:47:31Z</time>
      </trkpt>
      <trkpt lat="49.82281" lon="2.2789">
        <ele>96</ele>
        <time>2023-09-13T08:47:32Z</time>
      </trkpt>
      <trkpt lat="49.8228" lon="2.27888">
        <ele>96</ele>
        <time>2023-09-13T08:47:33Z</time>
      </trkpt>
      <trkpt lat="49.82278" lon="2.27886">
        <ele>96</ele>
        <time>2023-09-13T08:47:35Z</time>
      </trkpt>
      <trkpt lat="49.82277" lon="2.27885">
        <ele>96</ele>
        <time>2023-09-13T08:47:36Z</time>
      </trkpt>
      <trkpt lat="49.82276" lon="2.27882">
        <ele>96</ele>
        <time>2023-09-13T08:47:37Z</time>
      </trkpt>
      <trkpt lat="49.82275" lon="2.27881">
        <ele>96.1</ele>
        <time>2023-09-13T08:47:38Z</time>
      </trkpt>
      <trkpt lat="49.82275" lon="2.2788">
        <ele>96.1</ele>
        <time>2023-09-13T08:47:39Z</time>
      </trkpt>
      <trkpt lat="49.82274" lon="2.27878">
        <ele>96.1</ele>
        <time>2023-09-13T08:47:41Z</time>
      </trkpt>
      <trkpt lat="49.82273" lon="2.27877">
        <ele>96.1</ele>
        <time>2023-09-13T08:47:42Z</time>
      </trkpt>
      <trkpt lat="49.82273" lon="2.27876">
        <ele>96.1</ele>
        <time>2023-09-13T08:47:43Z</time>
      </trkpt>
      <trkpt lat="49.82271" lon="2.27873">
        <ele>96.1</ele>
        <time>2023-09-13T08:47:44Z</time>
      </trkpt>
      <trkpt lat="49.82271" lon="2.27872">
        <ele>96.1</ele>
        <time>2023-09-13T08:47:45Z</time>
      </trkpt>
      <trkpt lat="49.82271" lon="2.27871">
        <ele>96.1</ele>
        <time>2023-09-13T08:47:46Z</time>
      </trkpt>
      <trkpt lat="49.8227" lon="2.27869">
        <ele>96.1</ele>
        <time>2023-09-13T08:47:47Z</time>
      </trkpt>
      <trkpt lat="49.82269" lon="2.27868">
        <ele>96.1</ele>
        <time>2023-09-13T08:47:48Z</time>
      </trkpt>
      <trkpt lat="49.82269" lon="2.27866">
        <ele>96.2</ele>
        <time>2023-09-13T08:47:49Z</time>
      </trkpt>
      <trkpt lat="49.82268" lon="2.27865">
        <ele>96.2</ele>
        <time>2023-09-13T08:47:50Z</time>
      </trkpt>
      <trkpt lat="49.82268" lon="2.27863">
        <ele>96.2</ele>
        <time>2023-09-13T08:47:51Z</time>
      </trkpt>
      <trkpt lat="49.82267" lon="2.27862">
        <ele>96.2</ele>
        <time>2023-09-13T08:47:53Z</time>
      </trkpt>
      <trkpt lat="49.82266" lon="2.27861">
        <ele>96.2</ele>
        <time>2023-09-13T08:47:54Z</time>
      </trkpt>
      <trkpt lat="49.82266" lon="2.27859">
        <ele>96.2</ele>
        <time>2023-09-13T08:47:55Z</time>
      </trkpt>
      <trkpt lat="49.82265" lon="2.27858">
        <ele>96.3</ele>
        <time>2023-09-13T08:47:56Z</time>
      </trkpt>
      <trkpt lat="49.82264" lon="2.27857">
        <ele>96.3</ele>
        <time>2023-09-13T08:47:57Z</time>
      </trkpt>
      <trkpt lat="49.82263" lon="2.27855">
        <ele>96.3</ele>
        <time>2023-09-13T08:47:58Z</time>
      </trkpt>
      <trkpt lat="49.82262" lon="2.27853">
        <ele>96.3</ele>
        <time>2023-09-13T08:47:59Z</time>
      </trkpt>
      <trkpt lat="49.82261" lon="2.27852">
        <ele>96.3</ele>
        <time>2023-09-13T08:48:00Z</time>
      </trkpt>
      <trkpt lat="49.8226" lon="2.27851">
        <ele>96.4</ele>
        <time>2023-09-13T08:48:01Z</time>
      </trkpt>
      <trkpt lat="49.82259" lon="2.27849">
        <ele>96.4</ele>
        <time>2023-09-13T08:48:02Z</time>
      </trkpt>
      <trkpt lat="49.82258" lon="2.27848">
        <ele>96.4</ele>
        <time>2023-09-13T08:48:03Z</time>
      </trkpt>
      <trkpt lat="49.82257" lon="2.27845">
        <ele>96.4</ele>
        <time>2023-09-13T08:48:04Z</time>
      </trkpt>
      <trkpt lat="49.82257" lon="2.27844">
        <ele>96.5</ele>
        <time>2023-09-13T08:48:06Z</time>
      </trkpt>
      <trkpt lat="49.82256" lon="2.27844">
        <ele>96.5</ele>
        <time>2023-09-13T08:48:07Z</time>
      </trkpt>
      <trkpt lat="49.82255" lon="2.27842">
        <ele>96.5</ele>
        <time>2023-09-13T08:48:08Z</time>
      </trkpt>
      <trkpt lat="49.82254" lon="2.27841">
        <ele>96.5</ele>
        <time>2023-09-13T08:48:09Z</time>
      </trkpt>
      <trkpt lat="49.82253" lon="2.2784">
        <ele>96.6</ele>
        <time>2023-09-13T08:48:10Z</time>
      </trkpt>
      <trkpt lat="49.82253" lon="2.27838">
        <ele>96.6</ele>
        <time>2023-09-13T08:48:11Z</time>
      </trkpt>
      <trkpt lat="49.82252" lon="2.27837">
        <ele>96.6</ele>
        <time>2023-09-13T08:48:12Z</time>
      </trkpt>
      <trkpt lat="49.82251" lon="2.27835">
        <ele>96.6</ele>
        <time>2023-09-13T08:48:13Z</time>
      </trkpt>
      <trkpt lat="49.8225" lon="2.27833">
        <ele>96.7</ele>
        <time>2023-09-13T08:48:14Z</time>
      </trkpt>
      <trkpt lat="49.82249" lon="2.27832">
        <ele>96.7</ele>
        <time>2023-09-13T08:48:15Z</time>
      </trkpt>
      <trkpt lat="49.82248" lon="2.27831">
        <ele>96.7</ele>
        <time>2023-09-13T08:48:17Z</time>
      </trkpt>
      <trkpt lat="49.82248" lon="2.2783">
        <ele>96.8</ele>
        <time>2023-09-13T08:48:18Z</time>
      </trkpt>
      <trkpt lat="49.82247" lon="2.27829">
        <ele>96.8</ele>
        <time>2023-09-13T08:48:19Z</time>
      </trkpt>
      <trkpt lat="49.82246" lon="2.27827">
        <ele>96.8</ele>
        <time>2023-09-13T08:48:20Z</time>
      </trkpt>
      <trkpt lat="49.82245" lon="2.27825">
        <ele>96.9</ele>
        <time>2023-09-13T08:48:21Z</time>
      </trkpt>
      <trkpt lat="49.82244" lon="2.27824">
        <ele>96.9</ele>
        <time>2023-09-13T08:48:22Z</time>
      </trkpt>
      <trkpt lat="49.82244" lon="2.27823">
        <ele>96.9</ele>
        <time>2023-09-13T08:48:23Z</time>
      </trkpt>
      <trkpt lat="49.82243" lon="2.27822">
        <ele>96.9</ele>
        <time>2023-09-13T08:48:24Z</time>
      </trkpt>
      <trkpt lat="49.82242" lon="2.2782">
        <ele>97</ele>
        <time>2023-09-13T08:48:26Z</time>
      </trkpt>
      <trkpt lat="49.82241" lon="2.27819">
        <ele>97</ele>
        <time>2023-09-13T08:48:27Z</time>
      </trkpt>
      <trkpt lat="49.82241" lon="2.27818">
        <ele>97</ele>
        <time>2023-09-13T08:48:28Z</time>
      </trkpt>
      <trkpt lat="49.8224" lon="2.27816">
        <ele>97.1</ele>
        <time>2023-09-13T08:48:29Z</time>
      </trkpt>
      <trkpt lat="49.82239" lon="2.27815">
        <ele>97.1</ele>
        <time>2023-09-13T08:48:30Z</time>
      </trkpt>
      <trkpt lat="49.82238" lon="2.27814">
        <ele>97.2</ele>
        <time>2023-09-13T08:48:31Z</time>
      </trkpt>
      <trkpt lat="49.82238" lon="2.27812">
        <ele>97.2</ele>
        <time>2023-09-13T08:48:32Z</time>
      </trkpt>
      <trkpt lat="49.82237" lon="2.27811">
        <ele>97.2</ele>
        <time>2023-09-13T08:48:33Z</time>
      </trkpt>
      <trkpt lat="49.82237" lon="2.2781">
        <ele>97.3</ele>
        <time>2023-09-13T08:48:34Z</time>
      </trkpt>
      <trkpt lat="49.82236" lon="2.27808">
        <ele>97.3</ele>
        <time>2023-09-13T08:48:36Z</time>
      </trkpt>
      <trkpt lat="49.82236" lon="2.27807">
        <ele>97.3</ele>
        <time>2023-09-13T08:48:37Z</time>
      </trkpt>
      <trkpt lat="49.82235" lon="2.27805">
        <ele>97.4</ele>
        <time>2023-09-13T08:48:38Z</time>
      </trkpt>
      <trkpt lat="49.82235" lon="2.27804">
        <ele>97.4</ele>
        <time>2023-09-13T08:48:39Z</time>
      </trkpt>
      <trkpt lat="49.82234" lon="2.27802">
        <ele>97.4</ele>
        <time>2023-09-13T08:48:41Z</time>
      </trkpt>
      <trkpt lat="49.82233" lon="2.27799">
        <ele>97.5</ele>
        <time>2023-09-13T08:48:42Z</time>
      </trkpt>
      <trkpt lat="49.82233" lon="2.27798">
        <ele>97.6</ele>
        <time>2023-09-13T08:48:43Z</time>
      </trkpt>
      <trkpt lat="49.82233" lon="2.27797">
        <ele>97.6</ele>
        <time>2023-09-13T08:48:44Z</time>
      </trkpt>
      <trkpt lat="49.82232" lon="2.27795">
        <ele>97.6</ele>
        <time>2023-09-13T08:48:45Z</time>
      </trkpt>
      <trkpt lat="49.82232" lon="2.27793">
        <ele>97.7</ele>
        <time>2023-09-13T08:48:46Z</time>
      </trkpt>
      <trkpt lat="49.82231" lon="2.27792">
        <ele>97.7</ele>
        <time>2023-09-13T08:48:47Z</time>
      </trkpt>
      <trkpt lat="49.8223" lon="2.2779">
        <ele>97.8</ele>
        <time>2023-09-13T08:48:48Z</time>
      </trkpt>
      <trkpt lat="49.8223" lon="2.27789">
        <ele>97.8</ele>
        <time>2023-09-13T08:48:49Z</time>
      </trkpt>
      <trkpt lat="49.82229" lon="2.27787">
        <ele>97.9</ele>
        <time>2023-09-13T08:48:50Z</time>
      </trkpt>
      <trkpt lat="49.82228" lon="2.27785">
        <ele>97.9</ele>
        <time>2023-09-13T08:48:51Z</time>
      </trkpt>
      <trkpt lat="49.82227" lon="2.27784">
        <ele>98</ele>
        <time>2023-09-13T08:48:53Z</time>
      </trkpt>
      <trkpt lat="49.82227" lon="2.27782">
        <ele>98</ele>
        <time>2023-09-13T08:48:54Z</time>
      </trkpt>
      <trkpt lat="49.82226" lon="2.27781">
        <ele>98</ele>
        <time>2023-09-13T08:48:55Z</time>
      </trkpt>
      <trkpt lat="49.82226" lon="2.27779">
        <ele>98.1</ele>
        <time>2023-09-13T08:48:56Z</time>
      </trkpt>
      <trkpt lat="49.82225" lon="2.27778">
        <ele>98.1</ele>
        <time>2023-09-13T08:48:57Z</time>
      </trkpt>
      <trkpt lat="49.82225" lon="2.27776">
        <ele>98.2</ele>
        <time>2023-09-13T08:48:58Z</time>
      </trkpt>
      <trkpt lat="49.82224" lon="2.27774">
        <ele>98.2</ele>
        <time>2023-09-13T08:48:59Z</time>
      </trkpt>
      <trkpt lat="49.82224" lon="2.27772">
        <ele>98.3</ele>
        <time>2023-09-13T08:49:01Z</time>
      </trkpt>
      <trkpt lat="49.82223" lon="2.27769">
        <ele>98.4</ele>
        <time>2023-09-13T08:49:02Z</time>
      </trkpt>
      <trkpt lat="49.82222" lon="2.27768">
        <ele>98.4</ele>
        <time>2023-09-13T08:49:03Z</time>
      </trkpt>
      <trkpt lat="49.82222" lon="2.27767">
        <ele>98.4</ele>
        <time>2023-09-13T08:49:04Z</time>
      </trkpt>
      <trkpt lat="49.82221" lon="2.27765">
        <ele>98.5</ele>
        <time>2023-09-13T08:49:05Z</time>
      </trkpt>
      <trkpt lat="49.8222" lon="2.27763">
        <ele>98.5</ele>
        <time>2023-09-13T08:49:06Z</time>
      </trkpt>
      <trkpt lat="49.8222" lon="2.27762">
        <ele>98.6</ele>
        <time>2023-09-13T08:49:07Z</time>
      </trkpt>
      <trkpt lat="49.82219" lon="2.27761">
        <ele>98.6</ele>
        <time>2023-09-13T08:49:08Z</time>
      </trkpt>
      <trkpt lat="49.82218" lon="2.27759">
        <ele>98.6</ele>
        <time>2023-09-13T08:49:10Z</time>
      </trkpt>
      <trkpt lat="49.82218" lon="2.27758">
        <ele>98.7</ele>
        <time>2023-09-13T08:49:11Z</time>
      </trkpt>
      <trkpt lat="49.82217" lon="2.27756">
        <ele>98.7</ele>
        <time>2023-09-13T08:49:12Z</time>
      </trkpt>
      <trkpt lat="49.82217" lon="2.27755">
        <ele>98.8</ele>
        <time>2023-09-13T08:49:13Z</time>
      </trkpt>
      <trkpt lat="49.82216" lon="2.27753">
        <ele>98.8</ele>
        <time>2023-09-13T08:49:14Z</time>
      </trkpt>
      <trkpt lat="49.82215" lon="2.2775">
        <ele>98.9</ele>
        <time>2023-09-13T08:49:15Z</time>
      </trkpt>
      <trkpt lat="49.82215" lon="2.27749">
        <ele>98.9</ele>
        <time>2023-09-13T08:49:16Z</time>
      </trkpt>
      <trkpt lat="49.82214" lon="2.27748">
        <ele>98.9</ele>
        <time>2023-09-13T08:49:17Z</time>
      </trkpt>
      <trkpt lat="49.82214" lon="2.27747">
        <ele>98.9</ele>
        <time>2023-09-13T08:49:18Z</time>
      </trkpt>
      <trkpt lat="49.82213" lon="2.27745">
        <ele>99</ele>
        <time>2023-09-13T08:49:20Z</time>
      </trkpt>
      <trkpt lat="49.82213" lon="2.27743">
        <ele>99</ele>
        <time>2023-09-13T08:49:21Z</time>
      </trkpt>
      <trkpt lat="49.82212" lon="2.27742">
        <ele>99.1</ele>
        <time>2023-09-13T08:49:22Z</time>
      </trkpt>
      <trkpt lat="49.82212" lon="2.2774">
        <ele>99.1</ele>
        <time>2023-09-13T08:49:23Z</time>
      </trkpt>
      <trkpt lat="49.82212" lon="2.27739">
        <ele>99.1</ele>
        <time>2023-09-13T08:49:24Z</time>
      </trkpt>
      <trkpt lat="49.82212" lon="2.27737">
        <ele>99.1</ele>
        <time>2023-09-13T08:49:25Z</time>
      </trkpt>
      <trkpt lat="49.82212" lon="2.27736">
        <ele>99.2</ele>
        <time>2023-09-13T08:49:26Z</time>
      </trkpt>
      <trkpt lat="49.82211" lon="2.27734">
        <ele>99.2</ele>
        <time>2023-09-13T08:49:27Z</time>
      </trkpt>
      <trkpt lat="49.82211" lon="2.27732">
        <ele>99.3</ele>
        <time>2023-09-13T08:49:29Z</time>
      </trkpt>
      <trkpt lat="49.8221" lon="2.27731">
        <ele>99.3</ele>
        <time>2023-09-13T08:49:30Z</time>
      </trkpt>
      <trkpt lat="49.8221" lon="2.27729">
        <ele>99.3</ele>
        <time>2023-09-13T08:49:31Z</time>
      </trkpt>
      <trkpt lat="49.82209" lon="2.27728">
        <ele>99.4</ele>
        <time>2023-09-13T08:49:32Z</time>
      </trkpt>
      <trkpt lat="49.82209" lon="2.27727">
        <ele>99.4</ele>
        <time>2023-09-13T08:49:33Z</time>
      </trkpt>
      <trkpt lat="49.82208" lon="2.27725">
        <ele>99.5</ele>
        <time>2023-09-13T08:49:34Z</time>
      </trkpt>
      <trkpt lat="49.82207" lon="2.27722">
        <ele>99.5</ele>
        <time>2023-09-13T08:49:35Z</time>
      </trkpt>
      <trkpt lat="49.82207" lon="2.27721">
        <ele>99.6</ele>
        <time>2023-09-13T08:49:37Z</time>
      </trkpt>
      <trkpt lat="49.82206" lon="2.2772">
        <ele>99.6</ele>
        <time>2023-09-13T08:49:38Z</time>
      </trkpt>
      <trkpt lat="49.82205" lon="2.27718">
        <ele>99.7</ele>
        <time>2023-09-13T08:49:39Z</time>
      </trkpt>
      <trkpt lat="49.82204" lon="2.27717">
        <ele>99.7</ele>
        <time>2023-09-13T08:49:40Z</time>
      </trkpt>
      <trkpt lat="49.82204" lon="2.27716">
        <ele>99.7</ele>
        <time>2023-09-13T08:49:41Z</time>
      </trkpt>
      <trkpt lat="49.82203" lon="2.27714">
        <ele>99.8</ele>
        <time>2023-09-13T08:49:42Z</time>
      </trkpt>
      <trkpt lat="49.82202" lon="2.27713">
        <ele>99.9</ele>
        <time>2023-09-13T08:49:43Z</time>
      </trkpt>
      <trkpt lat="49.82201" lon="2.27712">
        <ele>99.9</ele>
        <time>2023-09-13T08:49:45Z</time>
      </trkpt>
      <trkpt lat="49.822" lon="2.2771">
        <ele>100</ele>
        <time>2023-09-13T08:49:46Z</time>
      </trkpt>
      <trkpt lat="49.82198" lon="2.27708">
        <ele>100.1</ele>
        <time>2023-09-13T08:49:47Z</time>
      </trkpt>
      <trkpt lat="49.82197" lon="2.27707">
        <ele>100.1</ele>
        <time>2023-09-13T08:49:48Z</time>
      </trkpt>
      <trkpt lat="49.82197" lon="2.27707">
        <ele>100.1</ele>
        <time>2023-09-13T08:49:49Z</time>
      </trkpt>
      <trkpt lat="49.82195" lon="2.27704">
        <ele>100.2</ele>
        <time>2023-09-13T08:49:50Z</time>
      </trkpt>
      <trkpt lat="49.82194" lon="2.27703">
        <ele>100.3</ele>
        <time>2023-09-13T08:49:51Z</time>
      </trkpt>
      <trkpt lat="49.82194" lon="2.27702">
        <ele>100.3</ele>
        <time>2023-09-13T08:49:52Z</time>
      </trkpt>
      <trkpt lat="49.82193" lon="2.27701">
        <ele>100.3</ele>
        <time>2023-09-13T08:49:54Z</time>
      </trkpt>
      <trkpt lat="49.82191" lon="2.277">
        <ele>100.4</ele>
        <time>2023-09-13T08:49:55Z</time>
      </trkpt>
      <trkpt lat="49.8219" lon="2.27699">
        <ele>100.5</ele>
        <time>2023-09-13T08:49:56Z</time>
      </trkpt>
      <trkpt lat="49.82189" lon="2.27698">
        <ele>100.5</ele>
        <time>2023-09-13T08:49:57Z</time>
      </trkpt>
      <trkpt lat="49.82188" lon="2.27697">
        <ele>100.5</ele>
        <time>2023-09-13T08:49:58Z</time>
      </trkpt>
      <trkpt lat="49.82187" lon="2.27695">
        <ele>100.6</ele>
        <time>2023-09-13T08:49:59Z</time>
      </trkpt>
      <trkpt lat="49.82186" lon="2.27694">
        <ele>100.7</ele>
        <time>2023-09-13T08:50:01Z</time>
      </trkpt>
      <trkpt lat="49.82186" lon="2.27693">
        <ele>100.7</ele>
        <time>2023-09-13T08:50:02Z</time>
      </trkpt>
      <trkpt lat="49.82185" lon="2.27692">
        <ele>100.7</ele>
        <time>2023-09-13T08:50:03Z</time>
      </trkpt>
      <trkpt lat="49.82184" lon="2.27691">
        <ele>100.8</ele>
        <time>2023-09-13T08:50:04Z</time>
      </trkpt>
      <trkpt lat="49.82183" lon="2.2769">
        <ele>100.8</ele>
        <time>2023-09-13T08:50:05Z</time>
      </trkpt>
      <trkpt lat="49.82182" lon="2.27689">
        <ele>100.9</ele>
        <time>2023-09-13T08:50:06Z</time>
      </trkpt>
      <trkpt lat="49.82181" lon="2.27687">
        <ele>100.9</ele>
        <time>2023-09-13T08:50:07Z</time>
      </trkpt>
      <trkpt lat="49.8218" lon="2.27686">
        <ele>100.9</ele>
        <time>2023-09-13T08:50:09Z</time>
      </trkpt>
      <trkpt lat="49.8218" lon="2.27685">
        <ele>101</ele>
        <time>2023-09-13T08:50:10Z</time>
      </trkpt>
      <trkpt lat="49.82179" lon="2.27683">
        <ele>101</ele>
        <time>2023-09-13T08:50:11Z</time>
      </trkpt>
      <trkpt lat="49.82178" lon="2.27681">
        <ele>101.1</ele>
        <time>2023-09-13T08:50:12Z</time>
      </trkpt>
      <trkpt lat="49.82178" lon="2.27678">
        <ele>101.1</ele>
        <time>2023-09-13T08:50:13Z</time>
      </trkpt>
      <trkpt lat="49.82177" lon="2.27677">
        <ele>101.2</ele>
        <time>2023-09-13T08:50:14Z</time>
      </trkpt>
      <trkpt lat="49.82177" lon="2.27676">
        <ele>101.2</ele>
        <time>2023-09-13T08:50:15Z</time>
      </trkpt>
      <trkpt lat="49.82176" lon="2.27674">
        <ele>101.2</ele>
        <time>2023-09-13T08:50:17Z</time>
      </trkpt>
      <trkpt lat="49.82176" lon="2.27672">
        <ele>101.3</ele>
        <time>2023-09-13T08:50:18Z</time>
      </trkpt>
      <trkpt lat="49.82175" lon="2.27671">
        <ele>101.3</ele>
        <time>2023-09-13T08:50:19Z</time>
      </trkpt>
      <trkpt lat="49.82175" lon="2.27669">
        <ele>101.3</ele>
        <time>2023-09-13T08:50:20Z</time>
      </trkpt>
      <trkpt lat="49.82174" lon="2.27667">
        <ele>101.4</ele>
        <time>2023-09-13T08:50:21Z</time>
      </trkpt>
      <trkpt lat="49.82174" lon="2.27665">
        <ele>101.4</ele>
        <time>2023-09-13T08:50:22Z</time>
      </trkpt>
      <trkpt lat="49.82174" lon="2.27663">
        <ele>101.4</ele>
        <time>2023-09-13T08:50:23Z</time>
      </trkpt>
      <trkpt lat="49.82173" lon="2.27662">
        <ele>101.5</ele>
        <time>2023-09-13T08:50:25Z</time>
      </trkpt>
      <trkpt lat="49.82172" lon="2.27659">
        <ele>101.5</ele>
        <time>2023-09-13T08:50:26Z</time>
      </trkpt>
      <trkpt lat="49.82172" lon="2.27658">
        <ele>101.6</ele>
        <time>2023-09-13T08:50:27Z</time>
      </trkpt>
      <trkpt lat="49.82172" lon="2.27657">
        <ele>101.6</ele>
        <time>2023-09-13T08:50:28Z</time>
      </trkpt>
      <trkpt lat="49.82171" lon="2.27655">
        <ele>101.6</ele>
        <time>2023-09-13T08:50:29Z</time>
      </trkpt>
      <trkpt lat="49.82171" lon="2.27653">
        <ele>101.7</ele>
        <time>2023-09-13T08:50:30Z</time>
      </trkpt>
      <trkpt lat="49.8217" lon="2.27652">
        <ele>101.7</ele>
        <time>2023-09-13T08:50:31Z</time>
      </trkpt>
      <trkpt lat="49.8217" lon="2.27649">
        <ele>101.8</ele>
        <time>2023-09-13T08:50:32Z</time>
      </trkpt>
      <trkpt lat="49.82169" lon="2.27647">
        <ele>101.8</ele>
        <time>2023-09-13T08:50:34Z</time>
      </trkpt>
      <trkpt lat="49.82169" lon="2.27646">
        <ele>101.8</ele>
        <time>2023-09-13T08:50:35Z</time>
      </trkpt>
      <trkpt lat="49.82169" lon="2.27645">
        <ele>101.8</ele>
        <time>2023-09-13T08:50:36Z</time>
      </trkpt>
      <trkpt lat="49.82168" lon="2.27643">
        <ele>101.9</ele>
        <time>2023-09-13T08:50:37Z</time>
      </trkpt>
      <trkpt lat="49.82168" lon="2.27642">
        <ele>101.9</ele>
        <time>2023-09-13T08:50:38Z</time>
      </trkpt>
      <trkpt lat="49.82168" lon="2.2764">
        <ele>101.9</ele>
        <time>2023-09-13T08:50:39Z</time>
      </trkpt>
      <trkpt lat="49.82168" lon="2.27638">
        <ele>102</ele>
        <time>2023-09-13T08:50:40Z</time>
      </trkpt>
      <trkpt lat="49.82167" lon="2.27637">
        <ele>102</ele>
        <time>2023-09-13T08:50:42Z</time>
      </trkpt>
      <trkpt lat="49.82167" lon="2.27636">
        <ele>102</ele>
        <time>2023-09-13T08:50:43Z</time>
      </trkpt>
      <trkpt lat="49.82166" lon="2.27634">
        <ele>102.1</ele>
        <time>2023-09-13T08:50:44Z</time>
      </trkpt>
      <trkpt lat="49.82166" lon="2.27632">
        <ele>102.1</ele>
        <time>2023-09-13T08:50:45Z</time>
      </trkpt>
      <trkpt lat="49.82165" lon="2.27631">
        <ele>102.1</ele>
        <time>2023-09-13T08:50:46Z</time>
      </trkpt>
      <trkpt lat="49.82165" lon="2.27629">
        <ele>102.2</ele>
        <time>2023-09-13T08:50:47Z</time>
      </trkpt>
      <trkpt lat="49.82164" lon="2.27628">
        <ele>102.2</ele>
        <time>2023-09-13T08:50:48Z</time>
      </trkpt>
      <trkpt lat="49.82163" lon="2.27625">
        <ele>102.3</ele>
        <time>2023-09-13T08:50:49Z</time>
      </trkpt>
      <trkpt lat="49.82162" lon="2.27624">
        <ele>102.3</ele>
        <time>2023-09-13T08:50:51Z</time>
      </trkpt>
      <trkpt lat="49.82161" lon="2.27623">
        <ele>102.3</ele>
        <time>2023-09-13T08:50:52Z</time>
      </trkpt>
      <trkpt lat="49.8216" lon="2.27621">
        <ele>102.4</ele>
        <time>2023-09-13T08:50:53Z</time>
      </trkpt>
      <trkpt lat="49.82159" lon="2.2762">
        <ele>102.4</ele>
        <time>2023-09-13T08:50:54Z</time>
      </trkpt>
      <trkpt lat="49.82159" lon="2.27619">
        <ele>102.4</ele>
        <time>2023-09-13T08:50:55Z</time>
      </trkpt>
      <trkpt lat="49.82158" lon="2.27618">
        <ele>102.5</ele>
        <time>2023-09-13T08:50:56Z</time>
      </trkpt>
      <trkpt lat="49.82157" lon="2.27616">
        <ele>102.5</ele>
        <time>2023-09-13T08:50:57Z</time>
      </trkpt>
      <trkpt lat="49.82156" lon="2.27615">
        <ele>102.5</ele>
        <time>2023-09-13T08:50:58Z</time>
      </trkpt>
      <trkpt lat="49.82156" lon="2.27614">
        <ele>102.6</ele>
        <time>2023-09-13T08:51:00Z</time>
      </trkpt>
      <trkpt lat="49.82155" lon="2.27612">
        <ele>102.6</ele>
        <time>2023-09-13T08:51:01Z</time>
      </trkpt>
      <trkpt lat="49.82154" lon="2.27611">
        <ele>102.6</ele>
        <time>2023-09-13T08:51:02Z</time>
      </trkpt>
      <trkpt lat="49.82154" lon="2.27609">
        <ele>102.7</ele>
        <time>2023-09-13T08:51:03Z</time>
      </trkpt>
      <trkpt lat="49.82153" lon="2.27608">
        <ele>102.7</ele>
        <time>2023-09-13T08:51:04Z</time>
      </trkpt>
      <trkpt lat="49.82152" lon="2.27606">
        <ele>102.7</ele>
        <time>2023-09-13T08:51:05Z</time>
      </trkpt>
      <trkpt lat="49.82152" lon="2.27604">
        <ele>102.8</ele>
        <time>2023-09-13T08:51:06Z</time>
      </trkpt>
      <trkpt lat="49.82151" lon="2.27603">
        <ele>102.8</ele>
        <time>2023-09-13T08:51:08Z</time>
      </trkpt>
      <trkpt lat="49.8215" lon="2.27601">
        <ele>102.9</ele>
        <time>2023-09-13T08:51:09Z</time>
      </trkpt>
      <trkpt lat="49.82149" lon="2.27599">
        <ele>102.9</ele>
        <time>2023-09-13T08:51:10Z</time>
      </trkpt>
      <trkpt lat="49.82148" lon="2.27597">
        <ele>102.9</ele>
        <time>2023-09-13T08:51:11Z</time>
      </trkpt>
      <trkpt lat="49.82147" lon="2.27596">
        <ele>103</ele>
        <time>2023-09-13T08:51:12Z</time>
      </trkpt>
      <trkpt lat="49.82147" lon="2.27595">
        <ele>103</ele>
        <time>2023-09-13T08:51:13Z</time>
      </trkpt>
      <trkpt lat="49.82146" lon="2.27592">
        <ele>103</ele>
        <time>2023-09-13T08:51:14Z</time>
      </trkpt>
      <trkpt lat="49.82145" lon="2.27591">
        <ele>103.1</ele>
        <time>2023-09-13T08:51:16Z</time>
      </trkpt>
      <trkpt lat="49.82145" lon="2.2759">
        <ele>103.1</ele>
        <time>2023-09-13T08:51:17Z</time>
      </trkpt>
      <trkpt lat="49.82144" lon="2.27588">
        <ele>103.1</ele>
        <time>2023-09-13T08:51:18Z</time>
      </trkpt>
      <trkpt lat="49.82143" lon="2.27587">
        <ele>103.1</ele>
        <time>2023-09-13T08:51:19Z</time>
      </trkpt>
      <trkpt lat="49.82142" lon="2.27586">
        <ele>103.2</ele>
        <time>2023-09-13T08:51:20Z</time>
      </trkpt>
      <trkpt lat="49.82141" lon="2.27583">
        <ele>103.2</ele>
        <time>2023-09-13T08:51:21Z</time>
      </trkpt>
      <trkpt lat="49.82141" lon="2.27582">
        <ele>103.3</ele>
        <time>2023-09-13T08:51:23Z</time>
      </trkpt>
      <trkpt lat="49.8214" lon="2.27581">
        <ele>103.3</ele>
        <time>2023-09-13T08:51:24Z</time>
      </trkpt>
      <trkpt lat="49.82139" lon="2.27579">
        <ele>103.3</ele>
        <time>2023-09-13T08:51:25Z</time>
      </trkpt>
      <trkpt lat="49.82138" lon="2.27578">
        <ele>103.3</ele>
        <time>2023-09-13T08:51:26Z</time>
      </trkpt>
      <trkpt lat="49.82138" lon="2.27577">
        <ele>103.4</ele>
        <time>2023-09-13T08:51:27Z</time>
      </trkpt>
      <trkpt lat="49.82136" lon="2.27575">
        <ele>103.4</ele>
        <time>2023-09-13T08:51:28Z</time>
      </trkpt>
      <trkpt lat="49.82136" lon="2.27574">
        <ele>103.5</ele>
        <time>2023-09-13T08:51:30Z</time>
      </trkpt>
      <trkpt lat="49.82135" lon="2.27573">
        <ele>103.5</ele>
        <time>2023-09-13T08:51:31Z</time>
      </trkpt>
      <trkpt lat="49.82134" lon="2.27571">
        <ele>103.5</ele>
        <time>2023-09-13T08:51:32Z</time>
      </trkpt>
      <trkpt lat="49.82133" lon="2.2757">
        <ele>103.5</ele>
        <time>2023-09-13T08:51:33Z</time>
      </trkpt>
      <trkpt lat="49.82133" lon="2.27569">
        <ele>103.6</ele>
        <time>2023-09-13T08:51:34Z</time>
      </trkpt>
      <trkpt lat="49.82132" lon="2.27568">
        <ele>103.6</ele>
        <time>2023-09-13T08:51:36Z</time>
      </trkpt>
      <trkpt lat="49.82131" lon="2.27567">
        <ele>103.6</ele>
        <time>2023-09-13T08:51:37Z</time>
      </trkpt>
      <trkpt lat="49.82131" lon="2.27566">
        <ele>103.7</ele>
        <time>2023-09-13T08:51:38Z</time>
      </trkpt>
      <trkpt lat="49.8213" lon="2.27565">
        <ele>103.7</ele>
        <time>2023-09-13T08:51:39Z</time>
      </trkpt>
      <trkpt lat="49.8213" lon="2.27564">
        <ele>103.7</ele>
        <time>2023-09-13T08:51:40Z</time>
      </trkpt>
      <trkpt lat="49.82129" lon="2.27562">
        <ele>103.7</ele>
        <time>2023-09-13T08:51:41Z</time>
      </trkpt>
      <trkpt lat="49.82128" lon="2.2756">
        <ele>103.8</ele>
        <time>2023-09-13T08:51:43Z</time>
      </trkpt>
      <trkpt lat="49.82127" lon="2.27559">
        <ele>103.8</ele>
        <time>2023-09-13T08:51:44Z</time>
      </trkpt>
      <trkpt lat="49.82126" lon="2.27558">
        <ele>103.8</ele>
        <time>2023-09-13T08:51:45Z</time>
      </trkpt>
      <trkpt lat="49.82125" lon="2.27556">
        <ele>103.9</ele>
        <time>2023-09-13T08:51:46Z</time>
      </trkpt>
      <trkpt lat="49.82125" lon="2.27555">
        <ele>103.9</ele>
        <time>2023-09-13T08:51:47Z</time>
      </trkpt>
      <trkpt lat="49.82124" lon="2.27554">
        <ele>103.9</ele>
        <time>2023-09-13T08:51:48Z</time>
      </trkpt>
      <trkpt lat="49.82123" lon="2.27552">
        <ele>104</ele>
        <time>2023-09-13T08:51:49Z</time>
      </trkpt>
      <trkpt lat="49.82122" lon="2.2755">
        <ele>104</ele>
        <time>2023-09-13T08:51:50Z</time>
      </trkpt>
      <trkpt lat="49.82121" lon="2.27548">
        <ele>104</ele>
        <time>2023-09-13T08:51:52Z</time>
      </trkpt>
      <trkpt lat="49.8212" lon="2.27546">
        <ele>104.1</ele>
        <time>2023-09-13T08:51:53Z</time>
      </trkpt>
      <trkpt lat="49.8212" lon="2.27545">
        <ele>104.1</ele>
        <time>2023-09-13T08:51:54Z</time>
      </trkpt>
      <trkpt lat="49.82119" lon="2.27544">
        <ele>104.1</ele>
        <time>2023-09-13T08:51:55Z</time>
      </trkpt>
      <trkpt lat="49.82119" lon="2.27542">
        <ele>104.1</ele>
        <time>2023-09-13T08:51:56Z</time>
      </trkpt>
      <trkpt lat="49.82118" lon="2.2754">
        <ele>104.2</ele>
        <time>2023-09-13T08:51:58Z</time>
      </trkpt>
      <trkpt lat="49.82117" lon="2.27538">
        <ele>104.2</ele>
        <time>2023-09-13T08:52:00Z</time>
      </trkpt>
      <trkpt lat="49.82117" lon="2.27537">
        <ele>104.2</ele>
        <time>2023-09-13T08:52:01Z</time>
      </trkpt>
      <trkpt lat="49.82116" lon="2.27535">
        <ele>104.3</ele>
        <time>2023-09-13T08:52:02Z</time>
      </trkpt>
      <trkpt lat="49.82115" lon="2.27534">
        <ele>104.3</ele>
        <time>2023-09-13T08:52:03Z</time>
      </trkpt>
      <trkpt lat="49.82115" lon="2.27533">
        <ele>104.3</ele>
        <time>2023-09-13T08:52:05Z</time>
      </trkpt>
      <trkpt lat="49.82114" lon="2.27531">
        <ele>104.4</ele>
        <time>2023-09-13T08:52:07Z</time>
      </trkpt>
      <trkpt lat="49.82114" lon="2.2753">
        <ele>104.4</ele>
        <time>2023-09-13T08:52:08Z</time>
      </trkpt>
      <trkpt lat="49.82114" lon="2.27529">
        <ele>104.4</ele>
        <time>2023-09-13T08:52:09Z</time>
      </trkpt>
      <trkpt lat="49.82113" lon="2.27528">
        <ele>104.4</ele>
        <time>2023-09-13T08:52:11Z</time>
      </trkpt>
      <trkpt lat="49.82112" lon="2.27529">
        <ele>104.4</ele>
        <time>2023-09-13T08:52:12Z</time>
      </trkpt>
      <trkpt lat="49.82112" lon="2.27529">
        <ele>104.4</ele>
        <time>2023-09-13T08:52:13Z</time>
      </trkpt>
      <trkpt lat="49.82111" lon="2.27529">
        <ele>104.4</ele>
        <time>2023-09-13T08:52:15Z</time>
      </trkpt>
      <trkpt lat="49.82111" lon="2.2753">
        <ele>104.4</ele>
        <time>2023-09-13T08:52:16Z</time>
      </trkpt>
      <trkpt lat="49.82111" lon="2.2753">
        <ele>104.5</ele>
        <time>2023-09-13T08:52:17Z</time>
      </trkpt>
      <trkpt lat="49.82111" lon="2.27531">
        <ele>104.5</ele>
        <time>2023-09-13T08:52:19Z</time>
      </trkpt>
      <trkpt lat="49.82111" lon="2.27531">
        <ele>104.5</ele>
        <time>2023-09-13T08:52:20Z</time>
      </trkpt>
      <trkpt lat="49.82111" lon="2.27532">
        <ele>104.5</ele>
        <time>2023-09-13T08:52:22Z</time>
      </trkpt>
      <trkpt lat="49.82111" lon="2.27532">
        <ele>104.5</ele>
        <time>2023-09-13T08:52:23Z</time>
      </trkpt>
      <trkpt lat="49.82112" lon="2.27533">
        <ele>104.5</ele>
        <time>2023-09-13T08:52:25Z</time>
      </trkpt>
      <trkpt lat="49.82112" lon="2.27533">
        <ele>104.5</ele>
        <time>2023-09-13T08:52:26Z</time>
      </trkpt>
      <trkpt lat="49.82113" lon="2.27534">
        <ele>104.5</ele>
        <time>2023-09-13T08:52:27Z</time>
      </trkpt>
      <trkpt lat="49.82114" lon="2.27535">
        <ele>104.6</ele>
        <time>2023-09-13T08:52:28Z</time>
      </trkpt>
      <trkpt lat="49.82114" lon="2.27535">
        <ele>104.6</ele>
        <time>2023-09-13T08:52:29Z</time>
      </trkpt>
      <trkpt lat="49.82114" lon="2.27535">
        <ele>104.6</ele>
        <time>2023-09-13T08:52:30Z</time>
      </trkpt>
      <trkpt lat="49.82114" lon="2.27535">
        <ele>104.6</ele>
        <time>2023-09-13T08:52:31Z</time>
      </trkpt>
      <trkpt lat="49.82114" lon="2.27535">
        <ele>104.6</ele>
        <time>2023-09-13T08:52:32Z</time>
      </trkpt>
      <trkpt lat="49.82114" lon="2.27535">
        <ele>104.6</ele>
        <time>2023-09-13T08:52:33Z</time>
      </trkpt>
      <trkpt lat="49.82114" lon="2.27535">
        <ele>104.6</ele>
        <time>2023-09-13T08:52:34Z</time>
      </trkpt>
      <trkpt lat="49.82114" lon="2.27535">
        <ele>104.6</ele>
        <time>2023-09-13T08:52:35Z</time>
      </trkpt>
      <trkpt lat="49.82114" lon="2.27535">
        <ele>104.6</ele>
        <time>2023-09-13T08:52:36Z</time>
      </trkpt>
      <trkpt lat="49.82114" lon="2.27535">
        <ele>104.6</ele>
        <time>2023-09-13T08:52:37Z</time>
      </trkpt>
      <trkpt lat="49.82114" lon="2.27535">
        <ele>104.6</ele>
        <time>2023-09-13T08:52:38Z</time>
      </trkpt>
      <trkpt lat="49.82114" lon="2.27536">
        <ele>104.6</ele>
        <time>2023-09-13T08:52:39Z</time>
      </trkpt>
      <trkpt lat="49.82114" lon="2.27536">
        <ele>104.6</ele>
        <time>2023-09-13T08:52:40Z</time>
      </trkpt>
      <trkpt lat="49.82115" lon="2.27536">
        <ele>104.6</ele>
        <time>2023-09-13T08:52:41Z</time>
      </trkpt>
      <trkpt lat="49.82115" lon="2.27536">
        <ele>104.6</ele>
        <time>2023-09-13T08:52:42Z</time>
      </trkpt>
      <trkpt lat="49.82115" lon="2.27536">
        <ele>104.6</ele>
        <time>2023-09-13T08:52:43Z</time>
      </trkpt>
      <trkpt lat="49.82115" lon="2.27536">
        <ele>104.6</ele>
        <time>2023-09-13T08:52:44Z</time>
      </trkpt>
      <trkpt lat="49.82115" lon="2.27536">
        <ele>104.6</ele>
        <time>2023-09-13T08:52:45Z</time>
      </trkpt>
      <trkpt lat="49.82115" lon="2.27536">
        <ele>104.6</ele>
        <time>2023-09-13T08:52:46Z</time>
      </trkpt>
      <trkpt lat="49.82115" lon="2.27536">
        <ele>104.6</ele>
        <time>2023-09-13T08:52:47Z</time>
      </trkpt>
      <trkpt lat="49.82115" lon="2.27536">
        <ele>104.6</ele>
        <time>2023-09-13T08:52:48Z</time>
      </trkpt>
      <trkpt lat="49.82115" lon="2.27536">
        <ele>104.6</ele>
        <time>2023-09-13T08:52:49Z</time>
      </trkpt>
      <trkpt lat="49.82115" lon="2.27536">
        <ele>104.6</ele>
        <time>2023-09-13T08:52:50Z</time>
      </trkpt>
      <trkpt lat="49.82115" lon="2.27536">
        <ele>104.6</ele>
        <time>2023-09-13T08:52:51Z</time>
      </trkpt>
      <trkpt lat="49.82115" lon="2.27536">
        <ele>104.6</ele>
        <time>2023-09-13T08:52:52Z</time>
      </trkpt>
      <trkpt lat="49.82115" lon="2.27536">
        <ele>104.6</ele>
        <time>2023-09-13T08:52:53Z</time>
      </trkpt>
      <trkpt lat="49.82115" lon="2.27536">
        <ele>104.6</ele>
        <time>2023-09-13T08:52:54Z</time>
      </trkpt>
      <trkpt lat="49.82115" lon="2.27537">
        <ele>104.6</ele>
        <time>2023-09-13T08:52:55Z</time>
      </trkpt>
      <trkpt lat="49.82116" lon="2.27537">
        <ele>104.6</ele>
        <time>2023-09-13T08:52:56Z</time>
      </trkpt>
      <trkpt lat="49.82116" lon="2.27537">
        <ele>104.6</ele>
        <time>2023-09-13T08:52:57Z</time>
      </trkpt>
      <trkpt lat="49.82116" lon="2.27537">
        <ele>104.6</ele>
        <time>2023-09-13T08:52:58Z</time>
      </trkpt>
      <trkpt lat="49.82116" lon="2.27537">
        <ele>104.6</ele>
        <time>2023-09-13T08:52:59Z</time>
      </trkpt>
      <trkpt lat="49.82116" lon="2.27537">
        <ele>104.6</ele>
        <time>2023-09-13T08:53:00Z</time>
      </trkpt>
      <trkpt lat="49.82116" lon="2.27537">
        <ele>104.6</ele>
        <time>2023-09-13T08:53:01Z</time>
      </trkpt>
      <trkpt lat="49.82116" lon="2.27537">
        <ele>104.6</ele>
        <time>2023-09-13T08:53:02Z</time>
      </trkpt>
      <trkpt lat="49.82116" lon="2.27537">
        <ele>104.6</ele>
        <time>2023-09-13T08:53:03Z</time>
      </trkpt>
      <trkpt lat="49.82116" lon="2.27537">
        <ele>104.6</ele>
        <time>2023-09-13T08:53:04Z</time>
      </trkpt>
      <trkpt lat="49.82116" lon="2.27537">
        <ele>104.6</ele>
        <time>2023-09-13T08:53:05Z</time>
      </trkpt>
      <trkpt lat="49.82116" lon="2.27537">
        <ele>104.6</ele>
        <time>2023-09-13T08:53:06Z</time>
      </trkpt>
      <trkpt lat="49.82116" lon="2.27537">
        <ele>104.6</ele>
        <time>2023-09-13T08:53:07Z</time>
      </trkpt>
      <trkpt lat="49.82116" lon="2.27537">
        <ele>104.6</ele>
        <time>2023-09-13T08:53:08Z</time>
      </trkpt>
      <trkpt lat="49.82117" lon="2.27538">
        <ele>104.6</ele>
        <time>2023-09-13T08:53:09Z</time>
      </trkpt>
      <trkpt lat="49.82118" lon="2.27539">
        <ele>104.6</ele>
        <time>2023-09-13T08:53:10Z</time>
      </trkpt>
      <trkpt lat="49.82118" lon="2.27539">
        <ele>104.6</ele>
        <time>2023-09-13T08:53:11Z</time>
      </trkpt>
      <trkpt lat="49.82118" lon="2.27539">
        <ele>104.6</ele>
        <time>2023-09-13T08:53:12Z</time>
      </trkpt>
      <trkpt lat="49.82118" lon="2.27539">
        <ele>104.7</ele>
        <time>2023-09-13T08:53:14Z</time>
      </trkpt>
      <trkpt lat="49.82118" lon="2.27539">
        <ele>104.7</ele>
        <time>2023-09-13T08:53:15Z</time>
      </trkpt>
      <trkpt lat="49.82118" lon="2.27539">
        <ele>104.7</ele>
        <time>2023-09-13T08:53:16Z</time>
      </trkpt>
      <trkpt lat="49.82119" lon="2.27539">
        <ele>104.7</ele>
        <time>2023-09-13T08:53:17Z</time>
      </trkpt>
      <trkpt lat="49.82119" lon="2.2754">
        <ele>104.7</ele>
        <time>2023-09-13T08:53:19Z</time>
      </trkpt>
      <trkpt lat="49.82119" lon="2.2754">
        <ele>104.7</ele>
        <time>2023-09-13T08:53:20Z</time>
      </trkpt>
      <trkpt lat="49.82119" lon="2.2754">
        <ele>104.7</ele>
        <time>2023-09-13T08:53:22Z</time>
      </trkpt>
      <trkpt lat="49.82119" lon="2.2754">
        <ele>104.7</ele>
        <time>2023-09-13T08:53:23Z</time>
      </trkpt>
      <trkpt lat="49.82119" lon="2.27541">
        <ele>104.7</ele>
        <time>2023-09-13T08:53:24Z</time>
      </trkpt>
      <trkpt lat="49.8212" lon="2.27542">
        <ele>104.7</ele>
        <time>2023-09-13T08:53:26Z</time>
      </trkpt>
      <trkpt lat="49.8212" lon="2.27542">
        <ele>104.7</ele>
        <time>2023-09-13T08:53:27Z</time>
      </trkpt>
      <trkpt lat="49.8212" lon="2.27541">
        <ele>104.7</ele>
        <time>2023-09-13T08:53:29Z</time>
      </trkpt>
      <trkpt lat="49.82119" lon="2.27541">
        <ele>104.7</ele>
        <time>2023-09-13T08:53:30Z</time>
      </trkpt>
      <trkpt lat="49.82118" lon="2.2754">
        <ele>104.7</ele>
        <time>2023-09-13T08:53:32Z</time>
      </trkpt>
      <trkpt lat="49.82118" lon="2.2754">
        <ele>104.7</ele>
        <time>2023-09-13T08:53:33Z</time>
      </trkpt>
      <trkpt lat="49.82118" lon="2.2754">
        <ele>104.7</ele>
        <time>2023-09-13T08:53:35Z</time>
      </trkpt>
      <trkpt lat="49.82118" lon="2.2754">
        <ele>104.7</ele>
        <time>2023-09-13T08:53:36Z</time>
      </trkpt>
      <trkpt lat="49.82118" lon="2.2754">
        <ele>104.7</ele>
        <time>2023-09-13T08:53:37Z</time>
      </trkpt>
      <trkpt lat="49.82118" lon="2.2754">
        <ele>104.7</ele>
        <time>2023-09-13T08:53:38Z</time>
      </trkpt>
      <trkpt lat="49.82118" lon="2.2754">
        <ele>104.7</ele>
        <time>2023-09-13T08:53:39Z</time>
      </trkpt>
      <trkpt lat="49.82118" lon="2.2754">
        <ele>104.7</ele>
        <time>2023-09-13T08:53:40Z</time>
      </trkpt>
      <trkpt lat="49.82118" lon="2.2754">
        <ele>104.7</ele>
        <time>2023-09-13T08:53:41Z</time>
      </trkpt>
      <trkpt lat="49.82118" lon="2.2754">
        <ele>104.7</ele>
        <time>2023-09-13T08:53:42Z</time>
      </trkpt>
      <trkpt lat="49.82118" lon="2.2754">
        <ele>104.7</ele>
        <time>2023-09-13T08:53:43Z</time>
      </trkpt>
      <trkpt lat="49.82118" lon="2.2754">
        <ele>104.7</ele>
        <time>2023-09-13T08:53:44Z</time>
      </trkpt>
      <trkpt lat="49.82118" lon="2.2754">
        <ele>104.7</ele>
        <time>2023-09-13T08:53:45Z</time>
      </trkpt>
      <trkpt lat="49.82118" lon="2.2754">
        <ele>104.7</ele>
        <time>2023-09-13T08:53:46Z</time>
      </trkpt>
      <trkpt lat="49.82118" lon="2.2754">
        <ele>104.7</ele>
        <time>2023-09-13T08:53:47Z</time>
      </trkpt>
      <trkpt lat="49.82118" lon="2.2754">
        <ele>104.7</ele>
        <time>2023-09-13T08:53:48Z</time>
      </trkpt>
      <trkpt lat="49.82118" lon="2.2754">
        <ele>104.7</ele>
        <time>2023-09-13T08:53:49Z</time>
      </trkpt>
      <trkpt lat="49.82118" lon="2.2754">
        <ele>104.7</ele>
        <time>2023-09-13T08:53:50Z</time>
      </trkpt>
      <trkpt lat="49.82118" lon="2.2754">
        <ele>104.7</ele>
        <time>2023-09-13T08:53:51Z</time>
      </trkpt>
      <trkpt lat="49.82118" lon="2.2754">
        <ele>104.7</ele>
        <time>2023-09-13T08:53:52Z</time>
      </trkpt>
      <trkpt lat="49.82118" lon="2.2754">
        <ele>104.7</ele>
        <time>2023-09-13T08:53:53Z</time>
      </trkpt>
      <trkpt lat="49.82118" lon="2.2754">
        <ele>104.7</ele>
        <time>2023-09-13T08:53:54Z</time>
      </trkpt>
      <trkpt lat="49.82118" lon="2.2754">
        <ele>104.7</ele>
        <time>2023-09-13T08:53:55Z</time>
      </trkpt>
      <trkpt lat="49.82118" lon="2.2754">
        <ele>104.7</ele>
        <time>2023-09-13T08:53:56Z</time>
      </trkpt>
      <trkpt lat="49.82118" lon="2.2754">
        <ele>104.7</ele>
        <time>2023-09-13T08:53:57Z</time>
      </trkpt>
      <trkpt lat="49.82118" lon="2.2754">
        <ele>104.7</ele>
        <time>2023-09-13T08:53:58Z</time>
      </trkpt>
      <trkpt lat="49.82118" lon="2.2754">
        <ele>104.7</ele>
        <time>2023-09-13T08:53:59Z</time>
      </trkpt>
      <trkpt lat="49.82118" lon="2.2754">
        <ele>104.7</ele>
        <time>2023-09-13T08:54:00Z</time>
      </trkpt>
      <trkpt lat="49.82118" lon="2.2754">
        <ele>104.7</ele>
        <time>2023-09-13T08:54:01Z</time>
      </trkpt>
      <trkpt lat="49.82118" lon="2.2754">
        <ele>104.7</ele>
        <time>2023-09-13T08:54:02Z</time>
      </trkpt>
      <trkpt lat="49.82118" lon="2.2754">
        <ele>104.7</ele>
        <time>2023-09-13T08:54:03Z</time>
      </trkpt>
      <trkpt lat="49.82118" lon="2.2754">
        <ele>104.7</ele>
        <time>2023-09-13T08:54:04Z</time>
      </trkpt>
      <trkpt lat="49.82118" lon="2.2754">
        <ele>104.7</ele>
        <time>2023-09-13T08:54:05Z</time>
      </trkpt>
      <trkpt lat="49.82118" lon="2.2754">
        <ele>104.7</ele>
        <time>2023-09-13T08:54:06Z</time>
      </trkpt>
      <trkpt lat="49.82118" lon="2.2754">
        <ele>104.7</ele>
        <time>2023-09-13T08:54:07Z</time>
      </trkpt>
      <trkpt lat="49.82118" lon="2.2754">
        <ele>104.7</ele>
        <time>2023-09-13T08:54:08Z</time>
      </trkpt>
      <trkpt lat="49.82118" lon="2.2754">
        <ele>104.7</ele>
        <time>2023-09-13T08:54:09Z</time>
      </trkpt>
      <trkpt lat="49.82118" lon="2.2754">
        <ele>104.7</ele>
        <time>2023-09-13T08:54:10Z</time>
      </trkpt>
      <trkpt lat="49.82118" lon="2.2754">
        <ele>104.7</ele>
        <time>2023-09-13T08:54:11Z</time>
      </trkpt>
      <trkpt lat="49.82118" lon="2.2754">
        <ele>104.7</ele>
        <time>2023-09-13T08:54:12Z</time>
      </trkpt>
      <trkpt lat="49.82118" lon="2.2754">
        <ele>104.7</ele>
        <time>2023-09-13T08:54:13Z</time>
      </trkpt>
      <trkpt lat="49.82118" lon="2.2754">
        <ele>104.7</ele>
        <time>2023-09-13T08:54:14Z</time>
      </trkpt>
      <trkpt lat="49.82118" lon="2.2754">
        <ele>104.7</ele>
        <time>2023-09-13T08:54:15Z</time>
      </trkpt>
      <trkpt lat="49.82118" lon="2.2754">
        <ele>104.7</ele>
        <time>2023-09-13T08:54:16Z</time>
      </trkpt>
      <trkpt lat="49.82118" lon="2.2754">
        <ele>104.7</ele>
        <time>2023-09-13T08:54:17Z</time>
      </trkpt>
      <trkpt lat="49.82118" lon="2.2754">
        <ele>104.7</ele>
        <time>2023-09-13T08:54:18Z</time>
      </trkpt>
      <trkpt lat="49.82118" lon="2.2754">
        <ele>104.7</ele>
        <time>2023-09-13T08:54:19Z</time>
      </trkpt>
      <trkpt lat="49.82118" lon="2.27539">
        <ele>104.7</ele>
        <time>2023-09-13T08:54:20Z</time>
      </trkpt>
      <trkpt lat="49.82118" lon="2.27539">
        <ele>104.7</ele>
        <time>2023-09-13T08:54:21Z</time>
      </trkpt>
      <trkpt lat="49.82117" lon="2.27539">
        <ele>104.7</ele>
        <time>2023-09-13T08:54:22Z</time>
      </trkpt>
      <trkpt lat="49.82117" lon="2.27539">
        <ele>104.7</ele>
        <time>2023-09-13T08:54:23Z</time>
      </trkpt>
      <trkpt lat="49.82116" lon="2.2754">
        <ele>104.7</ele>
        <time>2023-09-13T08:54:24Z</time>
      </trkpt>
      <trkpt lat="49.82115" lon="2.2754">
        <ele>104.8</ele>
        <time>2023-09-13T08:54:25Z</time>
      </trkpt>
      <trkpt lat="49.82114" lon="2.2754">
        <ele>104.8</ele>
        <time>2023-09-13T08:54:27Z</time>
      </trkpt>
      <trkpt lat="49.82113" lon="2.2754">
        <ele>104.8</ele>
        <time>2023-09-13T08:54:28Z</time>
      </trkpt>
      <trkpt lat="49.82111" lon="2.2754">
        <ele>104.8</ele>
        <time>2023-09-13T08:54:29Z</time>
      </trkpt>
      <trkpt lat="49.8211" lon="2.2754">
        <ele>104.9</ele>
        <time>2023-09-13T08:54:30Z</time>
      </trkpt>
      <trkpt lat="49.82108" lon="2.2754">
        <ele>104.9</ele>
        <time>2023-09-13T08:54:31Z</time>
      </trkpt>
      <trkpt lat="49.82107" lon="2.2754">
        <ele>104.9</ele>
        <time>2023-09-13T08:54:32Z</time>
      </trkpt>
      <trkpt lat="49.82105" lon="2.27541">
        <ele>104.9</ele>
        <time>2023-09-13T08:54:34Z</time>
      </trkpt>
      <trkpt lat="49.82104" lon="2.27541">
        <ele>105</ele>
        <time>2023-09-13T08:54:35Z</time>
      </trkpt>
      <trkpt lat="49.82103" lon="2.27541">
        <ele>105</ele>
        <time>2023-09-13T08:54:36Z</time>
      </trkpt>
      <trkpt lat="49.82102" lon="2.27542">
        <ele>105</ele>
        <time>2023-09-13T08:54:37Z</time>
      </trkpt>
      <trkpt lat="49.82101" lon="2.27542">
        <ele>105</ele>
        <time>2023-09-13T08:54:38Z</time>
      </trkpt>
      <trkpt lat="49.82101" lon="2.27542">
        <ele>105</ele>
        <time>2023-09-13T08:54:39Z</time>
      </trkpt>
      <trkpt lat="49.82101" lon="2.27542">
        <ele>105</ele>
        <time>2023-09-13T08:54:41Z</time>
      </trkpt>
      <trkpt lat="49.821" lon="2.27542">
        <ele>105</ele>
        <time>2023-09-13T08:54:42Z</time>
      </trkpt>
      <trkpt lat="49.82098" lon="2.27543">
        <ele>105.1</ele>
        <time>2023-09-13T08:54:43Z</time>
      </trkpt>
      <trkpt lat="49.82097" lon="2.27543">
        <ele>105.1</ele>
        <time>2023-09-13T08:54:44Z</time>
      </trkpt>
      <trkpt lat="49.82096" lon="2.27543">
        <ele>105.1</ele>
        <time>2023-09-13T08:54:45Z</time>
      </trkpt>
      <trkpt lat="49.82095" lon="2.27543">
        <ele>105.1</ele>
        <time>2023-09-13T08:54:46Z</time>
      </trkpt>
      <trkpt lat="49.82094" lon="2.27543">
        <ele>105.2</ele>
        <time>2023-09-13T08:54:47Z</time>
      </trkpt>
      <trkpt lat="49.82093" lon="2.27543">
        <ele>105.2</ele>
        <time>2023-09-13T08:54:49Z</time>
      </trkpt>
      <trkpt lat="49.82091" lon="2.27544">
        <ele>105.2</ele>
        <time>2023-09-13T08:54:50Z</time>
      </trkpt>
      <trkpt lat="49.8209" lon="2.27545">
        <ele>105.2</ele>
        <time>2023-09-13T08:54:51Z</time>
      </trkpt>
      <trkpt lat="49.82089" lon="2.27547">
        <ele>105.3</ele>
        <time>2023-09-13T08:54:52Z</time>
      </trkpt>
      <trkpt lat="49.82088" lon="2.27548">
        <ele>105.3</ele>
        <time>2023-09-13T08:54:53Z</time>
      </trkpt>
      <trkpt lat="49.82088" lon="2.27549">
        <ele>105.3</ele>
        <time>2023-09-13T08:54:54Z</time>
      </trkpt>
      <trkpt lat="49.82087" lon="2.27549">
        <ele>105.3</ele>
        <time>2023-09-13T08:54:55Z</time>
      </trkpt>
      <trkpt lat="49.82086" lon="2.27549">
        <ele>105.3</ele>
        <time>2023-09-13T08:54:57Z</time>
      </trkpt>
      <trkpt lat="49.82086" lon="2.2755">
        <ele>105.3</ele>
        <time>2023-09-13T08:54:58Z</time>
      </trkpt>
      <trkpt lat="49.82085" lon="2.2755">
        <ele>105.4</ele>
        <time>2023-09-13T08:54:59Z</time>
      </trkpt>
      <trkpt lat="49.82083" lon="2.2755">
        <ele>105.4</ele>
        <time>2023-09-13T08:55:00Z</time>
      </trkpt>
      <trkpt lat="49.82083" lon="2.27551">
        <ele>105.4</ele>
        <time>2023-09-13T08:55:01Z</time>
      </trkpt>
      <trkpt lat="49.82082" lon="2.27551">
        <ele>105.4</ele>
        <time>2023-09-13T08:55:02Z</time>
      </trkpt>
      <trkpt lat="49.82082" lon="2.27552">
        <ele>105.4</ele>
        <time>2023-09-13T08:55:03Z</time>
      </trkpt>
      <trkpt lat="49.82081" lon="2.27552">
        <ele>105.4</ele>
        <time>2023-09-13T08:55:04Z</time>
      </trkpt>
      <trkpt lat="49.8208" lon="2.27552">
        <ele>105.4</ele>
        <time>2023-09-13T08:55:06Z</time>
      </trkpt>
      <trkpt lat="49.82079" lon="2.27552">
        <ele>105.5</ele>
        <time>2023-09-13T08:55:07Z</time>
      </trkpt>
      <trkpt lat="49.82076" lon="2.27554">
        <ele>105.5</ele>
        <time>2023-09-13T08:55:08Z</time>
      </trkpt>
      <trkpt lat="49.82075" lon="2.27554">
        <ele>105.5</ele>
        <time>2023-09-13T08:55:09Z</time>
      </trkpt>
      <trkpt lat="49.82074" lon="2.27555">
        <ele>105.6</ele>
        <time>2023-09-13T08:55:10Z</time>
      </trkpt>
      <trkpt lat="49.82072" lon="2.27556">
        <ele>105.6</ele>
        <time>2023-09-13T08:55:11Z</time>
      </trkpt>
      <trkpt lat="49.8207" lon="2.27557">
        <ele>105.7</ele>
        <time>2023-09-13T08:55:12Z</time>
      </trkpt>
      <trkpt lat="49.82068" lon="2.27558">
        <ele>105.7</ele>
        <time>2023-09-13T08:55:14Z</time>
      </trkpt>
      <trkpt lat="49.82067" lon="2.27559">
        <ele>105.7</ele>
        <time>2023-09-13T08:55:15Z</time>
      </trkpt>
      <trkpt lat="49.82066" lon="2.27559">
        <ele>105.8</ele>
        <time>2023-09-13T08:55:16Z</time>
      </trkpt>
      <trkpt lat="49.82064" lon="2.2756">
        <ele>105.8</ele>
        <time>2023-09-13T08:55:17Z</time>
      </trkpt>
      <trkpt lat="49.82064" lon="2.2756">
        <ele>105.8</ele>
        <time>2023-09-13T08:55:18Z</time>
      </trkpt>
      <trkpt lat="49.82063" lon="2.27561">
        <ele>105.8</ele>
        <time>2023-09-13T08:55:19Z</time>
      </trkpt>
      <trkpt lat="49.82062" lon="2.27561">
        <ele>105.8</ele>
        <time>2023-09-13T08:55:20Z</time>
      </trkpt>
      <trkpt lat="49.82061" lon="2.27562">
        <ele>105.9</ele>
        <time>2023-09-13T08:55:21Z</time>
      </trkpt>
      <trkpt lat="49.8206" lon="2.27563">
        <ele>105.9</ele>
        <time>2023-09-13T08:55:23Z</time>
      </trkpt>
      <trkpt lat="49.82059" lon="2.27563">
        <ele>105.9</ele>
        <time>2023-09-13T08:55:24Z</time>
      </trkpt>
      <trkpt lat="49.82058" lon="2.27564">
        <ele>106</ele>
        <time>2023-09-13T08:55:25Z</time>
      </trkpt>
      <trkpt lat="49.82057" lon="2.27564">
        <ele>106</ele>
        <time>2023-09-13T08:55:26Z</time>
      </trkpt>
      <trkpt lat="49.82056" lon="2.27565">
        <ele>106</ele>
        <time>2023-09-13T08:55:28Z</time>
      </trkpt>
      <trkpt lat="49.82055" lon="2.27565">
        <ele>106</ele>
        <time>2023-09-13T08:55:29Z</time>
      </trkpt>
      <trkpt lat="49.82055" lon="2.27566">
        <ele>106.1</ele>
        <time>2023-09-13T08:55:30Z</time>
      </trkpt>
      <trkpt lat="49.82054" lon="2.27566">
        <ele>106.1</ele>
        <time>2023-09-13T08:55:31Z</time>
      </trkpt>
      <trkpt lat="49.82053" lon="2.27567">
        <ele>106.1</ele>
        <time>2023-09-13T08:55:32Z</time>
      </trkpt>
      <trkpt lat="49.82052" lon="2.27568">
        <ele>106.1</ele>
        <time>2023-09-13T08:55:33Z</time>
      </trkpt>
      <trkpt lat="49.82051" lon="2.27568">
        <ele>106.2</ele>
        <time>2023-09-13T08:55:34Z</time>
      </trkpt>
      <trkpt lat="49.8205" lon="2.27569">
        <ele>106.2</ele>
        <time>2023-09-13T08:55:35Z</time>
      </trkpt>
      <trkpt lat="49.82049" lon="2.2757">
        <ele>106.2</ele>
        <time>2023-09-13T08:55:36Z</time>
      </trkpt>
      <trkpt lat="49.82047" lon="2.27571">
        <ele>106.3</ele>
        <time>2023-09-13T08:55:38Z</time>
      </trkpt>
      <trkpt lat="49.82046" lon="2.27572">
        <ele>106.3</ele>
        <time>2023-09-13T08:55:39Z</time>
      </trkpt>
      <trkpt lat="49.82044" lon="2.27573">
        <ele>106.3</ele>
        <time>2023-09-13T08:55:40Z</time>
      </trkpt>
      <trkpt lat="49.82043" lon="2.27574">
        <ele>106.4</ele>
        <time>2023-09-13T08:55:41Z</time>
      </trkpt>
      <trkpt lat="49.82042" lon="2.27575">
        <ele>106.4</ele>
        <time>2023-09-13T08:55:42Z</time>
      </trkpt>
      <trkpt lat="49.82039" lon="2.27577">
        <ele>106.4</ele>
        <time>2023-09-13T08:55:43Z</time>
      </trkpt>
      <trkpt lat="49.82038" lon="2.27577">
        <ele>106.5</ele>
        <time>2023-09-13T08:55:44Z</time>
      </trkpt>
      <trkpt lat="49.82035" lon="2.27579">
        <ele>106.5</ele>
        <time>2023-09-13T08:55:45Z</time>
      </trkpt>
      <trkpt lat="49.82034" lon="2.27579">
        <ele>106.5</ele>
        <time>2023-09-13T08:55:46Z</time>
      </trkpt>
      <trkpt lat="49.82033" lon="2.2758">
        <ele>106.5</ele>
        <time>2023-09-13T08:55:47Z</time>
      </trkpt>
      <trkpt lat="49.82032" lon="2.2758">
        <ele>106.5</ele>
        <time>2023-09-13T08:55:49Z</time>
      </trkpt>
      <trkpt lat="49.82031" lon="2.27581">
        <ele>106.5</ele>
        <time>2023-09-13T08:55:50Z</time>
      </trkpt>
      <trkpt lat="49.8203" lon="2.27582">
        <ele>106.6</ele>
        <time>2023-09-13T08:55:51Z</time>
      </trkpt>
      <trkpt lat="49.82029" lon="2.27582">
        <ele>106.6</ele>
        <time>2023-09-13T08:55:52Z</time>
      </trkpt>
      <trkpt lat="49.82029" lon="2.27582">
        <ele>106.6</ele>
        <time>2023-09-13T08:55:53Z</time>
      </trkpt>
      <trkpt lat="49.82028" lon="2.27582">
        <ele>106.6</ele>
        <time>2023-09-13T08:55:55Z</time>
      </trkpt>
      <trkpt lat="49.82028" lon="2.27582">
        <ele>106.6</ele>
        <time>2023-09-13T08:55:56Z</time>
      </trkpt>
      <trkpt lat="49.82027" lon="2.27583">
        <ele>106.6</ele>
        <time>2023-09-13T08:55:57Z</time>
      </trkpt>
      <trkpt lat="49.82026" lon="2.27583">
        <ele>106.6</ele>
        <time>2023-09-13T08:55:58Z</time>
      </trkpt>
      <trkpt lat="49.82026" lon="2.27583">
        <ele>106.6</ele>
        <time>2023-09-13T08:55:59Z</time>
      </trkpt>
      <trkpt lat="49.82026" lon="2.27584">
        <ele>106.6</ele>
        <time>2023-09-13T08:56:00Z</time>
      </trkpt>
      <trkpt lat="49.82024" lon="2.27584">
        <ele>106.6</ele>
        <time>2023-09-13T08:56:01Z</time>
      </trkpt>
      <trkpt lat="49.82022" lon="2.27585">
        <ele>106.6</ele>
        <time>2023-09-13T08:56:02Z</time>
      </trkpt>
      <trkpt lat="49.82019" lon="2.27586">
        <ele>106.7</ele>
        <time>2023-09-13T08:56:04Z</time>
      </trkpt>
      <trkpt lat="49.82017" lon="2.27587">
        <ele>106.7</ele>
        <time>2023-09-13T08:56:05Z</time>
      </trkpt>
      <trkpt lat="49.82016" lon="2.27587">
        <ele>106.7</ele>
        <time>2023-09-13T08:56:06Z</time>
      </trkpt>
      <trkpt lat="49.82015" lon="2.27588">
        <ele>106.7</ele>
        <time>2023-09-13T08:56:07Z</time>
      </trkpt>
      <trkpt lat="49.82013" lon="2.27589">
        <ele>106.8</ele>
        <time>2023-09-13T08:56:08Z</time>
      </trkpt>
      <trkpt lat="49.82009" lon="2.2759">
        <ele>106.8</ele>
        <time>2023-09-13T08:56:09Z</time>
      </trkpt>
      <trkpt lat="49.82008" lon="2.2759">
        <ele>106.8</ele>
        <time>2023-09-13T08:56:10Z</time>
      </trkpt>
      <trkpt lat="49.82006" lon="2.27591">
        <ele>106.8</ele>
        <time>2023-09-13T08:56:11Z</time>
      </trkpt>
      <trkpt lat="49.82005" lon="2.27592">
        <ele>106.8</ele>
        <time>2023-09-13T08:56:12Z</time>
      </trkpt>
      <trkpt lat="49.82002" lon="2.27593">
        <ele>106.9</ele>
        <time>2023-09-13T08:56:14Z</time>
      </trkpt>
      <trkpt lat="49.82" lon="2.27594">
        <ele>106.9</ele>
        <time>2023-09-13T08:56:15Z</time>
      </trkpt>
      <trkpt lat="49.81998" lon="2.27595">
        <ele>106.9</ele>
        <time>2023-09-13T08:56:16Z</time>
      </trkpt>
      <trkpt lat="49.81997" lon="2.27595">
        <ele>106.9</ele>
        <time>2023-09-13T08:56:17Z</time>
      </trkpt>
      <trkpt lat="49.81995" lon="2.27596">
        <ele>107</ele>
        <time>2023-09-13T08:56:18Z</time>
      </trkpt>
      <trkpt lat="49.81994" lon="2.27596">
        <ele>107</ele>
        <time>2023-09-13T08:56:19Z</time>
      </trkpt>
      <trkpt lat="49.81992" lon="2.27597">
        <ele>107</ele>
        <time>2023-09-13T08:56:20Z</time>
      </trkpt>
      <trkpt lat="49.8199" lon="2.27598">
        <ele>107</ele>
        <time>2023-09-13T08:56:22Z</time>
      </trkpt>
      <trkpt lat="49.81986" lon="2.27599">
        <ele>107.1</ele>
        <time>2023-09-13T08:56:23Z</time>
      </trkpt>
      <trkpt lat="49.81985" lon="2.276">
        <ele>107.1</ele>
        <time>2023-09-13T08:56:24Z</time>
      </trkpt>
      <trkpt lat="49.81982" lon="2.27601">
        <ele>107.1</ele>
        <time>2023-09-13T08:56:25Z</time>
      </trkpt>
      <trkpt lat="49.81982" lon="2.27601">
        <ele>107.1</ele>
        <time>2023-09-13T08:56:26Z</time>
      </trkpt>
      <trkpt lat="49.81979" lon="2.27603">
        <ele>107.1</ele>
        <time>2023-09-13T08:56:27Z</time>
      </trkpt>
      <trkpt lat="49.81978" lon="2.27603">
        <ele>107.1</ele>
        <time>2023-09-13T08:56:28Z</time>
      </trkpt>
      <trkpt lat="49.81977" lon="2.27604">
        <ele>107.1</ele>
        <time>2023-09-13T08:56:29Z</time>
      </trkpt>
      <trkpt lat="49.81975" lon="2.27604">
        <ele>107.2</ele>
        <time>2023-09-13T08:56:31Z</time>
      </trkpt>
      <trkpt lat="49.81974" lon="2.27605">
        <ele>107.2</ele>
        <time>2023-09-13T08:56:32Z</time>
      </trkpt>
      <trkpt lat="49.81972" lon="2.27605">
        <ele>107.2</ele>
        <time>2023-09-13T08:56:33Z</time>
      </trkpt>
      <trkpt lat="49.81971" lon="2.27603">
        <ele>107.2</ele>
        <time>2023-09-13T08:56:34Z</time>
      </trkpt>
      <trkpt lat="49.8197" lon="2.27602">
        <ele>107.2</ele>
        <time>2023-09-13T08:56:35Z</time>
      </trkpt>
      <trkpt lat="49.81968" lon="2.27602">
        <ele>107.2</ele>
        <time>2023-09-13T08:56:36Z</time>
      </trkpt>
      <trkpt lat="49.81966" lon="2.27603">
        <ele>107.2</ele>
        <time>2023-09-13T08:56:38Z</time>
      </trkpt>
      <trkpt lat="49.81966" lon="2.27604">
        <ele>107.2</ele>
        <time>2023-09-13T08:56:39Z</time>
      </trkpt>
      <trkpt lat="49.81965" lon="2.27605">
        <ele>107.2</ele>
        <time>2023-09-13T08:56:40Z</time>
      </trkpt>
      <trkpt lat="49.81964" lon="2.27606">
        <ele>107.2</ele>
        <time>2023-09-13T08:56:42Z</time>
      </trkpt>
      <trkpt lat="49.81963" lon="2.27606">
        <ele>107.3</ele>
        <time>2023-09-13T08:56:43Z</time>
      </trkpt>
      <trkpt lat="49.81962" lon="2.27606">
        <ele>107.3</ele>
        <time>2023-09-13T08:56:44Z</time>
      </trkpt>
      <trkpt lat="49.81961" lon="2.27606">
        <ele>107.3</ele>
        <time>2023-09-13T08:56:45Z</time>
      </trkpt>
      <trkpt lat="49.8196" lon="2.27606">
        <ele>107.3</ele>
        <time>2023-09-13T08:56:46Z</time>
      </trkpt>
      <trkpt lat="49.8196" lon="2.27606">
        <ele>107.3</ele>
        <time>2023-09-13T08:56:47Z</time>
      </trkpt>
      <trkpt lat="49.81959" lon="2.27607">
        <ele>107.3</ele>
        <time>2023-09-13T08:56:48Z</time>
      </trkpt>
      <trkpt lat="49.81958" lon="2.27608">
        <ele>107.3</ele>
        <time>2023-09-13T08:56:49Z</time>
      </trkpt>
      <trkpt lat="49.81957" lon="2.27609">
        <ele>107.3</ele>
        <time>2023-09-13T08:56:50Z</time>
      </trkpt>
      <trkpt lat="49.81956" lon="2.2761">
        <ele>107.3</ele>
        <time>2023-09-13T08:56:52Z</time>
      </trkpt>
      <trkpt lat="49.81955" lon="2.27611">
        <ele>107.3</ele>
        <time>2023-09-13T08:56:53Z</time>
      </trkpt>
      <trkpt lat="49.81954" lon="2.27612">
        <ele>107.3</ele>
        <time>2023-09-13T08:56:54Z</time>
      </trkpt>
      <trkpt lat="49.81953" lon="2.27613">
        <ele>107.3</ele>
        <time>2023-09-13T08:56:55Z</time>
      </trkpt>
      <trkpt lat="49.81953" lon="2.27614">
        <ele>107.3</ele>
        <time>2023-09-13T08:56:56Z</time>
      </trkpt>
      <trkpt lat="49.81952" lon="2.27615">
        <ele>107.3</ele>
        <time>2023-09-13T08:56:57Z</time>
      </trkpt>
      <trkpt lat="49.81951" lon="2.27616">
        <ele>107.3</ele>
        <time>2023-09-13T08:56:58Z</time>
      </trkpt>
      <trkpt lat="49.8195" lon="2.27617">
        <ele>107.2</ele>
        <time>2023-09-13T08:56:59Z</time>
      </trkpt>
      <trkpt lat="49.8195" lon="2.27618">
        <ele>107.2</ele>
        <time>2023-09-13T08:57:01Z</time>
      </trkpt>
      <trkpt lat="49.81949" lon="2.27619">
        <ele>107.2</ele>
        <time>2023-09-13T08:57:02Z</time>
      </trkpt>
      <trkpt lat="49.81948" lon="2.2762">
        <ele>107.2</ele>
        <time>2023-09-13T08:57:03Z</time>
      </trkpt>
      <trkpt lat="49.81947" lon="2.27622">
        <ele>107.2</ele>
        <time>2023-09-13T08:57:04Z</time>
      </trkpt>
      <trkpt lat="49.81946" lon="2.27622">
        <ele>107.2</ele>
        <time>2023-09-13T08:57:05Z</time>
      </trkpt>
      <trkpt lat="49.81945" lon="2.27623">
        <ele>107.2</ele>
        <time>2023-09-13T08:57:06Z</time>
      </trkpt>
      <trkpt lat="49.81944" lon="2.27624">
        <ele>107.2</ele>
        <time>2023-09-13T08:57:07Z</time>
      </trkpt>
      <trkpt lat="49.81943" lon="2.27625">
        <ele>107.2</ele>
        <time>2023-09-13T08:57:08Z</time>
      </trkpt>
      <trkpt lat="49.81942" lon="2.27625">
        <ele>107.2</ele>
        <time>2023-09-13T08:57:09Z</time>
      </trkpt>
      <trkpt lat="49.8194" lon="2.27627">
        <ele>107.1</ele>
        <time>2023-09-13T08:57:11Z</time>
      </trkpt>
      <trkpt lat="49.8194" lon="2.27628">
        <ele>107.1</ele>
        <time>2023-09-13T08:57:12Z</time>
      </trkpt>
      <trkpt lat="49.81939" lon="2.27629">
        <ele>107.1</ele>
        <time>2023-09-13T08:57:13Z</time>
      </trkpt>
      <trkpt lat="49.81938" lon="2.27631">
        <ele>107.1</ele>
        <time>2023-09-13T08:57:14Z</time>
      </trkpt>
      <trkpt lat="49.81937" lon="2.27633">
        <ele>107.1</ele>
        <time>2023-09-13T08:57:15Z</time>
      </trkpt>
      <trkpt lat="49.81937" lon="2.27634">
        <ele>107.1</ele>
        <time>2023-09-13T08:57:16Z</time>
      </trkpt>
      <trkpt lat="49.81936" lon="2.27635">
        <ele>107.1</ele>
        <time>2023-09-13T08:57:17Z</time>
      </trkpt>
      <trkpt lat="49.81936" lon="2.27637">
        <ele>107.1</ele>
        <time>2023-09-13T08:57:18Z</time>
      </trkpt>
      <trkpt lat="49.81935" lon="2.27638">
        <ele>107</ele>
        <time>2023-09-13T08:57:19Z</time>
      </trkpt>
      <trkpt lat="49.81934" lon="2.27639">
        <ele>107</ele>
        <time>2023-09-13T08:57:20Z</time>
      </trkpt>
      <trkpt lat="49.81933" lon="2.27641">
        <ele>107</ele>
        <time>2023-09-13T08:57:22Z</time>
      </trkpt>
      <trkpt lat="49.81931" lon="2.27643">
        <ele>107</ele>
        <time>2023-09-13T08:57:23Z</time>
      </trkpt>
      <trkpt lat="49.81931" lon="2.27644">
        <ele>107</ele>
        <time>2023-09-13T08:57:24Z</time>
      </trkpt>
      <trkpt lat="49.8193" lon="2.27645">
        <ele>107</ele>
        <time>2023-09-13T08:57:25Z</time>
      </trkpt>
      <trkpt lat="49.81928" lon="2.27647">
        <ele>106.9</ele>
        <time>2023-09-13T08:57:26Z</time>
      </trkpt>
      <trkpt lat="49.81927" lon="2.27647">
        <ele>106.9</ele>
        <time>2023-09-13T08:57:27Z</time>
      </trkpt>
      <trkpt lat="49.81926" lon="2.27648">
        <ele>106.9</ele>
        <time>2023-09-13T08:57:28Z</time>
      </trkpt>
      <trkpt lat="49.81925" lon="2.27649">
        <ele>106.9</ele>
        <time>2023-09-13T08:57:29Z</time>
      </trkpt>
      <trkpt lat="49.81924" lon="2.2765">
        <ele>106.9</ele>
        <time>2023-09-13T08:57:30Z</time>
      </trkpt>
      <trkpt lat="49.81923" lon="2.27652">
        <ele>106.9</ele>
        <time>2023-09-13T08:57:31Z</time>
      </trkpt>
      <trkpt lat="49.81922" lon="2.27653">
        <ele>106.8</ele>
        <time>2023-09-13T08:57:32Z</time>
      </trkpt>
      <trkpt lat="49.8192" lon="2.27656">
        <ele>106.8</ele>
        <time>2023-09-13T08:57:33Z</time>
      </trkpt>
      <trkpt lat="49.81919" lon="2.27657">
        <ele>106.8</ele>
        <time>2023-09-13T08:57:35Z</time>
      </trkpt>
      <trkpt lat="49.81917" lon="2.27659">
        <ele>106.8</ele>
        <time>2023-09-13T08:57:37Z</time>
      </trkpt>
      <trkpt lat="49.81916" lon="2.2766">
        <ele>106.7</ele>
        <time>2023-09-13T08:57:38Z</time>
      </trkpt>
      <trkpt lat="49.81915" lon="2.27662">
        <ele>106.7</ele>
        <time>2023-09-13T08:57:39Z</time>
      </trkpt>
      <trkpt lat="49.81914" lon="2.27663">
        <ele>106.7</ele>
        <time>2023-09-13T08:57:40Z</time>
      </trkpt>
      <trkpt lat="49.81913" lon="2.27664">
        <ele>106.7</ele>
        <time>2023-09-13T08:57:41Z</time>
      </trkpt>
      <trkpt lat="49.81912" lon="2.27665">
        <ele>106.7</ele>
        <time>2023-09-13T08:57:42Z</time>
      </trkpt>
      <trkpt lat="49.81912" lon="2.27666">
        <ele>106.7</ele>
        <time>2023-09-13T08:57:43Z</time>
      </trkpt>
      <trkpt lat="49.81911" lon="2.27669">
        <ele>106.6</ele>
        <time>2023-09-13T08:57:45Z</time>
      </trkpt>
      <trkpt lat="49.81911" lon="2.2767">
        <ele>106.6</ele>
        <time>2023-09-13T08:57:46Z</time>
      </trkpt>
      <trkpt lat="49.8191" lon="2.27672">
        <ele>106.6</ele>
        <time>2023-09-13T08:57:48Z</time>
      </trkpt>
      <trkpt lat="49.81909" lon="2.27673">
        <ele>106.6</ele>
        <time>2023-09-13T08:57:49Z</time>
      </trkpt>
      <trkpt lat="49.81908" lon="2.27675">
        <ele>106.6</ele>
        <time>2023-09-13T08:57:50Z</time>
      </trkpt>
      <trkpt lat="49.81907" lon="2.27676">
        <ele>106.5</ele>
        <time>2023-09-13T08:57:51Z</time>
      </trkpt>
      <trkpt lat="49.81906" lon="2.27677">
        <ele>106.5</ele>
        <time>2023-09-13T08:57:52Z</time>
      </trkpt>
      <trkpt lat="49.81906" lon="2.27678">
        <ele>106.5</ele>
        <time>2023-09-13T08:57:53Z</time>
      </trkpt>
      <trkpt lat="49.81905" lon="2.2768">
        <ele>106.5</ele>
        <time>2023-09-13T08:57:54Z</time>
      </trkpt>
      <trkpt lat="49.81904" lon="2.27682">
        <ele>106.5</ele>
        <time>2023-09-13T08:57:56Z</time>
      </trkpt>
      <trkpt lat="49.81903" lon="2.27683">
        <ele>106.5</ele>
        <time>2023-09-13T08:57:57Z</time>
      </trkpt>
      <trkpt lat="49.81902" lon="2.27685">
        <ele>106.4</ele>
        <time>2023-09-13T08:57:58Z</time>
      </trkpt>
      <trkpt lat="49.81901" lon="2.27686">
        <ele>106.4</ele>
        <time>2023-09-13T08:57:59Z</time>
      </trkpt>
      <trkpt lat="49.819" lon="2.27688">
        <ele>106.4</ele>
        <time>2023-09-13T08:58:00Z</time>
      </trkpt>
      <trkpt lat="49.81899" lon="2.2769">
        <ele>106.4</ele>
        <time>2023-09-13T08:58:02Z</time>
      </trkpt>
      <trkpt lat="49.81898" lon="2.27692">
        <ele>106.3</ele>
        <time>2023-09-13T08:58:03Z</time>
      </trkpt>
      <trkpt lat="49.81897" lon="2.27693">
        <ele>106.3</ele>
        <time>2023-09-13T08:58:04Z</time>
      </trkpt>
      <trkpt lat="49.81896" lon="2.27695">
        <ele>106.3</ele>
        <time>2023-09-13T08:58:05Z</time>
      </trkpt>
      <trkpt lat="49.81894" lon="2.27697">
        <ele>106.3</ele>
        <time>2023-09-13T08:58:06Z</time>
      </trkpt>
      <trkpt lat="49.81893" lon="2.27698">
        <ele>106.3</ele>
        <time>2023-09-13T08:58:07Z</time>
      </trkpt>
      <trkpt lat="49.81893" lon="2.27698">
        <ele>106.2</ele>
        <time>2023-09-13T08:58:08Z</time>
      </trkpt>
      <trkpt lat="49.81891" lon="2.277">
        <ele>106.2</ele>
        <time>2023-09-13T08:58:09Z</time>
      </trkpt>
      <trkpt lat="49.8189" lon="2.27701">
        <ele>106.2</ele>
        <time>2023-09-13T08:58:10Z</time>
      </trkpt>
      <trkpt lat="49.8189" lon="2.27702">
        <ele>106.2</ele>
        <time>2023-09-13T08:58:11Z</time>
      </trkpt>
      <trkpt lat="49.81889" lon="2.27703">
        <ele>106.2</ele>
        <time>2023-09-13T08:58:12Z</time>
      </trkpt>
      <trkpt lat="49.81888" lon="2.27705">
        <ele>106.1</ele>
        <time>2023-09-13T08:58:13Z</time>
      </trkpt>
      <trkpt lat="49.81886" lon="2.27707">
        <ele>106.1</ele>
        <time>2023-09-13T08:58:14Z</time>
      </trkpt>
      <trkpt lat="49.81885" lon="2.27708">
        <ele>106.1</ele>
        <time>2023-09-13T08:58:15Z</time>
      </trkpt>
      <trkpt lat="49.81885" lon="2.27709">
        <ele>106.1</ele>
        <time>2023-09-13T08:58:16Z</time>
      </trkpt>
      <trkpt lat="49.81883" lon="2.27711">
        <ele>106.1</ele>
        <time>2023-09-13T08:58:17Z</time>
      </trkpt>
      <trkpt lat="49.81883" lon="2.27712">
        <ele>106.1</ele>
        <time>2023-09-13T08:58:19Z</time>
      </trkpt>
      <trkpt lat="49.81882" lon="2.27713">
        <ele>106.1</ele>
        <time>2023-09-13T08:58:20Z</time>
      </trkpt>
      <trkpt lat="49.81881" lon="2.27714">
        <ele>106.1</ele>
        <time>2023-09-13T08:58:21Z</time>
      </trkpt>
      <trkpt lat="49.8188" lon="2.27715">
        <ele>106.1</ele>
        <time>2023-09-13T08:58:22Z</time>
      </trkpt>
      <trkpt lat="49.81879" lon="2.27716">
        <ele>106</ele>
        <time>2023-09-13T08:58:23Z</time>
      </trkpt>
      <trkpt lat="49.81878" lon="2.27719">
        <ele>106</ele>
        <time>2023-09-13T08:58:24Z</time>
      </trkpt>
      <trkpt lat="49.81878" lon="2.2772">
        <ele>106</ele>
        <time>2023-09-13T08:58:25Z</time>
      </trkpt>
      <trkpt lat="49.81877" lon="2.27721">
        <ele>106</ele>
        <time>2023-09-13T08:58:27Z</time>
      </trkpt>
      <trkpt lat="49.81877" lon="2.27723">
        <ele>106</ele>
        <time>2023-09-13T08:58:28Z</time>
      </trkpt>
      <trkpt lat="49.81876" lon="2.27724">
        <ele>106</ele>
        <time>2023-09-13T08:58:29Z</time>
      </trkpt>
      <trkpt lat="49.81875" lon="2.27726">
        <ele>106</ele>
        <time>2023-09-13T08:58:30Z</time>
      </trkpt>
      <trkpt lat="49.81875" lon="2.27728">
        <ele>106</ele>
        <time>2023-09-13T08:58:31Z</time>
      </trkpt>
      <trkpt lat="49.81874" lon="2.27729">
        <ele>106</ele>
        <time>2023-09-13T08:58:32Z</time>
      </trkpt>
      <trkpt lat="49.81873" lon="2.27731">
        <ele>106</ele>
        <time>2023-09-13T08:58:33Z</time>
      </trkpt>
      <trkpt lat="49.81872" lon="2.27733">
        <ele>106</ele>
        <time>2023-09-13T08:58:34Z</time>
      </trkpt>
      <trkpt lat="49.8187" lon="2.27735">
        <ele>106</ele>
        <time>2023-09-13T08:58:36Z</time>
      </trkpt>
      <trkpt lat="49.81869" lon="2.27735">
        <ele>106</ele>
        <time>2023-09-13T08:58:37Z</time>
      </trkpt>
      <trkpt lat="49.81868" lon="2.27736">
        <ele>106</ele>
        <time>2023-09-13T08:58:38Z</time>
      </trkpt>
      <trkpt lat="49.81866" lon="2.27736">
        <ele>106</ele>
        <time>2023-09-13T08:58:39Z</time>
      </trkpt>
      <trkpt lat="49.81865" lon="2.27736">
        <ele>106</ele>
        <time>2023-09-13T08:58:41Z</time>
      </trkpt>
      <trkpt lat="49.81863" lon="2.27736">
        <ele>106</ele>
        <time>2023-09-13T08:58:42Z</time>
      </trkpt>
      <trkpt lat="49.81861" lon="2.27735">
        <ele>106</ele>
        <time>2023-09-13T08:58:43Z</time>
      </trkpt>
      <trkpt lat="49.8186" lon="2.27735">
        <ele>106</ele>
        <time>2023-09-13T08:58:44Z</time>
      </trkpt>
      <trkpt lat="49.81859" lon="2.27735">
        <ele>106</ele>
        <time>2023-09-13T08:58:45Z</time>
      </trkpt>
      <trkpt lat="49.81857" lon="2.27734">
        <ele>106.1</ele>
        <time>2023-09-13T08:58:46Z</time>
      </trkpt>
      <trkpt lat="49.81856" lon="2.27733">
        <ele>106.1</ele>
        <time>2023-09-13T08:58:48Z</time>
      </trkpt>
      <trkpt lat="49.81855" lon="2.27733">
        <ele>106.1</ele>
        <time>2023-09-13T08:58:49Z</time>
      </trkpt>
      <trkpt lat="49.81853" lon="2.27732">
        <ele>106.1</ele>
        <time>2023-09-13T08:58:50Z</time>
      </trkpt>
      <trkpt lat="49.81852" lon="2.27731">
        <ele>106.1</ele>
        <time>2023-09-13T08:58:51Z</time>
      </trkpt>
      <trkpt lat="49.81852" lon="2.27731">
        <ele>106.1</ele>
        <time>2023-09-13T08:58:52Z</time>
      </trkpt>
      <trkpt lat="49.8185" lon="2.2773">
        <ele>106.1</ele>
        <time>2023-09-13T08:58:53Z</time>
      </trkpt>
      <trkpt lat="49.81849" lon="2.27729">
        <ele>106.1</ele>
        <time>2023-09-13T08:58:54Z</time>
      </trkpt>
      <trkpt lat="49.81848" lon="2.27729">
        <ele>106.1</ele>
        <time>2023-09-13T08:58:55Z</time>
      </trkpt>
      <trkpt lat="49.81847" lon="2.27728">
        <ele>106.1</ele>
        <time>2023-09-13T08:58:56Z</time>
      </trkpt>
      <trkpt lat="49.81846" lon="2.27727">
        <ele>106.1</ele>
        <time>2023-09-13T08:58:57Z</time>
      </trkpt>
      <trkpt lat="49.81845" lon="2.27727">
        <ele>106.2</ele>
        <time>2023-09-13T08:58:59Z</time>
      </trkpt>
      <trkpt lat="49.81842" lon="2.27727">
        <ele>106.2</ele>
        <time>2023-09-13T08:59:00Z</time>
      </trkpt>
      <trkpt lat="49.81842" lon="2.27727">
        <ele>106.2</ele>
        <time>2023-09-13T08:59:01Z</time>
      </trkpt>
      <trkpt lat="49.81841" lon="2.27727">
        <ele>106.2</ele>
        <time>2023-09-13T08:59:02Z</time>
      </trkpt>
      <trkpt lat="49.81839" lon="2.27728">
        <ele>106.2</ele>
        <time>2023-09-13T08:59:03Z</time>
      </trkpt>
      <trkpt lat="49.81838" lon="2.27728">
        <ele>106.2</ele>
        <time>2023-09-13T08:59:04Z</time>
      </trkpt>
      <trkpt lat="49.81835" lon="2.27728">
        <ele>106.2</ele>
        <time>2023-09-13T08:59:05Z</time>
      </trkpt>
      <trkpt lat="49.81834" lon="2.27728">
        <ele>106.2</ele>
        <time>2023-09-13T08:59:07Z</time>
      </trkpt>
      <trkpt lat="49.81833" lon="2.27728">
        <ele>106.2</ele>
        <time>2023-09-13T08:59:08Z</time>
      </trkpt>
      <trkpt lat="49.81832" lon="2.27728">
        <ele>106.2</ele>
        <time>2023-09-13T08:59:09Z</time>
      </trkpt>
      <trkpt lat="49.81831" lon="2.27727">
        <ele>106.2</ele>
        <time>2023-09-13T08:59:10Z</time>
      </trkpt>
      <trkpt lat="49.81829" lon="2.27727">
        <ele>106.2</ele>
        <time>2023-09-13T08:59:12Z</time>
      </trkpt>
      <trkpt lat="49.81828" lon="2.27727">
        <ele>106.2</ele>
        <time>2023-09-13T08:59:13Z</time>
      </trkpt>
      <trkpt lat="49.81826" lon="2.27727">
        <ele>106.2</ele>
        <time>2023-09-13T08:59:14Z</time>
      </trkpt>
      <trkpt lat="49.81825" lon="2.27727">
        <ele>106.3</ele>
        <time>2023-09-13T08:59:15Z</time>
      </trkpt>
      <trkpt lat="49.81823" lon="2.27727">
        <ele>106.3</ele>
        <time>2023-09-13T08:59:16Z</time>
      </trkpt>
      <trkpt lat="49.81821" lon="2.27727">
        <ele>106.3</ele>
        <time>2023-09-13T08:59:18Z</time>
      </trkpt>
      <trkpt lat="49.8182" lon="2.27727">
        <ele>106.3</ele>
        <time>2023-09-13T08:59:19Z</time>
      </trkpt>
      <trkpt lat="49.81818" lon="2.27727">
        <ele>106.3</ele>
        <time>2023-09-13T08:59:20Z</time>
      </trkpt>
      <trkpt lat="49.81816" lon="2.27727">
        <ele>106.3</ele>
        <time>2023-09-13T08:59:21Z</time>
      </trkpt>
      <trkpt lat="49.81816" lon="2.27727">
        <ele>106.3</ele>
        <time>2023-09-13T08:59:22Z</time>
      </trkpt>
      <trkpt lat="49.81815" lon="2.27727">
        <ele>106.3</ele>
        <time>2023-09-13T08:59:23Z</time>
      </trkpt>
      <trkpt lat="49.81813" lon="2.27727">
        <ele>106.3</ele>
        <time>2023-09-13T08:59:24Z</time>
      </trkpt>
      <trkpt lat="49.81812" lon="2.27727">
        <ele>106.4</ele>
        <time>2023-09-13T08:59:26Z</time>
      </trkpt>
      <trkpt lat="49.81811" lon="2.27727">
        <ele>106.4</ele>
        <time>2023-09-13T08:59:27Z</time>
      </trkpt>
      <trkpt lat="49.81809" lon="2.27727">
        <ele>106.4</ele>
        <time>2023-09-13T08:59:28Z</time>
      </trkpt>
      <trkpt lat="49.81808" lon="2.27727">
        <ele>106.4</ele>
        <time>2023-09-13T08:59:29Z</time>
      </trkpt>
      <trkpt lat="49.81806" lon="2.27728">
        <ele>106.4</ele>
        <time>2023-09-13T08:59:30Z</time>
      </trkpt>
      <trkpt lat="49.81805" lon="2.27728">
        <ele>106.5</ele>
        <time>2023-09-13T08:59:31Z</time>
      </trkpt>
      <trkpt lat="49.81804" lon="2.27728">
        <ele>106.5</ele>
        <time>2023-09-13T08:59:32Z</time>
      </trkpt>
      <trkpt lat="49.81803" lon="2.27728">
        <ele>106.5</ele>
        <time>2023-09-13T08:59:33Z</time>
      </trkpt>
      <trkpt lat="49.81802" lon="2.27729">
        <ele>106.5</ele>
        <time>2023-09-13T08:59:34Z</time>
      </trkpt>
      <trkpt lat="49.818" lon="2.27729">
        <ele>106.6</ele>
        <time>2023-09-13T08:59:36Z</time>
      </trkpt>
      <trkpt lat="49.81799" lon="2.2773">
        <ele>106.6</ele>
        <time>2023-09-13T08:59:37Z</time>
      </trkpt>
      <trkpt lat="49.81797" lon="2.2773">
        <ele>106.6</ele>
        <time>2023-09-13T08:59:38Z</time>
      </trkpt>
      <trkpt lat="49.81796" lon="2.2773">
        <ele>106.6</ele>
        <time>2023-09-13T08:59:39Z</time>
      </trkpt>
      <trkpt lat="49.81795" lon="2.2773">
        <ele>106.7</ele>
        <time>2023-09-13T08:59:40Z</time>
      </trkpt>
      <trkpt lat="49.81794" lon="2.2773">
        <ele>106.7</ele>
        <time>2023-09-13T08:59:41Z</time>
      </trkpt>
      <trkpt lat="49.81793" lon="2.2773">
        <ele>106.7</ele>
        <time>2023-09-13T08:59:42Z</time>
      </trkpt>
      <trkpt lat="49.81791" lon="2.2773">
        <ele>106.7</ele>
        <time>2023-09-13T08:59:43Z</time>
      </trkpt>
      <trkpt lat="49.81789" lon="2.2773">
        <ele>106.8</ele>
        <time>2023-09-13T08:59:45Z</time>
      </trkpt>
      <trkpt lat="49.81788" lon="2.2773">
        <ele>106.8</ele>
        <time>2023-09-13T08:59:46Z</time>
      </trkpt>
      <trkpt lat="49.81787" lon="2.27729">
        <ele>106.8</ele>
        <time>2023-09-13T08:59:47Z</time>
      </trkpt>
      <trkpt lat="49.81785" lon="2.27729">
        <ele>106.9</ele>
        <time>2023-09-13T08:59:48Z</time>
      </trkpt>
      <trkpt lat="49.81784" lon="2.27729">
        <ele>106.9</ele>
        <time>2023-09-13T08:59:49Z</time>
      </trkpt>
      <trkpt lat="49.81784" lon="2.27729">
        <ele>106.9</ele>
        <time>2023-09-13T08:59:50Z</time>
      </trkpt>
      <trkpt lat="49.81782" lon="2.27729">
        <ele>106.9</ele>
        <time>2023-09-13T08:59:52Z</time>
      </trkpt>
      <trkpt lat="49.81781" lon="2.27728">
        <ele>106.9</ele>
        <time>2023-09-13T08:59:53Z</time>
      </trkpt>
      <trkpt lat="49.8178" lon="2.27727">
        <ele>107</ele>
        <time>2023-09-13T08:59:54Z</time>
      </trkpt>
      <trkpt lat="49.81778" lon="2.27726">
        <ele>107</ele>
        <time>2023-09-13T08:59:55Z</time>
      </trkpt>
      <trkpt lat="49.81777" lon="2.27726">
        <ele>107</ele>
        <time>2023-09-13T08:59:56Z</time>
      </trkpt>
      <trkpt lat="49.81775" lon="2.27725">
        <ele>107</ele>
        <time>2023-09-13T08:59:57Z</time>
      </trkpt>
      <trkpt lat="49.81773" lon="2.27723">
        <ele>107.1</ele>
        <time>2023-09-13T08:59:58Z</time>
      </trkpt>
      <trkpt lat="49.81772" lon="2.27722">
        <ele>107.1</ele>
        <time>2023-09-13T09:00:00Z</time>
      </trkpt>
      <trkpt lat="49.81772" lon="2.27722">
        <ele>107.1</ele>
        <time>2023-09-13T09:00:01Z</time>
      </trkpt>
      <trkpt lat="49.8177" lon="2.27719">
        <ele>107.1</ele>
        <time>2023-09-13T09:00:02Z</time>
      </trkpt>
      <trkpt lat="49.81769" lon="2.27718">
        <ele>107.2</ele>
        <time>2023-09-13T09:00:03Z</time>
      </trkpt>
      <trkpt lat="49.81768" lon="2.27717">
        <ele>107.2</ele>
        <time>2023-09-13T09:00:04Z</time>
      </trkpt>
      <trkpt lat="49.81767" lon="2.27717">
        <ele>107.2</ele>
        <time>2023-09-13T09:00:06Z</time>
      </trkpt>
      <trkpt lat="49.81766" lon="2.27716">
        <ele>107.2</ele>
        <time>2023-09-13T09:00:07Z</time>
      </trkpt>
      <trkpt lat="49.81765" lon="2.27715">
        <ele>107.2</ele>
        <time>2023-09-13T09:00:08Z</time>
      </trkpt>
      <trkpt lat="49.81765" lon="2.27715">
        <ele>107.2</ele>
        <time>2023-09-13T09:00:09Z</time>
      </trkpt>
      <trkpt lat="49.81764" lon="2.27714">
        <ele>107.2</ele>
        <time>2023-09-13T09:00:10Z</time>
      </trkpt>
      <trkpt lat="49.81763" lon="2.27713">
        <ele>107.3</ele>
        <time>2023-09-13T09:00:11Z</time>
      </trkpt>
      <trkpt lat="49.81762" lon="2.27712">
        <ele>107.3</ele>
        <time>2023-09-13T09:00:12Z</time>
      </trkpt>
      <trkpt lat="49.81761" lon="2.27711">
        <ele>107.3</ele>
        <time>2023-09-13T09:00:13Z</time>
      </trkpt>
      <trkpt lat="49.8176" lon="2.2771">
        <ele>107.3</ele>
        <time>2023-09-13T09:00:15Z</time>
      </trkpt>
      <trkpt lat="49.81759" lon="2.27709">
        <ele>107.3</ele>
        <time>2023-09-13T09:00:16Z</time>
      </trkpt>
      <trkpt lat="49.81758" lon="2.27709">
        <ele>107.3</ele>
        <time>2023-09-13T09:00:17Z</time>
      </trkpt>
      <trkpt lat="49.81757" lon="2.27706">
        <ele>107.4</ele>
        <time>2023-09-13T09:00:19Z</time>
      </trkpt>
      <trkpt lat="49.81756" lon="2.27705">
        <ele>107.4</ele>
        <time>2023-09-13T09:00:20Z</time>
      </trkpt>
      <trkpt lat="49.81756" lon="2.27704">
        <ele>107.4</ele>
        <time>2023-09-13T09:00:21Z</time>
      </trkpt>
      <trkpt lat="49.81754" lon="2.27703">
        <ele>107.4</ele>
        <time>2023-09-13T09:00:23Z</time>
      </trkpt>
      <trkpt lat="49.81754" lon="2.27702">
        <ele>107.4</ele>
        <time>2023-09-13T09:00:24Z</time>
      </trkpt>
      <trkpt lat="49.81752" lon="2.27702">
        <ele>107.4</ele>
        <time>2023-09-13T09:00:25Z</time>
      </trkpt>
      <trkpt lat="49.81751" lon="2.27701">
        <ele>107.5</ele>
        <time>2023-09-13T09:00:26Z</time>
      </trkpt>
      <trkpt lat="49.8175" lon="2.27701">
        <ele>107.5</ele>
        <time>2023-09-13T09:00:27Z</time>
      </trkpt>
      <trkpt lat="49.81749" lon="2.277">
        <ele>107.5</ele>
        <time>2023-09-13T09:00:28Z</time>
      </trkpt>
      <trkpt lat="49.81748" lon="2.277">
        <ele>107.5</ele>
        <time>2023-09-13T09:00:29Z</time>
      </trkpt>
      <trkpt lat="49.81746" lon="2.27699">
        <ele>107.5</ele>
        <time>2023-09-13T09:00:30Z</time>
      </trkpt>
      <trkpt lat="49.81745" lon="2.27698">
        <ele>107.5</ele>
        <time>2023-09-13T09:00:31Z</time>
      </trkpt>
      <trkpt lat="49.81744" lon="2.27698">
        <ele>107.6</ele>
        <time>2023-09-13T09:00:32Z</time>
      </trkpt>
      <trkpt lat="49.81742" lon="2.27697">
        <ele>107.6</ele>
        <time>2023-09-13T09:00:34Z</time>
      </trkpt>
      <trkpt lat="49.81741" lon="2.27696">
        <ele>107.6</ele>
        <time>2023-09-13T09:00:35Z</time>
      </trkpt>
      <trkpt lat="49.81741" lon="2.27696">
        <ele>107.6</ele>
        <time>2023-09-13T09:00:36Z</time>
      </trkpt>
      <trkpt lat="49.8174" lon="2.27695">
        <ele>107.6</ele>
        <time>2023-09-13T09:00:37Z</time>
      </trkpt>
      <trkpt lat="49.81739" lon="2.27694">
        <ele>107.6</ele>
        <time>2023-09-13T09:00:38Z</time>
      </trkpt>
      <trkpt lat="49.81738" lon="2.27694">
        <ele>107.7</ele>
        <time>2023-09-13T09:00:39Z</time>
      </trkpt>
      <trkpt lat="49.81736" lon="2.27692">
        <ele>107.7</ele>
        <time>2023-09-13T09:00:40Z</time>
      </trkpt>
      <trkpt lat="49.81735" lon="2.27692">
        <ele>107.7</ele>
        <time>2023-09-13T09:00:41Z</time>
      </trkpt>
      <trkpt lat="49.81734" lon="2.27691">
        <ele>107.7</ele>
        <time>2023-09-13T09:00:42Z</time>
      </trkpt>
      <trkpt lat="49.81732" lon="2.2769">
        <ele>107.7</ele>
        <time>2023-09-13T09:00:43Z</time>
      </trkpt>
      <trkpt lat="49.81731" lon="2.2769">
        <ele>107.8</ele>
        <time>2023-09-13T09:00:45Z</time>
      </trkpt>
      <trkpt lat="49.8173" lon="2.27689">
        <ele>107.8</ele>
        <time>2023-09-13T09:00:46Z</time>
      </trkpt>
      <trkpt lat="49.81729" lon="2.27689">
        <ele>107.8</ele>
        <time>2023-09-13T09:00:47Z</time>
      </trkpt>
      <trkpt lat="49.81728" lon="2.27688">
        <ele>107.8</ele>
        <time>2023-09-13T09:00:48Z</time>
      </trkpt>
      <trkpt lat="49.81727" lon="2.27687">
        <ele>107.8</ele>
        <time>2023-09-13T09:00:49Z</time>
      </trkpt>
      <trkpt lat="49.81726" lon="2.27687">
        <ele>107.8</ele>
        <time>2023-09-13T09:00:50Z</time>
      </trkpt>
      <trkpt lat="49.81725" lon="2.27686">
        <ele>107.9</ele>
        <time>2023-09-13T09:00:51Z</time>
      </trkpt>
      <trkpt lat="49.81723" lon="2.27685">
        <ele>107.9</ele>
        <time>2023-09-13T09:00:52Z</time>
      </trkpt>
      <trkpt lat="49.81722" lon="2.27684">
        <ele>107.9</ele>
        <time>2023-09-13T09:00:53Z</time>
      </trkpt>
      <trkpt lat="49.81721" lon="2.27684">
        <ele>107.9</ele>
        <time>2023-09-13T09:00:54Z</time>
      </trkpt>
      <trkpt lat="49.81719" lon="2.27683">
        <ele>108</ele>
        <time>2023-09-13T09:00:55Z</time>
      </trkpt>
      <trkpt lat="49.81719" lon="2.27682">
        <ele>108</ele>
        <time>2023-09-13T09:00:57Z</time>
      </trkpt>
      <trkpt lat="49.81718" lon="2.27682">
        <ele>108</ele>
        <time>2023-09-13T09:00:58Z</time>
      </trkpt>
      <trkpt lat="49.81716" lon="2.27681">
        <ele>108</ele>
        <time>2023-09-13T09:00:59Z</time>
      </trkpt>
      <trkpt lat="49.81715" lon="2.27681">
        <ele>108</ele>
        <time>2023-09-13T09:01:00Z</time>
      </trkpt>
      <trkpt lat="49.81714" lon="2.2768">
        <ele>108</ele>
        <time>2023-09-13T09:01:01Z</time>
      </trkpt>
      <trkpt lat="49.81713" lon="2.2768">
        <ele>108.1</ele>
        <time>2023-09-13T09:01:02Z</time>
      </trkpt>
      <trkpt lat="49.81712" lon="2.2768">
        <ele>108.1</ele>
        <time>2023-09-13T09:01:03Z</time>
      </trkpt>
      <trkpt lat="49.81711" lon="2.27679">
        <ele>108.1</ele>
        <time>2023-09-13T09:01:04Z</time>
      </trkpt>
      <trkpt lat="49.8171" lon="2.27679">
        <ele>108.1</ele>
        <time>2023-09-13T09:01:05Z</time>
      </trkpt>
      <trkpt lat="49.81708" lon="2.27678">
        <ele>108.1</ele>
        <time>2023-09-13T09:01:06Z</time>
      </trkpt>
      <trkpt lat="49.81707" lon="2.27678">
        <ele>108.2</ele>
        <time>2023-09-13T09:01:08Z</time>
      </trkpt>
      <trkpt lat="49.81705" lon="2.27678">
        <ele>108.2</ele>
        <time>2023-09-13T09:01:09Z</time>
      </trkpt>
      <trkpt lat="49.81704" lon="2.27678">
        <ele>108.2</ele>
        <time>2023-09-13T09:01:10Z</time>
      </trkpt>
      <trkpt lat="49.81704" lon="2.27678">
        <ele>108.2</ele>
        <time>2023-09-13T09:01:11Z</time>
      </trkpt>
      <trkpt lat="49.81701" lon="2.27677">
        <ele>108.2</ele>
        <time>2023-09-13T09:01:13Z</time>
      </trkpt>
      <trkpt lat="49.81701" lon="2.27677">
        <ele>108.3</ele>
        <time>2023-09-13T09:01:14Z</time>
      </trkpt>
      <trkpt lat="49.817" lon="2.27677">
        <ele>108.3</ele>
        <time>2023-09-13T09:01:15Z</time>
      </trkpt>
      <trkpt lat="49.81698" lon="2.27676">
        <ele>108.3</ele>
        <time>2023-09-13T09:01:16Z</time>
      </trkpt>
      <trkpt lat="49.81697" lon="2.27676">
        <ele>108.3</ele>
        <time>2023-09-13T09:01:17Z</time>
      </trkpt>
      <trkpt lat="49.81696" lon="2.27675">
        <ele>108.3</ele>
        <time>2023-09-13T09:01:18Z</time>
      </trkpt>
      <trkpt lat="49.81695" lon="2.27675">
        <ele>108.4</ele>
        <time>2023-09-13T09:01:20Z</time>
      </trkpt>
      <trkpt lat="49.81694" lon="2.27675">
        <ele>108.4</ele>
        <time>2023-09-13T09:01:21Z</time>
      </trkpt>
      <trkpt lat="49.81693" lon="2.27674">
        <ele>108.4</ele>
        <time>2023-09-13T09:01:22Z</time>
      </trkpt>
      <trkpt lat="49.81691" lon="2.27674">
        <ele>108.4</ele>
        <time>2023-09-13T09:01:23Z</time>
      </trkpt>
      <trkpt lat="49.8169" lon="2.27673">
        <ele>108.4</ele>
        <time>2023-09-13T09:01:24Z</time>
      </trkpt>
      <trkpt lat="49.81688" lon="2.27672">
        <ele>108.5</ele>
        <time>2023-09-13T09:01:25Z</time>
      </trkpt>
      <trkpt lat="49.81687" lon="2.27672">
        <ele>108.5</ele>
        <time>2023-09-13T09:01:26Z</time>
      </trkpt>
      <trkpt lat="49.81686" lon="2.27672">
        <ele>108.5</ele>
        <time>2023-09-13T09:01:27Z</time>
      </trkpt>
      <trkpt lat="49.81685" lon="2.27671">
        <ele>108.5</ele>
        <time>2023-09-13T09:01:29Z</time>
      </trkpt>
      <trkpt lat="49.81684" lon="2.27671">
        <ele>108.6</ele>
        <time>2023-09-13T09:01:30Z</time>
      </trkpt>
      <trkpt lat="49.81682" lon="2.2767">
        <ele>108.6</ele>
        <time>2023-09-13T09:01:31Z</time>
      </trkpt>
      <trkpt lat="49.81681" lon="2.2767">
        <ele>108.6</ele>
        <time>2023-09-13T09:01:32Z</time>
      </trkpt>
      <trkpt lat="49.8168" lon="2.2767">
        <ele>108.6</ele>
        <time>2023-09-13T09:01:33Z</time>
      </trkpt>
      <trkpt lat="49.81679" lon="2.27669">
        <ele>108.6</ele>
        <time>2023-09-13T09:01:34Z</time>
      </trkpt>
      <trkpt lat="49.81678" lon="2.27668">
        <ele>108.7</ele>
        <time>2023-09-13T09:01:35Z</time>
      </trkpt>
      <trkpt lat="49.81677" lon="2.27668">
        <ele>108.7</ele>
        <time>2023-09-13T09:01:37Z</time>
      </trkpt>
      <trkpt lat="49.81674" lon="2.27667">
        <ele>108.7</ele>
        <time>2023-09-13T09:01:38Z</time>
      </trkpt>
      <trkpt lat="49.81674" lon="2.27667">
        <ele>108.8</ele>
        <time>2023-09-13T09:01:39Z</time>
      </trkpt>
      <trkpt lat="49.81673" lon="2.27667">
        <ele>108.8</ele>
        <time>2023-09-13T09:01:40Z</time>
      </trkpt>
      <trkpt lat="49.81672" lon="2.27666">
        <ele>108.8</ele>
        <time>2023-09-13T09:01:41Z</time>
      </trkpt>
      <trkpt lat="49.81671" lon="2.27666">
        <ele>108.8</ele>
        <time>2023-09-13T09:01:42Z</time>
      </trkpt>
      <trkpt lat="49.81669" lon="2.27666">
        <ele>108.9</ele>
        <time>2023-09-13T09:01:43Z</time>
      </trkpt>
      <trkpt lat="49.81668" lon="2.27665">
        <ele>108.9</ele>
        <time>2023-09-13T09:01:45Z</time>
      </trkpt>
      <trkpt lat="49.81667" lon="2.27665">
        <ele>108.9</ele>
        <time>2023-09-13T09:01:46Z</time>
      </trkpt>
      <trkpt lat="49.81666" lon="2.27665">
        <ele>108.9</ele>
        <time>2023-09-13T09:01:47Z</time>
      </trkpt>
      <trkpt lat="49.81665" lon="2.27664">
        <ele>108.9</ele>
        <time>2023-09-13T09:01:48Z</time>
      </trkpt>
      <trkpt lat="49.81664" lon="2.27664">
        <ele>109</ele>
        <time>2023-09-13T09:01:49Z</time>
      </trkpt>
      <trkpt lat="49.81663" lon="2.27663">
        <ele>109</ele>
        <time>2023-09-13T09:01:50Z</time>
      </trkpt>
      <trkpt lat="49.81661" lon="2.27662">
        <ele>109</ele>
        <time>2023-09-13T09:01:52Z</time>
      </trkpt>
      <trkpt lat="49.8166" lon="2.27662">
        <ele>109.1</ele>
        <time>2023-09-13T09:01:53Z</time>
      </trkpt>
      <trkpt lat="49.81659" lon="2.27662">
        <ele>109.1</ele>
        <time>2023-09-13T09:01:54Z</time>
      </trkpt>
      <trkpt lat="49.81658" lon="2.27662">
        <ele>109.1</ele>
        <time>2023-09-13T09:01:55Z</time>
      </trkpt>
      <trkpt lat="49.81657" lon="2.27662">
        <ele>109.1</ele>
        <time>2023-09-13T09:01:56Z</time>
      </trkpt>
      <trkpt lat="49.81656" lon="2.27662">
        <ele>109.2</ele>
        <time>2023-09-13T09:01:57Z</time>
      </trkpt>
      <trkpt lat="49.81654" lon="2.27661">
        <ele>109.2</ele>
        <time>2023-09-13T09:01:58Z</time>
      </trkpt>
      <trkpt lat="49.81653" lon="2.27661">
        <ele>109.2</ele>
        <time>2023-09-13T09:01:59Z</time>
      </trkpt>
      <trkpt lat="49.81652" lon="2.2766">
        <ele>109.2</ele>
        <time>2023-09-13T09:02:00Z</time>
      </trkpt>
      <trkpt lat="49.81651" lon="2.2766">
        <ele>109.3</ele>
        <time>2023-09-13T09:02:02Z</time>
      </trkpt>
      <trkpt lat="49.8165" lon="2.2766">
        <ele>109.3</ele>
        <time>2023-09-13T09:02:03Z</time>
      </trkpt>
      <trkpt lat="49.81649" lon="2.27659">
        <ele>109.3</ele>
        <time>2023-09-13T09:02:04Z</time>
      </trkpt>
      <trkpt lat="49.81647" lon="2.27659">
        <ele>109.3</ele>
        <time>2023-09-13T09:02:05Z</time>
      </trkpt>
      <trkpt lat="49.81646" lon="2.27659">
        <ele>109.4</ele>
        <time>2023-09-13T09:02:06Z</time>
      </trkpt>
      <trkpt lat="49.81645" lon="2.27658">
        <ele>109.4</ele>
        <time>2023-09-13T09:02:07Z</time>
      </trkpt>
      <trkpt lat="49.81644" lon="2.27659">
        <ele>109.4</ele>
        <time>2023-09-13T09:02:08Z</time>
      </trkpt>
      <trkpt lat="49.81642" lon="2.27659">
        <ele>109.4</ele>
        <time>2023-09-13T09:02:09Z</time>
      </trkpt>
      <trkpt lat="49.81641" lon="2.27659">
        <ele>109.5</ele>
        <time>2023-09-13T09:02:11Z</time>
      </trkpt>
      <trkpt lat="49.8164" lon="2.27658">
        <ele>109.5</ele>
        <time>2023-09-13T09:02:12Z</time>
      </trkpt>
      <trkpt lat="49.81639" lon="2.27658">
        <ele>109.5</ele>
        <time>2023-09-13T09:02:13Z</time>
      </trkpt>
      <trkpt lat="49.81638" lon="2.27658">
        <ele>109.5</ele>
        <time>2023-09-13T09:02:14Z</time>
      </trkpt>
      <trkpt lat="49.81637" lon="2.27658">
        <ele>109.6</ele>
        <time>2023-09-13T09:02:15Z</time>
      </trkpt>
      <trkpt lat="49.81636" lon="2.27657">
        <ele>109.6</ele>
        <time>2023-09-13T09:02:16Z</time>
      </trkpt>
      <trkpt lat="49.81635" lon="2.27657">
        <ele>109.6</ele>
        <time>2023-09-13T09:02:17Z</time>
      </trkpt>
      <trkpt lat="49.81634" lon="2.27657">
        <ele>109.7</ele>
        <time>2023-09-13T09:02:19Z</time>
      </trkpt>
      <trkpt lat="49.81632" lon="2.27656">
        <ele>109.7</ele>
        <time>2023-09-13T09:02:20Z</time>
      </trkpt>
      <trkpt lat="49.8163" lon="2.27656">
        <ele>109.8</ele>
        <time>2023-09-13T09:02:21Z</time>
      </trkpt>
      <trkpt lat="49.81629" lon="2.27656">
        <ele>109.8</ele>
        <time>2023-09-13T09:02:22Z</time>
      </trkpt>
      <trkpt lat="49.81628" lon="2.27655">
        <ele>109.8</ele>
        <time>2023-09-13T09:02:23Z</time>
      </trkpt>
      <trkpt lat="49.81627" lon="2.27655">
        <ele>109.8</ele>
        <time>2023-09-13T09:02:24Z</time>
      </trkpt>
      <trkpt lat="49.81626" lon="2.27654">
        <ele>109.9</ele>
        <time>2023-09-13T09:02:25Z</time>
      </trkpt>
      <trkpt lat="49.81625" lon="2.27654">
        <ele>109.9</ele>
        <time>2023-09-13T09:02:26Z</time>
      </trkpt>
      <trkpt lat="49.81624" lon="2.27654">
        <ele>109.9</ele>
        <time>2023-09-13T09:02:28Z</time>
      </trkpt>
      <trkpt lat="49.81623" lon="2.27653">
        <ele>110</ele>
        <time>2023-09-13T09:02:29Z</time>
      </trkpt>
      <trkpt lat="49.81622" lon="2.27653">
        <ele>110</ele>
        <time>2023-09-13T09:02:30Z</time>
      </trkpt>
      <trkpt lat="49.81621" lon="2.27653">
        <ele>110</ele>
        <time>2023-09-13T09:02:31Z</time>
      </trkpt>
      <trkpt lat="49.8162" lon="2.27652">
        <ele>110.1</ele>
        <time>2023-09-13T09:02:32Z</time>
      </trkpt>
      <trkpt lat="49.81619" lon="2.27652">
        <ele>110.1</ele>
        <time>2023-09-13T09:02:33Z</time>
      </trkpt>
      <trkpt lat="49.81617" lon="2.27651">
        <ele>110.1</ele>
        <time>2023-09-13T09:02:34Z</time>
      </trkpt>
      <trkpt lat="49.81616" lon="2.27651">
        <ele>110.2</ele>
        <time>2023-09-13T09:02:36Z</time>
      </trkpt>
      <trkpt lat="49.81615" lon="2.27651">
        <ele>110.2</ele>
        <time>2023-09-13T09:02:37Z</time>
      </trkpt>
      <trkpt lat="49.81614" lon="2.27651">
        <ele>110.2</ele>
        <time>2023-09-13T09:02:38Z</time>
      </trkpt>
      <trkpt lat="49.81613" lon="2.2765">
        <ele>110.2</ele>
        <time>2023-09-13T09:02:39Z</time>
      </trkpt>
      <trkpt lat="49.81612" lon="2.2765">
        <ele>110.2</ele>
        <time>2023-09-13T09:02:40Z</time>
      </trkpt>
      <trkpt lat="49.8161" lon="2.27649">
        <ele>110.3</ele>
        <time>2023-09-13T09:02:41Z</time>
      </trkpt>
      <trkpt lat="49.81609" lon="2.27649">
        <ele>110.3</ele>
        <time>2023-09-13T09:02:42Z</time>
      </trkpt>
      <trkpt lat="49.81608" lon="2.27649">
        <ele>110.3</ele>
        <time>2023-09-13T09:02:43Z</time>
      </trkpt>
      <trkpt lat="49.81607" lon="2.27649">
        <ele>110.4</ele>
        <time>2023-09-13T09:02:45Z</time>
      </trkpt>
      <trkpt lat="49.81606" lon="2.27648">
        <ele>110.4</ele>
        <time>2023-09-13T09:02:46Z</time>
      </trkpt>
      <trkpt lat="49.81604" lon="2.27648">
        <ele>110.4</ele>
        <time>2023-09-13T09:02:47Z</time>
      </trkpt>
      <trkpt lat="49.81603" lon="2.27648">
        <ele>110.5</ele>
        <time>2023-09-13T09:02:48Z</time>
      </trkpt>
      <trkpt lat="49.81602" lon="2.27648">
        <ele>110.5</ele>
        <time>2023-09-13T09:02:49Z</time>
      </trkpt>
      <trkpt lat="49.81601" lon="2.27647">
        <ele>110.5</ele>
        <time>2023-09-13T09:02:51Z</time>
      </trkpt>
      <trkpt lat="49.816" lon="2.27647">
        <ele>110.5</ele>
        <time>2023-09-13T09:02:52Z</time>
      </trkpt>
      <trkpt lat="49.81598" lon="2.27647">
        <ele>110.6</ele>
        <time>2023-09-13T09:02:53Z</time>
      </trkpt>
      <trkpt lat="49.81597" lon="2.27647">
        <ele>110.6</ele>
        <time>2023-09-13T09:02:54Z</time>
      </trkpt>
      <trkpt lat="49.81594" lon="2.27646">
        <ele>110.6</ele>
        <time>2023-09-13T09:02:55Z</time>
      </trkpt>
      <trkpt lat="49.81593" lon="2.27645">
        <ele>110.7</ele>
        <time>2023-09-13T09:02:56Z</time>
      </trkpt>
      <trkpt lat="49.81592" lon="2.27645">
        <ele>110.7</ele>
        <time>2023-09-13T09:02:57Z</time>
      </trkpt>
      <trkpt lat="49.8159" lon="2.27644">
        <ele>110.7</ele>
        <time>2023-09-13T09:02:59Z</time>
      </trkpt>
      <trkpt lat="49.8159" lon="2.27644">
        <ele>110.7</ele>
        <time>2023-09-13T09:03:00Z</time>
      </trkpt>
      <trkpt lat="49.81589" lon="2.27643">
        <ele>110.7</ele>
        <time>2023-09-13T09:03:01Z</time>
      </trkpt>
      <trkpt lat="49.81587" lon="2.27643">
        <ele>110.8</ele>
        <time>2023-09-13T09:03:02Z</time>
      </trkpt>
      <trkpt lat="49.81586" lon="2.27642">
        <ele>110.8</ele>
        <time>2023-09-13T09:03:03Z</time>
      </trkpt>
      <trkpt lat="49.81585" lon="2.27642">
        <ele>110.8</ele>
        <time>2023-09-13T09:03:04Z</time>
      </trkpt>
      <trkpt lat="49.81584" lon="2.27642">
        <ele>110.8</ele>
        <time>2023-09-13T09:03:05Z</time>
      </trkpt>
      <trkpt lat="49.81583" lon="2.27642">
        <ele>110.8</ele>
        <time>2023-09-13T09:03:06Z</time>
      </trkpt>
      <trkpt lat="49.81582" lon="2.27642">
        <ele>110.9</ele>
        <time>2023-09-13T09:03:07Z</time>
      </trkpt>
      <trkpt lat="49.81581" lon="2.27642">
        <ele>110.9</ele>
        <time>2023-09-13T09:03:09Z</time>
      </trkpt>
      <trkpt lat="49.8158" lon="2.27641">
        <ele>110.9</ele>
        <time>2023-09-13T09:03:10Z</time>
      </trkpt>
      <trkpt lat="49.81579" lon="2.27641">
        <ele>110.9</ele>
        <time>2023-09-13T09:03:11Z</time>
      </trkpt>
      <trkpt lat="49.81578" lon="2.27641">
        <ele>110.9</ele>
        <time>2023-09-13T09:03:12Z</time>
      </trkpt>
      <trkpt lat="49.81576" lon="2.2764">
        <ele>110.9</ele>
        <time>2023-09-13T09:03:13Z</time>
      </trkpt>
      <trkpt lat="49.81575" lon="2.2764">
        <ele>111</ele>
        <time>2023-09-13T09:03:14Z</time>
      </trkpt>
      <trkpt lat="49.81574" lon="2.2764">
        <ele>111</ele>
        <time>2023-09-13T09:03:16Z</time>
      </trkpt>
      <trkpt lat="49.81573" lon="2.2764">
        <ele>111</ele>
        <time>2023-09-13T09:03:17Z</time>
      </trkpt>
      <trkpt lat="49.81572" lon="2.27639">
        <ele>111</ele>
        <time>2023-09-13T09:03:18Z</time>
      </trkpt>
      <trkpt lat="49.8157" lon="2.27639">
        <ele>111</ele>
        <time>2023-09-13T09:03:19Z</time>
      </trkpt>
      <trkpt lat="49.81569" lon="2.27639">
        <ele>111.1</ele>
        <time>2023-09-13T09:03:20Z</time>
      </trkpt>
      <trkpt lat="49.81569" lon="2.27638">
        <ele>111.1</ele>
        <time>2023-09-13T09:03:21Z</time>
      </trkpt>
      <trkpt lat="49.81567" lon="2.27638">
        <ele>111.1</ele>
        <time>2023-09-13T09:03:22Z</time>
      </trkpt>
      <trkpt lat="49.81566" lon="2.27638">
        <ele>111.1</ele>
        <time>2023-09-13T09:03:23Z</time>
      </trkpt>
      <trkpt lat="49.81565" lon="2.27638">
        <ele>111.1</ele>
        <time>2023-09-13T09:03:25Z</time>
      </trkpt>
      <trkpt lat="49.81563" lon="2.27637">
        <ele>111.2</ele>
        <time>2023-09-13T09:03:26Z</time>
      </trkpt>
      <trkpt lat="49.81562" lon="2.27637">
        <ele>111.2</ele>
        <time>2023-09-13T09:03:27Z</time>
      </trkpt>
      <trkpt lat="49.81561" lon="2.27636">
        <ele>111.2</ele>
        <time>2023-09-13T09:03:28Z</time>
      </trkpt>
      <trkpt lat="49.8156" lon="2.27636">
        <ele>111.2</ele>
        <time>2023-09-13T09:03:29Z</time>
      </trkpt>
      <trkpt lat="49.81559" lon="2.27636">
        <ele>111.2</ele>
        <time>2023-09-13T09:03:30Z</time>
      </trkpt>
      <trkpt lat="49.81557" lon="2.27635">
        <ele>111.3</ele>
        <time>2023-09-13T09:03:31Z</time>
      </trkpt>
      <trkpt lat="49.81556" lon="2.27635">
        <ele>111.3</ele>
        <time>2023-09-13T09:03:32Z</time>
      </trkpt>
      <trkpt lat="49.81555" lon="2.27635">
        <ele>111.3</ele>
        <time>2023-09-13T09:03:33Z</time>
      </trkpt>
      <trkpt lat="49.81554" lon="2.27634">
        <ele>111.3</ele>
        <time>2023-09-13T09:03:35Z</time>
      </trkpt>
      <trkpt lat="49.81553" lon="2.27634">
        <ele>111.4</ele>
        <time>2023-09-13T09:03:36Z</time>
      </trkpt>
      <trkpt lat="49.81552" lon="2.27634">
        <ele>111.4</ele>
        <time>2023-09-13T09:03:37Z</time>
      </trkpt>
      <trkpt lat="49.8155" lon="2.27633">
        <ele>111.4</ele>
        <time>2023-09-13T09:03:38Z</time>
      </trkpt>
      <trkpt lat="49.81549" lon="2.27633">
        <ele>111.5</ele>
        <time>2023-09-13T09:03:39Z</time>
      </trkpt>
      <trkpt lat="49.81548" lon="2.27632">
        <ele>111.5</ele>
        <time>2023-09-13T09:03:40Z</time>
      </trkpt>
      <trkpt lat="49.81546" lon="2.27632">
        <ele>111.5</ele>
        <time>2023-09-13T09:03:41Z</time>
      </trkpt>
      <trkpt lat="49.81545" lon="2.27631">
        <ele>111.5</ele>
        <time>2023-09-13T09:03:42Z</time>
      </trkpt>
      <trkpt lat="49.81544" lon="2.27631">
        <ele>111.6</ele>
        <time>2023-09-13T09:03:43Z</time>
      </trkpt>
      <trkpt lat="49.81542" lon="2.2763">
        <ele>111.6</ele>
        <time>2023-09-13T09:03:44Z</time>
      </trkpt>
      <trkpt lat="49.81541" lon="2.2763">
        <ele>111.6</ele>
        <time>2023-09-13T09:03:45Z</time>
      </trkpt>
      <trkpt lat="49.8154" lon="2.27629">
        <ele>111.6</ele>
        <time>2023-09-13T09:03:47Z</time>
      </trkpt>
      <trkpt lat="49.81539" lon="2.27629">
        <ele>111.7</ele>
        <time>2023-09-13T09:03:48Z</time>
      </trkpt>
      <trkpt lat="49.81538" lon="2.27629">
        <ele>111.7</ele>
        <time>2023-09-13T09:03:49Z</time>
      </trkpt>
      <trkpt lat="49.81537" lon="2.27628">
        <ele>111.7</ele>
        <time>2023-09-13T09:03:50Z</time>
      </trkpt>
      <trkpt lat="49.81535" lon="2.27628">
        <ele>111.7</ele>
        <time>2023-09-13T09:03:51Z</time>
      </trkpt>
      <trkpt lat="49.81534" lon="2.27628">
        <ele>111.8</ele>
        <time>2023-09-13T09:03:52Z</time>
      </trkpt>
      <trkpt lat="49.81533" lon="2.27627">
        <ele>111.8</ele>
        <time>2023-09-13T09:03:53Z</time>
      </trkpt>
      <trkpt lat="49.81531" lon="2.27627">
        <ele>111.8</ele>
        <time>2023-09-13T09:03:54Z</time>
      </trkpt>
      <trkpt lat="49.81529" lon="2.27626">
        <ele>111.9</ele>
        <time>2023-09-13T09:03:56Z</time>
      </trkpt>
      <trkpt lat="49.81528" lon="2.27626">
        <ele>111.9</ele>
        <time>2023-09-13T09:03:57Z</time>
      </trkpt>
      <trkpt lat="49.81527" lon="2.27626">
        <ele>111.9</ele>
        <time>2023-09-13T09:03:58Z</time>
      </trkpt>
      <trkpt lat="49.81525" lon="2.27625">
        <ele>111.9</ele>
        <time>2023-09-13T09:03:59Z</time>
      </trkpt>
      <trkpt lat="49.81524" lon="2.27625">
        <ele>112</ele>
        <time>2023-09-13T09:04:00Z</time>
      </trkpt>
      <trkpt lat="49.81523" lon="2.27625">
        <ele>112</ele>
        <time>2023-09-13T09:04:01Z</time>
      </trkpt>
      <trkpt lat="49.81522" lon="2.27625">
        <ele>112</ele>
        <time>2023-09-13T09:04:02Z</time>
      </trkpt>
      <trkpt lat="49.81521" lon="2.27624">
        <ele>112</ele>
        <time>2023-09-13T09:04:03Z</time>
      </trkpt>
      <trkpt lat="49.8152" lon="2.27624">
        <ele>112</ele>
        <time>2023-09-13T09:04:05Z</time>
      </trkpt>
      <trkpt lat="49.81518" lon="2.27624">
        <ele>112.1</ele>
        <time>2023-09-13T09:04:06Z</time>
      </trkpt>
      <trkpt lat="49.81517" lon="2.27624">
        <ele>112.1</ele>
        <time>2023-09-13T09:04:07Z</time>
      </trkpt>
      <trkpt lat="49.81516" lon="2.27623">
        <ele>112.1</ele>
        <time>2023-09-13T09:04:08Z</time>
      </trkpt>
      <trkpt lat="49.81515" lon="2.27623">
        <ele>112.1</ele>
        <time>2023-09-13T09:04:09Z</time>
      </trkpt>
      <trkpt lat="49.81513" lon="2.27623">
        <ele>112.1</ele>
        <time>2023-09-13T09:04:10Z</time>
      </trkpt>
      <trkpt lat="49.81512" lon="2.27622">
        <ele>112.2</ele>
        <time>2023-09-13T09:04:12Z</time>
      </trkpt>
      <trkpt lat="49.8151" lon="2.27622">
        <ele>112.2</ele>
        <time>2023-09-13T09:04:13Z</time>
      </trkpt>
      <trkpt lat="49.81509" lon="2.27622">
        <ele>112.2</ele>
        <time>2023-09-13T09:04:14Z</time>
      </trkpt>
      <trkpt lat="49.81508" lon="2.27622">
        <ele>112.2</ele>
        <time>2023-09-13T09:04:15Z</time>
      </trkpt>
      <trkpt lat="49.81507" lon="2.27621">
        <ele>112.2</ele>
        <time>2023-09-13T09:04:16Z</time>
      </trkpt>
      <trkpt lat="49.81505" lon="2.27621">
        <ele>112.3</ele>
        <time>2023-09-13T09:04:17Z</time>
      </trkpt>
      <trkpt lat="49.81504" lon="2.2762">
        <ele>112.3</ele>
        <time>2023-09-13T09:04:18Z</time>
      </trkpt>
      <trkpt lat="49.81503" lon="2.2762">
        <ele>112.3</ele>
        <time>2023-09-13T09:04:19Z</time>
      </trkpt>
      <trkpt lat="49.81502" lon="2.2762">
        <ele>112.3</ele>
        <time>2023-09-13T09:04:20Z</time>
      </trkpt>
      <trkpt lat="49.81501" lon="2.27619">
        <ele>112.3</ele>
        <time>2023-09-13T09:04:22Z</time>
      </trkpt>
      <trkpt lat="49.815" lon="2.27619">
        <ele>112.4</ele>
        <time>2023-09-13T09:04:23Z</time>
      </trkpt>
      <trkpt lat="49.81499" lon="2.27619">
        <ele>112.4</ele>
        <time>2023-09-13T09:04:24Z</time>
      </trkpt>
      <trkpt lat="49.81498" lon="2.27618">
        <ele>112.4</ele>
        <time>2023-09-13T09:04:25Z</time>
      </trkpt>
      <trkpt lat="49.81497" lon="2.27618">
        <ele>112.4</ele>
        <time>2023-09-13T09:04:26Z</time>
      </trkpt>
      <trkpt lat="49.81495" lon="2.27617">
        <ele>112.4</ele>
        <time>2023-09-13T09:04:27Z</time>
      </trkpt>
      <trkpt lat="49.81494" lon="2.27617">
        <ele>112.5</ele>
        <time>2023-09-13T09:04:28Z</time>
      </trkpt>
      <trkpt lat="49.81493" lon="2.27617">
        <ele>112.5</ele>
        <time>2023-09-13T09:04:29Z</time>
      </trkpt>
      <trkpt lat="49.81492" lon="2.27617">
        <ele>112.5</ele>
        <time>2023-09-13T09:04:31Z</time>
      </trkpt>
      <trkpt lat="49.81491" lon="2.27616">
        <ele>112.5</ele>
        <time>2023-09-13T09:04:32Z</time>
      </trkpt>
      <trkpt lat="49.8149" lon="2.27616">
        <ele>112.5</ele>
        <time>2023-09-13T09:04:33Z</time>
      </trkpt>
      <trkpt lat="49.81488" lon="2.27615">
        <ele>112.6</ele>
        <time>2023-09-13T09:04:34Z</time>
      </trkpt>
      <trkpt lat="49.81487" lon="2.27615">
        <ele>112.6</ele>
        <time>2023-09-13T09:04:35Z</time>
      </trkpt>
      <trkpt lat="49.81486" lon="2.27614">
        <ele>112.6</ele>
        <time>2023-09-13T09:04:36Z</time>
      </trkpt>
      <trkpt lat="49.81485" lon="2.27614">
        <ele>112.6</ele>
        <time>2023-09-13T09:04:37Z</time>
      </trkpt>
      <trkpt lat="49.81483" lon="2.27613">
        <ele>112.6</ele>
        <time>2023-09-13T09:04:38Z</time>
      </trkpt>
      <trkpt lat="49.81482" lon="2.27613">
        <ele>112.6</ele>
        <time>2023-09-13T09:04:39Z</time>
      </trkpt>
      <trkpt lat="49.81481" lon="2.27612">
        <ele>112.7</ele>
        <time>2023-09-13T09:04:41Z</time>
      </trkpt>
      <trkpt lat="49.8148" lon="2.27612">
        <ele>112.7</ele>
        <time>2023-09-13T09:04:42Z</time>
      </trkpt>
      <trkpt lat="49.81479" lon="2.27611">
        <ele>112.7</ele>
        <time>2023-09-13T09:04:43Z</time>
      </trkpt>
      <trkpt lat="49.81478" lon="2.2761">
        <ele>112.7</ele>
        <time>2023-09-13T09:04:44Z</time>
      </trkpt>
      <trkpt lat="49.81477" lon="2.2761">
        <ele>112.7</ele>
        <time>2023-09-13T09:04:45Z</time>
      </trkpt>
      <trkpt lat="49.81476" lon="2.27609">
        <ele>112.8</ele>
        <time>2023-09-13T09:04:46Z</time>
      </trkpt>
      <trkpt lat="49.81474" lon="2.27609">
        <ele>112.8</ele>
        <time>2023-09-13T09:04:48Z</time>
      </trkpt>
      <trkpt lat="49.81473" lon="2.27608">
        <ele>112.8</ele>
        <time>2023-09-13T09:04:49Z</time>
      </trkpt>
      <trkpt lat="49.81472" lon="2.27608">
        <ele>112.8</ele>
        <time>2023-09-13T09:04:50Z</time>
      </trkpt>
      <trkpt lat="49.81471" lon="2.27607">
        <ele>112.8</ele>
        <time>2023-09-13T09:04:51Z</time>
      </trkpt>
      <trkpt lat="49.8147" lon="2.27607">
        <ele>112.9</ele>
        <time>2023-09-13T09:04:52Z</time>
      </trkpt>
      <trkpt lat="49.81468" lon="2.27606">
        <ele>112.9</ele>
        <time>2023-09-13T09:04:53Z</time>
      </trkpt>
      <trkpt lat="49.81466" lon="2.27605">
        <ele>112.9</ele>
        <time>2023-09-13T09:04:54Z</time>
      </trkpt>
      <trkpt lat="49.81465" lon="2.27605">
        <ele>112.9</ele>
        <time>2023-09-13T09:04:56Z</time>
      </trkpt>
      <trkpt lat="49.81464" lon="2.27605">
        <ele>113</ele>
        <time>2023-09-13T09:04:57Z</time>
      </trkpt>
      <trkpt lat="49.81463" lon="2.27604">
        <ele>113</ele>
        <time>2023-09-13T09:04:58Z</time>
      </trkpt>
      <trkpt lat="49.81462" lon="2.27604">
        <ele>113</ele>
        <time>2023-09-13T09:04:59Z</time>
      </trkpt>
      <trkpt lat="49.8146" lon="2.27603">
        <ele>113.1</ele>
        <time>2023-09-13T09:05:00Z</time>
      </trkpt>
      <trkpt lat="49.81459" lon="2.27603">
        <ele>113.1</ele>
        <time>2023-09-13T09:05:01Z</time>
      </trkpt>
      <trkpt lat="49.81458" lon="2.27603">
        <ele>113.1</ele>
        <time>2023-09-13T09:05:02Z</time>
      </trkpt>
      <trkpt lat="49.81457" lon="2.27602">
        <ele>113.1</ele>
        <time>2023-09-13T09:05:03Z</time>
      </trkpt>
      <trkpt lat="49.81456" lon="2.27601">
        <ele>113.2</ele>
        <time>2023-09-13T09:05:04Z</time>
      </trkpt>
      <trkpt lat="49.81455" lon="2.27601">
        <ele>113.2</ele>
        <time>2023-09-13T09:05:06Z</time>
      </trkpt>
      <trkpt lat="49.81452" lon="2.276">
        <ele>113.2</ele>
        <time>2023-09-13T09:05:07Z</time>
      </trkpt>
      <trkpt lat="49.81452" lon="2.276">
        <ele>113.3</ele>
        <time>2023-09-13T09:05:08Z</time>
      </trkpt>
      <trkpt lat="49.81451" lon="2.27599">
        <ele>113.3</ele>
        <time>2023-09-13T09:05:09Z</time>
      </trkpt>
      <trkpt lat="49.8145" lon="2.27599">
        <ele>113.3</ele>
        <time>2023-09-13T09:05:10Z</time>
      </trkpt>
      <trkpt lat="49.81449" lon="2.27599">
        <ele>113.3</ele>
        <time>2023-09-13T09:05:11Z</time>
      </trkpt>
      <trkpt lat="49.81448" lon="2.27598">
        <ele>113.4</ele>
        <time>2023-09-13T09:05:12Z</time>
      </trkpt>
      <trkpt lat="49.81447" lon="2.27598">
        <ele>113.4</ele>
        <time>2023-09-13T09:05:13Z</time>
      </trkpt>
      <trkpt lat="49.81446" lon="2.27597">
        <ele>113.4</ele>
        <time>2023-09-13T09:05:14Z</time>
      </trkpt>
      <trkpt lat="49.81445" lon="2.27597">
        <ele>113.5</ele>
        <time>2023-09-13T09:05:16Z</time>
      </trkpt>
      <trkpt lat="49.81444" lon="2.27597">
        <ele>113.5</ele>
        <time>2023-09-13T09:05:17Z</time>
      </trkpt>
      <trkpt lat="49.81443" lon="2.27597">
        <ele>113.5</ele>
        <time>2023-09-13T09:05:18Z</time>
      </trkpt>
      <trkpt lat="49.81441" lon="2.27596">
        <ele>113.6</ele>
        <time>2023-09-13T09:05:19Z</time>
      </trkpt>
      <trkpt lat="49.8144" lon="2.27596">
        <ele>113.6</ele>
        <time>2023-09-13T09:05:20Z</time>
      </trkpt>
      <trkpt lat="49.81439" lon="2.27596">
        <ele>113.6</ele>
        <time>2023-09-13T09:05:21Z</time>
      </trkpt>
      <trkpt lat="49.81436" lon="2.27595">
        <ele>113.7</ele>
        <time>2023-09-13T09:05:22Z</time>
      </trkpt>
      <trkpt lat="49.81436" lon="2.27595">
        <ele>113.7</ele>
        <time>2023-09-13T09:05:23Z</time>
      </trkpt>
      <trkpt lat="49.81435" lon="2.27595">
        <ele>113.7</ele>
        <time>2023-09-13T09:05:24Z</time>
      </trkpt>
      <trkpt lat="49.81433" lon="2.27594">
        <ele>113.8</ele>
        <time>2023-09-13T09:05:25Z</time>
      </trkpt>
      <trkpt lat="49.81432" lon="2.27594">
        <ele>113.8</ele>
        <time>2023-09-13T09:05:27Z</time>
      </trkpt>
      <trkpt lat="49.81431" lon="2.27593">
        <ele>113.9</ele>
        <time>2023-09-13T09:05:28Z</time>
      </trkpt>
      <trkpt lat="49.81429" lon="2.27592">
        <ele>113.9</ele>
        <time>2023-09-13T09:05:29Z</time>
      </trkpt>
      <trkpt lat="49.81428" lon="2.27592">
        <ele>113.9</ele>
        <time>2023-09-13T09:05:30Z</time>
      </trkpt>
      <trkpt lat="49.81427" lon="2.27591">
        <ele>113.9</ele>
        <time>2023-09-13T09:05:31Z</time>
      </trkpt>
      <trkpt lat="49.81426" lon="2.2759">
        <ele>114</ele>
        <time>2023-09-13T09:05:32Z</time>
      </trkpt>
      <trkpt lat="49.81425" lon="2.27589">
        <ele>114</ele>
        <time>2023-09-13T09:05:33Z</time>
      </trkpt>
      <trkpt lat="49.81424" lon="2.27588">
        <ele>114</ele>
        <time>2023-09-13T09:05:34Z</time>
      </trkpt>
      <trkpt lat="49.81424" lon="2.27588">
        <ele>114</ele>
        <time>2023-09-13T09:05:36Z</time>
      </trkpt>
      <trkpt lat="49.81423" lon="2.27587">
        <ele>114</ele>
        <time>2023-09-13T09:05:37Z</time>
      </trkpt>
      <trkpt lat="49.81422" lon="2.27587">
        <ele>114</ele>
        <time>2023-09-13T09:05:38Z</time>
      </trkpt>
      <trkpt lat="49.81421" lon="2.27586">
        <ele>114.1</ele>
        <time>2023-09-13T09:05:39Z</time>
      </trkpt>
      <trkpt lat="49.8142" lon="2.27586">
        <ele>114.1</ele>
        <time>2023-09-13T09:05:40Z</time>
      </trkpt>
      <trkpt lat="49.81418" lon="2.27585">
        <ele>114.1</ele>
        <time>2023-09-13T09:05:41Z</time>
      </trkpt>
      <trkpt lat="49.81418" lon="2.27585">
        <ele>114.1</ele>
        <time>2023-09-13T09:05:43Z</time>
      </trkpt>
      <trkpt lat="49.81417" lon="2.27584">
        <ele>114.1</ele>
        <time>2023-09-13T09:05:44Z</time>
      </trkpt>
      <trkpt lat="49.81416" lon="2.27583">
        <ele>114.1</ele>
        <time>2023-09-13T09:05:45Z</time>
      </trkpt>
      <trkpt lat="49.81414" lon="2.27582">
        <ele>114.2</ele>
        <time>2023-09-13T09:05:46Z</time>
      </trkpt>
      <trkpt lat="49.81413" lon="2.27581">
        <ele>114.2</ele>
        <time>2023-09-13T09:05:47Z</time>
      </trkpt>
      <trkpt lat="49.81412" lon="2.2758">
        <ele>114.2</ele>
        <time>2023-09-13T09:05:48Z</time>
      </trkpt>
      <trkpt lat="49.81411" lon="2.27579">
        <ele>114.2</ele>
        <time>2023-09-13T09:05:49Z</time>
      </trkpt>
      <trkpt lat="49.81409" lon="2.27578">
        <ele>114.2</ele>
        <time>2023-09-13T09:05:51Z</time>
      </trkpt>
      <trkpt lat="49.81408" lon="2.27578">
        <ele>114.3</ele>
        <time>2023-09-13T09:05:52Z</time>
      </trkpt>
      <trkpt lat="49.81408" lon="2.27578">
        <ele>114.3</ele>
        <time>2023-09-13T09:05:53Z</time>
      </trkpt>
      <trkpt lat="49.81406" lon="2.27577">
        <ele>114.3</ele>
        <time>2023-09-13T09:05:54Z</time>
      </trkpt>
      <trkpt lat="49.81405" lon="2.27577">
        <ele>114.3</ele>
        <time>2023-09-13T09:05:55Z</time>
      </trkpt>
      <trkpt lat="49.81404" lon="2.27576">
        <ele>114.3</ele>
        <time>2023-09-13T09:05:56Z</time>
      </trkpt>
      <trkpt lat="49.81403" lon="2.27576">
        <ele>114.3</ele>
        <time>2023-09-13T09:05:57Z</time>
      </trkpt>
      <trkpt lat="49.81402" lon="2.27575">
        <ele>114.4</ele>
        <time>2023-09-13T09:05:58Z</time>
      </trkpt>
      <trkpt lat="49.81401" lon="2.27575">
        <ele>114.4</ele>
        <time>2023-09-13T09:06:00Z</time>
      </trkpt>
      <trkpt lat="49.81399" lon="2.27574">
        <ele>114.4</ele>
        <time>2023-09-13T09:06:01Z</time>
      </trkpt>
      <trkpt lat="49.81398" lon="2.27574">
        <ele>114.4</ele>
        <time>2023-09-13T09:06:02Z</time>
      </trkpt>
      <trkpt lat="49.81396" lon="2.27573">
        <ele>114.5</ele>
        <time>2023-09-13T09:06:03Z</time>
      </trkpt>
      <trkpt lat="49.81395" lon="2.27572">
        <ele>114.5</ele>
        <time>2023-09-13T09:06:04Z</time>
      </trkpt>
      <trkpt lat="49.81394" lon="2.27572">
        <ele>114.5</ele>
        <time>2023-09-13T09:06:05Z</time>
      </trkpt>
      <trkpt lat="49.81392" lon="2.2757">
        <ele>114.5</ele>
        <time>2023-09-13T09:06:07Z</time>
      </trkpt>
      <trkpt lat="49.81391" lon="2.2757">
        <ele>114.5</ele>
        <time>2023-09-13T09:06:08Z</time>
      </trkpt>
      <trkpt lat="49.81391" lon="2.2757">
        <ele>114.5</ele>
        <time>2023-09-13T09:06:09Z</time>
      </trkpt>
      <trkpt lat="49.81389" lon="2.27568">
        <ele>114.6</ele>
        <time>2023-09-13T09:06:10Z</time>
      </trkpt>
      <trkpt lat="49.81388" lon="2.27568">
        <ele>114.6</ele>
        <time>2023-09-13T09:06:11Z</time>
      </trkpt>
      <trkpt lat="49.81387" lon="2.27567">
        <ele>114.6</ele>
        <time>2023-09-13T09:06:12Z</time>
      </trkpt>
      <trkpt lat="49.81386" lon="2.27567">
        <ele>114.6</ele>
        <time>2023-09-13T09:06:13Z</time>
      </trkpt>
      <trkpt lat="49.81385" lon="2.27566">
        <ele>114.6</ele>
        <time>2023-09-13T09:06:15Z</time>
      </trkpt>
      <trkpt lat="49.81384" lon="2.27565">
        <ele>114.6</ele>
        <time>2023-09-13T09:06:16Z</time>
      </trkpt>
      <trkpt lat="49.81382" lon="2.27564">
        <ele>114.7</ele>
        <time>2023-09-13T09:06:17Z</time>
      </trkpt>
      <trkpt lat="49.81382" lon="2.27563">
        <ele>114.7</ele>
        <time>2023-09-13T09:06:18Z</time>
      </trkpt>
      <trkpt lat="49.81381" lon="2.27563">
        <ele>114.7</ele>
        <time>2023-09-13T09:06:19Z</time>
      </trkpt>
      <trkpt lat="49.81379" lon="2.27561">
        <ele>114.7</ele>
        <time>2023-09-13T09:06:20Z</time>
      </trkpt>
      <trkpt lat="49.81378" lon="2.2756">
        <ele>114.8</ele>
        <time>2023-09-13T09:06:21Z</time>
      </trkpt>
      <trkpt lat="49.81377" lon="2.27559">
        <ele>114.8</ele>
        <time>2023-09-13T09:06:23Z</time>
      </trkpt>
      <trkpt lat="49.81376" lon="2.27559">
        <ele>114.8</ele>
        <time>2023-09-13T09:06:24Z</time>
      </trkpt>
      <trkpt lat="49.81375" lon="2.27558">
        <ele>114.8</ele>
        <time>2023-09-13T09:06:25Z</time>
      </trkpt>
      <trkpt lat="49.81374" lon="2.27557">
        <ele>114.8</ele>
        <time>2023-09-13T09:06:26Z</time>
      </trkpt>
      <trkpt lat="49.81373" lon="2.27555">
        <ele>114.9</ele>
        <time>2023-09-13T09:06:27Z</time>
      </trkpt>
      <trkpt lat="49.81372" lon="2.27555">
        <ele>114.9</ele>
        <time>2023-09-13T09:06:28Z</time>
      </trkpt>
      <trkpt lat="49.81371" lon="2.27554">
        <ele>114.9</ele>
        <time>2023-09-13T09:06:29Z</time>
      </trkpt>
      <trkpt lat="49.8137" lon="2.27553">
        <ele>114.9</ele>
        <time>2023-09-13T09:06:30Z</time>
      </trkpt>
      <trkpt lat="49.81369" lon="2.27553">
        <ele>115</ele>
        <time>2023-09-13T09:06:32Z</time>
      </trkpt>
      <trkpt lat="49.81368" lon="2.27552">
        <ele>115</ele>
        <time>2023-09-13T09:06:33Z</time>
      </trkpt>
      <trkpt lat="49.81366" lon="2.2755">
        <ele>115</ele>
        <time>2023-09-13T09:06:34Z</time>
      </trkpt>
      <trkpt lat="49.81366" lon="2.27549">
        <ele>115.1</ele>
        <time>2023-09-13T09:06:35Z</time>
      </trkpt>
      <trkpt lat="49.81365" lon="2.27549">
        <ele>115.1</ele>
        <time>2023-09-13T09:06:36Z</time>
      </trkpt>
      <trkpt lat="49.81364" lon="2.27548">
        <ele>115.1</ele>
        <time>2023-09-13T09:06:37Z</time>
      </trkpt>
      <trkpt lat="49.81363" lon="2.27547">
        <ele>115.1</ele>
        <time>2023-09-13T09:06:39Z</time>
      </trkpt>
      <trkpt lat="49.81362" lon="2.27546">
        <ele>115.1</ele>
        <time>2023-09-13T09:06:40Z</time>
      </trkpt>
      <trkpt lat="49.81361" lon="2.27545">
        <ele>115.2</ele>
        <time>2023-09-13T09:06:41Z</time>
      </trkpt>
      <trkpt lat="49.8136" lon="2.27544">
        <ele>115.2</ele>
        <time>2023-09-13T09:06:42Z</time>
      </trkpt>
      <trkpt lat="49.81359" lon="2.27543">
        <ele>115.2</ele>
        <time>2023-09-13T09:06:43Z</time>
      </trkpt>
      <trkpt lat="49.81358" lon="2.27542">
        <ele>115.2</ele>
        <time>2023-09-13T09:06:44Z</time>
      </trkpt>
      <trkpt lat="49.81357" lon="2.27541">
        <ele>115.3</ele>
        <time>2023-09-13T09:06:45Z</time>
      </trkpt>
      <trkpt lat="49.81356" lon="2.2754">
        <ele>115.3</ele>
        <time>2023-09-13T09:06:46Z</time>
      </trkpt>
      <trkpt lat="49.81354" lon="2.27539">
        <ele>115.3</ele>
        <time>2023-09-13T09:06:48Z</time>
      </trkpt>
      <trkpt lat="49.81353" lon="2.27538">
        <ele>115.3</ele>
        <time>2023-09-13T09:06:49Z</time>
      </trkpt>
      <trkpt lat="49.81353" lon="2.27537">
        <ele>115.4</ele>
        <time>2023-09-13T09:06:50Z</time>
      </trkpt>
      <trkpt lat="49.81351" lon="2.27536">
        <ele>115.4</ele>
        <time>2023-09-13T09:06:51Z</time>
      </trkpt>
      <trkpt lat="49.8135" lon="2.27535">
        <ele>115.4</ele>
        <time>2023-09-13T09:06:52Z</time>
      </trkpt>
      <trkpt lat="49.81349" lon="2.27534">
        <ele>115.5</ele>
        <time>2023-09-13T09:06:53Z</time>
      </trkpt>
      <trkpt lat="49.81348" lon="2.27533">
        <ele>115.5</ele>
        <time>2023-09-13T09:06:55Z</time>
      </trkpt>
      <trkpt lat="49.81347" lon="2.27532">
        <ele>115.5</ele>
        <time>2023-09-13T09:06:56Z</time>
      </trkpt>
      <trkpt lat="49.81346" lon="2.27531">
        <ele>115.5</ele>
        <time>2023-09-13T09:06:57Z</time>
      </trkpt>
      <trkpt lat="49.81345" lon="2.2753">
        <ele>115.6</ele>
        <time>2023-09-13T09:06:58Z</time>
      </trkpt>
      <trkpt lat="49.81343" lon="2.27529">
        <ele>115.6</ele>
        <time>2023-09-13T09:06:59Z</time>
      </trkpt>
      <trkpt lat="49.81342" lon="2.27528">
        <ele>115.6</ele>
        <time>2023-09-13T09:07:01Z</time>
      </trkpt>
      <trkpt lat="49.81341" lon="2.27527">
        <ele>115.6</ele>
        <time>2023-09-13T09:07:02Z</time>
      </trkpt>
      <trkpt lat="49.8134" lon="2.27526">
        <ele>115.7</ele>
        <time>2023-09-13T09:07:03Z</time>
      </trkpt>
      <trkpt lat="49.81338" lon="2.27525">
        <ele>115.7</ele>
        <time>2023-09-13T09:07:04Z</time>
      </trkpt>
      <trkpt lat="49.81337" lon="2.27525">
        <ele>115.7</ele>
        <time>2023-09-13T09:07:05Z</time>
      </trkpt>
      <trkpt lat="49.81336" lon="2.27524">
        <ele>115.7</ele>
        <time>2023-09-13T09:07:06Z</time>
      </trkpt>
      <trkpt lat="49.81335" lon="2.27524">
        <ele>115.7</ele>
        <time>2023-09-13T09:07:07Z</time>
      </trkpt>
      <trkpt lat="49.81334" lon="2.27523">
        <ele>115.8</ele>
        <time>2023-09-13T09:07:08Z</time>
      </trkpt>
      <trkpt lat="49.81333" lon="2.27523">
        <ele>115.8</ele>
        <time>2023-09-13T09:07:09Z</time>
      </trkpt>
      <trkpt lat="49.81331" lon="2.27522">
        <ele>115.8</ele>
        <time>2023-09-13T09:07:10Z</time>
      </trkpt>
      <trkpt lat="49.8133" lon="2.27522">
        <ele>115.8</ele>
        <time>2023-09-13T09:07:12Z</time>
      </trkpt>
      <trkpt lat="49.81329" lon="2.27522">
        <ele>115.8</ele>
        <time>2023-09-13T09:07:13Z</time>
      </trkpt>
      <trkpt lat="49.81328" lon="2.27521">
        <ele>115.9</ele>
        <time>2023-09-13T09:07:14Z</time>
      </trkpt>
      <trkpt lat="49.81327" lon="2.27521">
        <ele>115.9</ele>
        <time>2023-09-13T09:07:15Z</time>
      </trkpt>
      <trkpt lat="49.81326" lon="2.2752">
        <ele>115.9</ele>
        <time>2023-09-13T09:07:16Z</time>
      </trkpt>
      <trkpt lat="49.81324" lon="2.27518">
        <ele>115.9</ele>
        <time>2023-09-13T09:07:17Z</time>
      </trkpt>
      <trkpt lat="49.81323" lon="2.27518">
        <ele>115.9</ele>
        <time>2023-09-13T09:07:18Z</time>
      </trkpt>
      <trkpt lat="49.81322" lon="2.27517">
        <ele>116</ele>
        <time>2023-09-13T09:07:19Z</time>
      </trkpt>
      <trkpt lat="49.8132" lon="2.27516">
        <ele>116</ele>
        <time>2023-09-13T09:07:21Z</time>
      </trkpt>
      <trkpt lat="49.8132" lon="2.27516">
        <ele>116</ele>
        <time>2023-09-13T09:07:22Z</time>
      </trkpt>
      <trkpt lat="49.81319" lon="2.27515">
        <ele>116</ele>
        <time>2023-09-13T09:07:23Z</time>
      </trkpt>
      <trkpt lat="49.81318" lon="2.27514">
        <ele>116</ele>
        <time>2023-09-13T09:07:24Z</time>
      </trkpt>
      <trkpt lat="49.81317" lon="2.27514">
        <ele>116.1</ele>
        <time>2023-09-13T09:07:25Z</time>
      </trkpt>
      <trkpt lat="49.81315" lon="2.27513">
        <ele>116.1</ele>
        <time>2023-09-13T09:07:26Z</time>
      </trkpt>
      <trkpt lat="49.81314" lon="2.27512">
        <ele>116.1</ele>
        <time>2023-09-13T09:07:27Z</time>
      </trkpt>
      <trkpt lat="49.81313" lon="2.27511">
        <ele>116.1</ele>
        <time>2023-09-13T09:07:28Z</time>
      </trkpt>
      <trkpt lat="49.81312" lon="2.2751">
        <ele>116.1</ele>
        <time>2023-09-13T09:07:30Z</time>
      </trkpt>
      <trkpt lat="49.8131" lon="2.27509">
        <ele>116.2</ele>
        <time>2023-09-13T09:07:31Z</time>
      </trkpt>
      <trkpt lat="49.81309" lon="2.27509">
        <ele>116.2</ele>
        <time>2023-09-13T09:07:32Z</time>
      </trkpt>
      <trkpt lat="49.81308" lon="2.27508">
        <ele>116.2</ele>
        <time>2023-09-13T09:07:33Z</time>
      </trkpt>
      <trkpt lat="49.81306" lon="2.27508">
        <ele>116.2</ele>
        <time>2023-09-13T09:07:34Z</time>
      </trkpt>
      <trkpt lat="49.81305" lon="2.27507">
        <ele>116.2</ele>
        <time>2023-09-13T09:07:35Z</time>
      </trkpt>
      <trkpt lat="49.81304" lon="2.27507">
        <ele>116.3</ele>
        <time>2023-09-13T09:07:36Z</time>
      </trkpt>
      <trkpt lat="49.81303" lon="2.27506">
        <ele>116.3</ele>
        <time>2023-09-13T09:07:37Z</time>
      </trkpt>
      <trkpt lat="49.81302" lon="2.27506">
        <ele>116.3</ele>
        <time>2023-09-13T09:07:38Z</time>
      </trkpt>
      <trkpt lat="49.81301" lon="2.27505">
        <ele>116.3</ele>
        <time>2023-09-13T09:07:40Z</time>
      </trkpt>
      <trkpt lat="49.81299" lon="2.27504">
        <ele>116.3</ele>
        <time>2023-09-13T09:07:41Z</time>
      </trkpt>
      <trkpt lat="49.81298" lon="2.27503">
        <ele>116.4</ele>
        <time>2023-09-13T09:07:42Z</time>
      </trkpt>
      <trkpt lat="49.81297" lon="2.27503">
        <ele>116.4</ele>
        <time>2023-09-13T09:07:43Z</time>
      </trkpt>
      <trkpt lat="49.81297" lon="2.27502">
        <ele>116.4</ele>
        <time>2023-09-13T09:07:44Z</time>
      </trkpt>
      <trkpt lat="49.81295" lon="2.27501">
        <ele>116.4</ele>
        <time>2023-09-13T09:07:46Z</time>
      </trkpt>
      <trkpt lat="49.81294" lon="2.27501">
        <ele>116.4</ele>
        <time>2023-09-13T09:07:47Z</time>
      </trkpt>
      <trkpt lat="49.81293" lon="2.275">
        <ele>116.5</ele>
        <time>2023-09-13T09:07:48Z</time>
      </trkpt>
      <trkpt lat="49.81292" lon="2.275">
        <ele>116.5</ele>
        <time>2023-09-13T09:07:50Z</time>
      </trkpt>
      <trkpt lat="49.81291" lon="2.27499">
        <ele>116.5</ele>
        <time>2023-09-13T09:07:51Z</time>
      </trkpt>
      <trkpt lat="49.8129" lon="2.27498">
        <ele>116.5</ele>
        <time>2023-09-13T09:07:52Z</time>
      </trkpt>
      <trkpt lat="49.81289" lon="2.27497">
        <ele>116.5</ele>
        <time>2023-09-13T09:07:53Z</time>
      </trkpt>
      <trkpt lat="49.81288" lon="2.27496">
        <ele>116.6</ele>
        <time>2023-09-13T09:07:54Z</time>
      </trkpt>
      <trkpt lat="49.81288" lon="2.27495">
        <ele>116.6</ele>
        <time>2023-09-13T09:07:55Z</time>
      </trkpt>
      <trkpt lat="49.81287" lon="2.27494">
        <ele>116.6</ele>
        <time>2023-09-13T09:07:56Z</time>
      </trkpt>
      <trkpt lat="49.81286" lon="2.27493">
        <ele>116.6</ele>
        <time>2023-09-13T09:07:57Z</time>
      </trkpt>
      <trkpt lat="49.81283" lon="2.27492">
        <ele>116.7</ele>
        <time>2023-09-13T09:07:59Z</time>
      </trkpt>
      <trkpt lat="49.81282" lon="2.27492">
        <ele>116.7</ele>
        <time>2023-09-13T09:08:01Z</time>
      </trkpt>
      <trkpt lat="49.81281" lon="2.27491">
        <ele>116.7</ele>
        <time>2023-09-13T09:08:02Z</time>
      </trkpt>
      <trkpt lat="49.8128" lon="2.2749">
        <ele>116.7</ele>
        <time>2023-09-13T09:08:03Z</time>
      </trkpt>
      <trkpt lat="49.81279" lon="2.2749">
        <ele>116.8</ele>
        <time>2023-09-13T09:08:04Z</time>
      </trkpt>
      <trkpt lat="49.81277" lon="2.27489">
        <ele>116.8</ele>
        <time>2023-09-13T09:08:05Z</time>
      </trkpt>
      <trkpt lat="49.81276" lon="2.27489">
        <ele>116.8</ele>
        <time>2023-09-13T09:08:06Z</time>
      </trkpt>
      <trkpt lat="49.81275" lon="2.27489">
        <ele>116.8</ele>
        <time>2023-09-13T09:08:07Z</time>
      </trkpt>
      <trkpt lat="49.81274" lon="2.27489">
        <ele>116.9</ele>
        <time>2023-09-13T09:08:09Z</time>
      </trkpt>
      <trkpt lat="49.81272" lon="2.27488">
        <ele>116.9</ele>
        <time>2023-09-13T09:08:10Z</time>
      </trkpt>
      <trkpt lat="49.81271" lon="2.27487">
        <ele>116.9</ele>
        <time>2023-09-13T09:08:11Z</time>
      </trkpt>
      <trkpt lat="49.8127" lon="2.27486">
        <ele>116.9</ele>
        <time>2023-09-13T09:08:12Z</time>
      </trkpt>
      <trkpt lat="49.81269" lon="2.27485">
        <ele>117</ele>
        <time>2023-09-13T09:08:13Z</time>
      </trkpt>
      <trkpt lat="49.81267" lon="2.27484">
        <ele>117</ele>
        <time>2023-09-13T09:08:14Z</time>
      </trkpt>
      <trkpt lat="49.81266" lon="2.27483">
        <ele>117</ele>
        <time>2023-09-13T09:08:15Z</time>
      </trkpt>
      <trkpt lat="49.81265" lon="2.27482">
        <ele>117</ele>
        <time>2023-09-13T09:08:16Z</time>
      </trkpt>
      <trkpt lat="49.81263" lon="2.27481">
        <ele>117.1</ele>
        <time>2023-09-13T09:08:18Z</time>
      </trkpt>
      <trkpt lat="49.81262" lon="2.27481">
        <ele>117.1</ele>
        <time>2023-09-13T09:08:19Z</time>
      </trkpt>
      <trkpt lat="49.81261" lon="2.27481">
        <ele>117.1</ele>
        <time>2023-09-13T09:08:20Z</time>
      </trkpt>
      <trkpt lat="49.8126" lon="2.2748">
        <ele>117.1</ele>
        <time>2023-09-13T09:08:21Z</time>
      </trkpt>
      <trkpt lat="49.81259" lon="2.2748">
        <ele>117.1</ele>
        <time>2023-09-13T09:08:22Z</time>
      </trkpt>
      <trkpt lat="49.81257" lon="2.27479">
        <ele>117.2</ele>
        <time>2023-09-13T09:08:23Z</time>
      </trkpt>
      <trkpt lat="49.81256" lon="2.27478">
        <ele>117.2</ele>
        <time>2023-09-13T09:08:24Z</time>
      </trkpt>
      <trkpt lat="49.81255" lon="2.27478">
        <ele>117.2</ele>
        <time>2023-09-13T09:08:25Z</time>
      </trkpt>
      <trkpt lat="49.81253" lon="2.27477">
        <ele>117.2</ele>
        <time>2023-09-13T09:08:26Z</time>
      </trkpt>
      <trkpt lat="49.81253" lon="2.27476">
        <ele>117.2</ele>
        <time>2023-09-13T09:08:27Z</time>
      </trkpt>
      <trkpt lat="49.81252" lon="2.27476">
        <ele>117.2</ele>
        <time>2023-09-13T09:08:28Z</time>
      </trkpt>
      <trkpt lat="49.81251" lon="2.27476">
        <ele>117.3</ele>
        <time>2023-09-13T09:08:30Z</time>
      </trkpt>
      <trkpt lat="49.8125" lon="2.27475">
        <ele>117.3</ele>
        <time>2023-09-13T09:08:31Z</time>
      </trkpt>
      <trkpt lat="49.81249" lon="2.27474">
        <ele>117.3</ele>
        <time>2023-09-13T09:08:32Z</time>
      </trkpt>
      <trkpt lat="49.81247" lon="2.27474">
        <ele>117.3</ele>
        <time>2023-09-13T09:08:33Z</time>
      </trkpt>
      <trkpt lat="49.81246" lon="2.27474">
        <ele>117.3</ele>
        <time>2023-09-13T09:08:34Z</time>
      </trkpt>
      <trkpt lat="49.81245" lon="2.27473">
        <ele>117.3</ele>
        <time>2023-09-13T09:08:35Z</time>
      </trkpt>
      <trkpt lat="49.81243" lon="2.27473">
        <ele>117.4</ele>
        <time>2023-09-13T09:08:36Z</time>
      </trkpt>
      <trkpt lat="49.81242" lon="2.27472">
        <ele>117.4</ele>
        <time>2023-09-13T09:08:37Z</time>
      </trkpt>
      <trkpt lat="49.81241" lon="2.27472">
        <ele>117.4</ele>
        <time>2023-09-13T09:08:38Z</time>
      </trkpt>
      <trkpt lat="49.8124" lon="2.27472">
        <ele>117.4</ele>
        <time>2023-09-13T09:08:39Z</time>
      </trkpt>
      <trkpt lat="49.81239" lon="2.27472">
        <ele>117.4</ele>
        <time>2023-09-13T09:08:41Z</time>
      </trkpt>
      <trkpt lat="49.81238" lon="2.27471">
        <ele>117.5</ele>
        <time>2023-09-13T09:08:42Z</time>
      </trkpt>
      <trkpt lat="49.81236" lon="2.27471">
        <ele>117.5</ele>
        <time>2023-09-13T09:08:43Z</time>
      </trkpt>
      <trkpt lat="49.81235" lon="2.2747">
        <ele>117.5</ele>
        <time>2023-09-13T09:08:44Z</time>
      </trkpt>
      <trkpt lat="49.81235" lon="2.2747">
        <ele>117.5</ele>
        <time>2023-09-13T09:08:45Z</time>
      </trkpt>
      <trkpt lat="49.81233" lon="2.27469">
        <ele>117.5</ele>
        <time>2023-09-13T09:08:46Z</time>
      </trkpt>
      <trkpt lat="49.81231" lon="2.27469">
        <ele>117.5</ele>
        <time>2023-09-13T09:08:48Z</time>
      </trkpt>
      <trkpt lat="49.8123" lon="2.27468">
        <ele>117.6</ele>
        <time>2023-09-13T09:08:49Z</time>
      </trkpt>
      <trkpt lat="49.81229" lon="2.27467">
        <ele>117.6</ele>
        <time>2023-09-13T09:08:50Z</time>
      </trkpt>
      <trkpt lat="49.81228" lon="2.27467">
        <ele>117.6</ele>
        <time>2023-09-13T09:08:51Z</time>
      </trkpt>
      <trkpt lat="49.81227" lon="2.27466">
        <ele>117.6</ele>
        <time>2023-09-13T09:08:52Z</time>
      </trkpt>
      <trkpt lat="49.81226" lon="2.27466">
        <ele>117.6</ele>
        <time>2023-09-13T09:08:53Z</time>
      </trkpt>
      <trkpt lat="49.81225" lon="2.27465">
        <ele>117.6</ele>
        <time>2023-09-13T09:08:55Z</time>
      </trkpt>
      <trkpt lat="49.81223" lon="2.27464">
        <ele>117.6</ele>
        <time>2023-09-13T09:08:56Z</time>
      </trkpt>
      <trkpt lat="49.81222" lon="2.27463">
        <ele>117.6</ele>
        <time>2023-09-13T09:08:57Z</time>
      </trkpt>
      <trkpt lat="49.81221" lon="2.27462">
        <ele>117.6</ele>
        <time>2023-09-13T09:08:58Z</time>
      </trkpt>
      <trkpt lat="49.8122" lon="2.27461">
        <ele>117.7</ele>
        <time>2023-09-13T09:08:59Z</time>
      </trkpt>
      <trkpt lat="49.81219" lon="2.2746">
        <ele>117.7</ele>
        <time>2023-09-13T09:09:00Z</time>
      </trkpt>
      <trkpt lat="49.81218" lon="2.2746">
        <ele>117.7</ele>
        <time>2023-09-13T09:09:01Z</time>
      </trkpt>
      <trkpt lat="49.81217" lon="2.27459">
        <ele>117.6</ele>
        <time>2023-09-13T09:09:02Z</time>
      </trkpt>
      <trkpt lat="49.81215" lon="2.27458">
        <ele>117.6</ele>
        <time>2023-09-13T09:09:03Z</time>
      </trkpt>
      <trkpt lat="49.81213" lon="2.27457">
        <ele>117.6</ele>
        <time>2023-09-13T09:09:04Z</time>
      </trkpt>
      <trkpt lat="49.81212" lon="2.27457">
        <ele>117.6</ele>
        <time>2023-09-13T09:09:06Z</time>
      </trkpt>
      <trkpt lat="49.81211" lon="2.27456">
        <ele>117.6</ele>
        <time>2023-09-13T09:09:07Z</time>
      </trkpt>
      <trkpt lat="49.8121" lon="2.27455">
        <ele>117.6</ele>
        <time>2023-09-13T09:09:08Z</time>
      </trkpt>
      <trkpt lat="49.81209" lon="2.27455">
        <ele>117.6</ele>
        <time>2023-09-13T09:09:09Z</time>
      </trkpt>
      <trkpt lat="49.81208" lon="2.27454">
        <ele>117.6</ele>
        <time>2023-09-13T09:09:10Z</time>
      </trkpt>
      <trkpt lat="49.81206" lon="2.27453">
        <ele>117.6</ele>
        <time>2023-09-13T09:09:12Z</time>
      </trkpt>
      <trkpt lat="49.81205" lon="2.27453">
        <ele>117.6</ele>
        <time>2023-09-13T09:09:13Z</time>
      </trkpt>
      <trkpt lat="49.81204" lon="2.27452">
        <ele>117.6</ele>
        <time>2023-09-13T09:09:14Z</time>
      </trkpt>
      <trkpt lat="49.81203" lon="2.27452">
        <ele>117.6</ele>
        <time>2023-09-13T09:09:15Z</time>
      </trkpt>
      <trkpt lat="49.81202" lon="2.27451">
        <ele>117.6</ele>
        <time>2023-09-13T09:09:16Z</time>
      </trkpt>
      <trkpt lat="49.81201" lon="2.2745">
        <ele>117.5</ele>
        <time>2023-09-13T09:09:17Z</time>
      </trkpt>
      <trkpt lat="49.81199" lon="2.2745">
        <ele>117.5</ele>
        <time>2023-09-13T09:09:18Z</time>
      </trkpt>
      <trkpt lat="49.81198" lon="2.27449">
        <ele>117.5</ele>
        <time>2023-09-13T09:09:19Z</time>
      </trkpt>
      <trkpt lat="49.81197" lon="2.27449">
        <ele>117.5</ele>
        <time>2023-09-13T09:09:21Z</time>
      </trkpt>
      <trkpt lat="49.81195" lon="2.27448">
        <ele>117.5</ele>
        <time>2023-09-13T09:09:22Z</time>
      </trkpt>
      <trkpt lat="49.81194" lon="2.27447">
        <ele>117.5</ele>
        <time>2023-09-13T09:09:23Z</time>
      </trkpt>
      <trkpt lat="49.81193" lon="2.27447">
        <ele>117.5</ele>
        <time>2023-09-13T09:09:24Z</time>
      </trkpt>
      <trkpt lat="49.81192" lon="2.27447">
        <ele>117.5</ele>
        <time>2023-09-13T09:09:25Z</time>
      </trkpt>
      <trkpt lat="49.81191" lon="2.27447">
        <ele>117.5</ele>
        <time>2023-09-13T09:09:26Z</time>
      </trkpt>
      <trkpt lat="49.8119" lon="2.27447">
        <ele>117.5</ele>
        <time>2023-09-13T09:09:27Z</time>
      </trkpt>
      <trkpt lat="49.81189" lon="2.27446">
        <ele>117.4</ele>
        <time>2023-09-13T09:09:28Z</time>
      </trkpt>
      <trkpt lat="49.81187" lon="2.27446">
        <ele>117.4</ele>
        <time>2023-09-13T09:09:30Z</time>
      </trkpt>
      <trkpt lat="49.81187" lon="2.27446">
        <ele>117.4</ele>
        <time>2023-09-13T09:09:31Z</time>
      </trkpt>
      <trkpt lat="49.81185" lon="2.27445">
        <ele>117.4</ele>
        <time>2023-09-13T09:09:32Z</time>
      </trkpt>
      <trkpt lat="49.81184" lon="2.27445">
        <ele>117.4</ele>
        <time>2023-09-13T09:09:33Z</time>
      </trkpt>
      <trkpt lat="49.81183" lon="2.27445">
        <ele>117.4</ele>
        <time>2023-09-13T09:09:34Z</time>
      </trkpt>
      <trkpt lat="49.81182" lon="2.27445">
        <ele>117.4</ele>
        <time>2023-09-13T09:09:35Z</time>
      </trkpt>
      <trkpt lat="49.8118" lon="2.27444">
        <ele>117.4</ele>
        <time>2023-09-13T09:09:37Z</time>
      </trkpt>
      <trkpt lat="49.81179" lon="2.27443">
        <ele>117.3</ele>
        <time>2023-09-13T09:09:38Z</time>
      </trkpt>
      <trkpt lat="49.81178" lon="2.27443">
        <ele>117.3</ele>
        <time>2023-09-13T09:09:39Z</time>
      </trkpt>
      <trkpt lat="49.81177" lon="2.27443">
        <ele>117.3</ele>
        <time>2023-09-13T09:09:40Z</time>
      </trkpt>
      <trkpt lat="49.81176" lon="2.27442">
        <ele>117.3</ele>
        <time>2023-09-13T09:09:41Z</time>
      </trkpt>
      <trkpt lat="49.81174" lon="2.27442">
        <ele>117.3</ele>
        <time>2023-09-13T09:09:42Z</time>
      </trkpt>
      <trkpt lat="49.81172" lon="2.27442">
        <ele>117.3</ele>
        <time>2023-09-13T09:09:43Z</time>
      </trkpt>
      <trkpt lat="49.81172" lon="2.27442">
        <ele>117.3</ele>
        <time>2023-09-13T09:09:45Z</time>
      </trkpt>
      <trkpt lat="49.81171" lon="2.27442">
        <ele>117.3</ele>
        <time>2023-09-13T09:09:46Z</time>
      </trkpt>
      <trkpt lat="49.81169" lon="2.27441">
        <ele>117.3</ele>
        <time>2023-09-13T09:09:47Z</time>
      </trkpt>
      <trkpt lat="49.81168" lon="2.2744">
        <ele>117.3</ele>
        <time>2023-09-13T09:09:48Z</time>
      </trkpt>
      <trkpt lat="49.81166" lon="2.2744">
        <ele>117.2</ele>
        <time>2023-09-13T09:09:49Z</time>
      </trkpt>
      <trkpt lat="49.81165" lon="2.27439">
        <ele>117.2</ele>
        <time>2023-09-13T09:09:51Z</time>
      </trkpt>
      <trkpt lat="49.81164" lon="2.27439">
        <ele>117.2</ele>
        <time>2023-09-13T09:09:52Z</time>
      </trkpt>
      <trkpt lat="49.81162" lon="2.27438">
        <ele>117.2</ele>
        <time>2023-09-13T09:09:53Z</time>
      </trkpt>
      <trkpt lat="49.81161" lon="2.27438">
        <ele>117.2</ele>
        <time>2023-09-13T09:09:54Z</time>
      </trkpt>
      <trkpt lat="49.8116" lon="2.27438">
        <ele>117.2</ele>
        <time>2023-09-13T09:09:55Z</time>
      </trkpt>
      <trkpt lat="49.81158" lon="2.27438">
        <ele>117.2</ele>
        <time>2023-09-13T09:09:56Z</time>
      </trkpt>
      <trkpt lat="49.81157" lon="2.27437">
        <ele>117.2</ele>
        <time>2023-09-13T09:09:57Z</time>
      </trkpt>
      <trkpt lat="49.81156" lon="2.27437">
        <ele>117.2</ele>
        <time>2023-09-13T09:09:59Z</time>
      </trkpt>
      <trkpt lat="49.81155" lon="2.27437">
        <ele>117.1</ele>
        <time>2023-09-13T09:10:00Z</time>
      </trkpt>
      <trkpt lat="49.81154" lon="2.27437">
        <ele>117.1</ele>
        <time>2023-09-13T09:10:01Z</time>
      </trkpt>
      <trkpt lat="49.81153" lon="2.27436">
        <ele>117.1</ele>
        <time>2023-09-13T09:10:02Z</time>
      </trkpt>
      <trkpt lat="49.81152" lon="2.27436">
        <ele>117.1</ele>
        <time>2023-09-13T09:10:03Z</time>
      </trkpt>
      <trkpt lat="49.8115" lon="2.27435">
        <ele>117.1</ele>
        <time>2023-09-13T09:10:04Z</time>
      </trkpt>
      <trkpt lat="49.81149" lon="2.27435">
        <ele>117.1</ele>
        <time>2023-09-13T09:10:05Z</time>
      </trkpt>
      <trkpt lat="49.81147" lon="2.27434">
        <ele>117.1</ele>
        <time>2023-09-13T09:10:07Z</time>
      </trkpt>
      <trkpt lat="49.81145" lon="2.27433">
        <ele>117.1</ele>
        <time>2023-09-13T09:10:08Z</time>
      </trkpt>
      <trkpt lat="49.81144" lon="2.27433">
        <ele>117.1</ele>
        <time>2023-09-13T09:10:09Z</time>
      </trkpt>
      <trkpt lat="49.81142" lon="2.27433">
        <ele>117</ele>
        <time>2023-09-13T09:10:10Z</time>
      </trkpt>
      <trkpt lat="49.81142" lon="2.27433">
        <ele>117</ele>
        <time>2023-09-13T09:10:11Z</time>
      </trkpt>
      <trkpt lat="49.81141" lon="2.27432">
        <ele>117</ele>
        <time>2023-09-13T09:10:12Z</time>
      </trkpt>
      <trkpt lat="49.81138" lon="2.27431">
        <ele>117</ele>
        <time>2023-09-13T09:10:14Z</time>
      </trkpt>
      <trkpt lat="49.81137" lon="2.27431">
        <ele>117</ele>
        <time>2023-09-13T09:10:15Z</time>
      </trkpt>
      <trkpt lat="49.81135" lon="2.2743">
        <ele>117</ele>
        <time>2023-09-13T09:10:16Z</time>
      </trkpt>
      <trkpt lat="49.81134" lon="2.27429">
        <ele>117</ele>
        <time>2023-09-13T09:10:17Z</time>
      </trkpt>
      <trkpt lat="49.81133" lon="2.27429">
        <ele>117</ele>
        <time>2023-09-13T09:10:18Z</time>
      </trkpt>
      <trkpt lat="49.81133" lon="2.27429">
        <ele>117</ele>
        <time>2023-09-13T09:10:19Z</time>
      </trkpt>
      <trkpt lat="49.81132" lon="2.27428">
        <ele>116.9</ele>
        <time>2023-09-13T09:10:21Z</time>
      </trkpt>
      <trkpt lat="49.81132" lon="2.27427">
        <ele>116.9</ele>
        <time>2023-09-13T09:10:22Z</time>
      </trkpt>
      <trkpt lat="49.81133" lon="2.27426">
        <ele>116.9</ele>
        <time>2023-09-13T09:10:24Z</time>
      </trkpt>
      <trkpt lat="49.81134" lon="2.27426">
        <ele>116.9</ele>
        <time>2023-09-13T09:10:25Z</time>
      </trkpt>
      <trkpt lat="49.81135" lon="2.27426">
        <ele>116.9</ele>
        <time>2023-09-13T09:10:27Z</time>
      </trkpt>
      <trkpt lat="49.81135" lon="2.27426">
        <ele>116.9</ele>
        <time>2023-09-13T09:10:28Z</time>
      </trkpt>
      <trkpt lat="49.81136" lon="2.27426">
        <ele>116.9</ele>
        <time>2023-09-13T09:10:29Z</time>
      </trkpt>
      <trkpt lat="49.81136" lon="2.27426">
        <ele>116.9</ele>
        <time>2023-09-13T09:10:31Z</time>
      </trkpt>
      <trkpt lat="49.81136" lon="2.27426">
        <ele>116.9</ele>
        <time>2023-09-13T09:10:32Z</time>
      </trkpt>
      <trkpt lat="49.81136" lon="2.27426">
        <ele>116.9</ele>
        <time>2023-09-13T09:10:34Z</time>
      </trkpt>
      <trkpt lat="49.81136" lon="2.27426">
        <ele>116.9</ele>
        <time>2023-09-13T09:10:35Z</time>
      </trkpt>
      <trkpt lat="49.81136" lon="2.27426">
        <ele>116.9</ele>
        <time>2023-09-13T09:10:37Z</time>
      </trkpt>
      <trkpt lat="49.81136" lon="2.27426">
        <ele>116.9</ele>
        <time>2023-09-13T09:10:38Z</time>
      </trkpt>
      <trkpt lat="49.81136" lon="2.27426">
        <ele>116.9</ele>
        <time>2023-09-13T09:10:39Z</time>
      </trkpt>
      <trkpt lat="49.81136" lon="2.27426">
        <ele>116.9</ele>
        <time>2023-09-13T09:10:41Z</time>
      </trkpt>
      <trkpt lat="49.81136" lon="2.27427">
        <ele>116.9</ele>
        <time>2023-09-13T09:10:42Z</time>
      </trkpt>
      <trkpt lat="49.81136" lon="2.27427">
        <ele>116.9</ele>
        <time>2023-09-13T09:10:43Z</time>
      </trkpt>
      <trkpt lat="49.81136" lon="2.27427">
        <ele>116.9</ele>
        <time>2023-09-13T09:10:44Z</time>
      </trkpt>
      <trkpt lat="49.81136" lon="2.27427">
        <ele>116.9</ele>
        <time>2023-09-13T09:10:45Z</time>
      </trkpt>
      <trkpt lat="49.81136" lon="2.27427">
        <ele>116.9</ele>
        <time>2023-09-13T09:10:46Z</time>
      </trkpt>
      <trkpt lat="49.81137" lon="2.27428">
        <ele>116.9</ele>
        <time>2023-09-13T09:10:47Z</time>
      </trkpt>
      <trkpt lat="49.81137" lon="2.27428">
        <ele>116.9</ele>
        <time>2023-09-13T09:10:48Z</time>
      </trkpt>
      <trkpt lat="49.81138" lon="2.27428">
        <ele>116.9</ele>
        <time>2023-09-13T09:10:49Z</time>
      </trkpt>
      <trkpt lat="49.81138" lon="2.27428">
        <ele>116.9</ele>
        <time>2023-09-13T09:10:50Z</time>
      </trkpt>
      <trkpt lat="49.81138" lon="2.27428">
        <ele>116.9</ele>
        <time>2023-09-13T09:10:51Z</time>
      </trkpt>
      <trkpt lat="49.81138" lon="2.27428">
        <ele>116.9</ele>
        <time>2023-09-13T09:10:52Z</time>
      </trkpt>
      <trkpt lat="49.81138" lon="2.27428">
        <ele>116.9</ele>
        <time>2023-09-13T09:10:53Z</time>
      </trkpt>
      <trkpt lat="49.81136" lon="2.27427">
        <ele>116.9</ele>
        <time>2023-09-13T09:10:55Z</time>
      </trkpt>
      <trkpt lat="49.81136" lon="2.27427">
        <ele>116.9</ele>
        <time>2023-09-13T09:10:57Z</time>
      </trkpt>
      <trkpt lat="49.81135" lon="2.27428">
        <ele>116.9</ele>
        <time>2023-09-13T09:10:58Z</time>
      </trkpt>
      <trkpt lat="49.81134" lon="2.27428">
        <ele>116.9</ele>
        <time>2023-09-13T09:10:59Z</time>
      </trkpt>
      <trkpt lat="49.81133" lon="2.27429">
        <ele>116.8</ele>
        <time>2023-09-13T09:11:00Z</time>
      </trkpt>
      <trkpt lat="49.81133" lon="2.2743">
        <ele>116.8</ele>
        <time>2023-09-13T09:11:01Z</time>
      </trkpt>
      <trkpt lat="49.81132" lon="2.27431">
        <ele>116.8</ele>
        <time>2023-09-13T09:11:02Z</time>
      </trkpt>
      <trkpt lat="49.81131" lon="2.27432">
        <ele>116.8</ele>
        <time>2023-09-13T09:11:03Z</time>
      </trkpt>
      <trkpt lat="49.81131" lon="2.27433">
        <ele>116.8</ele>
        <time>2023-09-13T09:11:04Z</time>
      </trkpt>
      <trkpt lat="49.8113" lon="2.27434">
        <ele>116.8</ele>
        <time>2023-09-13T09:11:06Z</time>
      </trkpt>
      <trkpt lat="49.8113" lon="2.27432">
        <ele>116.8</ele>
        <time>2023-09-13T09:11:07Z</time>
      </trkpt>
      <trkpt lat="49.8113" lon="2.27431">
        <ele>116.8</ele>
        <time>2023-09-13T09:11:08Z</time>
      </trkpt>
      <trkpt lat="49.8113" lon="2.27431">
        <ele>116.8</ele>
        <time>2023-09-13T09:11:09Z</time>
      </trkpt>
      <trkpt lat="49.8113" lon="2.27431">
        <ele>116.8</ele>
        <time>2023-09-13T09:11:10Z</time>
      </trkpt>
      <trkpt lat="49.81129" lon="2.2743">
        <ele>116.8</ele>
        <time>2023-09-13T09:11:12Z</time>
      </trkpt>
      <trkpt lat="49.81128" lon="2.2743">
        <ele>116.8</ele>
        <time>2023-09-13T09:11:13Z</time>
      </trkpt>
      <trkpt lat="49.81127" lon="2.2743">
        <ele>116.8</ele>
        <time>2023-09-13T09:11:14Z</time>
      </trkpt>
      <trkpt lat="49.81126" lon="2.2743">
        <ele>116.7</ele>
        <time>2023-09-13T09:11:15Z</time>
      </trkpt>
      <trkpt lat="49.81124" lon="2.2743">
        <ele>116.7</ele>
        <time>2023-09-13T09:11:16Z</time>
      </trkpt>
      <trkpt lat="49.81122" lon="2.27429">
        <ele>116.7</ele>
        <time>2023-09-13T09:11:18Z</time>
      </trkpt>
      <trkpt lat="49.81121" lon="2.27429">
        <ele>116.7</ele>
        <time>2023-09-13T09:11:20Z</time>
      </trkpt>
      <trkpt lat="49.8112" lon="2.27428">
        <ele>116.7</ele>
        <time>2023-09-13T09:11:21Z</time>
      </trkpt>
      <trkpt lat="49.81119" lon="2.27428">
        <ele>116.7</ele>
        <time>2023-09-13T09:11:22Z</time>
      </trkpt>
      <trkpt lat="49.81118" lon="2.27427">
        <ele>116.7</ele>
        <time>2023-09-13T09:11:23Z</time>
      </trkpt>
      <trkpt lat="49.81118" lon="2.27427">
        <ele>116.6</ele>
        <time>2023-09-13T09:11:24Z</time>
      </trkpt>
      <trkpt lat="49.81117" lon="2.27426">
        <ele>116.6</ele>
        <time>2023-09-13T09:11:26Z</time>
      </trkpt>
      <trkpt lat="49.81117" lon="2.27425">
        <ele>116.6</ele>
        <time>2023-09-13T09:11:27Z</time>
      </trkpt>
      <trkpt lat="49.81117" lon="2.27424">
        <ele>116.6</ele>
        <time>2023-09-13T09:11:28Z</time>
      </trkpt>
      <trkpt lat="49.81118" lon="2.27424">
        <ele>116.6</ele>
        <time>2023-09-13T09:11:30Z</time>
      </trkpt>
      <trkpt lat="49.81119" lon="2.27423">
        <ele>116.6</ele>
        <time>2023-09-13T09:11:31Z</time>
      </trkpt>
      <trkpt lat="49.81119" lon="2.27423">
        <ele>116.6</ele>
        <time>2023-09-13T09:11:32Z</time>
      </trkpt>
      <trkpt lat="49.81119" lon="2.27424">
        <ele>116.6</ele>
        <time>2023-09-13T09:11:34Z</time>
      </trkpt>
      <trkpt lat="49.81119" lon="2.27424">
        <ele>116.6</ele>
        <time>2023-09-13T09:11:35Z</time>
      </trkpt>
      <trkpt lat="49.81119" lon="2.27424">
        <ele>116.6</ele>
        <time>2023-09-13T09:11:37Z</time>
      </trkpt>
      <trkpt lat="49.81119" lon="2.27424">
        <ele>116.6</ele>
        <time>2023-09-13T09:11:38Z</time>
      </trkpt>
      <trkpt lat="49.81119" lon="2.27425">
        <ele>116.6</ele>
        <time>2023-09-13T09:11:39Z</time>
      </trkpt>
      <trkpt lat="49.81119" lon="2.27425">
        <ele>116.6</ele>
        <time>2023-09-13T09:11:41Z</time>
      </trkpt>
      <trkpt lat="49.81118" lon="2.27425">
        <ele>116.6</ele>
        <time>2023-09-13T09:11:42Z</time>
      </trkpt>
      <trkpt lat="49.81118" lon="2.27425">
        <ele>116.6</ele>
        <time>2023-09-13T09:11:43Z</time>
      </trkpt>
      <trkpt lat="49.81118" lon="2.27425">
        <ele>116.6</ele>
        <time>2023-09-13T09:11:44Z</time>
      </trkpt>
      <trkpt lat="49.81118" lon="2.27426">
        <ele>116.6</ele>
        <time>2023-09-13T09:11:46Z</time>
      </trkpt>
      <trkpt lat="49.81117" lon="2.27426">
        <ele>116.6</ele>
        <time>2023-09-13T09:11:47Z</time>
      </trkpt>
      <trkpt lat="49.81117" lon="2.27426">
        <ele>116.6</ele>
        <time>2023-09-13T09:11:48Z</time>
      </trkpt>
      <trkpt lat="49.81117" lon="2.27426">
        <ele>116.6</ele>
        <time>2023-09-13T09:11:49Z</time>
      </trkpt>
      <trkpt lat="49.81117" lon="2.27426">
        <ele>116.6</ele>
        <time>2023-09-13T09:11:50Z</time>
      </trkpt>
      <trkpt lat="49.81117" lon="2.27426">
        <ele>116.6</ele>
        <time>2023-09-13T09:11:51Z</time>
      </trkpt>
      <trkpt lat="49.81117" lon="2.27426">
        <ele>116.6</ele>
        <time>2023-09-13T09:11:52Z</time>
      </trkpt>
      <trkpt lat="49.81117" lon="2.27426">
        <ele>116.6</ele>
        <time>2023-09-13T09:11:53Z</time>
      </trkpt>
      <trkpt lat="49.81117" lon="2.27426">
        <ele>116.6</ele>
        <time>2023-09-13T09:11:54Z</time>
      </trkpt>
      <trkpt lat="49.81117" lon="2.27426">
        <ele>116.6</ele>
        <time>2023-09-13T09:11:55Z</time>
      </trkpt>
      <trkpt lat="49.81117" lon="2.27426">
        <ele>116.6</ele>
        <time>2023-09-13T09:11:56Z</time>
      </trkpt>
      <trkpt lat="49.81116" lon="2.27425">
        <ele>116.5</ele>
        <time>2023-09-13T09:11:57Z</time>
      </trkpt>
      <trkpt lat="49.81115" lon="2.27425">
        <ele>116.5</ele>
        <time>2023-09-13T09:11:58Z</time>
      </trkpt>
      <trkpt lat="49.81114" lon="2.27425">
        <ele>116.5</ele>
        <time>2023-09-13T09:11:59Z</time>
      </trkpt>
      <trkpt lat="49.81114" lon="2.27425">
        <ele>116.5</ele>
        <time>2023-09-13T09:12:00Z</time>
      </trkpt>
      <trkpt lat="49.81114" lon="2.27424">
        <ele>116.5</ele>
        <time>2023-09-13T09:12:01Z</time>
      </trkpt>
      <trkpt lat="49.81114" lon="2.27424">
        <ele>116.5</ele>
        <time>2023-09-13T09:12:02Z</time>
      </trkpt>
      <trkpt lat="49.81114" lon="2.27425">
        <ele>116.5</ele>
        <time>2023-09-13T09:12:03Z</time>
      </trkpt>
      <trkpt lat="49.81114" lon="2.27425">
        <ele>116.5</ele>
        <time>2023-09-13T09:12:04Z</time>
      </trkpt>
      <trkpt lat="49.81114" lon="2.27425">
        <ele>116.5</ele>
        <time>2023-09-13T09:12:05Z</time>
      </trkpt>
      <trkpt lat="49.81114" lon="2.27425">
        <ele>116.5</ele>
        <time>2023-09-13T09:12:06Z</time>
      </trkpt>
      <trkpt lat="49.81114" lon="2.27425">
        <ele>116.5</ele>
        <time>2023-09-13T09:12:07Z</time>
      </trkpt>
      <trkpt lat="49.81114" lon="2.27425">
        <ele>116.5</ele>
        <time>2023-09-13T09:12:08Z</time>
      </trkpt>
      <trkpt lat="49.81114" lon="2.27425">
        <ele>116.5</ele>
        <time>2023-09-13T09:12:09Z</time>
      </trkpt>
      <trkpt lat="49.81114" lon="2.27425">
        <ele>116.5</ele>
        <time>2023-09-13T09:12:10Z</time>
      </trkpt>
      <trkpt lat="49.81114" lon="2.27425">
        <ele>116.5</ele>
        <time>2023-09-13T09:12:11Z</time>
      </trkpt>
      <trkpt lat="49.81114" lon="2.27425">
        <ele>116.5</ele>
        <time>2023-09-13T09:12:12Z</time>
      </trkpt>
      <trkpt lat="49.81114" lon="2.27425">
        <ele>116.5</ele>
        <time>2023-09-13T09:12:13Z</time>
      </trkpt>
      <trkpt lat="49.81114" lon="2.27425">
        <ele>116.5</ele>
        <time>2023-09-13T09:12:14Z</time>
      </trkpt>
      <trkpt lat="49.81114" lon="2.27425">
        <ele>116.5</ele>
        <time>2023-09-13T09:12:15Z</time>
      </trkpt>
      <trkpt lat="49.81114" lon="2.27425">
        <ele>116.5</ele>
        <time>2023-09-13T09:12:16Z</time>
      </trkpt>
      <trkpt lat="49.81114" lon="2.27425">
        <ele>116.5</ele>
        <time>2023-09-13T09:12:17Z</time>
      </trkpt>
      <trkpt lat="49.81114" lon="2.27424">
        <ele>116.5</ele>
        <time>2023-09-13T09:12:19Z</time>
      </trkpt>
      <trkpt lat="49.81114" lon="2.27424">
        <ele>116.5</ele>
        <time>2023-09-13T09:12:20Z</time>
      </trkpt>
      <trkpt lat="49.81114" lon="2.27424">
        <ele>116.5</ele>
        <time>2023-09-13T09:12:21Z</time>
      </trkpt>
      <trkpt lat="49.81114" lon="2.27424">
        <ele>116.5</ele>
        <time>2023-09-13T09:12:23Z</time>
      </trkpt>
      <trkpt lat="49.81114" lon="2.27424">
        <ele>116.5</ele>
        <time>2023-09-13T09:12:24Z</time>
      </trkpt>
      <trkpt lat="49.81114" lon="2.27424">
        <ele>116.5</ele>
        <time>2023-09-13T09:12:25Z</time>
      </trkpt>
      <trkpt lat="49.81114" lon="2.27424">
        <ele>116.5</ele>
        <time>2023-09-13T09:12:27Z</time>
      </trkpt>
      <trkpt lat="49.81114" lon="2.27424">
        <ele>116.5</ele>
        <time>2023-09-13T09:12:28Z</time>
      </trkpt>
      <trkpt lat="49.81114" lon="2.27424">
        <ele>116.5</ele>
        <time>2023-09-13T09:12:30Z</time>
      </trkpt>
      <trkpt lat="49.81114" lon="2.27424">
        <ele>116.5</ele>
        <time>2023-09-13T09:12:31Z</time>
      </trkpt>
      <trkpt lat="49.81114" lon="2.27424">
        <ele>116.5</ele>
        <time>2023-09-13T09:12:32Z</time>
      </trkpt>
      <trkpt lat="49.81114" lon="2.27424">
        <ele>116.5</ele>
        <time>2023-09-13T09:12:33Z</time>
      </trkpt>
      <trkpt lat="49.81114" lon="2.27425">
        <ele>116.5</ele>
        <time>2023-09-13T09:12:34Z</time>
      </trkpt>
      <trkpt lat="49.81114" lon="2.27425">
        <ele>116.5</ele>
        <time>2023-09-13T09:12:35Z</time>
      </trkpt>
      <trkpt lat="49.81114" lon="2.27425">
        <ele>116.5</ele>
        <time>2023-09-13T09:12:36Z</time>
      </trkpt>
      <trkpt lat="49.81114" lon="2.27425">
        <ele>116.5</ele>
        <time>2023-09-13T09:12:37Z</time>
      </trkpt>
      <trkpt lat="49.81114" lon="2.27425">
        <ele>116.5</ele>
        <time>2023-09-13T09:12:38Z</time>
      </trkpt>
      <trkpt lat="49.81114" lon="2.27425">
        <ele>116.5</ele>
        <time>2023-09-13T09:12:39Z</time>
      </trkpt>
      <trkpt lat="49.81114" lon="2.27425">
        <ele>116.5</ele>
        <time>2023-09-13T09:12:40Z</time>
      </trkpt>
      <trkpt lat="49.81114" lon="2.27425">
        <ele>116.5</ele>
        <time>2023-09-13T09:12:41Z</time>
      </trkpt>
      <trkpt lat="49.81114" lon="2.27425">
        <ele>116.5</ele>
        <time>2023-09-13T09:12:42Z</time>
      </trkpt>
      <trkpt lat="49.81114" lon="2.27425">
        <ele>116.5</ele>
        <time>2023-09-13T09:12:43Z</time>
      </trkpt>
      <trkpt lat="49.81114" lon="2.27425">
        <ele>116.5</ele>
        <time>2023-09-13T09:12:44Z</time>
      </trkpt>
      <trkpt lat="49.81114" lon="2.27425">
        <ele>116.5</ele>
        <time>2023-09-13T09:12:45Z</time>
      </trkpt>
      <trkpt lat="49.81114" lon="2.27425">
        <ele>116.5</ele>
        <time>2023-09-13T09:12:46Z</time>
      </trkpt>
      <trkpt lat="49.81114" lon="2.27425">
        <ele>116.5</ele>
        <time>2023-09-13T09:12:47Z</time>
      </trkpt>
      <trkpt lat="49.81114" lon="2.27425">
        <ele>116.5</ele>
        <time>2023-09-13T09:12:48Z</time>
      </trkpt>
      <trkpt lat="49.81114" lon="2.27425">
        <ele>116.5</ele>
        <time>2023-09-13T09:12:49Z</time>
      </trkpt>
      <trkpt lat="49.81114" lon="2.27425">
        <ele>116.5</ele>
        <time>2023-09-13T09:12:50Z</time>
      </trkpt>
      <trkpt lat="49.81114" lon="2.27425">
        <ele>116.5</ele>
        <time>2023-09-13T09:12:51Z</time>
      </trkpt>
      <trkpt lat="49.81114" lon="2.27425">
        <ele>116.5</ele>
        <time>2023-09-13T09:12:52Z</time>
      </trkpt>
      <trkpt lat="49.81114" lon="2.27425">
        <ele>116.5</ele>
        <time>2023-09-13T09:12:53Z</time>
      </trkpt>
      <trkpt lat="49.81114" lon="2.27425">
        <ele>116.5</ele>
        <time>2023-09-13T09:12:54Z</time>
      </trkpt>
      <trkpt lat="49.81114" lon="2.27425">
        <ele>116.5</ele>
        <time>2023-09-13T09:12:55Z</time>
      </trkpt>
      <trkpt lat="49.81114" lon="2.27425">
        <ele>116.5</ele>
        <time>2023-09-13T09:12:56Z</time>
      </trkpt>
      <trkpt lat="49.81114" lon="2.27425">
        <ele>116.5</ele>
        <time>2023-09-13T09:12:57Z</time>
      </trkpt>
      <trkpt lat="49.81114" lon="2.27425">
        <ele>116.5</ele>
        <time>2023-09-13T09:12:58Z</time>
      </trkpt>
      <trkpt lat="49.81114" lon="2.27425">
        <ele>116.5</ele>
        <time>2023-09-13T09:12:59Z</time>
      </trkpt>
      <trkpt lat="49.81114" lon="2.27424">
        <ele>116.5</ele>
        <time>2023-09-13T09:13:00Z</time>
      </trkpt>
      <trkpt lat="49.81114" lon="2.27424">
        <ele>116.5</ele>
        <time>2023-09-13T09:13:02Z</time>
      </trkpt>
      <trkpt lat="49.81114" lon="2.27424">
        <ele>116.5</ele>
        <time>2023-09-13T09:13:03Z</time>
      </trkpt>
      <trkpt lat="49.81114" lon="2.27424">
        <ele>116.5</ele>
        <time>2023-09-13T09:13:04Z</time>
      </trkpt>
      <trkpt lat="49.81114" lon="2.27424">
        <ele>116.5</ele>
        <time>2023-09-13T09:13:06Z</time>
      </trkpt>
      <trkpt lat="49.81114" lon="2.27424">
        <ele>116.5</ele>
        <time>2023-09-13T09:13:07Z</time>
      </trkpt>
      <trkpt lat="49.81114" lon="2.27424">
        <ele>116.5</ele>
        <time>2023-09-13T09:13:08Z</time>
      </trkpt>
      <trkpt lat="49.81114" lon="2.27424">
        <ele>116.5</ele>
        <time>2023-09-13T09:13:10Z</time>
      </trkpt>
      <trkpt lat="49.81114" lon="2.27424">
        <ele>116.5</ele>
        <time>2023-09-13T09:13:11Z</time>
      </trkpt>
      <trkpt lat="49.81114" lon="2.27424">
        <ele>116.5</ele>
        <time>2023-09-13T09:13:13Z</time>
      </trkpt>
      <trkpt lat="49.81114" lon="2.27424">
        <ele>116.5</ele>
        <time>2023-09-13T09:13:14Z</time>
      </trkpt>
      <trkpt lat="49.81114" lon="2.27424">
        <ele>116.5</ele>
        <time>2023-09-13T09:13:16Z</time>
      </trkpt>
      <trkpt lat="49.81114" lon="2.27424">
        <ele>116.5</ele>
        <time>2023-09-13T09:13:17Z</time>
      </trkpt>
      <trkpt lat="49.81114" lon="2.27424">
        <ele>116.5</ele>
        <time>2023-09-13T09:13:19Z</time>
      </trkpt>
      <trkpt lat="49.81114" lon="2.27424">
        <ele>116.5</ele>
        <time>2023-09-13T09:13:20Z</time>
      </trkpt>
      <trkpt lat="49.81114" lon="2.27424">
        <ele>116.5</ele>
        <time>2023-09-13T09:13:21Z</time>
      </trkpt>
      <trkpt lat="49.81114" lon="2.27424">
        <ele>116.5</ele>
        <time>2023-09-13T09:13:22Z</time>
      </trkpt>
      <trkpt lat="49.81114" lon="2.27425">
        <ele>116.5</ele>
        <time>2023-09-13T09:13:23Z</time>
      </trkpt>
      <trkpt lat="49.81114" lon="2.27425">
        <ele>116.5</ele>
        <time>2023-09-13T09:13:24Z</time>
      </trkpt>
      <trkpt lat="49.81114" lon="2.27425">
        <ele>116.5</ele>
        <time>2023-09-13T09:13:25Z</time>
      </trkpt>
      <trkpt lat="49.81114" lon="2.27425">
        <ele>116.5</ele>
        <time>2023-09-13T09:13:26Z</time>
      </trkpt>
      <trkpt lat="49.81114" lon="2.27425">
        <ele>116.5</ele>
        <time>2023-09-13T09:13:27Z</time>
      </trkpt>
      <trkpt lat="49.81114" lon="2.27425">
        <ele>116.5</ele>
        <time>2023-09-13T09:13:28Z</time>
      </trkpt>
      <trkpt lat="49.81114" lon="2.27425">
        <ele>116.5</ele>
        <time>2023-09-13T09:13:29Z</time>
      </trkpt>
      <trkpt lat="49.81114" lon="2.27425">
        <ele>116.5</ele>
        <time>2023-09-13T09:13:30Z</time>
      </trkpt>
      <trkpt lat="49.81114" lon="2.27425">
        <ele>116.5</ele>
        <time>2023-09-13T09:13:31Z</time>
      </trkpt>
      <trkpt lat="49.81114" lon="2.27425">
        <ele>116.5</ele>
        <time>2023-09-13T09:13:32Z</time>
      </trkpt>
      <trkpt lat="49.81114" lon="2.27425">
        <ele>116.5</ele>
        <time>2023-09-13T09:13:33Z</time>
      </trkpt>
      <trkpt lat="49.81114" lon="2.27424">
        <ele>116.5</ele>
        <time>2023-09-13T09:13:34Z</time>
      </trkpt>
      <trkpt lat="49.81114" lon="2.27424">
        <ele>116.5</ele>
        <time>2023-09-13T09:13:35Z</time>
      </trkpt>
      <trkpt lat="49.81114" lon="2.27424">
        <ele>116.5</ele>
        <time>2023-09-13T09:13:36Z</time>
      </trkpt>
      <trkpt lat="49.81114" lon="2.27424">
        <ele>116.5</ele>
        <time>2023-09-13T09:13:37Z</time>
      </trkpt>
      <trkpt lat="49.81114" lon="2.27424">
        <ele>116.5</ele>
        <time>2023-09-13T09:13:38Z</time>
      </trkpt>
      <trkpt lat="49.81114" lon="2.27424">
        <ele>116.5</ele>
        <time>2023-09-13T09:13:39Z</time>
      </trkpt>
      <trkpt lat="49.81114" lon="2.27424">
        <ele>116.5</ele>
        <time>2023-09-13T09:13:40Z</time>
      </trkpt>
      <trkpt lat="49.81114" lon="2.27424">
        <ele>116.5</ele>
        <time>2023-09-13T09:13:41Z</time>
      </trkpt>
      <trkpt lat="49.81114" lon="2.27424">
        <ele>116.5</ele>
        <time>2023-09-13T09:13:42Z</time>
      </trkpt>
      <trkpt lat="49.81114" lon="2.27424">
        <ele>116.5</ele>
        <time>2023-09-13T09:13:43Z</time>
      </trkpt>
      <trkpt lat="49.81114" lon="2.27424">
        <ele>116.5</ele>
        <time>2023-09-13T09:13:44Z</time>
      </trkpt>
      <trkpt lat="49.81114" lon="2.27425">
        <ele>116.5</ele>
        <time>2023-09-13T09:13:45Z</time>
      </trkpt>
      <trkpt lat="49.81114" lon="2.27425">
        <ele>116.5</ele>
        <time>2023-09-13T09:13:46Z</time>
      </trkpt>
      <trkpt lat="49.81114" lon="2.27425">
        <ele>116.5</ele>
        <time>2023-09-13T09:13:47Z</time>
      </trkpt>
      <trkpt lat="49.81114" lon="2.27425">
        <ele>116.5</ele>
        <time>2023-09-13T09:13:48Z</time>
      </trkpt>
      <trkpt lat="49.81114" lon="2.27425">
        <ele>116.5</ele>
        <time>2023-09-13T09:13:49Z</time>
      </trkpt>
      <trkpt lat="49.81114" lon="2.27425">
        <ele>116.5</ele>
        <time>2023-09-13T09:13:50Z</time>
      </trkpt>
      <trkpt lat="49.81114" lon="2.27425">
        <ele>116.5</ele>
        <time>2023-09-13T09:13:51Z</time>
      </trkpt>
      <trkpt lat="49.81114" lon="2.27425">
        <ele>116.5</ele>
        <time>2023-09-13T09:13:52Z</time>
      </trkpt>
      <trkpt lat="49.81114" lon="2.27425">
        <ele>116.5</ele>
        <time>2023-09-13T09:13:53Z</time>
      </trkpt>
      <trkpt lat="49.81114" lon="2.27425">
        <ele>116.5</ele>
        <time>2023-09-13T09:13:54Z</time>
      </trkpt>
      <trkpt lat="49.81114" lon="2.27425">
        <ele>116.5</ele>
        <time>2023-09-13T09:13:55Z</time>
      </trkpt>
      <trkpt lat="49.81114" lon="2.27425">
        <ele>116.5</ele>
        <time>2023-09-13T09:13:56Z</time>
      </trkpt>
      <trkpt lat="49.81114" lon="2.27425">
        <ele>116.5</ele>
        <time>2023-09-13T09:13:57Z</time>
      </trkpt>
      <trkpt lat="49.81114" lon="2.27425">
        <ele>116.5</ele>
        <time>2023-09-13T09:13:58Z</time>
      </trkpt>
      <trkpt lat="49.81114" lon="2.27424">
        <ele>116.5</ele>
        <time>2023-09-13T09:13:59Z</time>
      </trkpt>
      <trkpt lat="49.81114" lon="2.27424">
        <ele>116.5</ele>
        <time>2023-09-13T09:14:00Z</time>
      </trkpt>
      <trkpt lat="49.81114" lon="2.27424">
        <ele>116.5</ele>
        <time>2023-09-13T09:14:01Z</time>
      </trkpt>
      <trkpt lat="49.81114" lon="2.27424">
        <ele>116.5</ele>
        <time>2023-09-13T09:14:02Z</time>
      </trkpt>
      <trkpt lat="49.81114" lon="2.27424">
        <ele>116.5</ele>
        <time>2023-09-13T09:14:03Z</time>
      </trkpt>
      <trkpt lat="49.81114" lon="2.27424">
        <ele>116.5</ele>
        <time>2023-09-13T09:14:04Z</time>
      </trkpt>
      <trkpt lat="49.81114" lon="2.27424">
        <ele>116.5</ele>
        <time>2023-09-13T09:14:05Z</time>
      </trkpt>
      <trkpt lat="49.81114" lon="2.27424">
        <ele>116.5</ele>
        <time>2023-09-13T09:14:06Z</time>
      </trkpt>
      <trkpt lat="49.81114" lon="2.27424">
        <ele>116.5</ele>
        <time>2023-09-13T09:14:07Z</time>
      </trkpt>
      <trkpt lat="49.81114" lon="2.27424">
        <ele>116.5</ele>
        <time>2023-09-13T09:14:08Z</time>
      </trkpt>
      <trkpt lat="49.81114" lon="2.27424">
        <ele>116.5</ele>
        <time>2023-09-13T09:14:09Z</time>
      </trkpt>
      <trkpt lat="49.81114" lon="2.27424">
        <ele>116.5</ele>
        <time>2023-09-13T09:14:10Z</time>
      </trkpt>
      <trkpt lat="49.81114" lon="2.27424">
        <ele>116.5</ele>
        <time>2023-09-13T09:14:11Z</time>
      </trkpt>
      <trkpt lat="49.81114" lon="2.27424">
        <ele>116.5</ele>
        <time>2023-09-13T09:14:12Z</time>
      </trkpt>
      <trkpt lat="49.81114" lon="2.27424">
        <ele>116.5</ele>
        <time>2023-09-13T09:14:13Z</time>
      </trkpt>
      <trkpt lat="49.81114" lon="2.27424">
        <ele>116.5</ele>
        <time>2023-09-13T09:14:14Z</time>
      </trkpt>
      <trkpt lat="49.81114" lon="2.27424">
        <ele>116.5</ele>
        <time>2023-09-13T09:14:15Z</time>
      </trkpt>
      <trkpt lat="49.81114" lon="2.27424">
        <ele>116.5</ele>
        <time>2023-09-13T09:14:16Z</time>
      </trkpt>
      <trkpt lat="49.81114" lon="2.27424">
        <ele>116.5</ele>
        <time>2023-09-13T09:14:17Z</time>
      </trkpt>
      <trkpt lat="49.81114" lon="2.27424">
        <ele>116.5</ele>
        <time>2023-09-13T09:14:18Z</time>
      </trkpt>
      <trkpt lat="49.81114" lon="2.27424">
        <ele>116.5</ele>
        <time>2023-09-13T09:14:19Z</time>
      </trkpt>
      <trkpt lat="49.81114" lon="2.27424">
        <ele>116.5</ele>
        <time>2023-09-13T09:14:20Z</time>
      </trkpt>
      <trkpt lat="49.81114" lon="2.27424">
        <ele>116.5</ele>
        <time>2023-09-13T09:14:21Z</time>
      </trkpt>
      <trkpt lat="49.81114" lon="2.27424">
        <ele>116.5</ele>
        <time>2023-09-13T09:14:22Z</time>
      </trkpt>
      <trkpt lat="49.81114" lon="2.27424">
        <ele>116.5</ele>
        <time>2023-09-13T09:14:23Z</time>
      </trkpt>
      <trkpt lat="49.81114" lon="2.27424">
        <ele>116.5</ele>
        <time>2023-09-13T09:14:24Z</time>
      </trkpt>
      <trkpt lat="49.81114" lon="2.27424">
        <ele>116.5</ele>
        <time>2023-09-13T09:14:25Z</time>
      </trkpt>
      <trkpt lat="49.81114" lon="2.27424">
        <ele>116.5</ele>
        <time>2023-09-13T09:14:26Z</time>
      </trkpt>
      <trkpt lat="49.81114" lon="2.27424">
        <ele>116.5</ele>
        <time>2023-09-13T09:14:27Z</time>
      </trkpt>
      <trkpt lat="49.81114" lon="2.27424">
        <ele>116.5</ele>
        <time>2023-09-13T09:14:28Z</time>
      </trkpt>
      <trkpt lat="49.81114" lon="2.27424">
        <ele>116.5</ele>
        <time>2023-09-13T09:14:29Z</time>
      </trkpt>
      <trkpt lat="49.81114" lon="2.27424">
        <ele>116.5</ele>
        <time>2023-09-13T09:14:30Z</time>
      </trkpt>
      <trkpt lat="49.81114" lon="2.27424">
        <ele>116.5</ele>
        <time>2023-09-13T09:14:31Z</time>
      </trkpt>
      <trkpt lat="49.81114" lon="2.27424">
        <ele>116.5</ele>
        <time>2023-09-13T09:14:32Z</time>
      </trkpt>
      <trkpt lat="49.81114" lon="2.27424">
        <ele>116.5</ele>
        <time>2023-09-13T09:14:33Z</time>
      </trkpt>
      <trkpt lat="49.81114" lon="2.27424">
        <ele>116.5</ele>
        <time>2023-09-13T09:14:34Z</time>
      </trkpt>
      <trkpt lat="49.81114" lon="2.27424">
        <ele>116.5</ele>
        <time>2023-09-13T09:14:35Z</time>
      </trkpt>
      <trkpt lat="49.81114" lon="2.27424">
        <ele>116.5</ele>
        <time>2023-09-13T09:14:36Z</time>
      </trkpt>
      <trkpt lat="49.81114" lon="2.27424">
        <ele>116.5</ele>
        <time>2023-09-13T09:14:37Z</time>
      </trkpt>
      <trkpt lat="49.81114" lon="2.27424">
        <ele>116.5</ele>
        <time>2023-09-13T09:14:38Z</time>
      </trkpt>
      <trkpt lat="49.81114" lon="2.27424">
        <ele>116.5</ele>
        <time>2023-09-13T09:14:39Z</time>
      </trkpt>
      <trkpt lat="49.81113" lon="2.27424">
        <ele>116.4</ele>
        <time>2023-09-13T09:14:40Z</time>
      </trkpt>
      <trkpt lat="49.81112" lon="2.27424">
        <ele>116.4</ele>
        <time>2023-09-13T09:14:41Z</time>
      </trkpt>
      <trkpt lat="49.81111" lon="2.27423">
        <ele>116.4</ele>
        <time>2023-09-13T09:14:44Z</time>
      </trkpt>
      <trkpt lat="49.81111" lon="2.27423">
        <ele>116.4</ele>
        <time>2023-09-13T09:14:45Z</time>
      </trkpt>
      <trkpt lat="49.81111" lon="2.27422">
        <ele>116.4</ele>
        <time>2023-09-13T09:14:46Z</time>
      </trkpt>
      <trkpt lat="49.81113" lon="2.27423">
        <ele>116.4</ele>
        <time>2023-09-13T09:14:48Z</time>
      </trkpt>
    </trkseg>
  </trk>
</gpx>